<?xml version='1.0' encoding='UTF-8'?><gpx version="1.1" creator="JPX - https://github.com/jenetics/jpx" xmlns="http://www.topografix.com/GPX/1/1"><trk><trkseg><trkpt lat="43.8602588" lon="10.2617299"><ele>2.9999999999999996</ele><time>2026-05-01T07:30:57.038Z</time></trkpt><trkpt lat="43.8602966" lon="10.2618171"><ele>3.0</ele><time>2026-05-01T07:32:06.053Z</time></trkpt><trkpt lat="43.8603291" lon="10.2618921"><ele>3.0</ele><time>2026-05-01T07:32:09.046Z</time></trkpt><trkpt lat="43.8604128" lon="10.2618912"><ele>3.0</ele><time>2026-05-01T07:32:13.054Z</time></trkpt><trkpt lat="43.8604908" lon="10.2618465"><ele>3.0</ele><time>2026-05-01T07:32:16.056Z</time></trkpt><trkpt lat="43.860556" lon="10.2617874"><ele>2.9999999999999996</ele><time>2026-05-01T07:32:20.065Z</time></trkpt><trkpt lat="43.8605413" lon="10.2617012"><ele>3.0</ele><time>2026-05-01T07:32:23.044Z</time></trkpt><trkpt lat="43.8605015" lon="10.2614785"><ele>3.0</ele><time>2026-05-01T07:36:31.589Z</time></trkpt><trkpt lat="43.8603813" lon="10.2612998"><ele>3.0</ele><time>2026-05-01T07:36:37.871Z</time></trkpt><trkpt lat="43.8607278" lon="10.2608949"><ele>4.0</ele><time>2026-05-01T07:36:44.226Z</time></trkpt><trkpt lat="43.8612908" lon="10.2605693"><ele>4.0</ele><time>2026-05-01T07:36:50.409Z</time></trkpt><trkpt lat="43.8616645" lon="10.2603224"><ele>4.0</ele><time>2026-05-01T07:36:56.692Z</time></trkpt><trkpt lat="43.8622228" lon="10.2599262"><ele>4.0</ele><time>2026-05-01T07:37:02.961Z</time></trkpt><trkpt lat="43.8624051" lon="10.2591452"><ele>2.0</ele><time>2026-05-01T07:37:09.936Z</time></trkpt><trkpt lat="43.8631924" lon="10.2584158"><ele>4.0</ele><time>2026-05-01T07:37:16.841Z</time></trkpt><trkpt lat="43.8624154" lon="10.2595843"><ele>4.0</ele><time>2026-05-01T07:37:38.924Z</time></trkpt><trkpt lat="43.8622755" lon="10.2598384"><ele>4.0</ele><time>2026-05-01T07:37:45.91Z</time></trkpt><trkpt lat="43.8612497" lon="10.2612019"><ele>0.0</ele><time>2026-05-01T07:37:52.918Z</time></trkpt><trkpt lat="43.8599742" lon="10.2653172"><ele>0.0</ele><time>2026-05-01T07:38:08.797Z</time></trkpt><trkpt lat="43.8599902" lon="10.264773"><ele>0.0</ele><time>2026-05-01T07:38:13.026Z</time></trkpt><trkpt lat="43.8599063" lon="10.264881"><ele>0.0</ele><time>2026-05-01T07:38:14.038Z</time></trkpt><trkpt lat="43.8598294" lon="10.2650047"><ele>0.0</ele><time>2026-05-01T07:38:15.043Z</time></trkpt><trkpt lat="43.8597826" lon="10.2651276"><ele>0.0</ele><time>2026-05-01T07:38:16.043Z</time></trkpt><trkpt lat="43.8597649" lon="10.2653487"><ele>0.0</ele><time>2026-05-01T07:38:18.043Z</time></trkpt><trkpt lat="43.8597464" lon="10.2654999"><ele>0.2</ele><time>2026-05-01T07:38:19.064Z</time></trkpt><trkpt lat="43.8597326" lon="10.2656516"><ele>0.4</ele><time>2026-05-01T07:38:20.038Z</time></trkpt><trkpt lat="43.8597197" lon="10.2658068"><ele>0.6000000000000001</ele><time>2026-05-01T07:38:21.077Z</time></trkpt><trkpt lat="43.8597143" lon="10.2659594"><ele>0.8</ele><time>2026-05-01T07:38:22.042Z</time></trkpt><trkpt lat="43.8597359" lon="10.2661062"><ele>1.0</ele><time>2026-05-01T07:38:23.055Z</time></trkpt><trkpt lat="43.8597807" lon="10.2662275"><ele>1.0</ele><time>2026-05-01T07:38:24.05Z</time></trkpt><trkpt lat="43.8598399" lon="10.2663397"><ele>1.0</ele><time>2026-05-01T07:38:25.037Z</time></trkpt><trkpt lat="43.8599022" lon="10.2664637"><ele>1.0</ele><time>2026-05-01T07:38:26.04Z</time></trkpt><trkpt lat="43.8599582" lon="10.2666066"><ele>1.0</ele><time>2026-05-01T07:38:27.037Z</time></trkpt><trkpt lat="43.8600154" lon="10.2667489"><ele>1.0</ele><time>2026-05-01T07:38:28.047Z</time></trkpt><trkpt lat="43.8600683" lon="10.2668955"><ele>1.0</ele><time>2026-05-01T07:38:29.045Z</time></trkpt><trkpt lat="43.8601195" lon="10.2670474"><ele>1.0</ele><time>2026-05-01T07:38:30.031Z</time></trkpt><trkpt lat="43.8601753" lon="10.2671993"><ele>1.0</ele><time>2026-05-01T07:38:31.055Z</time></trkpt><trkpt lat="43.8602339" lon="10.2673498"><ele>1.0</ele><time>2026-05-01T07:38:32.062Z</time></trkpt><trkpt lat="43.8602916" lon="10.2675003"><ele>1.0</ele><time>2026-05-01T07:38:33.026Z</time></trkpt><trkpt lat="43.8603446" lon="10.2676596"><ele>1.0</ele><time>2026-05-01T07:38:34.031Z</time></trkpt><trkpt lat="43.8603991" lon="10.2678197"><ele>1.0</ele><time>2026-05-01T07:38:35.036Z</time></trkpt><trkpt lat="43.8604606" lon="10.2679782"><ele>1.0</ele><time>2026-05-01T07:38:36.039Z</time></trkpt><trkpt lat="43.8605216" lon="10.268142"><ele>1.25</ele><time>2026-05-01T07:38:37.04Z</time></trkpt><trkpt lat="43.8605815" lon="10.2682994"><ele>1.5</ele><time>2026-05-01T07:38:38.055Z</time></trkpt><trkpt lat="43.8606401" lon="10.2684553"><ele>1.75</ele><time>2026-05-01T07:38:39.05Z</time></trkpt><trkpt lat="43.8607016" lon="10.2686132"><ele>2.0</ele><time>2026-05-01T07:38:40.054Z</time></trkpt><trkpt lat="43.8607549" lon="10.2687671"><ele>2.0</ele><time>2026-05-01T07:38:41.031Z</time></trkpt><trkpt lat="43.8608065" lon="10.2688993"><ele>2.0</ele><time>2026-05-01T07:38:42.044Z</time></trkpt><trkpt lat="43.8608911" lon="10.2691328"><ele>2.0</ele><time>2026-05-01T07:38:44.044Z</time></trkpt><trkpt lat="43.86093" lon="10.2692438"><ele>2.0</ele><time>2026-05-01T07:38:45.043Z</time></trkpt><trkpt lat="43.8609704" lon="10.2693555"><ele>1.9999999999999998</ele><time>2026-05-01T07:38:46.043Z</time></trkpt><trkpt lat="43.8610108" lon="10.2694674"><ele>2.0</ele><time>2026-05-01T07:38:47.043Z</time></trkpt><trkpt lat="43.8610485" lon="10.2695773"><ele>2.0</ele><time>2026-05-01T07:38:48.046Z</time></trkpt><trkpt lat="43.861088" lon="10.2696902"><ele>2.0</ele><time>2026-05-01T07:38:49.056Z</time></trkpt><trkpt lat="43.8611276" lon="10.2697985"><ele>1.9999999999999998</ele><time>2026-05-01T07:38:50.052Z</time></trkpt><trkpt lat="43.8611629" lon="10.2698991"><ele>2.0</ele><time>2026-05-01T07:38:51.063Z</time></trkpt><trkpt lat="43.8611923" lon="10.269996"><ele>1.9999999999999998</ele><time>2026-05-01T07:38:52.045Z</time></trkpt><trkpt lat="43.8611986" lon="10.2700926"><ele>2.0</ele><time>2026-05-01T07:38:53.037Z</time></trkpt><trkpt lat="43.8611996" lon="10.2701921"><ele>2.0</ele><time>2026-05-01T07:38:54.05Z</time></trkpt><trkpt lat="43.8611887" lon="10.2703011"><ele>2.0</ele><time>2026-05-01T07:38:55.048Z</time></trkpt><trkpt lat="43.8611652" lon="10.270419"><ele>1.9999999999999998</ele><time>2026-05-01T07:38:56.054Z</time></trkpt><trkpt lat="43.8611172" lon="10.2705204"><ele>2.0</ele><time>2026-05-01T07:38:57.049Z</time></trkpt><trkpt lat="43.8610299" lon="10.2706163"><ele>2.0</ele><time>2026-05-01T07:38:58.035Z</time></trkpt><trkpt lat="43.8609287" lon="10.270687"><ele>2.0</ele><time>2026-05-01T07:38:59.043Z</time></trkpt><trkpt lat="43.8608178" lon="10.2707635"><ele>2.0</ele><time>2026-05-01T07:39:00.045Z</time></trkpt><trkpt lat="43.8606948" lon="10.2708384"><ele>2.0</ele><time>2026-05-01T07:39:01.04Z</time></trkpt><trkpt lat="43.8605729" lon="10.2709127"><ele>2.0</ele><time>2026-05-01T07:39:02.042Z</time></trkpt><trkpt lat="43.8604537" lon="10.2709903"><ele>2.0</ele><time>2026-05-01T07:39:03.045Z</time></trkpt><trkpt lat="43.8603219" lon="10.2710787"><ele>2.0</ele><time>2026-05-01T07:39:04.039Z</time></trkpt><trkpt lat="43.860191" lon="10.2711662"><ele>2.0</ele><time>2026-05-01T07:39:05.044Z</time></trkpt><trkpt lat="43.8600544" lon="10.2712572"><ele>2.0</ele><time>2026-05-01T07:39:06.041Z</time></trkpt><trkpt lat="43.8599196" lon="10.2713461"><ele>2.0</ele><time>2026-05-01T07:39:07.039Z</time></trkpt><trkpt lat="43.8598017" lon="10.2714226"><ele>2.0</ele><time>2026-05-01T07:39:08.041Z</time></trkpt><trkpt lat="43.8596879" lon="10.2714961"><ele>2.0</ele><time>2026-05-01T07:39:09.047Z</time></trkpt><trkpt lat="43.8595759" lon="10.2715686"><ele>2.0</ele><time>2026-05-01T07:39:10.048Z</time></trkpt><trkpt lat="43.8594638" lon="10.2716347"><ele>2.0</ele><time>2026-05-01T07:39:11.04Z</time></trkpt><trkpt lat="43.8593648" lon="10.2716934"><ele>2.0</ele><time>2026-05-01T07:39:12.046Z</time></trkpt><trkpt lat="43.8592785" lon="10.2717423"><ele>2.0</ele><time>2026-05-01T07:39:13.04Z</time></trkpt><trkpt lat="43.8592021" lon="10.2717862"><ele>2.0</ele><time>2026-05-01T07:39:14.043Z</time></trkpt><trkpt lat="43.859134" lon="10.2718137"><ele>1.9999999999999998</ele><time>2026-05-01T07:39:15.064Z</time></trkpt><trkpt lat="43.8590216" lon="10.2718221"><ele>2.0</ele><time>2026-05-01T07:39:17.045Z</time></trkpt><trkpt lat="43.8589406" lon="10.2718014"><ele>2.0</ele><time>2026-05-01T07:39:19.048Z</time></trkpt><trkpt lat="43.8588726" lon="10.2718095"><ele>2.0</ele><time>2026-05-01T07:39:23.043Z</time></trkpt><trkpt lat="43.858828" lon="10.2718743"><ele>1.9999999999999998</ele><time>2026-05-01T07:39:32.046Z</time></trkpt><trkpt lat="43.8587551" lon="10.2719066"><ele>2.0</ele><time>2026-05-01T07:42:15.069Z</time></trkpt><trkpt lat="43.8586874" lon="10.2719323"><ele>2.0</ele><time>2026-05-01T07:42:17.054Z</time></trkpt><trkpt lat="43.858634" lon="10.2719935"><ele>2.0</ele><time>2026-05-01T07:42:21.05Z</time></trkpt><trkpt lat="43.8587614" lon="10.2722889"><ele>2.0</ele><time>2026-05-01T07:44:01.564Z</time></trkpt><trkpt lat="43.8586764" lon="10.2724398"><ele>2.0</ele><time>2026-05-01T07:44:08.502Z</time></trkpt><trkpt lat="43.8586684" lon="10.2720914"><ele>2.0</ele><time>2026-05-01T07:45:12.058Z</time></trkpt><trkpt lat="43.8586518" lon="10.2719875"><ele>2.0</ele><time>2026-05-01T07:47:57.039Z</time></trkpt><trkpt lat="43.8586834" lon="10.2720687"><ele>2.0</ele><time>2026-05-01T07:55:45.046Z</time></trkpt><trkpt lat="43.858754" lon="10.2720976"><ele>2.0</ele><time>2026-05-01T07:55:48.043Z</time></trkpt><trkpt lat="43.8588183" lon="10.2720659"><ele>2.0</ele><time>2026-05-01T07:55:49.044Z</time></trkpt><trkpt lat="43.8588989" lon="10.2720155"><ele>2.0</ele><time>2026-05-01T07:55:50.051Z</time></trkpt><trkpt lat="43.8589952" lon="10.2719604"><ele>2.0</ele><time>2026-05-01T07:55:51.05Z</time></trkpt><trkpt lat="43.8591" lon="10.2718985"><ele>2.0</ele><time>2026-05-01T07:55:52.047Z</time></trkpt><trkpt lat="43.8592164" lon="10.2718214"><ele>1.75</ele><time>2026-05-01T07:55:53.051Z</time></trkpt><trkpt lat="43.8593359" lon="10.2717422"><ele>1.5</ele><time>2026-05-01T07:55:54.043Z</time></trkpt><trkpt lat="43.8594815" lon="10.271653"><ele>1.25</ele><time>2026-05-01T07:55:55.041Z</time></trkpt><trkpt lat="43.8596251" lon="10.2715737"><ele>1.0</ele><time>2026-05-01T07:55:56.049Z</time></trkpt><trkpt lat="43.8597538" lon="10.2714936"><ele>1.2000000000000002</ele><time>2026-05-01T07:55:57.048Z</time></trkpt><trkpt lat="43.8598573" lon="10.2714237"><ele>1.4000000000000001</ele><time>2026-05-01T07:55:58.05Z</time></trkpt><trkpt lat="43.8599559" lon="10.2713643"><ele>1.6</ele><time>2026-05-01T07:55:59.044Z</time></trkpt><trkpt lat="43.8600503" lon="10.2713051"><ele>1.8</ele><time>2026-05-01T07:56:00.037Z</time></trkpt><trkpt lat="43.8601404" lon="10.2712457"><ele>2.0</ele><time>2026-05-01T07:56:01.047Z</time></trkpt><trkpt lat="43.8602303" lon="10.2711846"><ele>2.0</ele><time>2026-05-01T07:56:02.042Z</time></trkpt><trkpt lat="43.8603141" lon="10.2711244"><ele>2.0</ele><time>2026-05-01T07:56:03.051Z</time></trkpt><trkpt lat="43.8604041" lon="10.2710668"><ele>2.0</ele><time>2026-05-01T07:56:04.042Z</time></trkpt><trkpt lat="43.8604929" lon="10.2710121"><ele>2.0</ele><time>2026-05-01T07:56:05.06Z</time></trkpt><trkpt lat="43.8605817" lon="10.270953"><ele>2.0</ele><time>2026-05-01T07:56:06.049Z</time></trkpt><trkpt lat="43.8606697" lon="10.2709034"><ele>1.9999999999999998</ele><time>2026-05-01T07:56:07.037Z</time></trkpt><trkpt lat="43.8607621" lon="10.270848"><ele>2.0</ele><time>2026-05-01T07:56:08.051Z</time></trkpt><trkpt lat="43.8608494" lon="10.2707931"><ele>2.0</ele><time>2026-05-01T07:56:09.059Z</time></trkpt><trkpt lat="43.8609319" lon="10.2707425"><ele>2.0</ele><time>2026-05-01T07:56:10.04Z</time></trkpt><trkpt lat="43.8610056" lon="10.2707061"><ele>1.9999999999999998</ele><time>2026-05-01T07:56:11.047Z</time></trkpt><trkpt lat="43.8610781" lon="10.2706797"><ele>2.0</ele><time>2026-05-01T07:56:12.034Z</time></trkpt><trkpt lat="43.8611488" lon="10.2706796"><ele>2.0</ele><time>2026-05-01T07:56:13.043Z</time></trkpt><trkpt lat="43.8612268" lon="10.2706947"><ele>2.0</ele><time>2026-05-01T07:56:14.04Z</time></trkpt><trkpt lat="43.8613113" lon="10.2707314"><ele>2.0</ele><time>2026-05-01T07:56:15.051Z</time></trkpt><trkpt lat="43.8613922" lon="10.2707816"><ele>2.0</ele><time>2026-05-01T07:56:16.043Z</time></trkpt><trkpt lat="43.8614755" lon="10.2708641"><ele>2.0</ele><time>2026-05-01T07:56:17.04Z</time></trkpt><trkpt lat="43.8615554" lon="10.2709764"><ele>2.0</ele><time>2026-05-01T07:56:18.043Z</time></trkpt><trkpt lat="43.861633" lon="10.2711254"><ele>2.0</ele><time>2026-05-01T07:56:19.051Z</time></trkpt><trkpt lat="43.8616971" lon="10.2713044"><ele>2.0</ele><time>2026-05-01T07:56:20.042Z</time></trkpt><trkpt lat="43.8617665" lon="10.2714949"><ele>2.0</ele><time>2026-05-01T07:56:21.048Z</time></trkpt><trkpt lat="43.8618316" lon="10.2716796"><ele>1.75</ele><time>2026-05-01T07:56:22.028Z</time></trkpt><trkpt lat="43.8618922" lon="10.2718541"><ele>1.5</ele><time>2026-05-01T07:56:23.043Z</time></trkpt><trkpt lat="43.8619508" lon="10.2720243"><ele>1.25</ele><time>2026-05-01T07:56:24.056Z</time></trkpt><trkpt lat="43.8620116" lon="10.272201"><ele>1.0</ele><time>2026-05-01T07:56:25.046Z</time></trkpt><trkpt lat="43.8620664" lon="10.2723738"><ele>1.0</ele><time>2026-05-01T07:56:26.044Z</time></trkpt><trkpt lat="43.8621218" lon="10.2725441"><ele>1.0</ele><time>2026-05-01T07:56:27.05Z</time></trkpt><trkpt lat="43.8621827" lon="10.2727136"><ele>1.0</ele><time>2026-05-01T07:56:28.051Z</time></trkpt><trkpt lat="43.8622388" lon="10.2728813"><ele>1.0</ele><time>2026-05-01T07:56:29.042Z</time></trkpt><trkpt lat="43.8622905" lon="10.2730612"><ele>1.0</ele><time>2026-05-01T07:56:30.05Z</time></trkpt><trkpt lat="43.8623342" lon="10.2732508"><ele>1.0</ele><time>2026-05-01T07:56:31.047Z</time></trkpt><trkpt lat="43.8623719" lon="10.2734597"><ele>1.0</ele><time>2026-05-01T07:56:32.033Z</time></trkpt><trkpt lat="43.8624026" lon="10.2736846"><ele>1.0</ele><time>2026-05-01T07:56:33.044Z</time></trkpt><trkpt lat="43.8624268" lon="10.2739048"><ele>1.0</ele><time>2026-05-01T07:56:34.049Z</time></trkpt><trkpt lat="43.8624542" lon="10.2741057"><ele>1.0</ele><time>2026-05-01T07:56:35.051Z</time></trkpt><trkpt lat="43.8624738" lon="10.2742942"><ele>1.0</ele><time>2026-05-01T07:56:36.044Z</time></trkpt><trkpt lat="43.8624822" lon="10.2744615"><ele>1.0</ele><time>2026-05-01T07:56:37.044Z</time></trkpt><trkpt lat="43.8624762" lon="10.2746222"><ele>1.0</ele><time>2026-05-01T07:56:38.045Z</time></trkpt><trkpt lat="43.8624493" lon="10.2747527"><ele>1.0</ele><time>2026-05-01T07:56:39.053Z</time></trkpt><trkpt lat="43.8624125" lon="10.2748631"><ele>1.0</ele><time>2026-05-01T07:56:40.051Z</time></trkpt><trkpt lat="43.8623726" lon="10.2749777"><ele>1.0</ele><time>2026-05-01T07:56:41.036Z</time></trkpt><trkpt lat="43.8623318" lon="10.2751112"><ele>1.0</ele><time>2026-05-01T07:56:42.042Z</time></trkpt><trkpt lat="43.8622962" lon="10.2752615"><ele>1.0</ele><time>2026-05-01T07:56:43.034Z</time></trkpt><trkpt lat="43.8622665" lon="10.2754257"><ele>1.0</ele><time>2026-05-01T07:56:44.039Z</time></trkpt><trkpt lat="43.8622539" lon="10.2756097"><ele>1.0</ele><time>2026-05-01T07:56:45.042Z</time></trkpt><trkpt lat="43.8622494" lon="10.2758063"><ele>1.0</ele><time>2026-05-01T07:56:46.037Z</time></trkpt><trkpt lat="43.8622395" lon="10.2760267"><ele>1.0</ele><time>2026-05-01T07:56:47.05Z</time></trkpt><trkpt lat="43.8622299" lon="10.2762618"><ele>1.0</ele><time>2026-05-01T07:56:48.045Z</time></trkpt><trkpt lat="43.8622136" lon="10.2764715"><ele>1.0</ele><time>2026-05-01T07:56:49.047Z</time></trkpt><trkpt lat="43.8621877" lon="10.2766657"><ele>1.0</ele><time>2026-05-01T07:56:50.049Z</time></trkpt><trkpt lat="43.8621577" lon="10.2768494"><ele>1.0</ele><time>2026-05-01T07:56:51.04Z</time></trkpt><trkpt lat="43.8621352" lon="10.2770189"><ele>1.0</ele><time>2026-05-01T07:56:52.046Z</time></trkpt><trkpt lat="43.8621144" lon="10.2771883"><ele>1.0</ele><time>2026-05-01T07:56:53.04Z</time></trkpt><trkpt lat="43.8620976" lon="10.277347"><ele>1.0</ele><time>2026-05-01T07:56:54.049Z</time></trkpt><trkpt lat="43.8620805" lon="10.2774999"><ele>1.0</ele><time>2026-05-01T07:56:55.051Z</time></trkpt><trkpt lat="43.8620663" lon="10.2776437"><ele>1.0</ele><time>2026-05-01T07:56:56.046Z</time></trkpt><trkpt lat="43.8620481" lon="10.2777877"><ele>1.0</ele><time>2026-05-01T07:56:57.045Z</time></trkpt><trkpt lat="43.8620158" lon="10.2779416"><ele>1.0</ele><time>2026-05-01T07:56:58.048Z</time></trkpt><trkpt lat="43.861966" lon="10.2780983"><ele>1.0</ele><time>2026-05-01T07:56:59.051Z</time></trkpt><trkpt lat="43.8618969" lon="10.2782485"><ele>1.0</ele><time>2026-05-01T07:57:00.046Z</time></trkpt><trkpt lat="43.8617968" lon="10.2783876"><ele>1.0</ele><time>2026-05-01T07:57:01.048Z</time></trkpt><trkpt lat="43.8616837" lon="10.278499"><ele>1.0</ele><time>2026-05-01T07:57:02.04Z</time></trkpt><trkpt lat="43.8615691" lon="10.2785826"><ele>1.0</ele><time>2026-05-01T07:57:03.045Z</time></trkpt><trkpt lat="43.8614464" lon="10.2786559"><ele>1.0</ele><time>2026-05-01T07:57:04.038Z</time></trkpt><trkpt lat="43.8613296" lon="10.2787246"><ele>1.0</ele><time>2026-05-01T07:57:05.058Z</time></trkpt><trkpt lat="43.8612154" lon="10.2787852"><ele>1.0</ele><time>2026-05-01T07:57:06.046Z</time></trkpt><trkpt lat="43.8611035" lon="10.2788438"><ele>1.0</ele><time>2026-05-01T07:57:07.047Z</time></trkpt><trkpt lat="43.8609899" lon="10.2789092"><ele>1.0</ele><time>2026-05-01T07:57:08.039Z</time></trkpt><trkpt lat="43.8608697" lon="10.278975"><ele>1.0</ele><time>2026-05-01T07:57:09.034Z</time></trkpt><trkpt lat="43.8607311" lon="10.279048"><ele>1.3333333333333333</ele><time>2026-05-01T07:57:10.059Z</time></trkpt><trkpt lat="43.8605829" lon="10.2791316"><ele>1.6666666666666665</ele><time>2026-05-01T07:57:11.042Z</time></trkpt><trkpt lat="43.8604239" lon="10.2792229"><ele>2.0</ele><time>2026-05-01T07:57:12.038Z</time></trkpt><trkpt lat="43.8602425" lon="10.2793227"><ele>1.6666666666666665</ele><time>2026-05-01T07:57:13.056Z</time></trkpt><trkpt lat="43.8600362" lon="10.2794424"><ele>1.3333333333333333</ele><time>2026-05-01T07:57:14.05Z</time></trkpt><trkpt lat="43.8598349" lon="10.2795614"><ele>1.0</ele><time>2026-05-01T07:57:15.054Z</time></trkpt><trkpt lat="43.8596395" lon="10.2796817"><ele>1.0</ele><time>2026-05-01T07:57:16.038Z</time></trkpt><trkpt lat="43.8594471" lon="10.2798036"><ele>1.0</ele><time>2026-05-01T07:57:17.048Z</time></trkpt><trkpt lat="43.8592551" lon="10.2799218"><ele>1.0</ele><time>2026-05-01T07:57:18.051Z</time></trkpt><trkpt lat="43.8590591" lon="10.2800478"><ele>1.0</ele><time>2026-05-01T07:57:19.054Z</time></trkpt><trkpt lat="43.8588701" lon="10.2801649"><ele>1.0</ele><time>2026-05-01T07:57:20.05Z</time></trkpt><trkpt lat="43.8586852" lon="10.2802874"><ele>1.0</ele><time>2026-05-01T07:57:21.052Z</time></trkpt><trkpt lat="43.8584956" lon="10.2804083"><ele>1.0</ele><time>2026-05-01T07:57:22.055Z</time></trkpt><trkpt lat="43.8583107" lon="10.2805323"><ele>1.0</ele><time>2026-05-01T07:57:23.048Z</time></trkpt><trkpt lat="43.8581243" lon="10.2806542"><ele>1.0</ele><time>2026-05-01T07:57:24.049Z</time></trkpt><trkpt lat="43.8579356" lon="10.2807785"><ele>1.0</ele><time>2026-05-01T07:57:25.04Z</time></trkpt><trkpt lat="43.8577403" lon="10.2809046"><ele>1.0</ele><time>2026-05-01T07:57:26.042Z</time></trkpt><trkpt lat="43.857544" lon="10.2810284"><ele>1.0</ele><time>2026-05-01T07:57:27.045Z</time></trkpt><trkpt lat="43.8573451" lon="10.2811578"><ele>0.0</ele><time>2026-05-01T07:57:28.046Z</time></trkpt><trkpt lat="43.8571423" lon="10.2812952"><ele>-1.0</ele><time>2026-05-01T07:57:29.044Z</time></trkpt><trkpt lat="43.8569359" lon="10.2814267"><ele>-0.5</ele><time>2026-05-01T07:57:30.043Z</time></trkpt><trkpt lat="43.8567318" lon="10.2815584"><ele>0.0</ele><time>2026-05-01T07:57:31.042Z</time></trkpt><trkpt lat="43.8565261" lon="10.2816829"><ele>0.0</ele><time>2026-05-01T07:57:32.045Z</time></trkpt><trkpt lat="43.8563159" lon="10.2818136"><ele>0.0</ele><time>2026-05-01T07:57:33.046Z</time></trkpt><trkpt lat="43.8561017" lon="10.2819464"><ele>0.5</ele><time>2026-05-01T07:57:34.046Z</time></trkpt><trkpt lat="43.8558789" lon="10.2820924"><ele>1.0</ele><time>2026-05-01T07:57:35.042Z</time></trkpt><trkpt lat="43.8556526" lon="10.2822422"><ele>0.0</ele><time>2026-05-01T07:57:36.044Z</time></trkpt><trkpt lat="43.8554234" lon="10.2823993"><ele>-1.0</ele><time>2026-05-01T07:57:37.047Z</time></trkpt><trkpt lat="43.8551901" lon="10.2825564"><ele>-0.5</ele><time>2026-05-01T07:57:38.039Z</time></trkpt><trkpt lat="43.8549557" lon="10.28271"><ele>0.0</ele><time>2026-05-01T07:57:39.054Z</time></trkpt><trkpt lat="43.8547309" lon="10.2828544"><ele>0.0</ele><time>2026-05-01T07:57:40.048Z</time></trkpt><trkpt lat="43.8545217" lon="10.2829904"><ele>0.0</ele><time>2026-05-01T07:57:41.039Z</time></trkpt><trkpt lat="43.854323" lon="10.2831209"><ele>0.3333333333333333</ele><time>2026-05-01T07:57:42.048Z</time></trkpt><trkpt lat="43.8541258" lon="10.2832469"><ele>0.6666666666666666</ele><time>2026-05-01T07:57:43.038Z</time></trkpt><trkpt lat="43.8539225" lon="10.2833746"><ele>1.0</ele><time>2026-05-01T07:57:44.043Z</time></trkpt><trkpt lat="43.8537193" lon="10.2835041"><ele>1.0</ele><time>2026-05-01T07:57:45.05Z</time></trkpt><trkpt lat="43.8535169" lon="10.2836368"><ele>1.0</ele><time>2026-05-01T07:57:46.053Z</time></trkpt><trkpt lat="43.8533183" lon="10.2837681"><ele>1.0</ele><time>2026-05-01T07:57:47.057Z</time></trkpt><trkpt lat="43.8531176" lon="10.283902"><ele>0.3333333333333333</ele><time>2026-05-01T07:57:48.037Z</time></trkpt><trkpt lat="43.8529137" lon="10.2840294"><ele>-0.3333333333333333</ele><time>2026-05-01T07:57:49.05Z</time></trkpt><trkpt lat="43.8527078" lon="10.2841574"><ele>-1.0</ele><time>2026-05-01T07:57:50.037Z</time></trkpt><trkpt lat="43.852502" lon="10.2842843"><ele>-1.0</ele><time>2026-05-01T07:57:51.058Z</time></trkpt><trkpt lat="43.8522943" lon="10.2844196"><ele>-1.0</ele><time>2026-05-01T07:57:52.049Z</time></trkpt><trkpt lat="43.8520863" lon="10.2845543"><ele>-1.0</ele><time>2026-05-01T07:57:53.046Z</time></trkpt><trkpt lat="43.8518684" lon="10.2846925"><ele>-1.0</ele><time>2026-05-01T07:57:54.05Z</time></trkpt><trkpt lat="43.8516484" lon="10.2848269"><ele>-0.5</ele><time>2026-05-01T07:57:55.044Z</time></trkpt><trkpt lat="43.8514268" lon="10.284963"><ele>0.0</ele><time>2026-05-01T07:57:56.052Z</time></trkpt><trkpt lat="43.8512024" lon="10.2851045"><ele>0.0</ele><time>2026-05-01T07:57:57.047Z</time></trkpt><trkpt lat="43.8509817" lon="10.2852476"><ele>0.0</ele><time>2026-05-01T07:57:58.047Z</time></trkpt><trkpt lat="43.8507571" lon="10.2853893"><ele>0.0</ele><time>2026-05-01T07:57:59.049Z</time></trkpt><trkpt lat="43.8505327" lon="10.285528"><ele>0.0</ele><time>2026-05-01T07:58:00.037Z</time></trkpt><trkpt lat="43.8503076" lon="10.2856664"><ele>-1.0</ele><time>2026-05-01T07:58:01.036Z</time></trkpt><trkpt lat="43.8500831" lon="10.2858091"><ele>-2.0</ele><time>2026-05-01T07:58:02.053Z</time></trkpt><trkpt lat="43.8498607" lon="10.2859521"><ele>-2.0</ele><time>2026-05-01T07:58:03.045Z</time></trkpt><trkpt lat="43.8496406" lon="10.286088"><ele>-2.0</ele><time>2026-05-01T07:58:04.041Z</time></trkpt><trkpt lat="43.8494265" lon="10.2862266"><ele>-1.0</ele><time>2026-05-01T07:58:05.045Z</time></trkpt><trkpt lat="43.8492125" lon="10.2863628"><ele>0.0</ele><time>2026-05-01T07:58:06.049Z</time></trkpt><trkpt lat="43.8490015" lon="10.2865001"><ele>0.5</ele><time>2026-05-01T07:58:07.052Z</time></trkpt><trkpt lat="43.8487873" lon="10.2866416"><ele>1.0</ele><time>2026-05-01T07:58:08.044Z</time></trkpt><trkpt lat="43.8485712" lon="10.2867847"><ele>0.0</ele><time>2026-05-01T07:58:09.041Z</time></trkpt><trkpt lat="43.848357" lon="10.2869233"><ele>-1.0</ele><time>2026-05-01T07:58:10.042Z</time></trkpt><trkpt lat="43.8481433" lon="10.2870569"><ele>-1.0</ele><time>2026-05-01T07:58:11.052Z</time></trkpt><trkpt lat="43.8479289" lon="10.2871842"><ele>-1.0</ele><time>2026-05-01T07:58:12.043Z</time></trkpt><trkpt lat="43.8477166" lon="10.2873125"><ele>-1.0</ele><time>2026-05-01T07:58:13.048Z</time></trkpt><trkpt lat="43.8475024" lon="10.2874451"><ele>-1.0</ele><time>2026-05-01T07:58:14.043Z</time></trkpt><trkpt lat="43.8472913" lon="10.2875815"><ele>-1.0</ele><time>2026-05-01T07:58:15.035Z</time></trkpt><trkpt lat="43.8470805" lon="10.287718"><ele>-1.0</ele><time>2026-05-01T07:58:16.038Z</time></trkpt><trkpt lat="43.8468694" lon="10.2878513"><ele>-1.0</ele><time>2026-05-01T07:58:17.041Z</time></trkpt><trkpt lat="43.8466657" lon="10.2879782"><ele>-1.0</ele><time>2026-05-01T07:58:18.049Z</time></trkpt><trkpt lat="43.8464607" lon="10.2881057"><ele>-1.0</ele><time>2026-05-01T07:58:19.032Z</time></trkpt><trkpt lat="43.8462537" lon="10.2882383"><ele>-1.0</ele><time>2026-05-01T07:58:20.038Z</time></trkpt><trkpt lat="43.8460492" lon="10.28837"><ele>-1.0</ele><time>2026-05-01T07:58:21.049Z</time></trkpt><trkpt lat="43.845843" lon="10.2885065"><ele>-0.5</ele><time>2026-05-01T07:58:22.049Z</time></trkpt><trkpt lat="43.8456387" lon="10.2886411"><ele>0.0</ele><time>2026-05-01T07:58:23.042Z</time></trkpt><trkpt lat="43.8454341" lon="10.2887682"><ele>0.0</ele><time>2026-05-01T07:58:24.033Z</time></trkpt><trkpt lat="43.8452454" lon="10.2888782"><ele>0.0</ele><time>2026-05-01T07:58:25.034Z</time></trkpt><trkpt lat="43.8450649" lon="10.2889918"><ele>0.0</ele><time>2026-05-01T07:58:26.049Z</time></trkpt><trkpt lat="43.8448863" lon="10.2891094"><ele>0.0</ele><time>2026-05-01T07:58:27.046Z</time></trkpt><trkpt lat="43.8447031" lon="10.2892333"><ele>0.0</ele><time>2026-05-01T07:58:28.053Z</time></trkpt><trkpt lat="43.8445259" lon="10.2893564"><ele>0.0</ele><time>2026-05-01T07:58:29.05Z</time></trkpt><trkpt lat="43.8443467" lon="10.2894712"><ele>0.0</ele><time>2026-05-01T07:58:30.047Z</time></trkpt><trkpt lat="43.8441702" lon="10.2895824"><ele>0.0</ele><time>2026-05-01T07:58:31.04Z</time></trkpt><trkpt lat="43.8439941" lon="10.2896958"><ele>0.0</ele><time>2026-05-01T07:58:32.052Z</time></trkpt><trkpt lat="43.8438165" lon="10.2898178"><ele>-0.3333333333333333</ele><time>2026-05-01T07:58:33.046Z</time></trkpt><trkpt lat="43.843634" lon="10.2899351"><ele>-0.6666666666666666</ele><time>2026-05-01T07:58:34.051Z</time></trkpt><trkpt lat="43.8434557" lon="10.290049"><ele>-1.0</ele><time>2026-05-01T07:58:35.037Z</time></trkpt><trkpt lat="43.8432798" lon="10.29016"><ele>-0.3333333333333333</ele><time>2026-05-01T07:58:36.046Z</time></trkpt><trkpt lat="43.8431007" lon="10.2902744"><ele>0.3333333333333333</ele><time>2026-05-01T07:58:37.045Z</time></trkpt><trkpt lat="43.8429175" lon="10.2903943"><ele>1.0</ele><time>2026-05-01T07:58:38.046Z</time></trkpt><trkpt lat="43.8427298" lon="10.2905126"><ele>0.3333333333333333</ele><time>2026-05-01T07:58:39.039Z</time></trkpt><trkpt lat="43.8425423" lon="10.290634"><ele>-0.3333333333333333</ele><time>2026-05-01T07:58:40.055Z</time></trkpt><trkpt lat="43.8423583" lon="10.290753"><ele>-1.0</ele><time>2026-05-01T07:58:41.04Z</time></trkpt><trkpt lat="43.8421797" lon="10.2908587"><ele>-1.0</ele><time>2026-05-01T07:58:42.036Z</time></trkpt><trkpt lat="43.8420156" lon="10.2909623"><ele>-1.0</ele><time>2026-05-01T07:58:43.044Z</time></trkpt><trkpt lat="43.8418581" lon="10.2910656"><ele>-1.0</ele><time>2026-05-01T07:58:44.046Z</time></trkpt><trkpt lat="43.8417101" lon="10.2911612"><ele>-0.6666666666666666</ele><time>2026-05-01T07:58:45.041Z</time></trkpt><trkpt lat="43.8415719" lon="10.2912513"><ele>-0.3333333333333333</ele><time>2026-05-01T07:58:46.046Z</time></trkpt><trkpt lat="43.8414283" lon="10.2913399"><ele>0.0</ele><time>2026-05-01T07:58:47.047Z</time></trkpt><trkpt lat="43.8412692" lon="10.2914345"><ele>0.0</ele><time>2026-05-01T07:58:48.049Z</time></trkpt><trkpt lat="43.8411049" lon="10.29154"><ele>0.0</ele><time>2026-05-01T07:58:49.043Z</time></trkpt><trkpt lat="43.8409371" lon="10.2916429"><ele>0.0</ele><time>2026-05-01T07:58:50.055Z</time></trkpt><trkpt lat="43.8407683" lon="10.2917546"><ele>0.6666666666666666</ele><time>2026-05-01T07:58:51.046Z</time></trkpt><trkpt lat="43.8405931" lon="10.2918658"><ele>1.3333333333333333</ele><time>2026-05-01T07:58:52.039Z</time></trkpt><trkpt lat="43.8404161" lon="10.291978"><ele>2.0</ele><time>2026-05-01T07:58:53.054Z</time></trkpt><trkpt lat="43.8402324" lon="10.2920965"><ele>1.6666666666666665</ele><time>2026-05-01T07:58:54.04Z</time></trkpt><trkpt lat="43.8400512" lon="10.2922117"><ele>1.3333333333333333</ele><time>2026-05-01T07:58:55.04Z</time></trkpt><trkpt lat="43.8398671" lon="10.2923289"><ele>1.0</ele><time>2026-05-01T07:58:56.065Z</time></trkpt><trkpt lat="43.8396837" lon="10.2924495"><ele>1.3333333333333333</ele><time>2026-05-01T07:58:57.048Z</time></trkpt><trkpt lat="43.8395012" lon="10.2925777"><ele>1.6666666666666665</ele><time>2026-05-01T07:58:58.052Z</time></trkpt><trkpt lat="43.8393129" lon="10.2927105"><ele>2.0</ele><time>2026-05-01T07:58:59.045Z</time></trkpt><trkpt lat="43.8391253" lon="10.292846"><ele>2.0</ele><time>2026-05-01T07:59:00.054Z</time></trkpt><trkpt lat="43.8389392" lon="10.2929825"><ele>2.0</ele><time>2026-05-01T07:59:01.048Z</time></trkpt><trkpt lat="43.8387555" lon="10.2931238"><ele>2.0</ele><time>2026-05-01T07:59:02.04Z</time></trkpt><trkpt lat="43.8385688" lon="10.2932636"><ele>1.6666666666666665</ele><time>2026-05-01T07:59:03.043Z</time></trkpt><trkpt lat="43.8383753" lon="10.2934198"><ele>1.3333333333333333</ele><time>2026-05-01T07:59:04.041Z</time></trkpt><trkpt lat="43.8381879" lon="10.2935653"><ele>1.0</ele><time>2026-05-01T07:59:05.043Z</time></trkpt><trkpt lat="43.838" lon="10.2937125"><ele>1.0</ele><time>2026-05-01T07:59:06.042Z</time></trkpt><trkpt lat="43.8378035" lon="10.2938667"><ele>1.0</ele><time>2026-05-01T07:59:07.046Z</time></trkpt><trkpt lat="43.8376124" lon="10.2940219"><ele>1.0</ele><time>2026-05-01T07:59:08.049Z</time></trkpt><trkpt lat="43.8374234" lon="10.2941724"><ele>1.3333333333333333</ele><time>2026-05-01T07:59:09.042Z</time></trkpt><trkpt lat="43.8372387" lon="10.2943314"><ele>1.6666666666666665</ele><time>2026-05-01T07:59:10.041Z</time></trkpt><trkpt lat="43.837062" lon="10.2944925"><ele>2.0</ele><time>2026-05-01T07:59:11.053Z</time></trkpt><trkpt lat="43.8368901" lon="10.2946512"><ele>2.333333333333333</ele><time>2026-05-01T07:59:12.042Z</time></trkpt><trkpt lat="43.8367191" lon="10.2948056"><ele>2.6666666666666665</ele><time>2026-05-01T07:59:13.042Z</time></trkpt><trkpt lat="43.8365484" lon="10.2949565"><ele>3.0</ele><time>2026-05-01T07:59:14.045Z</time></trkpt><trkpt lat="43.8363805" lon="10.2951006"><ele>3.0</ele><time>2026-05-01T07:59:15.052Z</time></trkpt><trkpt lat="43.8362141" lon="10.2952523"><ele>3.0</ele><time>2026-05-01T07:59:16.046Z</time></trkpt><trkpt lat="43.8360455" lon="10.2954017"><ele>3.0</ele><time>2026-05-01T07:59:17.046Z</time></trkpt><trkpt lat="43.8358798" lon="10.2955423"><ele>2.6666666666666665</ele><time>2026-05-01T07:59:18.052Z</time></trkpt><trkpt lat="43.8357095" lon="10.2956851"><ele>2.333333333333333</ele><time>2026-05-01T07:59:19.042Z</time></trkpt><trkpt lat="43.8355381" lon="10.2958302"><ele>2.0</ele><time>2026-05-01T07:59:20.038Z</time></trkpt><trkpt lat="43.8353695" lon="10.295981"><ele>2.0</ele><time>2026-05-01T07:59:21.039Z</time></trkpt><trkpt lat="43.8351989" lon="10.2961235"><ele>2.0</ele><time>2026-05-01T07:59:22.04Z</time></trkpt><trkpt lat="43.8350331" lon="10.2962712"><ele>2.0</ele><time>2026-05-01T07:59:23.045Z</time></trkpt><trkpt lat="43.8348657" lon="10.2964228"><ele>1.3333333333333333</ele><time>2026-05-01T07:59:24.044Z</time></trkpt><trkpt lat="43.8346964" lon="10.2965773"><ele>0.6666666666666666</ele><time>2026-05-01T07:59:25.045Z</time></trkpt><trkpt lat="43.8345257" lon="10.2967254"><ele>0.0</ele><time>2026-05-01T07:59:26.058Z</time></trkpt><trkpt lat="43.8343502" lon="10.2968766"><ele>0.3333333333333333</ele><time>2026-05-01T07:59:27.043Z</time></trkpt><trkpt lat="43.834176" lon="10.2970298"><ele>0.6666666666666666</ele><time>2026-05-01T07:59:28.045Z</time></trkpt><trkpt lat="43.8339994" lon="10.2971764"><ele>1.0</ele><time>2026-05-01T07:59:29.042Z</time></trkpt><trkpt lat="43.833822" lon="10.2973228"><ele>1.0</ele><time>2026-05-01T07:59:30.051Z</time></trkpt><trkpt lat="43.8336346" lon="10.2974696"><ele>1.0</ele><time>2026-05-01T07:59:31.033Z</time></trkpt><trkpt lat="43.833448" lon="10.2976188"><ele>1.0</ele><time>2026-05-01T07:59:32.047Z</time></trkpt><trkpt lat="43.8332447" lon="10.297787"><ele>1.0</ele><time>2026-05-01T07:59:33.04Z</time></trkpt><trkpt lat="43.833033" lon="10.2979589"><ele>1.0</ele><time>2026-05-01T07:59:34.05Z</time></trkpt><trkpt lat="43.8328199" lon="10.2981193"><ele>1.6666666666666665</ele><time>2026-05-01T07:59:35.039Z</time></trkpt><trkpt lat="43.8326206" lon="10.2982719"><ele>2.3333333333333335</ele><time>2026-05-01T07:59:36.038Z</time></trkpt><trkpt lat="43.8324345" lon="10.2984173"><ele>3.0</ele><time>2026-05-01T07:59:37.047Z</time></trkpt><trkpt lat="43.8322473" lon="10.2985516"><ele>3.0</ele><time>2026-05-01T07:59:38.048Z</time></trkpt><trkpt lat="43.8320586" lon="10.2986917"><ele>3.0</ele><time>2026-05-01T07:59:39.041Z</time></trkpt><trkpt lat="43.8318652" lon="10.298841"><ele>3.0</ele><time>2026-05-01T07:59:40.042Z</time></trkpt><trkpt lat="43.8316692" lon="10.2989812"><ele>2.0</ele><time>2026-05-01T07:59:41.056Z</time></trkpt><trkpt lat="43.8314645" lon="10.2991313"><ele>1.0</ele><time>2026-05-01T07:59:42.047Z</time></trkpt><trkpt lat="43.831255" lon="10.2992824"><ele>1.0</ele><time>2026-05-01T07:59:43.041Z</time></trkpt><trkpt lat="43.8310403" lon="10.2994488"><ele>1.0</ele><time>2026-05-01T07:59:44.04Z</time></trkpt><trkpt lat="43.8308135" lon="10.2996153"><ele>1.5</ele><time>2026-05-01T07:59:45.048Z</time></trkpt><trkpt lat="43.8305784" lon="10.2997897"><ele>2.0</ele><time>2026-05-01T07:59:46.053Z</time></trkpt><trkpt lat="43.8303423" lon="10.2999694"><ele>1.5</ele><time>2026-05-01T07:59:47.043Z</time></trkpt><trkpt lat="43.8301017" lon="10.3001511"><ele>1.0</ele><time>2026-05-01T07:59:48.046Z</time></trkpt><trkpt lat="43.8298731" lon="10.3003226"><ele>1.0</ele><time>2026-05-01T07:59:49.049Z</time></trkpt><trkpt lat="43.8296515" lon="10.3004853"><ele>1.0</ele><time>2026-05-01T07:59:50.05Z</time></trkpt><trkpt lat="43.8294505" lon="10.3006318"><ele>1.3333333333333333</ele><time>2026-05-01T07:59:51.05Z</time></trkpt><trkpt lat="43.8292611" lon="10.3007734"><ele>1.6666666666666665</ele><time>2026-05-01T07:59:52.041Z</time></trkpt><trkpt lat="43.8290747" lon="10.3009127"><ele>2.0</ele><time>2026-05-01T07:59:53.051Z</time></trkpt><trkpt lat="43.828892" lon="10.3010519"><ele>2.0</ele><time>2026-05-01T07:59:54.038Z</time></trkpt><trkpt lat="43.828709" lon="10.3011855"><ele>2.0</ele><time>2026-05-01T07:59:55.045Z</time></trkpt><trkpt lat="43.8285273" lon="10.3013179"><ele>2.0</ele><time>2026-05-01T07:59:56.044Z</time></trkpt><trkpt lat="43.8283458" lon="10.3014499"><ele>2.0</ele><time>2026-05-01T07:59:57.038Z</time></trkpt><trkpt lat="43.8281705" lon="10.3015846"><ele>2.0</ele><time>2026-05-01T07:59:58.044Z</time></trkpt><trkpt lat="43.8279916" lon="10.3017121"><ele>2.0</ele><time>2026-05-01T07:59:59.039Z</time></trkpt><trkpt lat="43.827811" lon="10.3018466"><ele>2.0</ele><time>2026-05-01T08:00:00.04Z</time></trkpt><trkpt lat="43.8276267" lon="10.3019831"><ele>2.0</ele><time>2026-05-01T08:00:01.042Z</time></trkpt><trkpt lat="43.827446" lon="10.3021203"><ele>2.0</ele><time>2026-05-01T08:00:02.053Z</time></trkpt><trkpt lat="43.8272627" lon="10.3022652"><ele>2.0</ele><time>2026-05-01T08:00:03.045Z</time></trkpt><trkpt lat="43.827078" lon="10.3024122"><ele>2.0</ele><time>2026-05-01T08:00:04.048Z</time></trkpt><trkpt lat="43.826893" lon="10.3025631"><ele>2.0</ele><time>2026-05-01T08:00:05.043Z</time></trkpt><trkpt lat="43.826711" lon="10.3027077"><ele>2.333333333333333</ele><time>2026-05-01T08:00:06.046Z</time></trkpt><trkpt lat="43.8265301" lon="10.3028501"><ele>2.6666666666666665</ele><time>2026-05-01T08:00:07.038Z</time></trkpt><trkpt lat="43.8263517" lon="10.3029837"><ele>3.0</ele><time>2026-05-01T08:00:08.048Z</time></trkpt><trkpt lat="43.8261632" lon="10.3031118"><ele>2.6666666666666665</ele><time>2026-05-01T08:00:09.038Z</time></trkpt><trkpt lat="43.8259656" lon="10.30323"><ele>2.333333333333333</ele><time>2026-05-01T08:00:10.039Z</time></trkpt><trkpt lat="43.8257637" lon="10.3033262"><ele>2.0</ele><time>2026-05-01T08:00:11.042Z</time></trkpt><trkpt lat="43.8255513" lon="10.3034154"><ele>2.0</ele><time>2026-05-01T08:00:12.037Z</time></trkpt><trkpt lat="43.8253483" lon="10.3034984"><ele>2.0</ele><time>2026-05-01T08:00:13.043Z</time></trkpt><trkpt lat="43.8251624" lon="10.3035844"><ele>2.0</ele><time>2026-05-01T08:00:14.043Z</time></trkpt><trkpt lat="43.8249854" lon="10.3036739"><ele>1.6666666666666665</ele><time>2026-05-01T08:00:15.044Z</time></trkpt><trkpt lat="43.8247985" lon="10.3037563"><ele>1.3333333333333333</ele><time>2026-05-01T08:00:16.05Z</time></trkpt><trkpt lat="43.8246183" lon="10.3038352"><ele>1.0</ele><time>2026-05-01T08:00:17.045Z</time></trkpt><trkpt lat="43.8244417" lon="10.303923"><ele>1.0</ele><time>2026-05-01T08:00:18.05Z</time></trkpt><trkpt lat="43.8242618" lon="10.303997"><ele>1.0</ele><time>2026-05-01T08:00:19.045Z</time></trkpt><trkpt lat="43.8240837" lon="10.3040703"><ele>1.0</ele><time>2026-05-01T08:00:20.042Z</time></trkpt><trkpt lat="43.8239024" lon="10.3041534"><ele>1.0</ele><time>2026-05-01T08:00:21.056Z</time></trkpt><trkpt lat="43.8237237" lon="10.3042233"><ele>1.0</ele><time>2026-05-01T08:00:22.048Z</time></trkpt><trkpt lat="43.8235451" lon="10.3042731"><ele>1.0</ele><time>2026-05-01T08:00:23.049Z</time></trkpt><trkpt lat="43.8233926" lon="10.3042934"><ele>0.8</ele><time>2026-05-01T08:00:24.034Z</time></trkpt><trkpt lat="43.8232493" lon="10.3042911"><ele>0.6000000000000001</ele><time>2026-05-01T08:00:25.048Z</time></trkpt><trkpt lat="43.8231357" lon="10.3042834"><ele>0.4</ele><time>2026-05-01T08:00:26.041Z</time></trkpt><trkpt lat="43.823042" lon="10.3042561"><ele>0.2</ele><time>2026-05-01T08:00:27.047Z</time></trkpt><trkpt lat="43.8229611" lon="10.304224"><ele>0.0</ele><time>2026-05-01T08:00:28.049Z</time></trkpt><trkpt lat="43.8228874" lon="10.3041879"><ele>0.0</ele><time>2026-05-01T08:00:29.046Z</time></trkpt><trkpt lat="43.8228255" lon="10.3041402"><ele>0.0</ele><time>2026-05-01T08:00:30.045Z</time></trkpt><trkpt lat="43.8227585" lon="10.3040838"><ele>0.0</ele><time>2026-05-01T08:00:31.038Z</time></trkpt><trkpt lat="43.8226785" lon="10.3040242"><ele>0.0</ele><time>2026-05-01T08:00:32.043Z</time></trkpt><trkpt lat="43.8225875" lon="10.3040033"><ele>0.0</ele><time>2026-05-01T08:00:33.042Z</time></trkpt><trkpt lat="43.8225086" lon="10.3040311"><ele>0.0</ele><time>2026-05-01T08:00:34.041Z</time></trkpt><trkpt lat="43.8224381" lon="10.3041"><ele>1.2</ele><time>2026-05-01T08:00:35.046Z</time></trkpt><trkpt lat="43.822379" lon="10.3042005"><ele>2.4</ele><time>2026-05-01T08:00:36.039Z</time></trkpt><trkpt lat="43.8223207" lon="10.304321"><ele>3.5999999999999996</ele><time>2026-05-01T08:00:37.043Z</time></trkpt><trkpt lat="43.8222414" lon="10.3044392"><ele>4.8</ele><time>2026-05-01T08:00:38.054Z</time></trkpt><trkpt lat="43.8221328" lon="10.3045351"><ele>6.0</ele><time>2026-05-01T08:00:39.039Z</time></trkpt><trkpt lat="43.8219991" lon="10.3045885"><ele>6.0</ele><time>2026-05-01T08:00:40.048Z</time></trkpt><trkpt lat="43.8218335" lon="10.3046141"><ele>6.0</ele><time>2026-05-01T08:00:41.02Z</time></trkpt><trkpt lat="43.8216481" lon="10.3046004"><ele>6.0</ele><time>2026-05-01T08:00:42.055Z</time></trkpt><trkpt lat="43.8214702" lon="10.3046057"><ele>7.666666666666666</ele><time>2026-05-01T08:00:43.031Z</time></trkpt><trkpt lat="43.8212991" lon="10.3046139"><ele>9.333333333333332</ele><time>2026-05-01T08:00:44.055Z</time></trkpt><trkpt lat="43.8211285" lon="10.3046293"><ele>11.0</ele><time>2026-05-01T08:00:45.047Z</time></trkpt><trkpt lat="43.8209629" lon="10.3046528"><ele>11.0</ele><time>2026-05-01T08:00:46.048Z</time></trkpt><trkpt lat="43.8207918" lon="10.3046744"><ele>11.0</ele><time>2026-05-01T08:00:47.041Z</time></trkpt><trkpt lat="43.8206129" lon="10.3046838"><ele>11.0</ele><time>2026-05-01T08:00:48.049Z</time></trkpt><trkpt lat="43.8204354" lon="10.3046914"><ele>11.0</ele><time>2026-05-01T08:00:49.063Z</time></trkpt><trkpt lat="43.8202555" lon="10.3047025"><ele>11.0</ele><time>2026-05-01T08:00:50.042Z</time></trkpt><trkpt lat="43.820074" lon="10.3047258"><ele>11.0</ele><time>2026-05-01T08:00:51.045Z</time></trkpt><trkpt lat="43.8198955" lon="10.3047629"><ele>11.0</ele><time>2026-05-01T08:00:52.055Z</time></trkpt><trkpt lat="43.8197162" lon="10.3048093"><ele>11.0</ele><time>2026-05-01T08:00:53.036Z</time></trkpt><trkpt lat="43.8195345" lon="10.3048598"><ele>11.0</ele><time>2026-05-01T08:00:54.05Z</time></trkpt><trkpt lat="43.8193518" lon="10.3049271"><ele>10.666666666666666</ele><time>2026-05-01T08:00:55.05Z</time></trkpt><trkpt lat="43.8191709" lon="10.305006"><ele>10.333333333333334</ele><time>2026-05-01T08:00:56.041Z</time></trkpt><trkpt lat="43.8189905" lon="10.3051044"><ele>10.0</ele><time>2026-05-01T08:00:57.041Z</time></trkpt><trkpt lat="43.8188126" lon="10.3052121"><ele>10.0</ele><time>2026-05-01T08:00:58.049Z</time></trkpt><trkpt lat="43.8186327" lon="10.3053334"><ele>10.0</ele><time>2026-05-01T08:00:59.043Z</time></trkpt><trkpt lat="43.8184546" lon="10.3054585"><ele>10.0</ele><time>2026-05-01T08:01:00.044Z</time></trkpt><trkpt lat="43.81828" lon="10.3056001"><ele>10.666666666666668</ele><time>2026-05-01T08:01:01.044Z</time></trkpt><trkpt lat="43.8181118" lon="10.3057522"><ele>11.333333333333334</ele><time>2026-05-01T08:01:02.048Z</time></trkpt><trkpt lat="43.8179498" lon="10.3059136"><ele>12.0</ele><time>2026-05-01T08:01:03.052Z</time></trkpt><trkpt lat="43.8177888" lon="10.3060786"><ele>11.666666666666666</ele><time>2026-05-01T08:01:04.049Z</time></trkpt><trkpt lat="43.8176346" lon="10.3062379"><ele>11.333333333333332</ele><time>2026-05-01T08:01:05.039Z</time></trkpt><trkpt lat="43.8174884" lon="10.3063853"><ele>11.0</ele><time>2026-05-01T08:01:06.05Z</time></trkpt><trkpt lat="43.8173435" lon="10.3065255"><ele>11.0</ele><time>2026-05-01T08:01:07.043Z</time></trkpt><trkpt lat="43.8171962" lon="10.3066671"><ele>11.0</ele><time>2026-05-01T08:01:08.044Z</time></trkpt><trkpt lat="43.8170449" lon="10.3068051"><ele>11.0</ele><time>2026-05-01T08:01:09.041Z</time></trkpt><trkpt lat="43.8168941" lon="10.3069279"><ele>11.0</ele><time>2026-05-01T08:01:10.052Z</time></trkpt><trkpt lat="43.8167309" lon="10.3070461"><ele>11.0</ele><time>2026-05-01T08:01:11.059Z</time></trkpt><trkpt lat="43.8165612" lon="10.3071526"><ele>11.0</ele><time>2026-05-01T08:01:12.049Z</time></trkpt><trkpt lat="43.8163871" lon="10.3072581"><ele>11.666666666666666</ele><time>2026-05-01T08:01:13.042Z</time></trkpt><trkpt lat="43.8162096" lon="10.3073546"><ele>12.333333333333332</ele><time>2026-05-01T08:01:14.041Z</time></trkpt><trkpt lat="43.8160284" lon="10.3074407"><ele>13.0</ele><time>2026-05-01T08:01:15.055Z</time></trkpt><trkpt lat="43.815844" lon="10.3075164"><ele>11.666666666666666</ele><time>2026-05-01T08:01:16.047Z</time></trkpt><trkpt lat="43.8156554" lon="10.3075808"><ele>10.333333333333332</ele><time>2026-05-01T08:01:17.038Z</time></trkpt><trkpt lat="43.8154742" lon="10.3076477"><ele>9.0</ele><time>2026-05-01T08:01:18.055Z</time></trkpt><trkpt lat="43.8152961" lon="10.3077126"><ele>9.0</ele><time>2026-05-01T08:01:19.049Z</time></trkpt><trkpt lat="43.8151317" lon="10.3077748"><ele>9.0</ele><time>2026-05-01T08:01:20.043Z</time></trkpt><trkpt lat="43.8149665" lon="10.3078314"><ele>9.0</ele><time>2026-05-01T08:01:21.047Z</time></trkpt><trkpt lat="43.8148045" lon="10.3078941"><ele>9.0</ele><time>2026-05-01T08:01:22.047Z</time></trkpt><trkpt lat="43.8146405" lon="10.307955"><ele>9.0</ele><time>2026-05-01T08:01:23.044Z</time></trkpt><trkpt lat="43.8144736" lon="10.3080156"><ele>9.0</ele><time>2026-05-01T08:01:24.039Z</time></trkpt><trkpt lat="43.8142992" lon="10.3080806"><ele>9.0</ele><time>2026-05-01T08:01:25.046Z</time></trkpt><trkpt lat="43.8141236" lon="10.3081485"><ele>9.0</ele><time>2026-05-01T08:01:26.045Z</time></trkpt><trkpt lat="43.8139465" lon="10.3082144"><ele>9.0</ele><time>2026-05-01T08:01:27.05Z</time></trkpt><trkpt lat="43.8137616" lon="10.3082831"><ele>9.0</ele><time>2026-05-01T08:01:28.053Z</time></trkpt><trkpt lat="43.813582" lon="10.3083509"><ele>9.0</ele><time>2026-05-01T08:01:29.038Z</time></trkpt><trkpt lat="43.8134134" lon="10.3084135"><ele>9.0</ele><time>2026-05-01T08:01:30.043Z</time></trkpt><trkpt lat="43.8132523" lon="10.3084746"><ele>8.666666666666666</ele><time>2026-05-01T08:01:31.049Z</time></trkpt><trkpt lat="43.8130929" lon="10.308533"><ele>8.333333333333332</ele><time>2026-05-01T08:01:32.045Z</time></trkpt><trkpt lat="43.8129314" lon="10.3085959"><ele>8.0</ele><time>2026-05-01T08:01:33.041Z</time></trkpt><trkpt lat="43.8127695" lon="10.3086567"><ele>8.0</ele><time>2026-05-01T08:01:34.052Z</time></trkpt><trkpt lat="43.8126043" lon="10.3087212"><ele>8.0</ele><time>2026-05-01T08:01:35.04Z</time></trkpt><trkpt lat="43.8124351" lon="10.3087802"><ele>8.0</ele><time>2026-05-01T08:01:36.047Z</time></trkpt><trkpt lat="43.8122554" lon="10.3088439"><ele>8.0</ele><time>2026-05-01T08:01:37.043Z</time></trkpt><trkpt lat="43.8120735" lon="10.3089078"><ele>8.0</ele><time>2026-05-01T08:01:38.049Z</time></trkpt><trkpt lat="43.8118859" lon="10.3089779"><ele>8.0</ele><time>2026-05-01T08:01:39.039Z</time></trkpt><trkpt lat="43.8116939" lon="10.309047"><ele>8.333333333333332</ele><time>2026-05-01T08:01:40.047Z</time></trkpt><trkpt lat="43.8115061" lon="10.3091211"><ele>8.666666666666666</ele><time>2026-05-01T08:01:41.047Z</time></trkpt><trkpt lat="43.8113151" lon="10.3091968"><ele>9.0</ele><time>2026-05-01T08:01:42.043Z</time></trkpt><trkpt lat="43.8111254" lon="10.3092685"><ele>10.333333333333332</ele><time>2026-05-01T08:01:43.042Z</time></trkpt><trkpt lat="43.810942" lon="10.309333"><ele>11.666666666666666</ele><time>2026-05-01T08:01:44.036Z</time></trkpt><trkpt lat="43.8107763" lon="10.3093972"><ele>13.0</ele><time>2026-05-01T08:01:45.052Z</time></trkpt><trkpt lat="43.8106127" lon="10.3094589"><ele>13.0</ele><time>2026-05-01T08:01:46.047Z</time></trkpt><trkpt lat="43.8104442" lon="10.309526"><ele>13.0</ele><time>2026-05-01T08:01:47.053Z</time></trkpt><trkpt lat="43.8102639" lon="10.3095947"><ele>13.0</ele><time>2026-05-01T08:01:48.043Z</time></trkpt><trkpt lat="43.8100862" lon="10.3096572"><ele>13.0</ele><time>2026-05-01T08:01:49.049Z</time></trkpt><trkpt lat="43.8099168" lon="10.3097166"><ele>13.0</ele><time>2026-05-01T08:01:50.048Z</time></trkpt><trkpt lat="43.8097498" lon="10.3097775"><ele>13.0</ele><time>2026-05-01T08:01:51.043Z</time></trkpt><trkpt lat="43.809583" lon="10.309836"><ele>13.0</ele><time>2026-05-01T08:01:52.041Z</time></trkpt><trkpt lat="43.8094164" lon="10.309896"><ele>13.0</ele><time>2026-05-01T08:01:53.045Z</time></trkpt><trkpt lat="43.8092451" lon="10.3099692"><ele>13.0</ele><time>2026-05-01T08:01:54.049Z</time></trkpt><trkpt lat="43.8090789" lon="10.3100283"><ele>12.333333333333332</ele><time>2026-05-01T08:01:55.037Z</time></trkpt><trkpt lat="43.8089054" lon="10.3100955"><ele>11.666666666666666</ele><time>2026-05-01T08:01:56.053Z</time></trkpt><trkpt lat="43.8087257" lon="10.3101618"><ele>11.0</ele><time>2026-05-01T08:01:57.048Z</time></trkpt><trkpt lat="43.8085483" lon="10.3102373"><ele>11.333333333333332</ele><time>2026-05-01T08:01:58.038Z</time></trkpt><trkpt lat="43.8083739" lon="10.3102984"><ele>11.666666666666666</ele><time>2026-05-01T08:01:59.042Z</time></trkpt><trkpt lat="43.8082001" lon="10.3103597"><ele>12.0</ele><time>2026-05-01T08:02:00.046Z</time></trkpt><trkpt lat="43.8080252" lon="10.3104262"><ele>12.0</ele><time>2026-05-01T08:02:01.047Z</time></trkpt><trkpt lat="43.8078526" lon="10.3104897"><ele>12.0</ele><time>2026-05-01T08:02:02.041Z</time></trkpt><trkpt lat="43.8076819" lon="10.3105516"><ele>12.0</ele><time>2026-05-01T08:02:03.048Z</time></trkpt><trkpt lat="43.807511" lon="10.3106125"><ele>11.333333333333334</ele><time>2026-05-01T08:02:04.037Z</time></trkpt><trkpt lat="43.8073332" lon="10.3106729"><ele>10.666666666666668</ele><time>2026-05-01T08:02:05.044Z</time></trkpt><trkpt lat="43.8071572" lon="10.3107364"><ele>10.0</ele><time>2026-05-01T08:02:06.042Z</time></trkpt><trkpt lat="43.8069825" lon="10.3108"><ele>10.666666666666668</ele><time>2026-05-01T08:02:07.047Z</time></trkpt><trkpt lat="43.806814" lon="10.3108642"><ele>11.333333333333334</ele><time>2026-05-01T08:02:08.045Z</time></trkpt><trkpt lat="43.8066527" lon="10.3109261"><ele>12.0</ele><time>2026-05-01T08:02:09.045Z</time></trkpt><trkpt lat="43.806486" lon="10.310994"><ele>12.0</ele><time>2026-05-01T08:02:10.039Z</time></trkpt><trkpt lat="43.8063159" lon="10.3110581"><ele>12.0</ele><time>2026-05-01T08:02:11.05Z</time></trkpt><trkpt lat="43.8061482" lon="10.3111232"><ele>12.0</ele><time>2026-05-01T08:02:12.048Z</time></trkpt><trkpt lat="43.8059748" lon="10.3111871"><ele>11.333333333333334</ele><time>2026-05-01T08:02:13.049Z</time></trkpt><trkpt lat="43.8058085" lon="10.3112506"><ele>10.666666666666668</ele><time>2026-05-01T08:02:14.041Z</time></trkpt><trkpt lat="43.8056445" lon="10.3113175"><ele>10.0</ele><time>2026-05-01T08:02:15.052Z</time></trkpt><trkpt lat="43.8054908" lon="10.31137"><ele>10.75</ele><time>2026-05-01T08:02:16.049Z</time></trkpt><trkpt lat="43.8053467" lon="10.31142"><ele>11.5</ele><time>2026-05-01T08:02:17.045Z</time></trkpt><trkpt lat="43.8052038" lon="10.311476"><ele>12.25</ele><time>2026-05-01T08:02:18.043Z</time></trkpt><trkpt lat="43.8050588" lon="10.3115247"><ele>13.0</ele><time>2026-05-01T08:02:19.046Z</time></trkpt><trkpt lat="43.8049132" lon="10.3115771"><ele>13.0</ele><time>2026-05-01T08:02:20.042Z</time></trkpt><trkpt lat="43.8047616" lon="10.3116342"><ele>13.0</ele><time>2026-05-01T08:02:21.058Z</time></trkpt><trkpt lat="43.8046065" lon="10.3116924"><ele>13.0</ele><time>2026-05-01T08:02:22.047Z</time></trkpt><trkpt lat="43.8044506" lon="10.3117499"><ele>13.0</ele><time>2026-05-01T08:02:23.05Z</time></trkpt><trkpt lat="43.8042924" lon="10.3118098"><ele>13.0</ele><time>2026-05-01T08:02:24.039Z</time></trkpt><trkpt lat="43.8041355" lon="10.3118688"><ele>13.0</ele><time>2026-05-01T08:02:25.038Z</time></trkpt><trkpt lat="43.8039784" lon="10.3119331"><ele>13.0</ele><time>2026-05-01T08:02:26.046Z</time></trkpt><trkpt lat="43.8038173" lon="10.3119934"><ele>13.0</ele><time>2026-05-01T08:02:27.042Z</time></trkpt><trkpt lat="43.8036561" lon="10.3120529"><ele>13.0</ele><time>2026-05-01T08:02:28.051Z</time></trkpt><trkpt lat="43.8034951" lon="10.3121137"><ele>13.0</ele><time>2026-05-01T08:02:29.047Z</time></trkpt><trkpt lat="43.8033453" lon="10.3121628"><ele>13.0</ele><time>2026-05-01T08:02:30.048Z</time></trkpt><trkpt lat="43.8031962" lon="10.312211"><ele>13.0</ele><time>2026-05-01T08:02:31.056Z</time></trkpt><trkpt lat="43.8030512" lon="10.3122649"><ele>13.0</ele><time>2026-05-01T08:02:32.039Z</time></trkpt><trkpt lat="43.8029171" lon="10.312311"><ele>13.0</ele><time>2026-05-01T08:02:33.041Z</time></trkpt><trkpt lat="43.8027786" lon="10.3123626"><ele>13.0</ele><time>2026-05-01T08:02:34.042Z</time></trkpt><trkpt lat="43.8026439" lon="10.3124117"><ele>13.0</ele><time>2026-05-01T08:02:35.05Z</time></trkpt><trkpt lat="43.8025072" lon="10.3124602"><ele>12.25</ele><time>2026-05-01T08:02:36.054Z</time></trkpt><trkpt lat="43.80237" lon="10.3125169"><ele>11.5</ele><time>2026-05-01T08:02:37.046Z</time></trkpt><trkpt lat="43.8022321" lon="10.3125731"><ele>10.75</ele><time>2026-05-01T08:02:38.047Z</time></trkpt><trkpt lat="43.8020962" lon="10.3126253"><ele>10.0</ele><time>2026-05-01T08:02:39.05Z</time></trkpt><trkpt lat="43.801959" lon="10.312678"><ele>9.5</ele><time>2026-05-01T08:02:40.048Z</time></trkpt><trkpt lat="43.8018196" lon="10.3127297"><ele>9.0</ele><time>2026-05-01T08:02:41.036Z</time></trkpt><trkpt lat="43.8016808" lon="10.3127829"><ele>8.5</ele><time>2026-05-01T08:02:42.053Z</time></trkpt><trkpt lat="43.8015342" lon="10.3128356"><ele>8.0</ele><time>2026-05-01T08:02:43.047Z</time></trkpt><trkpt lat="43.8013902" lon="10.3128856"><ele>8.0</ele><time>2026-05-01T08:02:44.047Z</time></trkpt><trkpt lat="43.8012464" lon="10.3129334"><ele>8.0</ele><time>2026-05-01T08:02:45.041Z</time></trkpt><trkpt lat="43.8010943" lon="10.3129923"><ele>8.0</ele><time>2026-05-01T08:02:46.041Z</time></trkpt><trkpt lat="43.8009397" lon="10.3130499"><ele>7.666666666666666</ele><time>2026-05-01T08:02:47.042Z</time></trkpt><trkpt lat="43.8007781" lon="10.3131059"><ele>7.333333333333334</ele><time>2026-05-01T08:02:48.049Z</time></trkpt><trkpt lat="43.8006106" lon="10.3131731"><ele>7.0</ele><time>2026-05-01T08:02:49.04Z</time></trkpt><trkpt lat="43.8004435" lon="10.3132405"><ele>7.0</ele><time>2026-05-01T08:02:50.039Z</time></trkpt><trkpt lat="43.8002757" lon="10.3132986"><ele>7.0</ele><time>2026-05-01T08:02:51.038Z</time></trkpt><trkpt lat="43.8000993" lon="10.3133641"><ele>7.0</ele><time>2026-05-01T08:02:52.042Z</time></trkpt><trkpt lat="43.7999221" lon="10.3134263"><ele>6.666666666666667</ele><time>2026-05-01T08:02:53.049Z</time></trkpt><trkpt lat="43.7997412" lon="10.3134918"><ele>6.333333333333334</ele><time>2026-05-01T08:02:54.045Z</time></trkpt><trkpt lat="43.7995517" lon="10.3135693"><ele>6.0</ele><time>2026-05-01T08:02:55.048Z</time></trkpt><trkpt lat="43.7993778" lon="10.3136297"><ele>5.333333333333333</ele><time>2026-05-01T08:02:56.047Z</time></trkpt><trkpt lat="43.7992109" lon="10.3136849"><ele>4.666666666666666</ele><time>2026-05-01T08:02:57.051Z</time></trkpt><trkpt lat="43.7990406" lon="10.3137452"><ele>4.0</ele><time>2026-05-01T08:02:58.04Z</time></trkpt><trkpt lat="43.7988638" lon="10.3138038"><ele>4.0</ele><time>2026-05-01T08:02:59.048Z</time></trkpt><trkpt lat="43.7986895" lon="10.3138671"><ele>4.0</ele><time>2026-05-01T08:03:00.042Z</time></trkpt><trkpt lat="43.7985194" lon="10.3139345"><ele>4.0</ele><time>2026-05-01T08:03:01.036Z</time></trkpt><trkpt lat="43.7983545" lon="10.3140101"><ele>5.333333333333333</ele><time>2026-05-01T08:03:02.049Z</time></trkpt><trkpt lat="43.7981904" lon="10.3140956"><ele>6.666666666666666</ele><time>2026-05-01T08:03:03.043Z</time></trkpt><trkpt lat="43.7980443" lon="10.3141953"><ele>8.0</ele><time>2026-05-01T08:03:04.042Z</time></trkpt><trkpt lat="43.7979058" lon="10.3142998"><ele>8.0</ele><time>2026-05-01T08:03:05.033Z</time></trkpt><trkpt lat="43.7977679" lon="10.3144121"><ele>8.0</ele><time>2026-05-01T08:03:06.051Z</time></trkpt><trkpt lat="43.7976244" lon="10.3145175"><ele>8.0</ele><time>2026-05-01T08:03:07.036Z</time></trkpt><trkpt lat="43.7974891" lon="10.314623"><ele>7.333333333333333</ele><time>2026-05-01T08:03:08.038Z</time></trkpt><trkpt lat="43.7973471" lon="10.3147289"><ele>6.666666666666666</ele><time>2026-05-01T08:03:09.045Z</time></trkpt><trkpt lat="43.7972093" lon="10.314843"><ele>6.0</ele><time>2026-05-01T08:03:10.033Z</time></trkpt><trkpt lat="43.797076" lon="10.3149554"><ele>6.333333333333334</ele><time>2026-05-01T08:03:11.053Z</time></trkpt><trkpt lat="43.796942" lon="10.3150696"><ele>6.666666666666667</ele><time>2026-05-01T08:03:12.041Z</time></trkpt><trkpt lat="43.7968019" lon="10.3151834"><ele>7.0</ele><time>2026-05-01T08:03:13.055Z</time></trkpt><trkpt lat="43.7966595" lon="10.3152937"><ele>7.0</ele><time>2026-05-01T08:03:14.043Z</time></trkpt><trkpt lat="43.7965162" lon="10.3154092"><ele>7.0</ele><time>2026-05-01T08:03:15.05Z</time></trkpt><trkpt lat="43.7963739" lon="10.3155235"><ele>7.0</ele><time>2026-05-01T08:03:16.044Z</time></trkpt><trkpt lat="43.7962286" lon="10.3156412"><ele>6.666666666666667</ele><time>2026-05-01T08:03:17.048Z</time></trkpt><trkpt lat="43.7960802" lon="10.3157651"><ele>6.333333333333334</ele><time>2026-05-01T08:03:18.043Z</time></trkpt><trkpt lat="43.795936" lon="10.3158941"><ele>6.0</ele><time>2026-05-01T08:03:19.051Z</time></trkpt><trkpt lat="43.7957827" lon="10.3160201"><ele>6.0</ele><time>2026-05-01T08:03:20.05Z</time></trkpt><trkpt lat="43.7956299" lon="10.3161491"><ele>6.0</ele><time>2026-05-01T08:03:21.04Z</time></trkpt><trkpt lat="43.7954745" lon="10.3162734"><ele>6.0</ele><time>2026-05-01T08:03:22.05Z</time></trkpt><trkpt lat="43.7953175" lon="10.3163966"><ele>6.666666666666666</ele><time>2026-05-01T08:03:23.056Z</time></trkpt><trkpt lat="43.7951691" lon="10.3165211"><ele>7.333333333333333</ele><time>2026-05-01T08:03:24.045Z</time></trkpt><trkpt lat="43.7950246" lon="10.316638"><ele>8.0</ele><time>2026-05-01T08:03:25.053Z</time></trkpt><trkpt lat="43.794885" lon="10.3167505"><ele>8.0</ele><time>2026-05-01T08:03:26.047Z</time></trkpt><trkpt lat="43.7947545" lon="10.3168626"><ele>8.0</ele><time>2026-05-01T08:03:27.048Z</time></trkpt><trkpt lat="43.794619" lon="10.3169738"><ele>8.0</ele><time>2026-05-01T08:03:28.041Z</time></trkpt><trkpt lat="43.7944808" lon="10.3170943"><ele>8.333333333333332</ele><time>2026-05-01T08:03:29.049Z</time></trkpt><trkpt lat="43.7943361" lon="10.3172141"><ele>8.666666666666666</ele><time>2026-05-01T08:03:30.046Z</time></trkpt><trkpt lat="43.794197" lon="10.3173323"><ele>9.0</ele><time>2026-05-01T08:03:31.049Z</time></trkpt><trkpt lat="43.7940484" lon="10.3174536"><ele>8.0</ele><time>2026-05-01T08:03:32.05Z</time></trkpt><trkpt lat="43.7938947" lon="10.3175755"><ele>7.0</ele><time>2026-05-01T08:03:33.043Z</time></trkpt><trkpt lat="43.793745" lon="10.3176992"><ele>6.0</ele><time>2026-05-01T08:03:34.051Z</time></trkpt><trkpt lat="43.7935969" lon="10.3178258"><ele>6.333333333333334</ele><time>2026-05-01T08:03:35.041Z</time></trkpt><trkpt lat="43.793454" lon="10.3179475"><ele>6.666666666666667</ele><time>2026-05-01T08:03:36.037Z</time></trkpt><trkpt lat="43.7933148" lon="10.3180622"><ele>7.0</ele><time>2026-05-01T08:03:37.051Z</time></trkpt><trkpt lat="43.7931754" lon="10.3181755"><ele>7.333333333333334</ele><time>2026-05-01T08:03:38.045Z</time></trkpt><trkpt lat="43.7930368" lon="10.3182879"><ele>7.666666666666666</ele><time>2026-05-01T08:03:39.051Z</time></trkpt><trkpt lat="43.7928854" lon="10.3184095"><ele>8.0</ele><time>2026-05-01T08:03:40.035Z</time></trkpt><trkpt lat="43.792737" lon="10.3185258"><ele>7.333333333333333</ele><time>2026-05-01T08:03:41.04Z</time></trkpt><trkpt lat="43.7925944" lon="10.3186409"><ele>6.666666666666666</ele><time>2026-05-01T08:03:42.04Z</time></trkpt><trkpt lat="43.7924475" lon="10.3187584"><ele>6.0</ele><time>2026-05-01T08:03:43.049Z</time></trkpt><trkpt lat="43.7923085" lon="10.3188663"><ele>5.666666666666667</ele><time>2026-05-01T08:03:44.038Z</time></trkpt><trkpt lat="43.792172" lon="10.3189804"><ele>5.333333333333334</ele><time>2026-05-01T08:03:45.042Z</time></trkpt><trkpt lat="43.7920407" lon="10.3190928"><ele>5.0</ele><time>2026-05-01T08:03:46.042Z</time></trkpt><trkpt lat="43.7919158" lon="10.3192011"><ele>4.75</ele><time>2026-05-01T08:03:47.04Z</time></trkpt><trkpt lat="43.791795" lon="10.3193003"><ele>4.5</ele><time>2026-05-01T08:03:48.031Z</time></trkpt><trkpt lat="43.7916679" lon="10.3193999"><ele>4.25</ele><time>2026-05-01T08:03:49.044Z</time></trkpt><trkpt lat="43.7915461" lon="10.3195031"><ele>4.0</ele><time>2026-05-01T08:03:50.054Z</time></trkpt><trkpt lat="43.7914242" lon="10.3195995"><ele>4.0</ele><time>2026-05-01T08:03:51.044Z</time></trkpt><trkpt lat="43.7913048" lon="10.3196968"><ele>4.0</ele><time>2026-05-01T08:03:52.055Z</time></trkpt><trkpt lat="43.7911856" lon="10.3197998"><ele>4.0</ele><time>2026-05-01T08:03:53.05Z</time></trkpt><trkpt lat="43.7910635" lon="10.3199047"><ele>4.0</ele><time>2026-05-01T08:03:54.044Z</time></trkpt><trkpt lat="43.7909415" lon="10.3200078"><ele>4.0</ele><time>2026-05-01T08:03:55.038Z</time></trkpt><trkpt lat="43.7908178" lon="10.3201049"><ele>4.0</ele><time>2026-05-01T08:03:56.035Z</time></trkpt><trkpt lat="43.7906905" lon="10.3202079"><ele>4.0</ele><time>2026-05-01T08:03:57.046Z</time></trkpt><trkpt lat="43.7905626" lon="10.3203111"><ele>4.0</ele><time>2026-05-01T08:03:58.042Z</time></trkpt><trkpt lat="43.790436" lon="10.3204203"><ele>4.0</ele><time>2026-05-01T08:03:59.044Z</time></trkpt><trkpt lat="43.7903075" lon="10.3205229"><ele>4.0</ele><time>2026-05-01T08:04:00.047Z</time></trkpt><trkpt lat="43.7901813" lon="10.3206297"><ele>4.0</ele><time>2026-05-01T08:04:01.05Z</time></trkpt><trkpt lat="43.7900512" lon="10.3207306"><ele>4.0</ele><time>2026-05-01T08:04:02.043Z</time></trkpt><trkpt lat="43.7899181" lon="10.3208355"><ele>3.25</ele><time>2026-05-01T08:04:03.05Z</time></trkpt><trkpt lat="43.7897854" lon="10.3209435"><ele>2.5</ele><time>2026-05-01T08:04:04.049Z</time></trkpt><trkpt lat="43.7896634" lon="10.3210499"><ele>1.75</ele><time>2026-05-01T08:04:05.049Z</time></trkpt><trkpt lat="43.7895368" lon="10.321152"><ele>1.0</ele><time>2026-05-01T08:04:06.05Z</time></trkpt><trkpt lat="43.7894077" lon="10.321257"><ele>0.6666666666666666</ele><time>2026-05-01T08:04:07.035Z</time></trkpt><trkpt lat="43.7892778" lon="10.3213604"><ele>0.3333333333333333</ele><time>2026-05-01T08:04:08.045Z</time></trkpt><trkpt lat="43.7891425" lon="10.321466"><ele>0.0</ele><time>2026-05-01T08:04:09.044Z</time></trkpt><trkpt lat="43.7890142" lon="10.3215708"><ele>0.0</ele><time>2026-05-01T08:04:10.046Z</time></trkpt><trkpt lat="43.7888914" lon="10.3216789"><ele>0.0</ele><time>2026-05-01T08:04:11.045Z</time></trkpt><trkpt lat="43.7887605" lon="10.3217872"><ele>0.0</ele><time>2026-05-01T08:04:12.046Z</time></trkpt><trkpt lat="43.7886331" lon="10.3218964"><ele>0.0</ele><time>2026-05-01T08:04:13.045Z</time></trkpt><trkpt lat="43.7884976" lon="10.322004"><ele>0.6666666666666666</ele><time>2026-05-01T08:04:14.039Z</time></trkpt><trkpt lat="43.788364" lon="10.322118"><ele>1.3333333333333333</ele><time>2026-05-01T08:04:15.053Z</time></trkpt><trkpt lat="43.7882247" lon="10.3222366"><ele>2.0</ele><time>2026-05-01T08:04:16.041Z</time></trkpt><trkpt lat="43.7880831" lon="10.3223495"><ele>2.0</ele><time>2026-05-01T08:04:17.057Z</time></trkpt><trkpt lat="43.7879446" lon="10.3224661"><ele>2.0</ele><time>2026-05-01T08:04:18.055Z</time></trkpt><trkpt lat="43.7878029" lon="10.3225843"><ele>2.0</ele><time>2026-05-01T08:04:19.052Z</time></trkpt><trkpt lat="43.7876681" lon="10.3226986"><ele>2.0</ele><time>2026-05-01T08:04:20.038Z</time></trkpt><trkpt lat="43.7875298" lon="10.3228074"><ele>2.0</ele><time>2026-05-01T08:04:21.041Z</time></trkpt><trkpt lat="43.7873896" lon="10.3229222"><ele>2.0</ele><time>2026-05-01T08:04:22.047Z</time></trkpt><trkpt lat="43.787246" lon="10.3230428"><ele>1.3333333333333333</ele><time>2026-05-01T08:04:23.038Z</time></trkpt><trkpt lat="43.7871087" lon="10.3231555"><ele>0.6666666666666666</ele><time>2026-05-01T08:04:24.048Z</time></trkpt><trkpt lat="43.7869677" lon="10.3232705"><ele>0.0</ele><time>2026-05-01T08:04:25.043Z</time></trkpt><trkpt lat="43.7868289" lon="10.3233899"><ele>-0.3333333333333333</ele><time>2026-05-01T08:04:26.043Z</time></trkpt><trkpt lat="43.7866972" lon="10.3235059"><ele>-0.6666666666666666</ele><time>2026-05-01T08:04:27.048Z</time></trkpt><trkpt lat="43.7865622" lon="10.3236171"><ele>-1.0</ele><time>2026-05-01T08:04:28.045Z</time></trkpt><trkpt lat="43.7864278" lon="10.3237251"><ele>-1.0</ele><time>2026-05-01T08:04:29.048Z</time></trkpt><trkpt lat="43.7862955" lon="10.323831"><ele>-1.0</ele><time>2026-05-01T08:04:30.051Z</time></trkpt><trkpt lat="43.7861691" lon="10.3239338"><ele>-1.0</ele><time>2026-05-01T08:04:31.05Z</time></trkpt><trkpt lat="43.7860425" lon="10.3240333"><ele>-1.0</ele><time>2026-05-01T08:04:32.041Z</time></trkpt><trkpt lat="43.7859203" lon="10.3241359"><ele>-1.0</ele><time>2026-05-01T08:04:33.041Z</time></trkpt><trkpt lat="43.7857913" lon="10.3242369"><ele>-1.0</ele><time>2026-05-01T08:04:34.034Z</time></trkpt><trkpt lat="43.7856644" lon="10.3243375"><ele>-1.0</ele><time>2026-05-01T08:04:35.049Z</time></trkpt><trkpt lat="43.7855379" lon="10.3244427"><ele>-1.0</ele><time>2026-05-01T08:04:36.046Z</time></trkpt><trkpt lat="43.7854114" lon="10.324546"><ele>-1.0</ele><time>2026-05-01T08:04:37.049Z</time></trkpt><trkpt lat="43.7852833" lon="10.3246525"><ele>-1.0</ele><time>2026-05-01T08:04:38.051Z</time></trkpt><trkpt lat="43.7851556" lon="10.3247562"><ele>-1.0</ele><time>2026-05-01T08:04:39.046Z</time></trkpt><trkpt lat="43.7850306" lon="10.3248613"><ele>-1.0</ele><time>2026-05-01T08:04:40.043Z</time></trkpt><trkpt lat="43.7848993" lon="10.3249694"><ele>-1.6666666666666665</ele><time>2026-05-01T08:04:41.055Z</time></trkpt><trkpt lat="43.7847665" lon="10.3250727"><ele>-2.3333333333333335</ele><time>2026-05-01T08:04:42.05Z</time></trkpt><trkpt lat="43.784638" lon="10.3251784"><ele>-3.0</ele><time>2026-05-01T08:04:43.06Z</time></trkpt><trkpt lat="43.7845056" lon="10.3252878"><ele>-3.0</ele><time>2026-05-01T08:04:44.043Z</time></trkpt><trkpt lat="43.7843745" lon="10.3253955"><ele>-3.0</ele><time>2026-05-01T08:04:45.046Z</time></trkpt><trkpt lat="43.7842403" lon="10.3255079"><ele>-3.0</ele><time>2026-05-01T08:04:46.049Z</time></trkpt><trkpt lat="43.7841044" lon="10.325617"><ele>-3.0</ele><time>2026-05-01T08:04:47.041Z</time></trkpt><trkpt lat="43.7839714" lon="10.3257286"><ele>-3.0</ele><time>2026-05-01T08:04:48.046Z</time></trkpt><trkpt lat="43.7838391" lon="10.325835"><ele>-3.0</ele><time>2026-05-01T08:04:49.048Z</time></trkpt><trkpt lat="43.7837029" lon="10.3259428"><ele>-3.0</ele><time>2026-05-01T08:04:50.048Z</time></trkpt><trkpt lat="43.7835768" lon="10.3260557"><ele>-3.0</ele><time>2026-05-01T08:04:51.042Z</time></trkpt><trkpt lat="43.7834498" lon="10.326161"><ele>-3.0</ele><time>2026-05-01T08:04:52.045Z</time></trkpt><trkpt lat="43.7833256" lon="10.3262667"><ele>-3.0</ele><time>2026-05-01T08:04:53.045Z</time></trkpt><trkpt lat="43.7831976" lon="10.3263656"><ele>-2.75</ele><time>2026-05-01T08:04:54.055Z</time></trkpt><trkpt lat="43.7830765" lon="10.3264681"><ele>-2.5</ele><time>2026-05-01T08:04:55.039Z</time></trkpt><trkpt lat="43.7829533" lon="10.3265746"><ele>-2.25</ele><time>2026-05-01T08:04:56.058Z</time></trkpt><trkpt lat="43.7828351" lon="10.3266771"><ele>-2.0</ele><time>2026-05-01T08:04:57.044Z</time></trkpt><trkpt lat="43.7827139" lon="10.3267754"><ele>-1.75</ele><time>2026-05-01T08:04:58.047Z</time></trkpt><trkpt lat="43.7825882" lon="10.326873"><ele>-1.5</ele><time>2026-05-01T08:04:59.055Z</time></trkpt><trkpt lat="43.7824646" lon="10.3269733"><ele>-1.25</ele><time>2026-05-01T08:05:00.043Z</time></trkpt><trkpt lat="43.7823418" lon="10.3270709"><ele>-1.0</ele><time>2026-05-01T08:05:01.043Z</time></trkpt><trkpt lat="43.7822215" lon="10.3271669"><ele>-1.0</ele><time>2026-05-01T08:05:02.052Z</time></trkpt><trkpt lat="43.7821019" lon="10.3272658"><ele>-1.0</ele><time>2026-05-01T08:05:03.041Z</time></trkpt><trkpt lat="43.7819816" lon="10.3273688"><ele>-1.0</ele><time>2026-05-01T08:05:04.048Z</time></trkpt><trkpt lat="43.7818534" lon="10.3274689"><ele>-1.0</ele><time>2026-05-01T08:05:05.045Z</time></trkpt><trkpt lat="43.7817294" lon="10.3275665"><ele>-1.0</ele><time>2026-05-01T08:05:06.047Z</time></trkpt><trkpt lat="43.781602" lon="10.3276685"><ele>-1.0</ele><time>2026-05-01T08:05:07.051Z</time></trkpt><trkpt lat="43.7814795" lon="10.3277754"><ele>-1.0</ele><time>2026-05-01T08:05:08.043Z</time></trkpt><trkpt lat="43.7813537" lon="10.3278771"><ele>-1.0</ele><time>2026-05-01T08:05:09.051Z</time></trkpt><trkpt lat="43.7812306" lon="10.3279855"><ele>-1.25</ele><time>2026-05-01T08:05:10.059Z</time></trkpt><trkpt lat="43.7811046" lon="10.3280879"><ele>-1.5</ele><time>2026-05-01T08:05:11.046Z</time></trkpt><trkpt lat="43.7809792" lon="10.3281928"><ele>-1.75</ele><time>2026-05-01T08:05:12.062Z</time></trkpt><trkpt lat="43.7808486" lon="10.3282974"><ele>-2.0</ele><time>2026-05-01T08:05:13.038Z</time></trkpt><trkpt lat="43.7807203" lon="10.3283967"><ele>-2.0</ele><time>2026-05-01T08:05:14.044Z</time></trkpt><trkpt lat="43.7805934" lon="10.3285037"><ele>-2.0</ele><time>2026-05-01T08:05:15.035Z</time></trkpt><trkpt lat="43.7804765" lon="10.3285965"><ele>-2.0</ele><time>2026-05-01T08:05:16.05Z</time></trkpt><trkpt lat="43.7803671" lon="10.3286899"><ele>-2.0</ele><time>2026-05-01T08:05:17.042Z</time></trkpt><trkpt lat="43.780257" lon="10.3287807"><ele>-2.0</ele><time>2026-05-01T08:05:18.044Z</time></trkpt><trkpt lat="43.7801429" lon="10.3288716"><ele>-2.0</ele><time>2026-05-01T08:05:19.056Z</time></trkpt><trkpt lat="43.7800297" lon="10.3289664"><ele>-2.0</ele><time>2026-05-01T08:05:20.042Z</time></trkpt><trkpt lat="43.7799105" lon="10.3290614"><ele>-2.0</ele><time>2026-05-01T08:05:21.036Z</time></trkpt><trkpt lat="43.7797912" lon="10.3291594"><ele>-2.0</ele><time>2026-05-01T08:05:22.049Z</time></trkpt><trkpt lat="43.7796757" lon="10.329257"><ele>-2.0</ele><time>2026-05-01T08:05:23.04Z</time></trkpt><trkpt lat="43.7795612" lon="10.3293534"><ele>-2.0</ele><time>2026-05-01T08:05:24.045Z</time></trkpt><trkpt lat="43.779446" lon="10.3294478"><ele>-2.0</ele><time>2026-05-01T08:05:25.037Z</time></trkpt><trkpt lat="43.7793371" lon="10.3295414"><ele>-2.25</ele><time>2026-05-01T08:05:26.052Z</time></trkpt><trkpt lat="43.7792374" lon="10.3296294"><ele>-2.5</ele><time>2026-05-01T08:05:27.04Z</time></trkpt><trkpt lat="43.7791313" lon="10.329712"><ele>-2.75</ele><time>2026-05-01T08:05:28.045Z</time></trkpt><trkpt lat="43.7790291" lon="10.3297943"><ele>-3.0</ele><time>2026-05-01T08:05:29.049Z</time></trkpt><trkpt lat="43.7789335" lon="10.3298703"><ele>-3.0</ele><time>2026-05-01T08:05:30.039Z</time></trkpt><trkpt lat="43.7788422" lon="10.3299467"><ele>-3.0</ele><time>2026-05-01T08:05:31.043Z</time></trkpt><trkpt lat="43.7787516" lon="10.3300169"><ele>-3.0</ele><time>2026-05-01T08:05:32.044Z</time></trkpt><trkpt lat="43.778662" lon="10.3300929"><ele>-3.0</ele><time>2026-05-01T08:05:33.047Z</time></trkpt><trkpt lat="43.7785779" lon="10.3301636"><ele>-3.0</ele><time>2026-05-01T08:05:34.064Z</time></trkpt><trkpt lat="43.7784987" lon="10.3302326"><ele>-2.8333333333333335</ele><time>2026-05-01T08:05:35.047Z</time></trkpt><trkpt lat="43.778428" lon="10.3302989"><ele>-2.6666666666666665</ele><time>2026-05-01T08:05:36.043Z</time></trkpt><trkpt lat="43.7783605" lon="10.3303793"><ele>-2.5</ele><time>2026-05-01T08:05:37.049Z</time></trkpt><trkpt lat="43.7782988" lon="10.3304643"><ele>-2.333333333333333</ele><time>2026-05-01T08:05:38.045Z</time></trkpt><trkpt lat="43.7782395" lon="10.3305503"><ele>-2.1666666666666665</ele><time>2026-05-01T08:05:39.036Z</time></trkpt><trkpt lat="43.7781822" lon="10.3306377"><ele>-2.0</ele><time>2026-05-01T08:05:40.051Z</time></trkpt><trkpt lat="43.7781232" lon="10.3307194"><ele>-1.9999999999999998</ele><time>2026-05-01T08:05:41.05Z</time></trkpt><trkpt lat="43.7780529" lon="10.3307858"><ele>-2.0</ele><time>2026-05-01T08:05:42.035Z</time></trkpt><trkpt lat="43.7779802" lon="10.3308262"><ele>-2.0</ele><time>2026-05-01T08:05:43.037Z</time></trkpt><trkpt lat="43.7778948" lon="10.3308488"><ele>-2.0</ele><time>2026-05-01T08:05:44.048Z</time></trkpt><trkpt lat="43.7778238" lon="10.3308811"><ele>-1.9999999999999998</ele><time>2026-05-01T08:05:45.05Z</time></trkpt><trkpt lat="43.7777518" lon="10.3309414"><ele>-2.0</ele><time>2026-05-01T08:05:46.049Z</time></trkpt><trkpt lat="43.7776912" lon="10.3310258"><ele>-1.8</ele><time>2026-05-01T08:05:47.042Z</time></trkpt><trkpt lat="43.7776433" lon="10.3311385"><ele>-1.6</ele><time>2026-05-01T08:05:48.038Z</time></trkpt><trkpt lat="43.7775818" lon="10.3312396"><ele>-1.4000000000000001</ele><time>2026-05-01T08:05:49.046Z</time></trkpt><trkpt lat="43.7774951" lon="10.3313156"><ele>-1.2000000000000002</ele><time>2026-05-01T08:05:50.035Z</time></trkpt><trkpt lat="43.7773914" lon="10.3313755"><ele>-1.0</ele><time>2026-05-01T08:05:51.042Z</time></trkpt><trkpt lat="43.7772846" lon="10.3314151"><ele>-1.5</ele><time>2026-05-01T08:05:52.051Z</time></trkpt><trkpt lat="43.7771667" lon="10.3314542"><ele>-2.0</ele><time>2026-05-01T08:05:53.037Z</time></trkpt><trkpt lat="43.7770493" lon="10.3315008"><ele>-2.5</ele><time>2026-05-01T08:05:54.042Z</time></trkpt><trkpt lat="43.7769292" lon="10.3315656"><ele>-3.0</ele><time>2026-05-01T08:05:55.05Z</time></trkpt><trkpt lat="43.7768049" lon="10.3316467"><ele>-1.6666666666666667</ele><time>2026-05-01T08:05:56.045Z</time></trkpt><trkpt lat="43.776678" lon="10.3317374"><ele>-0.33333333333333337</ele><time>2026-05-01T08:05:57.047Z</time></trkpt><trkpt lat="43.7765428" lon="10.3318447"><ele>1.0</ele><time>2026-05-01T08:05:58.046Z</time></trkpt><trkpt lat="43.7764048" lon="10.3319583"><ele>1.0</ele><time>2026-05-01T08:05:59.048Z</time></trkpt><trkpt lat="43.7762721" lon="10.3320713"><ele>1.0</ele><time>2026-05-01T08:06:00.04Z</time></trkpt><trkpt lat="43.77614" lon="10.3321707"><ele>1.0</ele><time>2026-05-01T08:06:01.049Z</time></trkpt><trkpt lat="43.7760096" lon="10.3322697"><ele>-0.33333333333333337</ele><time>2026-05-01T08:06:02.057Z</time></trkpt><trkpt lat="43.7758744" lon="10.3323723"><ele>-1.6666666666666667</ele><time>2026-05-01T08:06:03.062Z</time></trkpt><trkpt lat="43.7757441" lon="10.3324782"><ele>-3.0</ele><time>2026-05-01T08:06:04.042Z</time></trkpt><trkpt lat="43.7756088" lon="10.3325942"><ele>-3.0</ele><time>2026-05-01T08:06:05.039Z</time></trkpt><trkpt lat="43.7754717" lon="10.3327086"><ele>-3.0</ele><time>2026-05-01T08:06:06.035Z</time></trkpt><trkpt lat="43.7753327" lon="10.332816"><ele>-3.0</ele><time>2026-05-01T08:06:07.045Z</time></trkpt><trkpt lat="43.7751928" lon="10.3329287"><ele>-2.6666666666666665</ele><time>2026-05-01T08:06:08.048Z</time></trkpt><trkpt lat="43.7750572" lon="10.3330395"><ele>-2.333333333333333</ele><time>2026-05-01T08:06:09.054Z</time></trkpt><trkpt lat="43.7749249" lon="10.3331461"><ele>-2.0</ele><time>2026-05-01T08:06:10.042Z</time></trkpt><trkpt lat="43.7747942" lon="10.3332562"><ele>-1.6666666666666665</ele><time>2026-05-01T08:06:11.049Z</time></trkpt><trkpt lat="43.7746577" lon="10.3333681"><ele>-1.3333333333333333</ele><time>2026-05-01T08:06:12.044Z</time></trkpt><trkpt lat="43.7745201" lon="10.3334823"><ele>-1.0</ele><time>2026-05-01T08:06:13.061Z</time></trkpt><trkpt lat="43.7743779" lon="10.3335961"><ele>-1.0</ele><time>2026-05-01T08:06:14.036Z</time></trkpt><trkpt lat="43.7742394" lon="10.3337134"><ele>-1.0</ele><time>2026-05-01T08:06:15.054Z</time></trkpt><trkpt lat="43.7740887" lon="10.3338323"><ele>-1.0</ele><time>2026-05-01T08:06:16.042Z</time></trkpt><trkpt lat="43.7739294" lon="10.33396"><ele>-1.0</ele><time>2026-05-01T08:06:17.043Z</time></trkpt><trkpt lat="43.7737643" lon="10.3340958"><ele>-1.0</ele><time>2026-05-01T08:06:18.048Z</time></trkpt><trkpt lat="43.773609" lon="10.3342322"><ele>-1.0</ele><time>2026-05-01T08:06:19.057Z</time></trkpt><trkpt lat="43.7734642" lon="10.3343587"><ele>-0.6666666666666666</ele><time>2026-05-01T08:06:20.038Z</time></trkpt><trkpt lat="43.7733159" lon="10.3344801"><ele>-0.3333333333333333</ele><time>2026-05-01T08:06:21.046Z</time></trkpt><trkpt lat="43.7731658" lon="10.3346034"><ele>0.0</ele><time>2026-05-01T08:06:22.047Z</time></trkpt><trkpt lat="43.7730132" lon="10.3347269"><ele>0.0</ele><time>2026-05-01T08:06:23.047Z</time></trkpt><trkpt lat="43.7728627" lon="10.3348468"><ele>0.0</ele><time>2026-05-01T08:06:24.049Z</time></trkpt><trkpt lat="43.7727294" lon="10.3349581"><ele>0.0</ele><time>2026-05-01T08:06:25.041Z</time></trkpt><trkpt lat="43.7726065" lon="10.3350644"><ele>-0.6666666666666666</ele><time>2026-05-01T08:06:26.044Z</time></trkpt><trkpt lat="43.7724893" lon="10.3351608"><ele>-1.3333333333333333</ele><time>2026-05-01T08:06:27.043Z</time></trkpt><trkpt lat="43.7723566" lon="10.3352769"><ele>-2.0</ele><time>2026-05-01T08:06:28.043Z</time></trkpt><trkpt lat="43.7722181" lon="10.3353956"><ele>-2.0</ele><time>2026-05-01T08:06:29.053Z</time></trkpt><trkpt lat="43.7720593" lon="10.3355217"><ele>-2.0</ele><time>2026-05-01T08:06:30.049Z</time></trkpt><trkpt lat="43.7718872" lon="10.3356401"><ele>-2.0</ele><time>2026-05-01T08:06:31.045Z</time></trkpt><trkpt lat="43.7717025" lon="10.3357871"><ele>-1.6666666666666665</ele><time>2026-05-01T08:06:32.051Z</time></trkpt><trkpt lat="43.7715146" lon="10.3359357"><ele>-1.3333333333333333</ele><time>2026-05-01T08:06:33.039Z</time></trkpt><trkpt lat="43.7713328" lon="10.3360871"><ele>-1.0</ele><time>2026-05-01T08:06:34.047Z</time></trkpt><trkpt lat="43.7711379" lon="10.336236"><ele>-1.0</ele><time>2026-05-01T08:06:35.052Z</time></trkpt><trkpt lat="43.770941" lon="10.3363901"><ele>-1.0</ele><time>2026-05-01T08:06:36.047Z</time></trkpt><trkpt lat="43.770756" lon="10.3365369"><ele>-1.0</ele><time>2026-05-01T08:06:37.037Z</time></trkpt><trkpt lat="43.7705891" lon="10.3366755"><ele>-1.0</ele><time>2026-05-01T08:06:38.051Z</time></trkpt><trkpt lat="43.7704383" lon="10.3367975"><ele>-1.0</ele><time>2026-05-01T08:06:39.047Z</time></trkpt><trkpt lat="43.7703036" lon="10.3369098"><ele>-1.0</ele><time>2026-05-01T08:06:40.05Z</time></trkpt><trkpt lat="43.7701721" lon="10.3370145"><ele>-1.0</ele><time>2026-05-01T08:06:41.034Z</time></trkpt><trkpt lat="43.7700438" lon="10.3371152"><ele>-1.0</ele><time>2026-05-01T08:06:42.048Z</time></trkpt><trkpt lat="43.7699159" lon="10.3372232"><ele>-1.0</ele><time>2026-05-01T08:06:43.049Z</time></trkpt><trkpt lat="43.769784" lon="10.337334"><ele>-0.3333333333333333</ele><time>2026-05-01T08:06:44.035Z</time></trkpt><trkpt lat="43.7696523" lon="10.3374363"><ele>0.3333333333333333</ele><time>2026-05-01T08:06:45.046Z</time></trkpt><trkpt lat="43.7695177" lon="10.3375417"><ele>1.0</ele><time>2026-05-01T08:06:46.044Z</time></trkpt><trkpt lat="43.7693856" lon="10.337649"><ele>0.6666666666666666</ele><time>2026-05-01T08:06:47.04Z</time></trkpt><trkpt lat="43.7692537" lon="10.337757"><ele>0.3333333333333333</ele><time>2026-05-01T08:06:48.045Z</time></trkpt><trkpt lat="43.7691254" lon="10.3378673"><ele>0.0</ele><time>2026-05-01T08:06:49.038Z</time></trkpt><trkpt lat="43.7689924" lon="10.3379723"><ele>-0.3333333333333333</ele><time>2026-05-01T08:06:50.052Z</time></trkpt><trkpt lat="43.7688592" lon="10.338078"><ele>-0.6666666666666666</ele><time>2026-05-01T08:06:51.038Z</time></trkpt><trkpt lat="43.7687256" lon="10.3381854"><ele>-1.0</ele><time>2026-05-01T08:06:52.044Z</time></trkpt><trkpt lat="43.7686011" lon="10.3382813"><ele>-0.5</ele><time>2026-05-01T08:06:53.043Z</time></trkpt><trkpt lat="43.7684925" lon="10.3383778"><ele>0.0</ele><time>2026-05-01T08:06:54.047Z</time></trkpt><trkpt lat="43.7683834" lon="10.3384664"><ele>0.5</ele><time>2026-05-01T08:06:55.054Z</time></trkpt><trkpt lat="43.7682803" lon="10.3385529"><ele>1.0</ele><time>2026-05-01T08:06:56.045Z</time></trkpt><trkpt lat="43.7681788" lon="10.3386339"><ele>1.0</ele><time>2026-05-01T08:06:57.047Z</time></trkpt><trkpt lat="43.7680666" lon="10.3387153"><ele>1.0</ele><time>2026-05-01T08:06:58.04Z</time></trkpt><trkpt lat="43.7679582" lon="10.3387977"><ele>1.0</ele><time>2026-05-01T08:06:59.052Z</time></trkpt><trkpt lat="43.7678547" lon="10.3388833"><ele>1.0</ele><time>2026-05-01T08:07:00.032Z</time></trkpt><trkpt lat="43.7677454" lon="10.3389729"><ele>1.0</ele><time>2026-05-01T08:07:01.038Z</time></trkpt><trkpt lat="43.7676363" lon="10.3390587"><ele>1.0</ele><time>2026-05-01T08:07:02.051Z</time></trkpt><trkpt lat="43.7675211" lon="10.3391512"><ele>1.0</ele><time>2026-05-01T08:07:03.042Z</time></trkpt><trkpt lat="43.7674067" lon="10.3392433"><ele>1.0</ele><time>2026-05-01T08:07:04.043Z</time></trkpt><trkpt lat="43.7672836" lon="10.3393384"><ele>1.0</ele><time>2026-05-01T08:07:05.051Z</time></trkpt><trkpt lat="43.7671694" lon="10.3394276"><ele>1.0</ele><time>2026-05-01T08:07:06.048Z</time></trkpt><trkpt lat="43.7670693" lon="10.3395113"><ele>1.0</ele><time>2026-05-01T08:07:07.048Z</time></trkpt><trkpt lat="43.7669732" lon="10.3395923"><ele>1.0</ele><time>2026-05-01T08:07:08.044Z</time></trkpt><trkpt lat="43.766878" lon="10.3396754"><ele>1.0</ele><time>2026-05-01T08:07:09.049Z</time></trkpt><trkpt lat="43.7667777" lon="10.3397598"><ele>1.0</ele><time>2026-05-01T08:07:10.041Z</time></trkpt><trkpt lat="43.7666789" lon="10.3398417"><ele>1.0</ele><time>2026-05-01T08:07:11.045Z</time></trkpt><trkpt lat="43.766584" lon="10.3399235"><ele>1.0</ele><time>2026-05-01T08:07:12.047Z</time></trkpt><trkpt lat="43.7664849" lon="10.3400062"><ele>1.0</ele><time>2026-05-01T08:07:13.043Z</time></trkpt><trkpt lat="43.7663913" lon="10.340091"><ele>1.0</ele><time>2026-05-01T08:07:14.046Z</time></trkpt><trkpt lat="43.7662955" lon="10.3401734"><ele>1.0</ele><time>2026-05-01T08:07:15.047Z</time></trkpt><trkpt lat="43.7661975" lon="10.3402478"><ele>1.0</ele><time>2026-05-01T08:07:16.04Z</time></trkpt><trkpt lat="43.766097" lon="10.3403223"><ele>1.0</ele><time>2026-05-01T08:07:17.048Z</time></trkpt><trkpt lat="43.7660006" lon="10.3404041"><ele>1.0</ele><time>2026-05-01T08:07:18.042Z</time></trkpt><trkpt lat="43.7659089" lon="10.3404849"><ele>1.0</ele><time>2026-05-01T08:07:19.047Z</time></trkpt><trkpt lat="43.7658151" lon="10.3405674"><ele>1.0</ele><time>2026-05-01T08:07:20.042Z</time></trkpt><trkpt lat="43.7657319" lon="10.3406472"><ele>1.0</ele><time>2026-05-01T08:07:21.049Z</time></trkpt><trkpt lat="43.7656498" lon="10.3407282"><ele>1.1666666666666665</ele><time>2026-05-01T08:07:22.044Z</time></trkpt><trkpt lat="43.7655721" lon="10.3408039"><ele>1.3333333333333333</ele><time>2026-05-01T08:07:23.039Z</time></trkpt><trkpt lat="43.7655056" lon="10.3408741"><ele>1.5</ele><time>2026-05-01T08:07:24.047Z</time></trkpt><trkpt lat="43.7654509" lon="10.3409334"><ele>1.6666666666666665</ele><time>2026-05-01T08:07:25.05Z</time></trkpt><trkpt lat="43.7653889" lon="10.340999"><ele>1.8333333333333333</ele><time>2026-05-01T08:07:27.044Z</time></trkpt><trkpt lat="43.765342" lon="10.3410607"><ele>2.0</ele><time>2026-05-01T08:07:34.048Z</time></trkpt><trkpt lat="43.7652573" lon="10.3411666"><ele>2.25</ele><time>2026-05-01T08:07:56.049Z</time></trkpt><trkpt lat="43.7651847" lon="10.3412595"><ele>2.5</ele><time>2026-05-01T08:07:57.045Z</time></trkpt><trkpt lat="43.7651051" lon="10.3413581"><ele>2.75</ele><time>2026-05-01T08:07:58.042Z</time></trkpt><trkpt lat="43.7650171" lon="10.3414697"><ele>3.0</ele><time>2026-05-01T08:07:59.044Z</time></trkpt><trkpt lat="43.7649187" lon="10.3416186"><ele>3.333333333333333</ele><time>2026-05-01T08:08:00.04Z</time></trkpt><trkpt lat="43.7648058" lon="10.3417941"><ele>3.6666666666666665</ele><time>2026-05-01T08:08:01.036Z</time></trkpt><trkpt lat="43.7646956" lon="10.3419675"><ele>4.0</ele><time>2026-05-01T08:08:02.051Z</time></trkpt><trkpt lat="43.7646029" lon="10.3421406"><ele>4.0</ele><time>2026-05-01T08:08:03.049Z</time></trkpt><trkpt lat="43.7645099" lon="10.3423043"><ele>4.0</ele><time>2026-05-01T08:08:04.047Z</time></trkpt><trkpt lat="43.7644293" lon="10.3424464"><ele>4.0</ele><time>2026-05-01T08:08:05.048Z</time></trkpt><trkpt lat="43.7643539" lon="10.342572"><ele>4.0</ele><time>2026-05-01T08:08:06.053Z</time></trkpt><trkpt lat="43.7642799" lon="10.3426971"><ele>3.75</ele><time>2026-05-01T08:08:07.047Z</time></trkpt><trkpt lat="43.7642076" lon="10.3428326"><ele>3.5</ele><time>2026-05-01T08:08:08.048Z</time></trkpt><trkpt lat="43.7641257" lon="10.3429763"><ele>3.25</ele><time>2026-05-01T08:08:09.041Z</time></trkpt><trkpt lat="43.7640426" lon="10.34313"><ele>3.0</ele><time>2026-05-01T08:08:10.042Z</time></trkpt><trkpt lat="43.7639531" lon="10.343288"><ele>3.0</ele><time>2026-05-01T08:08:11.052Z</time></trkpt><trkpt lat="43.7638697" lon="10.3434347"><ele>3.0</ele><time>2026-05-01T08:08:12.04Z</time></trkpt><trkpt lat="43.7637912" lon="10.3435909"><ele>3.0</ele><time>2026-05-01T08:08:13.052Z</time></trkpt><trkpt lat="43.7637038" lon="10.3437496"><ele>3.0</ele><time>2026-05-01T08:08:14.049Z</time></trkpt><trkpt lat="43.7636117" lon="10.3439163"><ele>3.5</ele><time>2026-05-01T08:08:15.049Z</time></trkpt><trkpt lat="43.7635254" lon="10.3440858"><ele>4.0</ele><time>2026-05-01T08:08:16.043Z</time></trkpt><trkpt lat="43.7634365" lon="10.3442388"><ele>4.5</ele><time>2026-05-01T08:08:17.043Z</time></trkpt><trkpt lat="43.763347" lon="10.3444026"><ele>5.0</ele><time>2026-05-01T08:08:18.038Z</time></trkpt><trkpt lat="43.7632585" lon="10.3445675"><ele>5.0</ele><time>2026-05-01T08:08:19.039Z</time></trkpt><trkpt lat="43.763163" lon="10.3447281"><ele>5.0</ele><time>2026-05-01T08:08:20.045Z</time></trkpt><trkpt lat="43.7630606" lon="10.344898"><ele>5.0</ele><time>2026-05-01T08:08:21.047Z</time></trkpt><trkpt lat="43.7629535" lon="10.3450804"><ele>5.0</ele><time>2026-05-01T08:08:22.049Z</time></trkpt><trkpt lat="43.7628423" lon="10.3452678"><ele>5.0</ele><time>2026-05-01T08:08:23.05Z</time></trkpt><trkpt lat="43.7627231" lon="10.3454689"><ele>5.0</ele><time>2026-05-01T08:08:24.048Z</time></trkpt><trkpt lat="43.7625974" lon="10.3456754"><ele>4.333333333333334</ele><time>2026-05-01T08:08:25.043Z</time></trkpt><trkpt lat="43.7624695" lon="10.3458929"><ele>3.666666666666667</ele><time>2026-05-01T08:08:26.047Z</time></trkpt><trkpt lat="43.7623417" lon="10.3461135"><ele>3.0</ele><time>2026-05-01T08:08:27.045Z</time></trkpt><trkpt lat="43.7622115" lon="10.3463333"><ele>3.0</ele><time>2026-05-01T08:08:28.044Z</time></trkpt><trkpt lat="43.7620854" lon="10.3465369"><ele>3.0</ele><time>2026-05-01T08:08:29.05Z</time></trkpt><trkpt lat="43.7619586" lon="10.346736"><ele>3.0</ele><time>2026-05-01T08:08:30.05Z</time></trkpt><trkpt lat="43.7618232" lon="10.3469285"><ele>3.0</ele><time>2026-05-01T08:08:31.052Z</time></trkpt><trkpt lat="43.7616778" lon="10.3471113"><ele>3.0</ele><time>2026-05-01T08:08:32.035Z</time></trkpt><trkpt lat="43.7615276" lon="10.3472889"><ele>3.0</ele><time>2026-05-01T08:08:33.041Z</time></trkpt><trkpt lat="43.76137" lon="10.347461"><ele>3.0</ele><time>2026-05-01T08:08:34.041Z</time></trkpt><trkpt lat="43.7612047" lon="10.3476385"><ele>3.0</ele><time>2026-05-01T08:08:35.046Z</time></trkpt><trkpt lat="43.7610451" lon="10.3478118"><ele>3.0</ele><time>2026-05-01T08:08:36.042Z</time></trkpt><trkpt lat="43.7608777" lon="10.3479892"><ele>2.6666666666666665</ele><time>2026-05-01T08:08:37.048Z</time></trkpt><trkpt lat="43.7607089" lon="10.3481684"><ele>2.333333333333333</ele><time>2026-05-01T08:08:38.048Z</time></trkpt><trkpt lat="43.7605466" lon="10.3483538"><ele>2.0</ele><time>2026-05-01T08:08:39.049Z</time></trkpt><trkpt lat="43.7603797" lon="10.3485314"><ele>2.0</ele><time>2026-05-01T08:08:40.044Z</time></trkpt><trkpt lat="43.7602135" lon="10.3487122"><ele>2.0</ele><time>2026-05-01T08:08:41.038Z</time></trkpt><trkpt lat="43.7600551" lon="10.3488862"><ele>2.0</ele><time>2026-05-01T08:08:42.049Z</time></trkpt><trkpt lat="43.7599024" lon="10.349059"><ele>2.0</ele><time>2026-05-01T08:08:43.044Z</time></trkpt><trkpt lat="43.7597533" lon="10.3492218"><ele>2.0</ele><time>2026-05-01T08:08:44.046Z</time></trkpt><trkpt lat="43.7596085" lon="10.3493773"><ele>2.0</ele><time>2026-05-01T08:08:45.041Z</time></trkpt><trkpt lat="43.7594653" lon="10.349536"><ele>2.0</ele><time>2026-05-01T08:08:46.041Z</time></trkpt><trkpt lat="43.7593225" lon="10.3497027"><ele>2.0</ele><time>2026-05-01T08:08:47.045Z</time></trkpt><trkpt lat="43.7591752" lon="10.3498683"><ele>2.0</ele><time>2026-05-01T08:08:48.04Z</time></trkpt><trkpt lat="43.7590288" lon="10.350032"><ele>1.6666666666666665</ele><time>2026-05-01T08:08:49.038Z</time></trkpt><trkpt lat="43.7588859" lon="10.3501904"><ele>1.3333333333333333</ele><time>2026-05-01T08:08:50.034Z</time></trkpt><trkpt lat="43.7587424" lon="10.3503454"><ele>1.0</ele><time>2026-05-01T08:08:51.045Z</time></trkpt><trkpt lat="43.7585991" lon="10.350499"><ele>1.3333333333333333</ele><time>2026-05-01T08:08:52.048Z</time></trkpt><trkpt lat="43.7584607" lon="10.3506562"><ele>1.6666666666666665</ele><time>2026-05-01T08:08:53.044Z</time></trkpt><trkpt lat="43.75832" lon="10.3508153"><ele>2.0</ele><time>2026-05-01T08:08:54.038Z</time></trkpt><trkpt lat="43.7581756" lon="10.3509656"><ele>2.0</ele><time>2026-05-01T08:08:55.048Z</time></trkpt><trkpt lat="43.758039" lon="10.3511177"><ele>2.0</ele><time>2026-05-01T08:08:56.04Z</time></trkpt><trkpt lat="43.7578988" lon="10.3512727"><ele>2.0</ele><time>2026-05-01T08:08:57.036Z</time></trkpt><trkpt lat="43.7577634" lon="10.3514264"><ele>1.3333333333333333</ele><time>2026-05-01T08:08:58.049Z</time></trkpt><trkpt lat="43.7576236" lon="10.3515843"><ele>0.6666666666666666</ele><time>2026-05-01T08:08:59.036Z</time></trkpt><trkpt lat="43.757476" lon="10.3517383"><ele>0.0</ele><time>2026-05-01T08:09:00.042Z</time></trkpt><trkpt lat="43.7573221" lon="10.351892"><ele>0.0</ele><time>2026-05-01T08:09:01.043Z</time></trkpt><trkpt lat="43.7571679" lon="10.3520598"><ele>0.0</ele><time>2026-05-01T08:09:02.037Z</time></trkpt><trkpt lat="43.7570101" lon="10.3522387"><ele>0.0</ele><time>2026-05-01T08:09:03.048Z</time></trkpt><trkpt lat="43.7568455" lon="10.3524135"><ele>0.0</ele><time>2026-05-01T08:09:04.042Z</time></trkpt><trkpt lat="43.7566892" lon="10.3525855"><ele>0.0</ele><time>2026-05-01T08:09:05.04Z</time></trkpt><trkpt lat="43.7565392" lon="10.3527489"><ele>0.0</ele><time>2026-05-01T08:09:06.04Z</time></trkpt><trkpt lat="43.7563978" lon="10.3529122"><ele>0.0</ele><time>2026-05-01T08:09:07.039Z</time></trkpt><trkpt lat="43.7562578" lon="10.3530604"><ele>0.0</ele><time>2026-05-01T08:09:08.048Z</time></trkpt><trkpt lat="43.7561202" lon="10.3531993"><ele>0.0</ele><time>2026-05-01T08:09:09.041Z</time></trkpt><trkpt lat="43.7559841" lon="10.3533537"><ele>0.3333333333333333</ele><time>2026-05-01T08:09:10.053Z</time></trkpt><trkpt lat="43.7558385" lon="10.3535171"><ele>0.6666666666666666</ele><time>2026-05-01T08:09:11.043Z</time></trkpt><trkpt lat="43.755681" lon="10.3536838"><ele>1.0</ele><time>2026-05-01T08:09:12.035Z</time></trkpt><trkpt lat="43.7555279" lon="10.3538602"><ele>1.0</ele><time>2026-05-01T08:09:13.037Z</time></trkpt><trkpt lat="43.7553721" lon="10.3540385"><ele>1.0</ele><time>2026-05-01T08:09:14.044Z</time></trkpt><trkpt lat="43.7552124" lon="10.3542154"><ele>1.0</ele><time>2026-05-01T08:09:15.034Z</time></trkpt><trkpt lat="43.7550483" lon="10.3543947"><ele>1.0</ele><time>2026-05-01T08:09:16.045Z</time></trkpt><trkpt lat="43.7548773" lon="10.3545796"><ele>1.0</ele><time>2026-05-01T08:09:17.049Z</time></trkpt><trkpt lat="43.7547019" lon="10.3547696"><ele>1.0</ele><time>2026-05-01T08:09:18.04Z</time></trkpt><trkpt lat="43.7545249" lon="10.3549579"><ele>1.6666666666666665</ele><time>2026-05-01T08:09:19.049Z</time></trkpt><trkpt lat="43.7543494" lon="10.3551453"><ele>2.3333333333333335</ele><time>2026-05-01T08:09:20.043Z</time></trkpt><trkpt lat="43.7541728" lon="10.35534"><ele>3.0</ele><time>2026-05-01T08:09:21.046Z</time></trkpt><trkpt lat="43.754002" lon="10.3555281"><ele>2.6666666666666665</ele><time>2026-05-01T08:09:22.046Z</time></trkpt><trkpt lat="43.7538323" lon="10.3557152"><ele>2.333333333333333</ele><time>2026-05-01T08:09:23.044Z</time></trkpt><trkpt lat="43.753664" lon="10.3558992"><ele>2.0</ele><time>2026-05-01T08:09:24.047Z</time></trkpt><trkpt lat="43.7535004" lon="10.3560727"><ele>2.0</ele><time>2026-05-01T08:09:25.036Z</time></trkpt><trkpt lat="43.7533529" lon="10.3562369"><ele>2.0</ele><time>2026-05-01T08:09:26.048Z</time></trkpt><trkpt lat="43.7532086" lon="10.3563929"><ele>2.0</ele><time>2026-05-01T08:09:27.041Z</time></trkpt><trkpt lat="43.7530741" lon="10.3565465"><ele>2.0</ele><time>2026-05-01T08:09:28.04Z</time></trkpt><trkpt lat="43.7529336" lon="10.3566983"><ele>2.0</ele><time>2026-05-01T08:09:29.042Z</time></trkpt><trkpt lat="43.7527965" lon="10.3568477"><ele>2.0</ele><time>2026-05-01T08:09:30.037Z</time></trkpt><trkpt lat="43.7526565" lon="10.3570008"><ele>2.0</ele><time>2026-05-01T08:09:31.045Z</time></trkpt><trkpt lat="43.7525151" lon="10.3571544"><ele>2.0</ele><time>2026-05-01T08:09:32.036Z</time></trkpt><trkpt lat="43.7523763" lon="10.3573095"><ele>2.0</ele><time>2026-05-01T08:09:33.051Z</time></trkpt><trkpt lat="43.7522436" lon="10.357474"><ele>2.0</ele><time>2026-05-01T08:09:34.044Z</time></trkpt><trkpt lat="43.7521173" lon="10.3576613"><ele>2.0</ele><time>2026-05-01T08:09:35.039Z</time></trkpt><trkpt lat="43.7520042" lon="10.3578728"><ele>2.0</ele><time>2026-05-01T08:09:36.038Z</time></trkpt><trkpt lat="43.7519095" lon="10.3580995"><ele>2.0</ele><time>2026-05-01T08:09:37.057Z</time></trkpt><trkpt lat="43.7518236" lon="10.3583262"><ele>2.0</ele><time>2026-05-01T08:09:38.038Z</time></trkpt><trkpt lat="43.7517459" lon="10.3585507"><ele>2.0</ele><time>2026-05-01T08:09:39.036Z</time></trkpt><trkpt lat="43.7516608" lon="10.3587812"><ele>2.0</ele><time>2026-05-01T08:09:40.049Z</time></trkpt><trkpt lat="43.751571" lon="10.3590046"><ele>2.0</ele><time>2026-05-01T08:09:41.038Z</time></trkpt><trkpt lat="43.7514679" lon="10.3592243"><ele>2.0</ele><time>2026-05-01T08:09:42.053Z</time></trkpt><trkpt lat="43.7513556" lon="10.3594361"><ele>2.0</ele><time>2026-05-01T08:09:43.039Z</time></trkpt><trkpt lat="43.7512304" lon="10.3596417"><ele>2.0</ele><time>2026-05-01T08:09:44.039Z</time></trkpt><trkpt lat="43.7511076" lon="10.3598446"><ele>2.0</ele><time>2026-05-01T08:09:45.043Z</time></trkpt><trkpt lat="43.75099" lon="10.3600376"><ele>1.6666666666666665</ele><time>2026-05-01T08:09:46.041Z</time></trkpt><trkpt lat="43.750889" lon="10.3602155"><ele>1.3333333333333333</ele><time>2026-05-01T08:09:47.049Z</time></trkpt><trkpt lat="43.7507936" lon="10.3603819"><ele>1.0</ele><time>2026-05-01T08:09:48.043Z</time></trkpt><trkpt lat="43.7507066" lon="10.3605333"><ele>1.5</ele><time>2026-05-01T08:09:49.054Z</time></trkpt><trkpt lat="43.7506157" lon="10.3606714"><ele>2.0</ele><time>2026-05-01T08:09:50.04Z</time></trkpt><trkpt lat="43.7505337" lon="10.3607939"><ele>2.5</ele><time>2026-05-01T08:09:51.044Z</time></trkpt><trkpt lat="43.7504517" lon="10.3609125"><ele>3.0</ele><time>2026-05-01T08:09:52.04Z</time></trkpt><trkpt lat="43.7503849" lon="10.3610179"><ele>3.0</ele><time>2026-05-01T08:09:53.047Z</time></trkpt><trkpt lat="43.7503271" lon="10.3611143"><ele>3.0</ele><time>2026-05-01T08:09:54.046Z</time></trkpt><trkpt lat="43.7502675" lon="10.361217"><ele>3.0</ele><time>2026-05-01T08:09:55.039Z</time></trkpt><trkpt lat="43.7502024" lon="10.3613329"><ele>3.0</ele><time>2026-05-01T08:09:56.035Z</time></trkpt><trkpt lat="43.7501258" lon="10.3614674"><ele>3.0</ele><time>2026-05-01T08:09:57.045Z</time></trkpt><trkpt lat="43.7500429" lon="10.3616103"><ele>2.3333333333333335</ele><time>2026-05-01T08:09:58.049Z</time></trkpt><trkpt lat="43.7499487" lon="10.3617654"><ele>1.6666666666666665</ele><time>2026-05-01T08:09:59.039Z</time></trkpt><trkpt lat="43.7498494" lon="10.361939"><ele>1.0</ele><time>2026-05-01T08:10:00.031Z</time></trkpt><trkpt lat="43.749739" lon="10.3621151"><ele>1.0</ele><time>2026-05-01T08:10:01.053Z</time></trkpt><trkpt lat="43.7496299" lon="10.3622895"><ele>1.0</ele><time>2026-05-01T08:10:02.038Z</time></trkpt><trkpt lat="43.7495187" lon="10.3624716"><ele>1.0</ele><time>2026-05-01T08:10:03.039Z</time></trkpt><trkpt lat="43.7494116" lon="10.3626495"><ele>1.6666666666666665</ele><time>2026-05-01T08:10:04.047Z</time></trkpt><trkpt lat="43.7492998" lon="10.3628413"><ele>2.3333333333333335</ele><time>2026-05-01T08:10:05.039Z</time></trkpt><trkpt lat="43.7491845" lon="10.3630335"><ele>3.0</ele><time>2026-05-01T08:10:06.045Z</time></trkpt><trkpt lat="43.7490749" lon="10.363219"><ele>3.0</ele><time>2026-05-01T08:10:07.037Z</time></trkpt><trkpt lat="43.7489712" lon="10.3633992"><ele>3.0</ele><time>2026-05-01T08:10:08.038Z</time></trkpt><trkpt lat="43.7488751" lon="10.3635703"><ele>3.0</ele><time>2026-05-01T08:10:09.044Z</time></trkpt><trkpt lat="43.7487796" lon="10.3637394"><ele>2.6666666666666665</ele><time>2026-05-01T08:10:10.039Z</time></trkpt><trkpt lat="43.7486802" lon="10.3638944"><ele>2.333333333333333</ele><time>2026-05-01T08:10:11.046Z</time></trkpt><trkpt lat="43.7485799" lon="10.3640539"><ele>2.0</ele><time>2026-05-01T08:10:12.036Z</time></trkpt><trkpt lat="43.7484742" lon="10.3642263"><ele>1.6666666666666665</ele><time>2026-05-01T08:10:13.04Z</time></trkpt><trkpt lat="43.7483658" lon="10.3644022"><ele>1.3333333333333333</ele><time>2026-05-01T08:10:14.048Z</time></trkpt><trkpt lat="43.7482563" lon="10.3645851"><ele>1.0</ele><time>2026-05-01T08:10:15.048Z</time></trkpt><trkpt lat="43.748152" lon="10.3647642"><ele>1.0</ele><time>2026-05-01T08:10:16.051Z</time></trkpt><trkpt lat="43.7480495" lon="10.3649398"><ele>1.0</ele><time>2026-05-01T08:10:17.048Z</time></trkpt><trkpt lat="43.7479487" lon="10.3651132"><ele>1.0</ele><time>2026-05-01T08:10:18.041Z</time></trkpt><trkpt lat="43.747847" lon="10.36529"><ele>1.0</ele><time>2026-05-01T08:10:19.041Z</time></trkpt><trkpt lat="43.7477465" lon="10.3654644"><ele>1.0</ele><time>2026-05-01T08:10:20.032Z</time></trkpt><trkpt lat="43.7476443" lon="10.3656415"><ele>1.0</ele><time>2026-05-01T08:10:21.05Z</time></trkpt><trkpt lat="43.7475426" lon="10.3658195"><ele>1.0</ele><time>2026-05-01T08:10:22.044Z</time></trkpt><trkpt lat="43.7474334" lon="10.3659949"><ele>1.0</ele><time>2026-05-01T08:10:23.037Z</time></trkpt><trkpt lat="43.7473323" lon="10.3661732"><ele>1.0</ele><time>2026-05-01T08:10:24.048Z</time></trkpt><trkpt lat="43.7472328" lon="10.3663475"><ele>1.3333333333333333</ele><time>2026-05-01T08:10:25.044Z</time></trkpt><trkpt lat="43.7471331" lon="10.3665233"><ele>1.6666666666666665</ele><time>2026-05-01T08:10:26.048Z</time></trkpt><trkpt lat="43.7470264" lon="10.3666971"><ele>2.0</ele><time>2026-05-01T08:10:27.049Z</time></trkpt><trkpt lat="43.7469242" lon="10.3668758"><ele>2.0</ele><time>2026-05-01T08:10:28.051Z</time></trkpt><trkpt lat="43.7468202" lon="10.3670513"><ele>2.0</ele><time>2026-05-01T08:10:29.042Z</time></trkpt><trkpt lat="43.7467147" lon="10.3672309"><ele>2.0</ele><time>2026-05-01T08:10:30.047Z</time></trkpt><trkpt lat="43.7466172" lon="10.3674077"><ele>2.0</ele><time>2026-05-01T08:10:31.045Z</time></trkpt><trkpt lat="43.7465124" lon="10.3675787"><ele>2.0</ele><time>2026-05-01T08:10:32.046Z</time></trkpt><trkpt lat="43.746421" lon="10.3677417"><ele>2.0</ele><time>2026-05-01T08:10:33.043Z</time></trkpt><trkpt lat="43.7463314" lon="10.3678912"><ele>2.0</ele><time>2026-05-01T08:10:34.038Z</time></trkpt><trkpt lat="43.7462475" lon="10.3680348"><ele>2.0</ele><time>2026-05-01T08:10:35.053Z</time></trkpt><trkpt lat="43.7461539" lon="10.3681742"><ele>2.0</ele><time>2026-05-01T08:10:36.049Z</time></trkpt><trkpt lat="43.7460597" lon="10.3683134"><ele>2.0</ele><time>2026-05-01T08:10:37.042Z</time></trkpt><trkpt lat="43.7459719" lon="10.3684584"><ele>2.0</ele><time>2026-05-01T08:10:38.044Z</time></trkpt><trkpt lat="43.7458856" lon="10.3686075"><ele>2.0</ele><time>2026-05-01T08:10:39.04Z</time></trkpt><trkpt lat="43.7457991" lon="10.3687596"><ele>2.0</ele><time>2026-05-01T08:10:40.043Z</time></trkpt><trkpt lat="43.7457069" lon="10.3689181"><ele>2.0</ele><time>2026-05-01T08:10:41.037Z</time></trkpt><trkpt lat="43.7456052" lon="10.3690862"><ele>2.0</ele><time>2026-05-01T08:10:42.043Z</time></trkpt><trkpt lat="43.7455061" lon="10.3692536"><ele>2.0</ele><time>2026-05-01T08:10:43.045Z</time></trkpt><trkpt lat="43.7454152" lon="10.3694146"><ele>2.0</ele><time>2026-05-01T08:10:44.049Z</time></trkpt><trkpt lat="43.7453233" lon="10.3695725"><ele>1.5</ele><time>2026-05-01T08:10:45.048Z</time></trkpt><trkpt lat="43.7452348" lon="10.3697294"><ele>1.0</ele><time>2026-05-01T08:10:46.042Z</time></trkpt><trkpt lat="43.7451444" lon="10.3698848"><ele>0.5</ele><time>2026-05-01T08:10:47.039Z</time></trkpt><trkpt lat="43.7450525" lon="10.3700384"><ele>0.0</ele><time>2026-05-01T08:10:48.047Z</time></trkpt><trkpt lat="43.744961" lon="10.3701891"><ele>0.0</ele><time>2026-05-01T08:10:49.045Z</time></trkpt><trkpt lat="43.74487" lon="10.3703368"><ele>0.0</ele><time>2026-05-01T08:10:50.038Z</time></trkpt><trkpt lat="43.7447897" lon="10.3704771"><ele>0.0</ele><time>2026-05-01T08:10:51.046Z</time></trkpt><trkpt lat="43.7447119" lon="10.3706068"><ele>0.0</ele><time>2026-05-01T08:10:52.045Z</time></trkpt><trkpt lat="43.7446406" lon="10.370726"><ele>0.0</ele><time>2026-05-01T08:10:53.05Z</time></trkpt><trkpt lat="43.7445744" lon="10.3708347"><ele>0.0</ele><time>2026-05-01T08:10:54.046Z</time></trkpt><trkpt lat="43.7445148" lon="10.3709326"><ele>0.0</ele><time>2026-05-01T08:10:55.045Z</time></trkpt><trkpt lat="43.7444597" lon="10.3710233"><ele>0.0</ele><time>2026-05-01T08:10:56.043Z</time></trkpt><trkpt lat="43.7444117" lon="10.3711034"><ele>0.0</ele><time>2026-05-01T08:10:57.042Z</time></trkpt><trkpt lat="43.7443371" lon="10.3712232"><ele>0.0</ele><time>2026-05-01T08:10:59.042Z</time></trkpt><trkpt lat="43.7442699" lon="10.3712938"><ele>0.0</ele><time>2026-05-01T08:11:01.043Z</time></trkpt><trkpt lat="43.7441871" lon="10.3713199"><ele>0.0</ele><time>2026-05-01T08:11:03.042Z</time></trkpt><trkpt lat="43.7440946" lon="10.3713114"><ele>0.0</ele><time>2026-05-01T08:11:05.044Z</time></trkpt><trkpt lat="43.7439925" lon="10.3713572"><ele>0.0</ele><time>2026-05-01T08:11:07.058Z</time></trkpt><trkpt lat="43.7439297" lon="10.3715023"><ele>0.16666666666666666</ele><time>2026-05-01T08:11:09.057Z</time></trkpt><trkpt lat="43.7439149" lon="10.3715973"><ele>0.3333333333333333</ele><time>2026-05-01T08:11:10.045Z</time></trkpt><trkpt lat="43.7438978" lon="10.3717071"><ele>0.5</ele><time>2026-05-01T08:11:11.049Z</time></trkpt><trkpt lat="43.7438812" lon="10.3718231"><ele>0.6666666666666666</ele><time>2026-05-01T08:11:12.042Z</time></trkpt><trkpt lat="43.7438365" lon="10.3719328"><ele>0.8333333333333333</ele><time>2026-05-01T08:11:13.044Z</time></trkpt><trkpt lat="43.7437913" lon="10.3720335"><ele>1.0</ele><time>2026-05-01T08:11:14.045Z</time></trkpt><trkpt lat="43.7437406" lon="10.3721427"><ele>1.0</ele><time>2026-05-01T08:11:15.046Z</time></trkpt><trkpt lat="43.74369" lon="10.3722476"><ele>1.0</ele><time>2026-05-01T08:11:16.044Z</time></trkpt><trkpt lat="43.7436357" lon="10.3723494"><ele>1.0</ele><time>2026-05-01T08:11:17.045Z</time></trkpt><trkpt lat="43.743578" lon="10.3724484"><ele>1.0</ele><time>2026-05-01T08:11:18.044Z</time></trkpt><trkpt lat="43.743514" lon="10.3725497"><ele>1.0</ele><time>2026-05-01T08:11:19.046Z</time></trkpt><trkpt lat="43.74344" lon="10.3726526"><ele>1.2000000000000002</ele><time>2026-05-01T08:11:20.038Z</time></trkpt><trkpt lat="43.7433547" lon="10.3727545"><ele>1.4000000000000001</ele><time>2026-05-01T08:11:21.04Z</time></trkpt><trkpt lat="43.7432648" lon="10.3728494"><ele>1.6</ele><time>2026-05-01T08:11:22.038Z</time></trkpt><trkpt lat="43.7431731" lon="10.3729329"><ele>1.8</ele><time>2026-05-01T08:11:23.046Z</time></trkpt><trkpt lat="43.7430887" lon="10.3730068"><ele>2.0</ele><time>2026-05-01T08:11:24.034Z</time></trkpt><trkpt lat="43.7430025" lon="10.3730759"><ele>2.0</ele><time>2026-05-01T08:11:25.045Z</time></trkpt><trkpt lat="43.7429115" lon="10.3731431"><ele>2.0</ele><time>2026-05-01T08:11:26.045Z</time></trkpt><trkpt lat="43.7428129" lon="10.3732077"><ele>2.0</ele><time>2026-05-01T08:11:27.047Z</time></trkpt><trkpt lat="43.7427068" lon="10.3732679"><ele>2.0</ele><time>2026-05-01T08:11:28.039Z</time></trkpt><trkpt lat="43.7425982" lon="10.3733184"><ele>2.0</ele><time>2026-05-01T08:11:29.039Z</time></trkpt><trkpt lat="43.7424862" lon="10.3733593"><ele>1.75</ele><time>2026-05-01T08:11:30.054Z</time></trkpt><trkpt lat="43.7423703" lon="10.3733915"><ele>1.5</ele><time>2026-05-01T08:11:31.047Z</time></trkpt><trkpt lat="43.7422525" lon="10.3734176"><ele>1.25</ele><time>2026-05-01T08:11:32.052Z</time></trkpt><trkpt lat="43.7421366" lon="10.373435"><ele>1.0</ele><time>2026-05-01T08:11:33.058Z</time></trkpt><trkpt lat="43.74202" lon="10.373446"><ele>1.0</ele><time>2026-05-01T08:11:34.037Z</time></trkpt><trkpt lat="43.7419012" lon="10.3734547"><ele>1.0</ele><time>2026-05-01T08:11:35.038Z</time></trkpt><trkpt lat="43.7417824" lon="10.3734635"><ele>1.0</ele><time>2026-05-01T08:11:36.043Z</time></trkpt><trkpt lat="43.7416698" lon="10.3734693"><ele>1.0</ele><time>2026-05-01T08:11:37.05Z</time></trkpt><trkpt lat="43.741555" lon="10.3734776"><ele>0.8</ele><time>2026-05-01T08:11:38.037Z</time></trkpt><trkpt lat="43.7414405" lon="10.3734843"><ele>0.6000000000000001</ele><time>2026-05-01T08:11:39.052Z</time></trkpt><trkpt lat="43.7413282" lon="10.3734952"><ele>0.4</ele><time>2026-05-01T08:11:40.041Z</time></trkpt><trkpt lat="43.7412273" lon="10.3734997"><ele>0.2</ele><time>2026-05-01T08:11:41.044Z</time></trkpt><trkpt lat="43.7411354" lon="10.3735067"><ele>0.0</ele><time>2026-05-01T08:11:42.061Z</time></trkpt><trkpt lat="43.7410563" lon="10.3735067"><ele>-0.14285714285714285</ele><time>2026-05-01T08:11:43.044Z</time></trkpt><trkpt lat="43.7409885" lon="10.3734989"><ele>-0.2857142857142857</ele><time>2026-05-01T08:11:44.043Z</time></trkpt><trkpt lat="43.7409252" lon="10.3734792"><ele>-0.42857142857142855</ele><time>2026-05-01T08:11:45.043Z</time></trkpt><trkpt lat="43.7408621" lon="10.3734411"><ele>-0.5714285714285714</ele><time>2026-05-01T08:11:46.05Z</time></trkpt><trkpt lat="43.7408062" lon="10.3733911"><ele>-0.7142857142857142</ele><time>2026-05-01T08:11:47.038Z</time></trkpt><trkpt lat="43.7407493" lon="10.3733526"><ele>-0.8571428571428571</ele><time>2026-05-01T08:11:48.039Z</time></trkpt><trkpt lat="43.740672" lon="10.3733585"><ele>-1.0</ele><time>2026-05-01T08:11:49.051Z</time></trkpt><trkpt lat="43.7405901" lon="10.3733721"><ele>-1.0</ele><time>2026-05-01T08:11:50.047Z</time></trkpt><trkpt lat="43.7404921" lon="10.3734322"><ele>-1.0</ele><time>2026-05-01T08:11:51.042Z</time></trkpt><trkpt lat="43.7403816" lon="10.3734963"><ele>-1.0</ele><time>2026-05-01T08:11:52.046Z</time></trkpt><trkpt lat="43.7402547" lon="10.373541"><ele>-1.0</ele><time>2026-05-01T08:11:53.048Z</time></trkpt><trkpt lat="43.7401039" lon="10.373572"><ele>-0.6666666666666666</ele><time>2026-05-01T08:11:54.036Z</time></trkpt><trkpt lat="43.7399438" lon="10.3735769"><ele>-0.3333333333333333</ele><time>2026-05-01T08:11:55.037Z</time></trkpt><trkpt lat="43.7397847" lon="10.3735812"><ele>0.0</ele><time>2026-05-01T08:11:56.047Z</time></trkpt><trkpt lat="43.7396238" lon="10.3735875"><ele>0.0</ele><time>2026-05-01T08:11:57.043Z</time></trkpt><trkpt lat="43.7394564" lon="10.3735967"><ele>0.0</ele><time>2026-05-01T08:11:58.039Z</time></trkpt><trkpt lat="43.7392818" lon="10.373603"><ele>0.0</ele><time>2026-05-01T08:11:59.045Z</time></trkpt><trkpt lat="43.7391002" lon="10.3736107"><ele>0.6666666666666666</ele><time>2026-05-01T08:12:00.039Z</time></trkpt><trkpt lat="43.738911" lon="10.3736185"><ele>1.3333333333333333</ele><time>2026-05-01T08:12:01.05Z</time></trkpt><trkpt lat="43.738712" lon="10.3736304"><ele>2.0</ele><time>2026-05-01T08:12:02.042Z</time></trkpt><trkpt lat="43.7385138" lon="10.3736425"><ele>2.0</ele><time>2026-05-01T08:12:03.041Z</time></trkpt><trkpt lat="43.7383107" lon="10.3736553"><ele>2.0</ele><time>2026-05-01T08:12:04.042Z</time></trkpt><trkpt lat="43.7381106" lon="10.3736632"><ele>2.0</ele><time>2026-05-01T08:12:05.048Z</time></trkpt><trkpt lat="43.7379156" lon="10.3736762"><ele>2.0</ele><time>2026-05-01T08:12:06.054Z</time></trkpt><trkpt lat="43.7377351" lon="10.3736883"><ele>2.0</ele><time>2026-05-01T08:12:07.042Z</time></trkpt><trkpt lat="43.7375556" lon="10.3737032"><ele>2.0</ele><time>2026-05-01T08:12:08.044Z</time></trkpt><trkpt lat="43.7373813" lon="10.3737185"><ele>1.6666666666666665</ele><time>2026-05-01T08:12:09.051Z</time></trkpt><trkpt lat="43.7372075" lon="10.3737276"><ele>1.3333333333333333</ele><time>2026-05-01T08:12:10.041Z</time></trkpt><trkpt lat="43.7370314" lon="10.3737351"><ele>1.0</ele><time>2026-05-01T08:12:11.046Z</time></trkpt><trkpt lat="43.7368607" lon="10.3737442"><ele>1.0</ele><time>2026-05-01T08:12:12.047Z</time></trkpt><trkpt lat="43.7366798" lon="10.373754"><ele>1.0</ele><time>2026-05-01T08:12:13.032Z</time></trkpt><trkpt lat="43.7364978" lon="10.373771"><ele>1.0</ele><time>2026-05-01T08:12:14.052Z</time></trkpt><trkpt lat="43.7363169" lon="10.3737767"><ele>1.0</ele><time>2026-05-01T08:12:15.047Z</time></trkpt><trkpt lat="43.7361395" lon="10.3737892"><ele>1.0</ele><time>2026-05-01T08:12:16.042Z</time></trkpt><trkpt lat="43.7359598" lon="10.3737998"><ele>1.0</ele><time>2026-05-01T08:12:17.046Z</time></trkpt><trkpt lat="43.7357797" lon="10.3738112"><ele>1.0</ele><time>2026-05-01T08:12:18.039Z</time></trkpt><trkpt lat="43.7355897" lon="10.3738234"><ele>1.0</ele><time>2026-05-01T08:12:19.046Z</time></trkpt><trkpt lat="43.7353984" lon="10.3738413"><ele>1.0</ele><time>2026-05-01T08:12:20.049Z</time></trkpt><trkpt lat="43.7351999" lon="10.3738576"><ele>0.6666666666666666</ele><time>2026-05-01T08:12:21.043Z</time></trkpt><trkpt lat="43.7350033" lon="10.3738661"><ele>0.3333333333333333</ele><time>2026-05-01T08:12:22.058Z</time></trkpt><trkpt lat="43.7348046" lon="10.3738714"><ele>0.0</ele><time>2026-05-01T08:12:23.046Z</time></trkpt><trkpt lat="43.7346006" lon="10.3738843"><ele>0.0</ele><time>2026-05-01T08:12:24.042Z</time></trkpt><trkpt lat="43.7343912" lon="10.3739009"><ele>0.0</ele><time>2026-05-01T08:12:25.043Z</time></trkpt><trkpt lat="43.7341821" lon="10.3739313"><ele>0.0</ele><time>2026-05-01T08:12:26.035Z</time></trkpt><trkpt lat="43.7339678" lon="10.3739758"><ele>0.0</ele><time>2026-05-01T08:12:27.045Z</time></trkpt><trkpt lat="43.7337593" lon="10.3740411"><ele>0.0</ele><time>2026-05-01T08:12:28.048Z</time></trkpt><trkpt lat="43.7335517" lon="10.3741215"><ele>0.0</ele><time>2026-05-01T08:12:29.046Z</time></trkpt><trkpt lat="43.7333528" lon="10.3742179"><ele>0.0</ele><time>2026-05-01T08:12:30.051Z</time></trkpt><trkpt lat="43.7331521" lon="10.3743318"><ele>0.0</ele><time>2026-05-01T08:12:31.039Z</time></trkpt><trkpt lat="43.732953" lon="10.3744567"><ele>0.0</ele><time>2026-05-01T08:12:32.044Z</time></trkpt><trkpt lat="43.732761" lon="10.3745862"><ele>0.6666666666666666</ele><time>2026-05-01T08:12:33.05Z</time></trkpt><trkpt lat="43.7325689" lon="10.3747192"><ele>1.3333333333333333</ele><time>2026-05-01T08:12:34.044Z</time></trkpt><trkpt lat="43.732381" lon="10.3748494"><ele>2.0</ele><time>2026-05-01T08:12:35.046Z</time></trkpt><trkpt lat="43.7321909" lon="10.3749771"><ele>2.0</ele><time>2026-05-01T08:12:36.047Z</time></trkpt><trkpt lat="43.7319986" lon="10.3751119"><ele>2.0</ele><time>2026-05-01T08:12:37.046Z</time></trkpt><trkpt lat="43.7318054" lon="10.3752403"><ele>2.0</ele><time>2026-05-01T08:12:38.043Z</time></trkpt><trkpt lat="43.7316065" lon="10.375368"><ele>1.6666666666666665</ele><time>2026-05-01T08:12:39.043Z</time></trkpt><trkpt lat="43.731409" lon="10.3754958"><ele>1.3333333333333333</ele><time>2026-05-01T08:12:40.052Z</time></trkpt><trkpt lat="43.7312169" lon="10.3756306"><ele>1.0</ele><time>2026-05-01T08:12:41.042Z</time></trkpt><trkpt lat="43.7310186" lon="10.3757672"><ele>1.0</ele><time>2026-05-01T08:12:42.051Z</time></trkpt><trkpt lat="43.7308229" lon="10.3759053"><ele>1.0</ele><time>2026-05-01T08:12:43.044Z</time></trkpt><trkpt lat="43.7306353" lon="10.3760311"><ele>1.0</ele><time>2026-05-01T08:12:44.048Z</time></trkpt><trkpt lat="43.7304461" lon="10.3761621"><ele>1.0</ele><time>2026-05-01T08:12:45.049Z</time></trkpt><trkpt lat="43.7302573" lon="10.3762922"><ele>1.0</ele><time>2026-05-01T08:12:46.046Z</time></trkpt><trkpt lat="43.7300788" lon="10.3764223"><ele>1.0</ele><time>2026-05-01T08:12:47.061Z</time></trkpt><trkpt lat="43.7299082" lon="10.3765289"><ele>0.6666666666666666</ele><time>2026-05-01T08:12:48.036Z</time></trkpt><trkpt lat="43.7297386" lon="10.3766427"><ele>0.3333333333333333</ele><time>2026-05-01T08:12:49.049Z</time></trkpt><trkpt lat="43.7295745" lon="10.3767557"><ele>0.0</ele><time>2026-05-01T08:12:50.039Z</time></trkpt><trkpt lat="43.7294069" lon="10.3768643"><ele>0.0</ele><time>2026-05-01T08:12:51.053Z</time></trkpt><trkpt lat="43.7292346" lon="10.3769782"><ele>0.0</ele><time>2026-05-01T08:12:52.05Z</time></trkpt><trkpt lat="43.729062" lon="10.3770901"><ele>0.0</ele><time>2026-05-01T08:12:53.045Z</time></trkpt><trkpt lat="43.7288897" lon="10.3772039"><ele>0.3333333333333333</ele><time>2026-05-01T08:12:54.049Z</time></trkpt><trkpt lat="43.728713" lon="10.3773031"><ele>0.6666666666666666</ele><time>2026-05-01T08:12:55.045Z</time></trkpt><trkpt lat="43.7285216" lon="10.377383"><ele>1.0</ele><time>2026-05-01T08:12:56.045Z</time></trkpt><trkpt lat="43.7283325" lon="10.3774568"><ele>0.3333333333333333</ele><time>2026-05-01T08:12:57.038Z</time></trkpt><trkpt lat="43.7281453" lon="10.3775353"><ele>-0.3333333333333333</ele><time>2026-05-01T08:12:58.043Z</time></trkpt><trkpt lat="43.7279646" lon="10.3776072"><ele>-1.0</ele><time>2026-05-01T08:12:59.039Z</time></trkpt><trkpt lat="43.7277851" lon="10.3776829"><ele>-0.6666666666666666</ele><time>2026-05-01T08:13:00.043Z</time></trkpt><trkpt lat="43.7276135" lon="10.3777495"><ele>-0.3333333333333333</ele><time>2026-05-01T08:13:01.041Z</time></trkpt><trkpt lat="43.7274538" lon="10.3778169"><ele>0.0</ele><time>2026-05-01T08:13:02.043Z</time></trkpt><trkpt lat="43.7273018" lon="10.3778762"><ele>0.0</ele><time>2026-05-01T08:13:03.036Z</time></trkpt><trkpt lat="43.7271633" lon="10.3779372"><ele>0.0</ele><time>2026-05-01T08:13:04.047Z</time></trkpt><trkpt lat="43.7270314" lon="10.3779991"><ele>0.0</ele><time>2026-05-01T08:13:05.049Z</time></trkpt><trkpt lat="43.726901" lon="10.3780556"><ele>0.0</ele><time>2026-05-01T08:13:06.04Z</time></trkpt><trkpt lat="43.7267756" lon="10.3781056"><ele>0.0</ele><time>2026-05-01T08:13:07.041Z</time></trkpt><trkpt lat="43.7266553" lon="10.3781583"><ele>0.0</ele><time>2026-05-01T08:13:08.052Z</time></trkpt><trkpt lat="43.7265307" lon="10.3782101"><ele>0.0</ele><time>2026-05-01T08:13:09.045Z</time></trkpt><trkpt lat="43.7264009" lon="10.3782604"><ele>0.0</ele><time>2026-05-01T08:13:10.043Z</time></trkpt><trkpt lat="43.7262728" lon="10.3783125"><ele>0.0</ele><time>2026-05-01T08:13:11.047Z</time></trkpt><trkpt lat="43.7261381" lon="10.3783679"><ele>0.0</ele><time>2026-05-01T08:13:12.049Z</time></trkpt><trkpt lat="43.7260005" lon="10.3784251"><ele>0.0</ele><time>2026-05-01T08:13:13.057Z</time></trkpt><trkpt lat="43.7258605" lon="10.3784797"><ele>0.0</ele><time>2026-05-01T08:13:14.04Z</time></trkpt><trkpt lat="43.7257221" lon="10.3785347"><ele>0.0</ele><time>2026-05-01T08:13:15.046Z</time></trkpt><trkpt lat="43.7255942" lon="10.3785904"><ele>0.0</ele><time>2026-05-01T08:13:16.049Z</time></trkpt><trkpt lat="43.7254822" lon="10.3786355"><ele>0.0</ele><time>2026-05-01T08:13:17.039Z</time></trkpt><trkpt lat="43.7253751" lon="10.3786792"><ele>0.0</ele><time>2026-05-01T08:13:18.041Z</time></trkpt><trkpt lat="43.7252733" lon="10.3787174"><ele>0.0</ele><time>2026-05-01T08:13:19.049Z</time></trkpt><trkpt lat="43.725176" lon="10.3787627"><ele>0.0</ele><time>2026-05-01T08:13:20.047Z</time></trkpt><trkpt lat="43.7250843" lon="10.3788007"><ele>0.0</ele><time>2026-05-01T08:13:21.046Z</time></trkpt><trkpt lat="43.7249984" lon="10.378842"><ele>0.0</ele><time>2026-05-01T08:13:22.052Z</time></trkpt><trkpt lat="43.7249145" lon="10.3788738"><ele>0.0</ele><time>2026-05-01T08:13:23.051Z</time></trkpt><trkpt lat="43.7248348" lon="10.3789124"><ele>0.0</ele><time>2026-05-01T08:13:24.05Z</time></trkpt><trkpt lat="43.7247596" lon="10.3789493"><ele>0.0</ele><time>2026-05-01T08:13:25.047Z</time></trkpt><trkpt lat="43.7246923" lon="10.3789811"><ele>0.0</ele><time>2026-05-01T08:13:26.039Z</time></trkpt><trkpt lat="43.7246151" lon="10.3790183"><ele>0.0</ele><time>2026-05-01T08:13:27.044Z</time></trkpt><trkpt lat="43.7245277" lon="10.3790537"><ele>0.0</ele><time>2026-05-01T08:13:28.039Z</time></trkpt><trkpt lat="43.7244328" lon="10.3790917"><ele>0.0</ele><time>2026-05-01T08:13:29.05Z</time></trkpt><trkpt lat="43.7243365" lon="10.3791243"><ele>0.0</ele><time>2026-05-01T08:13:30.05Z</time></trkpt><trkpt lat="43.724244" lon="10.3791643"><ele>0.0</ele><time>2026-05-01T08:13:31.045Z</time></trkpt><trkpt lat="43.7241637" lon="10.3792016"><ele>0.0</ele><time>2026-05-01T08:13:32.036Z</time></trkpt><trkpt lat="43.7241032" lon="10.3792284"><ele>0.0</ele><time>2026-05-01T08:13:33.043Z</time></trkpt><trkpt lat="43.7240417" lon="10.3792551"><ele>0.0</ele><time>2026-05-01T08:13:34.053Z</time></trkpt><trkpt lat="43.7239293" lon="10.379287"><ele>0.0</ele><time>2026-05-01T08:13:36.047Z</time></trkpt><trkpt lat="43.7238675" lon="10.3793062"><ele>0.0</ele><time>2026-05-01T08:13:38.034Z</time></trkpt><trkpt lat="43.7237754" lon="10.3793337"><ele>0.0</ele><time>2026-05-01T08:13:41.048Z</time></trkpt><trkpt lat="43.723695" lon="10.3793547"><ele>0.0</ele><time>2026-05-01T08:13:43.058Z</time></trkpt><trkpt lat="43.7235763" lon="10.3793263"><ele>0.0</ele><time>2026-05-01T08:13:45.038Z</time></trkpt><trkpt lat="43.7234788" lon="10.3792792"><ele>0.0</ele><time>2026-05-01T08:13:47.044Z</time></trkpt><trkpt lat="43.723407" lon="10.3792987"><ele>0.0</ele><time>2026-05-01T08:13:49.047Z</time></trkpt><trkpt lat="43.7233032" lon="10.3793966"><ele>0.0</ele><time>2026-05-01T08:13:51.054Z</time></trkpt><trkpt lat="43.7232449" lon="10.3794677"><ele>0.0</ele><time>2026-05-01T08:13:52.033Z</time></trkpt><trkpt lat="43.723187" lon="10.3795342"><ele>0.0</ele><time>2026-05-01T08:13:53.042Z</time></trkpt><trkpt lat="43.7231118" lon="10.3795941"><ele>0.0</ele><time>2026-05-01T08:13:54.051Z</time></trkpt><trkpt lat="43.7230279" lon="10.3796418"><ele>0.0</ele><time>2026-05-01T08:13:55.046Z</time></trkpt><trkpt lat="43.7229296" lon="10.3796833"><ele>0.0</ele><time>2026-05-01T08:13:56.047Z</time></trkpt><trkpt lat="43.7228275" lon="10.3797297"><ele>0.0</ele><time>2026-05-01T08:13:57.036Z</time></trkpt><trkpt lat="43.7227262" lon="10.3797758"><ele>0.0</ele><time>2026-05-01T08:13:58.039Z</time></trkpt><trkpt lat="43.7226235" lon="10.3798134"><ele>0.0</ele><time>2026-05-01T08:13:59.04Z</time></trkpt><trkpt lat="43.7225205" lon="10.3798557"><ele>0.0</ele><time>2026-05-01T08:14:00.041Z</time></trkpt><trkpt lat="43.7224178" lon="10.3798947"><ele>0.0</ele><time>2026-05-01T08:14:01.037Z</time></trkpt><trkpt lat="43.7223065" lon="10.3799419"><ele>0.0</ele><time>2026-05-01T08:14:02.039Z</time></trkpt><trkpt lat="43.722193" lon="10.3799895"><ele>0.0</ele><time>2026-05-01T08:14:03.043Z</time></trkpt><trkpt lat="43.722081" lon="10.3800337"><ele>0.0</ele><time>2026-05-01T08:14:04.039Z</time></trkpt><trkpt lat="43.7219638" lon="10.3800801"><ele>0.0</ele><time>2026-05-01T08:14:05.041Z</time></trkpt><trkpt lat="43.7218421" lon="10.38013"><ele>0.0</ele><time>2026-05-01T08:14:06.036Z</time></trkpt><trkpt lat="43.7217184" lon="10.380185"><ele>0.0</ele><time>2026-05-01T08:14:07.044Z</time></trkpt><trkpt lat="43.7215895" lon="10.3802383"><ele>-0.25</ele><time>2026-05-01T08:14:08.052Z</time></trkpt><trkpt lat="43.7214655" lon="10.3802905"><ele>-0.5</ele><time>2026-05-01T08:14:09.044Z</time></trkpt><trkpt lat="43.7213369" lon="10.3803417"><ele>-0.75</ele><time>2026-05-01T08:14:10.043Z</time></trkpt><trkpt lat="43.7212067" lon="10.3803976"><ele>-1.0</ele><time>2026-05-01T08:14:11.047Z</time></trkpt><trkpt lat="43.721076" lon="10.3804511"><ele>-0.75</ele><time>2026-05-01T08:14:12.035Z</time></trkpt><trkpt lat="43.7209489" lon="10.3805042"><ele>-0.5</ele><time>2026-05-01T08:14:13.041Z</time></trkpt><trkpt lat="43.7208141" lon="10.3805592"><ele>-0.25</ele><time>2026-05-01T08:14:14.051Z</time></trkpt><trkpt lat="43.7206829" lon="10.3806141"><ele>0.0</ele><time>2026-05-01T08:14:15.044Z</time></trkpt><trkpt lat="43.7205575" lon="10.3806677"><ele>0.0</ele><time>2026-05-01T08:14:16.042Z</time></trkpt><trkpt lat="43.7204306" lon="10.3807193"><ele>0.0</ele><time>2026-05-01T08:14:17.038Z</time></trkpt><trkpt lat="43.7203045" lon="10.3807734"><ele>0.0</ele><time>2026-05-01T08:14:18.037Z</time></trkpt><trkpt lat="43.720182" lon="10.3808294"><ele>0.0</ele><time>2026-05-01T08:14:19.054Z</time></trkpt><trkpt lat="43.7200623" lon="10.3808844"><ele>0.75</ele><time>2026-05-01T08:14:20.044Z</time></trkpt><trkpt lat="43.719937" lon="10.3809366"><ele>1.5</ele><time>2026-05-01T08:14:21.042Z</time></trkpt><trkpt lat="43.719813" lon="10.3809867"><ele>2.25</ele><time>2026-05-01T08:14:22.048Z</time></trkpt><trkpt lat="43.719693" lon="10.3810374"><ele>3.0</ele><time>2026-05-01T08:14:23.041Z</time></trkpt><trkpt lat="43.7195684" lon="10.3810856"><ele>3.0</ele><time>2026-05-01T08:14:24.06Z</time></trkpt><trkpt lat="43.7194432" lon="10.3811405"><ele>3.0</ele><time>2026-05-01T08:14:25.043Z</time></trkpt><trkpt lat="43.7193086" lon="10.381196"><ele>3.0</ele><time>2026-05-01T08:14:26.04Z</time></trkpt><trkpt lat="43.7191721" lon="10.381245"><ele>3.0</ele><time>2026-05-01T08:14:27.038Z</time></trkpt><trkpt lat="43.7190431" lon="10.3813031"><ele>2.75</ele><time>2026-05-01T08:14:28.043Z</time></trkpt><trkpt lat="43.7189088" lon="10.3813565"><ele>2.5</ele><time>2026-05-01T08:14:29.047Z</time></trkpt><trkpt lat="43.7187787" lon="10.3814089"><ele>2.25</ele><time>2026-05-01T08:14:30.049Z</time></trkpt><trkpt lat="43.7186578" lon="10.3814526"><ele>2.0</ele><time>2026-05-01T08:14:31.042Z</time></trkpt><trkpt lat="43.7185532" lon="10.3814923"><ele>2.4000000000000004</ele><time>2026-05-01T08:14:32.042Z</time></trkpt><trkpt lat="43.7184591" lon="10.3815358"><ele>2.8000000000000003</ele><time>2026-05-01T08:14:33.049Z</time></trkpt><trkpt lat="43.7183728" lon="10.3815734"><ele>3.2</ele><time>2026-05-01T08:14:34.048Z</time></trkpt><trkpt lat="43.7182878" lon="10.3816145"><ele>3.6</ele><time>2026-05-01T08:14:35.051Z</time></trkpt><trkpt lat="43.7181985" lon="10.3816523"><ele>4.0</ele><time>2026-05-01T08:14:36.044Z</time></trkpt><trkpt lat="43.7181029" lon="10.3816944"><ele>4.0</ele><time>2026-05-01T08:14:37.038Z</time></trkpt><trkpt lat="43.7180071" lon="10.3817374"><ele>4.0</ele><time>2026-05-01T08:14:38.045Z</time></trkpt><trkpt lat="43.7179056" lon="10.3817859"><ele>4.0</ele><time>2026-05-01T08:14:39.047Z</time></trkpt><trkpt lat="43.7178078" lon="10.3818327"><ele>4.0</ele><time>2026-05-01T08:14:40.043Z</time></trkpt><trkpt lat="43.7177148" lon="10.3818743"><ele>4.0</ele><time>2026-05-01T08:14:41.05Z</time></trkpt><trkpt lat="43.7176348" lon="10.3818994"><ele>4.166666666666666</ele><time>2026-05-01T08:14:42.051Z</time></trkpt><trkpt lat="43.7175585" lon="10.3819201"><ele>4.333333333333333</ele><time>2026-05-01T08:14:43.055Z</time></trkpt><trkpt lat="43.7174775" lon="10.3819398"><ele>4.5</ele><time>2026-05-01T08:14:44.04Z</time></trkpt><trkpt lat="43.7174083" lon="10.3819513"><ele>4.666666666666667</ele><time>2026-05-01T08:14:45.063Z</time></trkpt><trkpt lat="43.7173443" lon="10.3819513"><ele>4.833333333333334</ele><time>2026-05-01T08:14:46.044Z</time></trkpt><trkpt lat="43.7172605" lon="10.3819143"><ele>5.0</ele><time>2026-05-01T08:14:48.047Z</time></trkpt><trkpt lat="43.7171618" lon="10.3818525"><ele>5.0</ele><time>2026-05-01T08:14:51.044Z</time></trkpt><trkpt lat="43.7170581" lon="10.3818487"><ele>5.0</ele><time>2026-05-01T08:14:53.039Z</time></trkpt><trkpt lat="43.7169636" lon="10.3819207"><ele>5.0</ele><time>2026-05-01T08:14:55.05Z</time></trkpt><trkpt lat="43.716904" lon="10.3820637"><ele>5.0</ele><time>2026-05-01T08:14:57.035Z</time></trkpt><trkpt lat="43.716831" lon="10.3821889"><ele>5.0</ele><time>2026-05-01T08:14:59.04Z</time></trkpt><trkpt lat="43.7167717" lon="10.3822315"><ele>4.5</ele><time>2026-05-01T08:15:00.048Z</time></trkpt><trkpt lat="43.7167106" lon="10.3822646"><ele>4.0</ele><time>2026-05-01T08:15:01.052Z</time></trkpt><trkpt lat="43.7166373" lon="10.3822982"><ele>3.5</ele><time>2026-05-01T08:15:02.046Z</time></trkpt><trkpt lat="43.716561" lon="10.3823258"><ele>3.0</ele><time>2026-05-01T08:15:03.038Z</time></trkpt><trkpt lat="43.7164701" lon="10.3823595"><ele>2.5</ele><time>2026-05-01T08:15:04.05Z</time></trkpt><trkpt lat="43.7163726" lon="10.3824009"><ele>2.0</ele><time>2026-05-01T08:15:05.055Z</time></trkpt><trkpt lat="43.7162718" lon="10.3824478"><ele>2.0</ele><time>2026-05-01T08:15:06.037Z</time></trkpt><trkpt lat="43.7161621" lon="10.3824915"><ele>2.0</ele><time>2026-05-01T08:15:07.043Z</time></trkpt><trkpt lat="43.7160461" lon="10.3825395"><ele>2.0</ele><time>2026-05-01T08:15:08.04Z</time></trkpt><trkpt lat="43.7159164" lon="10.3825915"><ele>2.0</ele><time>2026-05-01T08:15:09.042Z</time></trkpt><trkpt lat="43.715778" lon="10.3826518"><ele>2.0</ele><time>2026-05-01T08:15:10.041Z</time></trkpt><trkpt lat="43.7156355" lon="10.3827109"><ele>2.0</ele><time>2026-05-01T08:15:11.051Z</time></trkpt><trkpt lat="43.7154997" lon="10.3827656"><ele>2.0</ele><time>2026-05-01T08:15:12.055Z</time></trkpt><trkpt lat="43.7153641" lon="10.382821"><ele>2.0</ele><time>2026-05-01T08:15:13.05Z</time></trkpt><trkpt lat="43.7152254" lon="10.3828855"><ele>2.25</ele><time>2026-05-01T08:15:14.048Z</time></trkpt><trkpt lat="43.7150823" lon="10.3829463"><ele>2.5</ele><time>2026-05-01T08:15:15.046Z</time></trkpt><trkpt lat="43.7149453" lon="10.3830108"><ele>2.75</ele><time>2026-05-01T08:15:16.048Z</time></trkpt><trkpt lat="43.7148082" lon="10.3830702"><ele>3.0</ele><time>2026-05-01T08:15:17.041Z</time></trkpt><trkpt lat="43.714662" lon="10.3831338"><ele>3.0</ele><time>2026-05-01T08:15:18.05Z</time></trkpt><trkpt lat="43.714513" lon="10.3831964"><ele>3.0</ele><time>2026-05-01T08:15:19.045Z</time></trkpt><trkpt lat="43.714363" lon="10.3832514"><ele>3.0</ele><time>2026-05-01T08:15:20.05Z</time></trkpt><trkpt lat="43.7142222" lon="10.3833006"><ele>2.75</ele><time>2026-05-01T08:15:21.051Z</time></trkpt><trkpt lat="43.7140943" lon="10.3833431"><ele>2.5</ele><time>2026-05-01T08:15:22.046Z</time></trkpt><trkpt lat="43.7139744" lon="10.3833902"><ele>2.25</ele><time>2026-05-01T08:15:23.038Z</time></trkpt><trkpt lat="43.7138552" lon="10.3834442"><ele>2.0</ele><time>2026-05-01T08:15:24.049Z</time></trkpt><trkpt lat="43.7137313" lon="10.383494"><ele>2.0</ele><time>2026-05-01T08:15:25.047Z</time></trkpt><trkpt lat="43.7136162" lon="10.3835384"><ele>2.0</ele><time>2026-05-01T08:15:26.049Z</time></trkpt><trkpt lat="43.713516" lon="10.3835675"><ele>2.0</ele><time>2026-05-01T08:15:27.05Z</time></trkpt><trkpt lat="43.7134195" lon="10.3835902"><ele>2.0</ele><time>2026-05-01T08:15:28.041Z</time></trkpt><trkpt lat="43.7133202" lon="10.3836073"><ele>2.0</ele><time>2026-05-01T08:15:29.056Z</time></trkpt><trkpt lat="43.7132222" lon="10.3836128"><ele>1.8333333333333333</ele><time>2026-05-01T08:15:30.045Z</time></trkpt><trkpt lat="43.7131337" lon="10.383601"><ele>1.6666666666666665</ele><time>2026-05-01T08:15:31.034Z</time></trkpt><trkpt lat="43.7130472" lon="10.3835868"><ele>1.5</ele><time>2026-05-01T08:15:32.049Z</time></trkpt><trkpt lat="43.7129679" lon="10.3835607"><ele>1.3333333333333333</ele><time>2026-05-01T08:15:33.039Z</time></trkpt><trkpt lat="43.7128852" lon="10.3835118"><ele>1.1666666666666665</ele><time>2026-05-01T08:15:34.041Z</time></trkpt><trkpt lat="43.7128067" lon="10.3834654"><ele>1.0</ele><time>2026-05-01T08:15:35.051Z</time></trkpt><trkpt lat="43.712736" lon="10.3834607"><ele>0.9999999999999999</ele><time>2026-05-01T08:15:36.049Z</time></trkpt><trkpt lat="43.7126742" lon="10.3835011"><ele>1.0</ele><time>2026-05-01T08:15:37.043Z</time></trkpt><trkpt lat="43.712621" lon="10.383576"><ele>1.0</ele><time>2026-05-01T08:15:38.04Z</time></trkpt><trkpt lat="43.7125853" lon="10.3836772"><ele>1.0</ele><time>2026-05-01T08:15:39.057Z</time></trkpt><trkpt lat="43.7125298" lon="10.383789"><ele>0.9999999999999999</ele><time>2026-05-01T08:15:40.047Z</time></trkpt><trkpt lat="43.7124384" lon="10.3838938"><ele>1.0</ele><time>2026-05-01T08:15:41.037Z</time></trkpt><trkpt lat="43.7123112" lon="10.3839978"><ele>1.0</ele><time>2026-05-01T08:15:42.055Z</time></trkpt><trkpt lat="43.7121807" lon="10.3841023"><ele>1.0</ele><time>2026-05-01T08:15:43.043Z</time></trkpt><trkpt lat="43.7120514" lon="10.3841816"><ele>1.0</ele><time>2026-05-01T08:15:44.04Z</time></trkpt><trkpt lat="43.7119207" lon="10.3842387"><ele>1.0</ele><time>2026-05-01T08:15:45.051Z</time></trkpt><trkpt lat="43.7117876" lon="10.3842961"><ele>1.75</ele><time>2026-05-01T08:15:46.045Z</time></trkpt><trkpt lat="43.7116591" lon="10.3843553"><ele>2.5</ele><time>2026-05-01T08:15:47.039Z</time></trkpt><trkpt lat="43.7115321" lon="10.3844085"><ele>3.25</ele><time>2026-05-01T08:15:48.035Z</time></trkpt><trkpt lat="43.7114041" lon="10.3844563"><ele>4.0</ele><time>2026-05-01T08:15:49.044Z</time></trkpt><trkpt lat="43.7112859" lon="10.3845052"><ele>4.0</ele><time>2026-05-01T08:15:50.04Z</time></trkpt><trkpt lat="43.7111686" lon="10.3845625"><ele>4.0</ele><time>2026-05-01T08:15:51.029Z</time></trkpt><trkpt lat="43.7110421" lon="10.3846188"><ele>4.0</ele><time>2026-05-01T08:15:52.049Z</time></trkpt><trkpt lat="43.7109106" lon="10.3846683"><ele>4.0</ele><time>2026-05-01T08:15:53.041Z</time></trkpt><trkpt lat="43.7107965" lon="10.3847199"><ele>3.75</ele><time>2026-05-01T08:15:54.054Z</time></trkpt><trkpt lat="43.7106858" lon="10.3847696"><ele>3.5</ele><time>2026-05-01T08:15:55.037Z</time></trkpt><trkpt lat="43.7105848" lon="10.3848092"><ele>3.25</ele><time>2026-05-01T08:15:56.04Z</time></trkpt><trkpt lat="43.7104762" lon="10.3848495"><ele>3.0</ele><time>2026-05-01T08:15:57.041Z</time></trkpt><trkpt lat="43.7103587" lon="10.3848912"><ele>3.25</ele><time>2026-05-01T08:15:58.044Z</time></trkpt><trkpt lat="43.710237" lon="10.3849303"><ele>3.5</ele><time>2026-05-01T08:15:59.032Z</time></trkpt><trkpt lat="43.71012" lon="10.3849672"><ele>3.75</ele><time>2026-05-01T08:16:00.035Z</time></trkpt><trkpt lat="43.7099985" lon="10.3850023"><ele>4.0</ele><time>2026-05-01T08:16:01.049Z</time></trkpt><trkpt lat="43.7098728" lon="10.3850453"><ele>4.0</ele><time>2026-05-01T08:16:02.067Z</time></trkpt><trkpt lat="43.7097514" lon="10.38508"><ele>4.0</ele><time>2026-05-01T08:16:03.045Z</time></trkpt><trkpt lat="43.7096401" lon="10.3851121"><ele>4.0</ele><time>2026-05-01T08:16:04.042Z</time></trkpt><trkpt lat="43.7095383" lon="10.3851416"><ele>4.0</ele><time>2026-05-01T08:16:05.042Z</time></trkpt><trkpt lat="43.7094411" lon="10.3851716"><ele>4.0</ele><time>2026-05-01T08:16:06.045Z</time></trkpt><trkpt lat="43.7093497" lon="10.3851961"><ele>3.9999999999999996</ele><time>2026-05-01T08:16:07.045Z</time></trkpt><trkpt lat="43.7092655" lon="10.3852248"><ele>4.0</ele><time>2026-05-01T08:16:08.042Z</time></trkpt><trkpt lat="43.7091888" lon="10.3852459"><ele>4.0</ele><time>2026-05-01T08:16:09.045Z</time></trkpt><trkpt lat="43.7091152" lon="10.3852608"><ele>4.0</ele><time>2026-05-01T08:16:10.042Z</time></trkpt><trkpt lat="43.7090424" lon="10.3852655"><ele>3.9999999999999996</ele><time>2026-05-01T08:16:11.041Z</time></trkpt><trkpt lat="43.7089256" lon="10.3852298"><ele>4.0</ele><time>2026-05-01T08:16:13.045Z</time></trkpt><trkpt lat="43.7088025" lon="10.3851743"><ele>4.0</ele><time>2026-05-01T08:16:15.042Z</time></trkpt><trkpt lat="43.7086804" lon="10.3851826"><ele>4.0</ele><time>2026-05-01T08:16:17.037Z</time></trkpt><trkpt lat="43.7086095" lon="10.3853004"><ele>4.0</ele><time>2026-05-01T08:16:19.041Z</time></trkpt><trkpt lat="43.7086694" lon="10.38544"><ele>4.0</ele><time>2026-05-01T08:16:21.05Z</time></trkpt><trkpt lat="43.7087242" lon="10.3854892"><ele>4.0</ele><time>2026-05-01T08:16:22.05Z</time></trkpt><trkpt lat="43.7088517" lon="10.3854817"><ele>3.9999999999999996</ele><time>2026-05-01T08:16:24.041Z</time></trkpt><trkpt lat="43.7089649" lon="10.385402"><ele>4.0</ele><time>2026-05-01T08:16:26.061Z</time></trkpt><trkpt lat="43.7090377" lon="10.3853688"><ele>4.0</ele><time>2026-05-01T08:16:28.056Z</time></trkpt><trkpt lat="43.7091024" lon="10.385366"><ele>4.0</ele><time>2026-05-01T08:16:31.043Z</time></trkpt><trkpt lat="43.7091783" lon="10.3853846"><ele>3.9999999999999996</ele><time>2026-05-01T08:18:49.049Z</time></trkpt><trkpt lat="43.7092592" lon="10.3853525"><ele>4.0</ele><time>2026-05-01T08:18:53.042Z</time></trkpt><trkpt lat="43.7093279" lon="10.3853433"><ele>3.9999999999999996</ele><time>2026-05-01T08:18:55.061Z</time></trkpt><trkpt lat="43.7094493" lon="10.3853329"><ele>4.0</ele><time>2026-05-01T08:18:57.037Z</time></trkpt><trkpt lat="43.709523" lon="10.3853249"><ele>4.0</ele><time>2026-05-01T08:18:58.053Z</time></trkpt><trkpt lat="43.7095918" lon="10.3853454"><ele>4.0</ele><time>2026-05-01T08:18:59.039Z</time></trkpt><trkpt lat="43.7096563" lon="10.3853917"><ele>3.9999999999999996</ele><time>2026-05-01T08:19:00.046Z</time></trkpt><trkpt lat="43.7097067" lon="10.3854502"><ele>4.0</ele><time>2026-05-01T08:19:01.032Z</time></trkpt><trkpt lat="43.709757" lon="10.3855545"><ele>4.2</ele><time>2026-05-01T08:19:03.045Z</time></trkpt><trkpt lat="43.7097915" lon="10.3856656"><ele>4.4</ele><time>2026-05-01T08:19:05.029Z</time></trkpt><trkpt lat="43.7098318" lon="10.3857547"><ele>4.6</ele><time>2026-05-01T08:19:07.036Z</time></trkpt><trkpt lat="43.7098743" lon="10.3858932"><ele>4.8</ele><time>2026-05-01T08:19:09.039Z</time></trkpt><trkpt lat="43.709928" lon="10.3860416"><ele>5.0</ele><time>2026-05-01T08:19:11.043Z</time></trkpt><trkpt lat="43.7099768" lon="10.3862036"><ele>5.0</ele><time>2026-05-01T08:19:13.037Z</time></trkpt><trkpt lat="43.7100014" lon="10.3863017"><ele>5.0</ele><time>2026-05-01T08:19:14.041Z</time></trkpt><trkpt lat="43.710029" lon="10.3864009"><ele>5.0</ele><time>2026-05-01T08:19:15.041Z</time></trkpt><trkpt lat="43.7100582" lon="10.3865082"><ele>5.0</ele><time>2026-05-01T08:19:16.039Z</time></trkpt><trkpt lat="43.7100918" lon="10.3866303"><ele>5.0</ele><time>2026-05-01T08:19:17.045Z</time></trkpt><trkpt lat="43.7101354" lon="10.3867528"><ele>5.0</ele><time>2026-05-01T08:19:18.039Z</time></trkpt><trkpt lat="43.7101829" lon="10.3868871"><ele>4.8</ele><time>2026-05-01T08:19:19.042Z</time></trkpt><trkpt lat="43.7102317" lon="10.3870202"><ele>4.6</ele><time>2026-05-01T08:19:20.039Z</time></trkpt><trkpt lat="43.7102788" lon="10.3871526"><ele>4.4</ele><time>2026-05-01T08:19:21.039Z</time></trkpt><trkpt lat="43.7103135" lon="10.387278"><ele>4.2</ele><time>2026-05-01T08:19:22.049Z</time></trkpt><trkpt lat="43.7103465" lon="10.3873809"><ele>4.0</ele><time>2026-05-01T08:19:23.042Z</time></trkpt><trkpt lat="43.710373" lon="10.3874811"><ele>3.8000000000000003</ele><time>2026-05-01T08:19:25.048Z</time></trkpt><trkpt lat="43.7104089" lon="10.3876162"><ele>3.6000000000000005</ele><time>2026-05-01T08:19:49.04Z</time></trkpt><trkpt lat="43.7104626" lon="10.3877892"><ele>3.4</ele><time>2026-05-01T08:19:51.046Z</time></trkpt><trkpt lat="43.7104982" lon="10.3878696"><ele>3.2</ele><time>2026-05-01T08:19:52.05Z</time></trkpt><trkpt lat="43.7105307" lon="10.3879519"><ele>3.0</ele><time>2026-05-01T08:19:53.045Z</time></trkpt><trkpt lat="43.7105695" lon="10.3880429"><ele>3.0</ele><time>2026-05-01T08:19:54.055Z</time></trkpt><trkpt lat="43.7106048" lon="10.3881508"><ele>3.0</ele><time>2026-05-01T08:19:55.042Z</time></trkpt><trkpt lat="43.7106457" lon="10.3882677"><ele>3.0</ele><time>2026-05-01T08:19:56.038Z</time></trkpt><trkpt lat="43.7106892" lon="10.3884086"><ele>3.0</ele><time>2026-05-01T08:19:57.042Z</time></trkpt><trkpt lat="43.7107384" lon="10.3885798"><ele>3.0</ele><time>2026-05-01T08:19:58.025Z</time></trkpt><trkpt lat="43.7108036" lon="10.388772"><ele>3.0</ele><time>2026-05-01T08:19:59.04Z</time></trkpt><trkpt lat="43.7108681" lon="10.3889789"><ele>3.0</ele><time>2026-05-01T08:20:00.034Z</time></trkpt><trkpt lat="43.7109305" lon="10.3891648"><ele>3.0</ele><time>2026-05-01T08:20:01.037Z</time></trkpt><trkpt lat="43.7109788" lon="10.3893324"><ele>3.0</ele><time>2026-05-01T08:20:02.055Z</time></trkpt><trkpt lat="43.7110237" lon="10.3894777"><ele>3.0</ele><time>2026-05-01T08:20:03.045Z</time></trkpt><trkpt lat="43.7110581" lon="10.3896115"><ele>3.0</ele><time>2026-05-01T08:20:04.034Z</time></trkpt><trkpt lat="43.7110981" lon="10.3897335"><ele>3.0</ele><time>2026-05-01T08:20:05.037Z</time></trkpt><trkpt lat="43.7111301" lon="10.3898508"><ele>3.0</ele><time>2026-05-01T08:20:06.048Z</time></trkpt><trkpt lat="43.7111656" lon="10.3899517"><ele>3.0</ele><time>2026-05-01T08:20:07.046Z</time></trkpt><trkpt lat="43.7112028" lon="10.3900902"><ele>3.0</ele><time>2026-05-01T08:20:09.054Z</time></trkpt><trkpt lat="43.7112484" lon="10.3901926"><ele>3.0</ele><time>2026-05-01T08:20:16.031Z</time></trkpt><trkpt lat="43.7113355" lon="10.3903067"><ele>3.0</ele><time>2026-05-01T08:20:18.042Z</time></trkpt><trkpt lat="43.7113743" lon="10.3903989"><ele>3.0</ele><time>2026-05-01T08:20:19.047Z</time></trkpt><trkpt lat="43.7114129" lon="10.3904998"><ele>3.0</ele><time>2026-05-01T08:20:20.047Z</time></trkpt><trkpt lat="43.7114622" lon="10.3906124"><ele>4.0</ele><time>2026-05-01T08:20:21.043Z</time></trkpt><trkpt lat="43.711503" lon="10.3907428"><ele>5.0</ele><time>2026-05-01T08:20:22.054Z</time></trkpt><trkpt lat="43.7115437" lon="10.390864"><ele>6.0</ele><time>2026-05-01T08:20:23.034Z</time></trkpt><trkpt lat="43.7115788" lon="10.3909765"><ele>7.0</ele><time>2026-05-01T08:20:24.051Z</time></trkpt><trkpt lat="43.7116085" lon="10.3910866"><ele>8.0</ele><time>2026-05-01T08:20:25.045Z</time></trkpt><trkpt lat="43.7116262" lon="10.3911803"><ele>9.0</ele><time>2026-05-01T08:20:26.047Z</time></trkpt><trkpt lat="43.7116363" lon="10.3913144"><ele>9.0</ele><time>2026-05-01T08:20:28.046Z</time></trkpt><trkpt lat="43.7115603" lon="10.391445"><ele>9.0</ele><time>2026-05-01T08:20:30.032Z</time></trkpt><trkpt lat="43.7114938" lon="10.3914945"><ele>9.0</ele><time>2026-05-01T08:20:31.034Z</time></trkpt><trkpt lat="43.7114285" lon="10.3915234"><ele>9.0</ele><time>2026-05-01T08:20:32.042Z</time></trkpt><trkpt lat="43.7113382" lon="10.3915565"><ele>9.0</ele><time>2026-05-01T08:20:34.051Z</time></trkpt><trkpt lat="43.711265" lon="10.3915733"><ele>9.0</ele><time>2026-05-01T08:20:47.04Z</time></trkpt><trkpt lat="43.7111715" lon="10.3916054"><ele>9.0</ele><time>2026-05-01T08:20:49.041Z</time></trkpt><trkpt lat="43.7111042" lon="10.3916187"><ele>9.0</ele><time>2026-05-01T08:20:50.04Z</time></trkpt><trkpt lat="43.7110321" lon="10.3916309"><ele>9.0</ele><time>2026-05-01T08:20:51.039Z</time></trkpt><trkpt lat="43.7109566" lon="10.3916461"><ele>9.0</ele><time>2026-05-01T08:20:52.035Z</time></trkpt><trkpt lat="43.7108762" lon="10.391666"><ele>9.0</ele><time>2026-05-01T08:20:53.045Z</time></trkpt><trkpt lat="43.7107968" lon="10.3916966"><ele>9.0</ele><time>2026-05-01T08:20:54.037Z</time></trkpt><trkpt lat="43.7107237" lon="10.3917498"><ele>8.833333333333334</ele><time>2026-05-01T08:20:55.041Z</time></trkpt><trkpt lat="43.7106664" lon="10.3918263"><ele>8.666666666666666</ele><time>2026-05-01T08:20:56.04Z</time></trkpt><trkpt lat="43.7106276" lon="10.3919318"><ele>8.5</ele><time>2026-05-01T08:20:57.032Z</time></trkpt><trkpt lat="43.7106037" lon="10.3920421"><ele>8.333333333333332</ele><time>2026-05-01T08:20:58.033Z</time></trkpt><trkpt lat="43.7106055" lon="10.3921648"><ele>8.166666666666666</ele><time>2026-05-01T08:20:59.044Z</time></trkpt><trkpt lat="43.7106005" lon="10.3923109"><ele>8.0</ele><time>2026-05-01T08:21:00.046Z</time></trkpt><trkpt lat="43.7105938" lon="10.3924668"><ele>7.75</ele><time>2026-05-01T08:21:01.04Z</time></trkpt><trkpt lat="43.7105877" lon="10.3926353"><ele>7.5</ele><time>2026-05-01T08:21:02.045Z</time></trkpt><trkpt lat="43.7105812" lon="10.3928128"><ele>7.25</ele><time>2026-05-01T08:21:03.044Z</time></trkpt><trkpt lat="43.7105767" lon="10.3929936"><ele>7.0</ele><time>2026-05-01T08:21:04.041Z</time></trkpt><trkpt lat="43.7105783" lon="10.3931716"><ele>7.0</ele><time>2026-05-01T08:21:05.045Z</time></trkpt><trkpt lat="43.7105742" lon="10.3933563"><ele>7.0</ele><time>2026-05-01T08:21:06.047Z</time></trkpt><trkpt lat="43.7105713" lon="10.3935312"><ele>7.0</ele><time>2026-05-01T08:21:07.047Z</time></trkpt><trkpt lat="43.7105739" lon="10.3936946"><ele>7.0</ele><time>2026-05-01T08:21:08.035Z</time></trkpt><trkpt lat="43.7105708" lon="10.3938598"><ele>6.75</ele><time>2026-05-01T08:21:09.05Z</time></trkpt><trkpt lat="43.7105643" lon="10.3940289"><ele>6.5</ele><time>2026-05-01T08:21:10.039Z</time></trkpt><trkpt lat="43.7105602" lon="10.3941946"><ele>6.25</ele><time>2026-05-01T08:21:11.034Z</time></trkpt><trkpt lat="43.7105539" lon="10.3943521"><ele>6.0</ele><time>2026-05-01T08:21:12.054Z</time></trkpt><trkpt lat="43.7105422" lon="10.3945065"><ele>6.0</ele><time>2026-05-01T08:21:13.041Z</time></trkpt><trkpt lat="43.7105325" lon="10.3946607"><ele>6.0</ele><time>2026-05-01T08:21:14.037Z</time></trkpt><trkpt lat="43.7105154" lon="10.3948133"><ele>6.0</ele><time>2026-05-01T08:21:15.055Z</time></trkpt><trkpt lat="43.7105008" lon="10.3949567"><ele>6.0</ele><time>2026-05-01T08:21:16.035Z</time></trkpt><trkpt lat="43.7104836" lon="10.3951011"><ele>6.0</ele><time>2026-05-01T08:21:17.053Z</time></trkpt><trkpt lat="43.7104669" lon="10.3952447"><ele>5.6</ele><time>2026-05-01T08:21:18.039Z</time></trkpt><trkpt lat="43.7104566" lon="10.3953874"><ele>5.199999999999999</ele><time>2026-05-01T08:21:19.039Z</time></trkpt><trkpt lat="43.7104352" lon="10.3955227"><ele>4.800000000000001</ele><time>2026-05-01T08:21:20.045Z</time></trkpt><trkpt lat="43.7104031" lon="10.3956638"><ele>4.4</ele><time>2026-05-01T08:21:21.039Z</time></trkpt><trkpt lat="43.7103784" lon="10.3958059"><ele>4.0</ele><time>2026-05-01T08:21:22.051Z</time></trkpt><trkpt lat="43.710361" lon="10.3959456"><ele>4.0</ele><time>2026-05-01T08:21:23.043Z</time></trkpt><trkpt lat="43.710338" lon="10.3960964"><ele>4.0</ele><time>2026-05-01T08:21:24.041Z</time></trkpt><trkpt lat="43.7103211" lon="10.3962558"><ele>4.0</ele><time>2026-05-01T08:21:25.041Z</time></trkpt><trkpt lat="43.7103064" lon="10.3964191"><ele>4.0</ele><time>2026-05-01T08:21:26.041Z</time></trkpt><trkpt lat="43.7102856" lon="10.3965715"><ele>4.0</ele><time>2026-05-01T08:21:27.045Z</time></trkpt><trkpt lat="43.71026" lon="10.3967295"><ele>4.0</ele><time>2026-05-01T08:21:28.032Z</time></trkpt><trkpt lat="43.710232" lon="10.3968951"><ele>4.0</ele><time>2026-05-01T08:21:29.044Z</time></trkpt><trkpt lat="43.7102082" lon="10.3970604"><ele>4.0</ele><time>2026-05-01T08:21:30.048Z</time></trkpt><trkpt lat="43.7101832" lon="10.3972232"><ele>4.800000000000001</ele><time>2026-05-01T08:21:31.049Z</time></trkpt><trkpt lat="43.7101639" lon="10.3973715"><ele>5.6000000000000005</ele><time>2026-05-01T08:21:32.049Z</time></trkpt><trkpt lat="43.7101468" lon="10.3974961"><ele>6.4</ele><time>2026-05-01T08:21:33.045Z</time></trkpt><trkpt lat="43.7101263" lon="10.3976173"><ele>7.2</ele><time>2026-05-01T08:21:34.041Z</time></trkpt><trkpt lat="43.710102" lon="10.397739"><ele>8.0</ele><time>2026-05-01T08:21:35.05Z</time></trkpt><trkpt lat="43.7100845" lon="10.3978544"><ele>7.999999999999999</ele><time>2026-05-01T08:21:36.057Z</time></trkpt><trkpt lat="43.710068" lon="10.3979556"><ele>8.0</ele><time>2026-05-01T08:21:37.043Z</time></trkpt><trkpt lat="43.7100506" lon="10.3980435"><ele>8.0</ele><time>2026-05-01T08:21:38.034Z</time></trkpt><trkpt lat="43.7100304" lon="10.3982056"><ele>8.0</ele><time>2026-05-01T08:21:40.042Z</time></trkpt><trkpt lat="43.7100308" lon="10.3983229"><ele>7.999999999999999</ele><time>2026-05-01T08:21:42.049Z</time></trkpt><trkpt lat="43.7100682" lon="10.3984137"><ele>8.0</ele><time>2026-05-01T08:21:47.033Z</time></trkpt><trkpt lat="43.7100748" lon="10.3985074"><ele>8.166666666666666</ele><time>2026-05-01T08:21:50.044Z</time></trkpt><trkpt lat="43.7100704" lon="10.3986106"><ele>8.333333333333332</ele><time>2026-05-01T08:21:53.041Z</time></trkpt><trkpt lat="43.7100541" lon="10.3986973"><ele>8.5</ele><time>2026-05-01T08:21:56.045Z</time></trkpt><trkpt lat="43.7100099" lon="10.3987644"><ele>8.666666666666666</ele><time>2026-05-01T08:21:58.032Z</time></trkpt><trkpt lat="43.7099459" lon="10.3988151"><ele>8.833333333333334</ele><time>2026-05-01T08:22:00.042Z</time></trkpt><trkpt lat="43.7098423" lon="10.3988741"><ele>9.0</ele><time>2026-05-01T08:22:02.051Z</time></trkpt><trkpt lat="43.709777" lon="10.3988865"><ele>9.0</ele><time>2026-05-01T08:22:03.041Z</time></trkpt><trkpt lat="43.7097055" lon="10.3988953"><ele>9.0</ele><time>2026-05-01T08:22:04.05Z</time></trkpt><trkpt lat="43.709641" lon="10.3988943"><ele>9.0</ele><time>2026-05-01T08:22:05.04Z</time></trkpt><trkpt lat="43.7095162" lon="10.3988646"><ele>9.0</ele><time>2026-05-01T08:22:07.038Z</time></trkpt><trkpt lat="43.7094472" lon="10.398841"><ele>9.0</ele><time>2026-05-01T08:22:08.035Z</time></trkpt><trkpt lat="43.7093737" lon="10.3988292"><ele>9.0</ele><time>2026-05-01T08:22:09.047Z</time></trkpt><trkpt lat="43.7093063" lon="10.3988167"><ele>9.0</ele><time>2026-05-01T08:22:10.044Z</time></trkpt><trkpt lat="43.7092438" lon="10.3987984"><ele>9.0</ele><time>2026-05-01T08:22:11.042Z</time></trkpt><trkpt lat="43.709173" lon="10.3987871"><ele>9.0</ele><time>2026-05-01T08:22:12.041Z</time></trkpt><trkpt lat="43.7091032" lon="10.398792"><ele>9.0</ele><time>2026-05-01T08:22:13.035Z</time></trkpt><trkpt lat="43.7090382" lon="10.3988301"><ele>9.0</ele><time>2026-05-01T08:22:14.037Z</time></trkpt><trkpt lat="43.708976" lon="10.3989734"><ele>9.0</ele><time>2026-05-01T08:22:16.049Z</time></trkpt><trkpt lat="43.7089532" lon="10.3990735"><ele>9.0</ele><time>2026-05-01T08:22:17.042Z</time></trkpt><trkpt lat="43.7089246" lon="10.3991808"><ele>9.0</ele><time>2026-05-01T08:22:18.034Z</time></trkpt><trkpt lat="43.7088999" lon="10.3992824"><ele>9.0</ele><time>2026-05-01T08:22:19.035Z</time></trkpt><trkpt lat="43.7088682" lon="10.3993794"><ele>9.0</ele><time>2026-05-01T08:22:20.037Z</time></trkpt><trkpt lat="43.7088379" lon="10.3994798"><ele>9.0</ele><time>2026-05-01T08:22:21.048Z</time></trkpt><trkpt lat="43.708805" lon="10.3995837"><ele>9.0</ele><time>2026-05-01T08:22:22.05Z</time></trkpt><trkpt lat="43.7087694" lon="10.399691"><ele>9.0</ele><time>2026-05-01T08:22:23.042Z</time></trkpt><trkpt lat="43.7087343" lon="10.399799"><ele>9.0</ele><time>2026-05-01T08:22:24.045Z</time></trkpt><trkpt lat="43.7086987" lon="10.3999106"><ele>9.0</ele><time>2026-05-01T08:22:25.042Z</time></trkpt><trkpt lat="43.7086597" lon="10.4000243"><ele>9.0</ele><time>2026-05-01T08:22:26.044Z</time></trkpt><trkpt lat="43.7086114" lon="10.4001532"><ele>9.0</ele><time>2026-05-01T08:22:27.043Z</time></trkpt><trkpt lat="43.7085626" lon="10.4002872"><ele>8.25</ele><time>2026-05-01T08:22:28.026Z</time></trkpt><trkpt lat="43.7085128" lon="10.4004387"><ele>7.5</ele><time>2026-05-01T08:22:29.033Z</time></trkpt><trkpt lat="43.7084552" lon="10.4006018"><ele>6.75</ele><time>2026-05-01T08:22:30.043Z</time></trkpt><trkpt lat="43.7084047" lon="10.4007674"><ele>6.0</ele><time>2026-05-01T08:22:31.048Z</time></trkpt><trkpt lat="43.708357" lon="10.4009225"><ele>5.8</ele><time>2026-05-01T08:22:32.06Z</time></trkpt><trkpt lat="43.7083183" lon="10.4010621"><ele>5.6</ele><time>2026-05-01T08:22:33.031Z</time></trkpt><trkpt lat="43.7082768" lon="10.4011911"><ele>5.4</ele><time>2026-05-01T08:22:34.047Z</time></trkpt><trkpt lat="43.7082358" lon="10.4013064"><ele>5.2</ele><time>2026-05-01T08:22:35.046Z</time></trkpt><trkpt lat="43.7082014" lon="10.4014051"><ele>5.0</ele><time>2026-05-01T08:22:36.045Z</time></trkpt><trkpt lat="43.7081598" lon="10.401491"><ele>5.0</ele><time>2026-05-01T08:22:37.045Z</time></trkpt><trkpt lat="43.7081007" lon="10.4015457"><ele>5.0</ele><time>2026-05-01T08:22:38.041Z</time></trkpt><trkpt lat="43.7080284" lon="10.4015667"><ele>5.0</ele><time>2026-05-01T08:22:39.035Z</time></trkpt><trkpt lat="43.7079359" lon="10.4015327"><ele>5.0</ele><time>2026-05-01T08:22:40.041Z</time></trkpt><trkpt lat="43.7078449" lon="10.401516"><ele>5.0</ele><time>2026-05-01T08:22:41.044Z</time></trkpt><trkpt lat="43.7077668" lon="10.4015393"><ele>5.0</ele><time>2026-05-01T08:22:42.048Z</time></trkpt><trkpt lat="43.7077155" lon="10.4015926"><ele>5.0</ele><time>2026-05-01T08:22:43.043Z</time></trkpt><trkpt lat="43.707668" lon="10.401675"><ele>5.0</ele><time>2026-05-01T08:22:44.044Z</time></trkpt><trkpt lat="43.7076352" lon="10.4017802"><ele>5.0</ele><time>2026-05-01T08:22:45.038Z</time></trkpt><trkpt lat="43.7075943" lon="10.4019077"><ele>5.0</ele><time>2026-05-01T08:22:46.027Z</time></trkpt><trkpt lat="43.7075425" lon="10.4020542"><ele>5.0</ele><time>2026-05-01T08:22:47.035Z</time></trkpt><trkpt lat="43.7074876" lon="10.402214"><ele>5.0</ele><time>2026-05-01T08:22:48.042Z</time></trkpt><trkpt lat="43.7074304" lon="10.4023924"><ele>5.0</ele><time>2026-05-01T08:22:49.048Z</time></trkpt><trkpt lat="43.7073728" lon="10.4025717"><ele>5.0</ele><time>2026-05-01T08:22:50.035Z</time></trkpt><trkpt lat="43.7073159" lon="10.4027316"><ele>5.0</ele><time>2026-05-01T08:22:51.046Z</time></trkpt><trkpt lat="43.7072752" lon="10.4028572"><ele>5.0</ele><time>2026-05-01T08:22:52.041Z</time></trkpt><trkpt lat="43.7072441" lon="10.4029501"><ele>5.0</ele><time>2026-05-01T08:22:53.048Z</time></trkpt><trkpt lat="43.707218" lon="10.403037"><ele>5.0</ele><time>2026-05-01T08:22:54.045Z</time></trkpt><trkpt lat="43.707166" lon="10.4031367"><ele>5.0</ele><time>2026-05-01T08:22:56.049Z</time></trkpt><trkpt lat="43.7071162" lon="10.4032319"><ele>5.0</ele><time>2026-05-01T08:22:59.039Z</time></trkpt><trkpt lat="43.7070501" lon="10.4034032"><ele>5.0</ele><time>2026-05-01T08:23:01.04Z</time></trkpt><trkpt lat="43.7070049" lon="10.4035215"><ele>5.0</ele><time>2026-05-01T08:23:02.041Z</time></trkpt><trkpt lat="43.706961" lon="10.4036456"><ele>5.0</ele><time>2026-05-01T08:23:03.049Z</time></trkpt><trkpt lat="43.7069184" lon="10.4037766"><ele>5.0</ele><time>2026-05-01T08:23:04.054Z</time></trkpt><trkpt lat="43.7068751" lon="10.4039021"><ele>5.0</ele><time>2026-05-01T08:23:05.041Z</time></trkpt><trkpt lat="43.7068328" lon="10.404035"><ele>5.0</ele><time>2026-05-01T08:23:06.04Z</time></trkpt><trkpt lat="43.7067961" lon="10.4041699"><ele>5.0</ele><time>2026-05-01T08:23:07.053Z</time></trkpt><trkpt lat="43.7067733" lon="10.4043064"><ele>5.0</ele><time>2026-05-01T08:23:08.037Z</time></trkpt><trkpt lat="43.7067566" lon="10.4044463"><ele>5.0</ele><time>2026-05-01T08:23:09.034Z</time></trkpt><trkpt lat="43.7067599" lon="10.4045903"><ele>5.0</ele><time>2026-05-01T08:23:10.049Z</time></trkpt><trkpt lat="43.7067688" lon="10.4047312"><ele>5.2</ele><time>2026-05-01T08:23:11.036Z</time></trkpt><trkpt lat="43.7067809" lon="10.4048708"><ele>5.4</ele><time>2026-05-01T08:23:12.052Z</time></trkpt><trkpt lat="43.7067879" lon="10.4050049"><ele>5.6</ele><time>2026-05-01T08:23:13.05Z</time></trkpt><trkpt lat="43.7067781" lon="10.4051374"><ele>5.8</ele><time>2026-05-01T08:23:14.045Z</time></trkpt><trkpt lat="43.7067472" lon="10.405267"><ele>6.0</ele><time>2026-05-01T08:23:15.045Z</time></trkpt><trkpt lat="43.7067109" lon="10.4053864"><ele>5.833333333333333</ele><time>2026-05-01T08:23:16.059Z</time></trkpt><trkpt lat="43.7066817" lon="10.4055131"><ele>5.666666666666667</ele><time>2026-05-01T08:23:17.033Z</time></trkpt><trkpt lat="43.7066529" lon="10.4056274"><ele>5.5</ele><time>2026-05-01T08:23:18.045Z</time></trkpt><trkpt lat="43.7066187" lon="10.4057291"><ele>5.333333333333334</ele><time>2026-05-01T08:23:19.041Z</time></trkpt><trkpt lat="43.7065904" lon="10.4058128"><ele>5.166666666666667</ele><time>2026-05-01T08:23:20.051Z</time></trkpt><trkpt lat="43.7065581" lon="10.4058945"><ele>5.0</ele><time>2026-05-01T08:23:21.048Z</time></trkpt><trkpt lat="43.7065238" lon="10.405981"><ele>5.0</ele><time>2026-05-01T08:23:22.035Z</time></trkpt><trkpt lat="43.7064883" lon="10.4060719"><ele>5.0</ele><time>2026-05-01T08:23:23.046Z</time></trkpt><trkpt lat="43.7064502" lon="10.4061724"><ele>5.0</ele><time>2026-05-01T08:23:24.042Z</time></trkpt><trkpt lat="43.7064197" lon="10.4062827"><ele>5.0</ele><time>2026-05-01T08:23:25.046Z</time></trkpt><trkpt lat="43.7063812" lon="10.4063814"><ele>5.0</ele><time>2026-05-01T08:23:26.054Z</time></trkpt><trkpt lat="43.7063393" lon="10.4064863"><ele>5.0</ele><time>2026-05-01T08:23:27.045Z</time></trkpt><trkpt lat="43.7063005" lon="10.4065999"><ele>5.2</ele><time>2026-05-01T08:23:28.044Z</time></trkpt><trkpt lat="43.7062545" lon="10.4067145"><ele>5.4</ele><time>2026-05-01T08:23:29.047Z</time></trkpt><trkpt lat="43.7062115" lon="10.4068441"><ele>5.6</ele><time>2026-05-01T08:23:30.051Z</time></trkpt><trkpt lat="43.7061661" lon="10.4069722"><ele>5.8</ele><time>2026-05-01T08:23:31.038Z</time></trkpt><trkpt lat="43.7061333" lon="10.4071013"><ele>6.0</ele><time>2026-05-01T08:23:32.043Z</time></trkpt><trkpt lat="43.7061131" lon="10.4072455"><ele>6.0</ele><time>2026-05-01T08:23:33.049Z</time></trkpt><trkpt lat="43.7060963" lon="10.4073972"><ele>6.0</ele><time>2026-05-01T08:23:34.052Z</time></trkpt><trkpt lat="43.7060942" lon="10.4075481"><ele>6.0</ele><time>2026-05-01T08:23:35.045Z</time></trkpt><trkpt lat="43.7060981" lon="10.4076932"><ele>6.0</ele><time>2026-05-01T08:23:36.041Z</time></trkpt><trkpt lat="43.7061149" lon="10.4078322"><ele>6.0</ele><time>2026-05-01T08:23:37.043Z</time></trkpt><trkpt lat="43.7061582" lon="10.4079493"><ele>6.199999999999999</ele><time>2026-05-01T08:23:38.039Z</time></trkpt><trkpt lat="43.706207" lon="10.4080402"><ele>6.3999999999999995</ele><time>2026-05-01T08:23:39.034Z</time></trkpt><trkpt lat="43.7062724" lon="10.4081678"><ele>6.6</ele><time>2026-05-01T08:23:41.038Z</time></trkpt><trkpt lat="43.7063206" lon="10.4082641"><ele>6.8</ele><time>2026-05-01T08:23:44.04Z</time></trkpt><trkpt lat="43.7063311" lon="10.4083717"><ele>7.0</ele><time>2026-05-01T08:23:47.046Z</time></trkpt><trkpt lat="43.7062659" lon="10.4084621"><ele>7.000000000000001</ele><time>2026-05-01T08:23:49.04Z</time></trkpt><trkpt lat="43.7062067" lon="10.4085112"><ele>7.0</ele><time>2026-05-01T08:23:50.041Z</time></trkpt><trkpt lat="43.7061541" lon="10.4085599"><ele>7.0</ele><time>2026-05-01T08:23:51.034Z</time></trkpt><trkpt lat="43.7060911" lon="10.408621"><ele>7.0</ele><time>2026-05-01T08:23:52.051Z</time></trkpt><trkpt lat="43.7060154" lon="10.40869"><ele>7.000000000000001</ele><time>2026-05-01T08:23:53.035Z</time></trkpt><trkpt lat="43.7059294" lon="10.4087657"><ele>7.0</ele><time>2026-05-01T08:23:54.056Z</time></trkpt><trkpt lat="43.7058253" lon="10.4088328"><ele>7.0</ele><time>2026-05-01T08:23:55.04Z</time></trkpt><trkpt lat="43.7057313" lon="10.4089267"><ele>6.999999999999999</ele><time>2026-05-01T08:23:56.046Z</time></trkpt><trkpt lat="43.7056435" lon="10.4090173"><ele>6.999999999999999</ele><time>2026-05-01T08:23:57.046Z</time></trkpt><trkpt lat="43.7055654" lon="10.4091011"><ele>7.0</ele><time>2026-05-01T08:23:58.042Z</time></trkpt><trkpt lat="43.7054869" lon="10.4091736"><ele>7.0</ele><time>2026-05-01T08:23:59.047Z</time></trkpt><trkpt lat="43.7054125" lon="10.4092504"><ele>7.0</ele><time>2026-05-01T08:24:00.037Z</time></trkpt><trkpt lat="43.705328" lon="10.4093345"><ele>6.999999999999999</ele><time>2026-05-01T08:24:01.035Z</time></trkpt><trkpt lat="43.705233" lon="10.4094226"><ele>6.999999999999999</ele><time>2026-05-01T08:24:02.046Z</time></trkpt><trkpt lat="43.7051418" lon="10.4095078"><ele>7.0</ele><time>2026-05-01T08:24:03.038Z</time></trkpt><trkpt lat="43.7050453" lon="10.4095973"><ele>7.0</ele><time>2026-05-01T08:24:04.048Z</time></trkpt><trkpt lat="43.7049435" lon="10.4096896"><ele>6.25</ele><time>2026-05-01T08:24:05.044Z</time></trkpt><trkpt lat="43.7048409" lon="10.4097904"><ele>5.5</ele><time>2026-05-01T08:24:06.039Z</time></trkpt><trkpt lat="43.7047343" lon="10.4098886"><ele>4.75</ele><time>2026-05-01T08:24:07.045Z</time></trkpt><trkpt lat="43.7046297" lon="10.4099805"><ele>4.0</ele><time>2026-05-01T08:24:08.046Z</time></trkpt><trkpt lat="43.7045303" lon="10.4100742"><ele>4.0</ele><time>2026-05-01T08:24:09.044Z</time></trkpt><trkpt lat="43.7044369" lon="10.410174"><ele>4.0</ele><time>2026-05-01T08:24:10.05Z</time></trkpt><trkpt lat="43.704353" lon="10.4102822"><ele>4.0</ele><time>2026-05-01T08:24:11.049Z</time></trkpt><trkpt lat="43.7042784" lon="10.4104018"><ele>4.0</ele><time>2026-05-01T08:24:12.047Z</time></trkpt><trkpt lat="43.7042282" lon="10.4105279"><ele>4.166666666666666</ele><time>2026-05-01T08:24:13.045Z</time></trkpt><trkpt lat="43.704187" lon="10.4106431"><ele>4.333333333333333</ele><time>2026-05-01T08:24:14.044Z</time></trkpt><trkpt lat="43.704147" lon="10.4107473"><ele>4.5</ele><time>2026-05-01T08:24:15.06Z</time></trkpt><trkpt lat="43.7041147" lon="10.4108456"><ele>4.666666666666667</ele><time>2026-05-01T08:24:16.042Z</time></trkpt><trkpt lat="43.7040842" lon="10.4109432"><ele>4.833333333333334</ele><time>2026-05-01T08:24:17.046Z</time></trkpt><trkpt lat="43.7040411" lon="10.411055"><ele>5.0</ele><time>2026-05-01T08:24:18.038Z</time></trkpt><trkpt lat="43.7039861" lon="10.4111738"><ele>5.0</ele><time>2026-05-01T08:24:19.046Z</time></trkpt><trkpt lat="43.7039252" lon="10.411307"><ele>5.0</ele><time>2026-05-01T08:24:20.041Z</time></trkpt><trkpt lat="43.7038491" lon="10.411439"><ele>5.0</ele><time>2026-05-01T08:24:21.042Z</time></trkpt><trkpt lat="43.7037666" lon="10.4115669"><ele>5.0</ele><time>2026-05-01T08:24:22.045Z</time></trkpt><trkpt lat="43.703667" lon="10.4116928"><ele>5.0</ele><time>2026-05-01T08:24:23.038Z</time></trkpt><trkpt lat="43.7035556" lon="10.4118058"><ele>5.0</ele><time>2026-05-01T08:24:24.035Z</time></trkpt><trkpt lat="43.7034393" lon="10.4118977"><ele>5.0</ele><time>2026-05-01T08:24:25.044Z</time></trkpt><trkpt lat="43.703321" lon="10.4119708"><ele>5.0</ele><time>2026-05-01T08:24:26.053Z</time></trkpt><trkpt lat="43.7031845" lon="10.4120326"><ele>5.0</ele><time>2026-05-01T08:24:27.051Z</time></trkpt><trkpt lat="43.703041" lon="10.4120787"><ele>5.0</ele><time>2026-05-01T08:24:28.037Z</time></trkpt><trkpt lat="43.7028804" lon="10.4121075"><ele>5.0</ele><time>2026-05-01T08:24:29.041Z</time></trkpt><trkpt lat="43.7027174" lon="10.4121086"><ele>4.666666666666667</ele><time>2026-05-01T08:24:30.052Z</time></trkpt><trkpt lat="43.7025556" lon="10.4120917"><ele>4.333333333333333</ele><time>2026-05-01T08:24:31.042Z</time></trkpt><trkpt lat="43.7023973" lon="10.4120585"><ele>4.0</ele><time>2026-05-01T08:24:32.055Z</time></trkpt><trkpt lat="43.7022268" lon="10.412029"><ele>4.0</ele><time>2026-05-01T08:24:33.034Z</time></trkpt><trkpt lat="43.7020643" lon="10.4120024"><ele>4.0</ele><time>2026-05-01T08:24:34.041Z</time></trkpt><trkpt lat="43.7018961" lon="10.4119782"><ele>4.0</ele><time>2026-05-01T08:24:35.045Z</time></trkpt><trkpt lat="43.7017276" lon="10.411958"><ele>4.0</ele><time>2026-05-01T08:24:36.04Z</time></trkpt><trkpt lat="43.7015645" lon="10.4119472"><ele>4.0</ele><time>2026-05-01T08:24:37.039Z</time></trkpt><trkpt lat="43.701415" lon="10.4119558"><ele>4.0</ele><time>2026-05-01T08:24:38.045Z</time></trkpt><trkpt lat="43.7012859" lon="10.4119808"><ele>4.0</ele><time>2026-05-01T08:24:39.049Z</time></trkpt><trkpt lat="43.7011859" lon="10.4120083"><ele>4.0</ele><time>2026-05-01T08:24:40.045Z</time></trkpt><trkpt lat="43.7011045" lon="10.4120343"><ele>3.9999999999999996</ele><time>2026-05-01T08:24:41.043Z</time></trkpt><trkpt lat="43.7010236" lon="10.4120503"><ele>4.0</ele><time>2026-05-01T08:24:42.041Z</time></trkpt><trkpt lat="43.700945" lon="10.4120558"><ele>4.0</ele><time>2026-05-01T08:24:43.044Z</time></trkpt><trkpt lat="43.7008776" lon="10.4120465"><ele>3.9999999999999996</ele><time>2026-05-01T08:24:44.05Z</time></trkpt><trkpt lat="43.700816" lon="10.412082"><ele>4.0</ele><time>2026-05-01T08:24:45.038Z</time></trkpt><trkpt lat="43.7007632" lon="10.412138"><ele>4.0</ele><time>2026-05-01T08:24:46.04Z</time></trkpt><trkpt lat="43.700723" lon="10.4122286"><ele>4.166666666666666</ele><time>2026-05-01T08:24:47.046Z</time></trkpt><trkpt lat="43.7006663" lon="10.412333"><ele>4.333333333333333</ele><time>2026-05-01T08:24:48.04Z</time></trkpt><trkpt lat="43.7006026" lon="10.4124268"><ele>4.5</ele><time>2026-05-01T08:24:49.046Z</time></trkpt><trkpt lat="43.7005386" lon="10.412504"><ele>4.666666666666667</ele><time>2026-05-01T08:24:50.035Z</time></trkpt><trkpt lat="43.7004817" lon="10.4125673"><ele>4.833333333333334</ele><time>2026-05-01T08:24:51.043Z</time></trkpt><trkpt lat="43.7004214" lon="10.4126271"><ele>5.0</ele><time>2026-05-01T08:24:52.039Z</time></trkpt><trkpt lat="43.7003636" lon="10.4126897"><ele>5.0</ele><time>2026-05-01T08:24:53.043Z</time></trkpt><trkpt lat="43.7003106" lon="10.4127454"><ele>5.0</ele><time>2026-05-01T08:24:54.038Z</time></trkpt><trkpt lat="43.7002214" lon="10.4128368"><ele>5.0</ele><time>2026-05-01T08:24:56.043Z</time></trkpt><trkpt lat="43.700168" lon="10.4128905"><ele>5.0</ele><time>2026-05-01T08:24:57.038Z</time></trkpt><trkpt lat="43.7000962" lon="10.412961"><ele>5.0</ele><time>2026-05-01T08:24:58.046Z</time></trkpt><trkpt lat="43.7000072" lon="10.4130334"><ele>5.0</ele><time>2026-05-01T08:24:59.051Z</time></trkpt><trkpt lat="43.6999073" lon="10.4130914"><ele>5.0</ele><time>2026-05-01T08:25:00.038Z</time></trkpt><trkpt lat="43.6998095" lon="10.4131316"><ele>5.0</ele><time>2026-05-01T08:25:01.037Z</time></trkpt><trkpt lat="43.6997126" lon="10.4131636"><ele>5.0</ele><time>2026-05-01T08:25:02.038Z</time></trkpt><trkpt lat="43.6996126" lon="10.4131966"><ele>5.0</ele><time>2026-05-01T08:25:03.039Z</time></trkpt><trkpt lat="43.6995159" lon="10.4132322"><ele>5.0</ele><time>2026-05-01T08:25:04.044Z</time></trkpt><trkpt lat="43.6994163" lon="10.413263"><ele>5.0</ele><time>2026-05-01T08:25:05.039Z</time></trkpt><trkpt lat="43.6993097" lon="10.4132922"><ele>5.0</ele><time>2026-05-01T08:25:06.048Z</time></trkpt><trkpt lat="43.6992065" lon="10.4133235"><ele>5.0</ele><time>2026-05-01T08:25:07.048Z</time></trkpt><trkpt lat="43.6990943" lon="10.4133536"><ele>5.0</ele><time>2026-05-01T08:25:08.038Z</time></trkpt><trkpt lat="43.6989889" lon="10.4133813"><ele>5.0</ele><time>2026-05-01T08:25:09.047Z</time></trkpt><trkpt lat="43.6988892" lon="10.4134172"><ele>5.0</ele><time>2026-05-01T08:25:10.041Z</time></trkpt><trkpt lat="43.6987801" lon="10.4134519"><ele>5.0</ele><time>2026-05-01T08:25:11.044Z</time></trkpt><trkpt lat="43.6986694" lon="10.4134921"><ele>5.0</ele><time>2026-05-01T08:25:12.049Z</time></trkpt><trkpt lat="43.6985511" lon="10.4135342"><ele>5.0</ele><time>2026-05-01T08:25:13.034Z</time></trkpt><trkpt lat="43.6984359" lon="10.4135783"><ele>5.0</ele><time>2026-05-01T08:25:14.041Z</time></trkpt><trkpt lat="43.6983227" lon="10.4136139"><ele>5.0</ele><time>2026-05-01T08:25:15.049Z</time></trkpt><trkpt lat="43.6982204" lon="10.4136383"><ele>5.0</ele><time>2026-05-01T08:25:16.047Z</time></trkpt><trkpt lat="43.6981299" lon="10.4136726"><ele>5.0</ele><time>2026-05-01T08:25:17.043Z</time></trkpt><trkpt lat="43.6980424" lon="10.4137067"><ele>5.0</ele><time>2026-05-01T08:25:18.049Z</time></trkpt><trkpt lat="43.6979665" lon="10.4137318"><ele>5.0</ele><time>2026-05-01T08:25:19.052Z</time></trkpt><trkpt lat="43.697907" lon="10.4137607"><ele>5.0</ele><time>2026-05-01T08:25:20.045Z</time></trkpt><trkpt lat="43.6978069" lon="10.4137976"><ele>5.0</ele><time>2026-05-01T08:25:22.043Z</time></trkpt><trkpt lat="43.6976979" lon="10.4138399"><ele>5.0</ele><time>2026-05-01T08:25:24.044Z</time></trkpt><trkpt lat="43.6976222" lon="10.413854"><ele>5.0</ele><time>2026-05-01T08:25:25.038Z</time></trkpt><trkpt lat="43.697541" lon="10.4138906"><ele>5.0</ele><time>2026-05-01T08:25:26.051Z</time></trkpt><trkpt lat="43.6974447" lon="10.4139373"><ele>5.0</ele><time>2026-05-01T08:25:27.038Z</time></trkpt><trkpt lat="43.6973551" lon="10.4139772"><ele>5.0</ele><time>2026-05-01T08:25:28.05Z</time></trkpt><trkpt lat="43.6972739" lon="10.4140061"><ele>5.0</ele><time>2026-05-01T08:25:29.044Z</time></trkpt><trkpt lat="43.6971889" lon="10.4140471"><ele>5.0</ele><time>2026-05-01T08:25:30.042Z</time></trkpt><trkpt lat="43.6971025" lon="10.4140946"><ele>5.0</ele><time>2026-05-01T08:25:31.049Z</time></trkpt><trkpt lat="43.697012" lon="10.4141482"><ele>5.0</ele><time>2026-05-01T08:25:32.056Z</time></trkpt><trkpt lat="43.6969192" lon="10.4141949"><ele>5.0</ele><time>2026-05-01T08:25:33.05Z</time></trkpt><trkpt lat="43.6968213" lon="10.4142235"><ele>5.0</ele><time>2026-05-01T08:25:34.054Z</time></trkpt><trkpt lat="43.6967205" lon="10.4142302"><ele>5.0</ele><time>2026-05-01T08:25:35.037Z</time></trkpt><trkpt lat="43.6966169" lon="10.4142169"><ele>5.0</ele><time>2026-05-01T08:25:36.05Z</time></trkpt><trkpt lat="43.6965139" lon="10.4141782"><ele>5.0</ele><time>2026-05-01T08:25:37.045Z</time></trkpt><trkpt lat="43.6964051" lon="10.4141228"><ele>5.0</ele><time>2026-05-01T08:25:38.045Z</time></trkpt><trkpt lat="43.6962817" lon="10.4140862"><ele>5.0</ele><time>2026-05-01T08:25:39.041Z</time></trkpt><trkpt lat="43.6961551" lon="10.4140342"><ele>5.0</ele><time>2026-05-01T08:25:40.051Z</time></trkpt><trkpt lat="43.696025" lon="10.4139601"><ele>5.0</ele><time>2026-05-01T08:25:41.038Z</time></trkpt><trkpt lat="43.6958884" lon="10.4138767"><ele>5.0</ele><time>2026-05-01T08:25:42.053Z</time></trkpt><trkpt lat="43.6957452" lon="10.413804"><ele>5.0</ele><time>2026-05-01T08:25:43.037Z</time></trkpt><trkpt lat="43.6956032" lon="10.4137425"><ele>5.0</ele><time>2026-05-01T08:25:44.05Z</time></trkpt><trkpt lat="43.6954766" lon="10.4136847"><ele>5.0</ele><time>2026-05-01T08:25:45.046Z</time></trkpt><trkpt lat="43.6953498" lon="10.4136407"><ele>5.0</ele><time>2026-05-01T08:25:46.045Z</time></trkpt><trkpt lat="43.6952238" lon="10.4136028"><ele>5.0</ele><time>2026-05-01T08:25:47.036Z</time></trkpt><trkpt lat="43.6950891" lon="10.4135798"><ele>4.0</ele><time>2026-05-01T08:25:48.041Z</time></trkpt><trkpt lat="43.6949541" lon="10.4135768"><ele>3.0</ele><time>2026-05-01T08:25:49.051Z</time></trkpt><trkpt lat="43.694813" lon="10.4135932"><ele>2.0</ele><time>2026-05-01T08:25:50.027Z</time></trkpt><trkpt lat="43.694679" lon="10.4136348"><ele>1.0</ele><time>2026-05-01T08:25:51.052Z</time></trkpt><trkpt lat="43.6945414" lon="10.4136814"><ele>1.25</ele><time>2026-05-01T08:25:52.043Z</time></trkpt><trkpt lat="43.6944087" lon="10.4137294"><ele>1.5</ele><time>2026-05-01T08:25:53.055Z</time></trkpt><trkpt lat="43.6942805" lon="10.4137695"><ele>1.75</ele><time>2026-05-01T08:25:54.05Z</time></trkpt><trkpt lat="43.6941593" lon="10.4138103"><ele>2.0</ele><time>2026-05-01T08:25:55.04Z</time></trkpt><trkpt lat="43.6940365" lon="10.4138545"><ele>2.0</ele><time>2026-05-01T08:25:56.033Z</time></trkpt><trkpt lat="43.6939135" lon="10.413894"><ele>2.0</ele><time>2026-05-01T08:25:57.04Z</time></trkpt><trkpt lat="43.6937824" lon="10.4139147"><ele>2.0</ele><time>2026-05-01T08:25:58.033Z</time></trkpt><trkpt lat="43.6936445" lon="10.4139321"><ele>2.0</ele><time>2026-05-01T08:25:59.043Z</time></trkpt><trkpt lat="43.6934845" lon="10.4139589"><ele>2.333333333333333</ele><time>2026-05-01T08:26:00.039Z</time></trkpt><trkpt lat="43.6933179" lon="10.4139836"><ele>2.6666666666666665</ele><time>2026-05-01T08:26:01.046Z</time></trkpt><trkpt lat="43.6931431" lon="10.4140038"><ele>3.0</ele><time>2026-05-01T08:26:02.042Z</time></trkpt><trkpt lat="43.6929631" lon="10.4140231"><ele>3.0</ele><time>2026-05-01T08:26:03.052Z</time></trkpt><trkpt lat="43.6927759" lon="10.4140443"><ele>3.0</ele><time>2026-05-01T08:26:04.035Z</time></trkpt><trkpt lat="43.6925928" lon="10.4140689"><ele>3.0</ele><time>2026-05-01T08:26:05.045Z</time></trkpt><trkpt lat="43.6924238" lon="10.4140909"><ele>2.75</ele><time>2026-05-01T08:26:06.042Z</time></trkpt><trkpt lat="43.6922829" lon="10.414102"><ele>2.5</ele><time>2026-05-01T08:26:07.038Z</time></trkpt><trkpt lat="43.6921544" lon="10.4141193"><ele>2.25</ele><time>2026-05-01T08:26:08.033Z</time></trkpt><trkpt lat="43.6920237" lon="10.4141396"><ele>2.0</ele><time>2026-05-01T08:26:09.044Z</time></trkpt><trkpt lat="43.6919034" lon="10.4141582"><ele>1.75</ele><time>2026-05-01T08:26:10.049Z</time></trkpt><trkpt lat="43.6917865" lon="10.4141722"><ele>1.5</ele><time>2026-05-01T08:26:11.051Z</time></trkpt><trkpt lat="43.6916754" lon="10.4141858"><ele>1.25</ele><time>2026-05-01T08:26:12.042Z</time></trkpt><trkpt lat="43.6915606" lon="10.4142077"><ele>1.0</ele><time>2026-05-01T08:26:13.058Z</time></trkpt><trkpt lat="43.6914477" lon="10.414244"><ele>1.0</ele><time>2026-05-01T08:26:14.036Z</time></trkpt><trkpt lat="43.6913369" lon="10.4142968"><ele>1.0</ele><time>2026-05-01T08:26:15.05Z</time></trkpt><trkpt lat="43.6912344" lon="10.4143794"><ele>1.0</ele><time>2026-05-01T08:26:16.042Z</time></trkpt><trkpt lat="43.6911376" lon="10.4144788"><ele>1.0</ele><time>2026-05-01T08:26:17.043Z</time></trkpt><trkpt lat="43.6910477" lon="10.4145942"><ele>1.25</ele><time>2026-05-01T08:26:18.048Z</time></trkpt><trkpt lat="43.6909647" lon="10.4147278"><ele>1.5</ele><time>2026-05-01T08:26:19.043Z</time></trkpt><trkpt lat="43.6908865" lon="10.4148729"><ele>1.75</ele><time>2026-05-01T08:26:20.038Z</time></trkpt><trkpt lat="43.6908045" lon="10.4150228"><ele>2.0</ele><time>2026-05-01T08:26:21.045Z</time></trkpt><trkpt lat="43.690723" lon="10.4151682"><ele>2.0</ele><time>2026-05-01T08:26:22.049Z</time></trkpt><trkpt lat="43.690636" lon="10.4153163"><ele>2.0</ele><time>2026-05-01T08:26:23.045Z</time></trkpt><trkpt lat="43.6905497" lon="10.4154539"><ele>2.0</ele><time>2026-05-01T08:26:24.043Z</time></trkpt><trkpt lat="43.6904594" lon="10.4156026"><ele>2.0</ele><time>2026-05-01T08:26:25.044Z</time></trkpt><trkpt lat="43.6903614" lon="10.4157567"><ele>1.0</ele><time>2026-05-01T08:26:26.041Z</time></trkpt><trkpt lat="43.6902555" lon="10.4159244"><ele>0.0</ele><time>2026-05-01T08:26:27.048Z</time></trkpt><trkpt lat="43.6901232" lon="10.4161131"><ele>-1.0</ele><time>2026-05-01T08:26:28.047Z</time></trkpt><trkpt lat="43.6899593" lon="10.4163186"><ele>-0.6666666666666666</ele><time>2026-05-01T08:26:29.047Z</time></trkpt><trkpt lat="43.6898028" lon="10.4165401"><ele>-0.3333333333333333</ele><time>2026-05-01T08:26:30.04Z</time></trkpt><trkpt lat="43.6896504" lon="10.4167581"><ele>0.0</ele><time>2026-05-01T08:26:31.039Z</time></trkpt><trkpt lat="43.6895142" lon="10.416997"><ele>0.0</ele><time>2026-05-01T08:26:32.042Z</time></trkpt><trkpt lat="43.6893769" lon="10.4172542"><ele>0.0</ele><time>2026-05-01T08:26:33.043Z</time></trkpt><trkpt lat="43.6892418" lon="10.4175036"><ele>0.0</ele><time>2026-05-01T08:26:34.041Z</time></trkpt><trkpt lat="43.6891057" lon="10.4177253"><ele>0.0</ele><time>2026-05-01T08:26:35.048Z</time></trkpt><trkpt lat="43.6889599" lon="10.4179394"><ele>0.0</ele><time>2026-05-01T08:26:36.046Z</time></trkpt><trkpt lat="43.6888178" lon="10.4181354"><ele>0.0</ele><time>2026-05-01T08:26:37.045Z</time></trkpt><trkpt lat="43.6886814" lon="10.4183135"><ele>0.0</ele><time>2026-05-01T08:26:38.057Z</time></trkpt><trkpt lat="43.6885546" lon="10.4184652"><ele>0.0</ele><time>2026-05-01T08:26:39.048Z</time></trkpt><trkpt lat="43.6884207" lon="10.4186161"><ele>0.0</ele><time>2026-05-01T08:26:40.045Z</time></trkpt><trkpt lat="43.6882824" lon="10.4187673"><ele>0.0</ele><time>2026-05-01T08:26:41.039Z</time></trkpt><trkpt lat="43.6881369" lon="10.4189221"><ele>0.0</ele><time>2026-05-01T08:26:42.044Z</time></trkpt><trkpt lat="43.6879859" lon="10.4190742"><ele>0.0</ele><time>2026-05-01T08:26:43.037Z</time></trkpt><trkpt lat="43.6878224" lon="10.4192233"><ele>0.0</ele><time>2026-05-01T08:26:44.036Z</time></trkpt><trkpt lat="43.6876554" lon="10.4193723"><ele>0.0</ele><time>2026-05-01T08:26:45.036Z</time></trkpt><trkpt lat="43.6874815" lon="10.4195078"><ele>0.3333333333333333</ele><time>2026-05-01T08:26:46.039Z</time></trkpt><trkpt lat="43.6873004" lon="10.4196353"><ele>0.6666666666666666</ele><time>2026-05-01T08:26:47.04Z</time></trkpt><trkpt lat="43.6871168" lon="10.4197566"><ele>1.0</ele><time>2026-05-01T08:26:48.041Z</time></trkpt><trkpt lat="43.6869251" lon="10.4198838"><ele>1.0</ele><time>2026-05-01T08:26:49.039Z</time></trkpt><trkpt lat="43.6867318" lon="10.4200162"><ele>1.0</ele><time>2026-05-01T08:26:50.048Z</time></trkpt><trkpt lat="43.6865446" lon="10.4201483"><ele>1.0</ele><time>2026-05-01T08:26:51.042Z</time></trkpt><trkpt lat="43.6863558" lon="10.4202809"><ele>1.0</ele><time>2026-05-01T08:26:52.055Z</time></trkpt><trkpt lat="43.6861848" lon="10.4204038"><ele>1.0</ele><time>2026-05-01T08:26:53.042Z</time></trkpt><trkpt lat="43.6860319" lon="10.420535"><ele>1.0</ele><time>2026-05-01T08:26:54.052Z</time></trkpt><trkpt lat="43.685895" lon="10.4206832"><ele>1.0</ele><time>2026-05-01T08:26:55.044Z</time></trkpt><trkpt lat="43.6857739" lon="10.4208495"><ele>1.0</ele><time>2026-05-01T08:26:56.055Z</time></trkpt><trkpt lat="43.6856595" lon="10.4210315"><ele>1.0</ele><time>2026-05-01T08:26:57.035Z</time></trkpt><trkpt lat="43.685553" lon="10.4212201"><ele>1.0</ele><time>2026-05-01T08:26:58.047Z</time></trkpt><trkpt lat="43.6854649" lon="10.421401"><ele>1.0</ele><time>2026-05-01T08:26:59.04Z</time></trkpt><trkpt lat="43.6853886" lon="10.4215644"><ele>1.0</ele><time>2026-05-01T08:27:00.046Z</time></trkpt><trkpt lat="43.6853268" lon="10.4217216"><ele>1.0</ele><time>2026-05-01T08:27:01.041Z</time></trkpt><trkpt lat="43.685266" lon="10.4218796"><ele>1.25</ele><time>2026-05-01T08:27:02.041Z</time></trkpt><trkpt lat="43.6852145" lon="10.4220268"><ele>1.5</ele><time>2026-05-01T08:27:03.039Z</time></trkpt><trkpt lat="43.6851627" lon="10.4221731"><ele>1.75</ele><time>2026-05-01T08:27:04.042Z</time></trkpt><trkpt lat="43.6851123" lon="10.4223155"><ele>2.0</ele><time>2026-05-01T08:27:05.042Z</time></trkpt><trkpt lat="43.6850655" lon="10.4224672"><ele>2.25</ele><time>2026-05-01T08:27:06.044Z</time></trkpt><trkpt lat="43.6850125" lon="10.4226175"><ele>2.5</ele><time>2026-05-01T08:27:07.044Z</time></trkpt><trkpt lat="43.6849619" lon="10.4227567"><ele>2.75</ele><time>2026-05-01T08:27:08.043Z</time></trkpt><trkpt lat="43.6849145" lon="10.4228989"><ele>3.0</ele><time>2026-05-01T08:27:09.046Z</time></trkpt><trkpt lat="43.684864" lon="10.4230406"><ele>3.25</ele><time>2026-05-01T08:27:10.043Z</time></trkpt><trkpt lat="43.6848093" lon="10.4231942"><ele>3.5</ele><time>2026-05-01T08:27:11.044Z</time></trkpt><trkpt lat="43.6847486" lon="10.4233518"><ele>3.75</ele><time>2026-05-01T08:27:12.038Z</time></trkpt><trkpt lat="43.6846849" lon="10.4235212"><ele>4.0</ele><time>2026-05-01T08:27:13.049Z</time></trkpt><trkpt lat="43.6846202" lon="10.4236845"><ele>3.5</ele><time>2026-05-01T08:27:14.041Z</time></trkpt><trkpt lat="43.6845525" lon="10.4238394"><ele>3.0</ele><time>2026-05-01T08:27:15.036Z</time></trkpt><trkpt lat="43.6844828" lon="10.423989"><ele>2.5</ele><time>2026-05-01T08:27:16.049Z</time></trkpt><trkpt lat="43.6844079" lon="10.4241295"><ele>2.0</ele><time>2026-05-01T08:27:17.033Z</time></trkpt><trkpt lat="43.6843196" lon="10.4242676"><ele>2.0</ele><time>2026-05-01T08:27:18.045Z</time></trkpt><trkpt lat="43.6842201" lon="10.4244029"><ele>2.0</ele><time>2026-05-01T08:27:19.046Z</time></trkpt><trkpt lat="43.6841164" lon="10.424536"><ele>2.0</ele><time>2026-05-01T08:27:20.043Z</time></trkpt><trkpt lat="43.6840008" lon="10.424663"><ele>2.0</ele><time>2026-05-01T08:27:21.047Z</time></trkpt><trkpt lat="43.6838711" lon="10.4247803"><ele>2.0</ele><time>2026-05-01T08:27:22.049Z</time></trkpt><trkpt lat="43.6837307" lon="10.424898"><ele>2.0</ele><time>2026-05-01T08:27:23.05Z</time></trkpt><trkpt lat="43.6835799" lon="10.4250183"><ele>2.0</ele><time>2026-05-01T08:27:24.043Z</time></trkpt><trkpt lat="43.6834118" lon="10.4251454"><ele>2.0</ele><time>2026-05-01T08:27:25.048Z</time></trkpt><trkpt lat="43.6832389" lon="10.4252745"><ele>2.0</ele><time>2026-05-01T08:27:26.049Z</time></trkpt><trkpt lat="43.6830547" lon="10.4254166"><ele>2.0</ele><time>2026-05-01T08:27:27.038Z</time></trkpt><trkpt lat="43.6828704" lon="10.4255651"><ele>1.6666666666666665</ele><time>2026-05-01T08:27:28.039Z</time></trkpt><trkpt lat="43.6826934" lon="10.4256982"><ele>1.3333333333333333</ele><time>2026-05-01T08:27:29.045Z</time></trkpt><trkpt lat="43.6825289" lon="10.4258272"><ele>1.0</ele><time>2026-05-01T08:27:30.041Z</time></trkpt><trkpt lat="43.6823666" lon="10.4259499"><ele>1.0</ele><time>2026-05-01T08:27:31.045Z</time></trkpt><trkpt lat="43.6822048" lon="10.426069"><ele>1.0</ele><time>2026-05-01T08:27:32.037Z</time></trkpt><trkpt lat="43.6820395" lon="10.4261932"><ele>1.0</ele><time>2026-05-01T08:27:33.039Z</time></trkpt><trkpt lat="43.681868" lon="10.426325"><ele>1.3333333333333333</ele><time>2026-05-01T08:27:34.044Z</time></trkpt><trkpt lat="43.6816986" lon="10.4264464"><ele>1.6666666666666665</ele><time>2026-05-01T08:27:35.042Z</time></trkpt><trkpt lat="43.6815308" lon="10.4265768"><ele>2.0</ele><time>2026-05-01T08:27:36.041Z</time></trkpt><trkpt lat="43.6813642" lon="10.4267041"><ele>2.0</ele><time>2026-05-01T08:27:37.049Z</time></trkpt><trkpt lat="43.6811909" lon="10.4268358"><ele>2.0</ele><time>2026-05-01T08:27:38.046Z</time></trkpt><trkpt lat="43.6810234" lon="10.4269633"><ele>2.0</ele><time>2026-05-01T08:27:39.058Z</time></trkpt><trkpt lat="43.6808611" lon="10.4270823"><ele>2.333333333333333</ele><time>2026-05-01T08:27:40.044Z</time></trkpt><trkpt lat="43.6807141" lon="10.427196"><ele>2.6666666666666665</ele><time>2026-05-01T08:27:41.049Z</time></trkpt><trkpt lat="43.6805774" lon="10.4272958"><ele>3.0</ele><time>2026-05-01T08:27:42.051Z</time></trkpt><trkpt lat="43.6804526" lon="10.4273833"><ele>3.0</ele><time>2026-05-01T08:27:43.044Z</time></trkpt><trkpt lat="43.6803408" lon="10.4274543"><ele>3.0</ele><time>2026-05-01T08:27:44.034Z</time></trkpt><trkpt lat="43.6802251" lon="10.4275235"><ele>3.0</ele><time>2026-05-01T08:27:45.043Z</time></trkpt><trkpt lat="43.680124" lon="10.4275907"><ele>3.0</ele><time>2026-05-01T08:27:46.032Z</time></trkpt><trkpt lat="43.6800363" lon="10.4276407"><ele>2.8333333333333335</ele><time>2026-05-01T08:27:47.046Z</time></trkpt><trkpt lat="43.6799557" lon="10.4276869"><ele>2.6666666666666665</ele><time>2026-05-01T08:27:48.035Z</time></trkpt><trkpt lat="43.679891" lon="10.4277226"><ele>2.5</ele><time>2026-05-01T08:27:49.038Z</time></trkpt><trkpt lat="43.6798236" lon="10.4277693"><ele>2.333333333333333</ele><time>2026-05-01T08:27:50.044Z</time></trkpt><trkpt lat="43.6797499" lon="10.4278103"><ele>2.1666666666666665</ele><time>2026-05-01T08:27:51.05Z</time></trkpt><trkpt lat="43.6796705" lon="10.4278542"><ele>2.0</ele><time>2026-05-01T08:27:52.065Z</time></trkpt><trkpt lat="43.6795753" lon="10.427906"><ele>2.0</ele><time>2026-05-01T08:27:53.045Z</time></trkpt><trkpt lat="43.6794649" lon="10.4279485"><ele>2.0</ele><time>2026-05-01T08:27:54.058Z</time></trkpt><trkpt lat="43.6793464" lon="10.4279935"><ele>2.0</ele><time>2026-05-01T08:27:55.041Z</time></trkpt><trkpt lat="43.6792224" lon="10.4280467"><ele>2.0</ele><time>2026-05-01T08:27:56.041Z</time></trkpt><trkpt lat="43.6790912" lon="10.428099"><ele>2.25</ele><time>2026-05-01T08:27:57.042Z</time></trkpt><trkpt lat="43.6789652" lon="10.4281551"><ele>2.5</ele><time>2026-05-01T08:27:58.049Z</time></trkpt><trkpt lat="43.6788376" lon="10.4282171"><ele>2.75</ele><time>2026-05-01T08:27:59.044Z</time></trkpt><trkpt lat="43.6787033" lon="10.4282909"><ele>3.0</ele><time>2026-05-01T08:28:00.052Z</time></trkpt><trkpt lat="43.6785679" lon="10.4283727"><ele>2.3333333333333335</ele><time>2026-05-01T08:28:01.052Z</time></trkpt><trkpt lat="43.6784349" lon="10.42846"><ele>1.6666666666666665</ele><time>2026-05-01T08:28:02.049Z</time></trkpt><trkpt lat="43.6782955" lon="10.4285493"><ele>1.0</ele><time>2026-05-01T08:28:03.047Z</time></trkpt><trkpt lat="43.6781578" lon="10.4286388"><ele>1.0</ele><time>2026-05-01T08:28:04.051Z</time></trkpt><trkpt lat="43.6780235" lon="10.4287356"><ele>1.0</ele><time>2026-05-01T08:28:05.041Z</time></trkpt><trkpt lat="43.6778867" lon="10.4288426"><ele>1.0</ele><time>2026-05-01T08:28:06.043Z</time></trkpt><trkpt lat="43.6777437" lon="10.4289539"><ele>1.0</ele><time>2026-05-01T08:28:07.039Z</time></trkpt><trkpt lat="43.677593" lon="10.4290649"><ele>1.0</ele><time>2026-05-01T08:28:08.04Z</time></trkpt><trkpt lat="43.6774348" lon="10.4291817"><ele>1.0</ele><time>2026-05-01T08:28:09.055Z</time></trkpt><trkpt lat="43.6772739" lon="10.4292988"><ele>1.0</ele><time>2026-05-01T08:28:10.043Z</time></trkpt><trkpt lat="43.6771208" lon="10.4294155"><ele>1.0</ele><time>2026-05-01T08:28:11.049Z</time></trkpt><trkpt lat="43.6769618" lon="10.4295312"><ele>1.0</ele><time>2026-05-01T08:28:12.045Z</time></trkpt><trkpt lat="43.6768025" lon="10.4296501"><ele>1.0</ele><time>2026-05-01T08:28:13.04Z</time></trkpt><trkpt lat="43.6766458" lon="10.4297643"><ele>1.0</ele><time>2026-05-01T08:28:14.036Z</time></trkpt><trkpt lat="43.6764881" lon="10.4298811"><ele>1.0</ele><time>2026-05-01T08:28:15.046Z</time></trkpt><trkpt lat="43.6763429" lon="10.4299906"><ele>1.0</ele><time>2026-05-01T08:28:16.049Z</time></trkpt><trkpt lat="43.6762012" lon="10.4300956"><ele>1.0</ele><time>2026-05-01T08:28:17.038Z</time></trkpt><trkpt lat="43.6760718" lon="10.4301901"><ele>1.0</ele><time>2026-05-01T08:28:18.047Z</time></trkpt><trkpt lat="43.6759605" lon="10.4302675"><ele>1.0</ele><time>2026-05-01T08:28:19.048Z</time></trkpt><trkpt lat="43.6758601" lon="10.4303277"><ele>1.1666666666666665</ele><time>2026-05-01T08:28:20.045Z</time></trkpt><trkpt lat="43.6757758" lon="10.4303841"><ele>1.3333333333333333</ele><time>2026-05-01T08:28:21.043Z</time></trkpt><trkpt lat="43.6757018" lon="10.4304338"><ele>1.5</ele><time>2026-05-01T08:28:22.049Z</time></trkpt><trkpt lat="43.6756341" lon="10.4304723"><ele>1.6666666666666665</ele><time>2026-05-01T08:28:23.042Z</time></trkpt><trkpt lat="43.67557" lon="10.4305199"><ele>1.8333333333333333</ele><time>2026-05-01T08:28:24.051Z</time></trkpt><trkpt lat="43.6755111" lon="10.4305629"><ele>2.0</ele><time>2026-05-01T08:28:25.034Z</time></trkpt><trkpt lat="43.6754137" lon="10.4306242"><ele>1.9999999999999998</ele><time>2026-05-01T08:28:27.043Z</time></trkpt><trkpt lat="43.6753013" lon="10.4307083"><ele>2.0</ele><time>2026-05-01T08:28:29.043Z</time></trkpt><trkpt lat="43.6752327" lon="10.4307544"><ele>2.0</ele><time>2026-05-01T08:28:30.049Z</time></trkpt><trkpt lat="43.6751644" lon="10.4307973"><ele>2.0</ele><time>2026-05-01T08:28:31.041Z</time></trkpt><trkpt lat="43.6750898" lon="10.4308421"><ele>1.9999999999999998</ele><time>2026-05-01T08:28:32.036Z</time></trkpt><trkpt lat="43.675015" lon="10.4308913"><ele>2.0</ele><time>2026-05-01T08:28:33.044Z</time></trkpt><trkpt lat="43.6749321" lon="10.4309425"><ele>1.8</ele><time>2026-05-01T08:28:34.046Z</time></trkpt><trkpt lat="43.6748432" lon="10.4310014"><ele>1.6</ele><time>2026-05-01T08:28:35.045Z</time></trkpt><trkpt lat="43.6747491" lon="10.4310681"><ele>1.4000000000000001</ele><time>2026-05-01T08:28:36.039Z</time></trkpt><trkpt lat="43.6746476" lon="10.4311353"><ele>1.2000000000000002</ele><time>2026-05-01T08:28:37.052Z</time></trkpt><trkpt lat="43.6745504" lon="10.4312001"><ele>1.0</ele><time>2026-05-01T08:28:38.049Z</time></trkpt><trkpt lat="43.674455" lon="10.4312586"><ele>0.8</ele><time>2026-05-01T08:28:39.048Z</time></trkpt><trkpt lat="43.6743727" lon="10.4313068"><ele>0.6000000000000001</ele><time>2026-05-01T08:28:40.051Z</time></trkpt><trkpt lat="43.6742955" lon="10.4313511"><ele>0.4</ele><time>2026-05-01T08:28:41.04Z</time></trkpt><trkpt lat="43.6742155" lon="10.4314081"><ele>0.2</ele><time>2026-05-01T08:28:42.04Z</time></trkpt><trkpt lat="43.674131" lon="10.4314646"><ele>0.0</ele><time>2026-05-01T08:28:43.042Z</time></trkpt><trkpt lat="43.6740475" lon="10.4315226"><ele>0.0</ele><time>2026-05-01T08:28:44.045Z</time></trkpt><trkpt lat="43.6739479" lon="10.4315828"><ele>0.0</ele><time>2026-05-01T08:28:45.044Z</time></trkpt><trkpt lat="43.6738379" lon="10.4316522"><ele>0.0</ele><time>2026-05-01T08:28:46.045Z</time></trkpt><trkpt lat="43.6737222" lon="10.4317333"><ele>0.0</ele><time>2026-05-01T08:28:47.037Z</time></trkpt><trkpt lat="43.6736003" lon="10.4318087"><ele>0.0</ele><time>2026-05-01T08:28:48.042Z</time></trkpt><trkpt lat="43.6734612" lon="10.4318936"><ele>0.0</ele><time>2026-05-01T08:28:49.039Z</time></trkpt><trkpt lat="43.673318" lon="10.431976"><ele>0.0</ele><time>2026-05-01T08:28:50.042Z</time></trkpt><trkpt lat="43.6731737" lon="10.4320608"><ele>0.0</ele><time>2026-05-01T08:28:51.04Z</time></trkpt><trkpt lat="43.6730222" lon="10.4321529"><ele>0.0</ele><time>2026-05-01T08:28:52.062Z</time></trkpt><trkpt lat="43.6728733" lon="10.4322417"><ele>0.0</ele><time>2026-05-01T08:28:53.045Z</time></trkpt><trkpt lat="43.6727266" lon="10.4323322"><ele>0.3333333333333333</ele><time>2026-05-01T08:28:54.034Z</time></trkpt><trkpt lat="43.6725792" lon="10.4324198"><ele>0.6666666666666666</ele><time>2026-05-01T08:28:55.033Z</time></trkpt><trkpt lat="43.6724316" lon="10.4325049"><ele>1.0</ele><time>2026-05-01T08:28:56.036Z</time></trkpt><trkpt lat="43.6722792" lon="10.4325811"><ele>1.0</ele><time>2026-05-01T08:28:57.048Z</time></trkpt><trkpt lat="43.6721196" lon="10.4326519"><ele>1.0</ele><time>2026-05-01T08:28:58.044Z</time></trkpt><trkpt lat="43.6719505" lon="10.4327226"><ele>1.0</ele><time>2026-05-01T08:28:59.038Z</time></trkpt><trkpt lat="43.6717867" lon="10.4327905"><ele>0.6666666666666666</ele><time>2026-05-01T08:29:00.041Z</time></trkpt><trkpt lat="43.6716168" lon="10.4328607"><ele>0.3333333333333333</ele><time>2026-05-01T08:29:01.048Z</time></trkpt><trkpt lat="43.6714397" lon="10.4329262"><ele>0.0</ele><time>2026-05-01T08:29:02.032Z</time></trkpt><trkpt lat="43.6712615" lon="10.4329814"><ele>0.0</ele><time>2026-05-01T08:29:03.044Z</time></trkpt><trkpt lat="43.6710774" lon="10.4330312"><ele>0.0</ele><time>2026-05-01T08:29:04.042Z</time></trkpt><trkpt lat="43.6708843" lon="10.4330863"><ele>0.0</ele><time>2026-05-01T08:29:05.042Z</time></trkpt><trkpt lat="43.6706904" lon="10.4331377"><ele>0.0</ele><time>2026-05-01T08:29:06.043Z</time></trkpt><trkpt lat="43.6704989" lon="10.433192"><ele>0.0</ele><time>2026-05-01T08:29:07.039Z</time></trkpt><trkpt lat="43.6703197" lon="10.4332375"><ele>0.0</ele><time>2026-05-01T08:29:08.046Z</time></trkpt><trkpt lat="43.6701491" lon="10.4332881"><ele>0.0</ele><time>2026-05-01T08:29:09.037Z</time></trkpt><trkpt lat="43.6699775" lon="10.4333412"><ele>0.0</ele><time>2026-05-01T08:29:10.044Z</time></trkpt><trkpt lat="43.6698034" lon="10.4333984"><ele>0.0</ele><time>2026-05-01T08:29:11.039Z</time></trkpt><trkpt lat="43.6696376" lon="10.4334651"><ele>0.0</ele><time>2026-05-01T08:29:12.058Z</time></trkpt><trkpt lat="43.6694828" lon="10.4335253"><ele>0.0</ele><time>2026-05-01T08:29:13.034Z</time></trkpt><trkpt lat="43.669341" lon="10.4335901"><ele>0.0</ele><time>2026-05-01T08:29:14.046Z</time></trkpt><trkpt lat="43.6692072" lon="10.433654"><ele>0.0</ele><time>2026-05-01T08:29:15.036Z</time></trkpt><trkpt lat="43.669084" lon="10.4337106"><ele>0.0</ele><time>2026-05-01T08:29:16.048Z</time></trkpt><trkpt lat="43.6689759" lon="10.4337713"><ele>0.0</ele><time>2026-05-01T08:29:17.043Z</time></trkpt><trkpt lat="43.6688701" lon="10.4338247"><ele>0.0</ele><time>2026-05-01T08:29:18.047Z</time></trkpt><trkpt lat="43.6687733" lon="10.4338696"><ele>0.2</ele><time>2026-05-01T08:29:19.045Z</time></trkpt><trkpt lat="43.6686823" lon="10.4339011"><ele>0.4</ele><time>2026-05-01T08:29:20.053Z</time></trkpt><trkpt lat="43.6685915" lon="10.4339423"><ele>0.6000000000000001</ele><time>2026-05-01T08:29:21.05Z</time></trkpt><trkpt lat="43.6684965" lon="10.4339931"><ele>0.8</ele><time>2026-05-01T08:29:22.057Z</time></trkpt><trkpt lat="43.6683901" lon="10.4340406"><ele>1.0</ele><time>2026-05-01T08:29:23.027Z</time></trkpt><trkpt lat="43.6682701" lon="10.4340837"><ele>1.0</ele><time>2026-05-01T08:29:24.041Z</time></trkpt><trkpt lat="43.6681414" lon="10.4341244"><ele>1.0</ele><time>2026-05-01T08:29:25.039Z</time></trkpt><trkpt lat="43.6680008" lon="10.4341776"><ele>1.0</ele><time>2026-05-01T08:29:26.045Z</time></trkpt><trkpt lat="43.6678591" lon="10.4342402"><ele>1.0</ele><time>2026-05-01T08:29:27.034Z</time></trkpt><trkpt lat="43.6677203" lon="10.4343107"><ele>1.5</ele><time>2026-05-01T08:29:28.039Z</time></trkpt><trkpt lat="43.667588" lon="10.4343829"><ele>2.0</ele><time>2026-05-01T08:29:29.03Z</time></trkpt><trkpt lat="43.66746" lon="10.4344513"><ele>2.5</ele><time>2026-05-01T08:29:30.049Z</time></trkpt><trkpt lat="43.6673368" lon="10.434522"><ele>3.0</ele><time>2026-05-01T08:29:31.044Z</time></trkpt><trkpt lat="43.6672133" lon="10.4345969"><ele>2.5</ele><time>2026-05-01T08:29:32.065Z</time></trkpt><trkpt lat="43.6670843" lon="10.4346804"><ele>2.0</ele><time>2026-05-01T08:29:33.032Z</time></trkpt><trkpt lat="43.6669506" lon="10.4347621"><ele>1.5</ele><time>2026-05-01T08:29:34.045Z</time></trkpt><trkpt lat="43.6668096" lon="10.434853"><ele>1.0</ele><time>2026-05-01T08:29:35.038Z</time></trkpt><trkpt lat="43.6666636" lon="10.4349414"><ele>1.0</ele><time>2026-05-01T08:29:36.045Z</time></trkpt><trkpt lat="43.6665167" lon="10.4350345"><ele>1.0</ele><time>2026-05-01T08:29:37.052Z</time></trkpt><trkpt lat="43.6663655" lon="10.4351282"><ele>1.0</ele><time>2026-05-01T08:29:38.052Z</time></trkpt><trkpt lat="43.6662097" lon="10.4352289"><ele>1.0</ele><time>2026-05-01T08:29:39.05Z</time></trkpt><trkpt lat="43.6660495" lon="10.4353245"><ele>1.0</ele><time>2026-05-01T08:29:40.044Z</time></trkpt><trkpt lat="43.6658916" lon="10.435418"><ele>1.0</ele><time>2026-05-01T08:29:41.049Z</time></trkpt><trkpt lat="43.6657357" lon="10.4355155"><ele>1.0</ele><time>2026-05-01T08:29:42.045Z</time></trkpt><trkpt lat="43.6655805" lon="10.4356128"><ele>1.0</ele><time>2026-05-01T08:29:43.04Z</time></trkpt><trkpt lat="43.6654289" lon="10.4357136"><ele>1.0</ele><time>2026-05-01T08:29:44.047Z</time></trkpt><trkpt lat="43.6652768" lon="10.4358111"><ele>0.6666666666666666</ele><time>2026-05-01T08:29:45.043Z</time></trkpt><trkpt lat="43.6651245" lon="10.4359092"><ele>0.3333333333333333</ele><time>2026-05-01T08:29:46.05Z</time></trkpt><trkpt lat="43.6649708" lon="10.4360088"><ele>0.0</ele><time>2026-05-01T08:29:47.035Z</time></trkpt><trkpt lat="43.6648128" lon="10.4361096"><ele>0.0</ele><time>2026-05-01T08:29:48.043Z</time></trkpt><trkpt lat="43.6646566" lon="10.4362078"><ele>0.0</ele><time>2026-05-01T08:29:49.042Z</time></trkpt><trkpt lat="43.6644967" lon="10.4363043"><ele>0.0</ele><time>2026-05-01T08:29:50.04Z</time></trkpt><trkpt lat="43.6643387" lon="10.4364001"><ele>0.0</ele><time>2026-05-01T08:29:51.047Z</time></trkpt><trkpt lat="43.6641815" lon="10.4364989"><ele>0.0</ele><time>2026-05-01T08:29:52.039Z</time></trkpt><trkpt lat="43.6640283" lon="10.4365952"><ele>0.0</ele><time>2026-05-01T08:29:53.047Z</time></trkpt><trkpt lat="43.663873" lon="10.4366914"><ele>0.0</ele><time>2026-05-01T08:29:54.041Z</time></trkpt><trkpt lat="43.6637185" lon="10.4367892"><ele>0.0</ele><time>2026-05-01T08:29:55.053Z</time></trkpt><trkpt lat="43.663563" lon="10.4368895"><ele>0.0</ele><time>2026-05-01T08:29:56.037Z</time></trkpt><trkpt lat="43.663409" lon="10.4369877"><ele>0.0</ele><time>2026-05-01T08:29:57.041Z</time></trkpt><trkpt lat="43.6632492" lon="10.4370898"><ele>0.0</ele><time>2026-05-01T08:29:58.048Z</time></trkpt><trkpt lat="43.663092" lon="10.4371873"><ele>0.0</ele><time>2026-05-01T08:29:59.038Z</time></trkpt><trkpt lat="43.6629336" lon="10.437283"><ele>0.0</ele><time>2026-05-01T08:30:00.043Z</time></trkpt><trkpt lat="43.6627742" lon="10.4373821"><ele>0.0</ele><time>2026-05-01T08:30:01.038Z</time></trkpt><trkpt lat="43.6626223" lon="10.4374802"><ele>0.0</ele><time>2026-05-01T08:30:02.048Z</time></trkpt><trkpt lat="43.6624736" lon="10.4375793"><ele>0.0</ele><time>2026-05-01T08:30:03.031Z</time></trkpt><trkpt lat="43.6623203" lon="10.4376785"><ele>0.0</ele><time>2026-05-01T08:30:04.037Z</time></trkpt><trkpt lat="43.6621714" lon="10.4377743"><ele>0.0</ele><time>2026-05-01T08:30:05.032Z</time></trkpt><trkpt lat="43.6620203" lon="10.4378715"><ele>0.0</ele><time>2026-05-01T08:30:06.047Z</time></trkpt><trkpt lat="43.6618657" lon="10.4379705"><ele>0.0</ele><time>2026-05-01T08:30:07.042Z</time></trkpt><trkpt lat="43.6617115" lon="10.4380622"><ele>0.0</ele><time>2026-05-01T08:30:08.043Z</time></trkpt><trkpt lat="43.6615573" lon="10.4381584"><ele>0.0</ele><time>2026-05-01T08:30:09.045Z</time></trkpt><trkpt lat="43.6614018" lon="10.4382558"><ele>0.0</ele><time>2026-05-01T08:30:10.039Z</time></trkpt><trkpt lat="43.6612423" lon="10.4383542"><ele>0.0</ele><time>2026-05-01T08:30:11.042Z</time></trkpt><trkpt lat="43.6610855" lon="10.4384507"><ele>0.3333333333333333</ele><time>2026-05-01T08:30:12.038Z</time></trkpt><trkpt lat="43.6609374" lon="10.4385412"><ele>0.6666666666666666</ele><time>2026-05-01T08:30:13.052Z</time></trkpt><trkpt lat="43.6607937" lon="10.4386293"><ele>1.0</ele><time>2026-05-01T08:30:14.048Z</time></trkpt><trkpt lat="43.6606522" lon="10.438717"><ele>1.0</ele><time>2026-05-01T08:30:15.042Z</time></trkpt><trkpt lat="43.6605105" lon="10.4388068"><ele>1.0</ele><time>2026-05-01T08:30:16.045Z</time></trkpt><trkpt lat="43.6603705" lon="10.4388961"><ele>1.0</ele><time>2026-05-01T08:30:17.044Z</time></trkpt><trkpt lat="43.6602277" lon="10.4389902"><ele>1.0</ele><time>2026-05-01T08:30:18.028Z</time></trkpt><trkpt lat="43.660078" lon="10.4390834"><ele>1.0</ele><time>2026-05-01T08:30:19.045Z</time></trkpt><trkpt lat="43.6599273" lon="10.4391881"><ele>1.0</ele><time>2026-05-01T08:30:20.03Z</time></trkpt><trkpt lat="43.659774" lon="10.4392896"><ele>1.0</ele><time>2026-05-01T08:30:21.043Z</time></trkpt><trkpt lat="43.6596139" lon="10.4393892"><ele>1.0</ele><time>2026-05-01T08:30:22.038Z</time></trkpt><trkpt lat="43.659455" lon="10.4394881"><ele>1.0</ele><time>2026-05-01T08:30:23.044Z</time></trkpt><trkpt lat="43.6592928" lon="10.4395873"><ele>0.0</ele><time>2026-05-01T08:30:24.061Z</time></trkpt><trkpt lat="43.6591282" lon="10.4396905"><ele>-1.0</ele><time>2026-05-01T08:30:25.039Z</time></trkpt><trkpt lat="43.6589592" lon="10.4398018"><ele>-2.0</ele><time>2026-05-01T08:30:26.039Z</time></trkpt><trkpt lat="43.6587873" lon="10.4399131"><ele>-1.3333333333333333</ele><time>2026-05-01T08:30:27.044Z</time></trkpt><trkpt lat="43.6586129" lon="10.4400226"><ele>-0.6666666666666666</ele><time>2026-05-01T08:30:28.047Z</time></trkpt><trkpt lat="43.658436" lon="10.4401382"><ele>0.0</ele><time>2026-05-01T08:30:29.045Z</time></trkpt><trkpt lat="43.6582589" lon="10.440247"><ele>0.0</ele><time>2026-05-01T08:30:30.039Z</time></trkpt><trkpt lat="43.6580831" lon="10.4403558"><ele>0.0</ele><time>2026-05-01T08:30:31.045Z</time></trkpt><trkpt lat="43.6579103" lon="10.4404612"><ele>0.0</ele><time>2026-05-01T08:30:32.041Z</time></trkpt><trkpt lat="43.657741" lon="10.4405649"><ele>0.3333333333333333</ele><time>2026-05-01T08:30:33.037Z</time></trkpt><trkpt lat="43.6575706" lon="10.4406785"><ele>0.6666666666666666</ele><time>2026-05-01T08:30:34.04Z</time></trkpt><trkpt lat="43.6573993" lon="10.4407895"><ele>1.0</ele><time>2026-05-01T08:30:35.036Z</time></trkpt><trkpt lat="43.6572273" lon="10.4408966"><ele>1.0</ele><time>2026-05-01T08:30:36.039Z</time></trkpt><trkpt lat="43.6570581" lon="10.4410048"><ele>1.0</ele><time>2026-05-01T08:30:37.047Z</time></trkpt><trkpt lat="43.6568937" lon="10.4411086"><ele>1.0</ele><time>2026-05-01T08:30:38.042Z</time></trkpt><trkpt lat="43.6567285" lon="10.4412133"><ele>0.6666666666666666</ele><time>2026-05-01T08:30:39.045Z</time></trkpt><trkpt lat="43.6565664" lon="10.4413176"><ele>0.3333333333333333</ele><time>2026-05-01T08:30:40.043Z</time></trkpt><trkpt lat="43.6564052" lon="10.4414198"><ele>0.0</ele><time>2026-05-01T08:30:41.05Z</time></trkpt><trkpt lat="43.6562457" lon="10.4415209"><ele>0.3333333333333333</ele><time>2026-05-01T08:30:42.059Z</time></trkpt><trkpt lat="43.6560826" lon="10.441627"><ele>0.6666666666666666</ele><time>2026-05-01T08:30:43.043Z</time></trkpt><trkpt lat="43.6559175" lon="10.4417363"><ele>1.0</ele><time>2026-05-01T08:30:44.028Z</time></trkpt><trkpt lat="43.6557502" lon="10.4418441"><ele>1.0</ele><time>2026-05-01T08:30:45.035Z</time></trkpt><trkpt lat="43.6555816" lon="10.4419553"><ele>1.0</ele><time>2026-05-01T08:30:46.034Z</time></trkpt><trkpt lat="43.6554113" lon="10.4420659"><ele>1.0</ele><time>2026-05-01T08:30:47.041Z</time></trkpt><trkpt lat="43.6552397" lon="10.4421785"><ele>0.6666666666666666</ele><time>2026-05-01T08:30:48.044Z</time></trkpt><trkpt lat="43.655071" lon="10.4422852"><ele>0.3333333333333333</ele><time>2026-05-01T08:30:49.041Z</time></trkpt><trkpt lat="43.6549013" lon="10.4423928"><ele>0.0</ele><time>2026-05-01T08:30:50.048Z</time></trkpt><trkpt lat="43.6547257" lon="10.4425011"><ele>0.0</ele><time>2026-05-01T08:30:51.045Z</time></trkpt><trkpt lat="43.6545525" lon="10.4426149"><ele>0.0</ele><time>2026-05-01T08:30:52.047Z</time></trkpt><trkpt lat="43.654372" lon="10.442727"><ele>0.0</ele><time>2026-05-01T08:30:53.039Z</time></trkpt><trkpt lat="43.6541939" lon="10.442845"><ele>0.0</ele><time>2026-05-01T08:30:54.052Z</time></trkpt><trkpt lat="43.6540159" lon="10.4429593"><ele>0.0</ele><time>2026-05-01T08:30:55.036Z</time></trkpt><trkpt lat="43.6538371" lon="10.4430714"><ele>0.0</ele><time>2026-05-01T08:30:56.041Z</time></trkpt><trkpt lat="43.6536519" lon="10.443187"><ele>-0.3333333333333333</ele><time>2026-05-01T08:30:57.041Z</time></trkpt><trkpt lat="43.6534709" lon="10.443307"><ele>-0.6666666666666666</ele><time>2026-05-01T08:30:58.033Z</time></trkpt><trkpt lat="43.6532882" lon="10.4434221"><ele>-1.0</ele><time>2026-05-01T08:30:59.046Z</time></trkpt><trkpt lat="43.6531055" lon="10.4435421"><ele>-1.0</ele><time>2026-05-01T08:31:00.045Z</time></trkpt><trkpt lat="43.6529206" lon="10.4436607"><ele>-1.0</ele><time>2026-05-01T08:31:01.041Z</time></trkpt><trkpt lat="43.6527357" lon="10.4437799"><ele>-1.0</ele><time>2026-05-01T08:31:02.053Z</time></trkpt><trkpt lat="43.6525535" lon="10.4438865"><ele>-0.6666666666666666</ele><time>2026-05-01T08:31:03.048Z</time></trkpt><trkpt lat="43.6523882" lon="10.4439924"><ele>-0.3333333333333333</ele><time>2026-05-01T08:31:04.038Z</time></trkpt><trkpt lat="43.6522291" lon="10.4440949"><ele>0.0</ele><time>2026-05-01T08:31:05.037Z</time></trkpt><trkpt lat="43.6520721" lon="10.4441905"><ele>-0.3333333333333333</ele><time>2026-05-01T08:31:06.048Z</time></trkpt><trkpt lat="43.6519134" lon="10.4442906"><ele>-0.6666666666666666</ele><time>2026-05-01T08:31:07.042Z</time></trkpt><trkpt lat="43.65175" lon="10.4443914"><ele>-1.0</ele><time>2026-05-01T08:31:08.045Z</time></trkpt><trkpt lat="43.6515861" lon="10.4444952"><ele>-1.0</ele><time>2026-05-01T08:31:09.044Z</time></trkpt><trkpt lat="43.6514216" lon="10.4445995"><ele>-1.0</ele><time>2026-05-01T08:31:10.031Z</time></trkpt><trkpt lat="43.6512577" lon="10.4447003"><ele>-1.0</ele><time>2026-05-01T08:31:11.05Z</time></trkpt><trkpt lat="43.6510927" lon="10.4448052"><ele>-0.3333333333333333</ele><time>2026-05-01T08:31:12.051Z</time></trkpt><trkpt lat="43.6509238" lon="10.4449119"><ele>0.3333333333333333</ele><time>2026-05-01T08:31:13.033Z</time></trkpt><trkpt lat="43.6507519" lon="10.4450237"><ele>1.0</ele><time>2026-05-01T08:31:14.056Z</time></trkpt><trkpt lat="43.6505818" lon="10.4451272"><ele>1.0</ele><time>2026-05-01T08:31:15.042Z</time></trkpt><trkpt lat="43.6504092" lon="10.4452298"><ele>1.0</ele><time>2026-05-01T08:31:16.043Z</time></trkpt><trkpt lat="43.6502402" lon="10.4453383"><ele>1.0</ele><time>2026-05-01T08:31:17.032Z</time></trkpt><trkpt lat="43.6500714" lon="10.4454468"><ele>0.3333333333333333</ele><time>2026-05-01T08:31:18.048Z</time></trkpt><trkpt lat="43.6499035" lon="10.4455561"><ele>-0.3333333333333333</ele><time>2026-05-01T08:31:19.045Z</time></trkpt><trkpt lat="43.649735" lon="10.4456645"><ele>-1.0</ele><time>2026-05-01T08:31:20.044Z</time></trkpt><trkpt lat="43.6495652" lon="10.445768"><ele>-1.0</ele><time>2026-05-01T08:31:21.045Z</time></trkpt><trkpt lat="43.6493977" lon="10.4458774"><ele>-1.0</ele><time>2026-05-01T08:31:22.042Z</time></trkpt><trkpt lat="43.6492235" lon="10.4459884"><ele>-1.0</ele><time>2026-05-01T08:31:23.029Z</time></trkpt><trkpt lat="43.6490545" lon="10.4460943"><ele>-1.0</ele><time>2026-05-01T08:31:24.049Z</time></trkpt><trkpt lat="43.6488834" lon="10.4462018"><ele>-1.0</ele><time>2026-05-01T08:31:25.042Z</time></trkpt><trkpt lat="43.6487093" lon="10.4463094"><ele>-1.0</ele><time>2026-05-01T08:31:26.037Z</time></trkpt><trkpt lat="43.6485356" lon="10.4464166"><ele>-0.6666666666666666</ele><time>2026-05-01T08:31:27.042Z</time></trkpt><trkpt lat="43.6483591" lon="10.446529"><ele>-0.3333333333333333</ele><time>2026-05-01T08:31:28.041Z</time></trkpt><trkpt lat="43.648183" lon="10.446637"><ele>0.0</ele><time>2026-05-01T08:31:29.036Z</time></trkpt><trkpt lat="43.6480096" lon="10.4467447"><ele>0.0</ele><time>2026-05-01T08:31:30.049Z</time></trkpt><trkpt lat="43.6478378" lon="10.4468526"><ele>0.0</ele><time>2026-05-01T08:31:31.047Z</time></trkpt><trkpt lat="43.6476659" lon="10.4469623"><ele>0.0</ele><time>2026-05-01T08:31:32.058Z</time></trkpt><trkpt lat="43.6474956" lon="10.4470729"><ele>-0.3333333333333333</ele><time>2026-05-01T08:31:33.049Z</time></trkpt><trkpt lat="43.6473252" lon="10.4471851"><ele>-0.6666666666666666</ele><time>2026-05-01T08:31:34.043Z</time></trkpt><trkpt lat="43.6471427" lon="10.4472995"><ele>-1.0</ele><time>2026-05-01T08:31:35.049Z</time></trkpt><trkpt lat="43.6469525" lon="10.4474113"><ele>-1.0</ele><time>2026-05-01T08:31:36.042Z</time></trkpt><trkpt lat="43.6467719" lon="10.4475284"><ele>-1.0</ele><time>2026-05-01T08:31:37.043Z</time></trkpt><trkpt lat="43.6465898" lon="10.4476426"><ele>-1.0</ele><time>2026-05-01T08:31:38.046Z</time></trkpt><trkpt lat="43.6464164" lon="10.4477533"><ele>-1.0</ele><time>2026-05-01T08:31:39.044Z</time></trkpt><trkpt lat="43.6462548" lon="10.4478566"><ele>-1.0</ele><time>2026-05-01T08:31:40.036Z</time></trkpt><trkpt lat="43.6461051" lon="10.4479517"><ele>-1.0</ele><time>2026-05-01T08:31:41.043Z</time></trkpt><trkpt lat="43.6459646" lon="10.4480399"><ele>-0.5</ele><time>2026-05-01T08:31:42.057Z</time></trkpt><trkpt lat="43.6458303" lon="10.4481259"><ele>0.0</ele><time>2026-05-01T08:31:43.037Z</time></trkpt><trkpt lat="43.6456951" lon="10.4482087"><ele>0.5</ele><time>2026-05-01T08:31:44.035Z</time></trkpt><trkpt lat="43.6455703" lon="10.4482869"><ele>1.0</ele><time>2026-05-01T08:31:45.043Z</time></trkpt><trkpt lat="43.6454557" lon="10.4483682"><ele>1.0</ele><time>2026-05-01T08:31:46.051Z</time></trkpt><trkpt lat="43.6453418" lon="10.4484437"><ele>1.0</ele><time>2026-05-01T08:31:47.04Z</time></trkpt><trkpt lat="43.6452351" lon="10.4485115"><ele>1.0</ele><time>2026-05-01T08:31:48.036Z</time></trkpt><trkpt lat="43.64514" lon="10.4485704"><ele>1.0</ele><time>2026-05-01T08:31:49.031Z</time></trkpt><trkpt lat="43.6450608" lon="10.4486214"><ele>1.0</ele><time>2026-05-01T08:31:50.047Z</time></trkpt><trkpt lat="43.6449885" lon="10.4486669"><ele>1.1666666666666665</ele><time>2026-05-01T08:31:51.04Z</time></trkpt><trkpt lat="43.6449275" lon="10.4487083"><ele>1.3333333333333333</ele><time>2026-05-01T08:31:52.054Z</time></trkpt><trkpt lat="43.6448691" lon="10.448745"><ele>1.5</ele><time>2026-05-01T08:31:53.055Z</time></trkpt><trkpt lat="43.6447689" lon="10.4488008"><ele>1.6666666666666665</ele><time>2026-05-01T08:31:55.046Z</time></trkpt><trkpt lat="43.6447072" lon="10.4488451"><ele>1.8333333333333333</ele><time>2026-05-01T08:31:58.045Z</time></trkpt><trkpt lat="43.6446285" lon="10.4488719"><ele>2.0</ele><time>2026-05-01T08:32:02.045Z</time></trkpt><trkpt lat="43.6445647" lon="10.4489034"><ele>1.9999999999999998</ele><time>2026-05-01T08:32:04.037Z</time></trkpt><trkpt lat="43.6445062" lon="10.4489428"><ele>2.0</ele><time>2026-05-01T08:32:06.042Z</time></trkpt><trkpt lat="43.644451" lon="10.4489862"><ele>2.0</ele><time>2026-05-01T08:32:11.042Z</time></trkpt><trkpt lat="43.6443658" lon="10.4490295"><ele>2.0</ele><time>2026-05-01T08:32:32.037Z</time></trkpt><trkpt lat="43.6442322" lon="10.4490764"><ele>1.9999999999999998</ele><time>2026-05-01T08:32:34.046Z</time></trkpt><trkpt lat="43.6441631" lon="10.4491118"><ele>2.0</ele><time>2026-05-01T08:32:35.056Z</time></trkpt><trkpt lat="43.6440978" lon="10.4491528"><ele>2.2</ele><time>2026-05-01T08:32:36.03Z</time></trkpt><trkpt lat="43.6440322" lon="10.4492098"><ele>2.4000000000000004</ele><time>2026-05-01T08:32:37.044Z</time></trkpt><trkpt lat="43.6439547" lon="10.449282"><ele>2.5999999999999996</ele><time>2026-05-01T08:32:38.043Z</time></trkpt><trkpt lat="43.6438717" lon="10.4493587"><ele>2.8</ele><time>2026-05-01T08:32:39.042Z</time></trkpt><trkpt lat="43.6437693" lon="10.4494285"><ele>3.0</ele><time>2026-05-01T08:32:40.051Z</time></trkpt><trkpt lat="43.6436583" lon="10.4494977"><ele>2.75</ele><time>2026-05-01T08:32:41.05Z</time></trkpt><trkpt lat="43.6435369" lon="10.4495747"><ele>2.5</ele><time>2026-05-01T08:32:42.027Z</time></trkpt><trkpt lat="43.6434035" lon="10.4496655"><ele>2.25</ele><time>2026-05-01T08:32:43.04Z</time></trkpt><trkpt lat="43.6432561" lon="10.4497601"><ele>2.0</ele><time>2026-05-01T08:32:44.044Z</time></trkpt><trkpt lat="43.6431149" lon="10.4498503"><ele>2.0</ele><time>2026-05-01T08:32:45.052Z</time></trkpt><trkpt lat="43.6429642" lon="10.4499415"><ele>2.0</ele><time>2026-05-01T08:32:46.042Z</time></trkpt><trkpt lat="43.6428058" lon="10.4500421"><ele>2.0</ele><time>2026-05-01T08:32:47.042Z</time></trkpt><trkpt lat="43.6426443" lon="10.4501436"><ele>1.6666666666666665</ele><time>2026-05-01T08:32:48.051Z</time></trkpt><trkpt lat="43.6424761" lon="10.4502498"><ele>1.3333333333333333</ele><time>2026-05-01T08:32:49.047Z</time></trkpt><trkpt lat="43.6423095" lon="10.4503584"><ele>1.0</ele><time>2026-05-01T08:32:50.049Z</time></trkpt><trkpt lat="43.6421329" lon="10.4504697"><ele>0.6666666666666666</ele><time>2026-05-01T08:32:51.046Z</time></trkpt><trkpt lat="43.6419596" lon="10.4505792"><ele>0.3333333333333333</ele><time>2026-05-01T08:32:52.044Z</time></trkpt><trkpt lat="43.6417893" lon="10.450691"><ele>0.0</ele><time>2026-05-01T08:32:53.048Z</time></trkpt><trkpt lat="43.641617" lon="10.4507958"><ele>0.0</ele><time>2026-05-01T08:32:54.047Z</time></trkpt><trkpt lat="43.6414421" lon="10.4509082"><ele>0.0</ele><time>2026-05-01T08:32:55.047Z</time></trkpt><trkpt lat="43.6412637" lon="10.451027"><ele>0.0</ele><time>2026-05-01T08:32:56.046Z</time></trkpt><trkpt lat="43.6410801" lon="10.4511468"><ele>0.0</ele><time>2026-05-01T08:32:57.031Z</time></trkpt><trkpt lat="43.6408917" lon="10.4512653"><ele>0.0</ele><time>2026-05-01T08:32:58.041Z</time></trkpt><trkpt lat="43.6407012" lon="10.4513831"><ele>0.0</ele><time>2026-05-01T08:32:59.046Z</time></trkpt><trkpt lat="43.6405148" lon="10.4514999"><ele>0.0</ele><time>2026-05-01T08:33:00.045Z</time></trkpt><trkpt lat="43.6403288" lon="10.4516156"><ele>0.0</ele><time>2026-05-01T08:33:01.042Z</time></trkpt><trkpt lat="43.6401453" lon="10.4517279"><ele>0.0</ele><time>2026-05-01T08:33:02.052Z</time></trkpt><trkpt lat="43.6399623" lon="10.4518446"><ele>0.0</ele><time>2026-05-01T08:33:03.046Z</time></trkpt><trkpt lat="43.6397821" lon="10.4519608"><ele>0.0</ele><time>2026-05-01T08:33:04.038Z</time></trkpt><trkpt lat="43.6395996" lon="10.4520732"><ele>0.0</ele><time>2026-05-01T08:33:05.044Z</time></trkpt><trkpt lat="43.6394139" lon="10.4521876"><ele>0.0</ele><time>2026-05-01T08:33:06.037Z</time></trkpt><trkpt lat="43.6392334" lon="10.452302"><ele>0.0</ele><time>2026-05-01T08:33:07.04Z</time></trkpt><trkpt lat="43.6390495" lon="10.4524229"><ele>0.0</ele><time>2026-05-01T08:33:08.043Z</time></trkpt><trkpt lat="43.6388645" lon="10.4525444"><ele>0.0</ele><time>2026-05-01T08:33:09.037Z</time></trkpt><trkpt lat="43.6386744" lon="10.452663"><ele>0.0</ele><time>2026-05-01T08:33:10.036Z</time></trkpt><trkpt lat="43.6384877" lon="10.4527876"><ele>0.0</ele><time>2026-05-01T08:33:11.042Z</time></trkpt><trkpt lat="43.6383031" lon="10.4529034"><ele>0.0</ele><time>2026-05-01T08:33:12.045Z</time></trkpt><trkpt lat="43.638117" lon="10.4530178"><ele>0.0</ele><time>2026-05-01T08:33:13.041Z</time></trkpt><trkpt lat="43.6379347" lon="10.4531279"><ele>0.0</ele><time>2026-05-01T08:33:14.053Z</time></trkpt><trkpt lat="43.6377508" lon="10.4532493"><ele>0.0</ele><time>2026-05-01T08:33:15.041Z</time></trkpt><trkpt lat="43.6375684" lon="10.4533688"><ele>0.0</ele><time>2026-05-01T08:33:16.044Z</time></trkpt><trkpt lat="43.6373833" lon="10.4534872"><ele>0.0</ele><time>2026-05-01T08:33:17.055Z</time></trkpt><trkpt lat="43.6371994" lon="10.4536052"><ele>0.0</ele><time>2026-05-01T08:33:18.039Z</time></trkpt><trkpt lat="43.6370267" lon="10.4537153"><ele>0.0</ele><time>2026-05-01T08:33:19.044Z</time></trkpt><trkpt lat="43.6368603" lon="10.4538181"><ele>0.0</ele><time>2026-05-01T08:33:20.044Z</time></trkpt><trkpt lat="43.6366995" lon="10.4539194"><ele>0.3333333333333333</ele><time>2026-05-01T08:33:21.06Z</time></trkpt><trkpt lat="43.6365492" lon="10.4540154"><ele>0.6666666666666666</ele><time>2026-05-01T08:33:22.044Z</time></trkpt><trkpt lat="43.6364018" lon="10.4541102"><ele>1.0</ele><time>2026-05-01T08:33:23.046Z</time></trkpt><trkpt lat="43.6362527" lon="10.4542014"><ele>1.0</ele><time>2026-05-01T08:33:24.044Z</time></trkpt><trkpt lat="43.6361014" lon="10.4542977"><ele>1.0</ele><time>2026-05-01T08:33:25.039Z</time></trkpt><trkpt lat="43.6359482" lon="10.4543944"><ele>1.0</ele><time>2026-05-01T08:33:26.048Z</time></trkpt><trkpt lat="43.6357972" lon="10.454491"><ele>1.0</ele><time>2026-05-01T08:33:27.041Z</time></trkpt><trkpt lat="43.6356539" lon="10.4545788"><ele>1.0</ele><time>2026-05-01T08:33:28.041Z</time></trkpt><trkpt lat="43.6355222" lon="10.4546648"><ele>1.0</ele><time>2026-05-01T08:33:29.046Z</time></trkpt><trkpt lat="43.6353963" lon="10.4547494"><ele>1.0</ele><time>2026-05-01T08:33:30.045Z</time></trkpt><trkpt lat="43.6352732" lon="10.45483"><ele>1.0</ele><time>2026-05-01T08:33:31.041Z</time></trkpt><trkpt lat="43.635149" lon="10.4549124"><ele>1.0</ele><time>2026-05-01T08:33:32.043Z</time></trkpt><trkpt lat="43.6350222" lon="10.4549883"><ele>1.0</ele><time>2026-05-01T08:33:33.043Z</time></trkpt><trkpt lat="43.6349028" lon="10.4550654"><ele>1.0</ele><time>2026-05-01T08:33:34.04Z</time></trkpt><trkpt lat="43.634784" lon="10.4551314"><ele>1.0</ele><time>2026-05-01T08:33:35.044Z</time></trkpt><trkpt lat="43.6346623" lon="10.4552011"><ele>1.0</ele><time>2026-05-01T08:33:36.038Z</time></trkpt><trkpt lat="43.6345369" lon="10.4552851"><ele>1.0</ele><time>2026-05-01T08:33:37.044Z</time></trkpt><trkpt lat="43.634413" lon="10.4553647"><ele>1.0</ele><time>2026-05-01T08:33:38.047Z</time></trkpt><trkpt lat="43.6342993" lon="10.4554374"><ele>1.5</ele><time>2026-05-01T08:33:39.043Z</time></trkpt><trkpt lat="43.6341808" lon="10.4555161"><ele>2.0</ele><time>2026-05-01T08:33:40.032Z</time></trkpt><trkpt lat="43.634054" lon="10.4555961"><ele>2.5</ele><time>2026-05-01T08:33:41.058Z</time></trkpt><trkpt lat="43.6339336" lon="10.455672"><ele>3.0</ele><time>2026-05-01T08:33:42.05Z</time></trkpt><trkpt lat="43.63381" lon="10.4557417"><ele>3.0</ele><time>2026-05-01T08:33:43.045Z</time></trkpt><trkpt lat="43.633681" lon="10.45582"><ele>3.0</ele><time>2026-05-01T08:33:44.04Z</time></trkpt><trkpt lat="43.6335469" lon="10.4559041"><ele>3.0</ele><time>2026-05-01T08:33:45.037Z</time></trkpt><trkpt lat="43.6334172" lon="10.4559827"><ele>3.0</ele><time>2026-05-01T08:33:46.041Z</time></trkpt><trkpt lat="43.6332944" lon="10.4560619"><ele>2.5</ele><time>2026-05-01T08:33:47.057Z</time></trkpt><trkpt lat="43.6331704" lon="10.4561446"><ele>2.0</ele><time>2026-05-01T08:33:48.045Z</time></trkpt><trkpt lat="43.6330512" lon="10.4562321"><ele>1.5</ele><time>2026-05-01T08:33:49.033Z</time></trkpt><trkpt lat="43.6329255" lon="10.4563262"><ele>1.0</ele><time>2026-05-01T08:33:50.033Z</time></trkpt><trkpt lat="43.6327963" lon="10.4564198"><ele>1.0</ele><time>2026-05-01T08:33:51.051Z</time></trkpt><trkpt lat="43.6326665" lon="10.4565082"><ele>1.0</ele><time>2026-05-01T08:33:52.029Z</time></trkpt><trkpt lat="43.6325263" lon="10.456594"><ele>1.0</ele><time>2026-05-01T08:33:53.04Z</time></trkpt><trkpt lat="43.6323876" lon="10.4566842"><ele>1.0</ele><time>2026-05-01T08:33:54.037Z</time></trkpt><trkpt lat="43.6322562" lon="10.4567663"><ele>1.0</ele><time>2026-05-01T08:33:55.039Z</time></trkpt><trkpt lat="43.6321223" lon="10.4568497"><ele>1.0</ele><time>2026-05-01T08:33:56.038Z</time></trkpt><trkpt lat="43.6319792" lon="10.4569425"><ele>1.0</ele><time>2026-05-01T08:33:57.04Z</time></trkpt><trkpt lat="43.6318378" lon="10.4570346"><ele>1.25</ele><time>2026-05-01T08:33:58.042Z</time></trkpt><trkpt lat="43.6317022" lon="10.4571228"><ele>1.5</ele><time>2026-05-01T08:33:59.041Z</time></trkpt><trkpt lat="43.6315688" lon="10.4572062"><ele>1.75</ele><time>2026-05-01T08:34:00.04Z</time></trkpt><trkpt lat="43.6314369" lon="10.4572931"><ele>2.0</ele><time>2026-05-01T08:34:01.05Z</time></trkpt><trkpt lat="43.6312947" lon="10.4573745"><ele>2.0</ele><time>2026-05-01T08:34:02.052Z</time></trkpt><trkpt lat="43.6311597" lon="10.4574543"><ele>2.0</ele><time>2026-05-01T08:34:03.035Z</time></trkpt><trkpt lat="43.6310286" lon="10.4575356"><ele>2.0</ele><time>2026-05-01T08:34:04.041Z</time></trkpt><trkpt lat="43.6309035" lon="10.4576186"><ele>2.0</ele><time>2026-05-01T08:34:05.028Z</time></trkpt><trkpt lat="43.630782" lon="10.4576938"><ele>2.0</ele><time>2026-05-01T08:34:06.043Z</time></trkpt><trkpt lat="43.6306617" lon="10.4577685"><ele>2.0</ele><time>2026-05-01T08:34:07.045Z</time></trkpt><trkpt lat="43.6305349" lon="10.4578528"><ele>2.0</ele><time>2026-05-01T08:34:08.039Z</time></trkpt><trkpt lat="43.6304033" lon="10.4579365"><ele>2.0</ele><time>2026-05-01T08:34:09.045Z</time></trkpt><trkpt lat="43.6302637" lon="10.458027"><ele>2.0</ele><time>2026-05-01T08:34:10.055Z</time></trkpt><trkpt lat="43.6301173" lon="10.458113"><ele>2.0</ele><time>2026-05-01T08:34:11.051Z</time></trkpt><trkpt lat="43.6299628" lon="10.4582041"><ele>2.0</ele><time>2026-05-01T08:34:12.042Z</time></trkpt><trkpt lat="43.6297819" lon="10.458314"><ele>2.0</ele><time>2026-05-01T08:34:13.032Z</time></trkpt><trkpt lat="43.6295907" lon="10.4584324"><ele>2.0</ele><time>2026-05-01T08:34:14.05Z</time></trkpt><trkpt lat="43.6294251" lon="10.4585373"><ele>2.0</ele><time>2026-05-01T08:34:15.037Z</time></trkpt><trkpt lat="43.6292672" lon="10.4586297"><ele>1.75</ele><time>2026-05-01T08:34:16.045Z</time></trkpt><trkpt lat="43.6291245" lon="10.4587148"><ele>1.5</ele><time>2026-05-01T08:34:17.042Z</time></trkpt><trkpt lat="43.6289981" lon="10.4587922"><ele>1.25</ele><time>2026-05-01T08:34:18.055Z</time></trkpt><trkpt lat="43.6288798" lon="10.4588674"><ele>1.0</ele><time>2026-05-01T08:34:19.043Z</time></trkpt><trkpt lat="43.6287634" lon="10.4589416"><ele>1.0</ele><time>2026-05-01T08:34:20.043Z</time></trkpt><trkpt lat="43.6286406" lon="10.4590182"><ele>1.0</ele><time>2026-05-01T08:34:21.048Z</time></trkpt><trkpt lat="43.6285162" lon="10.4590953"><ele>1.0</ele><time>2026-05-01T08:34:22.05Z</time></trkpt><trkpt lat="43.6283956" lon="10.4591718"><ele>1.0</ele><time>2026-05-01T08:34:23.031Z</time></trkpt><trkpt lat="43.6282723" lon="10.4592528"><ele>1.0</ele><time>2026-05-01T08:34:24.053Z</time></trkpt><trkpt lat="43.62815" lon="10.4593347"><ele>1.0</ele><time>2026-05-01T08:34:25.037Z</time></trkpt><trkpt lat="43.6280269" lon="10.4594176"><ele>1.0</ele><time>2026-05-01T08:34:26.046Z</time></trkpt><trkpt lat="43.6279035" lon="10.4594993"><ele>1.0</ele><time>2026-05-01T08:34:27.043Z</time></trkpt><trkpt lat="43.6277806" lon="10.4595823"><ele>1.25</ele><time>2026-05-01T08:34:28.049Z</time></trkpt><trkpt lat="43.6276549" lon="10.4596664"><ele>1.5</ele><time>2026-05-01T08:34:29.041Z</time></trkpt><trkpt lat="43.6275233" lon="10.4597463"><ele>1.75</ele><time>2026-05-01T08:34:30.056Z</time></trkpt><trkpt lat="43.6273885" lon="10.4598298"><ele>2.0</ele><time>2026-05-01T08:34:31.045Z</time></trkpt><trkpt lat="43.6272541" lon="10.4599131"><ele>2.0</ele><time>2026-05-01T08:34:32.042Z</time></trkpt><trkpt lat="43.6271175" lon="10.4599988"><ele>2.0</ele><time>2026-05-01T08:34:33.048Z</time></trkpt><trkpt lat="43.6269822" lon="10.4600765"><ele>2.0</ele><time>2026-05-01T08:34:34.045Z</time></trkpt><trkpt lat="43.626848" lon="10.4601568"><ele>2.0</ele><time>2026-05-01T08:34:35.052Z</time></trkpt><trkpt lat="43.626719" lon="10.4602401"><ele>2.0</ele><time>2026-05-01T08:34:36.049Z</time></trkpt><trkpt lat="43.6265884" lon="10.460323"><ele>2.0</ele><time>2026-05-01T08:34:37.044Z</time></trkpt><trkpt lat="43.6264639" lon="10.4604129"><ele>2.0</ele><time>2026-05-01T08:34:38.045Z</time></trkpt><trkpt lat="43.6263336" lon="10.4604972"><ele>2.0</ele><time>2026-05-01T08:34:39.052Z</time></trkpt><trkpt lat="43.6262067" lon="10.4605788"><ele>1.75</ele><time>2026-05-01T08:34:40.048Z</time></trkpt><trkpt lat="43.6260873" lon="10.4606541"><ele>1.5</ele><time>2026-05-01T08:34:41.047Z</time></trkpt><trkpt lat="43.6259639" lon="10.4607351"><ele>1.25</ele><time>2026-05-01T08:34:42.044Z</time></trkpt><trkpt lat="43.6258426" lon="10.4608133"><ele>1.0</ele><time>2026-05-01T08:34:43.049Z</time></trkpt><trkpt lat="43.6257252" lon="10.4608904"><ele>1.0</ele><time>2026-05-01T08:34:44.053Z</time></trkpt><trkpt lat="43.6256107" lon="10.4609728"><ele>1.0</ele><time>2026-05-01T08:34:45.04Z</time></trkpt><trkpt lat="43.6255001" lon="10.4610493"><ele>1.0</ele><time>2026-05-01T08:34:46.038Z</time></trkpt><trkpt lat="43.6253872" lon="10.4611226"><ele>1.0</ele><time>2026-05-01T08:34:47.042Z</time></trkpt><trkpt lat="43.6252735" lon="10.4611994"><ele>1.25</ele><time>2026-05-01T08:34:48.033Z</time></trkpt><trkpt lat="43.6251577" lon="10.4612772"><ele>1.5</ele><time>2026-05-01T08:34:49.05Z</time></trkpt><trkpt lat="43.6250397" lon="10.4613541"><ele>1.75</ele><time>2026-05-01T08:34:50.04Z</time></trkpt><trkpt lat="43.6249235" lon="10.4614298"><ele>2.0</ele><time>2026-05-01T08:34:51.045Z</time></trkpt><trkpt lat="43.6248073" lon="10.4615062"><ele>2.5</ele><time>2026-05-01T08:34:52.04Z</time></trkpt><trkpt lat="43.6246892" lon="10.4615794"><ele>3.0</ele><time>2026-05-01T08:34:53.044Z</time></trkpt><trkpt lat="43.6245752" lon="10.4616489"><ele>3.5</ele><time>2026-05-01T08:34:54.044Z</time></trkpt><trkpt lat="43.6244597" lon="10.4617219"><ele>4.0</ele><time>2026-05-01T08:34:55.046Z</time></trkpt><trkpt lat="43.6243444" lon="10.4617911"><ele>4.75</ele><time>2026-05-01T08:34:56.047Z</time></trkpt><trkpt lat="43.6242227" lon="10.4618646"><ele>5.5</ele><time>2026-05-01T08:34:57.042Z</time></trkpt><trkpt lat="43.6241096" lon="10.4619328"><ele>6.25</ele><time>2026-05-01T08:34:58.046Z</time></trkpt><trkpt lat="43.6240027" lon="10.4619977"><ele>7.0</ele><time>2026-05-01T08:34:59.047Z</time></trkpt><trkpt lat="43.6238924" lon="10.4620649"><ele>6.8</ele><time>2026-05-01T08:35:00.045Z</time></trkpt><trkpt lat="43.6237861" lon="10.4621325"><ele>6.6</ele><time>2026-05-01T08:35:01.041Z</time></trkpt><trkpt lat="43.6236851" lon="10.4621977"><ele>6.3999999999999995</ele><time>2026-05-01T08:35:02.05Z</time></trkpt><trkpt lat="43.6235862" lon="10.4622622"><ele>6.199999999999999</ele><time>2026-05-01T08:35:03.035Z</time></trkpt><trkpt lat="43.6234924" lon="10.4623238"><ele>6.0</ele><time>2026-05-01T08:35:04.041Z</time></trkpt><trkpt lat="43.6233984" lon="10.4623852"><ele>6.0</ele><time>2026-05-01T08:35:05.038Z</time></trkpt><trkpt lat="43.6233031" lon="10.4624403"><ele>6.0</ele><time>2026-05-01T08:35:06.042Z</time></trkpt><trkpt lat="43.6232101" lon="10.4625017"><ele>6.0</ele><time>2026-05-01T08:35:07.045Z</time></trkpt><trkpt lat="43.6231172" lon="10.4625608"><ele>6.0</ele><time>2026-05-01T08:35:08.042Z</time></trkpt><trkpt lat="43.6230215" lon="10.4626199"><ele>6.0</ele><time>2026-05-01T08:35:09.041Z</time></trkpt><trkpt lat="43.6229174" lon="10.4626852"><ele>5.75</ele><time>2026-05-01T08:35:10.045Z</time></trkpt><trkpt lat="43.6228069" lon="10.4627491"><ele>5.5</ele><time>2026-05-01T08:35:11.041Z</time></trkpt><trkpt lat="43.6226938" lon="10.4628172"><ele>5.25</ele><time>2026-05-01T08:35:12.035Z</time></trkpt><trkpt lat="43.6225802" lon="10.4628872"><ele>5.0</ele><time>2026-05-01T08:35:13.053Z</time></trkpt><trkpt lat="43.6224611" lon="10.462963"><ele>5.0</ele><time>2026-05-01T08:35:14.037Z</time></trkpt><trkpt lat="43.6223362" lon="10.4630441"><ele>5.0</ele><time>2026-05-01T08:35:15.046Z</time></trkpt><trkpt lat="43.6222064" lon="10.4631226"><ele>5.0</ele><time>2026-05-01T08:35:16.041Z</time></trkpt><trkpt lat="43.6220755" lon="10.4632024"><ele>5.0</ele><time>2026-05-01T08:35:17.048Z</time></trkpt><trkpt lat="43.6219449" lon="10.4632773"><ele>5.0</ele><time>2026-05-01T08:35:18.044Z</time></trkpt><trkpt lat="43.6218222" lon="10.4633525"><ele>5.0</ele><time>2026-05-01T08:35:19.047Z</time></trkpt><trkpt lat="43.6216977" lon="10.4634154"><ele>5.0</ele><time>2026-05-01T08:35:20.051Z</time></trkpt><trkpt lat="43.6215658" lon="10.4634705"><ele>5.0</ele><time>2026-05-01T08:35:21.034Z</time></trkpt><trkpt lat="43.6214407" lon="10.4635255"><ele>5.0</ele><time>2026-05-01T08:35:22.045Z</time></trkpt><trkpt lat="43.6213118" lon="10.4635772"><ele>5.0</ele><time>2026-05-01T08:35:23.042Z</time></trkpt><trkpt lat="43.6211813" lon="10.4636371"><ele>5.0</ele><time>2026-05-01T08:35:24.041Z</time></trkpt><trkpt lat="43.6210508" lon="10.4636999"><ele>5.0</ele><time>2026-05-01T08:35:25.039Z</time></trkpt><trkpt lat="43.6209209" lon="10.4637602"><ele>5.5</ele><time>2026-05-01T08:35:26.043Z</time></trkpt><trkpt lat="43.6207998" lon="10.4638151"><ele>6.0</ele><time>2026-05-01T08:35:27.04Z</time></trkpt><trkpt lat="43.6206894" lon="10.4638679"><ele>6.5</ele><time>2026-05-01T08:35:28.049Z</time></trkpt><trkpt lat="43.6205835" lon="10.4639154"><ele>7.0</ele><time>2026-05-01T08:35:29.042Z</time></trkpt><trkpt lat="43.6204823" lon="10.4639625"><ele>7.0</ele><time>2026-05-01T08:35:30.049Z</time></trkpt><trkpt lat="43.6203785" lon="10.4640116"><ele>7.0</ele><time>2026-05-01T08:35:31.046Z</time></trkpt><trkpt lat="43.6202668" lon="10.4640629"><ele>7.0</ele><time>2026-05-01T08:35:32.044Z</time></trkpt><trkpt lat="43.6201541" lon="10.4641216"><ele>7.0</ele><time>2026-05-01T08:35:33.043Z</time></trkpt><trkpt lat="43.6200436" lon="10.4641856"><ele>6.0</ele><time>2026-05-01T08:35:34.068Z</time></trkpt><trkpt lat="43.6199374" lon="10.4642651"><ele>5.0</ele><time>2026-05-01T08:35:35.039Z</time></trkpt><trkpt lat="43.6198319" lon="10.4643663"><ele>4.0</ele><time>2026-05-01T08:35:36.051Z</time></trkpt><trkpt lat="43.6197363" lon="10.4644779"><ele>3.0</ele><time>2026-05-01T08:35:37.042Z</time></trkpt><trkpt lat="43.6196464" lon="10.4646113"><ele>3.25</ele><time>2026-05-01T08:35:38.042Z</time></trkpt><trkpt lat="43.6195552" lon="10.4647523"><ele>3.5</ele><time>2026-05-01T08:35:39.036Z</time></trkpt><trkpt lat="43.6194685" lon="10.464907"><ele>3.75</ele><time>2026-05-01T08:35:40.053Z</time></trkpt><trkpt lat="43.6193827" lon="10.4650654"><ele>4.0</ele><time>2026-05-01T08:35:41.043Z</time></trkpt><trkpt lat="43.6192945" lon="10.4652341"><ele>4.0</ele><time>2026-05-01T08:35:42.044Z</time></trkpt><trkpt lat="43.6192066" lon="10.4653975"><ele>4.0</ele><time>2026-05-01T08:35:43.039Z</time></trkpt><trkpt lat="43.6191274" lon="10.4655543"><ele>4.0</ele><time>2026-05-01T08:35:44.044Z</time></trkpt><trkpt lat="43.6190599" lon="10.4657146"><ele>4.0</ele><time>2026-05-01T08:35:45.048Z</time></trkpt><trkpt lat="43.6189975" lon="10.4658772"><ele>3.75</ele><time>2026-05-01T08:35:46.044Z</time></trkpt><trkpt lat="43.6189395" lon="10.4660413"><ele>3.5</ele><time>2026-05-01T08:35:47.038Z</time></trkpt><trkpt lat="43.6188814" lon="10.466205"><ele>3.25</ele><time>2026-05-01T08:35:48.05Z</time></trkpt><trkpt lat="43.6188239" lon="10.4663696"><ele>3.0</ele><time>2026-05-01T08:35:49.041Z</time></trkpt><trkpt lat="43.6187685" lon="10.4665366"><ele>3.25</ele><time>2026-05-01T08:35:50.038Z</time></trkpt><trkpt lat="43.6187176" lon="10.4667128"><ele>3.5</ele><time>2026-05-01T08:35:51.044Z</time></trkpt><trkpt lat="43.6186682" lon="10.4668821"><ele>3.75</ele><time>2026-05-01T08:35:52.036Z</time></trkpt><trkpt lat="43.6186279" lon="10.4670617"><ele>4.0</ele><time>2026-05-01T08:35:53.037Z</time></trkpt><trkpt lat="43.6185837" lon="10.4672333"><ele>4.0</ele><time>2026-05-01T08:35:54.035Z</time></trkpt><trkpt lat="43.6185338" lon="10.4674006"><ele>4.0</ele><time>2026-05-01T08:35:55.048Z</time></trkpt><trkpt lat="43.6184762" lon="10.4675663"><ele>4.0</ele><time>2026-05-01T08:35:56.042Z</time></trkpt><trkpt lat="43.6184115" lon="10.4677332"><ele>4.0</ele><time>2026-05-01T08:35:57.03Z</time></trkpt><trkpt lat="43.6183434" lon="10.4678979"><ele>4.25</ele><time>2026-05-01T08:35:58.035Z</time></trkpt><trkpt lat="43.6182725" lon="10.4680694"><ele>4.5</ele><time>2026-05-01T08:35:59.038Z</time></trkpt><trkpt lat="43.618195" lon="10.4682423"><ele>4.75</ele><time>2026-05-01T08:36:00.042Z</time></trkpt><trkpt lat="43.6181191" lon="10.4684193"><ele>5.0</ele><time>2026-05-01T08:36:01.039Z</time></trkpt><trkpt lat="43.6180403" lon="10.468596"><ele>5.0</ele><time>2026-05-01T08:36:02.049Z</time></trkpt><trkpt lat="43.6179707" lon="10.468756"><ele>5.0</ele><time>2026-05-01T08:36:03.043Z</time></trkpt><trkpt lat="43.6179113" lon="10.4688895"><ele>5.0</ele><time>2026-05-01T08:36:04.042Z</time></trkpt><trkpt lat="43.6178546" lon="10.4690121"><ele>5.0</ele><time>2026-05-01T08:36:05.053Z</time></trkpt><trkpt lat="43.6177947" lon="10.4691219"><ele>5.2</ele><time>2026-05-01T08:36:06.048Z</time></trkpt><trkpt lat="43.6177303" lon="10.4692269"><ele>5.4</ele><time>2026-05-01T08:36:07.047Z</time></trkpt><trkpt lat="43.6176584" lon="10.4693364"><ele>5.6</ele><time>2026-05-01T08:36:08.037Z</time></trkpt><trkpt lat="43.6175717" lon="10.4694441"><ele>5.8</ele><time>2026-05-01T08:36:09.035Z</time></trkpt><trkpt lat="43.6174737" lon="10.4695529"><ele>6.0</ele><time>2026-05-01T08:36:10.054Z</time></trkpt><trkpt lat="43.6173626" lon="10.4696602"><ele>6.0</ele><time>2026-05-01T08:36:11.046Z</time></trkpt><trkpt lat="43.6172376" lon="10.4697709"><ele>6.0</ele><time>2026-05-01T08:36:12.037Z</time></trkpt><trkpt lat="43.6171064" lon="10.4698726"><ele>6.0</ele><time>2026-05-01T08:36:13.049Z</time></trkpt><trkpt lat="43.6169728" lon="10.4699608"><ele>6.0</ele><time>2026-05-01T08:36:14.041Z</time></trkpt><trkpt lat="43.616846" lon="10.4700269"><ele>6.0</ele><time>2026-05-01T08:36:15.041Z</time></trkpt><trkpt lat="43.6167183" lon="10.470084"><ele>6.0</ele><time>2026-05-01T08:36:16.048Z</time></trkpt><trkpt lat="43.6165875" lon="10.4701322"><ele>6.0</ele><time>2026-05-01T08:36:17.042Z</time></trkpt><trkpt lat="43.6164518" lon="10.4701771"><ele>6.0</ele><time>2026-05-01T08:36:18.034Z</time></trkpt><trkpt lat="43.6163149" lon="10.4702266"><ele>6.0</ele><time>2026-05-01T08:36:19.047Z</time></trkpt><trkpt lat="43.6161714" lon="10.4702737"><ele>6.0</ele><time>2026-05-01T08:36:20.049Z</time></trkpt><trkpt lat="43.6160229" lon="10.4703218"><ele>6.0</ele><time>2026-05-01T08:36:21.049Z</time></trkpt><trkpt lat="43.6158677" lon="10.4703743"><ele>6.333333333333334</ele><time>2026-05-01T08:36:22.037Z</time></trkpt><trkpt lat="43.6157082" lon="10.4704424"><ele>6.666666666666667</ele><time>2026-05-01T08:36:23.047Z</time></trkpt><trkpt lat="43.6155447" lon="10.4705041"><ele>7.0</ele><time>2026-05-01T08:36:24.042Z</time></trkpt><trkpt lat="43.6153768" lon="10.4705563"><ele>7.0</ele><time>2026-05-01T08:36:25.04Z</time></trkpt><trkpt lat="43.6152062" lon="10.470614"><ele>7.0</ele><time>2026-05-01T08:36:26.034Z</time></trkpt><trkpt lat="43.615043" lon="10.4706685"><ele>7.0</ele><time>2026-05-01T08:36:27.037Z</time></trkpt><trkpt lat="43.6148779" lon="10.4707239"><ele>7.0</ele><time>2026-05-01T08:36:28.037Z</time></trkpt><trkpt lat="43.6147155" lon="10.4707785"><ele>7.0</ele><time>2026-05-01T08:36:29.042Z</time></trkpt><trkpt lat="43.6145653" lon="10.4708324"><ele>7.0</ele><time>2026-05-01T08:36:30.04Z</time></trkpt><trkpt lat="43.6144284" lon="10.4708823"><ele>6.5</ele><time>2026-05-01T08:36:31.043Z</time></trkpt><trkpt lat="43.6142935" lon="10.4709391"><ele>6.0</ele><time>2026-05-01T08:36:32.038Z</time></trkpt><trkpt lat="43.6141531" lon="10.4709923"><ele>5.5</ele><time>2026-05-01T08:36:33.036Z</time></trkpt><trkpt lat="43.6140137" lon="10.4710481"><ele>5.0</ele><time>2026-05-01T08:36:34.04Z</time></trkpt><trkpt lat="43.6138716" lon="10.4711075"><ele>5.0</ele><time>2026-05-01T08:36:35.04Z</time></trkpt><trkpt lat="43.6137337" lon="10.4711704"><ele>5.0</ele><time>2026-05-01T08:36:36.045Z</time></trkpt><trkpt lat="43.6135904" lon="10.4712398"><ele>5.0</ele><time>2026-05-01T08:36:37.039Z</time></trkpt><trkpt lat="43.6134428" lon="10.4713055"><ele>5.0</ele><time>2026-05-01T08:36:38.055Z</time></trkpt><trkpt lat="43.6132917" lon="10.471373"><ele>5.0</ele><time>2026-05-01T08:36:39.042Z</time></trkpt><trkpt lat="43.6131463" lon="10.4714456"><ele>5.0</ele><time>2026-05-01T08:36:40.039Z</time></trkpt><trkpt lat="43.6130071" lon="10.471517"><ele>5.0</ele><time>2026-05-01T08:36:41.052Z</time></trkpt><trkpt lat="43.6128815" lon="10.4715804"><ele>5.0</ele><time>2026-05-01T08:36:42.051Z</time></trkpt><trkpt lat="43.6127628" lon="10.4716488"><ele>5.0</ele><time>2026-05-01T08:36:43.041Z</time></trkpt><trkpt lat="43.6126395" lon="10.4717182"><ele>5.0</ele><time>2026-05-01T08:36:44.036Z</time></trkpt><trkpt lat="43.612513" lon="10.4717805"><ele>4.75</ele><time>2026-05-01T08:36:45.039Z</time></trkpt><trkpt lat="43.6123909" lon="10.4718464"><ele>4.5</ele><time>2026-05-01T08:36:46.045Z</time></trkpt><trkpt lat="43.6122638" lon="10.4719121"><ele>4.25</ele><time>2026-05-01T08:36:47.051Z</time></trkpt><trkpt lat="43.612141" lon="10.4719767"><ele>4.0</ele><time>2026-05-01T08:36:48.046Z</time></trkpt><trkpt lat="43.6120158" lon="10.4720426"><ele>3.75</ele><time>2026-05-01T08:36:49.054Z</time></trkpt><trkpt lat="43.6118903" lon="10.4721034"><ele>3.5</ele><time>2026-05-01T08:36:50.051Z</time></trkpt><trkpt lat="43.6117684" lon="10.4721668"><ele>3.25</ele><time>2026-05-01T08:36:51.038Z</time></trkpt><trkpt lat="43.6116443" lon="10.4722308"><ele>3.0</ele><time>2026-05-01T08:36:52.038Z</time></trkpt><trkpt lat="43.6115221" lon="10.4722934"><ele>3.5</ele><time>2026-05-01T08:36:53.038Z</time></trkpt><trkpt lat="43.6113968" lon="10.4723559"><ele>4.0</ele><time>2026-05-01T08:36:54.044Z</time></trkpt><trkpt lat="43.6112713" lon="10.4724188"><ele>4.5</ele><time>2026-05-01T08:36:55.045Z</time></trkpt><trkpt lat="43.6111434" lon="10.4724759"><ele>5.0</ele><time>2026-05-01T08:36:56.051Z</time></trkpt><trkpt lat="43.6110111" lon="10.4725211"><ele>5.0</ele><time>2026-05-01T08:36:57.035Z</time></trkpt><trkpt lat="43.6108795" lon="10.4725579"><ele>5.0</ele><time>2026-05-01T08:36:58.042Z</time></trkpt><trkpt lat="43.6107579" lon="10.4725828"><ele>5.0</ele><time>2026-05-01T08:36:59.041Z</time></trkpt><trkpt lat="43.6106407" lon="10.4726034"><ele>5.0</ele><time>2026-05-01T08:37:00.055Z</time></trkpt><trkpt lat="43.6105213" lon="10.4726278"><ele>5.0</ele><time>2026-05-01T08:37:01.042Z</time></trkpt><trkpt lat="43.6103986" lon="10.4726464"><ele>5.0</ele><time>2026-05-01T08:37:02.046Z</time></trkpt><trkpt lat="43.6102777" lon="10.4726791"><ele>5.0</ele><time>2026-05-01T08:37:03.036Z</time></trkpt><trkpt lat="43.6101526" lon="10.4727175"><ele>5.0</ele><time>2026-05-01T08:37:04.038Z</time></trkpt><trkpt lat="43.610036" lon="10.4727518"><ele>4.8</ele><time>2026-05-01T08:37:05.05Z</time></trkpt><trkpt lat="43.6099298" lon="10.4727942"><ele>4.6</ele><time>2026-05-01T08:37:06.037Z</time></trkpt><trkpt lat="43.6098277" lon="10.4728373"><ele>4.4</ele><time>2026-05-01T08:37:07.05Z</time></trkpt><trkpt lat="43.6097232" lon="10.4728928"><ele>4.2</ele><time>2026-05-01T08:37:08.042Z</time></trkpt><trkpt lat="43.6096144" lon="10.472949"><ele>4.0</ele><time>2026-05-01T08:37:09.042Z</time></trkpt><trkpt lat="43.6095118" lon="10.4730041"><ele>4.4</ele><time>2026-05-01T08:37:10.048Z</time></trkpt><trkpt lat="43.6094291" lon="10.4730568"><ele>4.800000000000001</ele><time>2026-05-01T08:37:11.042Z</time></trkpt><trkpt lat="43.6093749" lon="10.4731191"><ele>5.199999999999999</ele><time>2026-05-01T08:37:12.042Z</time></trkpt><trkpt lat="43.6093508" lon="10.4732038"><ele>5.6</ele><time>2026-05-01T08:37:13.039Z</time></trkpt><trkpt lat="43.6093786" lon="10.4733633"><ele>6.0</ele><time>2026-05-01T08:37:15.048Z</time></trkpt><trkpt lat="43.6094895" lon="10.4734608"><ele>6.0</ele><time>2026-05-01T08:37:17.039Z</time></trkpt><trkpt lat="43.6095747" lon="10.4734805"><ele>6.0</ele><time>2026-05-01T08:37:18.046Z</time></trkpt><trkpt lat="43.6096854" lon="10.4734842"><ele>6.0</ele><time>2026-05-01T08:37:19.053Z</time></trkpt><trkpt lat="43.6098107" lon="10.4734931"><ele>6.0</ele><time>2026-05-01T08:37:20.027Z</time></trkpt><trkpt lat="43.6099425" lon="10.4735301"><ele>6.0</ele><time>2026-05-01T08:37:21.047Z</time></trkpt><trkpt lat="43.6100642" lon="10.4736091"><ele>6.0</ele><time>2026-05-01T08:37:22.034Z</time></trkpt><trkpt lat="43.6101711" lon="10.4737222"><ele>6.0</ele><time>2026-05-01T08:37:23.05Z</time></trkpt><trkpt lat="43.6102817" lon="10.4738682"><ele>6.0</ele><time>2026-05-01T08:37:24.041Z</time></trkpt><trkpt lat="43.6103844" lon="10.4740294"><ele>6.75</ele><time>2026-05-01T08:37:25.038Z</time></trkpt><trkpt lat="43.6104856" lon="10.4741953"><ele>7.5</ele><time>2026-05-01T08:37:26.04Z</time></trkpt><trkpt lat="43.6105656" lon="10.4743601"><ele>8.25</ele><time>2026-05-01T08:37:27.039Z</time></trkpt><trkpt lat="43.6106224" lon="10.4745141"><ele>9.0</ele><time>2026-05-01T08:37:28.055Z</time></trkpt><trkpt lat="43.6106529" lon="10.4746768"><ele>9.25</ele><time>2026-05-01T08:37:29.024Z</time></trkpt><trkpt lat="43.6106602" lon="10.4748611"><ele>9.5</ele><time>2026-05-01T08:37:30.045Z</time></trkpt><trkpt lat="43.61065" lon="10.4750558"><ele>9.75</ele><time>2026-05-01T08:37:31.044Z</time></trkpt><trkpt lat="43.6106166" lon="10.4752609"><ele>10.0</ele><time>2026-05-01T08:37:32.056Z</time></trkpt><trkpt lat="43.6105776" lon="10.4754811"><ele>10.0</ele><time>2026-05-01T08:37:33.041Z</time></trkpt><trkpt lat="43.6105301" lon="10.4757117"><ele>10.0</ele><time>2026-05-01T08:37:34.037Z</time></trkpt><trkpt lat="43.6104905" lon="10.4759504"><ele>10.0</ele><time>2026-05-01T08:37:35.041Z</time></trkpt><trkpt lat="43.6104494" lon="10.476197"><ele>11.0</ele><time>2026-05-01T08:37:36.046Z</time></trkpt><trkpt lat="43.61043" lon="10.476447"><ele>12.0</ele><time>2026-05-01T08:37:37.039Z</time></trkpt><trkpt lat="43.6104315" lon="10.4767118"><ele>13.0</ele><time>2026-05-01T08:37:38.041Z</time></trkpt><trkpt lat="43.6104624" lon="10.476969"><ele>13.333333333333332</ele><time>2026-05-01T08:37:39.046Z</time></trkpt><trkpt lat="43.6105101" lon="10.477205"><ele>13.666666666666668</ele><time>2026-05-01T08:37:40.044Z</time></trkpt><trkpt lat="43.6105644" lon="10.4774419"><ele>14.0</ele><time>2026-05-01T08:37:41.037Z</time></trkpt><trkpt lat="43.6106067" lon="10.4776713"><ele>14.0</ele><time>2026-05-01T08:37:42.043Z</time></trkpt><trkpt lat="43.6106345" lon="10.4778969"><ele>14.0</ele><time>2026-05-01T08:37:43.027Z</time></trkpt><trkpt lat="43.6106488" lon="10.4781212"><ele>14.0</ele><time>2026-05-01T08:37:44.038Z</time></trkpt><trkpt lat="43.6106364" lon="10.4783406"><ele>13.333333333333334</ele><time>2026-05-01T08:37:45.042Z</time></trkpt><trkpt lat="43.6106118" lon="10.4785744"><ele>12.666666666666668</ele><time>2026-05-01T08:37:46.035Z</time></trkpt><trkpt lat="43.6105638" lon="10.4788096"><ele>12.0</ele><time>2026-05-01T08:37:47.038Z</time></trkpt><trkpt lat="43.6104956" lon="10.4790532"><ele>12.0</ele><time>2026-05-01T08:37:48.044Z</time></trkpt><trkpt lat="43.6104273" lon="10.4792873"><ele>12.0</ele><time>2026-05-01T08:37:49.046Z</time></trkpt><trkpt lat="43.6103608" lon="10.4794999"><ele>12.0</ele><time>2026-05-01T08:37:50.045Z</time></trkpt><trkpt lat="43.6102841" lon="10.479693"><ele>11.333333333333334</ele><time>2026-05-01T08:37:51.045Z</time></trkpt><trkpt lat="43.6101888" lon="10.4798756"><ele>10.666666666666668</ele><time>2026-05-01T08:37:52.055Z</time></trkpt><trkpt lat="43.6100671" lon="10.4800399"><ele>10.0</ele><time>2026-05-01T08:37:53.047Z</time></trkpt><trkpt lat="43.609923" lon="10.4801909"><ele>10.0</ele><time>2026-05-01T08:37:54.039Z</time></trkpt><trkpt lat="43.6097662" lon="10.4803421"><ele>10.0</ele><time>2026-05-01T08:37:55.03Z</time></trkpt><trkpt lat="43.6096068" lon="10.480503"><ele>10.0</ele><time>2026-05-01T08:37:56.048Z</time></trkpt><trkpt lat="43.609449" lon="10.4806669"><ele>9.0</ele><time>2026-05-01T08:37:57.051Z</time></trkpt><trkpt lat="43.6092893" lon="10.4808268"><ele>8.0</ele><time>2026-05-01T08:37:58.038Z</time></trkpt><trkpt lat="43.6091377" lon="10.480973"><ele>7.0</ele><time>2026-05-01T08:37:59.051Z</time></trkpt><trkpt lat="43.6089852" lon="10.4811229"><ele>7.0</ele><time>2026-05-01T08:38:00.052Z</time></trkpt><trkpt lat="43.6088342" lon="10.4812686"><ele>7.0</ele><time>2026-05-01T08:38:01.041Z</time></trkpt><trkpt lat="43.6086877" lon="10.4814138"><ele>7.0</ele><time>2026-05-01T08:38:02.054Z</time></trkpt><trkpt lat="43.6085482" lon="10.4815475"><ele>7.0</ele><time>2026-05-01T08:38:03.043Z</time></trkpt><trkpt lat="43.6084135" lon="10.4816726"><ele>7.0</ele><time>2026-05-01T08:38:04.041Z</time></trkpt><trkpt lat="43.6082762" lon="10.4817865"><ele>7.0</ele><time>2026-05-01T08:38:05.039Z</time></trkpt><trkpt lat="43.6081357" lon="10.4819112"><ele>7.0</ele><time>2026-05-01T08:38:06.043Z</time></trkpt><trkpt lat="43.6079971" lon="10.4820412"><ele>7.0</ele><time>2026-05-01T08:38:07.033Z</time></trkpt><trkpt lat="43.6078521" lon="10.4821741"><ele>7.0</ele><time>2026-05-01T08:38:08.037Z</time></trkpt><trkpt lat="43.6077031" lon="10.4823084"><ele>6.333333333333334</ele><time>2026-05-01T08:38:09.045Z</time></trkpt><trkpt lat="43.6075519" lon="10.4824425"><ele>5.666666666666667</ele><time>2026-05-01T08:38:10.042Z</time></trkpt><trkpt lat="43.6073979" lon="10.4825817"><ele>5.0</ele><time>2026-05-01T08:38:11.042Z</time></trkpt><trkpt lat="43.6072438" lon="10.4827258"><ele>5.0</ele><time>2026-05-01T08:38:12.043Z</time></trkpt><trkpt lat="43.6070895" lon="10.4828617"><ele>5.0</ele><time>2026-05-01T08:38:13.035Z</time></trkpt><trkpt lat="43.6069398" lon="10.4829942"><ele>5.0</ele><time>2026-05-01T08:38:14.051Z</time></trkpt><trkpt lat="43.606798" lon="10.483122"><ele>5.666666666666667</ele><time>2026-05-01T08:38:15.052Z</time></trkpt><trkpt lat="43.6066565" lon="10.4832522"><ele>6.333333333333334</ele><time>2026-05-01T08:38:16.049Z</time></trkpt><trkpt lat="43.606517" lon="10.4833797"><ele>7.0</ele><time>2026-05-01T08:38:17.034Z</time></trkpt><trkpt lat="43.6063784" lon="10.4835044"><ele>7.0</ele><time>2026-05-01T08:38:18.045Z</time></trkpt><trkpt lat="43.6062402" lon="10.4836303"><ele>7.0</ele><time>2026-05-01T08:38:19.039Z</time></trkpt><trkpt lat="43.6061032" lon="10.4837533"><ele>7.0</ele><time>2026-05-01T08:38:20.048Z</time></trkpt><trkpt lat="43.6059797" lon="10.4838814"><ele>7.25</ele><time>2026-05-01T08:38:21.044Z</time></trkpt><trkpt lat="43.605873" lon="10.4840117"><ele>7.5</ele><time>2026-05-01T08:38:22.04Z</time></trkpt><trkpt lat="43.6057788" lon="10.4841613"><ele>7.75</ele><time>2026-05-01T08:38:23.036Z</time></trkpt><trkpt lat="43.6056999" lon="10.484327"><ele>8.0</ele><time>2026-05-01T08:38:24.047Z</time></trkpt><trkpt lat="43.6056219" lon="10.48451"><ele>8.666666666666666</ele><time>2026-05-01T08:38:25.039Z</time></trkpt><trkpt lat="43.6055423" lon="10.4847072"><ele>9.333333333333334</ele><time>2026-05-01T08:38:26.05Z</time></trkpt><trkpt lat="43.6054584" lon="10.4849216"><ele>10.0</ele><time>2026-05-01T08:38:27.047Z</time></trkpt><trkpt lat="43.6053737" lon="10.4851419"><ele>10.0</ele><time>2026-05-01T08:38:28.041Z</time></trkpt><trkpt lat="43.6052888" lon="10.4853496"><ele>10.0</ele><time>2026-05-01T08:38:29.048Z</time></trkpt><trkpt lat="43.6052084" lon="10.4855399"><ele>10.0</ele><time>2026-05-01T08:38:30.05Z</time></trkpt><trkpt lat="43.6051281" lon="10.4857271"><ele>10.0</ele><time>2026-05-01T08:38:31.035Z</time></trkpt><trkpt lat="43.605049" lon="10.4859127"><ele>10.0</ele><time>2026-05-01T08:38:32.038Z</time></trkpt><trkpt lat="43.6049712" lon="10.4860944"><ele>10.0</ele><time>2026-05-01T08:38:33.045Z</time></trkpt><trkpt lat="43.6048968" lon="10.4862753"><ele>10.0</ele><time>2026-05-01T08:38:34.048Z</time></trkpt><trkpt lat="43.6048254" lon="10.4864542"><ele>10.0</ele><time>2026-05-01T08:38:35.05Z</time></trkpt><trkpt lat="43.604764" lon="10.4866442"><ele>10.0</ele><time>2026-05-01T08:38:36.039Z</time></trkpt><trkpt lat="43.6047199" lon="10.4868351"><ele>10.0</ele><time>2026-05-01T08:38:37.061Z</time></trkpt><trkpt lat="43.60469" lon="10.4870368"><ele>10.0</ele><time>2026-05-01T08:38:38.039Z</time></trkpt><trkpt lat="43.6046705" lon="10.4872446"><ele>10.0</ele><time>2026-05-01T08:38:39.041Z</time></trkpt><trkpt lat="43.6046542" lon="10.4874533"><ele>10.0</ele><time>2026-05-01T08:38:40.047Z</time></trkpt><trkpt lat="43.6046362" lon="10.4876628"><ele>10.0</ele><time>2026-05-01T08:38:41.044Z</time></trkpt><trkpt lat="43.6046221" lon="10.4878816"><ele>10.0</ele><time>2026-05-01T08:38:42.056Z</time></trkpt><trkpt lat="43.604612" lon="10.4881069"><ele>10.0</ele><time>2026-05-01T08:38:43.04Z</time></trkpt><trkpt lat="43.6045982" lon="10.4883385"><ele>10.333333333333334</ele><time>2026-05-01T08:38:44.038Z</time></trkpt><trkpt lat="43.6045875" lon="10.4885675"><ele>10.666666666666666</ele><time>2026-05-01T08:38:45.039Z</time></trkpt><trkpt lat="43.6045735" lon="10.4887968"><ele>11.0</ele><time>2026-05-01T08:38:46.038Z</time></trkpt><trkpt lat="43.6045587" lon="10.4890041"><ele>11.25</ele><time>2026-05-01T08:38:47.04Z</time></trkpt><trkpt lat="43.6045501" lon="10.4892037"><ele>11.5</ele><time>2026-05-01T08:38:48.037Z</time></trkpt><trkpt lat="43.6045427" lon="10.4894042"><ele>11.75</ele><time>2026-05-01T08:38:49.049Z</time></trkpt><trkpt lat="43.6045235" lon="10.4896108"><ele>12.0</ele><time>2026-05-01T08:38:50.041Z</time></trkpt><trkpt lat="43.6045106" lon="10.4898158"><ele>12.0</ele><time>2026-05-01T08:38:51.043Z</time></trkpt><trkpt lat="43.6044995" lon="10.4900252"><ele>12.0</ele><time>2026-05-01T08:38:52.034Z</time></trkpt><trkpt lat="43.6044858" lon="10.4902378"><ele>12.0</ele><time>2026-05-01T08:38:53.047Z</time></trkpt><trkpt lat="43.6044726" lon="10.4904484"><ele>11.0</ele><time>2026-05-01T08:38:54.046Z</time></trkpt><trkpt lat="43.604461" lon="10.490666"><ele>10.0</ele><time>2026-05-01T08:38:55.029Z</time></trkpt><trkpt lat="43.6044531" lon="10.4908742"><ele>9.0</ele><time>2026-05-01T08:38:56.041Z</time></trkpt><trkpt lat="43.6044378" lon="10.4910851"><ele>8.75</ele><time>2026-05-01T08:38:57.052Z</time></trkpt><trkpt lat="43.6044246" lon="10.4912953"><ele>8.5</ele><time>2026-05-01T08:38:58.035Z</time></trkpt><trkpt lat="43.6044196" lon="10.491492"><ele>8.25</ele><time>2026-05-01T08:38:59.039Z</time></trkpt><trkpt lat="43.6044173" lon="10.491688"><ele>8.0</ele><time>2026-05-01T08:39:00.041Z</time></trkpt><trkpt lat="43.6044304" lon="10.4918846"><ele>8.0</ele><time>2026-05-01T08:39:01.04Z</time></trkpt><trkpt lat="43.6044635" lon="10.4920848"><ele>8.0</ele><time>2026-05-01T08:39:02.04Z</time></trkpt><trkpt lat="43.6045279" lon="10.4922739"><ele>8.0</ele><time>2026-05-01T08:39:03.039Z</time></trkpt><trkpt lat="43.6046138" lon="10.4924466"><ele>8.666666666666666</ele><time>2026-05-01T08:39:04.039Z</time></trkpt><trkpt lat="43.6047324" lon="10.4925937"><ele>9.333333333333334</ele><time>2026-05-01T08:39:05.039Z</time></trkpt><trkpt lat="43.6048623" lon="10.4927489"><ele>10.0</ele><time>2026-05-01T08:39:06.048Z</time></trkpt><trkpt lat="43.605" lon="10.4929084"><ele>10.0</ele><time>2026-05-01T08:39:07.033Z</time></trkpt><trkpt lat="43.6051426" lon="10.4930737"><ele>10.0</ele><time>2026-05-01T08:39:08.046Z</time></trkpt><trkpt lat="43.605297" lon="10.4932544"><ele>10.0</ele><time>2026-05-01T08:39:09.044Z</time></trkpt><trkpt lat="43.6054665" lon="10.4934475"><ele>9.5</ele><time>2026-05-01T08:39:10.035Z</time></trkpt><trkpt lat="43.6056471" lon="10.4936568"><ele>9.0</ele><time>2026-05-01T08:39:11.059Z</time></trkpt><trkpt lat="43.6058349" lon="10.4938762"><ele>9.0</ele><time>2026-05-01T08:39:12.05Z</time></trkpt><trkpt lat="43.6060159" lon="10.4940946"><ele>9.0</ele><time>2026-05-01T08:39:13.041Z</time></trkpt><trkpt lat="43.6061789" lon="10.4942827"><ele>9.333333333333334</ele><time>2026-05-01T08:39:14.036Z</time></trkpt><trkpt lat="43.6063402" lon="10.4944583"><ele>9.666666666666668</ele><time>2026-05-01T08:39:15.039Z</time></trkpt><trkpt lat="43.6064981" lon="10.4946347"><ele>10.0</ele><time>2026-05-01T08:39:16.038Z</time></trkpt><trkpt lat="43.6066557" lon="10.4948168"><ele>10.0</ele><time>2026-05-01T08:39:17.039Z</time></trkpt><trkpt lat="43.6068036" lon="10.4949907"><ele>10.0</ele><time>2026-05-01T08:39:18.05Z</time></trkpt><trkpt lat="43.6069474" lon="10.4951575"><ele>10.0</ele><time>2026-05-01T08:39:19.049Z</time></trkpt><trkpt lat="43.6070857" lon="10.49533"><ele>9.666666666666668</ele><time>2026-05-01T08:39:20.035Z</time></trkpt><trkpt lat="43.6072153" lon="10.4955167"><ele>9.333333333333334</ele><time>2026-05-01T08:39:21.043Z</time></trkpt><trkpt lat="43.607333" lon="10.4957197"><ele>9.0</ele><time>2026-05-01T08:39:22.046Z</time></trkpt><trkpt lat="43.6074446" lon="10.4959331"><ele>9.0</ele><time>2026-05-01T08:39:23.04Z</time></trkpt><trkpt lat="43.6075467" lon="10.4961372"><ele>9.0</ele><time>2026-05-01T08:39:24.041Z</time></trkpt><trkpt lat="43.6076449" lon="10.4963258"><ele>9.0</ele><time>2026-05-01T08:39:25.044Z</time></trkpt><trkpt lat="43.6077323" lon="10.4964944"><ele>9.333333333333334</ele><time>2026-05-01T08:39:26.042Z</time></trkpt><trkpt lat="43.6078108" lon="10.4966682"><ele>9.666666666666668</ele><time>2026-05-01T08:39:27.046Z</time></trkpt><trkpt lat="43.6078736" lon="10.4968594"><ele>10.0</ele><time>2026-05-01T08:39:28.045Z</time></trkpt><trkpt lat="43.607918" lon="10.4970621"><ele>9.666666666666668</ele><time>2026-05-01T08:39:29.043Z</time></trkpt><trkpt lat="43.6079367" lon="10.4972675"><ele>9.333333333333334</ele><time>2026-05-01T08:39:30.041Z</time></trkpt><trkpt lat="43.6079204" lon="10.4974884"><ele>9.0</ele><time>2026-05-01T08:39:31.046Z</time></trkpt><trkpt lat="43.6078875" lon="10.4977018"><ele>8.666666666666666</ele><time>2026-05-01T08:39:32.056Z</time></trkpt><trkpt lat="43.6078369" lon="10.4979263"><ele>8.333333333333332</ele><time>2026-05-01T08:39:33.041Z</time></trkpt><trkpt lat="43.6077683" lon="10.4981447"><ele>8.0</ele><time>2026-05-01T08:39:34.049Z</time></trkpt><trkpt lat="43.6076868" lon="10.4983701"><ele>8.666666666666666</ele><time>2026-05-01T08:39:35.042Z</time></trkpt><trkpt lat="43.60761" lon="10.4986019"><ele>9.333333333333334</ele><time>2026-05-01T08:39:36.032Z</time></trkpt><trkpt lat="43.6075345" lon="10.4988423"><ele>10.0</ele><time>2026-05-01T08:39:37.043Z</time></trkpt><trkpt lat="43.6074589" lon="10.4990822"><ele>10.0</ele><time>2026-05-01T08:39:38.048Z</time></trkpt><trkpt lat="43.6073832" lon="10.4993163"><ele>10.0</ele><time>2026-05-01T08:39:39.054Z</time></trkpt><trkpt lat="43.6073078" lon="10.4995297"><ele>10.0</ele><time>2026-05-01T08:39:40.049Z</time></trkpt><trkpt lat="43.6072427" lon="10.4997187"><ele>10.0</ele><time>2026-05-01T08:39:41.027Z</time></trkpt><trkpt lat="43.6071918" lon="10.4998943"><ele>10.0</ele><time>2026-05-01T08:39:42.039Z</time></trkpt><trkpt lat="43.6071494" lon="10.5000771"><ele>10.0</ele><time>2026-05-01T08:39:43.051Z</time></trkpt><trkpt lat="43.6071167" lon="10.5002677"><ele>10.0</ele><time>2026-05-01T08:39:44.051Z</time></trkpt><trkpt lat="43.607111" lon="10.5004626"><ele>10.25</ele><time>2026-05-01T08:39:45.042Z</time></trkpt><trkpt lat="43.60712" lon="10.5006593"><ele>10.5</ele><time>2026-05-01T08:39:46.043Z</time></trkpt><trkpt lat="43.6071358" lon="10.50086"><ele>10.75</ele><time>2026-05-01T08:39:47.039Z</time></trkpt><trkpt lat="43.6071569" lon="10.5010718"><ele>11.0</ele><time>2026-05-01T08:39:48.043Z</time></trkpt><trkpt lat="43.6071868" lon="10.5012808"><ele>11.0</ele><time>2026-05-01T08:39:49.039Z</time></trkpt><trkpt lat="43.6072367" lon="10.5014814"><ele>11.0</ele><time>2026-05-01T08:39:50.039Z</time></trkpt><trkpt lat="43.6073107" lon="10.501678"><ele>11.0</ele><time>2026-05-01T08:39:51.047Z</time></trkpt><trkpt lat="43.6073998" lon="10.5018592"><ele>11.0</ele><time>2026-05-01T08:39:52.036Z</time></trkpt><trkpt lat="43.6075072" lon="10.5020311"><ele>11.0</ele><time>2026-05-01T08:39:53.059Z</time></trkpt><trkpt lat="43.6076215" lon="10.5022009"><ele>11.0</ele><time>2026-05-01T08:39:54.035Z</time></trkpt><trkpt lat="43.6077415" lon="10.5023767"><ele>11.0</ele><time>2026-05-01T08:39:55.041Z</time></trkpt><trkpt lat="43.6078675" lon="10.5025452"><ele>11.0</ele><time>2026-05-01T08:39:56.038Z</time></trkpt><trkpt lat="43.6079984" lon="10.5027174"><ele>11.0</ele><time>2026-05-01T08:39:57.042Z</time></trkpt><trkpt lat="43.6081268" lon="10.5028845"><ele>11.25</ele><time>2026-05-01T08:39:58.035Z</time></trkpt><trkpt lat="43.608245" lon="10.5030419"><ele>11.5</ele><time>2026-05-01T08:39:59.037Z</time></trkpt><trkpt lat="43.6083451" lon="10.5031896"><ele>11.75</ele><time>2026-05-01T08:40:00.042Z</time></trkpt><trkpt lat="43.6084195" lon="10.5033332"><ele>12.0</ele><time>2026-05-01T08:40:01.039Z</time></trkpt><trkpt lat="43.6084745" lon="10.5034917"><ele>12.0</ele><time>2026-05-01T08:40:02.045Z</time></trkpt><trkpt lat="43.6085119" lon="10.5036804"><ele>12.0</ele><time>2026-05-01T08:40:03.034Z</time></trkpt><trkpt lat="43.6085392" lon="10.5038872"><ele>12.0</ele><time>2026-05-01T08:40:04.039Z</time></trkpt><trkpt lat="43.6085432" lon="10.5041056"><ele>12.0</ele><time>2026-05-01T08:40:05.052Z</time></trkpt><trkpt lat="43.6085507" lon="10.504331"><ele>12.0</ele><time>2026-05-01T08:40:06.032Z</time></trkpt><trkpt lat="43.6085609" lon="10.5045699"><ele>12.0</ele><time>2026-05-01T08:40:07.043Z</time></trkpt><trkpt lat="43.6085656" lon="10.5048183"><ele>12.0</ele><time>2026-05-01T08:40:08.041Z</time></trkpt><trkpt lat="43.6085729" lon="10.5050669"><ele>12.0</ele><time>2026-05-01T08:40:09.049Z</time></trkpt><trkpt lat="43.6085829" lon="10.5053072"><ele>12.0</ele><time>2026-05-01T08:40:10.034Z</time></trkpt><trkpt lat="43.6085901" lon="10.505561"><ele>11.0</ele><time>2026-05-01T08:40:11.05Z</time></trkpt><trkpt lat="43.6085997" lon="10.5058152"><ele>10.0</ele><time>2026-05-01T08:40:12.037Z</time></trkpt><trkpt lat="43.6086113" lon="10.5060791"><ele>9.0</ele><time>2026-05-01T08:40:13.042Z</time></trkpt><trkpt lat="43.6086169" lon="10.5063385"><ele>8.666666666666666</ele><time>2026-05-01T08:40:14.041Z</time></trkpt><trkpt lat="43.6086242" lon="10.5065916"><ele>8.333333333333332</ele><time>2026-05-01T08:40:15.043Z</time></trkpt><trkpt lat="43.6086309" lon="10.5068441"><ele>8.0</ele><time>2026-05-01T08:40:16.042Z</time></trkpt><trkpt lat="43.6086425" lon="10.5070966"><ele>8.0</ele><time>2026-05-01T08:40:17.052Z</time></trkpt><trkpt lat="43.6086524" lon="10.5073435"><ele>8.0</ele><time>2026-05-01T08:40:18.046Z</time></trkpt><trkpt lat="43.6086637" lon="10.5075843"><ele>8.0</ele><time>2026-05-01T08:40:19.047Z</time></trkpt><trkpt lat="43.6086737" lon="10.5078105"><ele>8.5</ele><time>2026-05-01T08:40:20.047Z</time></trkpt><trkpt lat="43.6086756" lon="10.5080283"><ele>9.0</ele><time>2026-05-01T08:40:21.049Z</time></trkpt><trkpt lat="43.608678" lon="10.5082248"><ele>9.5</ele><time>2026-05-01T08:40:22.043Z</time></trkpt><trkpt lat="43.6086751" lon="10.5084104"><ele>10.0</ele><time>2026-05-01T08:40:23.044Z</time></trkpt><trkpt lat="43.6086539" lon="10.5086012"><ele>11.0</ele><time>2026-05-01T08:40:24.043Z</time></trkpt><trkpt lat="43.6086117" lon="10.5087921"><ele>12.0</ele><time>2026-05-01T08:40:25.049Z</time></trkpt><trkpt lat="43.6085617" lon="10.5089956"><ele>13.0</ele><time>2026-05-01T08:40:26.041Z</time></trkpt><trkpt lat="43.6085034" lon="10.5092045"><ele>13.0</ele><time>2026-05-01T08:40:27.049Z</time></trkpt><trkpt lat="43.6084426" lon="10.5094174"><ele>13.0</ele><time>2026-05-01T08:40:28.047Z</time></trkpt><trkpt lat="43.608379" lon="10.5096307"><ele>13.0</ele><time>2026-05-01T08:40:29.045Z</time></trkpt><trkpt lat="43.6083181" lon="10.5098532"><ele>13.333333333333332</ele><time>2026-05-01T08:40:30.038Z</time></trkpt><trkpt lat="43.6082551" lon="10.510084"><ele>13.666666666666668</ele><time>2026-05-01T08:40:31.04Z</time></trkpt><trkpt lat="43.6081976" lon="10.5103157"><ele>14.0</ele><time>2026-05-01T08:40:32.06Z</time></trkpt><trkpt lat="43.6081404" lon="10.5105424"><ele>13.333333333333334</ele><time>2026-05-01T08:40:33.047Z</time></trkpt><trkpt lat="43.6080857" lon="10.5107621"><ele>12.666666666666668</ele><time>2026-05-01T08:40:34.052Z</time></trkpt><trkpt lat="43.6080275" lon="10.5109782"><ele>12.0</ele><time>2026-05-01T08:40:35.035Z</time></trkpt><trkpt lat="43.6079733" lon="10.5111973"><ele>12.666666666666668</ele><time>2026-05-01T08:40:36.045Z</time></trkpt><trkpt lat="43.6079225" lon="10.511411"><ele>13.333333333333334</ele><time>2026-05-01T08:40:37.043Z</time></trkpt><trkpt lat="43.6078707" lon="10.5116216"><ele>14.0</ele><time>2026-05-01T08:40:38.05Z</time></trkpt><trkpt lat="43.6078184" lon="10.5118318"><ele>14.25</ele><time>2026-05-01T08:40:39.034Z</time></trkpt><trkpt lat="43.6077633" lon="10.5120402"><ele>14.5</ele><time>2026-05-01T08:40:40.049Z</time></trkpt><trkpt lat="43.6077125" lon="10.5122348"><ele>14.75</ele><time>2026-05-01T08:40:41.055Z</time></trkpt><trkpt lat="43.6076666" lon="10.512415"><ele>15.0</ele><time>2026-05-01T08:40:42.036Z</time></trkpt><trkpt lat="43.6076238" lon="10.5125778"><ele>15.0</ele><time>2026-05-01T08:40:43.042Z</time></trkpt><trkpt lat="43.6075833" lon="10.512756"><ele>15.0</ele><time>2026-05-01T08:40:44.044Z</time></trkpt><trkpt lat="43.6075541" lon="10.5129388"><ele>15.0</ele><time>2026-05-01T08:40:45.038Z</time></trkpt><trkpt lat="43.6075449" lon="10.5131289"><ele>15.0</ele><time>2026-05-01T08:40:46.042Z</time></trkpt><trkpt lat="43.6075728" lon="10.513314"><ele>14.333333333333332</ele><time>2026-05-01T08:40:47.046Z</time></trkpt><trkpt lat="43.6076369" lon="10.5134979"><ele>13.666666666666666</ele><time>2026-05-01T08:40:48.048Z</time></trkpt><trkpt lat="43.607707" lon="10.5136848"><ele>13.0</ele><time>2026-05-01T08:40:49.042Z</time></trkpt><trkpt lat="43.6077969" lon="10.5138886"><ele>13.0</ele><time>2026-05-01T08:40:50.047Z</time></trkpt><trkpt lat="43.6078972" lon="10.5141075"><ele>13.0</ele><time>2026-05-01T08:40:51.049Z</time></trkpt><trkpt lat="43.6080118" lon="10.5143442"><ele>13.0</ele><time>2026-05-01T08:40:52.038Z</time></trkpt><trkpt lat="43.6081357" lon="10.5145993"><ele>13.0</ele><time>2026-05-01T08:40:53.043Z</time></trkpt><trkpt lat="43.6082775" lon="10.5148783"><ele>13.0</ele><time>2026-05-01T08:40:54.044Z</time></trkpt><trkpt lat="43.6084221" lon="10.515183"><ele>13.0</ele><time>2026-05-01T08:40:55.039Z</time></trkpt><trkpt lat="43.6085562" lon="10.515493"><ele>13.0</ele><time>2026-05-01T08:40:56.037Z</time></trkpt><trkpt lat="43.608678" lon="10.5157705"><ele>12.333333333333332</ele><time>2026-05-01T08:40:57.039Z</time></trkpt><trkpt lat="43.608794" lon="10.5160286"><ele>11.666666666666666</ele><time>2026-05-01T08:40:58.039Z</time></trkpt><trkpt lat="43.6088988" lon="10.5162894"><ele>11.0</ele><time>2026-05-01T08:40:59.042Z</time></trkpt><trkpt lat="43.6089824" lon="10.5165682"><ele>11.0</ele><time>2026-05-01T08:41:00.05Z</time></trkpt><trkpt lat="43.6090461" lon="10.5168638"><ele>11.0</ele><time>2026-05-01T08:41:01.037Z</time></trkpt><trkpt lat="43.6090989" lon="10.5171487"><ele>11.0</ele><time>2026-05-01T08:41:02.052Z</time></trkpt><trkpt lat="43.6091571" lon="10.5174257"><ele>11.333333333333332</ele><time>2026-05-01T08:41:03.055Z</time></trkpt><trkpt lat="43.6092147" lon="10.5176955"><ele>11.666666666666666</ele><time>2026-05-01T08:41:04.04Z</time></trkpt><trkpt lat="43.609275" lon="10.5179574"><ele>12.0</ele><time>2026-05-01T08:41:05.043Z</time></trkpt><trkpt lat="43.6093242" lon="10.5182155"><ele>12.0</ele><time>2026-05-01T08:41:06.037Z</time></trkpt><trkpt lat="43.6093447" lon="10.5184699"><ele>12.0</ele><time>2026-05-01T08:41:07.039Z</time></trkpt><trkpt lat="43.6093377" lon="10.5187251"><ele>12.0</ele><time>2026-05-01T08:41:08.049Z</time></trkpt><trkpt lat="43.6092989" lon="10.5189887"><ele>12.0</ele><time>2026-05-01T08:41:09.048Z</time></trkpt><trkpt lat="43.6092581" lon="10.5192619"><ele>12.0</ele><time>2026-05-01T08:41:10.034Z</time></trkpt><trkpt lat="43.6092099" lon="10.5195482"><ele>12.0</ele><time>2026-05-01T08:41:11.054Z</time></trkpt><trkpt lat="43.609168" lon="10.5198404"><ele>12.0</ele><time>2026-05-01T08:41:12.037Z</time></trkpt><trkpt lat="43.6091196" lon="10.5201375"><ele>12.0</ele><time>2026-05-01T08:41:13.046Z</time></trkpt><trkpt lat="43.6090736" lon="10.5204306"><ele>12.0</ele><time>2026-05-01T08:41:14.056Z</time></trkpt><trkpt lat="43.6090242" lon="10.5207296"><ele>12.0</ele><time>2026-05-01T08:41:15.039Z</time></trkpt><trkpt lat="43.6089767" lon="10.5210276"><ele>12.0</ele><time>2026-05-01T08:41:16.049Z</time></trkpt><trkpt lat="43.6089303" lon="10.5213275"><ele>12.0</ele><time>2026-05-01T08:41:17.053Z</time></trkpt><trkpt lat="43.6088764" lon="10.5216264"><ele>12.666666666666668</ele><time>2026-05-01T08:41:18.038Z</time></trkpt><trkpt lat="43.6088318" lon="10.5219266"><ele>13.333333333333334</ele><time>2026-05-01T08:41:19.041Z</time></trkpt><trkpt lat="43.608789" lon="10.5222294"><ele>14.0</ele><time>2026-05-01T08:41:20.041Z</time></trkpt><trkpt lat="43.6087418" lon="10.522529"><ele>14.0</ele><time>2026-05-01T08:41:21.039Z</time></trkpt><trkpt lat="43.6086961" lon="10.5228244"><ele>14.0</ele><time>2026-05-01T08:41:22.04Z</time></trkpt><trkpt lat="43.6086528" lon="10.5230982"><ele>14.0</ele><time>2026-05-01T08:41:23.042Z</time></trkpt><trkpt lat="43.6086113" lon="10.5233662"><ele>14.333333333333334</ele><time>2026-05-01T08:41:24.042Z</time></trkpt><trkpt lat="43.6085753" lon="10.5236275"><ele>14.666666666666668</ele><time>2026-05-01T08:41:25.043Z</time></trkpt><trkpt lat="43.6085387" lon="10.5238715"><ele>15.0</ele><time>2026-05-01T08:41:26.049Z</time></trkpt><trkpt lat="43.6085173" lon="10.5241119"><ele>15.0</ele><time>2026-05-01T08:41:27.05Z</time></trkpt><trkpt lat="43.6084968" lon="10.5243521"><ele>15.0</ele><time>2026-05-01T08:41:28.053Z</time></trkpt><trkpt lat="43.6084804" lon="10.5245904"><ele>15.0</ele><time>2026-05-01T08:41:29.038Z</time></trkpt><trkpt lat="43.6084637" lon="10.5248297"><ele>15.0</ele><time>2026-05-01T08:41:30.04Z</time></trkpt><trkpt lat="43.6084507" lon="10.5250511"><ele>15.0</ele><time>2026-05-01T08:41:31.05Z</time></trkpt><trkpt lat="43.6084369" lon="10.5252577"><ele>15.0</ele><time>2026-05-01T08:41:32.06Z</time></trkpt><trkpt lat="43.6084149" lon="10.5254435"><ele>15.0</ele><time>2026-05-01T08:41:33.044Z</time></trkpt><trkpt lat="43.6083914" lon="10.5256157"><ele>15.0</ele><time>2026-05-01T08:41:34.051Z</time></trkpt><trkpt lat="43.6083594" lon="10.5257683"><ele>15.0</ele><time>2026-05-01T08:41:35.039Z</time></trkpt><trkpt lat="43.6083115" lon="10.5258949"><ele>15.0</ele><time>2026-05-01T08:41:36.046Z</time></trkpt><trkpt lat="43.6082428" lon="10.5259996"><ele>15.0</ele><time>2026-05-01T08:41:37.041Z</time></trkpt><trkpt lat="43.608159" lon="10.5260936"><ele>15.0</ele><time>2026-05-01T08:41:38.036Z</time></trkpt><trkpt lat="43.6080781" lon="10.5261823"><ele>15.2</ele><time>2026-05-01T08:41:39.037Z</time></trkpt><trkpt lat="43.6080222" lon="10.5262912"><ele>15.4</ele><time>2026-05-01T08:41:40.048Z</time></trkpt><trkpt lat="43.6079954" lon="10.5264257"><ele>15.600000000000001</ele><time>2026-05-01T08:41:41.043Z</time></trkpt><trkpt lat="43.6079893" lon="10.5265673"><ele>15.8</ele><time>2026-05-01T08:41:42.039Z</time></trkpt><trkpt lat="43.6079888" lon="10.5267288"><ele>16.0</ele><time>2026-05-01T08:41:43.046Z</time></trkpt><trkpt lat="43.6079756" lon="10.5269051"><ele>15.5</ele><time>2026-05-01T08:41:44.04Z</time></trkpt><trkpt lat="43.6079242" lon="10.5270926"><ele>15.0</ele><time>2026-05-01T08:41:45.047Z</time></trkpt><trkpt lat="43.6078458" lon="10.5272667"><ele>14.5</ele><time>2026-05-01T08:41:46.039Z</time></trkpt><trkpt lat="43.60776" lon="10.5274435"><ele>14.0</ele><time>2026-05-01T08:41:47.038Z</time></trkpt><trkpt lat="43.6076647" lon="10.5276294"><ele>14.0</ele><time>2026-05-01T08:41:48.036Z</time></trkpt><trkpt lat="43.6075696" lon="10.5278218"><ele>14.0</ele><time>2026-05-01T08:41:49.045Z</time></trkpt><trkpt lat="43.6074779" lon="10.5280254"><ele>14.0</ele><time>2026-05-01T08:41:50.041Z</time></trkpt><trkpt lat="43.6073845" lon="10.5282234"><ele>14.0</ele><time>2026-05-01T08:41:51.026Z</time></trkpt><trkpt lat="43.60729" lon="10.5284127"><ele>14.0</ele><time>2026-05-01T08:41:52.056Z</time></trkpt><trkpt lat="43.6071973" lon="10.5285923"><ele>14.0</ele><time>2026-05-01T08:41:53.044Z</time></trkpt><trkpt lat="43.6071094" lon="10.5287646"><ele>13.5</ele><time>2026-05-01T08:41:54.046Z</time></trkpt><trkpt lat="43.6070241" lon="10.5289348"><ele>13.0</ele><time>2026-05-01T08:41:55.064Z</time></trkpt><trkpt lat="43.6069431" lon="10.5291098"><ele>12.5</ele><time>2026-05-01T08:41:56.046Z</time></trkpt><trkpt lat="43.6068613" lon="10.5292699"><ele>12.0</ele><time>2026-05-01T08:41:57.049Z</time></trkpt><trkpt lat="43.6067857" lon="10.5294137"><ele>13.0</ele><time>2026-05-01T08:41:58.062Z</time></trkpt><trkpt lat="43.606718" lon="10.5295539"><ele>14.0</ele><time>2026-05-01T08:41:59.043Z</time></trkpt><trkpt lat="43.6066486" lon="10.529697"><ele>15.0</ele><time>2026-05-01T08:42:00.04Z</time></trkpt><trkpt lat="43.6065914" lon="10.5298476"><ele>16.0</ele><time>2026-05-01T08:42:01.058Z</time></trkpt><trkpt lat="43.6065394" lon="10.5299993"><ele>16.0</ele><time>2026-05-01T08:42:02.046Z</time></trkpt><trkpt lat="43.6064906" lon="10.5301487"><ele>16.0</ele><time>2026-05-01T08:42:03.04Z</time></trkpt><trkpt lat="43.6064498" lon="10.5302862"><ele>16.0</ele><time>2026-05-01T08:42:04.045Z</time></trkpt><trkpt lat="43.6064122" lon="10.5304219"><ele>16.0</ele><time>2026-05-01T08:42:05.037Z</time></trkpt><trkpt lat="43.6063706" lon="10.5305635"><ele>16.0</ele><time>2026-05-01T08:42:06.046Z</time></trkpt><trkpt lat="43.6063266" lon="10.5307071"><ele>16.25</ele><time>2026-05-01T08:42:07.036Z</time></trkpt><trkpt lat="43.6062868" lon="10.5308672"><ele>16.5</ele><time>2026-05-01T08:42:08.049Z</time></trkpt><trkpt lat="43.6062428" lon="10.5310308"><ele>16.75</ele><time>2026-05-01T08:42:09.038Z</time></trkpt><trkpt lat="43.606206" lon="10.5312112"><ele>17.0</ele><time>2026-05-01T08:42:10.038Z</time></trkpt><trkpt lat="43.6061799" lon="10.5313924"><ele>17.5</ele><time>2026-05-01T08:42:11.039Z</time></trkpt><trkpt lat="43.6061683" lon="10.531581"><ele>18.0</ele><time>2026-05-01T08:42:12.051Z</time></trkpt><trkpt lat="43.6061652" lon="10.531775"><ele>18.5</ele><time>2026-05-01T08:42:13.05Z</time></trkpt><trkpt lat="43.606165" lon="10.5319712"><ele>19.0</ele><time>2026-05-01T08:42:14.055Z</time></trkpt><trkpt lat="43.6061684" lon="10.5321685"><ele>19.25</ele><time>2026-05-01T08:42:15.054Z</time></trkpt><trkpt lat="43.6061713" lon="10.5323594"><ele>19.5</ele><time>2026-05-01T08:42:16.048Z</time></trkpt><trkpt lat="43.6061772" lon="10.5325316"><ele>19.75</ele><time>2026-05-01T08:42:17.048Z</time></trkpt><trkpt lat="43.606183" lon="10.5326897"><ele>20.0</ele><time>2026-05-01T08:42:18.046Z</time></trkpt><trkpt lat="43.6061964" lon="10.5328408"><ele>20.25</ele><time>2026-05-01T08:42:19.051Z</time></trkpt><trkpt lat="43.6062195" lon="10.532998"><ele>20.5</ele><time>2026-05-01T08:42:20.033Z</time></trkpt><trkpt lat="43.6062548" lon="10.533171"><ele>20.75</ele><time>2026-05-01T08:42:21.048Z</time></trkpt><trkpt lat="43.6062968" lon="10.5333466"><ele>21.0</ele><time>2026-05-01T08:42:22.052Z</time></trkpt><trkpt lat="43.6063395" lon="10.5335243"><ele>21.0</ele><time>2026-05-01T08:42:23.046Z</time></trkpt><trkpt lat="43.606377" lon="10.5337106"><ele>21.0</ele><time>2026-05-01T08:42:24.047Z</time></trkpt><trkpt lat="43.6064181" lon="10.5338962"><ele>21.0</ele><time>2026-05-01T08:42:25.046Z</time></trkpt><trkpt lat="43.6064597" lon="10.5340876"><ele>21.0</ele><time>2026-05-01T08:42:26.054Z</time></trkpt><trkpt lat="43.6065073" lon="10.5342844"><ele>20.75</ele><time>2026-05-01T08:42:27.04Z</time></trkpt><trkpt lat="43.6065501" lon="10.5344702"><ele>20.5</ele><time>2026-05-01T08:42:28.045Z</time></trkpt><trkpt lat="43.6065925" lon="10.5346519"><ele>20.25</ele><time>2026-05-01T08:42:29.055Z</time></trkpt><trkpt lat="43.6066355" lon="10.534844"><ele>20.0</ele><time>2026-05-01T08:42:30.041Z</time></trkpt><trkpt lat="43.6066751" lon="10.5350144"><ele>20.0</ele><time>2026-05-01T08:42:31.063Z</time></trkpt><trkpt lat="43.6067011" lon="10.5351617"><ele>20.0</ele><time>2026-05-01T08:42:32.043Z</time></trkpt><trkpt lat="43.6067283" lon="10.5352953"><ele>20.0</ele><time>2026-05-01T08:42:33.038Z</time></trkpt><trkpt lat="43.6067436" lon="10.5354332"><ele>20.0</ele><time>2026-05-01T08:42:34.044Z</time></trkpt><trkpt lat="43.6067575" lon="10.5355868"><ele>20.0</ele><time>2026-05-01T08:42:35.041Z</time></trkpt><trkpt lat="43.606773" lon="10.5357528"><ele>20.0</ele><time>2026-05-01T08:42:36.053Z</time></trkpt><trkpt lat="43.6067715" lon="10.5359175"><ele>20.0</ele><time>2026-05-01T08:42:37.037Z</time></trkpt><trkpt lat="43.6067727" lon="10.5360755"><ele>20.0</ele><time>2026-05-01T08:42:38.047Z</time></trkpt><trkpt lat="43.6067737" lon="10.5362307"><ele>20.0</ele><time>2026-05-01T08:42:39.047Z</time></trkpt><trkpt lat="43.6067743" lon="10.5363845"><ele>20.0</ele><time>2026-05-01T08:42:40.053Z</time></trkpt><trkpt lat="43.6067722" lon="10.5365279"><ele>20.0</ele><time>2026-05-01T08:42:41.043Z</time></trkpt><trkpt lat="43.6067684" lon="10.5366567"><ele>20.0</ele><time>2026-05-01T08:42:42.049Z</time></trkpt><trkpt lat="43.6067613" lon="10.5367715"><ele>20.0</ele><time>2026-05-01T08:42:43.046Z</time></trkpt><trkpt lat="43.606743" lon="10.5368866"><ele>20.0</ele><time>2026-05-01T08:42:44.044Z</time></trkpt><trkpt lat="43.6067284" lon="10.5370077"><ele>20.166666666666668</ele><time>2026-05-01T08:42:45.052Z</time></trkpt><trkpt lat="43.6067114" lon="10.5371249"><ele>20.333333333333336</ele><time>2026-05-01T08:42:46.044Z</time></trkpt><trkpt lat="43.6066934" lon="10.537241"><ele>20.5</ele><time>2026-05-01T08:42:47.052Z</time></trkpt><trkpt lat="43.6066729" lon="10.5373604"><ele>20.666666666666668</ele><time>2026-05-01T08:42:48.047Z</time></trkpt><trkpt lat="43.6066529" lon="10.5374806"><ele>20.833333333333332</ele><time>2026-05-01T08:42:49.045Z</time></trkpt><trkpt lat="43.6066402" lon="10.5376128"><ele>21.0</ele><time>2026-05-01T08:42:50.043Z</time></trkpt><trkpt lat="43.6066368" lon="10.5377536"><ele>21.0</ele><time>2026-05-01T08:42:51.029Z</time></trkpt><trkpt lat="43.6066407" lon="10.5379003"><ele>21.0</ele><time>2026-05-01T08:42:52.029Z</time></trkpt><trkpt lat="43.6066507" lon="10.5380537"><ele>21.0</ele><time>2026-05-01T08:42:53.032Z</time></trkpt><trkpt lat="43.6066606" lon="10.5382043"><ele>21.0</ele><time>2026-05-01T08:42:54.047Z</time></trkpt><trkpt lat="43.6066642" lon="10.5383556"><ele>21.0</ele><time>2026-05-01T08:42:55.053Z</time></trkpt><trkpt lat="43.6066694" lon="10.5385085"><ele>21.0</ele><time>2026-05-01T08:42:56.044Z</time></trkpt><trkpt lat="43.6066673" lon="10.5386587"><ele>21.0</ele><time>2026-05-01T08:42:57.042Z</time></trkpt><trkpt lat="43.6066656" lon="10.5388181"><ele>21.0</ele><time>2026-05-01T08:42:58.061Z</time></trkpt><trkpt lat="43.606662" lon="10.5389835"><ele>21.0</ele><time>2026-05-01T08:42:59.046Z</time></trkpt><trkpt lat="43.6066581" lon="10.5391555"><ele>20.75</ele><time>2026-05-01T08:43:00.036Z</time></trkpt><trkpt lat="43.6066619" lon="10.5393255"><ele>20.5</ele><time>2026-05-01T08:43:01.05Z</time></trkpt><trkpt lat="43.606657" lon="10.5394962"><ele>20.25</ele><time>2026-05-01T08:43:02.04Z</time></trkpt><trkpt lat="43.6066502" lon="10.539659"><ele>20.0</ele><time>2026-05-01T08:43:03.048Z</time></trkpt><trkpt lat="43.6066411" lon="10.5398256"><ele>20.0</ele><time>2026-05-01T08:43:04.042Z</time></trkpt><trkpt lat="43.6066326" lon="10.5400015"><ele>20.0</ele><time>2026-05-01T08:43:05.042Z</time></trkpt><trkpt lat="43.6066266" lon="10.5401769"><ele>20.0</ele><time>2026-05-01T08:43:06.047Z</time></trkpt><trkpt lat="43.6066187" lon="10.5403657"><ele>20.0</ele><time>2026-05-01T08:43:07.047Z</time></trkpt><trkpt lat="43.6066128" lon="10.5405567"><ele>20.0</ele><time>2026-05-01T08:43:08.041Z</time></trkpt><trkpt lat="43.6066058" lon="10.5407471"><ele>20.0</ele><time>2026-05-01T08:43:09.057Z</time></trkpt><trkpt lat="43.6066062" lon="10.5409371"><ele>20.0</ele><time>2026-05-01T08:43:10.046Z</time></trkpt><trkpt lat="43.6066091" lon="10.5410839"><ele>20.0</ele><time>2026-05-01T08:43:11.059Z</time></trkpt><trkpt lat="43.6066112" lon="10.5412238"><ele>19.8</ele><time>2026-05-01T08:43:12.044Z</time></trkpt><trkpt lat="43.6066075" lon="10.5413681"><ele>19.6</ele><time>2026-05-01T08:43:13.039Z</time></trkpt><trkpt lat="43.6066019" lon="10.5415133"><ele>19.4</ele><time>2026-05-01T08:43:14.044Z</time></trkpt><trkpt lat="43.6065946" lon="10.5416667"><ele>19.2</ele><time>2026-05-01T08:43:15.04Z</time></trkpt><trkpt lat="43.6065894" lon="10.5418349"><ele>19.0</ele><time>2026-05-01T08:43:16.052Z</time></trkpt><trkpt lat="43.6065862" lon="10.5419954"><ele>19.0</ele><time>2026-05-01T08:43:17.052Z</time></trkpt><trkpt lat="43.6065832" lon="10.5421506"><ele>19.0</ele><time>2026-05-01T08:43:18.057Z</time></trkpt><trkpt lat="43.6065772" lon="10.5423259"><ele>19.0</ele><time>2026-05-01T08:43:19.036Z</time></trkpt><trkpt lat="43.606573" lon="10.5425057"><ele>19.0</ele><time>2026-05-01T08:43:20.044Z</time></trkpt><trkpt lat="43.6065709" lon="10.5426834"><ele>19.0</ele><time>2026-05-01T08:43:21.053Z</time></trkpt><trkpt lat="43.6065659" lon="10.54287"><ele>19.0</ele><time>2026-05-01T08:43:22.058Z</time></trkpt><trkpt lat="43.6065588" lon="10.54306"><ele>19.0</ele><time>2026-05-01T08:43:23.035Z</time></trkpt><trkpt lat="43.6065558" lon="10.543237"><ele>19.0</ele><time>2026-05-01T08:43:24.04Z</time></trkpt><trkpt lat="43.606553" lon="10.5434061"><ele>19.0</ele><time>2026-05-01T08:43:25.042Z</time></trkpt><trkpt lat="43.6065472" lon="10.5435723"><ele>19.0</ele><time>2026-05-01T08:43:26.045Z</time></trkpt><trkpt lat="43.6065422" lon="10.5437359"><ele>19.0</ele><time>2026-05-01T08:43:27.046Z</time></trkpt><trkpt lat="43.6065409" lon="10.5438868"><ele>19.0</ele><time>2026-05-01T08:43:28.046Z</time></trkpt><trkpt lat="43.6065316" lon="10.5440377"><ele>18.75</ele><time>2026-05-01T08:43:29.045Z</time></trkpt><trkpt lat="43.6065181" lon="10.5441983"><ele>18.5</ele><time>2026-05-01T08:43:30.028Z</time></trkpt><trkpt lat="43.6064957" lon="10.5443761"><ele>18.25</ele><time>2026-05-01T08:43:31.04Z</time></trkpt><trkpt lat="43.6064606" lon="10.5445568"><ele>18.0</ele><time>2026-05-01T08:43:32.052Z</time></trkpt><trkpt lat="43.6064087" lon="10.544736"><ele>17.666666666666668</ele><time>2026-05-01T08:43:33.043Z</time></trkpt><trkpt lat="43.6063454" lon="10.5449224"><ele>17.333333333333336</ele><time>2026-05-01T08:43:34.041Z</time></trkpt><trkpt lat="43.6062678" lon="10.5451256"><ele>17.0</ele><time>2026-05-01T08:43:35.042Z</time></trkpt><trkpt lat="43.6061934" lon="10.5453311"><ele>17.333333333333336</ele><time>2026-05-01T08:43:36.053Z</time></trkpt><trkpt lat="43.6061124" lon="10.5455626"><ele>17.666666666666668</ele><time>2026-05-01T08:43:37.04Z</time></trkpt><trkpt lat="43.6060177" lon="10.5458164"><ele>18.0</ele><time>2026-05-01T08:43:38.04Z</time></trkpt><trkpt lat="43.6059171" lon="10.5460873"><ele>19.0</ele><time>2026-05-01T08:43:39.038Z</time></trkpt><trkpt lat="43.6058121" lon="10.5463712"><ele>20.0</ele><time>2026-05-01T08:43:40.041Z</time></trkpt><trkpt lat="43.6057023" lon="10.5466609"><ele>20.0</ele><time>2026-05-01T08:43:41.035Z</time></trkpt><trkpt lat="43.6055881" lon="10.5469484"><ele>20.0</ele><time>2026-05-01T08:43:42.042Z</time></trkpt><trkpt lat="43.6054805" lon="10.5472246"><ele>20.333333333333336</ele><time>2026-05-01T08:43:43.038Z</time></trkpt><trkpt lat="43.6053804" lon="10.5474638"><ele>20.666666666666668</ele><time>2026-05-01T08:43:44.026Z</time></trkpt><trkpt lat="43.6053004" lon="10.5477046"><ele>21.0</ele><time>2026-05-01T08:43:45.045Z</time></trkpt><trkpt lat="43.6052356" lon="10.547949"><ele>21.333333333333332</ele><time>2026-05-01T08:43:46.053Z</time></trkpt><trkpt lat="43.6051978" lon="10.5481832"><ele>21.666666666666664</ele><time>2026-05-01T08:43:47.029Z</time></trkpt><trkpt lat="43.6051761" lon="10.548415"><ele>22.0</ele><time>2026-05-01T08:43:48.05Z</time></trkpt><trkpt lat="43.6051529" lon="10.5486452"><ele>22.333333333333332</ele><time>2026-05-01T08:43:49.041Z</time></trkpt><trkpt lat="43.6051303" lon="10.5488815"><ele>22.666666666666668</ele><time>2026-05-01T08:43:50.039Z</time></trkpt><trkpt lat="43.6051056" lon="10.5491113"><ele>23.0</ele><time>2026-05-01T08:43:51.038Z</time></trkpt><trkpt lat="43.6050832" lon="10.5493405"><ele>23.0</ele><time>2026-05-01T08:43:52.039Z</time></trkpt><trkpt lat="43.6050595" lon="10.5495702"><ele>23.0</ele><time>2026-05-01T08:43:53.049Z</time></trkpt><trkpt lat="43.6050333" lon="10.5497997"><ele>23.0</ele><time>2026-05-01T08:43:54.045Z</time></trkpt><trkpt lat="43.6050048" lon="10.5500329"><ele>23.0</ele><time>2026-05-01T08:43:55.052Z</time></trkpt><trkpt lat="43.6049733" lon="10.5502708"><ele>23.0</ele><time>2026-05-01T08:43:56.039Z</time></trkpt><trkpt lat="43.6049234" lon="10.5504982"><ele>23.0</ele><time>2026-05-01T08:43:57.045Z</time></trkpt><trkpt lat="43.6048645" lon="10.5507321"><ele>22.666666666666668</ele><time>2026-05-01T08:43:58.048Z</time></trkpt><trkpt lat="43.6047946" lon="10.5509703"><ele>22.333333333333332</ele><time>2026-05-01T08:43:59.043Z</time></trkpt><trkpt lat="43.6047264" lon="10.5512034"><ele>22.0</ele><time>2026-05-01T08:44:00.046Z</time></trkpt><trkpt lat="43.6046595" lon="10.5514337"><ele>22.0</ele><time>2026-05-01T08:44:01.033Z</time></trkpt><trkpt lat="43.6045918" lon="10.5516597"><ele>22.0</ele><time>2026-05-01T08:44:02.038Z</time></trkpt><trkpt lat="43.6045216" lon="10.5518943"><ele>22.0</ele><time>2026-05-01T08:44:03.048Z</time></trkpt><trkpt lat="43.6044513" lon="10.5521294"><ele>22.0</ele><time>2026-05-01T08:44:04.044Z</time></trkpt><trkpt lat="43.6043773" lon="10.5523663"><ele>22.0</ele><time>2026-05-01T08:44:05.045Z</time></trkpt><trkpt lat="43.6043029" lon="10.5526073"><ele>22.0</ele><time>2026-05-01T08:44:06.045Z</time></trkpt><trkpt lat="43.604231" lon="10.552853"><ele>22.0</ele><time>2026-05-01T08:44:07.046Z</time></trkpt><trkpt lat="43.6041585" lon="10.5531011"><ele>22.0</ele><time>2026-05-01T08:44:08.051Z</time></trkpt><trkpt lat="43.6040867" lon="10.5533478"><ele>22.0</ele><time>2026-05-01T08:44:09.035Z</time></trkpt><trkpt lat="43.604015" lon="10.5535957"><ele>22.0</ele><time>2026-05-01T08:44:10.033Z</time></trkpt><trkpt lat="43.6039393" lon="10.5538457"><ele>22.0</ele><time>2026-05-01T08:44:11.035Z</time></trkpt><trkpt lat="43.603865" lon="10.5541004"><ele>22.0</ele><time>2026-05-01T08:44:12.043Z</time></trkpt><trkpt lat="43.6037937" lon="10.5543615"><ele>22.333333333333332</ele><time>2026-05-01T08:44:13.052Z</time></trkpt><trkpt lat="43.6037198" lon="10.5546175"><ele>22.666666666666668</ele><time>2026-05-01T08:44:14.049Z</time></trkpt><trkpt lat="43.6036452" lon="10.5548719"><ele>23.0</ele><time>2026-05-01T08:44:15.042Z</time></trkpt><trkpt lat="43.6035704" lon="10.5551215"><ele>23.0</ele><time>2026-05-01T08:44:16.041Z</time></trkpt><trkpt lat="43.6034949" lon="10.5553737"><ele>23.0</ele><time>2026-05-01T08:44:17.032Z</time></trkpt><trkpt lat="43.6034201" lon="10.5556188"><ele>23.0</ele><time>2026-05-01T08:44:18.044Z</time></trkpt><trkpt lat="43.6033453" lon="10.555855"><ele>23.0</ele><time>2026-05-01T08:44:19.05Z</time></trkpt><trkpt lat="43.6032649" lon="10.5560895"><ele>23.0</ele><time>2026-05-01T08:44:20.052Z</time></trkpt><trkpt lat="43.6031771" lon="10.5563157"><ele>23.0</ele><time>2026-05-01T08:44:21.053Z</time></trkpt><trkpt lat="43.6030742" lon="10.5565299"><ele>23.0</ele><time>2026-05-01T08:44:22.044Z</time></trkpt><trkpt lat="43.6029609" lon="10.5567435"><ele>23.0</ele><time>2026-05-01T08:44:23.049Z</time></trkpt><trkpt lat="43.6028441" lon="10.5569562"><ele>23.0</ele><time>2026-05-01T08:44:24.047Z</time></trkpt><trkpt lat="43.6027276" lon="10.5571723"><ele>23.666666666666668</ele><time>2026-05-01T08:44:25.035Z</time></trkpt><trkpt lat="43.6026103" lon="10.5573881"><ele>24.333333333333336</ele><time>2026-05-01T08:44:26.051Z</time></trkpt><trkpt lat="43.6024968" lon="10.5576032"><ele>25.0</ele><time>2026-05-01T08:44:27.041Z</time></trkpt><trkpt lat="43.602386" lon="10.557821"><ele>24.333333333333336</ele><time>2026-05-01T08:44:28.044Z</time></trkpt><trkpt lat="43.60227" lon="10.5580416"><ele>23.666666666666668</ele><time>2026-05-01T08:44:29.042Z</time></trkpt><trkpt lat="43.6021576" lon="10.5582565"><ele>23.0</ele><time>2026-05-01T08:44:30.048Z</time></trkpt><trkpt lat="43.6020431" lon="10.5584833"><ele>23.333333333333336</ele><time>2026-05-01T08:44:31.045Z</time></trkpt><trkpt lat="43.6019298" lon="10.5587008"><ele>23.666666666666668</ele><time>2026-05-01T08:44:32.045Z</time></trkpt><trkpt lat="43.6018209" lon="10.5589057"><ele>24.0</ele><time>2026-05-01T08:44:33.051Z</time></trkpt><trkpt lat="43.6017207" lon="10.5590997"><ele>24.333333333333336</ele><time>2026-05-01T08:44:34.047Z</time></trkpt><trkpt lat="43.601623" lon="10.5592945"><ele>24.666666666666668</ele><time>2026-05-01T08:44:35.046Z</time></trkpt><trkpt lat="43.6015342" lon="10.5595013"><ele>25.0</ele><time>2026-05-01T08:44:36.042Z</time></trkpt><trkpt lat="43.6014655" lon="10.5597134"><ele>25.0</ele><time>2026-05-01T08:44:37.036Z</time></trkpt><trkpt lat="43.6014077" lon="10.5599443"><ele>25.0</ele><time>2026-05-01T08:44:38.063Z</time></trkpt><trkpt lat="43.6013666" lon="10.5601814"><ele>25.0</ele><time>2026-05-01T08:44:39.037Z</time></trkpt><trkpt lat="43.6013455" lon="10.5604341"><ele>25.0</ele><time>2026-05-01T08:44:40.04Z</time></trkpt><trkpt lat="43.6013557" lon="10.5606794"><ele>25.0</ele><time>2026-05-01T08:44:41.041Z</time></trkpt><trkpt lat="43.60138" lon="10.5609193"><ele>25.0</ele><time>2026-05-01T08:44:42.027Z</time></trkpt><trkpt lat="43.6014206" lon="10.5611605"><ele>25.0</ele><time>2026-05-01T08:44:43.047Z</time></trkpt><trkpt lat="43.6014791" lon="10.5614008"><ele>25.0</ele><time>2026-05-01T08:44:44.052Z</time></trkpt><trkpt lat="43.6015523" lon="10.5616353"><ele>25.0</ele><time>2026-05-01T08:44:45.034Z</time></trkpt><trkpt lat="43.601631" lon="10.561871"><ele>25.333333333333336</ele><time>2026-05-01T08:44:46.053Z</time></trkpt><trkpt lat="43.6017096" lon="10.5621042"><ele>25.666666666666664</ele><time>2026-05-01T08:44:47.042Z</time></trkpt><trkpt lat="43.6017902" lon="10.5623394"><ele>26.0</ele><time>2026-05-01T08:44:48.046Z</time></trkpt><trkpt lat="43.6018684" lon="10.5625798"><ele>26.0</ele><time>2026-05-01T08:44:49.046Z</time></trkpt><trkpt lat="43.6019496" lon="10.5628271"><ele>26.0</ele><time>2026-05-01T08:44:50.043Z</time></trkpt><trkpt lat="43.6020304" lon="10.5630776"><ele>26.0</ele><time>2026-05-01T08:44:51.041Z</time></trkpt><trkpt lat="43.6021154" lon="10.5633264"><ele>26.0</ele><time>2026-05-01T08:44:52.039Z</time></trkpt><trkpt lat="43.6021995" lon="10.5635866"><ele>26.0</ele><time>2026-05-01T08:44:53.044Z</time></trkpt><trkpt lat="43.6022801" lon="10.5638474"><ele>26.0</ele><time>2026-05-01T08:44:54.036Z</time></trkpt><trkpt lat="43.6023618" lon="10.5641035"><ele>26.0</ele><time>2026-05-01T08:44:55.051Z</time></trkpt><trkpt lat="43.6024487" lon="10.5643612"><ele>26.0</ele><time>2026-05-01T08:44:56.048Z</time></trkpt><trkpt lat="43.6025352" lon="10.56462"><ele>26.0</ele><time>2026-05-01T08:44:57.046Z</time></trkpt><trkpt lat="43.60262" lon="10.5648773"><ele>26.0</ele><time>2026-05-01T08:44:58.049Z</time></trkpt><trkpt lat="43.6027026" lon="10.5651216"><ele>26.0</ele><time>2026-05-01T08:44:59.039Z</time></trkpt><trkpt lat="43.6027815" lon="10.5653596"><ele>26.0</ele><time>2026-05-01T08:45:00.043Z</time></trkpt><trkpt lat="43.6028631" lon="10.5655977"><ele>25.333333333333332</ele><time>2026-05-01T08:45:01.031Z</time></trkpt><trkpt lat="43.6029391" lon="10.5658263"><ele>24.666666666666664</ele><time>2026-05-01T08:45:02.035Z</time></trkpt><trkpt lat="43.6030177" lon="10.5660556"><ele>24.0</ele><time>2026-05-01T08:45:03.034Z</time></trkpt><trkpt lat="43.6030906" lon="10.5662825"><ele>24.0</ele><time>2026-05-01T08:45:04.037Z</time></trkpt><trkpt lat="43.60316" lon="10.5665028"><ele>24.0</ele><time>2026-05-01T08:45:05.047Z</time></trkpt><trkpt lat="43.6032234" lon="10.566699"><ele>24.0</ele><time>2026-05-01T08:45:06.036Z</time></trkpt><trkpt lat="43.60328" lon="10.5668767"><ele>24.5</ele><time>2026-05-01T08:45:07.042Z</time></trkpt><trkpt lat="43.6033262" lon="10.5670507"><ele>25.0</ele><time>2026-05-01T08:45:08.039Z</time></trkpt><trkpt lat="43.6033651" lon="10.5672327"><ele>25.5</ele><time>2026-05-01T08:45:09.043Z</time></trkpt><trkpt lat="43.6033894" lon="10.5674229"><ele>26.0</ele><time>2026-05-01T08:45:10.031Z</time></trkpt><trkpt lat="43.6033964" lon="10.5676188"><ele>26.0</ele><time>2026-05-01T08:45:11.043Z</time></trkpt><trkpt lat="43.603402" lon="10.5678013"><ele>26.0</ele><time>2026-05-01T08:45:12.052Z</time></trkpt><trkpt lat="43.6033993" lon="10.5679702"><ele>26.0</ele><time>2026-05-01T08:45:13.033Z</time></trkpt><trkpt lat="43.6034014" lon="10.5681354"><ele>26.0</ele><time>2026-05-01T08:45:14.046Z</time></trkpt><trkpt lat="43.6034049" lon="10.5683032"><ele>26.0</ele><time>2026-05-01T08:45:15.047Z</time></trkpt><trkpt lat="43.6034093" lon="10.5684541"><ele>26.0</ele><time>2026-05-01T08:45:16.042Z</time></trkpt><trkpt lat="43.6034144" lon="10.5686112"><ele>26.0</ele><time>2026-05-01T08:45:17.045Z</time></trkpt><trkpt lat="43.6034158" lon="10.5687616"><ele>26.0</ele><time>2026-05-01T08:45:18.045Z</time></trkpt><trkpt lat="43.6034163" lon="10.5689136"><ele>26.0</ele><time>2026-05-01T08:45:19.046Z</time></trkpt><trkpt lat="43.6034245" lon="10.5690575"><ele>26.0</ele><time>2026-05-01T08:45:20.038Z</time></trkpt><trkpt lat="43.6034394" lon="10.5692049"><ele>26.0</ele><time>2026-05-01T08:45:21.027Z</time></trkpt><trkpt lat="43.6034557" lon="10.5693565"><ele>26.0</ele><time>2026-05-01T08:45:22.034Z</time></trkpt><trkpt lat="43.6034754" lon="10.5695129"><ele>26.0</ele><time>2026-05-01T08:45:23.028Z</time></trkpt><trkpt lat="43.6034935" lon="10.5696784"><ele>25.75</ele><time>2026-05-01T08:45:24.028Z</time></trkpt><trkpt lat="43.6035196" lon="10.5698398"><ele>25.5</ele><time>2026-05-01T08:45:25.034Z</time></trkpt><trkpt lat="43.60355" lon="10.5700071"><ele>25.25</ele><time>2026-05-01T08:45:26.037Z</time></trkpt><trkpt lat="43.6035779" lon="10.5701724"><ele>25.0</ele><time>2026-05-01T08:45:27.029Z</time></trkpt><trkpt lat="43.6036095" lon="10.5703357"><ele>24.666666666666668</ele><time>2026-05-01T08:45:28.046Z</time></trkpt><trkpt lat="43.6036396" lon="10.5705066"><ele>24.333333333333336</ele><time>2026-05-01T08:45:29.055Z</time></trkpt><trkpt lat="43.6036653" lon="10.5706807"><ele>24.0</ele><time>2026-05-01T08:45:30.04Z</time></trkpt><trkpt lat="43.6037068" lon="10.571006"><ele>24.0</ele><time>2026-05-01T08:45:32.085Z</time></trkpt><trkpt lat="43.6037371" lon="10.5711624"><ele>24.0</ele><time>2026-05-01T08:45:33.021Z</time></trkpt><trkpt lat="43.6037686" lon="10.5713201"><ele>24.0</ele><time>2026-05-01T08:45:34.022Z</time></trkpt><trkpt lat="43.6037968" lon="10.5714748"><ele>24.0</ele><time>2026-05-01T08:45:35.035Z</time></trkpt><trkpt lat="43.6038388" lon="10.5716283"><ele>23.75</ele><time>2026-05-01T08:45:36.029Z</time></trkpt><trkpt lat="43.603868" lon="10.5717855"><ele>23.5</ele><time>2026-05-01T08:45:37.047Z</time></trkpt><trkpt lat="43.6039048" lon="10.5719402"><ele>23.25</ele><time>2026-05-01T08:45:38.051Z</time></trkpt><trkpt lat="43.6039544" lon="10.5721001"><ele>23.0</ele><time>2026-05-01T08:45:39.052Z</time></trkpt><trkpt lat="43.6040197" lon="10.5722562"><ele>23.0</ele><time>2026-05-01T08:45:40.067Z</time></trkpt><trkpt lat="43.6040973" lon="10.5724119"><ele>23.0</ele><time>2026-05-01T08:45:41.064Z</time></trkpt><trkpt lat="43.6041816" lon="10.5725685"><ele>23.0</ele><time>2026-05-01T08:45:42.052Z</time></trkpt><trkpt lat="43.6042693" lon="10.5727255"><ele>23.0</ele><time>2026-05-01T08:45:43.076Z</time></trkpt><trkpt lat="43.6043548" lon="10.5728809"><ele>22.5</ele><time>2026-05-01T08:45:44.071Z</time></trkpt><trkpt lat="43.6044442" lon="10.5730399"><ele>22.0</ele><time>2026-05-01T08:45:45.042Z</time></trkpt><trkpt lat="43.604534" lon="10.5731996"><ele>21.5</ele><time>2026-05-01T08:45:46.06Z</time></trkpt><trkpt lat="43.6046169" lon="10.5733601"><ele>21.0</ele><time>2026-05-01T08:45:47.058Z</time></trkpt><trkpt lat="43.6047085" lon="10.5735194"><ele>21.0</ele><time>2026-05-01T08:45:48.05Z</time></trkpt><trkpt lat="43.6047952" lon="10.5736704"><ele>21.0</ele><time>2026-05-01T08:45:49.047Z</time></trkpt><trkpt lat="43.6048813" lon="10.5738177"><ele>21.0</ele><time>2026-05-01T08:45:50.05Z</time></trkpt><trkpt lat="43.6049617" lon="10.5739686"><ele>21.0</ele><time>2026-05-01T08:45:51.041Z</time></trkpt><trkpt lat="43.6050408" lon="10.5741155"><ele>20.25</ele><time>2026-05-01T08:45:52.069Z</time></trkpt><trkpt lat="43.6051189" lon="10.5742693"><ele>19.5</ele><time>2026-05-01T08:45:53.059Z</time></trkpt><trkpt lat="43.6051874" lon="10.5744334"><ele>18.75</ele><time>2026-05-01T08:45:54.08Z</time></trkpt><trkpt lat="43.6052457" lon="10.5746183"><ele>18.0</ele><time>2026-05-01T08:45:55.082Z</time></trkpt><trkpt lat="43.60528" lon="10.5748145"><ele>17.25</ele><time>2026-05-01T08:45:56.054Z</time></trkpt><trkpt lat="43.6052997" lon="10.5750078"><ele>16.5</ele><time>2026-05-01T08:45:57.054Z</time></trkpt><trkpt lat="43.6053114" lon="10.575188"><ele>15.75</ele><time>2026-05-01T08:45:58.048Z</time></trkpt><trkpt lat="43.6053216" lon="10.5753555"><ele>15.0</ele><time>2026-05-01T08:45:59.044Z</time></trkpt><trkpt lat="43.6053246" lon="10.5755244"><ele>15.0</ele><time>2026-05-01T08:46:00.04Z</time></trkpt><trkpt lat="43.6053144" lon="10.5756875"><ele>15.0</ele><time>2026-05-01T08:46:01.071Z</time></trkpt><trkpt lat="43.6052896" lon="10.5758419"><ele>15.0</ele><time>2026-05-01T08:46:02.046Z</time></trkpt><trkpt lat="43.6052468" lon="10.5759752"><ele>15.0</ele><time>2026-05-01T08:46:03.049Z</time></trkpt><trkpt lat="43.605184" lon="10.5760915"><ele>15.0</ele><time>2026-05-01T08:46:04.044Z</time></trkpt><trkpt lat="43.6051069" lon="10.5762076"><ele>15.5</ele><time>2026-05-01T08:46:05.061Z</time></trkpt><trkpt lat="43.6050221" lon="10.5763275"><ele>16.0</ele><time>2026-05-01T08:46:06.045Z</time></trkpt><trkpt lat="43.5994092" lon="10.5846159"><ele>19.666666666666664</ele><time>2026-05-01T08:47:15.644Z</time></trkpt><trkpt lat="43.5993431" lon="10.5848142"><ele>23.333333333333332</ele><time>2026-05-01T08:47:17.057Z</time></trkpt><trkpt lat="43.599269" lon="10.5851054"><ele>27.0</ele><time>2026-05-01T08:47:19.036Z</time></trkpt><trkpt lat="43.5992367" lon="10.5852353"><ele>26.8</ele><time>2026-05-01T08:47:20.054Z</time></trkpt><trkpt lat="43.5992048" lon="10.5853569"><ele>26.6</ele><time>2026-05-01T08:47:21.045Z</time></trkpt><trkpt lat="43.5991709" lon="10.5854832"><ele>26.400000000000002</ele><time>2026-05-01T08:47:22.035Z</time></trkpt><trkpt lat="43.5991291" lon="10.5855988"><ele>26.200000000000003</ele><time>2026-05-01T08:47:23.043Z</time></trkpt><trkpt lat="43.5990824" lon="10.5857063"><ele>26.0</ele><time>2026-05-01T08:47:24.042Z</time></trkpt><trkpt lat="43.5990389" lon="10.585795"><ele>26.0</ele><time>2026-05-01T08:47:25.04Z</time></trkpt><trkpt lat="43.5989905" lon="10.5859025"><ele>26.0</ele><time>2026-05-01T08:47:26.031Z</time></trkpt><trkpt lat="43.5989575" lon="10.5860326"><ele>26.0</ele><time>2026-05-01T08:47:27.042Z</time></trkpt><trkpt lat="43.5989078" lon="10.5861478"><ele>26.0</ele><time>2026-05-01T08:47:28.027Z</time></trkpt><trkpt lat="43.5988947" lon="10.5862701"><ele>26.0</ele><time>2026-05-01T08:47:29.043Z</time></trkpt><trkpt lat="43.5988808" lon="10.5863974"><ele>26.0</ele><time>2026-05-01T08:47:30.046Z</time></trkpt><trkpt lat="43.5988675" lon="10.5865227"><ele>26.0</ele><time>2026-05-01T08:47:31.041Z</time></trkpt><trkpt lat="43.5988508" lon="10.5866475"><ele>26.0</ele><time>2026-05-01T08:47:32.034Z</time></trkpt><trkpt lat="43.5988468" lon="10.586776"><ele>26.0</ele><time>2026-05-01T08:47:33.036Z</time></trkpt><trkpt lat="43.5988609" lon="10.5869247"><ele>26.0</ele><time>2026-05-01T08:47:34.034Z</time></trkpt><trkpt lat="43.5988791" lon="10.5870697"><ele>25.8</ele><time>2026-05-01T08:47:35.039Z</time></trkpt><trkpt lat="43.5989006" lon="10.5872144"><ele>25.6</ele><time>2026-05-01T08:47:36.043Z</time></trkpt><trkpt lat="43.5989238" lon="10.5873552"><ele>25.4</ele><time>2026-05-01T08:47:37.039Z</time></trkpt><trkpt lat="43.5989385" lon="10.5875093"><ele>25.2</ele><time>2026-05-01T08:47:38.03Z</time></trkpt><trkpt lat="43.5989549" lon="10.5876542"><ele>25.0</ele><time>2026-05-01T08:47:39.035Z</time></trkpt><trkpt lat="43.5989739" lon="10.5878136"><ele>24.0</ele><time>2026-05-01T08:47:40.031Z</time></trkpt><trkpt lat="43.5989892" lon="10.58798"><ele>23.0</ele><time>2026-05-01T08:47:41.049Z</time></trkpt><trkpt lat="43.599019" lon="10.5881622"><ele>22.0</ele><time>2026-05-01T08:47:42.032Z</time></trkpt><trkpt lat="43.5990538" lon="10.5883551"><ele>21.0</ele><time>2026-05-01T08:47:43.044Z</time></trkpt><trkpt lat="43.5990913" lon="10.5885569"><ele>20.333333333333332</ele><time>2026-05-01T08:47:44.041Z</time></trkpt><trkpt lat="43.5991378" lon="10.5887545"><ele>19.666666666666664</ele><time>2026-05-01T08:47:45.039Z</time></trkpt><trkpt lat="43.5991782" lon="10.5889576"><ele>19.0</ele><time>2026-05-01T08:47:46.044Z</time></trkpt><trkpt lat="43.5991992" lon="10.5891629"><ele>19.0</ele><time>2026-05-01T08:47:47.046Z</time></trkpt><trkpt lat="43.5992046" lon="10.5893752"><ele>19.0</ele><time>2026-05-01T08:47:48.041Z</time></trkpt><trkpt lat="43.5991958" lon="10.5895883"><ele>19.0</ele><time>2026-05-01T08:47:49.042Z</time></trkpt><trkpt lat="43.5991768" lon="10.5897978"><ele>19.75</ele><time>2026-05-01T08:47:50.049Z</time></trkpt><trkpt lat="43.5991446" lon="10.5899946"><ele>20.5</ele><time>2026-05-01T08:47:51.041Z</time></trkpt><trkpt lat="43.5990974" lon="10.5901778"><ele>21.25</ele><time>2026-05-01T08:47:52.047Z</time></trkpt><trkpt lat="43.5990314" lon="10.5903328"><ele>22.0</ele><time>2026-05-01T08:47:53.049Z</time></trkpt><trkpt lat="43.5989588" lon="10.5904773"><ele>23.0</ele><time>2026-05-01T08:47:54.036Z</time></trkpt><trkpt lat="43.5988845" lon="10.5906212"><ele>24.0</ele><time>2026-05-01T08:47:55.041Z</time></trkpt><trkpt lat="43.5988196" lon="10.590767"><ele>25.0</ele><time>2026-05-01T08:47:56.039Z</time></trkpt><trkpt lat="43.5987497" lon="10.5909103"><ele>26.0</ele><time>2026-05-01T08:47:57.042Z</time></trkpt><trkpt lat="43.5986945" lon="10.5910264"><ele>26.200000000000003</ele><time>2026-05-01T08:47:58.037Z</time></trkpt><trkpt lat="43.5986438" lon="10.5911356"><ele>26.400000000000002</ele><time>2026-05-01T08:47:59.038Z</time></trkpt><trkpt lat="43.5985869" lon="10.5912362"><ele>26.6</ele><time>2026-05-01T08:48:00.045Z</time></trkpt><trkpt lat="43.598528" lon="10.5913329"><ele>26.8</ele><time>2026-05-01T08:48:01.035Z</time></trkpt><trkpt lat="43.5984564" lon="10.5914208"><ele>27.0</ele><time>2026-05-01T08:48:02.045Z</time></trkpt><trkpt lat="43.5983703" lon="10.5915088"><ele>27.0</ele><time>2026-05-01T08:48:03.039Z</time></trkpt><trkpt lat="43.5982821" lon="10.5915935"><ele>27.000000000000004</ele><time>2026-05-01T08:48:04.035Z</time></trkpt><trkpt lat="43.5982021" lon="10.5916662"><ele>27.000000000000004</ele><time>2026-05-01T08:48:05.05Z</time></trkpt><trkpt lat="43.5981259" lon="10.591733"><ele>27.0</ele><time>2026-05-01T08:48:06.052Z</time></trkpt><trkpt lat="43.5980539" lon="10.5917875"><ele>27.0</ele><time>2026-05-01T08:48:07.032Z</time></trkpt><trkpt lat="43.5979855" lon="10.5918307"><ele>27.0</ele><time>2026-05-01T08:48:08.035Z</time></trkpt><trkpt lat="43.5979238" lon="10.5918693"><ele>27.0</ele><time>2026-05-01T08:48:09.04Z</time></trkpt><trkpt lat="43.5978619" lon="10.5918976"><ele>27.0</ele><time>2026-05-01T08:48:10.041Z</time></trkpt><trkpt lat="43.5977831" lon="10.5919122"><ele>27.0</ele><time>2026-05-01T08:48:11.036Z</time></trkpt><trkpt lat="43.59769" lon="10.5919079"><ele>27.0</ele><time>2026-05-01T08:48:12.043Z</time></trkpt><trkpt lat="43.597576" lon="10.5918689"><ele>27.0</ele><time>2026-05-01T08:48:13.047Z</time></trkpt><trkpt lat="43.5974592" lon="10.591828"><ele>26.75</ele><time>2026-05-01T08:48:14.043Z</time></trkpt><trkpt lat="43.5973286" lon="10.5917995"><ele>26.5</ele><time>2026-05-01T08:48:15.032Z</time></trkpt><trkpt lat="43.5971855" lon="10.5917676"><ele>26.25</ele><time>2026-05-01T08:48:16.045Z</time></trkpt><trkpt lat="43.5970314" lon="10.5917361"><ele>26.0</ele><time>2026-05-01T08:48:17.041Z</time></trkpt><trkpt lat="43.5969017" lon="10.5917106"><ele>26.0</ele><time>2026-05-01T08:48:18.049Z</time></trkpt><trkpt lat="43.5968085" lon="10.5916829"><ele>26.0</ele><time>2026-05-01T08:48:19.05Z</time></trkpt><trkpt lat="43.5967362" lon="10.5917011"><ele>26.0</ele><time>2026-05-01T08:48:20.04Z</time></trkpt><trkpt lat="43.5966739" lon="10.5917417"><ele>26.0</ele><time>2026-05-01T08:48:21.061Z</time></trkpt><trkpt lat="43.5965824" lon="10.5918484"><ele>26.0</ele><time>2026-05-01T08:48:23.038Z</time></trkpt><trkpt lat="43.5965107" lon="10.5919668"><ele>25.4</ele><time>2026-05-01T08:48:25.039Z</time></trkpt><trkpt lat="43.5964556" lon="10.5920661"><ele>24.8</ele><time>2026-05-01T08:48:27.043Z</time></trkpt><trkpt lat="43.5964084" lon="10.5921333"><ele>24.2</ele><time>2026-05-01T08:48:30.041Z</time></trkpt><trkpt lat="43.5963789" lon="10.59224"><ele>23.599999999999998</ele><time>2026-05-01T08:49:37.031Z</time></trkpt><trkpt lat="43.5963413" lon="10.5923606"><ele>23.0</ele><time>2026-05-01T08:49:39.039Z</time></trkpt><trkpt lat="43.5962839" lon="10.5925052"><ele>23.0</ele><time>2026-05-01T08:49:41.039Z</time></trkpt><trkpt lat="43.596249" lon="10.5925957"><ele>23.0</ele><time>2026-05-01T08:49:42.042Z</time></trkpt><trkpt lat="43.5962088" lon="10.5926938"><ele>23.0</ele><time>2026-05-01T08:49:43.039Z</time></trkpt><trkpt lat="43.5961647" lon="10.5927979"><ele>23.0</ele><time>2026-05-01T08:49:44.034Z</time></trkpt><trkpt lat="43.5961096" lon="10.5929077"><ele>23.0</ele><time>2026-05-01T08:49:45.036Z</time></trkpt><trkpt lat="43.5960528" lon="10.5930099"><ele>23.0</ele><time>2026-05-01T08:49:46.057Z</time></trkpt><trkpt lat="43.5959951" lon="10.5931129"><ele>22.799999999999997</ele><time>2026-05-01T08:49:47.034Z</time></trkpt><trkpt lat="43.5959209" lon="10.59321"><ele>22.6</ele><time>2026-05-01T08:49:48.042Z</time></trkpt><trkpt lat="43.5958359" lon="10.5932911"><ele>22.4</ele><time>2026-05-01T08:49:49.043Z</time></trkpt><trkpt lat="43.5957342" lon="10.5933631"><ele>22.200000000000003</ele><time>2026-05-01T08:49:50.039Z</time></trkpt><trkpt lat="43.5956377" lon="10.5934356"><ele>22.0</ele><time>2026-05-01T08:49:51.037Z</time></trkpt><trkpt lat="43.5955546" lon="10.5935379"><ele>22.0</ele><time>2026-05-01T08:49:52.042Z</time></trkpt><trkpt lat="43.5954908" lon="10.593668"><ele>22.0</ele><time>2026-05-01T08:49:53.046Z</time></trkpt><trkpt lat="43.5954264" lon="10.5938148"><ele>22.0</ele><time>2026-05-01T08:49:54.043Z</time></trkpt><trkpt lat="43.5953703" lon="10.5939835"><ele>22.0</ele><time>2026-05-01T08:49:55.044Z</time></trkpt><trkpt lat="43.5953153" lon="10.5941513"><ele>22.75</ele><time>2026-05-01T08:49:56.05Z</time></trkpt><trkpt lat="43.5952649" lon="10.5943162"><ele>23.5</ele><time>2026-05-01T08:49:57.042Z</time></trkpt><trkpt lat="43.5952144" lon="10.5944828"><ele>24.25</ele><time>2026-05-01T08:49:58.044Z</time></trkpt><trkpt lat="43.5951611" lon="10.594643"><ele>25.0</ele><time>2026-05-01T08:49:59.041Z</time></trkpt><trkpt lat="43.5950908" lon="10.594775"><ele>25.25</ele><time>2026-05-01T08:50:00.038Z</time></trkpt><trkpt lat="43.5950029" lon="10.5948737"><ele>25.5</ele><time>2026-05-01T08:50:01.025Z</time></trkpt><trkpt lat="43.5949071" lon="10.5949106"><ele>25.75</ele><time>2026-05-01T08:50:02.027Z</time></trkpt><trkpt lat="43.5948" lon="10.5948937"><ele>26.0</ele><time>2026-05-01T08:50:03.043Z</time></trkpt><trkpt lat="43.5946705" lon="10.5948593"><ele>26.0</ele><time>2026-05-01T08:50:04.032Z</time></trkpt><trkpt lat="43.594523" lon="10.5948435"><ele>26.0</ele><time>2026-05-01T08:50:05.046Z</time></trkpt><trkpt lat="43.5943651" lon="10.5948284"><ele>26.0</ele><time>2026-05-01T08:50:06.035Z</time></trkpt><trkpt lat="43.5942193" lon="10.5947959"><ele>26.25</ele><time>2026-05-01T08:50:07.04Z</time></trkpt><trkpt lat="43.5940808" lon="10.5947552"><ele>26.5</ele><time>2026-05-01T08:50:08.042Z</time></trkpt><trkpt lat="43.5939647" lon="10.5947398"><ele>26.75</ele><time>2026-05-01T08:50:09.053Z</time></trkpt><trkpt lat="43.5938508" lon="10.5947578"><ele>27.0</ele><time>2026-05-01T08:50:10.04Z</time></trkpt><trkpt lat="43.5937314" lon="10.5948067"><ele>27.5</ele><time>2026-05-01T08:50:11.051Z</time></trkpt><trkpt lat="43.5936031" lon="10.5948592"><ele>28.0</ele><time>2026-05-01T08:50:12.04Z</time></trkpt><trkpt lat="43.5934744" lon="10.5949172"><ele>28.5</ele><time>2026-05-01T08:50:13.044Z</time></trkpt><trkpt lat="43.5933351" lon="10.5949813"><ele>29.0</ele><time>2026-05-01T08:50:14.044Z</time></trkpt><trkpt lat="43.5931902" lon="10.5950478"><ele>29.0</ele><time>2026-05-01T08:50:15.039Z</time></trkpt><trkpt lat="43.5930396" lon="10.5951196"><ele>29.0</ele><time>2026-05-01T08:50:16.039Z</time></trkpt><trkpt lat="43.5928924" lon="10.595197"><ele>29.0</ele><time>2026-05-01T08:50:17.039Z</time></trkpt><trkpt lat="43.592745" lon="10.5952977"><ele>31.666666666666664</ele><time>2026-05-01T08:50:18.036Z</time></trkpt><trkpt lat="43.5926078" lon="10.595414"><ele>34.333333333333336</ele><time>2026-05-01T08:50:19.04Z</time></trkpt><trkpt lat="43.5924648" lon="10.5955331"><ele>37.0</ele><time>2026-05-01T08:50:20.043Z</time></trkpt><trkpt lat="43.5923298" lon="10.5956336"><ele>37.0</ele><time>2026-05-01T08:50:21.046Z</time></trkpt><trkpt lat="43.5921965" lon="10.5957073"><ele>37.0</ele><time>2026-05-01T08:50:22.045Z</time></trkpt><trkpt lat="43.592065" lon="10.5957582"><ele>37.0</ele><time>2026-05-01T08:50:23.041Z</time></trkpt><trkpt lat="43.5919314" lon="10.595808"><ele>37.0</ele><time>2026-05-01T08:50:24.039Z</time></trkpt><trkpt lat="43.59181" lon="10.5958726"><ele>38.0</ele><time>2026-05-01T08:50:25.048Z</time></trkpt><trkpt lat="43.5916907" lon="10.595951"><ele>39.0</ele><time>2026-05-01T08:50:26.033Z</time></trkpt><trkpt lat="43.5915772" lon="10.5960536"><ele>40.0</ele><time>2026-05-01T08:50:27.052Z</time></trkpt><trkpt lat="43.5914678" lon="10.5961666"><ele>41.0</ele><time>2026-05-01T08:50:28.046Z</time></trkpt><trkpt lat="43.591366" lon="10.5962798"><ele>41.0</ele><time>2026-05-01T08:50:29.039Z</time></trkpt><trkpt lat="43.5912646" lon="10.5963949"><ele>41.0</ele><time>2026-05-01T08:50:30.049Z</time></trkpt><trkpt lat="43.5911678" lon="10.5965127"><ele>41.0</ele><time>2026-05-01T08:50:31.034Z</time></trkpt><trkpt lat="43.5910742" lon="10.5966404"><ele>41.0</ele><time>2026-05-01T08:50:32.043Z</time></trkpt><trkpt lat="43.5909774" lon="10.5967644"><ele>41.5</ele><time>2026-05-01T08:50:33.038Z</time></trkpt><trkpt lat="43.5908673" lon="10.5968804"><ele>42.0</ele><time>2026-05-01T08:50:34.044Z</time></trkpt><trkpt lat="43.5907434" lon="10.5969741"><ele>42.5</ele><time>2026-05-01T08:50:35.047Z</time></trkpt><trkpt lat="43.590614" lon="10.5970514"><ele>43.0</ele><time>2026-05-01T08:50:36.033Z</time></trkpt><trkpt lat="43.5904753" lon="10.5971206"><ele>46.25</ele><time>2026-05-01T08:50:37.051Z</time></trkpt><trkpt lat="43.5903385" lon="10.5971694"><ele>49.5</ele><time>2026-05-01T08:50:38.033Z</time></trkpt><trkpt lat="43.590201" lon="10.5972036"><ele>52.75</ele><time>2026-05-01T08:50:39.039Z</time></trkpt><trkpt lat="43.5900629" lon="10.5972247"><ele>56.0</ele><time>2026-05-01T08:50:40.043Z</time></trkpt><trkpt lat="43.5899225" lon="10.5972363"><ele>56.0</ele><time>2026-05-01T08:50:41.049Z</time></trkpt><trkpt lat="43.5897716" lon="10.5972365"><ele>56.0</ele><time>2026-05-01T08:50:42.041Z</time></trkpt><trkpt lat="43.5896211" lon="10.5972409"><ele>56.0</ele><time>2026-05-01T08:50:43.057Z</time></trkpt><trkpt lat="43.5894636" lon="10.5972543"><ele>58.333333333333336</ele><time>2026-05-01T08:50:44.047Z</time></trkpt><trkpt lat="43.5893038" lon="10.5972787"><ele>60.66666666666667</ele><time>2026-05-01T08:50:45.045Z</time></trkpt><trkpt lat="43.5891444" lon="10.5973245"><ele>63.0</ele><time>2026-05-01T08:50:46.026Z</time></trkpt><trkpt lat="43.5890012" lon="10.5973967"><ele>63.0</ele><time>2026-05-01T08:50:47.038Z</time></trkpt><trkpt lat="43.5888731" lon="10.5975077"><ele>63.0</ele><time>2026-05-01T08:50:48.042Z</time></trkpt><trkpt lat="43.5887533" lon="10.5976466"><ele>63.0</ele><time>2026-05-01T08:50:49.039Z</time></trkpt><trkpt lat="43.5886286" lon="10.5977993"><ele>64.33333333333333</ele><time>2026-05-01T08:50:50.036Z</time></trkpt><trkpt lat="43.5885082" lon="10.5979534"><ele>65.66666666666666</ele><time>2026-05-01T08:50:51.048Z</time></trkpt><trkpt lat="43.5883877" lon="10.5981146"><ele>67.0</ele><time>2026-05-01T08:50:52.052Z</time></trkpt><trkpt lat="43.5882516" lon="10.5982748"><ele>67.0</ele><time>2026-05-01T08:50:53.04Z</time></trkpt><trkpt lat="43.5881139" lon="10.5984335"><ele>67.0</ele><time>2026-05-01T08:50:54.037Z</time></trkpt><trkpt lat="43.5879706" lon="10.5986016"><ele>67.0</ele><time>2026-05-01T08:50:55.044Z</time></trkpt><trkpt lat="43.5878343" lon="10.5987657"><ele>69.66666666666666</ele><time>2026-05-01T08:50:56.054Z</time></trkpt><trkpt lat="43.587712" lon="10.598929"><ele>72.33333333333333</ele><time>2026-05-01T08:50:57.044Z</time></trkpt><trkpt lat="43.5876141" lon="10.5990918"><ele>75.0</ele><time>2026-05-01T08:50:58.05Z</time></trkpt><trkpt lat="43.5875358" lon="10.5992468"><ele>75.0</ele><time>2026-05-01T08:50:59.037Z</time></trkpt><trkpt lat="43.5874595" lon="10.5993937"><ele>75.0</ele><time>2026-05-01T08:51:00.034Z</time></trkpt><trkpt lat="43.587377" lon="10.5995332"><ele>75.0</ele><time>2026-05-01T08:51:01.04Z</time></trkpt><trkpt lat="43.5872898" lon="10.5996645"><ele>75.0</ele><time>2026-05-01T08:51:02.035Z</time></trkpt><trkpt lat="43.5871959" lon="10.5997932"><ele>75.0</ele><time>2026-05-01T08:51:03.041Z</time></trkpt><trkpt lat="43.5871038" lon="10.5999001"><ele>75.0</ele><time>2026-05-01T08:51:04.046Z</time></trkpt><trkpt lat="43.587019" lon="10.6000018"><ele>75.0</ele><time>2026-05-01T08:51:05.048Z</time></trkpt><trkpt lat="43.5869375" lon="10.6001182"><ele>75.0</ele><time>2026-05-01T08:51:06.039Z</time></trkpt><trkpt lat="43.5868766" lon="10.600267"><ele>75.75</ele><time>2026-05-01T08:51:07.048Z</time></trkpt><trkpt lat="43.5868309" lon="10.6004293"><ele>76.5</ele><time>2026-05-01T08:51:08.045Z</time></trkpt><trkpt lat="43.5867776" lon="10.6005959"><ele>77.25</ele><time>2026-05-01T08:51:09.043Z</time></trkpt><trkpt lat="43.5867169" lon="10.600759"><ele>78.0</ele><time>2026-05-01T08:51:10.041Z</time></trkpt><trkpt lat="43.5866373" lon="10.6009093"><ele>78.0</ele><time>2026-05-01T08:51:11.064Z</time></trkpt><trkpt lat="43.5865334" lon="10.6010313"><ele>78.0</ele><time>2026-05-01T08:51:12.038Z</time></trkpt><trkpt lat="43.5864224" lon="10.6011254"><ele>78.0</ele><time>2026-05-01T08:51:13.042Z</time></trkpt><trkpt lat="43.5863109" lon="10.6012093"><ele>78.0</ele><time>2026-05-01T08:51:14.043Z</time></trkpt><trkpt lat="43.5862067" lon="10.6012874"><ele>78.25</ele><time>2026-05-01T08:51:15.05Z</time></trkpt><trkpt lat="43.5860966" lon="10.6013596"><ele>78.5</ele><time>2026-05-01T08:51:16.033Z</time></trkpt><trkpt lat="43.5859907" lon="10.6014264"><ele>78.75</ele><time>2026-05-01T08:51:17.037Z</time></trkpt><trkpt lat="43.5858804" lon="10.6014935"><ele>79.0</ele><time>2026-05-01T08:51:18.05Z</time></trkpt><trkpt lat="43.5857824" lon="10.6015615"><ele>79.0</ele><time>2026-05-01T08:51:19.031Z</time></trkpt><trkpt lat="43.5856814" lon="10.6016411"><ele>79.0</ele><time>2026-05-01T08:51:20.044Z</time></trkpt><trkpt lat="43.5855779" lon="10.6017169"><ele>79.0</ele><time>2026-05-01T08:51:21.045Z</time></trkpt><trkpt lat="43.5854727" lon="10.6017847"><ele>79.0</ele><time>2026-05-01T08:51:22.038Z</time></trkpt><trkpt lat="43.5853593" lon="10.6018519"><ele>78.0</ele><time>2026-05-01T08:51:23.038Z</time></trkpt><trkpt lat="43.5852393" lon="10.601923"><ele>77.0</ele><time>2026-05-01T08:51:24.034Z</time></trkpt><trkpt lat="43.5851233" lon="10.6020179"><ele>76.0</ele><time>2026-05-01T08:51:25.041Z</time></trkpt><trkpt lat="43.5850165" lon="10.602144"><ele>75.0</ele><time>2026-05-01T08:51:26.042Z</time></trkpt><trkpt lat="43.5849212" lon="10.6022939"><ele>75.0</ele><time>2026-05-01T08:51:27.055Z</time></trkpt><trkpt lat="43.5848363" lon="10.6024607"><ele>75.0</ele><time>2026-05-01T08:51:28.036Z</time></trkpt><trkpt lat="43.5847524" lon="10.6026323"><ele>75.0</ele><time>2026-05-01T08:51:29.041Z</time></trkpt><trkpt lat="43.5846651" lon="10.6028025"><ele>75.0</ele><time>2026-05-01T08:51:30.045Z</time></trkpt><trkpt lat="43.5845713" lon="10.6029613"><ele>77.0</ele><time>2026-05-01T08:51:31.038Z</time></trkpt><trkpt lat="43.5844758" lon="10.6031146"><ele>79.0</ele><time>2026-05-01T08:51:32.038Z</time></trkpt><trkpt lat="43.584382" lon="10.6032609"><ele>81.0</ele><time>2026-05-01T08:51:33.043Z</time></trkpt><trkpt lat="43.5842948" lon="10.6033925"><ele>83.0</ele><time>2026-05-01T08:51:34.033Z</time></trkpt><trkpt lat="43.5842134" lon="10.6035041"><ele>83.0</ele><time>2026-05-01T08:51:35.038Z</time></trkpt><trkpt lat="43.5841254" lon="10.6036082"><ele>83.0</ele><time>2026-05-01T08:51:36.046Z</time></trkpt><trkpt lat="43.5840243" lon="10.6036953"><ele>83.0</ele><time>2026-05-01T08:51:37.051Z</time></trkpt><trkpt lat="43.5839174" lon="10.6037657"><ele>83.0</ele><time>2026-05-01T08:51:38.038Z</time></trkpt><trkpt lat="43.5838109" lon="10.6038538"><ele>83.25</ele><time>2026-05-01T08:51:39.04Z</time></trkpt><trkpt lat="43.5837298" lon="10.6039781"><ele>83.5</ele><time>2026-05-01T08:51:40.036Z</time></trkpt><trkpt lat="43.5836552" lon="10.6041207"><ele>83.75</ele><time>2026-05-01T08:51:41.041Z</time></trkpt><trkpt lat="43.5835892" lon="10.6042789"><ele>84.0</ele><time>2026-05-01T08:51:42.043Z</time></trkpt><trkpt lat="43.5835314" lon="10.6044396"><ele>85.6</ele><time>2026-05-01T08:51:43.05Z</time></trkpt><trkpt lat="43.5834836" lon="10.6045764"><ele>87.2</ele><time>2026-05-01T08:51:44.036Z</time></trkpt><trkpt lat="43.5834403" lon="10.6047002"><ele>88.8</ele><time>2026-05-01T08:51:45.037Z</time></trkpt><trkpt lat="43.5833917" lon="10.6048183"><ele>90.39999999999999</ele><time>2026-05-01T08:51:46.042Z</time></trkpt><trkpt lat="43.5833328" lon="10.6049314"><ele>92.0</ele><time>2026-05-01T08:51:47.034Z</time></trkpt><trkpt lat="43.5832657" lon="10.6050386"><ele>92.0</ele><time>2026-05-01T08:51:48.038Z</time></trkpt><trkpt lat="43.5831819" lon="10.6051448"><ele>92.0</ele><time>2026-05-01T08:51:49.036Z</time></trkpt><trkpt lat="43.5830821" lon="10.605235"><ele>92.0</ele><time>2026-05-01T08:51:50.033Z</time></trkpt><trkpt lat="43.5829777" lon="10.6053197"><ele>92.0</ele><time>2026-05-01T08:51:51.04Z</time></trkpt><trkpt lat="43.5828653" lon="10.6054175"><ele>92.25</ele><time>2026-05-01T08:51:52.045Z</time></trkpt><trkpt lat="43.5827468" lon="10.6055336"><ele>92.5</ele><time>2026-05-01T08:51:53.041Z</time></trkpt><trkpt lat="43.5826315" lon="10.6056595"><ele>92.75</ele><time>2026-05-01T08:51:54.044Z</time></trkpt><trkpt lat="43.5825212" lon="10.6057813"><ele>93.0</ele><time>2026-05-01T08:51:55.031Z</time></trkpt><trkpt lat="43.5824167" lon="10.6059026"><ele>93.0</ele><time>2026-05-01T08:51:56.048Z</time></trkpt><trkpt lat="43.5823244" lon="10.60602"><ele>93.0</ele><time>2026-05-01T08:51:57.048Z</time></trkpt><trkpt lat="43.5822473" lon="10.6061279"><ele>93.0</ele><time>2026-05-01T08:51:58.039Z</time></trkpt><trkpt lat="43.5821656" lon="10.6062338"><ele>93.0</ele><time>2026-05-01T08:51:59.045Z</time></trkpt><trkpt lat="43.5820847" lon="10.6063419"><ele>93.5</ele><time>2026-05-01T08:52:00.028Z</time></trkpt><trkpt lat="43.5820066" lon="10.6064506"><ele>94.0</ele><time>2026-05-01T08:52:01.041Z</time></trkpt><trkpt lat="43.5819176" lon="10.6065583"><ele>94.5</ele><time>2026-05-01T08:52:02.037Z</time></trkpt><trkpt lat="43.5818226" lon="10.6066689"><ele>95.0</ele><time>2026-05-01T08:52:03.039Z</time></trkpt><trkpt lat="43.5817113" lon="10.6067808"><ele>95.0</ele><time>2026-05-01T08:52:04.033Z</time></trkpt><trkpt lat="43.5815952" lon="10.606878"><ele>95.0</ele><time>2026-05-01T08:52:05.041Z</time></trkpt><trkpt lat="43.5814696" lon="10.6069744"><ele>95.0</ele><time>2026-05-01T08:52:06.039Z</time></trkpt><trkpt lat="43.5813348" lon="10.6070655"><ele>95.0</ele><time>2026-05-01T08:52:07.043Z</time></trkpt><trkpt lat="43.5812057" lon="10.607149"><ele>94.0</ele><time>2026-05-01T08:52:08.036Z</time></trkpt><trkpt lat="43.5810899" lon="10.6072287"><ele>93.0</ele><time>2026-05-01T08:52:09.039Z</time></trkpt><trkpt lat="43.5809945" lon="10.6073083"><ele>92.0</ele><time>2026-05-01T08:52:10.04Z</time></trkpt><trkpt lat="43.5809169" lon="10.6073986"><ele>91.0</ele><time>2026-05-01T08:52:11.044Z</time></trkpt><trkpt lat="43.5808621" lon="10.6075042"><ele>90.0</ele><time>2026-05-01T08:52:12.046Z</time></trkpt><trkpt lat="43.5808149" lon="10.6076359"><ele>90.0</ele><time>2026-05-01T08:52:13.042Z</time></trkpt><trkpt lat="43.5807717" lon="10.607777"><ele>90.0</ele><time>2026-05-01T08:52:14.049Z</time></trkpt><trkpt lat="43.5807343" lon="10.607931"><ele>90.0</ele><time>2026-05-01T08:52:15.037Z</time></trkpt><trkpt lat="43.5806888" lon="10.6081003"><ele>90.0</ele><time>2026-05-01T08:52:16.029Z</time></trkpt><trkpt lat="43.5806392" lon="10.608284"><ele>89.5</ele><time>2026-05-01T08:52:17.037Z</time></trkpt><trkpt lat="43.5805915" lon="10.608471"><ele>89.0</ele><time>2026-05-01T08:52:18.046Z</time></trkpt><trkpt lat="43.5805497" lon="10.6086492"><ele>88.5</ele><time>2026-05-01T08:52:19.048Z</time></trkpt><trkpt lat="43.5805152" lon="10.608826"><ele>88.0</ele><time>2026-05-01T08:52:20.052Z</time></trkpt><trkpt lat="43.5804834" lon="10.6090011"><ele>87.25</ele><time>2026-05-01T08:52:21.034Z</time></trkpt><trkpt lat="43.5804431" lon="10.6091719"><ele>86.5</ele><time>2026-05-01T08:52:22.049Z</time></trkpt><trkpt lat="43.580401" lon="10.6093306"><ele>85.75</ele><time>2026-05-01T08:52:23.029Z</time></trkpt><trkpt lat="43.5803438" lon="10.6094791"><ele>85.0</ele><time>2026-05-01T08:52:24.038Z</time></trkpt><trkpt lat="43.580274" lon="10.6096188"><ele>85.0</ele><time>2026-05-01T08:52:25.037Z</time></trkpt><trkpt lat="43.580181" lon="10.6097507"><ele>85.0</ele><time>2026-05-01T08:52:26.038Z</time></trkpt><trkpt lat="43.5800618" lon="10.6098958"><ele>85.0</ele><time>2026-05-01T08:52:27.043Z</time></trkpt><trkpt lat="43.5799249" lon="10.6100563"><ele>85.0</ele><time>2026-05-01T08:52:28.038Z</time></trkpt><trkpt lat="43.5797629" lon="10.6102123"><ele>85.0</ele><time>2026-05-01T08:52:29.026Z</time></trkpt><trkpt lat="43.5796059" lon="10.6103891"><ele>85.0</ele><time>2026-05-01T08:52:30.025Z</time></trkpt><trkpt lat="43.5794771" lon="10.6105444"><ele>85.33333333333333</ele><time>2026-05-01T08:52:31.045Z</time></trkpt><trkpt lat="43.5793428" lon="10.6106459"><ele>85.66666666666667</ele><time>2026-05-01T08:52:32.044Z</time></trkpt><trkpt lat="43.579203" lon="10.6107097"><ele>86.0</ele><time>2026-05-01T08:52:33.023Z</time></trkpt><trkpt lat="43.5790559" lon="10.6107582"><ele>86.0</ele><time>2026-05-01T08:52:34.036Z</time></trkpt><trkpt lat="43.5789204" lon="10.6108002"><ele>86.0</ele><time>2026-05-01T08:52:35.042Z</time></trkpt><trkpt lat="43.5787835" lon="10.6108401"><ele>86.0</ele><time>2026-05-01T08:52:36.037Z</time></trkpt><trkpt lat="43.5786518" lon="10.6108712"><ele>86.0</ele><time>2026-05-01T08:52:37.048Z</time></trkpt><trkpt lat="43.5785241" lon="10.6108977"><ele>86.75</ele><time>2026-05-01T08:52:38.043Z</time></trkpt><trkpt lat="43.5783946" lon="10.6109116"><ele>87.5</ele><time>2026-05-01T08:52:39.046Z</time></trkpt><trkpt lat="43.5782659" lon="10.6109323"><ele>88.25</ele><time>2026-05-01T08:52:40.036Z</time></trkpt><trkpt lat="43.5781443" lon="10.6109769"><ele>89.0</ele><time>2026-05-01T08:52:41.038Z</time></trkpt><trkpt lat="43.5780217" lon="10.6110494"><ele>89.0</ele><time>2026-05-01T08:52:42.033Z</time></trkpt><trkpt lat="43.577912" lon="10.6111401"><ele>89.0</ele><time>2026-05-01T08:52:43.049Z</time></trkpt><trkpt lat="43.5778099" lon="10.6112641"><ele>89.0</ele><time>2026-05-01T08:52:44.042Z</time></trkpt><trkpt lat="43.5777254" lon="10.611412"><ele>89.0</ele><time>2026-05-01T08:52:45.046Z</time></trkpt><trkpt lat="43.5776573" lon="10.6115538"><ele>89.6</ele><time>2026-05-01T08:52:46.049Z</time></trkpt><trkpt lat="43.5775935" lon="10.6116885"><ele>90.2</ele><time>2026-05-01T08:52:47.043Z</time></trkpt><trkpt lat="43.5775426" lon="10.6118164"><ele>90.8</ele><time>2026-05-01T08:52:48.037Z</time></trkpt><trkpt lat="43.5774898" lon="10.6119479"><ele>91.39999999999999</ele><time>2026-05-01T08:52:49.048Z</time></trkpt><trkpt lat="43.5774381" lon="10.6120775"><ele>92.0</ele><time>2026-05-01T08:52:50.038Z</time></trkpt><trkpt lat="43.5773841" lon="10.6122048"><ele>93.39999999999999</ele><time>2026-05-01T08:52:51.052Z</time></trkpt><trkpt lat="43.5773263" lon="10.6123242"><ele>94.8</ele><time>2026-05-01T08:52:52.048Z</time></trkpt><trkpt lat="43.5772599" lon="10.6124304"><ele>96.2</ele><time>2026-05-01T08:52:53.042Z</time></trkpt><trkpt lat="43.5771701" lon="10.6124879"><ele>97.6</ele><time>2026-05-01T08:52:54.045Z</time></trkpt><trkpt lat="43.57707" lon="10.6125063"><ele>99.0</ele><time>2026-05-01T08:52:55.043Z</time></trkpt><trkpt lat="43.5769688" lon="10.6124896"><ele>99.0</ele><time>2026-05-01T08:52:56.045Z</time></trkpt><trkpt lat="43.5768579" lon="10.6124365"><ele>99.0</ele><time>2026-05-01T08:52:57.057Z</time></trkpt><trkpt lat="43.5767551" lon="10.6123661"><ele>99.0</ele><time>2026-05-01T08:52:58.05Z</time></trkpt><trkpt lat="43.5766455" lon="10.6122912"><ele>99.0</ele><time>2026-05-01T08:52:59.052Z</time></trkpt><trkpt lat="43.5765281" lon="10.6122089"><ele>99.0</ele><time>2026-05-01T08:53:00.048Z</time></trkpt><trkpt lat="43.5764011" lon="10.6121228"><ele>99.0</ele><time>2026-05-01T08:53:01.043Z</time></trkpt><trkpt lat="43.5762657" lon="10.6120518"><ele>99.0</ele><time>2026-05-01T08:53:02.035Z</time></trkpt><trkpt lat="43.5761243" lon="10.6120052"><ele>99.0</ele><time>2026-05-01T08:53:03.045Z</time></trkpt><trkpt lat="43.575974" lon="10.6119834"><ele>98.0</ele><time>2026-05-01T08:53:04.035Z</time></trkpt><trkpt lat="43.5758238" lon="10.6119867"><ele>97.0</ele><time>2026-05-01T08:53:05.041Z</time></trkpt><trkpt lat="43.5756712" lon="10.611992"><ele>96.0</ele><time>2026-05-01T08:53:06.029Z</time></trkpt><trkpt lat="43.5755109" lon="10.6119974"><ele>92.66666666666667</ele><time>2026-05-01T08:53:07.054Z</time></trkpt><trkpt lat="43.5753524" lon="10.6120079"><ele>89.33333333333334</ele><time>2026-05-01T08:53:08.047Z</time></trkpt><trkpt lat="43.5751979" lon="10.6120221"><ele>86.0</ele><time>2026-05-01T08:53:09.041Z</time></trkpt><trkpt lat="43.5750479" lon="10.6120419"><ele>86.0</ele><time>2026-05-01T08:53:10.046Z</time></trkpt><trkpt lat="43.5749025" lon="10.6120602"><ele>86.0</ele><time>2026-05-01T08:53:11.045Z</time></trkpt><trkpt lat="43.5747629" lon="10.6120867"><ele>86.0</ele><time>2026-05-01T08:53:12.045Z</time></trkpt><trkpt lat="43.5746354" lon="10.6121415"><ele>86.0</ele><time>2026-05-01T08:53:13.047Z</time></trkpt><trkpt lat="43.5745161" lon="10.6122387"><ele>87.5</ele><time>2026-05-01T08:53:14.05Z</time></trkpt><trkpt lat="43.5743992" lon="10.6123612"><ele>89.0</ele><time>2026-05-01T08:53:15.034Z</time></trkpt><trkpt lat="43.5742819" lon="10.6124817"><ele>90.5</ele><time>2026-05-01T08:53:16.047Z</time></trkpt><trkpt lat="43.574162" lon="10.6125968"><ele>92.0</ele><time>2026-05-01T08:53:17.035Z</time></trkpt><trkpt lat="43.5740549" lon="10.6127174"><ele>90.0</ele><time>2026-05-01T08:53:18.036Z</time></trkpt><trkpt lat="43.5739841" lon="10.612866"><ele>88.0</ele><time>2026-05-01T08:53:19.042Z</time></trkpt><trkpt lat="43.5739414" lon="10.6130409"><ele>86.0</ele><time>2026-05-01T08:53:20.049Z</time></trkpt><trkpt lat="43.5739214" lon="10.6132252"><ele>84.0</ele><time>2026-05-01T08:53:21.039Z</time></trkpt><trkpt lat="43.5739069" lon="10.613406"><ele>84.0</ele><time>2026-05-01T08:53:22.038Z</time></trkpt><trkpt lat="43.5738961" lon="10.6135893"><ele>84.0</ele><time>2026-05-01T08:53:23.03Z</time></trkpt><trkpt lat="43.573875" lon="10.6137501"><ele>84.0</ele><time>2026-05-01T08:53:24.041Z</time></trkpt><trkpt lat="43.5738522" lon="10.6138872"><ele>84.0</ele><time>2026-05-01T08:53:25.041Z</time></trkpt><trkpt lat="43.5738147" lon="10.6139954"><ele>84.0</ele><time>2026-05-01T08:53:26.039Z</time></trkpt><trkpt lat="43.5737632" lon="10.6140699"><ele>83.33333333333333</ele><time>2026-05-01T08:53:27.037Z</time></trkpt><trkpt lat="43.5736934" lon="10.6141254"><ele>82.66666666666667</ele><time>2026-05-01T08:53:28.032Z</time></trkpt><trkpt lat="43.5736269" lon="10.61417"><ele>82.0</ele><time>2026-05-01T08:53:29.041Z</time></trkpt><trkpt lat="43.573557" lon="10.6142182"><ele>81.33333333333334</ele><time>2026-05-01T08:53:30.043Z</time></trkpt><trkpt lat="43.5734921" lon="10.614248"><ele>80.66666666666667</ele><time>2026-05-01T08:53:31.047Z</time></trkpt><trkpt lat="43.5734311" lon="10.6142782"><ele>80.0</ele><time>2026-05-01T08:53:32.041Z</time></trkpt><trkpt lat="43.5733405" lon="10.6143291"><ele>81.6</ele><time>2026-05-01T08:53:34.038Z</time></trkpt><trkpt lat="43.5732866" lon="10.6144176"><ele>83.2</ele><time>2026-05-01T08:53:38.026Z</time></trkpt><trkpt lat="43.5732983" lon="10.6146149"><ele>84.80000000000001</ele><time>2026-05-01T08:53:40.036Z</time></trkpt><trkpt lat="43.5733047" lon="10.6147448"><ele>86.4</ele><time>2026-05-01T08:53:41.035Z</time></trkpt><trkpt lat="43.5732865" lon="10.6148831"><ele>88.0</ele><time>2026-05-01T08:53:42.036Z</time></trkpt><trkpt lat="43.5732695" lon="10.6150152"><ele>88.0</ele><time>2026-05-01T08:53:43.051Z</time></trkpt><trkpt lat="43.5732555" lon="10.6151156"><ele>88.0</ele><time>2026-05-01T08:53:44.05Z</time></trkpt><trkpt lat="43.57323" lon="10.6151976"><ele>88.0</ele><time>2026-05-01T08:53:45.039Z</time></trkpt><trkpt lat="43.5731867" lon="10.6152738"><ele>88.0</ele><time>2026-05-01T08:53:46.05Z</time></trkpt><trkpt lat="43.5731294" lon="10.6153698"><ele>88.0</ele><time>2026-05-01T08:53:47.038Z</time></trkpt><trkpt lat="43.5730661" lon="10.6154659"><ele>88.0</ele><time>2026-05-01T08:53:48.041Z</time></trkpt><trkpt lat="43.573013" lon="10.6155724"><ele>88.60000000000001</ele><time>2026-05-01T08:53:49.035Z</time></trkpt><trkpt lat="43.5729589" lon="10.61568"><ele>89.2</ele><time>2026-05-01T08:53:50.045Z</time></trkpt><trkpt lat="43.5729155" lon="10.6157815"><ele>89.8</ele><time>2026-05-01T08:53:51.036Z</time></trkpt><trkpt lat="43.5728755" lon="10.6158946"><ele>90.4</ele><time>2026-05-01T08:53:52.054Z</time></trkpt><trkpt lat="43.572848" lon="10.6160215"><ele>91.0</ele><time>2026-05-01T08:53:53.049Z</time></trkpt><trkpt lat="43.5728253" lon="10.6161463"><ele>89.0</ele><time>2026-05-01T08:53:54.038Z</time></trkpt><trkpt lat="43.5728007" lon="10.6162625"><ele>87.0</ele><time>2026-05-01T08:53:55.041Z</time></trkpt><trkpt lat="43.5727834" lon="10.6163731"><ele>85.0</ele><time>2026-05-01T08:53:56.039Z</time></trkpt><trkpt lat="43.5727701" lon="10.6164778"><ele>83.0</ele><time>2026-05-01T08:53:57.043Z</time></trkpt><trkpt lat="43.5727503" lon="10.6165818"><ele>81.0</ele><time>2026-05-01T08:53:58.039Z</time></trkpt><trkpt lat="43.5727313" lon="10.6166867"><ele>79.0</ele><time>2026-05-01T08:53:59.042Z</time></trkpt><trkpt lat="43.5727139" lon="10.616783"><ele>79.00000000000001</ele><time>2026-05-01T08:54:00.031Z</time></trkpt><trkpt lat="43.5726944" lon="10.6168742"><ele>79.0</ele><time>2026-05-01T08:54:01.035Z</time></trkpt><trkpt lat="43.5726679" lon="10.6169682"><ele>79.0</ele><time>2026-05-01T08:54:02.047Z</time></trkpt><trkpt lat="43.5726449" lon="10.6170646"><ele>79.0</ele><time>2026-05-01T08:54:03.047Z</time></trkpt><trkpt lat="43.5726067" lon="10.6171567"><ele>79.0</ele><time>2026-05-01T08:54:04.037Z</time></trkpt><trkpt lat="43.5725673" lon="10.6172409"><ele>79.00000000000001</ele><time>2026-05-01T08:54:05.055Z</time></trkpt><trkpt lat="43.5725321" lon="10.6173219"><ele>79.0</ele><time>2026-05-01T08:54:06.04Z</time></trkpt><trkpt lat="43.5724774" lon="10.6174691"><ele>79.0</ele><time>2026-05-01T08:54:08.033Z</time></trkpt><trkpt lat="43.5724189" lon="10.6176175"><ele>79.0</ele><time>2026-05-01T08:54:10.043Z</time></trkpt><trkpt lat="43.572379" lon="10.6176986"><ele>79.0</ele><time>2026-05-01T08:54:11.036Z</time></trkpt><trkpt lat="43.5723329" lon="10.6177789"><ele>79.0</ele><time>2026-05-01T08:54:12.04Z</time></trkpt><trkpt lat="43.5722961" lon="10.6178675"><ele>79.0</ele><time>2026-05-01T08:54:13.042Z</time></trkpt><trkpt lat="43.5722743" lon="10.6179715"><ele>79.0</ele><time>2026-05-01T08:54:14.047Z</time></trkpt><trkpt lat="43.5722668" lon="10.6180666"><ele>79.33333333333333</ele><time>2026-05-01T08:54:15.034Z</time></trkpt><trkpt lat="43.5722874" lon="10.6181665"><ele>79.66666666666666</ele><time>2026-05-01T08:54:16.039Z</time></trkpt><trkpt lat="43.5723256" lon="10.6182609"><ele>80.0</ele><time>2026-05-01T08:54:17.035Z</time></trkpt><trkpt lat="43.5723597" lon="10.6183807"><ele>80.33333333333333</ele><time>2026-05-01T08:54:18.046Z</time></trkpt><trkpt lat="43.5723727" lon="10.6184958"><ele>80.66666666666667</ele><time>2026-05-01T08:54:19.045Z</time></trkpt><trkpt lat="43.5723786" lon="10.6186196"><ele>81.0</ele><time>2026-05-01T08:54:20.042Z</time></trkpt><trkpt lat="43.5724021" lon="10.6187377"><ele>81.0</ele><time>2026-05-01T08:54:21.033Z</time></trkpt><trkpt lat="43.5724493" lon="10.6188854"><ele>81.0</ele><time>2026-05-01T08:54:22.044Z</time></trkpt><trkpt lat="43.5725093" lon="10.6190376"><ele>81.0</ele><time>2026-05-01T08:54:23.031Z</time></trkpt><trkpt lat="43.5725731" lon="10.6191933"><ele>81.0</ele><time>2026-05-01T08:54:24.045Z</time></trkpt><trkpt lat="43.5726552" lon="10.6193576"><ele>81.75</ele><time>2026-05-01T08:54:25.038Z</time></trkpt><trkpt lat="43.5727387" lon="10.6195261"><ele>82.5</ele><time>2026-05-01T08:54:26.042Z</time></trkpt><trkpt lat="43.5728235" lon="10.6196924"><ele>83.25</ele><time>2026-05-01T08:54:27.045Z</time></trkpt><trkpt lat="43.5729081" lon="10.6198589"><ele>84.0</ele><time>2026-05-01T08:54:28.038Z</time></trkpt><trkpt lat="43.5729918" lon="10.6200376"><ele>79.0</ele><time>2026-05-01T08:54:29.032Z</time></trkpt><trkpt lat="43.5730816" lon="10.6202102"><ele>74.0</ele><time>2026-05-01T08:54:30.034Z</time></trkpt><trkpt lat="43.5731679" lon="10.6203907"><ele>69.0</ele><time>2026-05-01T08:54:31.037Z</time></trkpt><trkpt lat="43.5732523" lon="10.6205767"><ele>69.0</ele><time>2026-05-01T08:54:32.041Z</time></trkpt><trkpt lat="43.5733285" lon="10.620772"><ele>69.0</ele><time>2026-05-01T08:54:33.033Z</time></trkpt><trkpt lat="43.5734011" lon="10.6209736"><ele>69.0</ele><time>2026-05-01T08:54:34.036Z</time></trkpt><trkpt lat="43.5734637" lon="10.6211825"><ele>68.66666666666667</ele><time>2026-05-01T08:54:35.032Z</time></trkpt><trkpt lat="43.5735205" lon="10.6214034"><ele>68.33333333333334</ele><time>2026-05-01T08:54:36.048Z</time></trkpt><trkpt lat="43.5735619" lon="10.6216199"><ele>68.0</ele><time>2026-05-01T08:54:37.046Z</time></trkpt><trkpt lat="43.5735832" lon="10.6218394"><ele>67.66666666666667</ele><time>2026-05-01T08:54:38.045Z</time></trkpt><trkpt lat="43.5735985" lon="10.6220468"><ele>67.33333333333333</ele><time>2026-05-01T08:54:39.034Z</time></trkpt><trkpt lat="43.5736042" lon="10.622251"><ele>67.0</ele><time>2026-05-01T08:54:40.05Z</time></trkpt><trkpt lat="43.5735976" lon="10.6224586"><ele>67.0</ele><time>2026-05-01T08:54:41.039Z</time></trkpt><trkpt lat="43.5735952" lon="10.6226641"><ele>67.0</ele><time>2026-05-01T08:54:42.036Z</time></trkpt><trkpt lat="43.5735964" lon="10.6228751"><ele>67.0</ele><time>2026-05-01T08:54:43.04Z</time></trkpt><trkpt lat="43.5735984" lon="10.6230873"><ele>66.33333333333333</ele><time>2026-05-01T08:54:44.028Z</time></trkpt><trkpt lat="43.5735973" lon="10.6233052"><ele>65.66666666666667</ele><time>2026-05-01T08:54:45.045Z</time></trkpt><trkpt lat="43.5735946" lon="10.6235221"><ele>65.0</ele><time>2026-05-01T08:54:46.055Z</time></trkpt><trkpt lat="43.5736046" lon="10.6237297"><ele>64.75</ele><time>2026-05-01T08:54:47.041Z</time></trkpt><trkpt lat="43.5736299" lon="10.6239199"><ele>64.5</ele><time>2026-05-01T08:54:48.041Z</time></trkpt><trkpt lat="43.5736644" lon="10.624107"><ele>64.25</ele><time>2026-05-01T08:54:49.039Z</time></trkpt><trkpt lat="43.5737259" lon="10.6242907"><ele>64.0</ele><time>2026-05-01T08:54:50.034Z</time></trkpt><trkpt lat="43.5738069" lon="10.6244654"><ele>59.75</ele><time>2026-05-01T08:54:51.035Z</time></trkpt><trkpt lat="43.5738974" lon="10.6246301"><ele>55.5</ele><time>2026-05-01T08:54:52.039Z</time></trkpt><trkpt lat="43.573992" lon="10.6247897"><ele>51.25</ele><time>2026-05-01T08:54:53.042Z</time></trkpt><trkpt lat="43.5740775" lon="10.6249566"><ele>47.0</ele><time>2026-05-01T08:54:54.036Z</time></trkpt><trkpt lat="43.5741388" lon="10.6251415"><ele>45.666666666666664</ele><time>2026-05-01T08:54:55.047Z</time></trkpt><trkpt lat="43.5741764" lon="10.6253435"><ele>44.333333333333336</ele><time>2026-05-01T08:54:56.043Z</time></trkpt><trkpt lat="43.5742073" lon="10.6255426"><ele>43.0</ele><time>2026-05-01T08:54:57.037Z</time></trkpt><trkpt lat="43.5742381" lon="10.6257524"><ele>43.0</ele><time>2026-05-01T08:54:58.051Z</time></trkpt><trkpt lat="43.5742641" lon="10.6259707"><ele>43.0</ele><time>2026-05-01T08:54:59.031Z</time></trkpt><trkpt lat="43.5742889" lon="10.6261905"><ele>43.0</ele><time>2026-05-01T08:55:00.036Z</time></trkpt><trkpt lat="43.574314" lon="10.6264201"><ele>41.66666666666667</ele><time>2026-05-01T08:55:01.038Z</time></trkpt><trkpt lat="43.5743323" lon="10.6266483"><ele>40.333333333333336</ele><time>2026-05-01T08:55:02.036Z</time></trkpt><trkpt lat="43.5743555" lon="10.6268732"><ele>39.0</ele><time>2026-05-01T08:55:03.039Z</time></trkpt><trkpt lat="43.5743738" lon="10.6270737"><ele>38.5</ele><time>2026-05-01T08:55:04.044Z</time></trkpt><trkpt lat="43.5743937" lon="10.6272671"><ele>38.0</ele><time>2026-05-01T08:55:05.035Z</time></trkpt><trkpt lat="43.5744135" lon="10.6274403"><ele>37.5</ele><time>2026-05-01T08:55:06.05Z</time></trkpt><trkpt lat="43.5744295" lon="10.6275946"><ele>37.0</ele><time>2026-05-01T08:55:07.048Z</time></trkpt><trkpt lat="43.574437" lon="10.6277254"><ele>36.5</ele><time>2026-05-01T08:55:08.045Z</time></trkpt><trkpt lat="43.5744317" lon="10.6278312"><ele>36.0</ele><time>2026-05-01T08:55:09.055Z</time></trkpt><trkpt lat="43.5743984" lon="10.6279242"><ele>35.5</ele><time>2026-05-01T08:55:10.037Z</time></trkpt><trkpt lat="43.5742932" lon="10.6279964"><ele>35.0</ele><time>2026-05-01T08:55:12.045Z</time></trkpt><trkpt lat="43.5742128" lon="10.6279907"><ele>34.5</ele><time>2026-05-01T08:55:13.041Z</time></trkpt><trkpt lat="43.5741328" lon="10.6279584"><ele>34.0</ele><time>2026-05-01T08:55:14.036Z</time></trkpt><trkpt lat="43.5740365" lon="10.6279385"><ele>34.0</ele><time>2026-05-01T08:55:15.038Z</time></trkpt><trkpt lat="43.5739256" lon="10.6279216"><ele>34.0</ele><time>2026-05-01T08:55:16.034Z</time></trkpt><trkpt lat="43.5738118" lon="10.6278944"><ele>34.0</ele><time>2026-05-01T08:55:17.042Z</time></trkpt><trkpt lat="43.5736821" lon="10.6278633"><ele>34.0</ele><time>2026-05-01T08:55:18.042Z</time></trkpt><trkpt lat="43.5735435" lon="10.627834"><ele>35.25</ele><time>2026-05-01T08:55:19.044Z</time></trkpt><trkpt lat="43.5733967" lon="10.6278071"><ele>36.5</ele><time>2026-05-01T08:55:20.05Z</time></trkpt><trkpt lat="43.5732581" lon="10.6277777"><ele>37.75</ele><time>2026-05-01T08:55:21.03Z</time></trkpt><trkpt lat="43.5731124" lon="10.6277502"><ele>39.0</ele><time>2026-05-01T08:55:22.04Z</time></trkpt><trkpt lat="43.5729528" lon="10.627707"><ele>38.333333333333336</ele><time>2026-05-01T08:55:23.044Z</time></trkpt><trkpt lat="43.5727829" lon="10.6276487"><ele>37.66666666666667</ele><time>2026-05-01T08:55:24.04Z</time></trkpt><trkpt lat="43.5726165" lon="10.6275744"><ele>37.0</ele><time>2026-05-01T08:55:25.039Z</time></trkpt><trkpt lat="43.5724318" lon="10.6274842"><ele>37.0</ele><time>2026-05-01T08:55:26.032Z</time></trkpt><trkpt lat="43.5722432" lon="10.6273926"><ele>37.0</ele><time>2026-05-01T08:55:27.051Z</time></trkpt><trkpt lat="43.5720568" lon="10.6273094"><ele>37.0</ele><time>2026-05-01T08:55:28.04Z</time></trkpt><trkpt lat="43.5718688" lon="10.6272263"><ele>37.0</ele><time>2026-05-01T08:55:29.042Z</time></trkpt><trkpt lat="43.5716834" lon="10.6271332"><ele>37.0</ele><time>2026-05-01T08:55:30.032Z</time></trkpt><trkpt lat="43.571491" lon="10.6270406"><ele>37.0</ele><time>2026-05-01T08:55:31.041Z</time></trkpt><trkpt lat="43.571297" lon="10.6269454"><ele>36.66666666666667</ele><time>2026-05-01T08:55:32.032Z</time></trkpt><trkpt lat="43.5711008" lon="10.6268481"><ele>36.333333333333336</ele><time>2026-05-01T08:55:33.039Z</time></trkpt><trkpt lat="43.5708982" lon="10.6267603"><ele>36.0</ele><time>2026-05-01T08:55:34.034Z</time></trkpt><trkpt lat="43.5706959" lon="10.6266716"><ele>36.0</ele><time>2026-05-01T08:55:35.041Z</time></trkpt><trkpt lat="43.5704935" lon="10.6265836"><ele>36.0</ele><time>2026-05-01T08:55:36.04Z</time></trkpt><trkpt lat="43.5702912" lon="10.6265163"><ele>36.0</ele><time>2026-05-01T08:55:37.04Z</time></trkpt><trkpt lat="43.5700824" lon="10.6264599"><ele>36.0</ele><time>2026-05-01T08:55:38.039Z</time></trkpt><trkpt lat="43.5698761" lon="10.6263998"><ele>36.0</ele><time>2026-05-01T08:55:39.039Z</time></trkpt><trkpt lat="43.569666" lon="10.62634"><ele>36.0</ele><time>2026-05-01T08:55:40.043Z</time></trkpt><trkpt lat="43.5694592" lon="10.6262853"><ele>36.0</ele><time>2026-05-01T08:55:41.042Z</time></trkpt><trkpt lat="43.5692568" lon="10.6262378"><ele>36.0</ele><time>2026-05-01T08:55:42.047Z</time></trkpt><trkpt lat="43.5690515" lon="10.626196"><ele>36.0</ele><time>2026-05-01T08:55:43.043Z</time></trkpt><trkpt lat="43.5688464" lon="10.6261603"><ele>37.0</ele><time>2026-05-01T08:55:44.043Z</time></trkpt><trkpt lat="43.5686486" lon="10.6261353"><ele>38.0</ele><time>2026-05-01T08:55:45.042Z</time></trkpt><trkpt lat="43.5684642" lon="10.6261292"><ele>39.0</ele><time>2026-05-01T08:55:46.039Z</time></trkpt><trkpt lat="43.5682885" lon="10.626138"><ele>39.333333333333336</ele><time>2026-05-01T08:55:47.04Z</time></trkpt><trkpt lat="43.568126" lon="10.6261598"><ele>39.66666666666667</ele><time>2026-05-01T08:55:48.043Z</time></trkpt><trkpt lat="43.5679768" lon="10.6261958"><ele>40.0</ele><time>2026-05-01T08:55:49.036Z</time></trkpt><trkpt lat="43.5678398" lon="10.626255"><ele>41.0</ele><time>2026-05-01T08:55:50.048Z</time></trkpt><trkpt lat="43.5676966" lon="10.626341"><ele>42.0</ele><time>2026-05-01T08:55:51.033Z</time></trkpt><trkpt lat="43.5675632" lon="10.626464"><ele>43.0</ele><time>2026-05-01T08:55:52.029Z</time></trkpt><trkpt lat="43.567432" lon="10.6265772"><ele>43.0</ele><time>2026-05-01T08:55:53.047Z</time></trkpt><trkpt lat="43.5672811" lon="10.6267016"><ele>43.0</ele><time>2026-05-01T08:55:54.042Z</time></trkpt><trkpt lat="43.5671251" lon="10.6268073"><ele>43.0</ele><time>2026-05-01T08:55:55.041Z</time></trkpt><trkpt lat="43.5669617" lon="10.6268728"><ele>43.66666666666667</ele><time>2026-05-01T08:55:56.036Z</time></trkpt><trkpt lat="43.5667825" lon="10.6269137"><ele>44.333333333333336</ele><time>2026-05-01T08:55:57.043Z</time></trkpt><trkpt lat="43.5665982" lon="10.6269264"><ele>45.0</ele><time>2026-05-01T08:55:58.045Z</time></trkpt><trkpt lat="43.5664075" lon="10.6269337"><ele>45.0</ele><time>2026-05-01T08:55:59.044Z</time></trkpt><trkpt lat="43.5662173" lon="10.6269461"><ele>45.0</ele><time>2026-05-01T08:56:00.04Z</time></trkpt><trkpt lat="43.5660212" lon="10.6269508"><ele>45.0</ele><time>2026-05-01T08:56:01.044Z</time></trkpt><trkpt lat="43.5658282" lon="10.6269518"><ele>45.333333333333336</ele><time>2026-05-01T08:56:02.046Z</time></trkpt><trkpt lat="43.5656303" lon="10.6269321"><ele>45.66666666666667</ele><time>2026-05-01T08:56:03.044Z</time></trkpt><trkpt lat="43.5654426" lon="10.6268976"><ele>46.0</ele><time>2026-05-01T08:56:04.035Z</time></trkpt><trkpt lat="43.5652741" lon="10.6268621"><ele>46.333333333333336</ele><time>2026-05-01T08:56:05.048Z</time></trkpt><trkpt lat="43.5651231" lon="10.6268484"><ele>46.666666666666664</ele><time>2026-05-01T08:56:06.037Z</time></trkpt><trkpt lat="43.5649661" lon="10.6268614"><ele>47.0</ele><time>2026-05-01T08:56:07.038Z</time></trkpt><trkpt lat="43.5648127" lon="10.6269122"><ele>47.0</ele><time>2026-05-01T08:56:08.033Z</time></trkpt><trkpt lat="43.5646671" lon="10.6269762"><ele>47.0</ele><time>2026-05-01T08:56:09.045Z</time></trkpt><trkpt lat="43.5645065" lon="10.627014"><ele>47.0</ele><time>2026-05-01T08:56:10.048Z</time></trkpt><trkpt lat="43.564348" lon="10.6270203"><ele>45.0</ele><time>2026-05-01T08:56:11.037Z</time></trkpt><trkpt lat="43.5641915" lon="10.6269728"><ele>43.0</ele><time>2026-05-01T08:56:12.044Z</time></trkpt><trkpt lat="43.5640351" lon="10.6268918"><ele>41.0</ele><time>2026-05-01T08:56:13.039Z</time></trkpt><trkpt lat="43.5638764" lon="10.6267925"><ele>41.0</ele><time>2026-05-01T08:56:14.035Z</time></trkpt><trkpt lat="43.5637046" lon="10.626702"><ele>41.0</ele><time>2026-05-01T08:56:15.041Z</time></trkpt><trkpt lat="43.5635266" lon="10.6266319"><ele>41.0</ele><time>2026-05-01T08:56:16.039Z</time></trkpt><trkpt lat="43.5633446" lon="10.62659"><ele>41.33333333333333</ele><time>2026-05-01T08:56:17.038Z</time></trkpt><trkpt lat="43.563166" lon="10.62659"><ele>41.666666666666664</ele><time>2026-05-01T08:56:18.041Z</time></trkpt><trkpt lat="43.5629804" lon="10.6266336"><ele>42.0</ele><time>2026-05-01T08:56:19.041Z</time></trkpt><trkpt lat="43.5628033" lon="10.6266907"><ele>43.666666666666664</ele><time>2026-05-01T08:56:20.033Z</time></trkpt><trkpt lat="43.5626239" lon="10.6267696"><ele>45.33333333333333</ele><time>2026-05-01T08:56:21.035Z</time></trkpt><trkpt lat="43.5624373" lon="10.6268603"><ele>47.0</ele><time>2026-05-01T08:56:22.037Z</time></trkpt><trkpt lat="43.5622493" lon="10.626954"><ele>45.666666666666664</ele><time>2026-05-01T08:56:23.037Z</time></trkpt><trkpt lat="43.5620654" lon="10.6270512"><ele>44.333333333333336</ele><time>2026-05-01T08:56:24.04Z</time></trkpt><trkpt lat="43.5618777" lon="10.6271482"><ele>43.0</ele><time>2026-05-01T08:56:25.043Z</time></trkpt><trkpt lat="43.5616927" lon="10.6272447"><ele>43.0</ele><time>2026-05-01T08:56:26.041Z</time></trkpt><trkpt lat="43.5615156" lon="10.6273332"><ele>43.0</ele><time>2026-05-01T08:56:27.039Z</time></trkpt><trkpt lat="43.5613373" lon="10.6274129"><ele>43.0</ele><time>2026-05-01T08:56:28.045Z</time></trkpt><trkpt lat="43.5611597" lon="10.6274816"><ele>44.333333333333336</ele><time>2026-05-01T08:56:29.046Z</time></trkpt><trkpt lat="43.5609738" lon="10.6275278"><ele>45.666666666666664</ele><time>2026-05-01T08:56:30.036Z</time></trkpt><trkpt lat="43.5607806" lon="10.6275393"><ele>47.0</ele><time>2026-05-01T08:56:31.047Z</time></trkpt><trkpt lat="43.5605801" lon="10.6275394"><ele>47.0</ele><time>2026-05-01T08:56:32.046Z</time></trkpt><trkpt lat="43.5603851" lon="10.6275064"><ele>47.0</ele><time>2026-05-01T08:56:33.035Z</time></trkpt><trkpt lat="43.5601881" lon="10.627461"><ele>47.0</ele><time>2026-05-01T08:56:34.035Z</time></trkpt><trkpt lat="43.5599892" lon="10.6274153"><ele>47.0</ele><time>2026-05-01T08:56:35.04Z</time></trkpt><trkpt lat="43.5597917" lon="10.6273719"><ele>47.0</ele><time>2026-05-01T08:56:36.034Z</time></trkpt><trkpt lat="43.559605" lon="10.6273211"><ele>47.0</ele><time>2026-05-01T08:56:37.037Z</time></trkpt><trkpt lat="43.5594147" lon="10.6272689"><ele>47.0</ele><time>2026-05-01T08:56:38.034Z</time></trkpt><trkpt lat="43.5592233" lon="10.6272243"><ele>47.0</ele><time>2026-05-01T08:56:39.034Z</time></trkpt><trkpt lat="43.5590338" lon="10.6271821"><ele>47.0</ele><time>2026-05-01T08:56:40.039Z</time></trkpt><trkpt lat="43.5588445" lon="10.6271291"><ele>46.0</ele><time>2026-05-01T08:56:41.043Z</time></trkpt><trkpt lat="43.5586522" lon="10.6270842"><ele>45.0</ele><time>2026-05-01T08:56:42.037Z</time></trkpt><trkpt lat="43.5584538" lon="10.6270425"><ele>44.0</ele><time>2026-05-01T08:56:43.037Z</time></trkpt><trkpt lat="43.5582508" lon="10.6270109"><ele>44.0</ele><time>2026-05-01T08:56:44.042Z</time></trkpt><trkpt lat="43.5580507" lon="10.6269976"><ele>44.0</ele><time>2026-05-01T08:56:45.037Z</time></trkpt><trkpt lat="43.5578542" lon="10.6269945"><ele>44.0</ele><time>2026-05-01T08:56:46.035Z</time></trkpt><trkpt lat="43.5576674" lon="10.6270126"><ele>45.0</ele><time>2026-05-01T08:56:47.042Z</time></trkpt><trkpt lat="43.5574884" lon="10.6270209"><ele>46.0</ele><time>2026-05-01T08:56:48.035Z</time></trkpt><trkpt lat="43.5573031" lon="10.6270216"><ele>47.0</ele><time>2026-05-01T08:56:49.046Z</time></trkpt><trkpt lat="43.557122" lon="10.6270188"><ele>46.666666666666664</ele><time>2026-05-01T08:56:50.041Z</time></trkpt><trkpt lat="43.5569463" lon="10.6269976"><ele>46.333333333333336</ele><time>2026-05-01T08:56:51.039Z</time></trkpt><trkpt lat="43.5567749" lon="10.6269641"><ele>46.0</ele><time>2026-05-01T08:56:52.041Z</time></trkpt><trkpt lat="43.5566043" lon="10.6269228"><ele>46.0</ele><time>2026-05-01T08:56:53.04Z</time></trkpt><trkpt lat="43.5564298" lon="10.6268881"><ele>46.0</ele><time>2026-05-01T08:56:54.036Z</time></trkpt><trkpt lat="43.5562626" lon="10.6268473"><ele>46.0</ele><time>2026-05-01T08:56:55.046Z</time></trkpt><trkpt lat="43.5560943" lon="10.6268115"><ele>48.333333333333336</ele><time>2026-05-01T08:56:56.045Z</time></trkpt><trkpt lat="43.5559302" lon="10.6268007"><ele>50.66666666666667</ele><time>2026-05-01T08:56:57.042Z</time></trkpt><trkpt lat="43.5557685" lon="10.6268505"><ele>53.0</ele><time>2026-05-01T08:56:58.042Z</time></trkpt><trkpt lat="43.5556152" lon="10.6269133"><ele>51.0</ele><time>2026-05-01T08:56:59.04Z</time></trkpt><trkpt lat="43.5554597" lon="10.6269819"><ele>49.0</ele><time>2026-05-01T08:57:00.045Z</time></trkpt><trkpt lat="43.5552963" lon="10.6270465"><ele>47.0</ele><time>2026-05-01T08:57:01.032Z</time></trkpt><trkpt lat="43.5551272" lon="10.6270974"><ele>47.0</ele><time>2026-05-01T08:57:02.046Z</time></trkpt><trkpt lat="43.5549521" lon="10.6271413"><ele>47.0</ele><time>2026-05-01T08:57:03.047Z</time></trkpt><trkpt lat="43.5547804" lon="10.6271717"><ele>47.0</ele><time>2026-05-01T08:57:04.044Z</time></trkpt><trkpt lat="43.5546187" lon="10.6271866"><ele>46.33333333333333</ele><time>2026-05-01T08:57:05.042Z</time></trkpt><trkpt lat="43.5544608" lon="10.6271688"><ele>45.666666666666664</ele><time>2026-05-01T08:57:06.038Z</time></trkpt><trkpt lat="43.5542999" lon="10.6271073"><ele>45.0</ele><time>2026-05-01T08:57:07.044Z</time></trkpt><trkpt lat="43.5541451" lon="10.627022"><ele>48.0</ele><time>2026-05-01T08:57:08.048Z</time></trkpt><trkpt lat="43.5539861" lon="10.6269301"><ele>51.0</ele><time>2026-05-01T08:57:09.034Z</time></trkpt><trkpt lat="43.5538162" lon="10.6268769"><ele>54.0</ele><time>2026-05-01T08:57:10.052Z</time></trkpt><trkpt lat="43.553637" lon="10.6268609"><ele>54.0</ele><time>2026-05-01T08:57:11.046Z</time></trkpt><trkpt lat="43.5534605" lon="10.6268266"><ele>54.0</ele><time>2026-05-01T08:57:12.045Z</time></trkpt><trkpt lat="43.5533033" lon="10.6267371"><ele>54.0</ele><time>2026-05-01T08:57:13.036Z</time></trkpt><trkpt lat="43.5531584" lon="10.6265878"><ele>54.0</ele><time>2026-05-01T08:57:14.039Z</time></trkpt><trkpt lat="43.5530226" lon="10.6264257"><ele>54.0</ele><time>2026-05-01T08:57:15.039Z</time></trkpt><trkpt lat="43.5528736" lon="10.6262722"><ele>54.0</ele><time>2026-05-01T08:57:16.032Z</time></trkpt><trkpt lat="43.552726" lon="10.6261194"><ele>54.0</ele><time>2026-05-01T08:57:17.043Z</time></trkpt><trkpt lat="43.5525744" lon="10.6259785"><ele>54.0</ele><time>2026-05-01T08:57:18.033Z</time></trkpt><trkpt lat="43.552415" lon="10.6258589"><ele>54.0</ele><time>2026-05-01T08:57:19.034Z</time></trkpt><trkpt lat="43.5522662" lon="10.6257648"><ele>54.0</ele><time>2026-05-01T08:57:20.037Z</time></trkpt><trkpt lat="43.5521103" lon="10.6256966"><ele>54.0</ele><time>2026-05-01T08:57:21.042Z</time></trkpt><trkpt lat="43.5519467" lon="10.6256635"><ele>54.0</ele><time>2026-05-01T08:57:22.036Z</time></trkpt><trkpt lat="43.5517876" lon="10.6256547"><ele>53.0</ele><time>2026-05-01T08:57:23.034Z</time></trkpt><trkpt lat="43.5516101" lon="10.625672"><ele>52.0</ele><time>2026-05-01T08:57:24.048Z</time></trkpt><trkpt lat="43.5514298" lon="10.6256958"><ele>51.0</ele><time>2026-05-01T08:57:25.043Z</time></trkpt><trkpt lat="43.5512476" lon="10.62571"><ele>51.66666666666667</ele><time>2026-05-01T08:57:26.039Z</time></trkpt><trkpt lat="43.5510592" lon="10.6257277"><ele>52.333333333333336</ele><time>2026-05-01T08:57:27.047Z</time></trkpt><trkpt lat="43.5508654" lon="10.6257328"><ele>53.0</ele><time>2026-05-01T08:57:28.037Z</time></trkpt><trkpt lat="43.5506754" lon="10.6257202"><ele>53.0</ele><time>2026-05-01T08:57:29.04Z</time></trkpt><trkpt lat="43.5504812" lon="10.625678"><ele>53.0</ele><time>2026-05-01T08:57:30.036Z</time></trkpt><trkpt lat="43.5502854" lon="10.625621"><ele>53.0</ele><time>2026-05-01T08:57:31.054Z</time></trkpt><trkpt lat="43.5500975" lon="10.6255632"><ele>53.333333333333336</ele><time>2026-05-01T08:57:32.042Z</time></trkpt><trkpt lat="43.5499221" lon="10.6255054"><ele>53.66666666666667</ele><time>2026-05-01T08:57:33.04Z</time></trkpt><trkpt lat="43.5497644" lon="10.6254328"><ele>54.0</ele><time>2026-05-01T08:57:34.04Z</time></trkpt><trkpt lat="43.5496145" lon="10.6253082"><ele>55.0</ele><time>2026-05-01T08:57:35.048Z</time></trkpt><trkpt lat="43.5494766" lon="10.6251578"><ele>56.0</ele><time>2026-05-01T08:57:36.035Z</time></trkpt><trkpt lat="43.5493415" lon="10.6249984"><ele>57.0</ele><time>2026-05-01T08:57:37.035Z</time></trkpt><trkpt lat="43.5492045" lon="10.6248252"><ele>57.0</ele><time>2026-05-01T08:57:38.049Z</time></trkpt><trkpt lat="43.5490652" lon="10.6246522"><ele>57.0</ele><time>2026-05-01T08:57:39.039Z</time></trkpt><trkpt lat="43.5489331" lon="10.6244549"><ele>57.0</ele><time>2026-05-01T08:57:40.043Z</time></trkpt><trkpt lat="43.5488292" lon="10.6242318"><ele>57.0</ele><time>2026-05-01T08:57:41.048Z</time></trkpt><trkpt lat="43.5487487" lon="10.6239987"><ele>57.0</ele><time>2026-05-01T08:57:42.031Z</time></trkpt><trkpt lat="43.5486858" lon="10.6237681"><ele>57.0</ele><time>2026-05-01T08:57:43.043Z</time></trkpt><trkpt lat="43.5486189" lon="10.6235521"><ele>57.0</ele><time>2026-05-01T08:57:44.044Z</time></trkpt><trkpt lat="43.548535" lon="10.6233651"><ele>57.0</ele><time>2026-05-01T08:57:45.046Z</time></trkpt><trkpt lat="43.5484403" lon="10.623198"><ele>57.0</ele><time>2026-05-01T08:57:46.037Z</time></trkpt><trkpt lat="43.5483079" lon="10.623055"><ele>57.0</ele><time>2026-05-01T08:57:47.044Z</time></trkpt><trkpt lat="43.5481521" lon="10.6229316"><ele>57.0</ele><time>2026-05-01T08:57:48.037Z</time></trkpt><trkpt lat="43.5479797" lon="10.6228399"><ele>57.0</ele><time>2026-05-01T08:57:49.042Z</time></trkpt><trkpt lat="43.5478013" lon="10.6227473"><ele>58.0</ele><time>2026-05-01T08:57:50.046Z</time></trkpt><trkpt lat="43.5476159" lon="10.6226616"><ele>59.0</ele><time>2026-05-01T08:57:51.035Z</time></trkpt><trkpt lat="43.5474233" lon="10.6225943"><ele>60.0</ele><time>2026-05-01T08:57:52.034Z</time></trkpt><trkpt lat="43.5472238" lon="10.6225365"><ele>57.0</ele><time>2026-05-01T08:57:53.034Z</time></trkpt><trkpt lat="43.5470244" lon="10.6224738"><ele>54.0</ele><time>2026-05-01T08:57:54.031Z</time></trkpt><trkpt lat="43.5468275" lon="10.6223933"><ele>51.0</ele><time>2026-05-01T08:57:55.038Z</time></trkpt><trkpt lat="43.5466371" lon="10.6223012"><ele>51.0</ele><time>2026-05-01T08:57:56.047Z</time></trkpt><trkpt lat="43.5464582" lon="10.6222001"><ele>51.0</ele><time>2026-05-01T08:57:57.044Z</time></trkpt><trkpt lat="43.5462893" lon="10.6220989"><ele>51.0</ele><time>2026-05-01T08:57:58.045Z</time></trkpt><trkpt lat="43.546125" lon="10.6219888"><ele>51.0</ele><time>2026-05-01T08:57:59.036Z</time></trkpt><trkpt lat="43.5459633" lon="10.6218557"><ele>51.0</ele><time>2026-05-01T08:58:00.03Z</time></trkpt><trkpt lat="43.5457991" lon="10.6217083"><ele>51.0</ele><time>2026-05-01T08:58:01.043Z</time></trkpt><trkpt lat="43.5456428" lon="10.6215463"><ele>51.0</ele><time>2026-05-01T08:58:02.026Z</time></trkpt><trkpt lat="43.5454809" lon="10.6213855"><ele>51.0</ele><time>2026-05-01T08:58:03.041Z</time></trkpt><trkpt lat="43.545319" lon="10.6212387"><ele>51.0</ele><time>2026-05-01T08:58:04.037Z</time></trkpt><trkpt lat="43.5451634" lon="10.6210952"><ele>52.0</ele><time>2026-05-01T08:58:05.043Z</time></trkpt><trkpt lat="43.5450121" lon="10.6209636"><ele>53.0</ele><time>2026-05-01T08:58:06.042Z</time></trkpt><trkpt lat="43.5448546" lon="10.6208419"><ele>54.0</ele><time>2026-05-01T08:58:07.044Z</time></trkpt><trkpt lat="43.5446954" lon="10.6207226"><ele>54.66666666666667</ele><time>2026-05-01T08:58:08.043Z</time></trkpt><trkpt lat="43.5445278" lon="10.6206119"><ele>55.333333333333336</ele><time>2026-05-01T08:58:09.041Z</time></trkpt><trkpt lat="43.5443644" lon="10.6204933"><ele>56.0</ele><time>2026-05-01T08:58:10.043Z</time></trkpt><trkpt lat="43.5441944" lon="10.6203828"><ele>56.333333333333336</ele><time>2026-05-01T08:58:11.041Z</time></trkpt><trkpt lat="43.5440213" lon="10.6202825"><ele>56.66666666666667</ele><time>2026-05-01T08:58:12.042Z</time></trkpt><trkpt lat="43.5438441" lon="10.6201899"><ele>57.0</ele><time>2026-05-01T08:58:13.046Z</time></trkpt><trkpt lat="43.5436644" lon="10.6200969"><ele>57.0</ele><time>2026-05-01T08:58:14.037Z</time></trkpt><trkpt lat="43.5434852" lon="10.6200043"><ele>57.0</ele><time>2026-05-01T08:58:15.035Z</time></trkpt><trkpt lat="43.5433121" lon="10.6199145"><ele>57.0</ele><time>2026-05-01T08:58:16.033Z</time></trkpt><trkpt lat="43.5431431" lon="10.6198343"><ele>57.0</ele><time>2026-05-01T08:58:17.039Z</time></trkpt><trkpt lat="43.5429786" lon="10.6197511"><ele>57.0</ele><time>2026-05-01T08:58:18.04Z</time></trkpt><trkpt lat="43.5428159" lon="10.6196747"><ele>57.0</ele><time>2026-05-01T08:58:19.043Z</time></trkpt><trkpt lat="43.5426569" lon="10.6195958"><ele>57.66666666666667</ele><time>2026-05-01T08:58:20.047Z</time></trkpt><trkpt lat="43.5424962" lon="10.6195211"><ele>58.333333333333336</ele><time>2026-05-01T08:58:21.044Z</time></trkpt><trkpt lat="43.5423398" lon="10.6194456"><ele>59.0</ele><time>2026-05-01T08:58:22.04Z</time></trkpt><trkpt lat="43.5421788" lon="10.6193676"><ele>59.0</ele><time>2026-05-01T08:58:23.042Z</time></trkpt><trkpt lat="43.542014" lon="10.6192925"><ele>59.0</ele><time>2026-05-01T08:58:24.051Z</time></trkpt><trkpt lat="43.5418461" lon="10.6192347"><ele>59.0</ele><time>2026-05-01T08:58:25.043Z</time></trkpt><trkpt lat="43.5416719" lon="10.6191855"><ele>59.0</ele><time>2026-05-01T08:58:26.048Z</time></trkpt><trkpt lat="43.5414898" lon="10.6191525"><ele>59.0</ele><time>2026-05-01T08:58:27.029Z</time></trkpt><trkpt lat="43.5413094" lon="10.6191297"><ele>59.0</ele><time>2026-05-01T08:58:28.037Z</time></trkpt><trkpt lat="43.5411231" lon="10.6191236"><ele>59.333333333333336</ele><time>2026-05-01T08:58:29.04Z</time></trkpt><trkpt lat="43.5409399" lon="10.6191348"><ele>59.66666666666667</ele><time>2026-05-01T08:58:30.038Z</time></trkpt><trkpt lat="43.5407588" lon="10.6191673"><ele>60.0</ele><time>2026-05-01T08:58:31.041Z</time></trkpt><trkpt lat="43.5405748" lon="10.6192099"><ele>60.0</ele><time>2026-05-01T08:58:32.03Z</time></trkpt><trkpt lat="43.5403871" lon="10.6192402"><ele>60.0</ele><time>2026-05-01T08:58:33.044Z</time></trkpt><trkpt lat="43.5402108" lon="10.6192713"><ele>60.0</ele><time>2026-05-01T08:58:34.054Z</time></trkpt><trkpt lat="43.5400304" lon="10.6192973"><ele>60.33333333333333</ele><time>2026-05-01T08:58:35.042Z</time></trkpt><trkpt lat="43.5398538" lon="10.6193179"><ele>60.666666666666664</ele><time>2026-05-01T08:58:36.043Z</time></trkpt><trkpt lat="43.53968" lon="10.6193251"><ele>61.0</ele><time>2026-05-01T08:58:37.042Z</time></trkpt><trkpt lat="43.5395079" lon="10.6193241"><ele>61.0</ele><time>2026-05-01T08:58:38.032Z</time></trkpt><trkpt lat="43.5393379" lon="10.6193076"><ele>61.0</ele><time>2026-05-01T08:58:39.026Z</time></trkpt><trkpt lat="43.5391627" lon="10.6192829"><ele>61.0</ele><time>2026-05-01T08:58:40.044Z</time></trkpt><trkpt lat="43.5389865" lon="10.6192582"><ele>61.0</ele><time>2026-05-01T08:58:41.039Z</time></trkpt><trkpt lat="43.5388107" lon="10.6192366"><ele>61.0</ele><time>2026-05-01T08:58:42.046Z</time></trkpt><trkpt lat="43.5386355" lon="10.6192176"><ele>61.0</ele><time>2026-05-01T08:58:43.036Z</time></trkpt><trkpt lat="43.5384563" lon="10.6192049"><ele>61.0</ele><time>2026-05-01T08:58:44.042Z</time></trkpt><trkpt lat="43.5382745" lon="10.619203"><ele>61.0</ele><time>2026-05-01T08:58:45.032Z</time></trkpt><trkpt lat="43.5380894" lon="10.6192072"><ele>61.0</ele><time>2026-05-01T08:58:46.035Z</time></trkpt><trkpt lat="43.5379115" lon="10.6192203"><ele>62.33333333333333</ele><time>2026-05-01T08:58:47.041Z</time></trkpt><trkpt lat="43.5377298" lon="10.6192326"><ele>63.66666666666667</ele><time>2026-05-01T08:58:48.038Z</time></trkpt><trkpt lat="43.5375496" lon="10.619247"><ele>65.0</ele><time>2026-05-01T08:58:49.042Z</time></trkpt><trkpt lat="43.5373781" lon="10.6192569"><ele>65.0</ele><time>2026-05-01T08:58:50.045Z</time></trkpt><trkpt lat="43.5372154" lon="10.6192692"><ele>65.0</ele><time>2026-05-01T08:58:51.041Z</time></trkpt><trkpt lat="43.5370554" lon="10.6192821"><ele>65.0</ele><time>2026-05-01T08:58:52.04Z</time></trkpt><trkpt lat="43.5368933" lon="10.6193015"><ele>65.33333333333334</ele><time>2026-05-01T08:58:53.041Z</time></trkpt><trkpt lat="43.5367285" lon="10.6193297"><ele>65.66666666666667</ele><time>2026-05-01T08:58:54.028Z</time></trkpt><trkpt lat="43.5365601" lon="10.6193718"><ele>66.0</ele><time>2026-05-01T08:58:55.031Z</time></trkpt><trkpt lat="43.5363923" lon="10.6194179"><ele>66.0</ele><time>2026-05-01T08:58:56.05Z</time></trkpt><trkpt lat="43.5362221" lon="10.6194674"><ele>66.0</ele><time>2026-05-01T08:58:57.045Z</time></trkpt><trkpt lat="43.536053" lon="10.619518"><ele>66.0</ele><time>2026-05-01T08:58:58.034Z</time></trkpt><trkpt lat="43.5358817" lon="10.6195653"><ele>66.33333333333333</ele><time>2026-05-01T08:58:59.035Z</time></trkpt><trkpt lat="43.5357063" lon="10.6196119"><ele>66.66666666666666</ele><time>2026-05-01T08:59:00.049Z</time></trkpt><trkpt lat="43.5355347" lon="10.61966"><ele>67.0</ele><time>2026-05-01T08:59:01.047Z</time></trkpt><trkpt lat="43.5353689" lon="10.619705"><ele>67.0</ele><time>2026-05-01T08:59:02.051Z</time></trkpt><trkpt lat="43.5351975" lon="10.6197467"><ele>67.0</ele><time>2026-05-01T08:59:03.039Z</time></trkpt><trkpt lat="43.5350305" lon="10.6197869"><ele>67.0</ele><time>2026-05-01T08:59:04.037Z</time></trkpt><trkpt lat="43.5348665" lon="10.6198277"><ele>67.0</ele><time>2026-05-01T08:59:05.035Z</time></trkpt><trkpt lat="43.5346975" lon="10.6198676"><ele>67.0</ele><time>2026-05-01T08:59:06.039Z</time></trkpt><trkpt lat="43.5345389" lon="10.6198868"><ele>67.0</ele><time>2026-05-01T08:59:07.044Z</time></trkpt><trkpt lat="43.5343783" lon="10.6198785"><ele>67.33333333333333</ele><time>2026-05-01T08:59:08.039Z</time></trkpt><trkpt lat="43.5342136" lon="10.6198462"><ele>67.66666666666667</ele><time>2026-05-01T08:59:09.049Z</time></trkpt><trkpt lat="43.5340408" lon="10.6197996"><ele>68.0</ele><time>2026-05-01T08:59:10.043Z</time></trkpt><trkpt lat="43.5338757" lon="10.6197485"><ele>68.33333333333334</ele><time>2026-05-01T08:59:11.055Z</time></trkpt><trkpt lat="43.5337129" lon="10.6197092"><ele>68.66666666666667</ele><time>2026-05-01T08:59:12.029Z</time></trkpt><trkpt lat="43.5335563" lon="10.6196645"><ele>69.0</ele><time>2026-05-01T08:59:13.052Z</time></trkpt><trkpt lat="43.5333988" lon="10.6196235"><ele>69.0</ele><time>2026-05-01T08:59:14.045Z</time></trkpt><trkpt lat="43.5332469" lon="10.6195799"><ele>69.0</ele><time>2026-05-01T08:59:15.048Z</time></trkpt><trkpt lat="43.5330997" lon="10.6195355"><ele>69.0</ele><time>2026-05-01T08:59:16.044Z</time></trkpt><trkpt lat="43.5329524" lon="10.6194868"><ele>70.0</ele><time>2026-05-01T08:59:17.047Z</time></trkpt><trkpt lat="43.5328093" lon="10.6194455"><ele>71.0</ele><time>2026-05-01T08:59:18.041Z</time></trkpt><trkpt lat="43.5326727" lon="10.6194074"><ele>72.0</ele><time>2026-05-01T08:59:19.037Z</time></trkpt><trkpt lat="43.5325513" lon="10.6193793"><ele>73.0</ele><time>2026-05-01T08:59:20.049Z</time></trkpt><trkpt lat="43.5324406" lon="10.6193547"><ele>73.0</ele><time>2026-05-01T08:59:21.046Z</time></trkpt><trkpt lat="43.5323404" lon="10.6193366"><ele>73.0</ele><time>2026-05-01T08:59:22.046Z</time></trkpt><trkpt lat="43.5322545" lon="10.619331"><ele>73.0</ele><time>2026-05-01T08:59:23.04Z</time></trkpt><trkpt lat="43.5321787" lon="10.6193314"><ele>73.0</ele><time>2026-05-01T08:59:24.042Z</time></trkpt><trkpt lat="43.5320853" lon="10.6193432"><ele>73.0</ele><time>2026-05-01T08:59:26.048Z</time></trkpt><trkpt lat="43.5320094" lon="10.6193589"><ele>73.0</ele><time>2026-05-01T08:59:29.053Z</time></trkpt><trkpt lat="43.5319253" lon="10.6193734"><ele>74.16666666666666</ele><time>2026-05-01T08:59:32.044Z</time></trkpt><trkpt lat="43.5318548" lon="10.6194129"><ele>75.33333333333333</ele><time>2026-05-01T08:59:35.041Z</time></trkpt><trkpt lat="43.5317714" lon="10.6194588"><ele>76.5</ele><time>2026-05-01T08:59:38.043Z</time></trkpt><trkpt lat="43.5316871" lon="10.6195206"><ele>77.66666666666667</ele><time>2026-05-01T08:59:41.032Z</time></trkpt><trkpt lat="43.5316105" lon="10.6195942"><ele>78.83333333333334</ele><time>2026-05-01T08:59:43.044Z</time></trkpt><trkpt lat="43.5315451" lon="10.6196712"><ele>80.0</ele><time>2026-05-01T08:59:45.049Z</time></trkpt><trkpt lat="43.5314942" lon="10.6197438"><ele>80.0</ele><time>2026-05-01T08:59:46.042Z</time></trkpt><trkpt lat="43.5314433" lon="10.6198486"><ele>80.0</ele><time>2026-05-01T08:59:47.047Z</time></trkpt><trkpt lat="43.5313997" lon="10.6199571"><ele>80.0</ele><time>2026-05-01T08:59:48.037Z</time></trkpt><trkpt lat="43.5313565" lon="10.6200618"><ele>80.0</ele><time>2026-05-01T08:59:49.043Z</time></trkpt><trkpt lat="43.5313078" lon="10.6201822"><ele>80.0</ele><time>2026-05-01T08:59:50.041Z</time></trkpt><trkpt lat="43.5312489" lon="10.6203086"><ele>82.0</ele><time>2026-05-01T08:59:51.047Z</time></trkpt><trkpt lat="43.5311842" lon="10.6204462"><ele>84.0</ele><time>2026-05-01T08:59:52.036Z</time></trkpt><trkpt lat="43.5311224" lon="10.620582"><ele>86.0</ele><time>2026-05-01T08:59:53.043Z</time></trkpt><trkpt lat="43.5310582" lon="10.6207096"><ele>88.0</ele><time>2026-05-01T08:59:54.047Z</time></trkpt><trkpt lat="43.5309838" lon="10.6208242"><ele>88.0</ele><time>2026-05-01T08:59:55.046Z</time></trkpt><trkpt lat="43.5308951" lon="10.6209235"><ele>88.0</ele><time>2026-05-01T08:59:56.052Z</time></trkpt><trkpt lat="43.5307942" lon="10.6210066"><ele>88.0</ele><time>2026-05-01T08:59:57.032Z</time></trkpt><trkpt lat="43.5306836" lon="10.6210536"><ele>88.0</ele><time>2026-05-01T08:59:58.049Z</time></trkpt><trkpt lat="43.5305686" lon="10.6210668"><ele>88.0</ele><time>2026-05-01T08:59:59.048Z</time></trkpt><trkpt lat="43.5304491" lon="10.6210586"><ele>88.0</ele><time>2026-05-01T09:00:00.038Z</time></trkpt><trkpt lat="43.53033" lon="10.6210303"><ele>88.0</ele><time>2026-05-01T09:00:01.048Z</time></trkpt><trkpt lat="43.5302148" lon="10.6209982"><ele>88.0</ele><time>2026-05-01T09:00:02.036Z</time></trkpt><trkpt lat="43.5300976" lon="10.6209632"><ele>89.4</ele><time>2026-05-01T09:00:03.043Z</time></trkpt><trkpt lat="43.5299824" lon="10.6209313"><ele>90.80000000000001</ele><time>2026-05-01T09:00:04.039Z</time></trkpt><trkpt lat="43.5298836" lon="10.6209035"><ele>92.2</ele><time>2026-05-01T09:00:05.041Z</time></trkpt><trkpt lat="43.5297917" lon="10.6208797"><ele>93.6</ele><time>2026-05-01T09:00:06.038Z</time></trkpt><trkpt lat="43.5296998" lon="10.6208628"><ele>95.0</ele><time>2026-05-01T09:00:07.047Z</time></trkpt><trkpt lat="43.5296088" lon="10.6208442"><ele>96.0</ele><time>2026-05-01T09:00:08.039Z</time></trkpt><trkpt lat="43.5295093" lon="10.620839"><ele>97.0</ele><time>2026-05-01T09:00:09.041Z</time></trkpt><trkpt lat="43.5293996" lon="10.6208357"><ele>98.0</ele><time>2026-05-01T09:00:10.043Z</time></trkpt><trkpt lat="43.5292774" lon="10.6208418"><ele>99.0</ele><time>2026-05-01T09:00:11.04Z</time></trkpt><trkpt lat="43.5291529" lon="10.6208552"><ele>99.0</ele><time>2026-05-01T09:00:12.045Z</time></trkpt><trkpt lat="43.5290252" lon="10.6208858"><ele>99.0</ele><time>2026-05-01T09:00:13.046Z</time></trkpt><trkpt lat="43.5288954" lon="10.6209248"><ele>99.0</ele><time>2026-05-01T09:00:14.049Z</time></trkpt><trkpt lat="43.5287593" lon="10.6209788"><ele>99.0</ele><time>2026-05-01T09:00:15.036Z</time></trkpt><trkpt lat="43.5286246" lon="10.6210303"><ele>99.0</ele><time>2026-05-01T09:00:16.042Z</time></trkpt><trkpt lat="43.5285031" lon="10.6210786"><ele>99.0</ele><time>2026-05-01T09:00:17.045Z</time></trkpt><trkpt lat="43.5283969" lon="10.6211313"><ele>99.0</ele><time>2026-05-01T09:00:18.045Z</time></trkpt><trkpt lat="43.5282942" lon="10.6211858"><ele>99.0</ele><time>2026-05-01T09:00:19.051Z</time></trkpt><trkpt lat="43.5281929" lon="10.6212396"><ele>99.0</ele><time>2026-05-01T09:00:20.046Z</time></trkpt><trkpt lat="43.5280889" lon="10.6212912"><ele>99.0</ele><time>2026-05-01T09:00:21.037Z</time></trkpt><trkpt lat="43.5279748" lon="10.621351"><ele>99.0</ele><time>2026-05-01T09:00:22.046Z</time></trkpt><trkpt lat="43.5278681" lon="10.6214108"><ele>99.0</ele><time>2026-05-01T09:00:23.047Z</time></trkpt><trkpt lat="43.5277602" lon="10.6214627"><ele>100.0</ele><time>2026-05-01T09:00:24.054Z</time></trkpt><trkpt lat="43.5276578" lon="10.6215121"><ele>101.0</ele><time>2026-05-01T09:00:25.036Z</time></trkpt><trkpt lat="43.5275656" lon="10.621534"><ele>102.0</ele><time>2026-05-01T09:00:26.046Z</time></trkpt><trkpt lat="43.527485" lon="10.6215348"><ele>103.0</ele><time>2026-05-01T09:00:27.037Z</time></trkpt><trkpt lat="43.5274111" lon="10.6215171"><ele>104.0</ele><time>2026-05-01T09:00:28.034Z</time></trkpt><trkpt lat="43.5273445" lon="10.621469"><ele>105.0</ele><time>2026-05-01T09:00:29.038Z</time></trkpt><trkpt lat="43.5272829" lon="10.6214068"><ele>105.0</ele><time>2026-05-01T09:00:30.041Z</time></trkpt><trkpt lat="43.5272289" lon="10.6213362"><ele>105.0</ele><time>2026-05-01T09:00:31.042Z</time></trkpt><trkpt lat="43.5271885" lon="10.6212527"><ele>105.0</ele><time>2026-05-01T09:00:32.034Z</time></trkpt><trkpt lat="43.5271448" lon="10.6211619"><ele>105.0</ele><time>2026-05-01T09:00:33.039Z</time></trkpt><trkpt lat="43.5270999" lon="10.6210693"><ele>105.0</ele><time>2026-05-01T09:00:34.038Z</time></trkpt><trkpt lat="43.5270536" lon="10.6209747"><ele>105.0</ele><time>2026-05-01T09:00:35.038Z</time></trkpt><trkpt lat="43.5270136" lon="10.620874"><ele>106.16666666666667</ele><time>2026-05-01T09:00:36.041Z</time></trkpt><trkpt lat="43.526979" lon="10.6207689"><ele>107.33333333333334</ele><time>2026-05-01T09:00:37.043Z</time></trkpt><trkpt lat="43.5269472" lon="10.6206532"><ele>108.5</ele><time>2026-05-01T09:00:38.045Z</time></trkpt><trkpt lat="43.5269239" lon="10.6205436"><ele>109.66666666666667</ele><time>2026-05-01T09:00:39.043Z</time></trkpt><trkpt lat="43.5269157" lon="10.6204524"><ele>110.83333333333334</ele><time>2026-05-01T09:00:40.048Z</time></trkpt><trkpt lat="43.5268949" lon="10.6203129"><ele>112.0</ele><time>2026-05-01T09:00:42.053Z</time></trkpt><trkpt lat="43.5268275" lon="10.6202636"><ele>112.00000000000001</ele><time>2026-05-01T09:00:44.037Z</time></trkpt><trkpt lat="43.5267591" lon="10.6203372"><ele>112.0</ele><time>2026-05-01T09:00:46.049Z</time></trkpt><trkpt lat="43.5267078" lon="10.620402"><ele>112.0</ele><time>2026-05-01T09:00:49.051Z</time></trkpt><trkpt lat="43.5266098" lon="10.6204374"><ele>112.0</ele><time>2026-05-01T09:12:33.011Z</time></trkpt><trkpt lat="43.5267208" lon="10.6204482"><ele>112.00000000000001</ele><time>2026-05-01T09:12:38.027Z</time></trkpt><trkpt lat="43.5266504" lon="10.6204584"><ele>112.0</ele><time>2026-05-01T09:17:11.033Z</time></trkpt><trkpt lat="43.5266003" lon="10.6205546"><ele>112.0</ele><time>2026-05-01T09:17:36.027Z</time></trkpt><trkpt lat="43.526603" lon="10.6206837"><ele>111.99999999999999</ele><time>2026-05-01T09:17:38.043Z</time></trkpt><trkpt lat="43.526629" lon="10.6207828"><ele>111.99999999999999</ele><time>2026-05-01T09:17:40.034Z</time></trkpt><trkpt lat="43.5266576" lon="10.6209015"><ele>112.0</ele><time>2026-05-01T09:17:42.037Z</time></trkpt><trkpt lat="43.5266996" lon="10.6210331"><ele>112.0</ele><time>2026-05-01T09:17:44.031Z</time></trkpt><trkpt lat="43.5267419" lon="10.6211911"><ele>111.66666666666667</ele><time>2026-05-01T09:17:46.032Z</time></trkpt><trkpt lat="43.5267701" lon="10.6213267"><ele>111.33333333333334</ele><time>2026-05-01T09:17:48.031Z</time></trkpt><trkpt lat="43.5267762" lon="10.6214159"><ele>111.0</ele><time>2026-05-01T09:17:55.033Z</time></trkpt><trkpt lat="43.5267535" lon="10.6215141"><ele>110.66666666666666</ele><time>2026-05-01T09:18:26.03Z</time></trkpt><trkpt lat="43.5266514" lon="10.6215336"><ele>110.33333333333333</ele><time>2026-05-01T09:18:28.037Z</time></trkpt><trkpt lat="43.5265817" lon="10.6215371"><ele>110.0</ele><time>2026-05-01T09:18:29.023Z</time></trkpt><trkpt lat="43.5264997" lon="10.6215412"><ele>109.99999999999999</ele><time>2026-05-01T09:18:30.035Z</time></trkpt><trkpt lat="43.5264168" lon="10.6215401"><ele>110.0</ele><time>2026-05-01T09:18:31.026Z</time></trkpt><trkpt lat="43.5263328" lon="10.6215382"><ele>110.0</ele><time>2026-05-01T09:18:32.03Z</time></trkpt><trkpt lat="43.5262452" lon="10.6215381"><ele>110.0</ele><time>2026-05-01T09:18:33.03Z</time></trkpt><trkpt lat="43.5261584" lon="10.6215365"><ele>109.99999999999999</ele><time>2026-05-01T09:18:34.035Z</time></trkpt><trkpt lat="43.5260564" lon="10.6215304"><ele>110.0</ele><time>2026-05-01T09:18:35.035Z</time></trkpt><trkpt lat="43.5259419" lon="10.6215318"><ele>110.75</ele><time>2026-05-01T09:18:36.043Z</time></trkpt><trkpt lat="43.5258267" lon="10.6215301"><ele>111.5</ele><time>2026-05-01T09:18:37.034Z</time></trkpt><trkpt lat="43.525709" lon="10.6215259"><ele>112.25</ele><time>2026-05-01T09:18:38.041Z</time></trkpt><trkpt lat="43.5255843" lon="10.6215152"><ele>113.0</ele><time>2026-05-01T09:18:39.025Z</time></trkpt><trkpt lat="43.5254597" lon="10.621505"><ele>113.25</ele><time>2026-05-01T09:18:40.037Z</time></trkpt><trkpt lat="43.5253442" lon="10.621478"><ele>113.5</ele><time>2026-05-01T09:18:41.024Z</time></trkpt><trkpt lat="43.5252248" lon="10.6214314"><ele>113.75</ele><time>2026-05-01T09:18:42.036Z</time></trkpt><trkpt lat="43.5251098" lon="10.6213558"><ele>114.0</ele><time>2026-05-01T09:18:43.026Z</time></trkpt><trkpt lat="43.5250077" lon="10.6212568"><ele>115.25</ele><time>2026-05-01T09:18:44.033Z</time></trkpt><trkpt lat="43.5249208" lon="10.6211348"><ele>116.5</ele><time>2026-05-01T09:18:45.041Z</time></trkpt><trkpt lat="43.5248356" lon="10.6209983"><ele>117.75</ele><time>2026-05-01T09:18:46.035Z</time></trkpt><trkpt lat="43.5247531" lon="10.6208486"><ele>119.0</ele><time>2026-05-01T09:18:47.029Z</time></trkpt><trkpt lat="43.5246713" lon="10.6206961"><ele>119.0</ele><time>2026-05-01T09:18:48.027Z</time></trkpt><trkpt lat="43.5245896" lon="10.6205471"><ele>119.0</ele><time>2026-05-01T09:18:49.032Z</time></trkpt><trkpt lat="43.5245099" lon="10.620396"><ele>119.0</ele><time>2026-05-01T09:18:50.029Z</time></trkpt><trkpt lat="43.524432" lon="10.6202466"><ele>119.0</ele><time>2026-05-01T09:18:51.03Z</time></trkpt><trkpt lat="43.5243537" lon="10.6201005"><ele>120.25</ele><time>2026-05-01T09:18:52.033Z</time></trkpt><trkpt lat="43.524277" lon="10.6199626"><ele>121.5</ele><time>2026-05-01T09:18:53.041Z</time></trkpt><trkpt lat="43.5241827" lon="10.6198471"><ele>122.75</ele><time>2026-05-01T09:18:54.042Z</time></trkpt><trkpt lat="43.5240868" lon="10.6197542"><ele>124.0</ele><time>2026-05-01T09:18:55.033Z</time></trkpt><trkpt lat="43.5239787" lon="10.6196788"><ele>124.0</ele><time>2026-05-01T09:18:56.028Z</time></trkpt><trkpt lat="43.5238547" lon="10.6196126"><ele>124.0</ele><time>2026-05-01T09:18:57.036Z</time></trkpt><trkpt lat="43.5237281" lon="10.6195499"><ele>124.0</ele><time>2026-05-01T09:18:58.025Z</time></trkpt><trkpt lat="43.5236005" lon="10.6194836"><ele>124.0</ele><time>2026-05-01T09:18:59.03Z</time></trkpt><trkpt lat="43.5234685" lon="10.6194157"><ele>126.0</ele><time>2026-05-01T09:19:00.034Z</time></trkpt><trkpt lat="43.5233331" lon="10.6193552"><ele>128.0</ele><time>2026-05-01T09:19:01.032Z</time></trkpt><trkpt lat="43.5231976" lon="10.6192905"><ele>130.0</ele><time>2026-05-01T09:19:02.028Z</time></trkpt><trkpt lat="43.5230732" lon="10.6192352"><ele>132.0</ele><time>2026-05-01T09:19:03.028Z</time></trkpt><trkpt lat="43.5229547" lon="10.6191703"><ele>131.6</ele><time>2026-05-01T09:19:04.034Z</time></trkpt><trkpt lat="43.5228407" lon="10.6191123"><ele>131.2</ele><time>2026-05-01T09:19:05.03Z</time></trkpt><trkpt lat="43.5227388" lon="10.619061"><ele>130.8</ele><time>2026-05-01T09:19:06.035Z</time></trkpt><trkpt lat="43.5226435" lon="10.6190037"><ele>130.4</ele><time>2026-05-01T09:19:07.027Z</time></trkpt><trkpt lat="43.5225515" lon="10.6189466"><ele>130.0</ele><time>2026-05-01T09:19:08.035Z</time></trkpt><trkpt lat="43.5224933" lon="10.6188838"><ele>130.0</ele><time>2026-05-01T09:19:09.024Z</time></trkpt><trkpt lat="43.522433" lon="10.6187381"><ele>130.0</ele><time>2026-05-01T09:19:11.047Z</time></trkpt><trkpt lat="43.5224132" lon="10.6186015"><ele>130.0</ele><time>2026-05-01T09:19:13.042Z</time></trkpt><trkpt lat="43.5224167" lon="10.6185005"><ele>130.0</ele><time>2026-05-01T09:19:15.034Z</time></trkpt><trkpt lat="43.5224101" lon="10.6184135"><ele>130.0</ele><time>2026-05-01T09:19:19.041Z</time></trkpt><trkpt lat="43.5223378" lon="10.618434"><ele>130.0</ele><time>2026-05-01T09:19:22.031Z</time></trkpt><trkpt lat="43.5222935" lon="10.6185092"><ele>130.0</ele><time>2026-05-01T09:19:23.03Z</time></trkpt><trkpt lat="43.5222494" lon="10.6185873"><ele>130.0</ele><time>2026-05-01T09:19:24.029Z</time></trkpt><trkpt lat="43.522191" lon="10.618674"><ele>130.0</ele><time>2026-05-01T09:19:25.025Z</time></trkpt><trkpt lat="43.5221262" lon="10.6187657"><ele>130.0</ele><time>2026-05-01T09:19:26.039Z</time></trkpt><trkpt lat="43.5220503" lon="10.6188906"><ele>130.0</ele><time>2026-05-01T09:19:27.03Z</time></trkpt><trkpt lat="43.5219677" lon="10.6190175"><ele>130.5</ele><time>2026-05-01T09:19:28.03Z</time></trkpt><trkpt lat="43.5218905" lon="10.6191423"><ele>131.0</ele><time>2026-05-01T09:19:29.04Z</time></trkpt><trkpt lat="43.5218189" lon="10.6192663"><ele>131.5</ele><time>2026-05-01T09:19:30.031Z</time></trkpt><trkpt lat="43.5217664" lon="10.6194031"><ele>132.0</ele><time>2026-05-01T09:19:31.039Z</time></trkpt><trkpt lat="43.521744" lon="10.6195431"><ele>133.75</ele><time>2026-05-01T09:19:32.027Z</time></trkpt><trkpt lat="43.5217363" lon="10.6196959"><ele>135.5</ele><time>2026-05-01T09:19:33.023Z</time></trkpt><trkpt lat="43.5217443" lon="10.6198644"><ele>137.25</ele><time>2026-05-01T09:19:34.035Z</time></trkpt><trkpt lat="43.5217572" lon="10.6200367"><ele>139.0</ele><time>2026-05-01T09:19:35.03Z</time></trkpt><trkpt lat="43.5217716" lon="10.6202258"><ele>140.25</ele><time>2026-05-01T09:19:36.038Z</time></trkpt><trkpt lat="43.5217888" lon="10.6204274"><ele>141.5</ele><time>2026-05-01T09:19:37.023Z</time></trkpt><trkpt lat="43.5218032" lon="10.6206335"><ele>142.75</ele><time>2026-05-01T09:19:38.03Z</time></trkpt><trkpt lat="43.5218188" lon="10.6208327"><ele>144.0</ele><time>2026-05-01T09:19:39.031Z</time></trkpt><trkpt lat="43.5218266" lon="10.6210159"><ele>144.5</ele><time>2026-05-01T09:19:40.038Z</time></trkpt><trkpt lat="43.5218383" lon="10.6211916"><ele>145.0</ele><time>2026-05-01T09:19:41.043Z</time></trkpt><trkpt lat="43.521839" lon="10.6213672"><ele>145.5</ele><time>2026-05-01T09:19:42.025Z</time></trkpt><trkpt lat="43.5218201" lon="10.6215459"><ele>146.0</ele><time>2026-05-01T09:19:43.032Z</time></trkpt><trkpt lat="43.5217768" lon="10.6217196"><ele>146.0</ele><time>2026-05-01T09:19:44.026Z</time></trkpt><trkpt lat="43.5217138" lon="10.6218811"><ele>146.0</ele><time>2026-05-01T09:19:45.03Z</time></trkpt><trkpt lat="43.5216521" lon="10.6220095"><ele>146.0</ele><time>2026-05-01T09:19:46.031Z</time></trkpt><trkpt lat="43.5215917" lon="10.622112"><ele>146.0</ele><time>2026-05-01T09:19:47.035Z</time></trkpt><trkpt lat="43.5215231" lon="10.6221968"><ele>146.0</ele><time>2026-05-01T09:19:48.036Z</time></trkpt><trkpt lat="43.5214464" lon="10.6222945"><ele>147.0</ele><time>2026-05-01T09:19:49.024Z</time></trkpt><trkpt lat="43.5213637" lon="10.6224083"><ele>148.0</ele><time>2026-05-01T09:19:50.04Z</time></trkpt><trkpt lat="43.521274" lon="10.6225327"><ele>149.0</ele><time>2026-05-01T09:19:51.035Z</time></trkpt><trkpt lat="43.5211786" lon="10.6226586"><ele>150.0</ele><time>2026-05-01T09:19:52.047Z</time></trkpt><trkpt lat="43.5210777" lon="10.6227867"><ele>151.5</ele><time>2026-05-01T09:19:53.036Z</time></trkpt><trkpt lat="43.5209865" lon="10.6229139"><ele>153.0</ele><time>2026-05-01T09:19:54.035Z</time></trkpt><trkpt lat="43.5208879" lon="10.623041"><ele>154.5</ele><time>2026-05-01T09:19:55.028Z</time></trkpt><trkpt lat="43.5207926" lon="10.6231631"><ele>156.0</ele><time>2026-05-01T09:19:56.033Z</time></trkpt><trkpt lat="43.5206919" lon="10.6232825"><ele>156.0</ele><time>2026-05-01T09:19:57.026Z</time></trkpt><trkpt lat="43.5205991" lon="10.6233992"><ele>156.0</ele><time>2026-05-01T09:19:58.027Z</time></trkpt><trkpt lat="43.5205083" lon="10.6235105"><ele>156.0</ele><time>2026-05-01T09:19:59.032Z</time></trkpt><trkpt lat="43.5204195" lon="10.6236243"><ele>156.0</ele><time>2026-05-01T09:20:00.035Z</time></trkpt><trkpt lat="43.5203262" lon="10.6237408"><ele>158.5</ele><time>2026-05-01T09:20:01.029Z</time></trkpt><trkpt lat="43.5202288" lon="10.6238609"><ele>161.0</ele><time>2026-05-01T09:20:02.032Z</time></trkpt><trkpt lat="43.5201208" lon="10.6239935"><ele>163.5</ele><time>2026-05-01T09:20:03.027Z</time></trkpt><trkpt lat="43.5200112" lon="10.6241268"><ele>166.0</ele><time>2026-05-01T09:20:04.035Z</time></trkpt><trkpt lat="43.5199195" lon="10.6242376"><ele>166.0</ele><time>2026-05-01T09:20:05.031Z</time></trkpt><trkpt lat="43.5198338" lon="10.6243343"><ele>166.0</ele><time>2026-05-01T09:20:06.044Z</time></trkpt><trkpt lat="43.5197453" lon="10.6244235"><ele>166.0</ele><time>2026-05-01T09:20:07.039Z</time></trkpt><trkpt lat="43.5196557" lon="10.6244998"><ele>166.0</ele><time>2026-05-01T09:20:08.034Z</time></trkpt><trkpt lat="43.5195514" lon="10.6245598"><ele>166.0</ele><time>2026-05-01T09:20:09.035Z</time></trkpt><trkpt lat="43.5194463" lon="10.6246003"><ele>167.5</ele><time>2026-05-01T09:20:10.037Z</time></trkpt><trkpt lat="43.5193266" lon="10.6246079"><ele>169.0</ele><time>2026-05-01T09:20:11.025Z</time></trkpt><trkpt lat="43.5192094" lon="10.6245886"><ele>170.5</ele><time>2026-05-01T09:20:12.039Z</time></trkpt><trkpt lat="43.5190892" lon="10.6245646"><ele>172.0</ele><time>2026-05-01T09:20:13.036Z</time></trkpt><trkpt lat="43.5189643" lon="10.6245399"><ele>172.0</ele><time>2026-05-01T09:20:14.034Z</time></trkpt><trkpt lat="43.5188305" lon="10.6245069"><ele>172.0</ele><time>2026-05-01T09:20:15.038Z</time></trkpt><trkpt lat="43.5186914" lon="10.6244688"><ele>172.0</ele><time>2026-05-01T09:20:16.026Z</time></trkpt><trkpt lat="43.5185479" lon="10.6244293"><ele>172.0</ele><time>2026-05-01T09:20:17.042Z</time></trkpt><trkpt lat="43.5183987" lon="10.6243945"><ele>174.66666666666669</ele><time>2026-05-01T09:20:18.024Z</time></trkpt><trkpt lat="43.5182463" lon="10.6243559"><ele>177.33333333333334</ele><time>2026-05-01T09:20:19.039Z</time></trkpt><trkpt lat="43.5180939" lon="10.6243154"><ele>180.0</ele><time>2026-05-01T09:20:20.034Z</time></trkpt><trkpt lat="43.5179375" lon="10.6242768"><ele>184.0</ele><time>2026-05-01T09:20:21.041Z</time></trkpt><trkpt lat="43.5177742" lon="10.6242395"><ele>188.0</ele><time>2026-05-01T09:20:22.033Z</time></trkpt><trkpt lat="43.5176101" lon="10.6242022"><ele>192.0</ele><time>2026-05-01T09:20:23.053Z</time></trkpt><trkpt lat="43.5174426" lon="10.6241567"><ele>192.0</ele><time>2026-05-01T09:20:24.032Z</time></trkpt><trkpt lat="43.5172792" lon="10.6240805"><ele>192.0</ele><time>2026-05-01T09:20:25.034Z</time></trkpt><trkpt lat="43.5171335" lon="10.6239519"><ele>192.0</ele><time>2026-05-01T09:20:26.031Z</time></trkpt><trkpt lat="43.5170305" lon="10.6237951"><ele>195.33333333333331</ele><time>2026-05-01T09:20:27.029Z</time></trkpt><trkpt lat="43.5169688" lon="10.6236136"><ele>198.66666666666666</ele><time>2026-05-01T09:20:28.034Z</time></trkpt><trkpt lat="43.5169222" lon="10.6234012"><ele>202.0</ele><time>2026-05-01T09:20:29.032Z</time></trkpt><trkpt lat="43.5168665" lon="10.6231706"><ele>202.0</ele><time>2026-05-01T09:20:30.045Z</time></trkpt><trkpt lat="43.5167944" lon="10.6229659"><ele>202.0</ele><time>2026-05-01T09:20:31.02Z</time></trkpt><trkpt lat="43.5166973" lon="10.6227843"><ele>202.0</ele><time>2026-05-01T09:20:32.029Z</time></trkpt><trkpt lat="43.5165747" lon="10.6226163"><ele>202.33333333333331</ele><time>2026-05-01T09:20:33.023Z</time></trkpt><trkpt lat="43.5164471" lon="10.6224732"><ele>202.66666666666669</ele><time>2026-05-01T09:20:34.032Z</time></trkpt><trkpt lat="43.5163106" lon="10.6223577"><ele>203.0</ele><time>2026-05-01T09:20:35.035Z</time></trkpt><trkpt lat="43.5161526" lon="10.6222644"><ele>204.66666666666669</ele><time>2026-05-01T09:20:36.037Z</time></trkpt><trkpt lat="43.5159818" lon="10.6222171"><ele>206.33333333333331</ele><time>2026-05-01T09:20:37.027Z</time></trkpt><trkpt lat="43.5158083" lon="10.6222012"><ele>208.0</ele><time>2026-05-01T09:20:38.038Z</time></trkpt><trkpt lat="43.5156308" lon="10.6222033"><ele>208.0</ele><time>2026-05-01T09:20:39.032Z</time></trkpt><trkpt lat="43.5154559" lon="10.6221991"><ele>208.0</ele><time>2026-05-01T09:20:40.027Z</time></trkpt><trkpt lat="43.5152816" lon="10.6221877"><ele>208.0</ele><time>2026-05-01T09:20:41.03Z</time></trkpt><trkpt lat="43.5151109" lon="10.6221722"><ele>210.0</ele><time>2026-05-01T09:20:42.041Z</time></trkpt><trkpt lat="43.5149389" lon="10.6221398"><ele>212.0</ele><time>2026-05-01T09:20:43.033Z</time></trkpt><trkpt lat="43.5147681" lon="10.6220973"><ele>214.0</ele><time>2026-05-01T09:20:44.032Z</time></trkpt><trkpt lat="43.5146018" lon="10.6220269"><ele>217.0</ele><time>2026-05-01T09:20:45.031Z</time></trkpt><trkpt lat="43.5144376" lon="10.6219436"><ele>220.0</ele><time>2026-05-01T09:20:46.031Z</time></trkpt><trkpt lat="43.5142796" lon="10.6218373"><ele>223.0</ele><time>2026-05-01T09:20:47.028Z</time></trkpt><trkpt lat="43.5141254" lon="10.6217323"><ele>223.0</ele><time>2026-05-01T09:20:48.033Z</time></trkpt><trkpt lat="43.5139724" lon="10.6216556"><ele>223.0</ele><time>2026-05-01T09:20:49.032Z</time></trkpt><trkpt lat="43.5138236" lon="10.6216022"><ele>223.0</ele><time>2026-05-01T09:20:50.04Z</time></trkpt><trkpt lat="43.5136854" lon="10.6215601"><ele>223.60000000000002</ele><time>2026-05-01T09:20:51.039Z</time></trkpt><trkpt lat="43.513578" lon="10.6214829"><ele>224.20000000000002</ele><time>2026-05-01T09:20:52.028Z</time></trkpt><trkpt lat="43.5135086" lon="10.6213839"><ele>224.8</ele><time>2026-05-01T09:20:53.038Z</time></trkpt><trkpt lat="43.5134831" lon="10.6212627"><ele>225.4</ele><time>2026-05-01T09:20:54.032Z</time></trkpt><trkpt lat="43.5134984" lon="10.6211327"><ele>226.0</ele><time>2026-05-01T09:20:55.035Z</time></trkpt><trkpt lat="43.513552" lon="10.6210077"><ele>226.75</ele><time>2026-05-01T09:20:56.03Z</time></trkpt><trkpt lat="43.5136346" lon="10.620896"><ele>227.5</ele><time>2026-05-01T09:20:57.021Z</time></trkpt><trkpt lat="43.5137334" lon="10.6207741"><ele>228.25</ele><time>2026-05-01T09:20:58.033Z</time></trkpt><trkpt lat="43.5138216" lon="10.6206554"><ele>229.0</ele><time>2026-05-01T09:20:59.031Z</time></trkpt><trkpt lat="43.5139068" lon="10.6205314"><ele>229.0</ele><time>2026-05-01T09:21:00.042Z</time></trkpt><trkpt lat="43.5139906" lon="10.6203925"><ele>229.0</ele><time>2026-05-01T09:21:01.028Z</time></trkpt><trkpt lat="43.5140661" lon="10.6202371"><ele>229.0</ele><time>2026-05-01T09:21:02.039Z</time></trkpt><trkpt lat="43.5141137" lon="10.6200692"><ele>229.0</ele><time>2026-05-01T09:21:03.042Z</time></trkpt><trkpt lat="43.5141256" lon="10.6199246"><ele>230.39999999999998</ele><time>2026-05-01T09:21:04.033Z</time></trkpt><trkpt lat="43.5140894" lon="10.6198175"><ele>231.79999999999998</ele><time>2026-05-01T09:21:05.031Z</time></trkpt><trkpt lat="43.5140281" lon="10.6197185"><ele>233.20000000000002</ele><time>2026-05-01T09:21:06.031Z</time></trkpt><trkpt lat="43.5139395" lon="10.6196363"><ele>234.60000000000002</ele><time>2026-05-01T09:21:07.025Z</time></trkpt><trkpt lat="43.5138237" lon="10.6195801"><ele>236.0</ele><time>2026-05-01T09:21:08.038Z</time></trkpt><trkpt lat="43.5136822" lon="10.6195134"><ele>239.33333333333334</ele><time>2026-05-01T09:21:09.042Z</time></trkpt><trkpt lat="43.5135242" lon="10.6194437"><ele>242.66666666666669</ele><time>2026-05-01T09:21:10.034Z</time></trkpt><trkpt lat="43.5133632" lon="10.6193708"><ele>246.0</ele><time>2026-05-01T09:21:11.035Z</time></trkpt><trkpt lat="43.5132073" lon="10.6192909"><ele>246.0</ele><time>2026-05-01T09:21:12.02Z</time></trkpt><trkpt lat="43.5130496" lon="10.6192139"><ele>246.0</ele><time>2026-05-01T09:21:13.027Z</time></trkpt><trkpt lat="43.5128968" lon="10.6191446"><ele>246.0</ele><time>2026-05-01T09:21:14.022Z</time></trkpt><trkpt lat="43.5127491" lon="10.6190729"><ele>248.25</ele><time>2026-05-01T09:21:15.031Z</time></trkpt><trkpt lat="43.5126118" lon="10.6190056"><ele>250.5</ele><time>2026-05-01T09:21:16.032Z</time></trkpt><trkpt lat="43.5124766" lon="10.6189403"><ele>252.75</ele><time>2026-05-01T09:21:17.031Z</time></trkpt><trkpt lat="43.5123556" lon="10.6188688"><ele>255.0</ele><time>2026-05-01T09:21:18.038Z</time></trkpt><trkpt lat="43.5122381" lon="10.6187898"><ele>255.0</ele><time>2026-05-01T09:21:19.034Z</time></trkpt><trkpt lat="43.5121273" lon="10.6187036"><ele>255.0</ele><time>2026-05-01T09:21:20.026Z</time></trkpt><trkpt lat="43.5120176" lon="10.618604"><ele>255.0</ele><time>2026-05-01T09:21:21.038Z</time></trkpt><trkpt lat="43.5119183" lon="10.6185033"><ele>255.0</ele><time>2026-05-01T09:21:22.04Z</time></trkpt><trkpt lat="43.5118161" lon="10.6184202"><ele>257.25</ele><time>2026-05-01T09:21:23.029Z</time></trkpt><trkpt lat="43.5117009" lon="10.6183604"><ele>259.5</ele><time>2026-05-01T09:21:24.033Z</time></trkpt><trkpt lat="43.5115865" lon="10.6183133"><ele>261.75</ele><time>2026-05-01T09:21:25.04Z</time></trkpt><trkpt lat="43.5114647" lon="10.6182803"><ele>264.0</ele><time>2026-05-01T09:21:26.029Z</time></trkpt><trkpt lat="43.5113376" lon="10.6182519"><ele>266.25</ele><time>2026-05-01T09:21:27.025Z</time></trkpt><trkpt lat="43.5112038" lon="10.6182283"><ele>268.5</ele><time>2026-05-01T09:21:28.021Z</time></trkpt><trkpt lat="43.5110706" lon="10.6182045"><ele>270.75</ele><time>2026-05-01T09:21:29.043Z</time></trkpt><trkpt lat="43.5109453" lon="10.6181891"><ele>273.0</ele><time>2026-05-01T09:21:30.026Z</time></trkpt><trkpt lat="43.5108251" lon="10.6181937"><ele>273.0</ele><time>2026-05-01T09:21:31.032Z</time></trkpt><trkpt lat="43.5106994" lon="10.618229"><ele>273.0</ele><time>2026-05-01T09:21:32.027Z</time></trkpt><trkpt lat="43.5105821" lon="10.6183012"><ele>273.0</ele><time>2026-05-01T09:21:33.038Z</time></trkpt><trkpt lat="43.5104781" lon="10.6183761"><ele>273.0</ele><time>2026-05-01T09:21:34.033Z</time></trkpt><trkpt lat="43.510383" lon="10.6184523"><ele>275.0</ele><time>2026-05-01T09:21:35.03Z</time></trkpt><trkpt lat="43.5102993" lon="10.6185167"><ele>277.0</ele><time>2026-05-01T09:21:36.03Z</time></trkpt><trkpt lat="43.5102164" lon="10.6185597"><ele>279.0</ele><time>2026-05-01T09:21:37.017Z</time></trkpt><trkpt lat="43.5101331" lon="10.6185676"><ele>281.0</ele><time>2026-05-01T09:21:38.027Z</time></trkpt><trkpt lat="43.5100614" lon="10.6185301"><ele>283.0</ele><time>2026-05-01T09:21:39.046Z</time></trkpt><trkpt lat="43.5099851" lon="10.6183815"><ele>283.0</ele><time>2026-05-01T09:21:41.031Z</time></trkpt><trkpt lat="43.509953" lon="10.6182816"><ele>283.0</ele><time>2026-05-01T09:21:42.027Z</time></trkpt><trkpt lat="43.5099144" lon="10.6181811"><ele>283.0</ele><time>2026-05-01T09:21:43.032Z</time></trkpt><trkpt lat="43.5098787" lon="10.618085"><ele>283.0</ele><time>2026-05-01T09:21:44.031Z</time></trkpt><trkpt lat="43.5098417" lon="10.6179761"><ele>283.0</ele><time>2026-05-01T09:21:45.031Z</time></trkpt><trkpt lat="43.5098002" lon="10.6178554"><ele>283.0</ele><time>2026-05-01T09:21:46.034Z</time></trkpt><trkpt lat="43.5097541" lon="10.6177334"><ele>283.6</ele><time>2026-05-01T09:21:47.032Z</time></trkpt><trkpt lat="43.5096911" lon="10.61762"><ele>284.20000000000005</ele><time>2026-05-01T09:21:48.051Z</time></trkpt><trkpt lat="43.5096323" lon="10.617484"><ele>284.8</ele><time>2026-05-01T09:21:49.033Z</time></trkpt><trkpt lat="43.5095634" lon="10.6173562"><ele>285.40000000000003</ele><time>2026-05-01T09:21:50.04Z</time></trkpt><trkpt lat="43.5095003" lon="10.6172266"><ele>286.0</ele><time>2026-05-01T09:21:51.036Z</time></trkpt><trkpt lat="43.5094356" lon="10.6171053"><ele>287.2</ele><time>2026-05-01T09:21:52.035Z</time></trkpt><trkpt lat="43.509372" lon="10.616977"><ele>288.40000000000003</ele><time>2026-05-01T09:21:53.031Z</time></trkpt><trkpt lat="43.5093028" lon="10.6168506"><ele>289.6</ele><time>2026-05-01T09:21:54.026Z</time></trkpt><trkpt lat="43.5092393" lon="10.6167299"><ele>290.8</ele><time>2026-05-01T09:21:55.039Z</time></trkpt><trkpt lat="43.5091884" lon="10.6166208"><ele>292.0</ele><time>2026-05-01T09:21:56.03Z</time></trkpt><trkpt lat="43.5091393" lon="10.6165203"><ele>292.0</ele><time>2026-05-01T09:21:57.027Z</time></trkpt><trkpt lat="43.5091014" lon="10.6164186"><ele>292.0</ele><time>2026-05-01T09:21:58.037Z</time></trkpt><trkpt lat="43.5090722" lon="10.6163201"><ele>292.0</ele><time>2026-05-01T09:21:59.017Z</time></trkpt><trkpt lat="43.5090603" lon="10.6162236"><ele>292.0</ele><time>2026-05-01T09:22:00.025Z</time></trkpt><trkpt lat="43.5090452" lon="10.6161228"><ele>292.0</ele><time>2026-05-01T09:22:01.032Z</time></trkpt><trkpt lat="43.5090095" lon="10.6160224"><ele>292.0</ele><time>2026-05-01T09:22:02.035Z</time></trkpt><trkpt lat="43.5089626" lon="10.6159273"><ele>292.3333333333333</ele><time>2026-05-01T09:22:03.047Z</time></trkpt><trkpt lat="43.508923" lon="10.6158193"><ele>292.66666666666663</ele><time>2026-05-01T09:22:04.048Z</time></trkpt><trkpt lat="43.5088929" lon="10.6157022"><ele>293.0</ele><time>2026-05-01T09:22:05.041Z</time></trkpt><trkpt lat="43.5088833" lon="10.6155717"><ele>293.3333333333333</ele><time>2026-05-01T09:22:06.038Z</time></trkpt><trkpt lat="43.50887" lon="10.6154629"><ele>293.6666666666667</ele><time>2026-05-01T09:22:07.026Z</time></trkpt><trkpt lat="43.5088282" lon="10.6153505"><ele>294.0</ele><time>2026-05-01T09:22:08.038Z</time></trkpt><trkpt lat="43.5087858" lon="10.6152589"><ele>294.2857142857143</ele><time>2026-05-01T09:22:09.041Z</time></trkpt><trkpt lat="43.5087458" lon="10.6151704"><ele>294.57142857142856</ele><time>2026-05-01T09:22:10.023Z</time></trkpt><trkpt lat="43.5086973" lon="10.6151084"><ele>294.8571428571429</ele><time>2026-05-01T09:22:11.039Z</time></trkpt><trkpt lat="43.5086314" lon="10.6151043"><ele>295.1428571428571</ele><time>2026-05-01T09:22:12.042Z</time></trkpt><trkpt lat="43.5085748" lon="10.6151592"><ele>295.42857142857144</ele><time>2026-05-01T09:22:13.039Z</time></trkpt><trkpt lat="43.5085192" lon="10.6152349"><ele>295.7142857142857</ele><time>2026-05-01T09:22:14.032Z</time></trkpt><trkpt lat="43.5084712" lon="10.6153281"><ele>296.0</ele><time>2026-05-01T09:22:15.018Z</time></trkpt><trkpt lat="43.5084132" lon="10.6154224"><ele>298.5</ele><time>2026-05-01T09:22:16.036Z</time></trkpt><trkpt lat="43.5083278" lon="10.6155009"><ele>301.0</ele><time>2026-05-01T09:22:17.033Z</time></trkpt><trkpt lat="43.5082258" lon="10.6155608"><ele>303.5</ele><time>2026-05-01T09:22:18.029Z</time></trkpt><trkpt lat="43.5081089" lon="10.6156072"><ele>306.0</ele><time>2026-05-01T09:22:19.036Z</time></trkpt><trkpt lat="43.5079922" lon="10.6156402"><ele>308.0</ele><time>2026-05-01T09:22:20.042Z</time></trkpt><trkpt lat="43.5079003" lon="10.6156748"><ele>310.0</ele><time>2026-05-01T09:22:21.031Z</time></trkpt><trkpt lat="43.5078002" lon="10.6157245"><ele>312.0</ele><time>2026-05-01T09:22:22.037Z</time></trkpt><trkpt lat="43.5076943" lon="10.6157891"><ele>314.0</ele><time>2026-05-01T09:22:23.04Z</time></trkpt><trkpt lat="43.5075914" lon="10.6158643"><ele>316.0</ele><time>2026-05-01T09:22:24.042Z</time></trkpt><trkpt lat="43.5074864" lon="10.6159275"><ele>316.0</ele><time>2026-05-01T09:22:25.041Z</time></trkpt><trkpt lat="43.5073748" lon="10.615972"><ele>316.0</ele><time>2026-05-01T09:22:26.041Z</time></trkpt><trkpt lat="43.5072706" lon="10.6159958"><ele>316.0</ele><time>2026-05-01T09:22:27.027Z</time></trkpt><trkpt lat="43.5071649" lon="10.6160166"><ele>316.0</ele><time>2026-05-01T09:22:28.043Z</time></trkpt><trkpt lat="43.5070624" lon="10.616038"><ele>316.0</ele><time>2026-05-01T09:22:29.036Z</time></trkpt><trkpt lat="43.5069686" lon="10.6160467"><ele>317.16666666666663</ele><time>2026-05-01T09:22:30.041Z</time></trkpt><trkpt lat="43.5068784" lon="10.6160461"><ele>318.3333333333333</ele><time>2026-05-01T09:22:31.034Z</time></trkpt><trkpt lat="43.5067933" lon="10.6160318"><ele>319.5</ele><time>2026-05-01T09:22:32.025Z</time></trkpt><trkpt lat="43.5067171" lon="10.6159817"><ele>320.6666666666667</ele><time>2026-05-01T09:22:33.041Z</time></trkpt><trkpt lat="43.5066453" lon="10.6159011"><ele>321.83333333333337</ele><time>2026-05-01T09:22:34.029Z</time></trkpt><trkpt lat="43.5065819" lon="10.6158058"><ele>323.0</ele><time>2026-05-01T09:22:35.033Z</time></trkpt><trkpt lat="43.5065132" lon="10.6156976"><ele>323.0</ele><time>2026-05-01T09:22:36.039Z</time></trkpt><trkpt lat="43.506442" lon="10.6155739"><ele>323.0</ele><time>2026-05-01T09:22:37.033Z</time></trkpt><trkpt lat="43.5063743" lon="10.6154433"><ele>323.0</ele><time>2026-05-01T09:22:38.038Z</time></trkpt><trkpt lat="43.5063107" lon="10.6153148"><ele>323.0</ele><time>2026-05-01T09:22:39.026Z</time></trkpt><trkpt lat="43.5062457" lon="10.6151929"><ele>324.79999999999995</ele><time>2026-05-01T09:22:40.026Z</time></trkpt><trkpt lat="43.506183" lon="10.6150739"><ele>326.6</ele><time>2026-05-01T09:22:41.038Z</time></trkpt><trkpt lat="43.5061261" lon="10.6149657"><ele>328.4</ele><time>2026-05-01T09:22:42.032Z</time></trkpt><trkpt lat="43.506088" lon="10.6148844"><ele>330.20000000000005</ele><time>2026-05-01T09:22:43.03Z</time></trkpt><trkpt lat="43.5060452" lon="10.6147709"><ele>332.0</ele><time>2026-05-01T09:22:45.037Z</time></trkpt><trkpt lat="43.5060081" lon="10.6146511"><ele>332.0</ele><time>2026-05-01T09:22:47.039Z</time></trkpt><trkpt lat="43.5059638" lon="10.6145013"><ele>332.0</ele><time>2026-05-01T09:22:49.04Z</time></trkpt><trkpt lat="43.5059449" lon="10.6144072"><ele>332.0</ele><time>2026-05-01T09:22:50.022Z</time></trkpt><trkpt lat="43.505933" lon="10.6143077"><ele>332.0</ele><time>2026-05-01T09:22:51.039Z</time></trkpt><trkpt lat="43.5059141" lon="10.6142091"><ele>332.0</ele><time>2026-05-01T09:22:52.024Z</time></trkpt><trkpt lat="43.5058968" lon="10.6141052"><ele>332.0</ele><time>2026-05-01T09:22:53.033Z</time></trkpt><trkpt lat="43.5058851" lon="10.6140023"><ele>331.8</ele><time>2026-05-01T09:22:54.031Z</time></trkpt><trkpt lat="43.5058717" lon="10.6138499"><ele>331.6</ele><time>2026-05-01T09:22:56.034Z</time></trkpt><trkpt lat="43.5058523" lon="10.6137262"><ele>331.40000000000003</ele><time>2026-05-01T09:22:58.026Z</time></trkpt><trkpt lat="43.5058131" lon="10.6135757"><ele>331.20000000000005</ele><time>2026-05-01T09:23:00.031Z</time></trkpt><trkpt lat="43.5057722" lon="10.6134305"><ele>331.0</ele><time>2026-05-01T09:23:02.024Z</time></trkpt><trkpt lat="43.5057366" lon="10.6132802"><ele>330.0</ele><time>2026-05-01T09:23:04.03Z</time></trkpt><trkpt lat="43.5057235" lon="10.6131927"><ele>329.0</ele><time>2026-05-01T09:23:05.025Z</time></trkpt><trkpt lat="43.5056981" lon="10.6131055"><ele>328.0</ele><time>2026-05-01T09:23:06.021Z</time></trkpt><trkpt lat="43.5056583" lon="10.6130169"><ele>327.0</ele><time>2026-05-01T09:23:07.041Z</time></trkpt><trkpt lat="43.5056009" lon="10.6129392"><ele>326.0</ele><time>2026-05-01T09:23:08.02Z</time></trkpt><trkpt lat="43.5055358" lon="10.6128563"><ele>325.0</ele><time>2026-05-01T09:23:09.042Z</time></trkpt><trkpt lat="43.5054628" lon="10.6127653"><ele>324.4</ele><time>2026-05-01T09:23:10.031Z</time></trkpt><trkpt lat="43.5053899" lon="10.6126636"><ele>323.8</ele><time>2026-05-01T09:23:11.032Z</time></trkpt><trkpt lat="43.5053285" lon="10.6125563"><ele>323.20000000000005</ele><time>2026-05-01T09:23:12.035Z</time></trkpt><trkpt lat="43.5052647" lon="10.6124557"><ele>322.6</ele><time>2026-05-01T09:23:13.041Z</time></trkpt><trkpt lat="43.5051983" lon="10.6123688"><ele>322.0</ele><time>2026-05-01T09:23:14.03Z</time></trkpt><trkpt lat="43.5051215" lon="10.6123122"><ele>322.0</ele><time>2026-05-01T09:23:15.029Z</time></trkpt><trkpt lat="43.5050395" lon="10.6122872"><ele>322.0</ele><time>2026-05-01T09:23:16.029Z</time></trkpt><trkpt lat="43.5049448" lon="10.612274"><ele>322.0</ele><time>2026-05-01T09:23:17.046Z</time></trkpt><trkpt lat="43.5048445" lon="10.6122706"><ele>322.0</ele><time>2026-05-01T09:23:18.027Z</time></trkpt><trkpt lat="43.5047435" lon="10.6122822"><ele>322.0</ele><time>2026-05-01T09:23:19.029Z</time></trkpt><trkpt lat="43.5046516" lon="10.6122834"><ele>321.40000000000003</ele><time>2026-05-01T09:23:20.034Z</time></trkpt><trkpt lat="43.5045644" lon="10.6122589"><ele>320.8</ele><time>2026-05-01T09:23:21.036Z</time></trkpt><trkpt lat="43.504473" lon="10.6122186"><ele>320.2</ele><time>2026-05-01T09:23:22.033Z</time></trkpt><trkpt lat="43.5043741" lon="10.6121485"><ele>319.6</ele><time>2026-05-01T09:23:23.035Z</time></trkpt><trkpt lat="43.5042787" lon="10.6120619"><ele>319.0</ele><time>2026-05-01T09:23:24.031Z</time></trkpt><trkpt lat="43.5041846" lon="10.6119623"><ele>319.0</ele><time>2026-05-01T09:23:25.038Z</time></trkpt><trkpt lat="43.5041035" lon="10.6118627"><ele>319.0</ele><time>2026-05-01T09:23:26.026Z</time></trkpt><trkpt lat="43.5040326" lon="10.6117689"><ele>319.0</ele><time>2026-05-01T09:23:27.032Z</time></trkpt><trkpt lat="43.5039559" lon="10.6116813"><ele>319.0</ele><time>2026-05-01T09:23:28.031Z</time></trkpt><trkpt lat="43.503872" lon="10.6116089"><ele>319.0</ele><time>2026-05-01T09:23:29.021Z</time></trkpt><trkpt lat="43.5037864" lon="10.6115557"><ele>320.6</ele><time>2026-05-01T09:23:30.033Z</time></trkpt><trkpt lat="43.5036963" lon="10.6115052"><ele>322.2</ele><time>2026-05-01T09:23:31.028Z</time></trkpt><trkpt lat="43.503604" lon="10.6114571"><ele>323.8</ele><time>2026-05-01T09:23:32.018Z</time></trkpt><trkpt lat="43.5035064" lon="10.6114189"><ele>325.40000000000003</ele><time>2026-05-01T09:23:33.031Z</time></trkpt><trkpt lat="43.5034171" lon="10.6113956"><ele>327.0</ele><time>2026-05-01T09:23:34.03Z</time></trkpt><trkpt lat="43.5033238" lon="10.611386"><ele>327.0</ele><time>2026-05-01T09:23:35.027Z</time></trkpt><trkpt lat="43.5032395" lon="10.6113967"><ele>327.0</ele><time>2026-05-01T09:23:36.031Z</time></trkpt><trkpt lat="43.5031638" lon="10.6114391"><ele>327.0</ele><time>2026-05-01T09:23:37.039Z</time></trkpt><trkpt lat="43.5030957" lon="10.611501"><ele>327.0</ele><time>2026-05-01T09:23:38.032Z</time></trkpt><trkpt lat="43.5030281" lon="10.6115752"><ele>327.0</ele><time>2026-05-01T09:23:39.031Z</time></trkpt><trkpt lat="43.5029625" lon="10.6116145"><ele>327.0</ele><time>2026-05-01T09:23:40.021Z</time></trkpt><trkpt lat="43.5028523" lon="10.6115887"><ele>327.8</ele><time>2026-05-01T09:23:42.03Z</time></trkpt><trkpt lat="43.5028201" lon="10.6114286"><ele>328.6</ele><time>2026-05-01T09:23:44.027Z</time></trkpt><trkpt lat="43.5028475" lon="10.6113323"><ele>329.40000000000003</ele><time>2026-05-01T09:23:45.029Z</time></trkpt><trkpt lat="43.502907" lon="10.6112312"><ele>330.20000000000005</ele><time>2026-05-01T09:23:46.031Z</time></trkpt><trkpt lat="43.5029836" lon="10.6111243"><ele>331.0</ele><time>2026-05-01T09:23:47.019Z</time></trkpt><trkpt lat="43.5030538" lon="10.6110159"><ele>329.66666666666663</ele><time>2026-05-01T09:23:48.049Z</time></trkpt><trkpt lat="43.5031076" lon="10.6109212"><ele>328.3333333333333</ele><time>2026-05-01T09:23:49.033Z</time></trkpt><trkpt lat="43.5031467" lon="10.6108293"><ele>327.0</ele><time>2026-05-01T09:23:50.031Z</time></trkpt><trkpt lat="43.5031575" lon="10.6107436"><ele>325.6666666666667</ele><time>2026-05-01T09:23:51.026Z</time></trkpt><trkpt lat="43.5031444" lon="10.6106427"><ele>324.33333333333337</ele><time>2026-05-01T09:23:52.036Z</time></trkpt><trkpt lat="43.5031025" lon="10.6105273"><ele>323.0</ele><time>2026-05-01T09:23:53.036Z</time></trkpt><trkpt lat="43.503056" lon="10.6104073"><ele>322.5</ele><time>2026-05-01T09:23:54.037Z</time></trkpt><trkpt lat="43.5030099" lon="10.6103122"><ele>322.0</ele><time>2026-05-01T09:23:55.04Z</time></trkpt><trkpt lat="43.5029823" lon="10.6102099"><ele>321.5</ele><time>2026-05-01T09:23:56.046Z</time></trkpt><trkpt lat="43.5029619" lon="10.6101077"><ele>321.0</ele><time>2026-05-01T09:23:57.031Z</time></trkpt><trkpt lat="43.5029563" lon="10.6099994"><ele>320.5</ele><time>2026-05-01T09:23:58.037Z</time></trkpt><trkpt lat="43.5029617" lon="10.6098781"><ele>320.0</ele><time>2026-05-01T09:23:59.039Z</time></trkpt><trkpt lat="43.5029635" lon="10.6097826"><ele>320.0</ele><time>2026-05-01T09:24:00.037Z</time></trkpt><trkpt lat="43.5029473" lon="10.6096427"><ele>320.0</ele><time>2026-05-01T09:24:02.036Z</time></trkpt><trkpt lat="43.5029023" lon="10.6095691"><ele>320.0</ele><time>2026-05-01T09:24:03.034Z</time></trkpt><trkpt lat="43.502839" lon="10.6094868"><ele>320.0</ele><time>2026-05-01T09:24:04.026Z</time></trkpt><trkpt lat="43.5027649" lon="10.6094244"><ele>320.0</ele><time>2026-05-01T09:24:05.03Z</time></trkpt><trkpt lat="43.5026884" lon="10.6093851"><ele>320.0</ele><time>2026-05-01T09:24:06.027Z</time></trkpt><trkpt lat="43.5026079" lon="10.6093618"><ele>322.6</ele><time>2026-05-01T09:24:07.025Z</time></trkpt><trkpt lat="43.5025099" lon="10.6093627"><ele>325.2</ele><time>2026-05-01T09:24:08.022Z</time></trkpt><trkpt lat="43.5024153" lon="10.6093916"><ele>327.79999999999995</ele><time>2026-05-01T09:24:09.026Z</time></trkpt><trkpt lat="43.5023244" lon="10.609448"><ele>330.4</ele><time>2026-05-01T09:24:10.023Z</time></trkpt><trkpt lat="43.5022394" lon="10.6095052"><ele>333.0</ele><time>2026-05-01T09:24:11.032Z</time></trkpt><trkpt lat="43.5021407" lon="10.6095772"><ele>336.79999999999995</ele><time>2026-05-01T09:24:12.023Z</time></trkpt><trkpt lat="43.5020177" lon="10.6096467"><ele>340.6</ele><time>2026-05-01T09:24:13.03Z</time></trkpt><trkpt lat="43.5018941" lon="10.6096973"><ele>344.4</ele><time>2026-05-01T09:24:14.03Z</time></trkpt><trkpt lat="43.5017937" lon="10.6097257"><ele>348.20000000000005</ele><time>2026-05-01T09:24:15.033Z</time></trkpt><trkpt lat="43.5017096" lon="10.6097218"><ele>352.0</ele><time>2026-05-01T09:24:16.031Z</time></trkpt><trkpt lat="43.5016184" lon="10.6096949"><ele>352.0</ele><time>2026-05-01T09:24:17.043Z</time></trkpt><trkpt lat="43.5015317" lon="10.6096239"><ele>352.0</ele><time>2026-05-01T09:24:18.031Z</time></trkpt><trkpt lat="43.5014496" lon="10.6095369"><ele>352.0</ele><time>2026-05-01T09:24:19.033Z</time></trkpt><trkpt lat="43.5013936" lon="10.6094887"><ele>352.0</ele><time>2026-05-01T09:24:20.036Z</time></trkpt><trkpt lat="43.5012782" lon="10.6094554"><ele>352.0</ele><time>2026-05-01T09:24:22.03Z</time></trkpt><trkpt lat="43.5011947" lon="10.6094859"><ele>355.40000000000003</ele><time>2026-05-01T09:24:23.029Z</time></trkpt><trkpt lat="43.5011032" lon="10.6095302"><ele>358.8</ele><time>2026-05-01T09:24:24.033Z</time></trkpt><trkpt lat="43.5010067" lon="10.6095714"><ele>362.2</ele><time>2026-05-01T09:24:25.03Z</time></trkpt><trkpt lat="43.500913" lon="10.6095851"><ele>365.6</ele><time>2026-05-01T09:24:26.027Z</time></trkpt><trkpt lat="43.5008279" lon="10.6095625"><ele>369.0</ele><time>2026-05-01T09:24:27.029Z</time></trkpt><trkpt lat="43.5007396" lon="10.6095081"><ele>370.8333333333333</ele><time>2026-05-01T09:24:28.023Z</time></trkpt><trkpt lat="43.5006651" lon="10.6094431"><ele>372.6666666666667</ele><time>2026-05-01T09:24:29.026Z</time></trkpt><trkpt lat="43.5006085" lon="10.6093459"><ele>374.5</ele><time>2026-05-01T09:24:30.034Z</time></trkpt><trkpt lat="43.5005581" lon="10.6092397"><ele>376.33333333333337</ele><time>2026-05-01T09:24:31.033Z</time></trkpt><trkpt lat="43.5004958" lon="10.6091659"><ele>378.1666666666667</ele><time>2026-05-01T09:24:32.031Z</time></trkpt><trkpt lat="43.5004221" lon="10.6091022"><ele>380.0</ele><time>2026-05-01T09:24:33.034Z</time></trkpt><trkpt lat="43.5003492" lon="10.6090192"><ele>380.0</ele><time>2026-05-01T09:24:34.023Z</time></trkpt><trkpt lat="43.5002697" lon="10.6089085"><ele>380.0</ele><time>2026-05-01T09:24:35.031Z</time></trkpt><trkpt lat="43.5001932" lon="10.6087883"><ele>380.0</ele><time>2026-05-01T09:24:36.024Z</time></trkpt><trkpt lat="43.5001425" lon="10.608663"><ele>380.0</ele><time>2026-05-01T09:24:37.019Z</time></trkpt><trkpt lat="43.5001019" lon="10.608517"><ele>380.0</ele><time>2026-05-01T09:24:38.026Z</time></trkpt><trkpt lat="43.5000487" lon="10.6083826"><ele>378.2</ele><time>2026-05-01T09:24:39.025Z</time></trkpt><trkpt lat="43.499973" lon="10.6082647"><ele>376.4</ele><time>2026-05-01T09:24:40.017Z</time></trkpt><trkpt lat="43.4998918" lon="10.6081408"><ele>374.6</ele><time>2026-05-01T09:24:41.025Z</time></trkpt><trkpt lat="43.4998254" lon="10.6080353"><ele>372.8</ele><time>2026-05-01T09:24:42.03Z</time></trkpt><trkpt lat="43.4997594" lon="10.6079356"><ele>371.0</ele><time>2026-05-01T09:24:43.025Z</time></trkpt><trkpt lat="43.4997018" lon="10.6078431"><ele>370.6</ele><time>2026-05-01T09:24:44.035Z</time></trkpt><trkpt lat="43.4996391" lon="10.6077648"><ele>370.20000000000005</ele><time>2026-05-01T09:24:45.023Z</time></trkpt><trkpt lat="43.4995653" lon="10.6077116"><ele>369.79999999999995</ele><time>2026-05-01T09:24:46.031Z</time></trkpt><trkpt lat="43.4994849" lon="10.6076541"><ele>369.4</ele><time>2026-05-01T09:24:47.032Z</time></trkpt><trkpt lat="43.4993935" lon="10.6075977"><ele>369.0</ele><time>2026-05-01T09:24:48.031Z</time></trkpt><trkpt lat="43.4993071" lon="10.6075451"><ele>371.3333333333333</ele><time>2026-05-01T09:24:49.034Z</time></trkpt><trkpt lat="43.4992236" lon="10.6074841"><ele>373.6666666666667</ele><time>2026-05-01T09:24:50.038Z</time></trkpt><trkpt lat="43.4991575" lon="10.6074118"><ele>376.0</ele><time>2026-05-01T09:24:51.034Z</time></trkpt><trkpt lat="43.4991242" lon="10.607311"><ele>378.33333333333337</ele><time>2026-05-01T09:24:52.029Z</time></trkpt><trkpt lat="43.4991276" lon="10.6072023"><ele>380.6666666666667</ele><time>2026-05-01T09:24:53.024Z</time></trkpt><trkpt lat="43.4991551" lon="10.6070993"><ele>383.0</ele><time>2026-05-01T09:24:54.026Z</time></trkpt><trkpt lat="43.499184" lon="10.6070012"><ele>383.6666666666667</ele><time>2026-05-01T09:24:55.031Z</time></trkpt><trkpt lat="43.4992036" lon="10.6068221"><ele>384.33333333333337</ele><time>2026-05-01T09:24:57.04Z</time></trkpt><trkpt lat="43.4991827" lon="10.6067275"><ele>385.0</ele><time>2026-05-01T09:24:58.034Z</time></trkpt><trkpt lat="43.4991536" lon="10.6066372"><ele>385.6666666666667</ele><time>2026-05-01T09:24:59.034Z</time></trkpt><trkpt lat="43.499111" lon="10.6065521"><ele>386.3333333333333</ele><time>2026-05-01T09:25:00.029Z</time></trkpt><trkpt lat="43.499052" lon="10.6064704"><ele>387.0</ele><time>2026-05-01T09:25:01.039Z</time></trkpt><trkpt lat="43.4989861" lon="10.6063742"><ele>387.0</ele><time>2026-05-01T09:25:02.035Z</time></trkpt><trkpt lat="43.4989301" lon="10.6062635"><ele>387.0</ele><time>2026-05-01T09:25:03.027Z</time></trkpt><trkpt lat="43.4988929" lon="10.6061391"><ele>387.0</ele><time>2026-05-01T09:25:04.023Z</time></trkpt><trkpt lat="43.4988849" lon="10.6060273"><ele>387.0</ele><time>2026-05-01T09:25:05.041Z</time></trkpt><trkpt lat="43.4988894" lon="10.6059044"><ele>387.0</ele><time>2026-05-01T09:25:06.031Z</time></trkpt><trkpt lat="43.4988848" lon="10.6057717"><ele>387.25</ele><time>2026-05-01T09:25:07.027Z</time></trkpt><trkpt lat="43.4988613" lon="10.6056245"><ele>387.5</ele><time>2026-05-01T09:25:08.028Z</time></trkpt><trkpt lat="43.4988377" lon="10.6054644"><ele>387.75</ele><time>2026-05-01T09:25:09.025Z</time></trkpt><trkpt lat="43.4988042" lon="10.6052836"><ele>388.0</ele><time>2026-05-01T09:25:10.041Z</time></trkpt><trkpt lat="43.4987538" lon="10.6051011"><ele>391.4</ele><time>2026-05-01T09:25:11.032Z</time></trkpt><trkpt lat="43.4987192" lon="10.6049724"><ele>394.79999999999995</ele><time>2026-05-01T09:25:12.025Z</time></trkpt><trkpt lat="43.4986778" lon="10.6048735"><ele>398.2</ele><time>2026-05-01T09:25:13.028Z</time></trkpt><trkpt lat="43.4986097" lon="10.6047796"><ele>401.6</ele><time>2026-05-01T09:25:14.035Z</time></trkpt><trkpt lat="43.4985446" lon="10.6046968"><ele>405.0</ele><time>2026-05-01T09:25:15.029Z</time></trkpt><trkpt lat="43.4984719" lon="10.6046411"><ele>405.0</ele><time>2026-05-01T09:25:16.025Z</time></trkpt><trkpt lat="43.4983756" lon="10.6046028"><ele>405.0</ele><time>2026-05-01T09:25:17.031Z</time></trkpt><trkpt lat="43.4982573" lon="10.6045772"><ele>405.0</ele><time>2026-05-01T09:25:18.034Z</time></trkpt><trkpt lat="43.4981515" lon="10.6045469"><ele>405.0</ele><time>2026-05-01T09:25:19.04Z</time></trkpt><trkpt lat="43.4980554" lon="10.6045031"><ele>405.0</ele><time>2026-05-01T09:25:20.02Z</time></trkpt><trkpt lat="43.497964" lon="10.6044449"><ele>406.5</ele><time>2026-05-01T09:25:21.036Z</time></trkpt><trkpt lat="43.4978841" lon="10.6043845"><ele>408.0</ele><time>2026-05-01T09:25:22.031Z</time></trkpt><trkpt lat="43.4978113" lon="10.6043474"><ele>409.5</ele><time>2026-05-01T09:25:23.028Z</time></trkpt><trkpt lat="43.4977418" lon="10.6043385"><ele>411.0</ele><time>2026-05-01T09:25:24.046Z</time></trkpt><trkpt lat="43.4976688" lon="10.6043461"><ele>412.5</ele><time>2026-05-01T09:25:25.031Z</time></trkpt><trkpt lat="43.497554" lon="10.604255"><ele>414.0</ele><time>2026-05-01T09:25:27.035Z</time></trkpt><trkpt lat="43.4975183" lon="10.6041344"><ele>414.0</ele><time>2026-05-01T09:25:28.031Z</time></trkpt><trkpt lat="43.4974714" lon="10.6039863"><ele>414.0</ele><time>2026-05-01T09:25:29.034Z</time></trkpt><trkpt lat="43.497429" lon="10.6038502"><ele>414.0</ele><time>2026-05-01T09:25:30.035Z</time></trkpt><trkpt lat="43.4973935" lon="10.6037584"><ele>414.0</ele><time>2026-05-01T09:25:31.025Z</time></trkpt><trkpt lat="43.4973629" lon="10.6036702"><ele>414.0</ele><time>2026-05-01T09:25:32.023Z</time></trkpt><trkpt lat="43.4973155" lon="10.6035901"><ele>414.0</ele><time>2026-05-01T09:25:33.032Z</time></trkpt><trkpt lat="43.4972667" lon="10.6035212"><ele>414.79999999999995</ele><time>2026-05-01T09:25:34.041Z</time></trkpt><trkpt lat="43.4972121" lon="10.6034414"><ele>415.59999999999997</ele><time>2026-05-01T09:25:35.029Z</time></trkpt><trkpt lat="43.497184" lon="10.6033194"><ele>416.4</ele><time>2026-05-01T09:25:36.026Z</time></trkpt><trkpt lat="43.4971842" lon="10.6031887"><ele>417.2</ele><time>2026-05-01T09:25:37.037Z</time></trkpt><trkpt lat="43.4971854" lon="10.6030643"><ele>418.0</ele><time>2026-05-01T09:25:38.024Z</time></trkpt><trkpt lat="43.4971639" lon="10.6029404"><ele>418.0</ele><time>2026-05-01T09:25:39.035Z</time></trkpt><trkpt lat="43.4971134" lon="10.6028343"><ele>418.0</ele><time>2026-05-01T09:25:40.027Z</time></trkpt><trkpt lat="43.4970584" lon="10.6027302"><ele>418.0</ele><time>2026-05-01T09:25:41.027Z</time></trkpt><trkpt lat="43.4969953" lon="10.6026097"><ele>418.0</ele><time>2026-05-01T09:25:42.032Z</time></trkpt><trkpt lat="43.4969374" lon="10.6024784"><ele>418.0</ele><time>2026-05-01T09:25:43.034Z</time></trkpt><trkpt lat="43.4968783" lon="10.6023434"><ele>420.79999999999995</ele><time>2026-05-01T09:25:44.037Z</time></trkpt><trkpt lat="43.4968094" lon="10.6022001"><ele>423.6</ele><time>2026-05-01T09:25:45.029Z</time></trkpt><trkpt lat="43.4967462" lon="10.6020629"><ele>426.40000000000003</ele><time>2026-05-01T09:25:46.028Z</time></trkpt><trkpt lat="43.4967133" lon="10.6019348"><ele>429.20000000000005</ele><time>2026-05-01T09:25:47.034Z</time></trkpt><trkpt lat="43.4967073" lon="10.601821"><ele>432.0</ele><time>2026-05-01T09:25:48.028Z</time></trkpt><trkpt lat="43.4967053" lon="10.6017199"><ele>432.0</ele><time>2026-05-01T09:25:49.027Z</time></trkpt><trkpt lat="43.4967049" lon="10.6016174"><ele>432.0</ele><time>2026-05-01T09:25:50.037Z</time></trkpt><trkpt lat="43.4966949" lon="10.6015274"><ele>432.0</ele><time>2026-05-01T09:25:51.034Z</time></trkpt><trkpt lat="43.4965958" lon="10.601413"><ele>432.0</ele><time>2026-05-01T09:25:53.024Z</time></trkpt><trkpt lat="43.4965326" lon="10.6013771"><ele>432.0</ele><time>2026-05-01T09:25:54.037Z</time></trkpt><trkpt lat="43.4964627" lon="10.6013587"><ele>432.0</ele><time>2026-05-01T09:25:55.021Z</time></trkpt><trkpt lat="43.4963851" lon="10.6013426"><ele>432.0</ele><time>2026-05-01T09:25:56.033Z</time></trkpt><trkpt lat="43.4962991" lon="10.6013269"><ele>432.00000000000006</ele><time>2026-05-01T09:25:57.03Z</time></trkpt><trkpt lat="43.4962033" lon="10.6013015"><ele>432.00000000000006</ele><time>2026-05-01T09:25:58.033Z</time></trkpt><trkpt lat="43.496116" lon="10.6012787"><ele>432.0</ele><time>2026-05-01T09:25:59.044Z</time></trkpt><trkpt lat="43.4960302" lon="10.6012595"><ele>432.0</ele><time>2026-05-01T09:26:00.031Z</time></trkpt><trkpt lat="43.4959425" lon="10.6012321"><ele>432.6666666666667</ele><time>2026-05-01T09:26:01.033Z</time></trkpt><trkpt lat="43.4958536" lon="10.6012068"><ele>433.33333333333337</ele><time>2026-05-01T09:26:02.03Z</time></trkpt><trkpt lat="43.4957756" lon="10.6011825"><ele>434.0</ele><time>2026-05-01T09:26:03.024Z</time></trkpt><trkpt lat="43.4956976" lon="10.6011618"><ele>434.6666666666667</ele><time>2026-05-01T09:26:04.033Z</time></trkpt><trkpt lat="43.4956315" lon="10.6011395"><ele>435.33333333333337</ele><time>2026-05-01T09:26:05.043Z</time></trkpt><trkpt lat="43.4955213" lon="10.6010921"><ele>436.0</ele><time>2026-05-01T09:26:07.023Z</time></trkpt><trkpt lat="43.4954539" lon="10.6010575"><ele>437.14285714285717</ele><time>2026-05-01T09:26:08.041Z</time></trkpt><trkpt lat="43.4953847" lon="10.6010291"><ele>438.28571428571433</ele><time>2026-05-01T09:26:09.032Z</time></trkpt><trkpt lat="43.4953133" lon="10.6010015"><ele>439.42857142857144</ele><time>2026-05-01T09:26:10.029Z</time></trkpt><trkpt lat="43.4952473" lon="10.6009721"><ele>440.57142857142856</ele><time>2026-05-01T09:26:11.022Z</time></trkpt><trkpt lat="43.4951839" lon="10.6009424"><ele>441.7142857142857</ele><time>2026-05-01T09:26:12.032Z</time></trkpt><trkpt lat="43.4951149" lon="10.6009183"><ele>442.85714285714283</ele><time>2026-05-01T09:26:13.025Z</time></trkpt><trkpt lat="43.495052" lon="10.6009004"><ele>444.0</ele><time>2026-05-01T09:26:14.027Z</time></trkpt><trkpt lat="43.4949882" lon="10.6008957"><ele>444.0</ele><time>2026-05-01T09:26:15.028Z</time></trkpt><trkpt lat="43.4949252" lon="10.600901"><ele>444.0</ele><time>2026-05-01T09:26:16.028Z</time></trkpt><trkpt lat="43.4948145" lon="10.6009199"><ele>444.0</ele><time>2026-05-01T09:26:18.023Z</time></trkpt><trkpt lat="43.4947073" lon="10.6009592"><ele>444.0</ele><time>2026-05-01T09:26:20.039Z</time></trkpt><trkpt lat="43.4946476" lon="10.6009954"><ele>444.0</ele><time>2026-05-01T09:26:21.042Z</time></trkpt><trkpt lat="43.4945864" lon="10.6010331"><ele>444.0</ele><time>2026-05-01T09:26:22.027Z</time></trkpt><trkpt lat="43.4944899" lon="10.6011353"><ele>445.79999999999995</ele><time>2026-05-01T09:26:24.037Z</time></trkpt><trkpt lat="43.4943994" lon="10.60121"><ele>447.59999999999997</ele><time>2026-05-01T09:26:26.033Z</time></trkpt><trkpt lat="43.4943076" lon="10.6011972"><ele>449.4</ele><time>2026-05-01T09:26:28.027Z</time></trkpt><trkpt lat="43.4942141" lon="10.6011141"><ele>451.2</ele><time>2026-05-01T09:26:30.04Z</time></trkpt><trkpt lat="43.4941162" lon="10.6010135"><ele>453.0</ele><time>2026-05-01T09:26:32.031Z</time></trkpt><trkpt lat="43.4940151" lon="10.6009105"><ele>452.99999999999994</ele><time>2026-05-01T09:26:34.033Z</time></trkpt><trkpt lat="43.4939575" lon="10.6008617"><ele>453.0</ele><time>2026-05-01T09:26:35.027Z</time></trkpt><trkpt lat="43.4938997" lon="10.6008172"><ele>452.99999999999994</ele><time>2026-05-01T09:26:36.046Z</time></trkpt><trkpt lat="43.493843" lon="10.6007769"><ele>452.99999999999994</ele><time>2026-05-01T09:26:37.027Z</time></trkpt><trkpt lat="43.4937802" lon="10.6007444"><ele>453.0</ele><time>2026-05-01T09:26:38.035Z</time></trkpt><trkpt lat="43.4937231" lon="10.6006973"><ele>452.99999999999994</ele><time>2026-05-01T09:26:39.03Z</time></trkpt><trkpt lat="43.4936664" lon="10.6006468"><ele>452.99999999999994</ele><time>2026-05-01T09:26:40.033Z</time></trkpt><trkpt lat="43.493608" lon="10.6005993"><ele>455.4</ele><time>2026-05-01T09:26:41.03Z</time></trkpt><trkpt lat="43.4934968" lon="10.6005297"><ele>457.79999999999995</ele><time>2026-05-01T09:26:43.036Z</time></trkpt><trkpt lat="43.4933874" lon="10.6005038"><ele>460.2</ele><time>2026-05-01T09:26:45.035Z</time></trkpt><trkpt lat="43.4932624" lon="10.6005077"><ele>462.6</ele><time>2026-05-01T09:26:47.031Z</time></trkpt><trkpt lat="43.4931854" lon="10.6005162"><ele>465.0</ele><time>2026-05-01T09:26:48.034Z</time></trkpt><trkpt lat="43.4931085" lon="10.6005348"><ele>465.0</ele><time>2026-05-01T09:26:49.034Z</time></trkpt><trkpt lat="43.4930219" lon="10.6005544"><ele>465.0</ele><time>2026-05-01T09:26:50.032Z</time></trkpt><trkpt lat="43.4929312" lon="10.6005799"><ele>465.0</ele><time>2026-05-01T09:26:51.027Z</time></trkpt><trkpt lat="43.4928572" lon="10.600592"><ele>465.0</ele><time>2026-05-01T09:26:52.031Z</time></trkpt><trkpt lat="43.4927792" lon="10.6005889"><ele>465.0</ele><time>2026-05-01T09:26:53.03Z</time></trkpt><trkpt lat="43.4927098" lon="10.6005644"><ele>465.0</ele><time>2026-05-01T09:26:54.034Z</time></trkpt><trkpt lat="43.4926262" lon="10.6005011"><ele>464.6</ele><time>2026-05-01T09:26:56.029Z</time></trkpt><trkpt lat="43.4925545" lon="10.6004252"><ele>464.2</ele><time>2026-05-01T09:26:58.025Z</time></trkpt><trkpt lat="43.4924698" lon="10.6002822"><ele>463.79999999999995</ele><time>2026-05-01T09:27:00.03Z</time></trkpt><trkpt lat="43.4924254" lon="10.600186"><ele>463.4</ele><time>2026-05-01T09:27:01.037Z</time></trkpt><trkpt lat="43.492368" lon="10.6001051"><ele>463.0</ele><time>2026-05-01T09:27:02.031Z</time></trkpt><trkpt lat="43.4923" lon="10.6000453"><ele>462.83333333333337</ele><time>2026-05-01T09:27:03.024Z</time></trkpt><trkpt lat="43.4922301" lon="10.5999835"><ele>462.6666666666667</ele><time>2026-05-01T09:27:04.037Z</time></trkpt><trkpt lat="43.4921587" lon="10.5999276"><ele>462.5</ele><time>2026-05-01T09:27:05.04Z</time></trkpt><trkpt lat="43.4920839" lon="10.5998598"><ele>462.33333333333337</ele><time>2026-05-01T09:27:06.028Z</time></trkpt><trkpt lat="43.4920312" lon="10.599778"><ele>462.1666666666667</ele><time>2026-05-01T09:27:07.04Z</time></trkpt><trkpt lat="43.4919988" lon="10.5996742"><ele>462.0</ele><time>2026-05-01T09:27:08.031Z</time></trkpt><trkpt lat="43.4919928" lon="10.5995532"><ele>463.20000000000005</ele><time>2026-05-01T09:27:09.027Z</time></trkpt><trkpt lat="43.4919972" lon="10.5994208"><ele>464.40000000000003</ele><time>2026-05-01T09:27:10.03Z</time></trkpt><trkpt lat="43.4919984" lon="10.5992838"><ele>465.59999999999997</ele><time>2026-05-01T09:27:11.026Z</time></trkpt><trkpt lat="43.4920022" lon="10.5991473"><ele>466.79999999999995</ele><time>2026-05-01T09:27:12.028Z</time></trkpt><trkpt lat="43.4919972" lon="10.5990039"><ele>468.0</ele><time>2026-05-01T09:27:13.032Z</time></trkpt><trkpt lat="43.4920049" lon="10.5988467"><ele>468.0</ele><time>2026-05-01T09:27:14.025Z</time></trkpt><trkpt lat="43.4920167" lon="10.5986748"><ele>468.0</ele><time>2026-05-01T09:27:15.033Z</time></trkpt><trkpt lat="43.4920366" lon="10.5985188"><ele>468.0</ele><time>2026-05-01T09:27:16.037Z</time></trkpt><trkpt lat="43.4920532" lon="10.5983761"><ele>468.0</ele><time>2026-05-01T09:27:17.039Z</time></trkpt><trkpt lat="43.4920683" lon="10.598231"><ele>469.5</ele><time>2026-05-01T09:27:18.034Z</time></trkpt><trkpt lat="43.492075" lon="10.5980927"><ele>471.0</ele><time>2026-05-01T09:27:19.035Z</time></trkpt><trkpt lat="43.4920707" lon="10.5979609"><ele>472.5</ele><time>2026-05-01T09:27:20.035Z</time></trkpt><trkpt lat="43.4920419" lon="10.5978083"><ele>474.0</ele><time>2026-05-01T09:27:21.043Z</time></trkpt><trkpt lat="43.4920151" lon="10.5976168"><ele>476.25</ele><time>2026-05-01T09:27:22.036Z</time></trkpt><trkpt lat="43.4919945" lon="10.5974308"><ele>478.5</ele><time>2026-05-01T09:27:23.044Z</time></trkpt><trkpt lat="43.4919626" lon="10.5972548"><ele>480.75</ele><time>2026-05-01T09:27:24.045Z</time></trkpt><trkpt lat="43.4919249" lon="10.5971125"><ele>483.0</ele><time>2026-05-01T09:27:25.028Z</time></trkpt><trkpt lat="43.4919232" lon="10.5969927"><ele>483.5</ele><time>2026-05-01T09:27:26.04Z</time></trkpt><trkpt lat="43.4919208" lon="10.5969052"><ele>484.0</ele><time>2026-05-01T09:27:27.03Z</time></trkpt><trkpt lat="43.4918776" lon="10.5967835"><ele>484.5</ele><time>2026-05-01T09:27:29.04Z</time></trkpt><trkpt lat="43.4917926" lon="10.5966901"><ele>485.0</ele><time>2026-05-01T09:27:31.035Z</time></trkpt><trkpt lat="43.4917294" lon="10.5966442"><ele>485.5</ele><time>2026-05-01T09:27:32.039Z</time></trkpt><trkpt lat="43.4916616" lon="10.5965943"><ele>486.0</ele><time>2026-05-01T09:27:33.038Z</time></trkpt><trkpt lat="43.4915933" lon="10.5965461"><ele>486.0</ele><time>2026-05-01T09:27:34.039Z</time></trkpt><trkpt lat="43.4915285" lon="10.5965005"><ele>486.0</ele><time>2026-05-01T09:27:35.035Z</time></trkpt><trkpt lat="43.4914647" lon="10.5964491"><ele>486.0</ele><time>2026-05-01T09:27:36.044Z</time></trkpt><trkpt lat="43.491401" lon="10.5964063"><ele>486.0</ele><time>2026-05-01T09:27:37.039Z</time></trkpt><trkpt lat="43.4913274" lon="10.5963795"><ele>486.0</ele><time>2026-05-01T09:27:38.035Z</time></trkpt><trkpt lat="43.4912526" lon="10.5963628"><ele>486.0</ele><time>2026-05-01T09:27:39.026Z</time></trkpt><trkpt lat="43.4911778" lon="10.5963566"><ele>486.0</ele><time>2026-05-01T09:27:40.03Z</time></trkpt><trkpt lat="43.4911001" lon="10.5963564"><ele>486.6666666666667</ele><time>2026-05-01T09:27:41.029Z</time></trkpt><trkpt lat="43.4910243" lon="10.5963558"><ele>487.33333333333337</ele><time>2026-05-01T09:27:42.029Z</time></trkpt><trkpt lat="43.4909509" lon="10.5963572"><ele>488.0</ele><time>2026-05-01T09:27:43.027Z</time></trkpt><trkpt lat="43.4908724" lon="10.5963579"><ele>488.6666666666667</ele><time>2026-05-01T09:27:44.03Z</time></trkpt><trkpt lat="43.4907924" lon="10.5963579"><ele>489.33333333333337</ele><time>2026-05-01T09:27:45.028Z</time></trkpt><trkpt lat="43.4907252" lon="10.5963576"><ele>490.0</ele><time>2026-05-01T09:27:46.03Z</time></trkpt><trkpt lat="43.4906435" lon="10.596303"><ele>490.00000000000006</ele><time>2026-05-01T09:27:48.038Z</time></trkpt><trkpt lat="43.490679" lon="10.5961876"><ele>490.0</ele><time>2026-05-01T09:27:51.038Z</time></trkpt><trkpt lat="43.4907227" lon="10.5960705"><ele>490.0</ele><time>2026-05-01T09:27:53.032Z</time></trkpt><trkpt lat="43.4907771" lon="10.5959931"><ele>490.0</ele><time>2026-05-01T09:27:55.032Z</time></trkpt><trkpt lat="43.4908624" lon="10.5959967"><ele>490.00000000000006</ele><time>2026-05-01T09:27:58.016Z</time></trkpt><trkpt lat="43.4908559" lon="10.5960956"><ele>490.0</ele><time>2026-05-01T09:28:32.037Z</time></trkpt><trkpt lat="43.490941" lon="10.5961364"><ele>490.00000000000006</ele><time>2026-05-01T09:28:52.043Z</time></trkpt><trkpt lat="43.4909918" lon="10.5961894"><ele>490.0</ele><time>2026-05-01T09:28:56.038Z</time></trkpt><trkpt lat="43.4909139" lon="10.5962364"><ele>490.0</ele><time>2026-05-01T09:44:43.03Z</time></trkpt><trkpt lat="43.4908285" lon="10.5962683"><ele>490.0</ele><time>2026-05-01T09:44:45.025Z</time></trkpt><trkpt lat="43.4907547" lon="10.5963207"><ele>490.00000000000006</ele><time>2026-05-01T09:44:47.034Z</time></trkpt><trkpt lat="43.4906384" lon="10.5963419"><ele>490.0</ele><time>2026-05-01T09:44:49.037Z</time></trkpt><trkpt lat="43.4905685" lon="10.5963229"><ele>490.0</ele><time>2026-05-01T09:44:50.025Z</time></trkpt><trkpt lat="43.4904991" lon="10.5962989"><ele>490.0</ele><time>2026-05-01T09:44:52.03Z</time></trkpt><trkpt lat="43.4904198" lon="10.5963333"><ele>490.0</ele><time>2026-05-01T09:45:12.032Z</time></trkpt><trkpt lat="43.490318" lon="10.596384"><ele>490.0</ele><time>2026-05-01T09:45:14.03Z</time></trkpt><trkpt lat="43.4902028" lon="10.5964434"><ele>490.0</ele><time>2026-05-01T09:45:16.041Z</time></trkpt><trkpt lat="43.4901394" lon="10.5964885"><ele>490.33333333333337</ele><time>2026-05-01T09:45:17.04Z</time></trkpt><trkpt lat="43.4900664" lon="10.5965313"><ele>490.6666666666667</ele><time>2026-05-01T09:45:18.033Z</time></trkpt><trkpt lat="43.4899882" lon="10.5965621"><ele>491.0</ele><time>2026-05-01T09:45:19.03Z</time></trkpt><trkpt lat="43.4899114" lon="10.5965727"><ele>491.33333333333337</ele><time>2026-05-01T09:45:20.033Z</time></trkpt><trkpt lat="43.4898245" lon="10.5965643"><ele>491.6666666666667</ele><time>2026-05-01T09:45:22.027Z</time></trkpt><trkpt lat="43.4897566" lon="10.5965637"><ele>492.0</ele><time>2026-05-01T09:45:44.031Z</time></trkpt><trkpt lat="43.4896707" lon="10.5965484"><ele>492.0</ele><time>2026-05-01T09:45:45.031Z</time></trkpt><trkpt lat="43.4895728" lon="10.5965355"><ele>492.00000000000006</ele><time>2026-05-01T09:45:46.031Z</time></trkpt><trkpt lat="43.4894798" lon="10.5965109"><ele>492.00000000000006</ele><time>2026-05-01T09:45:47.03Z</time></trkpt><trkpt lat="43.4893906" lon="10.5964822"><ele>492.0</ele><time>2026-05-01T09:45:48.033Z</time></trkpt><trkpt lat="43.4892952" lon="10.5964314"><ele>492.0</ele><time>2026-05-01T09:45:49.043Z</time></trkpt><trkpt lat="43.4892066" lon="10.5963886"><ele>492.0</ele><time>2026-05-01T09:45:50.025Z</time></trkpt><trkpt lat="43.4891212" lon="10.5963665"><ele>492.0</ele><time>2026-05-01T09:45:51.032Z</time></trkpt><trkpt lat="43.4890483" lon="10.5963676"><ele>492.0</ele><time>2026-05-01T09:45:52.03Z</time></trkpt><trkpt lat="43.4889718" lon="10.5963979"><ele>492.0</ele><time>2026-05-01T09:45:53.034Z</time></trkpt><trkpt lat="43.4889004" lon="10.5964431"><ele>492.0</ele><time>2026-05-01T09:45:54.019Z</time></trkpt><trkpt lat="43.4888345" lon="10.5965173"><ele>492.0</ele><time>2026-05-01T09:45:55.072Z</time></trkpt><trkpt lat="43.4887674" lon="10.5966059"><ele>492.6</ele><time>2026-05-01T09:45:56.02Z</time></trkpt><trkpt lat="43.4887059" lon="10.5967123"><ele>493.20000000000005</ele><time>2026-05-01T09:45:57.027Z</time></trkpt><trkpt lat="43.4886472" lon="10.5968344"><ele>493.8</ele><time>2026-05-01T09:45:58.029Z</time></trkpt><trkpt lat="43.488586" lon="10.5969586"><ele>494.4</ele><time>2026-05-01T09:45:59.029Z</time></trkpt><trkpt lat="43.4885336" lon="10.5970854"><ele>495.0</ele><time>2026-05-01T09:46:00.03Z</time></trkpt><trkpt lat="43.488492" lon="10.5972022"><ele>495.0</ele><time>2026-05-01T09:46:01.023Z</time></trkpt><trkpt lat="43.4884485" lon="10.5973149"><ele>495.0</ele><time>2026-05-01T09:46:02.035Z</time></trkpt><trkpt lat="43.4883945" lon="10.5974202"><ele>495.0</ele><time>2026-05-01T09:46:03.041Z</time></trkpt><trkpt lat="43.4883326" lon="10.5975144"><ele>495.0</ele><time>2026-05-01T09:46:04.042Z</time></trkpt><trkpt lat="43.4882622" lon="10.5976171"><ele>495.0</ele><time>2026-05-01T09:46:05.027Z</time></trkpt><trkpt lat="43.4881736" lon="10.5977234"><ele>495.0</ele><time>2026-05-01T09:46:06.026Z</time></trkpt><trkpt lat="43.4880906" lon="10.5978287"><ele>495.0</ele><time>2026-05-01T09:46:07.026Z</time></trkpt><trkpt lat="43.4880085" lon="10.5979376"><ele>495.0</ele><time>2026-05-01T09:46:08.038Z</time></trkpt><trkpt lat="43.4879323" lon="10.5980582"><ele>495.0</ele><time>2026-05-01T09:46:09.022Z</time></trkpt><trkpt lat="43.4878619" lon="10.598194"><ele>494.75</ele><time>2026-05-01T09:46:10.022Z</time></trkpt><trkpt lat="43.4878092" lon="10.5983502"><ele>494.5</ele><time>2026-05-01T09:46:11.032Z</time></trkpt><trkpt lat="43.4877631" lon="10.598506"><ele>494.25</ele><time>2026-05-01T09:46:12.038Z</time></trkpt><trkpt lat="43.4877142" lon="10.598657"><ele>494.0</ele><time>2026-05-01T09:46:13.037Z</time></trkpt><trkpt lat="43.487657" lon="10.5987956"><ele>494.0</ele><time>2026-05-01T09:46:14.029Z</time></trkpt><trkpt lat="43.4875818" lon="10.5989058"><ele>494.0</ele><time>2026-05-01T09:46:15.025Z</time></trkpt><trkpt lat="43.4875085" lon="10.5990124"><ele>494.0</ele><time>2026-05-01T09:46:16.042Z</time></trkpt><trkpt lat="43.4874354" lon="10.5991231"><ele>494.0</ele><time>2026-05-01T09:46:17.031Z</time></trkpt><trkpt lat="43.4873607" lon="10.599241"><ele>494.0</ele><time>2026-05-01T09:46:18.023Z</time></trkpt><trkpt lat="43.4872822" lon="10.5993596"><ele>494.0</ele><time>2026-05-01T09:46:19.032Z</time></trkpt><trkpt lat="43.4871932" lon="10.599467"><ele>494.0</ele><time>2026-05-01T09:46:20.035Z</time></trkpt><trkpt lat="43.4870997" lon="10.5995702"><ele>494.0</ele><time>2026-05-01T09:46:21.028Z</time></trkpt><trkpt lat="43.4869998" lon="10.5996501"><ele>494.0</ele><time>2026-05-01T09:46:22.034Z</time></trkpt><trkpt lat="43.4868961" lon="10.5997132"><ele>496.0</ele><time>2026-05-01T09:46:23.03Z</time></trkpt><trkpt lat="43.4867891" lon="10.5997497"><ele>498.0</ele><time>2026-05-01T09:46:24.03Z</time></trkpt><trkpt lat="43.4866745" lon="10.5997539"><ele>500.0</ele><time>2026-05-01T09:46:25.032Z</time></trkpt><trkpt lat="43.4865315" lon="10.5997206"><ele>502.0</ele><time>2026-05-01T09:46:26.025Z</time></trkpt><trkpt lat="43.4863888" lon="10.5996884"><ele>503.6666666666667</ele><time>2026-05-01T09:46:27.027Z</time></trkpt><trkpt lat="43.4862314" lon="10.5996501"><ele>505.33333333333337</ele><time>2026-05-01T09:46:28.029Z</time></trkpt><trkpt lat="43.4860674" lon="10.5996289"><ele>507.0</ele><time>2026-05-01T09:46:29.028Z</time></trkpt><trkpt lat="43.4859029" lon="10.5996248"><ele>507.0</ele><time>2026-05-01T09:46:30.032Z</time></trkpt><trkpt lat="43.4857677" lon="10.5996363"><ele>507.00000000000006</ele><time>2026-05-01T09:46:31.02Z</time></trkpt><trkpt lat="43.4856584" lon="10.5996774"><ele>507.00000000000006</ele><time>2026-05-01T09:46:32.038Z</time></trkpt><trkpt lat="43.4855662" lon="10.5997417"><ele>507.0</ele><time>2026-05-01T09:46:33.026Z</time></trkpt><trkpt lat="43.4854929" lon="10.5997946"><ele>507.0</ele><time>2026-05-01T09:46:34.038Z</time></trkpt><trkpt lat="43.4854273" lon="10.5998428"><ele>506.6</ele><time>2026-05-01T09:46:35.036Z</time></trkpt><trkpt lat="43.4853556" lon="10.5998805"><ele>506.20000000000005</ele><time>2026-05-01T09:46:36.04Z</time></trkpt><trkpt lat="43.4852756" lon="10.5999138"><ele>505.8</ele><time>2026-05-01T09:46:37.038Z</time></trkpt><trkpt lat="43.4851859" lon="10.5999394"><ele>505.4</ele><time>2026-05-01T09:46:38.023Z</time></trkpt><trkpt lat="43.4850658" lon="10.599975"><ele>505.0</ele><time>2026-05-01T09:46:39.021Z</time></trkpt><trkpt lat="43.4849345" lon="10.600005"><ele>505.0</ele><time>2026-05-01T09:46:40.031Z</time></trkpt><trkpt lat="43.4848001" lon="10.6000281"><ele>505.0</ele><time>2026-05-01T09:46:41.02Z</time></trkpt><trkpt lat="43.4846668" lon="10.6000278"><ele>505.0</ele><time>2026-05-01T09:46:42.033Z</time></trkpt><trkpt lat="43.4845384" lon="10.6000345"><ele>505.0</ele><time>2026-05-01T09:46:43.041Z</time></trkpt><trkpt lat="43.4844111" lon="10.6000479"><ele>504.5</ele><time>2026-05-01T09:46:44.027Z</time></trkpt><trkpt lat="43.4842979" lon="10.600064"><ele>504.0</ele><time>2026-05-01T09:46:45.04Z</time></trkpt><trkpt lat="43.4841857" lon="10.6000878"><ele>503.5</ele><time>2026-05-01T09:46:46.025Z</time></trkpt><trkpt lat="43.4840661" lon="10.6001055"><ele>503.0</ele><time>2026-05-01T09:46:47.034Z</time></trkpt><trkpt lat="43.4839461" lon="10.6001057"><ele>503.0</ele><time>2026-05-01T09:46:48.031Z</time></trkpt><trkpt lat="43.4838355" lon="10.6000946"><ele>502.99999999999994</ele><time>2026-05-01T09:46:49.039Z</time></trkpt><trkpt lat="43.4837322" lon="10.6000856"><ele>502.99999999999994</ele><time>2026-05-01T09:46:50.039Z</time></trkpt><trkpt lat="43.4836332" lon="10.6000676"><ele>503.0</ele><time>2026-05-01T09:46:51.027Z</time></trkpt><trkpt lat="43.4835353" lon="10.6000271"><ele>503.0</ele><time>2026-05-01T09:46:52.036Z</time></trkpt><trkpt lat="43.4834317" lon="10.5999796"><ele>501.79999999999995</ele><time>2026-05-01T09:46:53.057Z</time></trkpt><trkpt lat="43.4833314" lon="10.5999271"><ele>500.59999999999997</ele><time>2026-05-01T09:46:54.037Z</time></trkpt><trkpt lat="43.4832249" lon="10.5998728"><ele>499.40000000000003</ele><time>2026-05-01T09:46:55.034Z</time></trkpt><trkpt lat="43.4831168" lon="10.5998215"><ele>498.20000000000005</ele><time>2026-05-01T09:46:56.047Z</time></trkpt><trkpt lat="43.48302" lon="10.5997691"><ele>497.0</ele><time>2026-05-01T09:46:57.028Z</time></trkpt><trkpt lat="43.4829197" lon="10.5997097"><ele>496.75</ele><time>2026-05-01T09:46:58.042Z</time></trkpt><trkpt lat="43.4828104" lon="10.5996434"><ele>496.5</ele><time>2026-05-01T09:46:59.049Z</time></trkpt><trkpt lat="43.4826967" lon="10.5995679"><ele>496.25</ele><time>2026-05-01T09:47:00.03Z</time></trkpt><trkpt lat="43.4825797" lon="10.5994988"><ele>496.0</ele><time>2026-05-01T09:47:01.037Z</time></trkpt><trkpt lat="43.4824609" lon="10.5994357"><ele>496.0</ele><time>2026-05-01T09:47:02.032Z</time></trkpt><trkpt lat="43.4823458" lon="10.5993813"><ele>496.0</ele><time>2026-05-01T09:47:03.034Z</time></trkpt><trkpt lat="43.4822227" lon="10.5993462"><ele>496.0</ele><time>2026-05-01T09:47:04.036Z</time></trkpt><trkpt lat="43.4820995" lon="10.5993381"><ele>496.0</ele><time>2026-05-01T09:47:05.026Z</time></trkpt><trkpt lat="43.4819768" lon="10.5993458"><ele>500.0</ele><time>2026-05-01T09:47:06.023Z</time></trkpt><trkpt lat="43.4818515" lon="10.5993569"><ele>504.0</ele><time>2026-05-01T09:47:07.036Z</time></trkpt><trkpt lat="43.4817232" lon="10.5993677"><ele>508.0</ele><time>2026-05-01T09:47:08.03Z</time></trkpt><trkpt lat="43.4815869" lon="10.5993759"><ele>512.0</ele><time>2026-05-01T09:47:09.041Z</time></trkpt><trkpt lat="43.4814492" lon="10.599388"><ele>512.0</ele><time>2026-05-01T09:47:10.035Z</time></trkpt><trkpt lat="43.4813125" lon="10.5994146"><ele>512.0</ele><time>2026-05-01T09:47:11.035Z</time></trkpt><trkpt lat="43.4811892" lon="10.5994588"><ele>512.0</ele><time>2026-05-01T09:47:12.023Z</time></trkpt><trkpt lat="43.4810709" lon="10.5994937"><ele>512.0</ele><time>2026-05-01T09:47:13.021Z</time></trkpt><trkpt lat="43.4809554" lon="10.5995283"><ele>515.5</ele><time>2026-05-01T09:47:14.035Z</time></trkpt><trkpt lat="43.4808493" lon="10.5995553"><ele>519.0</ele><time>2026-05-01T09:47:15.038Z</time></trkpt><trkpt lat="43.4807361" lon="10.5995893"><ele>522.5</ele><time>2026-05-01T09:47:16.022Z</time></trkpt><trkpt lat="43.4806207" lon="10.5996174"><ele>526.0</ele><time>2026-05-01T09:47:17.026Z</time></trkpt><trkpt lat="43.4805066" lon="10.5996683"><ele>526.8</ele><time>2026-05-01T09:47:18.031Z</time></trkpt><trkpt lat="43.4804099" lon="10.5997324"><ele>527.6</ele><time>2026-05-01T09:47:19.028Z</time></trkpt><trkpt lat="43.480313" lon="10.5998091"><ele>528.4</ele><time>2026-05-01T09:47:20.016Z</time></trkpt><trkpt lat="43.4802272" lon="10.5999014"><ele>529.2</ele><time>2026-05-01T09:47:21.018Z</time></trkpt><trkpt lat="43.4801453" lon="10.600013"><ele>530.0</ele><time>2026-05-01T09:47:22.03Z</time></trkpt><trkpt lat="43.4800795" lon="10.6001382"><ele>530.0</ele><time>2026-05-01T09:47:23.043Z</time></trkpt><trkpt lat="43.4800328" lon="10.6002645"><ele>530.0</ele><time>2026-05-01T09:47:24.037Z</time></trkpt><trkpt lat="43.4800085" lon="10.6004007"><ele>530.0</ele><time>2026-05-01T09:47:25.033Z</time></trkpt><trkpt lat="43.4800007" lon="10.6005477"><ele>530.0</ele><time>2026-05-01T09:47:26.03Z</time></trkpt><trkpt lat="43.4799937" lon="10.6006997"><ele>530.0</ele><time>2026-05-01T09:47:27.024Z</time></trkpt><trkpt lat="43.4799665" lon="10.6008455"><ele>529.4</ele><time>2026-05-01T09:47:28.035Z</time></trkpt><trkpt lat="43.4799147" lon="10.600966"><ele>528.8</ele><time>2026-05-01T09:47:29.024Z</time></trkpt><trkpt lat="43.4798511" lon="10.601056"><ele>528.2</ele><time>2026-05-01T09:47:30.035Z</time></trkpt><trkpt lat="43.4797673" lon="10.6011318"><ele>527.6</ele><time>2026-05-01T09:47:31.035Z</time></trkpt><trkpt lat="43.4796749" lon="10.6012051"><ele>527.0</ele><time>2026-05-01T09:47:32.034Z</time></trkpt><trkpt lat="43.4795858" lon="10.6012932"><ele>530.2</ele><time>2026-05-01T09:47:33.033Z</time></trkpt><trkpt lat="43.4795085" lon="10.6013886"><ele>533.4000000000001</ele><time>2026-05-01T09:47:34.03Z</time></trkpt><trkpt lat="43.4794337" lon="10.6014868"><ele>536.5999999999999</ele><time>2026-05-01T09:47:35.038Z</time></trkpt><trkpt lat="43.4793729" lon="10.6015849"><ele>539.8</ele><time>2026-05-01T09:47:36.029Z</time></trkpt><trkpt lat="43.4793213" lon="10.6016557"><ele>543.0</ele><time>2026-05-01T09:47:37.02Z</time></trkpt><trkpt lat="43.4792536" lon="10.6017083"><ele>543.0</ele><time>2026-05-01T09:47:38.035Z</time></trkpt><trkpt lat="43.4791719" lon="10.6017231"><ele>543.0</ele><time>2026-05-01T09:47:39.028Z</time></trkpt><trkpt lat="43.4790847" lon="10.6017281"><ele>543.0</ele><time>2026-05-01T09:47:40.015Z</time></trkpt><trkpt lat="43.4790066" lon="10.6016967"><ele>543.0</ele><time>2026-05-01T09:47:41.024Z</time></trkpt><trkpt lat="43.4789437" lon="10.6016338"><ele>543.0</ele><time>2026-05-01T09:47:42.028Z</time></trkpt><trkpt lat="43.4788691" lon="10.6015506"><ele>543.0</ele><time>2026-05-01T09:47:43.033Z</time></trkpt><trkpt lat="43.4788107" lon="10.6014569"><ele>543.0</ele><time>2026-05-01T09:47:44.023Z</time></trkpt><trkpt lat="43.4787729" lon="10.6013668"><ele>543.0</ele><time>2026-05-01T09:47:45.029Z</time></trkpt><trkpt lat="43.4787502" lon="10.6012662"><ele>543.0</ele><time>2026-05-01T09:47:46.036Z</time></trkpt><trkpt lat="43.4787362" lon="10.6011409"><ele>543.0</ele><time>2026-05-01T09:47:47.023Z</time></trkpt><trkpt lat="43.4787243" lon="10.6010063"><ele>543.0</ele><time>2026-05-01T09:47:48.028Z</time></trkpt><trkpt lat="43.478708" lon="10.6008575"><ele>542.5</ele><time>2026-05-01T09:47:49.033Z</time></trkpt><trkpt lat="43.4787101" lon="10.6007023"><ele>542.0</ele><time>2026-05-01T09:47:50.025Z</time></trkpt><trkpt lat="43.4787127" lon="10.6005402"><ele>541.5</ele><time>2026-05-01T09:47:51.033Z</time></trkpt><trkpt lat="43.4787322" lon="10.6003676"><ele>541.0</ele><time>2026-05-01T09:47:52.029Z</time></trkpt><trkpt lat="43.4787622" lon="10.6001894"><ele>541.6</ele><time>2026-05-01T09:47:53.045Z</time></trkpt><trkpt lat="43.4787886" lon="10.6000154"><ele>542.2</ele><time>2026-05-01T09:47:54.028Z</time></trkpt><trkpt lat="43.4788164" lon="10.5998538"><ele>542.8</ele><time>2026-05-01T09:47:55.027Z</time></trkpt><trkpt lat="43.4788448" lon="10.5997232"><ele>543.4</ele><time>2026-05-01T09:47:56.027Z</time></trkpt><trkpt lat="43.4788629" lon="10.5996089"><ele>544.0</ele><time>2026-05-01T09:47:57.023Z</time></trkpt><trkpt lat="43.478871" lon="10.5994987"><ele>542.3333333333334</ele><time>2026-05-01T09:47:58.04Z</time></trkpt><trkpt lat="43.4788684" lon="10.5993895"><ele>540.6666666666667</ele><time>2026-05-01T09:47:59.033Z</time></trkpt><trkpt lat="43.4788638" lon="10.5992768"><ele>539.0</ele><time>2026-05-01T09:48:00.041Z</time></trkpt><trkpt lat="43.4788579" lon="10.5991539"><ele>537.3333333333334</ele><time>2026-05-01T09:48:01.035Z</time></trkpt><trkpt lat="43.4788508" lon="10.5990324"><ele>535.6666666666666</ele><time>2026-05-01T09:48:02.036Z</time></trkpt><trkpt lat="43.4788414" lon="10.5989078"><ele>534.0</ele><time>2026-05-01T09:48:03.028Z</time></trkpt><trkpt lat="43.4788295" lon="10.5987857"><ele>534.0</ele><time>2026-05-01T09:48:04.029Z</time></trkpt><trkpt lat="43.4788108" lon="10.5986594"><ele>534.0</ele><time>2026-05-01T09:48:05.03Z</time></trkpt><trkpt lat="43.4787865" lon="10.5985399"><ele>534.0</ele><time>2026-05-01T09:48:06.035Z</time></trkpt><trkpt lat="43.4787507" lon="10.5984142"><ele>534.0</ele><time>2026-05-01T09:48:07.036Z</time></trkpt><trkpt lat="43.478702" lon="10.5982774"><ele>534.0</ele><time>2026-05-01T09:48:08.038Z</time></trkpt><trkpt lat="43.4786558" lon="10.5981232"><ele>534.0</ele><time>2026-05-01T09:48:09.028Z</time></trkpt><trkpt lat="43.4786053" lon="10.5979506"><ele>534.0</ele><time>2026-05-01T09:48:10.039Z</time></trkpt><trkpt lat="43.478552" lon="10.5977672"><ele>534.0</ele><time>2026-05-01T09:48:11.028Z</time></trkpt><trkpt lat="43.4784883" lon="10.59759"><ele>534.0</ele><time>2026-05-01T09:48:12.023Z</time></trkpt><trkpt lat="43.4784163" lon="10.5974412"><ele>532.6</ele><time>2026-05-01T09:48:13.033Z</time></trkpt><trkpt lat="43.4783288" lon="10.5973171"><ele>531.2</ele><time>2026-05-01T09:48:14.035Z</time></trkpt><trkpt lat="43.4782431" lon="10.5972156"><ele>529.8000000000001</ele><time>2026-05-01T09:48:15.039Z</time></trkpt><trkpt lat="43.4781616" lon="10.597126"><ele>528.4</ele><time>2026-05-01T09:48:16.032Z</time></trkpt><trkpt lat="43.478084" lon="10.5970535"><ele>527.0</ele><time>2026-05-01T09:48:17.041Z</time></trkpt><trkpt lat="43.4780094" lon="10.5969684"><ele>527.0</ele><time>2026-05-01T09:48:18.026Z</time></trkpt><trkpt lat="43.4779399" lon="10.5968527"><ele>527.0</ele><time>2026-05-01T09:48:19.044Z</time></trkpt><trkpt lat="43.4778789" lon="10.5967228"><ele>527.0</ele><time>2026-05-01T09:48:20.034Z</time></trkpt><trkpt lat="43.4778112" lon="10.5965696"><ele>527.0</ele><time>2026-05-01T09:48:21.042Z</time></trkpt><trkpt lat="43.4777375" lon="10.5964054"><ele>525.5</ele><time>2026-05-01T09:48:22.034Z</time></trkpt><trkpt lat="43.4776693" lon="10.5962402"><ele>524.0</ele><time>2026-05-01T09:48:23.028Z</time></trkpt><trkpt lat="43.4776042" lon="10.5960836"><ele>522.5</ele><time>2026-05-01T09:48:24.036Z</time></trkpt><trkpt lat="43.4775534" lon="10.595943"><ele>521.0</ele><time>2026-05-01T09:48:25.034Z</time></trkpt><trkpt lat="43.4775256" lon="10.5958031"><ele>521.0</ele><time>2026-05-01T09:48:26.029Z</time></trkpt><trkpt lat="43.4775148" lon="10.5956583"><ele>521.0</ele><time>2026-05-01T09:48:27.034Z</time></trkpt><trkpt lat="43.4775138" lon="10.5955105"><ele>521.0</ele><time>2026-05-01T09:48:28.031Z</time></trkpt><trkpt lat="43.4775107" lon="10.5953635"><ele>521.0</ele><time>2026-05-01T09:48:29.029Z</time></trkpt><trkpt lat="43.4775119" lon="10.5952095"><ele>521.0</ele><time>2026-05-01T09:48:30.031Z</time></trkpt><trkpt lat="43.4775159" lon="10.5950576"><ele>520.4</ele><time>2026-05-01T09:48:31.038Z</time></trkpt><trkpt lat="43.4775223" lon="10.594908"><ele>519.8</ele><time>2026-05-01T09:48:32.04Z</time></trkpt><trkpt lat="43.477521" lon="10.5947668"><ele>519.1999999999999</ele><time>2026-05-01T09:48:33.036Z</time></trkpt><trkpt lat="43.477508" lon="10.5946274"><ele>518.6</ele><time>2026-05-01T09:48:34.04Z</time></trkpt><trkpt lat="43.4774868" lon="10.5944926"><ele>518.0</ele><time>2026-05-01T09:48:35.038Z</time></trkpt><trkpt lat="43.4774592" lon="10.594361"><ele>515.8</ele><time>2026-05-01T09:48:36.036Z</time></trkpt><trkpt lat="43.4774251" lon="10.5942303"><ele>513.5999999999999</ele><time>2026-05-01T09:48:37.031Z</time></trkpt><trkpt lat="43.4773885" lon="10.5940959"><ele>511.40000000000003</ele><time>2026-05-01T09:48:38.028Z</time></trkpt><trkpt lat="43.4773517" lon="10.5939504"><ele>509.20000000000005</ele><time>2026-05-01T09:48:39.033Z</time></trkpt><trkpt lat="43.4773196" lon="10.5938027"><ele>507.0</ele><time>2026-05-01T09:48:40.053Z</time></trkpt><trkpt lat="43.4772946" lon="10.5936635"><ele>505.6</ele><time>2026-05-01T09:48:41.048Z</time></trkpt><trkpt lat="43.4772824" lon="10.5935251"><ele>504.20000000000005</ele><time>2026-05-01T09:48:42.036Z</time></trkpt><trkpt lat="43.4772899" lon="10.5933972"><ele>502.8</ele><time>2026-05-01T09:48:43.047Z</time></trkpt><trkpt lat="43.4772977" lon="10.5932808"><ele>501.4</ele><time>2026-05-01T09:48:44.033Z</time></trkpt><trkpt lat="43.4773148" lon="10.5931577"><ele>500.0</ele><time>2026-05-01T09:48:45.057Z</time></trkpt><trkpt lat="43.4773399" lon="10.5930431"><ele>499.99999999999994</ele><time>2026-05-01T09:48:46.025Z</time></trkpt><trkpt lat="43.4773697" lon="10.5929347"><ele>500.0</ele><time>2026-05-01T09:48:47.031Z</time></trkpt><trkpt lat="43.4774076" lon="10.5928284"><ele>500.0</ele><time>2026-05-01T09:48:48.05Z</time></trkpt><trkpt lat="43.4774605" lon="10.5927294"><ele>500.0</ele><time>2026-05-01T09:48:49.028Z</time></trkpt><trkpt lat="43.4775244" lon="10.5926326"><ele>499.99999999999994</ele><time>2026-05-01T09:48:50.03Z</time></trkpt><trkpt lat="43.4775914" lon="10.5925399"><ele>500.0</ele><time>2026-05-01T09:48:51.024Z</time></trkpt><trkpt lat="43.4776619" lon="10.5924462"><ele>499.2</ele><time>2026-05-01T09:48:52.039Z</time></trkpt><trkpt lat="43.477727" lon="10.5923542"><ele>498.4</ele><time>2026-05-01T09:48:53.024Z</time></trkpt><trkpt lat="43.4777864" lon="10.5922488"><ele>497.6</ele><time>2026-05-01T09:48:54.029Z</time></trkpt><trkpt lat="43.4778351" lon="10.5921359"><ele>496.8</ele><time>2026-05-01T09:48:55.035Z</time></trkpt><trkpt lat="43.4778779" lon="10.5920087"><ele>496.0</ele><time>2026-05-01T09:48:56.032Z</time></trkpt><trkpt lat="43.4779111" lon="10.5918862"><ele>491.4</ele><time>2026-05-01T09:48:57.026Z</time></trkpt><trkpt lat="43.4779427" lon="10.5917632"><ele>486.8</ele><time>2026-05-01T09:48:58.041Z</time></trkpt><trkpt lat="43.4779725" lon="10.5916339"><ele>482.19999999999993</ele><time>2026-05-01T09:48:59.027Z</time></trkpt><trkpt lat="43.4780023" lon="10.5914981"><ele>477.59999999999997</ele><time>2026-05-01T09:49:00.031Z</time></trkpt><trkpt lat="43.4780303" lon="10.5913595"><ele>473.0</ele><time>2026-05-01T09:49:01.032Z</time></trkpt><trkpt lat="43.478055" lon="10.5912228"><ele>471.2</ele><time>2026-05-01T09:49:02.041Z</time></trkpt><trkpt lat="43.4780805" lon="10.5910855"><ele>469.4</ele><time>2026-05-01T09:49:03.03Z</time></trkpt><trkpt lat="43.4781083" lon="10.5909522"><ele>467.59999999999997</ele><time>2026-05-01T09:49:04.045Z</time></trkpt><trkpt lat="43.4781387" lon="10.5908252"><ele>465.79999999999995</ele><time>2026-05-01T09:49:05.023Z</time></trkpt><trkpt lat="43.478176" lon="10.5906928"><ele>464.0</ele><time>2026-05-01T09:49:06.042Z</time></trkpt><trkpt lat="43.4782136" lon="10.5905575"><ele>464.0</ele><time>2026-05-01T09:49:07.038Z</time></trkpt><trkpt lat="43.4782466" lon="10.5904148"><ele>464.0</ele><time>2026-05-01T09:49:08.034Z</time></trkpt><trkpt lat="43.4782735" lon="10.5902607"><ele>464.0</ele><time>2026-05-01T09:49:09.042Z</time></trkpt><trkpt lat="43.4782966" lon="10.5901032"><ele>464.0</ele><time>2026-05-01T09:49:10.029Z</time></trkpt><trkpt lat="43.4783173" lon="10.5899418"><ele>462.25</ele><time>2026-05-01T09:49:11.032Z</time></trkpt><trkpt lat="43.4783308" lon="10.589766"><ele>460.5</ele><time>2026-05-01T09:49:12.03Z</time></trkpt><trkpt lat="43.4783373" lon="10.5895946"><ele>458.75</ele><time>2026-05-01T09:49:13.03Z</time></trkpt><trkpt lat="43.4783405" lon="10.5894162"><ele>457.0</ele><time>2026-05-01T09:49:14.034Z</time></trkpt><trkpt lat="43.4783385" lon="10.5892361"><ele>454.20000000000005</ele><time>2026-05-01T09:49:15.039Z</time></trkpt><trkpt lat="43.4783321" lon="10.5890634"><ele>451.40000000000003</ele><time>2026-05-01T09:49:16.028Z</time></trkpt><trkpt lat="43.4783219" lon="10.5889004"><ele>448.59999999999997</ele><time>2026-05-01T09:49:17.023Z</time></trkpt><trkpt lat="43.4783111" lon="10.5887536"><ele>445.79999999999995</ele><time>2026-05-01T09:49:18.035Z</time></trkpt><trkpt lat="43.4782992" lon="10.588631"><ele>443.0</ele><time>2026-05-01T09:49:19.045Z</time></trkpt><trkpt lat="43.4782792" lon="10.5885251"><ele>442.0</ele><time>2026-05-01T09:49:20.027Z</time></trkpt><trkpt lat="43.478258" lon="10.5884368"><ele>441.0</ele><time>2026-05-01T09:49:21.027Z</time></trkpt><trkpt lat="43.4782301" lon="10.5883589"><ele>440.0</ele><time>2026-05-01T09:49:22.032Z</time></trkpt><trkpt lat="43.4781865" lon="10.5882919"><ele>439.0</ele><time>2026-05-01T09:49:23.016Z</time></trkpt><trkpt lat="43.4781326" lon="10.5882414"><ele>438.0</ele><time>2026-05-01T09:49:24.027Z</time></trkpt><trkpt lat="43.4780705" lon="10.5882005"><ele>437.0</ele><time>2026-05-01T09:49:25.035Z</time></trkpt><trkpt lat="43.4779978" lon="10.5881499"><ele>436.0</ele><time>2026-05-01T09:49:26.028Z</time></trkpt><trkpt lat="43.4779247" lon="10.5881087"><ele>436.00000000000006</ele><time>2026-05-01T09:49:27.041Z</time></trkpt><trkpt lat="43.4778557" lon="10.588051"><ele>436.0</ele><time>2026-05-01T09:49:28.034Z</time></trkpt><trkpt lat="43.4777917" lon="10.5879758"><ele>436.0</ele><time>2026-05-01T09:49:29.031Z</time></trkpt><trkpt lat="43.4777576" lon="10.5878716"><ele>436.0</ele><time>2026-05-01T09:49:30.021Z</time></trkpt><trkpt lat="43.4777474" lon="10.5877474"><ele>436.00000000000006</ele><time>2026-05-01T09:49:31.025Z</time></trkpt><trkpt lat="43.4777427" lon="10.5876123"><ele>436.0</ele><time>2026-05-01T09:49:32.033Z</time></trkpt><trkpt lat="43.4777389" lon="10.5874688"><ele>433.75</ele><time>2026-05-01T09:49:33.024Z</time></trkpt><trkpt lat="43.4777249" lon="10.5873201"><ele>431.5</ele><time>2026-05-01T09:49:34.024Z</time></trkpt><trkpt lat="43.477708" lon="10.5871677"><ele>429.25</ele><time>2026-05-01T09:49:35.026Z</time></trkpt><trkpt lat="43.4776839" lon="10.587011"><ele>427.0</ele><time>2026-05-01T09:49:36.034Z</time></trkpt><trkpt lat="43.47766" lon="10.5868484"><ele>425.25</ele><time>2026-05-01T09:49:37.034Z</time></trkpt><trkpt lat="43.4776313" lon="10.5866866"><ele>423.5</ele><time>2026-05-01T09:49:38.022Z</time></trkpt><trkpt lat="43.4775954" lon="10.5865317"><ele>421.75</ele><time>2026-05-01T09:49:39.031Z</time></trkpt><trkpt lat="43.4775532" lon="10.5863728"><ele>420.0</ele><time>2026-05-01T09:49:40.03Z</time></trkpt><trkpt lat="43.4775069" lon="10.5862252"><ele>418.4</ele><time>2026-05-01T09:49:41.035Z</time></trkpt><trkpt lat="43.4774739" lon="10.5860834"><ele>416.8</ele><time>2026-05-01T09:49:42.031Z</time></trkpt><trkpt lat="43.4774542" lon="10.5859462"><ele>415.20000000000005</ele><time>2026-05-01T09:49:43.029Z</time></trkpt><trkpt lat="43.4774452" lon="10.5858105"><ele>413.6</ele><time>2026-05-01T09:49:44.032Z</time></trkpt><trkpt lat="43.4774462" lon="10.5856732"><ele>412.0</ele><time>2026-05-01T09:49:45.033Z</time></trkpt><trkpt lat="43.4774705" lon="10.5855494"><ele>412.0</ele><time>2026-05-01T09:49:46.025Z</time></trkpt><trkpt lat="43.4775083" lon="10.5854178"><ele>412.0</ele><time>2026-05-01T09:49:47.035Z</time></trkpt><trkpt lat="43.4775463" lon="10.5852935"><ele>412.0</ele><time>2026-05-01T09:49:48.026Z</time></trkpt><trkpt lat="43.4775846" lon="10.5851677"><ele>412.0</ele><time>2026-05-01T09:49:49.028Z</time></trkpt><trkpt lat="43.4776057" lon="10.585022"><ele>412.0</ele><time>2026-05-01T09:49:50.031Z</time></trkpt><trkpt lat="43.4776154" lon="10.5848737"><ele>409.8</ele><time>2026-05-01T09:49:51.036Z</time></trkpt><trkpt lat="43.4776176" lon="10.584719"><ele>407.6</ele><time>2026-05-01T09:49:52.031Z</time></trkpt><trkpt lat="43.477619" lon="10.5845659"><ele>405.40000000000003</ele><time>2026-05-01T09:49:53.025Z</time></trkpt><trkpt lat="43.4776207" lon="10.5844163"><ele>403.20000000000005</ele><time>2026-05-01T09:49:54.038Z</time></trkpt><trkpt lat="43.4776174" lon="10.5842688"><ele>401.0</ele><time>2026-05-01T09:49:55.038Z</time></trkpt><trkpt lat="43.4776128" lon="10.5841222"><ele>398.75</ele><time>2026-05-01T09:49:56.033Z</time></trkpt><trkpt lat="43.4775967" lon="10.5839741"><ele>396.5</ele><time>2026-05-01T09:49:57.038Z</time></trkpt><trkpt lat="43.4775755" lon="10.5838135"><ele>394.25</ele><time>2026-05-01T09:49:58.027Z</time></trkpt><trkpt lat="43.4775538" lon="10.5836543"><ele>392.0</ele><time>2026-05-01T09:49:59.033Z</time></trkpt><trkpt lat="43.4775319" lon="10.5834932"><ele>390.8</ele><time>2026-05-01T09:50:00.035Z</time></trkpt><trkpt lat="43.477515" lon="10.5833333"><ele>389.6</ele><time>2026-05-01T09:50:01.024Z</time></trkpt><trkpt lat="43.4775" lon="10.5831821"><ele>388.40000000000003</ele><time>2026-05-01T09:50:02.035Z</time></trkpt><trkpt lat="43.4774757" lon="10.5830365"><ele>387.20000000000005</ele><time>2026-05-01T09:50:03.027Z</time></trkpt><trkpt lat="43.4774464" lon="10.5828958"><ele>386.0</ele><time>2026-05-01T09:50:04.041Z</time></trkpt><trkpt lat="43.4774236" lon="10.5827682"><ele>384.8</ele><time>2026-05-01T09:50:05.032Z</time></trkpt><trkpt lat="43.477393" lon="10.5826475"><ele>383.6</ele><time>2026-05-01T09:50:06.03Z</time></trkpt><trkpt lat="43.4773628" lon="10.5825292"><ele>382.4</ele><time>2026-05-01T09:50:07.029Z</time></trkpt><trkpt lat="43.4773383" lon="10.5824157"><ele>381.2</ele><time>2026-05-01T09:50:08.032Z</time></trkpt><trkpt lat="43.4773095" lon="10.5822992"><ele>380.0</ele><time>2026-05-01T09:50:09.034Z</time></trkpt><trkpt lat="43.4772729" lon="10.5821819"><ele>380.0</ele><time>2026-05-01T09:50:10.031Z</time></trkpt><trkpt lat="43.4772323" lon="10.5820704"><ele>380.0</ele><time>2026-05-01T09:50:11.025Z</time></trkpt><trkpt lat="43.47719" lon="10.5819631"><ele>380.0</ele><time>2026-05-01T09:50:12.026Z</time></trkpt><trkpt lat="43.4771483" lon="10.5818505"><ele>380.0</ele><time>2026-05-01T09:50:13.033Z</time></trkpt><trkpt lat="43.4771179" lon="10.5817257"><ele>380.0</ele><time>2026-05-01T09:50:14.035Z</time></trkpt><trkpt lat="43.4770991" lon="10.581593"><ele>374.0</ele><time>2026-05-01T09:50:15.026Z</time></trkpt><trkpt lat="43.4770897" lon="10.5814685"><ele>368.0</ele><time>2026-05-01T09:50:16.022Z</time></trkpt><trkpt lat="43.477084" lon="10.5813416"><ele>362.0</ele><time>2026-05-01T09:50:17.031Z</time></trkpt><trkpt lat="43.4770828" lon="10.5812213"><ele>356.0</ele><time>2026-05-01T09:50:18.021Z</time></trkpt><trkpt lat="43.4770807" lon="10.5810931"><ele>350.0</ele><time>2026-05-01T09:50:19.03Z</time></trkpt><trkpt lat="43.4770711" lon="10.5809634"><ele>349.83333333333337</ele><time>2026-05-01T09:50:20.018Z</time></trkpt><trkpt lat="43.4770514" lon="10.5808305"><ele>349.6666666666667</ele><time>2026-05-01T09:50:21.022Z</time></trkpt><trkpt lat="43.477024" lon="10.580707"><ele>349.5</ele><time>2026-05-01T09:50:22.031Z</time></trkpt><trkpt lat="43.4770015" lon="10.5806036"><ele>349.3333333333333</ele><time>2026-05-01T09:50:23.046Z</time></trkpt><trkpt lat="43.4769712" lon="10.5804637"><ele>349.16666666666663</ele><time>2026-05-01T09:50:25.033Z</time></trkpt><trkpt lat="43.4769362" lon="10.5803856"><ele>349.0</ele><time>2026-05-01T09:50:28.034Z</time></trkpt><trkpt lat="43.4768778" lon="10.5804577"><ele>349.0</ele><time>2026-05-01T09:50:49.038Z</time></trkpt><trkpt lat="43.4768574" lon="10.580606"><ele>349.0</ele><time>2026-05-01T09:50:51.026Z</time></trkpt><trkpt lat="43.4768374" lon="10.580693"><ele>349.0</ele><time>2026-05-01T09:50:52.038Z</time></trkpt><trkpt lat="43.4768234" lon="10.580796"><ele>349.0</ele><time>2026-05-01T09:50:53.032Z</time></trkpt><trkpt lat="43.4768168" lon="10.5809018"><ele>349.0</ele><time>2026-05-01T09:50:54.025Z</time></trkpt><trkpt lat="43.4768234" lon="10.5810257"><ele>349.0</ele><time>2026-05-01T09:50:55.027Z</time></trkpt><trkpt lat="43.4768409" lon="10.5811739"><ele>349.3333333333333</ele><time>2026-05-01T09:50:56.034Z</time></trkpt><trkpt lat="43.4768697" lon="10.5813467"><ele>349.6666666666667</ele><time>2026-05-01T09:50:57.034Z</time></trkpt><trkpt lat="43.4768971" lon="10.5815742"><ele>350.0</ele><time>2026-05-01T09:50:58.017Z</time></trkpt><trkpt lat="43.4769132" lon="10.5818028"><ele>350.0</ele><time>2026-05-01T09:50:59.027Z</time></trkpt><trkpt lat="43.4769349" lon="10.5820077"><ele>350.0</ele><time>2026-05-01T09:51:00.032Z</time></trkpt><trkpt lat="43.4769419" lon="10.5821778"><ele>350.0</ele><time>2026-05-01T09:51:01.032Z</time></trkpt><trkpt lat="43.4769303" lon="10.5823335"><ele>350.0</ele><time>2026-05-01T09:51:02.025Z</time></trkpt><trkpt lat="43.4768905" lon="10.5824584"><ele>351.2</ele><time>2026-05-01T09:51:03.04Z</time></trkpt><trkpt lat="43.4768353" lon="10.5825791"><ele>352.4</ele><time>2026-05-01T09:51:04.031Z</time></trkpt><trkpt lat="43.47679" lon="10.5826982"><ele>353.6</ele><time>2026-05-01T09:51:05.037Z</time></trkpt><trkpt lat="43.4767553" lon="10.582825"><ele>354.8</ele><time>2026-05-01T09:51:06.039Z</time></trkpt><trkpt lat="43.4767257" lon="10.5829966"><ele>356.0</ele><time>2026-05-01T09:51:07.032Z</time></trkpt><trkpt lat="43.4767115" lon="10.5831812"><ele>357.4</ele><time>2026-05-01T09:51:08.019Z</time></trkpt><trkpt lat="43.4767026" lon="10.5833573"><ele>358.8</ele><time>2026-05-01T09:51:09.028Z</time></trkpt><trkpt lat="43.4766934" lon="10.5835012"><ele>360.2</ele><time>2026-05-01T09:51:10.03Z</time></trkpt><trkpt lat="43.4766751" lon="10.5836435"><ele>361.59999999999997</ele><time>2026-05-01T09:51:11.024Z</time></trkpt><trkpt lat="43.476645" lon="10.5837912"><ele>363.0</ele><time>2026-05-01T09:51:12.035Z</time></trkpt><trkpt lat="43.4766237" lon="10.5839472"><ele>364.79999999999995</ele><time>2026-05-01T09:51:13.024Z</time></trkpt><trkpt lat="43.4766207" lon="10.5840896"><ele>366.6</ele><time>2026-05-01T09:51:14.036Z</time></trkpt><trkpt lat="43.4766321" lon="10.5842341"><ele>368.4</ele><time>2026-05-01T09:51:15.015Z</time></trkpt><trkpt lat="43.476649" lon="10.5843613"><ele>370.20000000000005</ele><time>2026-05-01T09:51:16.041Z</time></trkpt><trkpt lat="43.4766639" lon="10.5844702"><ele>372.0</ele><time>2026-05-01T09:51:17.029Z</time></trkpt><trkpt lat="43.4766728" lon="10.5846191"><ele>373.3333333333333</ele><time>2026-05-01T09:51:19.033Z</time></trkpt><trkpt lat="43.4766087" lon="10.584748"><ele>374.6666666666667</ele><time>2026-05-01T09:51:21.018Z</time></trkpt><trkpt lat="43.4765523" lon="10.5847971"><ele>376.0</ele><time>2026-05-01T09:51:22.026Z</time></trkpt><trkpt lat="43.4764899" lon="10.5848469"><ele>377.33333333333337</ele><time>2026-05-01T09:51:23.032Z</time></trkpt><trkpt lat="43.4764203" lon="10.5849052"><ele>378.6666666666667</ele><time>2026-05-01T09:51:24.021Z</time></trkpt><trkpt lat="43.4763666" lon="10.5849823"><ele>380.0</ele><time>2026-05-01T09:51:25.024Z</time></trkpt><trkpt lat="43.4763283" lon="10.5850876"><ele>380.0</ele><time>2026-05-01T09:51:26.017Z</time></trkpt><trkpt lat="43.4763102" lon="10.5852129"><ele>380.0</ele><time>2026-05-01T09:51:27.023Z</time></trkpt><trkpt lat="43.476307" lon="10.5853313"><ele>380.0</ele><time>2026-05-01T09:51:28.024Z</time></trkpt><trkpt lat="43.4762958" lon="10.5854559"><ele>380.0</ele><time>2026-05-01T09:51:29.018Z</time></trkpt><trkpt lat="43.4762717" lon="10.5855654"><ele>380.0</ele><time>2026-05-01T09:51:30.03Z</time></trkpt><trkpt lat="43.4762406" lon="10.5856784"><ele>380.0</ele><time>2026-05-01T09:51:31.034Z</time></trkpt><trkpt lat="43.4762268" lon="10.5857754"><ele>378.4</ele><time>2026-05-01T09:51:32.026Z</time></trkpt><trkpt lat="43.4762276" lon="10.5859299"><ele>376.8</ele><time>2026-05-01T09:51:34.028Z</time></trkpt><trkpt lat="43.476206" lon="10.5860743"><ele>375.20000000000005</ele><time>2026-05-01T09:51:36.039Z</time></trkpt><trkpt lat="43.4761174" lon="10.5860936"><ele>373.6</ele><time>2026-05-01T09:51:38.021Z</time></trkpt><trkpt lat="43.4760026" lon="10.5860591"><ele>372.0</ele><time>2026-05-01T09:51:40.021Z</time></trkpt><trkpt lat="43.4758844" lon="10.5861405"><ele>374.0</ele><time>2026-05-01T09:51:42.027Z</time></trkpt><trkpt lat="43.4758528" lon="10.5862248"><ele>376.0</ele><time>2026-05-01T09:51:43.031Z</time></trkpt><trkpt lat="43.4758291" lon="10.5863282"><ele>378.0</ele><time>2026-05-01T09:51:44.03Z</time></trkpt><trkpt lat="43.4758099" lon="10.586439"><ele>380.0</ele><time>2026-05-01T09:51:45.026Z</time></trkpt><trkpt lat="43.4758424" lon="10.5865647"><ele>382.0</ele><time>2026-05-01T09:51:46.037Z</time></trkpt><trkpt lat="43.4758855" lon="10.5866709"><ele>384.0</ele><time>2026-05-01T09:51:47.03Z</time></trkpt><trkpt lat="43.4759388" lon="10.5867521"><ele>384.0</ele><time>2026-05-01T09:51:48.014Z</time></trkpt><trkpt lat="43.475997" lon="10.5868717"><ele>384.0</ele><time>2026-05-01T09:51:50.037Z</time></trkpt><trkpt lat="43.4759896" lon="10.5869668"><ele>384.0</ele><time>2026-05-01T09:51:52.027Z</time></trkpt><trkpt lat="43.4759042" lon="10.5869657"><ele>384.0</ele><time>2026-05-01T09:51:54.032Z</time></trkpt><trkpt lat="43.4758341" lon="10.5869212"><ele>384.0</ele><time>2026-05-01T09:51:55.027Z</time></trkpt><trkpt lat="43.4757394" lon="10.5868687"><ele>384.0</ele><time>2026-05-01T09:51:56.024Z</time></trkpt><trkpt lat="43.4756487" lon="10.586809"><ele>384.0</ele><time>2026-05-01T09:51:57.031Z</time></trkpt><trkpt lat="43.4755661" lon="10.5867807"><ele>384.0</ele><time>2026-05-01T09:51:58.012Z</time></trkpt><trkpt lat="43.4754935" lon="10.5867902"><ele>384.0</ele><time>2026-05-01T09:51:59.023Z</time></trkpt><trkpt lat="43.4754253" lon="10.586842"><ele>384.0</ele><time>2026-05-01T09:52:00.01Z</time></trkpt><trkpt lat="43.4753463" lon="10.5869371"><ele>384.0</ele><time>2026-05-01T09:52:01.024Z</time></trkpt><trkpt lat="43.4752628" lon="10.5870309"><ele>384.0</ele><time>2026-05-01T09:52:02.013Z</time></trkpt><trkpt lat="43.4751785" lon="10.5871066"><ele>385.5</ele><time>2026-05-01T09:52:03.025Z</time></trkpt><trkpt lat="43.4751062" lon="10.5871793"><ele>387.0</ele><time>2026-05-01T09:52:04.031Z</time></trkpt><trkpt lat="43.4750728" lon="10.5872883"><ele>388.5</ele><time>2026-05-01T09:52:05.021Z</time></trkpt><trkpt lat="43.4750499" lon="10.5874202"><ele>390.0</ele><time>2026-05-01T09:52:06.025Z</time></trkpt><trkpt lat="43.4750273" lon="10.5875444"><ele>391.5</ele><time>2026-05-01T09:52:07.025Z</time></trkpt><trkpt lat="43.4750033" lon="10.5876481"><ele>393.0</ele><time>2026-05-01T09:52:08.023Z</time></trkpt><trkpt lat="43.4749545" lon="10.5877593"><ele>393.0</ele><time>2026-05-01T09:52:10.034Z</time></trkpt><trkpt lat="43.4748688" lon="10.5877083"><ele>393.0</ele><time>2026-05-01T09:52:12.02Z</time></trkpt><trkpt lat="43.4748389" lon="10.5876302"><ele>393.0</ele><time>2026-05-01T09:52:13.024Z</time></trkpt><trkpt lat="43.4748086" lon="10.5875396"><ele>393.0</ele><time>2026-05-01T09:52:14.023Z</time></trkpt><trkpt lat="43.4747688" lon="10.5874527"><ele>393.0</ele><time>2026-05-01T09:52:15.034Z</time></trkpt><trkpt lat="43.474706" lon="10.5873857"><ele>393.0</ele><time>2026-05-01T09:52:16.024Z</time></trkpt><trkpt lat="43.4746401" lon="10.5873558"><ele>391.59999999999997</ele><time>2026-05-01T09:52:17.023Z</time></trkpt><trkpt lat="43.4745518" lon="10.5873539"><ele>390.2</ele><time>2026-05-01T09:52:18.026Z</time></trkpt><trkpt lat="43.4744448" lon="10.5873913"><ele>388.8</ele><time>2026-05-01T09:52:19.031Z</time></trkpt><trkpt lat="43.4743436" lon="10.5874361"><ele>387.4</ele><time>2026-05-01T09:52:20.027Z</time></trkpt><trkpt lat="43.474253" lon="10.5874832"><ele>386.0</ele><time>2026-05-01T09:52:21.019Z</time></trkpt><trkpt lat="43.4741715" lon="10.5875464"><ele>385.99999999999994</ele><time>2026-05-01T09:52:22.031Z</time></trkpt><trkpt lat="43.4741091" lon="10.587625"><ele>386.0</ele><time>2026-05-01T09:52:23.033Z</time></trkpt><trkpt lat="43.4740566" lon="10.5877269"><ele>386.0</ele><time>2026-05-01T09:52:24.033Z</time></trkpt><trkpt lat="43.4740195" lon="10.5878281"><ele>386.0</ele><time>2026-05-01T09:52:25.025Z</time></trkpt><trkpt lat="43.474" lon="10.587925"><ele>385.99999999999994</ele><time>2026-05-01T09:52:26.024Z</time></trkpt><trkpt lat="43.4740149" lon="10.5880125"><ele>386.0</ele><time>2026-05-01T09:52:27.039Z</time></trkpt><trkpt lat="43.474061" lon="10.5880798"><ele>388.4</ele><time>2026-05-01T09:52:28.027Z</time></trkpt><trkpt lat="43.4741416" lon="10.5881902"><ele>390.8</ele><time>2026-05-01T09:52:30.029Z</time></trkpt><trkpt lat="43.4741366" lon="10.5883177"><ele>393.2</ele><time>2026-05-01T09:52:32.035Z</time></trkpt><trkpt lat="43.4740855" lon="10.5883932"><ele>395.59999999999997</ele><time>2026-05-01T09:52:33.021Z</time></trkpt><trkpt lat="43.4740061" lon="10.5884572"><ele>398.0</ele><time>2026-05-01T09:52:34.027Z</time></trkpt><trkpt lat="43.4739048" lon="10.5885399"><ele>398.0</ele><time>2026-05-01T09:52:35.024Z</time></trkpt><trkpt lat="43.4738126" lon="10.588631"><ele>398.0</ele><time>2026-05-01T09:52:36.038Z</time></trkpt><trkpt lat="43.4737488" lon="10.5887258"><ele>398.0</ele><time>2026-05-01T09:52:37.034Z</time></trkpt><trkpt lat="43.4737102" lon="10.5888263"><ele>398.0</ele><time>2026-05-01T09:52:38.023Z</time></trkpt><trkpt lat="43.4736892" lon="10.5889541"><ele>398.0</ele><time>2026-05-01T09:52:39.027Z</time></trkpt><trkpt lat="43.4736807" lon="10.589081"><ele>397.2</ele><time>2026-05-01T09:52:40.026Z</time></trkpt><trkpt lat="43.4736994" lon="10.5892282"><ele>396.4</ele><time>2026-05-01T09:52:41.026Z</time></trkpt><trkpt lat="43.473732" lon="10.5893924"><ele>395.59999999999997</ele><time>2026-05-01T09:52:42.03Z</time></trkpt><trkpt lat="43.4737564" lon="10.5895418"><ele>394.79999999999995</ele><time>2026-05-01T09:52:43.018Z</time></trkpt><trkpt lat="43.473775" lon="10.589639"><ele>394.0</ele><time>2026-05-01T09:52:44.021Z</time></trkpt><trkpt lat="43.4737796" lon="10.5897333"><ele>397.0</ele><time>2026-05-01T09:52:46.037Z</time></trkpt><trkpt lat="43.4737586" lon="10.5898332"><ele>400.0</ele><time>2026-05-01T09:52:49.019Z</time></trkpt><trkpt lat="43.4736532" lon="10.5898509"><ele>403.0</ele><time>2026-05-01T09:52:51.031Z</time></trkpt><trkpt lat="43.4735383" lon="10.5897775"><ele>406.0</ele><time>2026-05-01T09:52:53.026Z</time></trkpt><trkpt lat="43.473469" lon="10.5897268"><ele>409.0</ele><time>2026-05-01T09:52:54.016Z</time></trkpt><trkpt lat="43.4733976" lon="10.5896821"><ele>409.0</ele><time>2026-05-01T09:52:55.027Z</time></trkpt><trkpt lat="43.4733064" lon="10.5896797"><ele>409.0</ele><time>2026-05-01T09:52:56.028Z</time></trkpt><trkpt lat="43.4732212" lon="10.5897245"><ele>409.0</ele><time>2026-05-01T09:52:57.031Z</time></trkpt><trkpt lat="43.4731391" lon="10.589779"><ele>409.0</ele><time>2026-05-01T09:52:58.038Z</time></trkpt><trkpt lat="43.4730641" lon="10.5898445"><ele>409.0</ele><time>2026-05-01T09:52:59.039Z</time></trkpt><trkpt lat="43.4730008" lon="10.5899375"><ele>406.79999999999995</ele><time>2026-05-01T09:53:00.025Z</time></trkpt><trkpt lat="43.4729337" lon="10.5900343"><ele>404.59999999999997</ele><time>2026-05-01T09:53:01.026Z</time></trkpt><trkpt lat="43.472859" lon="10.5901316"><ele>402.4</ele><time>2026-05-01T09:53:02.022Z</time></trkpt><trkpt lat="43.4727877" lon="10.5902168"><ele>400.2</ele><time>2026-05-01T09:53:03.031Z</time></trkpt><trkpt lat="43.4727265" lon="10.5902951"><ele>398.0</ele><time>2026-05-01T09:53:04.034Z</time></trkpt><trkpt lat="43.4726815" lon="10.590387"><ele>398.0</ele><time>2026-05-01T09:53:05.022Z</time></trkpt><trkpt lat="43.4726797" lon="10.5904767"><ele>398.0</ele><time>2026-05-01T09:53:06.025Z</time></trkpt><trkpt lat="43.4727061" lon="10.5905782"><ele>398.0</ele><time>2026-05-01T09:53:07.039Z</time></trkpt><trkpt lat="43.4727477" lon="10.5906938"><ele>398.0</ele><time>2026-05-01T09:53:08.027Z</time></trkpt><trkpt lat="43.4728166" lon="10.5908333"><ele>398.0</ele><time>2026-05-01T09:53:09.032Z</time></trkpt><trkpt lat="43.4728929" lon="10.5909782"><ele>401.59999999999997</ele><time>2026-05-01T09:53:10.026Z</time></trkpt><trkpt lat="43.4729822" lon="10.5911037"><ele>405.2</ele><time>2026-05-01T09:53:11.028Z</time></trkpt><trkpt lat="43.4730803" lon="10.5911962"><ele>408.8</ele><time>2026-05-01T09:53:12.022Z</time></trkpt><trkpt lat="43.473169" lon="10.5912837"><ele>412.4</ele><time>2026-05-01T09:53:13.025Z</time></trkpt><trkpt lat="43.4732207" lon="10.5913786"><ele>416.0</ele><time>2026-05-01T09:53:14.028Z</time></trkpt><trkpt lat="43.4732445" lon="10.5914998"><ele>416.0</ele><time>2026-05-01T09:53:15.032Z</time></trkpt><trkpt lat="43.4732642" lon="10.5916326"><ele>416.0</ele><time>2026-05-01T09:53:16.023Z</time></trkpt><trkpt lat="43.4733011" lon="10.5917512"><ele>416.0</ele><time>2026-05-01T09:53:17.022Z</time></trkpt><trkpt lat="43.4733567" lon="10.5918504"><ele>416.0</ele><time>2026-05-01T09:53:18.026Z</time></trkpt><trkpt lat="43.4734157" lon="10.5919608"><ele>416.0</ele><time>2026-05-01T09:53:19.04Z</time></trkpt><trkpt lat="43.4734432" lon="10.5920835"><ele>415.0</ele><time>2026-05-01T09:53:20.026Z</time></trkpt><trkpt lat="43.4734515" lon="10.592243"><ele>414.0</ele><time>2026-05-01T09:53:21.018Z</time></trkpt><trkpt lat="43.4734573" lon="10.5924108"><ele>413.0</ele><time>2026-05-01T09:53:22.027Z</time></trkpt><trkpt lat="43.4734743" lon="10.5925823"><ele>412.0</ele><time>2026-05-01T09:53:23.028Z</time></trkpt><trkpt lat="43.4734805" lon="10.5927683"><ele>411.5</ele><time>2026-05-01T09:53:24.025Z</time></trkpt><trkpt lat="43.4734686" lon="10.5929646"><ele>411.0</ele><time>2026-05-01T09:53:25.021Z</time></trkpt><trkpt lat="43.473459" lon="10.5931657"><ele>410.5</ele><time>2026-05-01T09:53:26.024Z</time></trkpt><trkpt lat="43.4734655" lon="10.593369"><ele>410.0</ele><time>2026-05-01T09:53:27.023Z</time></trkpt><trkpt lat="43.4734732" lon="10.5935977"><ele>410.75</ele><time>2026-05-01T09:53:28.027Z</time></trkpt><trkpt lat="43.4734792" lon="10.5938312"><ele>411.5</ele><time>2026-05-01T09:53:29.025Z</time></trkpt><trkpt lat="43.4734922" lon="10.5940334"><ele>412.25</ele><time>2026-05-01T09:53:30.026Z</time></trkpt><trkpt lat="43.4735071" lon="10.5941916"><ele>413.0</ele><time>2026-05-01T09:53:31.023Z</time></trkpt><trkpt lat="43.4735255" lon="10.5943246"><ele>413.0</ele><time>2026-05-01T09:53:32.022Z</time></trkpt><trkpt lat="43.473565" lon="10.5944585"><ele>413.0</ele><time>2026-05-01T09:53:33.03Z</time></trkpt><trkpt lat="43.4736229" lon="10.5946021"><ele>413.0</ele><time>2026-05-01T09:53:34.029Z</time></trkpt><trkpt lat="43.4736836" lon="10.594746"><ele>413.0</ele><time>2026-05-01T09:53:35.026Z</time></trkpt><trkpt lat="43.4737421" lon="10.5948865"><ele>416.99999999999994</ele><time>2026-05-01T09:53:36.036Z</time></trkpt><trkpt lat="43.4738005" lon="10.5950051"><ele>421.0</ele><time>2026-05-01T09:53:37.023Z</time></trkpt><trkpt lat="43.4738569" lon="10.5950951"><ele>425.0</ele><time>2026-05-01T09:53:38.03Z</time></trkpt><trkpt lat="43.4739079" lon="10.595161"><ele>429.0</ele><time>2026-05-01T09:53:39.028Z</time></trkpt><trkpt lat="43.4739662" lon="10.5952103"><ele>432.99999999999994</ele><time>2026-05-01T09:53:40.026Z</time></trkpt><trkpt lat="43.4740244" lon="10.595261"><ele>437.0</ele><time>2026-05-01T09:53:41.02Z</time></trkpt><trkpt lat="43.4740859" lon="10.5953786"><ele>437.20000000000005</ele><time>2026-05-01T09:53:43.035Z</time></trkpt><trkpt lat="43.4740473" lon="10.595517"><ele>437.40000000000003</ele><time>2026-05-01T09:53:45.021Z</time></trkpt><trkpt lat="43.4739817" lon="10.595584"><ele>437.59999999999997</ele><time>2026-05-01T09:53:46.026Z</time></trkpt><trkpt lat="43.473898" lon="10.5956078"><ele>437.79999999999995</ele><time>2026-05-01T09:53:47.024Z</time></trkpt><trkpt lat="43.4738006" lon="10.5956169"><ele>438.0</ele><time>2026-05-01T09:53:48.011Z</time></trkpt><trkpt lat="43.4736822" lon="10.5956102"><ele>438.0</ele><time>2026-05-01T09:53:49.017Z</time></trkpt><trkpt lat="43.4735399" lon="10.5955658"><ele>438.0</ele><time>2026-05-01T09:53:50.021Z</time></trkpt><trkpt lat="43.4733943" lon="10.5955159"><ele>438.0</ele><time>2026-05-01T09:53:51.023Z</time></trkpt><trkpt lat="43.4732446" lon="10.5954593"><ele>438.0</ele><time>2026-05-01T09:53:52.041Z</time></trkpt><trkpt lat="43.4731353" lon="10.5954258"><ele>438.0</ele><time>2026-05-01T09:53:53.024Z</time></trkpt><trkpt lat="43.473047" lon="10.595419"><ele>438.0</ele><time>2026-05-01T09:53:54.022Z</time></trkpt><trkpt lat="43.4729618" lon="10.5954449"><ele>438.0</ele><time>2026-05-01T09:53:55.015Z</time></trkpt><trkpt lat="43.4728889" lon="10.595506"><ele>438.0</ele><time>2026-05-01T09:53:56.017Z</time></trkpt><trkpt lat="43.4728408" lon="10.5955843"><ele>438.0</ele><time>2026-05-01T09:53:57.025Z</time></trkpt><trkpt lat="43.4728074" lon="10.595696"><ele>437.4</ele><time>2026-05-01T09:53:58.019Z</time></trkpt><trkpt lat="43.472786" lon="10.5958292"><ele>436.79999999999995</ele><time>2026-05-01T09:53:59.022Z</time></trkpt><trkpt lat="43.4727758" lon="10.5959794"><ele>436.2</ele><time>2026-05-01T09:54:00.016Z</time></trkpt><trkpt lat="43.4727691" lon="10.5961363"><ele>435.6</ele><time>2026-05-01T09:54:01.025Z</time></trkpt><trkpt lat="43.4727663" lon="10.59631"><ele>435.0</ele><time>2026-05-01T09:54:02.026Z</time></trkpt><trkpt lat="43.4727694" lon="10.5964984"><ele>435.0</ele><time>2026-05-01T09:54:03.021Z</time></trkpt><trkpt lat="43.4727731" lon="10.596678"><ele>435.0</ele><time>2026-05-01T09:54:04.023Z</time></trkpt><trkpt lat="43.4727899" lon="10.5968422"><ele>435.0</ele><time>2026-05-01T09:54:05.024Z</time></trkpt><trkpt lat="43.4728242" lon="10.5970078"><ele>435.0</ele><time>2026-05-01T09:54:06.022Z</time></trkpt><trkpt lat="43.4728674" lon="10.5971721"><ele>438.1666666666667</ele><time>2026-05-01T09:54:07.029Z</time></trkpt><trkpt lat="43.4729161" lon="10.5972888"><ele>441.33333333333337</ele><time>2026-05-01T09:54:08.017Z</time></trkpt><trkpt lat="43.4729757" lon="10.5973684"><ele>444.5</ele><time>2026-05-01T09:54:09.033Z</time></trkpt><trkpt lat="43.4730381" lon="10.5974457"><ele>447.6666666666667</ele><time>2026-05-01T09:54:10.021Z</time></trkpt><trkpt lat="43.4730913" lon="10.5975309"><ele>450.83333333333337</ele><time>2026-05-01T09:54:11.023Z</time></trkpt><trkpt lat="43.4731335" lon="10.597601"><ele>454.0</ele><time>2026-05-01T09:54:12.019Z</time></trkpt><trkpt lat="43.4731194" lon="10.5976953"><ele>454.0</ele><time>2026-05-01T09:54:14.016Z</time></trkpt><trkpt lat="43.4730169" lon="10.5976852"><ele>454.0</ele><time>2026-05-01T09:54:16.021Z</time></trkpt><trkpt lat="43.4729232" lon="10.5975819"><ele>454.0</ele><time>2026-05-01T09:54:18.021Z</time></trkpt><trkpt lat="43.4728573" lon="10.5975277"><ele>454.0</ele><time>2026-05-01T09:54:19.027Z</time></trkpt><trkpt lat="43.4727687" lon="10.5974739"><ele>454.0</ele><time>2026-05-01T09:54:20.024Z</time></trkpt><trkpt lat="43.4726521" lon="10.5974051"><ele>454.5</ele><time>2026-05-01T09:54:21.021Z</time></trkpt><trkpt lat="43.4725307" lon="10.5973048"><ele>455.0</ele><time>2026-05-01T09:54:22.022Z</time></trkpt><trkpt lat="43.4724186" lon="10.5971781"><ele>455.5</ele><time>2026-05-01T09:54:23.012Z</time></trkpt><trkpt lat="43.4723155" lon="10.5971052"><ele>456.0</ele><time>2026-05-01T09:54:24.015Z</time></trkpt><trkpt lat="43.4722296" lon="10.5970598"><ele>456.0</ele><time>2026-05-01T09:54:25.018Z</time></trkpt><trkpt lat="43.4721478" lon="10.5970065"><ele>456.0</ele><time>2026-05-01T09:54:26.015Z</time></trkpt><trkpt lat="43.4720906" lon="10.5969449"><ele>456.0</ele><time>2026-05-01T09:54:27.012Z</time></trkpt><trkpt lat="43.4720605" lon="10.5968557"><ele>456.0</ele><time>2026-05-01T09:54:28.021Z</time></trkpt><trkpt lat="43.4720303" lon="10.5967415"><ele>456.0</ele><time>2026-05-01T09:54:29.027Z</time></trkpt><trkpt lat="43.4719875" lon="10.5966254"><ele>456.0</ele><time>2026-05-01T09:54:30.024Z</time></trkpt><trkpt lat="43.4719325" lon="10.5965022"><ele>458.5</ele><time>2026-05-01T09:54:31.021Z</time></trkpt><trkpt lat="43.4718604" lon="10.5963766"><ele>461.0</ele><time>2026-05-01T09:54:32.024Z</time></trkpt><trkpt lat="43.4717716" lon="10.5962297"><ele>463.5</ele><time>2026-05-01T09:54:33.013Z</time></trkpt><trkpt lat="43.471677" lon="10.5960739"><ele>466.0</ele><time>2026-05-01T09:54:34.024Z</time></trkpt><trkpt lat="43.4715999" lon="10.5959145"><ele>462.33333333333337</ele><time>2026-05-01T09:54:35.03Z</time></trkpt><trkpt lat="43.4715469" lon="10.5957713"><ele>458.6666666666667</ele><time>2026-05-01T09:54:36.026Z</time></trkpt><trkpt lat="43.4715069" lon="10.5956456"><ele>455.0</ele><time>2026-05-01T09:54:37.026Z</time></trkpt><trkpt lat="43.4714678" lon="10.5955548"><ele>451.33333333333337</ele><time>2026-05-01T09:54:38.028Z</time></trkpt><trkpt lat="43.4714206" lon="10.5954802"><ele>447.6666666666667</ele><time>2026-05-01T09:54:39.029Z</time></trkpt><trkpt lat="43.4713642" lon="10.5954259"><ele>444.0</ele><time>2026-05-01T09:54:40.007Z</time></trkpt><trkpt lat="43.4712868" lon="10.5953789"><ele>445.6</ele><time>2026-05-01T09:54:41.027Z</time></trkpt><trkpt lat="43.4712029" lon="10.59534"><ele>447.2</ele><time>2026-05-01T09:54:42.029Z</time></trkpt><trkpt lat="43.4711044" lon="10.595303"><ele>448.80000000000007</ele><time>2026-05-01T09:54:43.027Z</time></trkpt><trkpt lat="43.4710049" lon="10.5952854"><ele>450.40000000000003</ele><time>2026-05-01T09:54:44.021Z</time></trkpt><trkpt lat="43.4709198" lon="10.5952654"><ele>452.0</ele><time>2026-05-01T09:54:45.02Z</time></trkpt><trkpt lat="43.4708486" lon="10.5952267"><ele>451.99999999999994</ele><time>2026-05-01T09:54:46.017Z</time></trkpt><trkpt lat="43.4707944" lon="10.5951598"><ele>452.0</ele><time>2026-05-01T09:54:47.025Z</time></trkpt><trkpt lat="43.4707538" lon="10.595077"><ele>452.0</ele><time>2026-05-01T09:54:48.019Z</time></trkpt><trkpt lat="43.4707407" lon="10.5949699"><ele>452.0</ele><time>2026-05-01T09:54:49.025Z</time></trkpt><trkpt lat="43.4707444" lon="10.5948574"><ele>451.99999999999994</ele><time>2026-05-01T09:54:50.027Z</time></trkpt><trkpt lat="43.4707605" lon="10.5947378"><ele>452.0</ele><time>2026-05-01T09:54:51.043Z</time></trkpt><trkpt lat="43.4707761" lon="10.5946246"><ele>452.0</ele><time>2026-05-01T09:54:52.02Z</time></trkpt><trkpt lat="43.4707646" lon="10.5945136"><ele>452.00000000000006</ele><time>2026-05-01T09:54:53.014Z</time></trkpt><trkpt lat="43.4707289" lon="10.5944082"><ele>452.00000000000006</ele><time>2026-05-01T09:54:54.013Z</time></trkpt><trkpt lat="43.4706686" lon="10.5943151"><ele>452.0</ele><time>2026-05-01T09:54:55.022Z</time></trkpt><trkpt lat="43.4705855" lon="10.5942132"><ele>452.0</ele><time>2026-05-01T09:54:56.028Z</time></trkpt><trkpt lat="43.4704776" lon="10.594095"><ele>453.25</ele><time>2026-05-01T09:54:57.023Z</time></trkpt><trkpt lat="43.4703722" lon="10.5939786"><ele>454.5</ele><time>2026-05-01T09:54:58.021Z</time></trkpt><trkpt lat="43.4702725" lon="10.5938638"><ele>455.75</ele><time>2026-05-01T09:54:59.021Z</time></trkpt><trkpt lat="43.4701832" lon="10.5937733"><ele>457.0</ele><time>2026-05-01T09:55:00.028Z</time></trkpt><trkpt lat="43.4701134" lon="10.5936998"><ele>457.00000000000006</ele><time>2026-05-01T09:55:01.019Z</time></trkpt><trkpt lat="43.4700464" lon="10.5936525"><ele>457.0</ele><time>2026-05-01T09:55:02.03Z</time></trkpt><trkpt lat="43.4699668" lon="10.5936394"><ele>457.0</ele><time>2026-05-01T09:55:03.014Z</time></trkpt><trkpt lat="43.4698842" lon="10.5936692"><ele>457.0</ele><time>2026-05-01T09:55:04.026Z</time></trkpt><trkpt lat="43.469798" lon="10.5937217"><ele>457.00000000000006</ele><time>2026-05-01T09:55:05.028Z</time></trkpt><trkpt lat="43.4697147" lon="10.5937956"><ele>457.0</ele><time>2026-05-01T09:55:06.037Z</time></trkpt><trkpt lat="43.4696332" lon="10.5938728"><ele>454.83333333333337</ele><time>2026-05-01T09:55:07.026Z</time></trkpt><trkpt lat="43.4695731" lon="10.5939503"><ele>452.6666666666667</ele><time>2026-05-01T09:55:08.034Z</time></trkpt><trkpt lat="43.4695317" lon="10.5940409"><ele>450.5</ele><time>2026-05-01T09:55:09.029Z</time></trkpt><trkpt lat="43.4694909" lon="10.594136"><ele>448.33333333333337</ele><time>2026-05-01T09:55:10.036Z</time></trkpt><trkpt lat="43.469461" lon="10.5942492"><ele>446.1666666666667</ele><time>2026-05-01T09:55:11.025Z</time></trkpt><trkpt lat="43.4694356" lon="10.5943924"><ele>444.0</ele><time>2026-05-01T09:55:12.025Z</time></trkpt><trkpt lat="43.4694126" lon="10.5945444"><ele>444.0</ele><time>2026-05-01T09:55:13.026Z</time></trkpt><trkpt lat="43.4693918" lon="10.594713"><ele>444.0</ele><time>2026-05-01T09:55:14.037Z</time></trkpt><trkpt lat="43.4693597" lon="10.5948765"><ele>444.0</ele><time>2026-05-01T09:55:15.031Z</time></trkpt><trkpt lat="43.4693237" lon="10.5950443"><ele>444.0</ele><time>2026-05-01T09:55:16.017Z</time></trkpt><trkpt lat="43.4692942" lon="10.5952253"><ele>448.0</ele><time>2026-05-01T09:55:17.032Z</time></trkpt><trkpt lat="43.4692647" lon="10.5954326"><ele>452.0</ele><time>2026-05-01T09:55:18.021Z</time></trkpt><trkpt lat="43.4692293" lon="10.595646"><ele>456.0</ele><time>2026-05-01T09:55:19.019Z</time></trkpt><trkpt lat="43.4691914" lon="10.5958313"><ele>456.0</ele><time>2026-05-01T09:55:20.021Z</time></trkpt><trkpt lat="43.4691727" lon="10.5959883"><ele>456.0</ele><time>2026-05-01T09:55:21.023Z</time></trkpt><trkpt lat="43.4691633" lon="10.5961333"><ele>456.0</ele><time>2026-05-01T09:55:22.031Z</time></trkpt><trkpt lat="43.4691659" lon="10.5962705"><ele>456.0</ele><time>2026-05-01T09:55:23.027Z</time></trkpt><trkpt lat="43.4691628" lon="10.5964196"><ele>456.0</ele><time>2026-05-01T09:55:24.026Z</time></trkpt><trkpt lat="43.4691591" lon="10.5965875"><ele>458.75</ele><time>2026-05-01T09:55:25.016Z</time></trkpt><trkpt lat="43.4691487" lon="10.5967501"><ele>461.5</ele><time>2026-05-01T09:55:26.014Z</time></trkpt><trkpt lat="43.4691248" lon="10.5968986"><ele>464.25</ele><time>2026-05-01T09:55:27.031Z</time></trkpt><trkpt lat="43.4691002" lon="10.5970637"><ele>467.0</ele><time>2026-05-01T09:55:28.019Z</time></trkpt><trkpt lat="43.4690657" lon="10.5972219"><ele>469.0</ele><time>2026-05-01T09:55:29.025Z</time></trkpt><trkpt lat="43.4690572" lon="10.5973539"><ele>471.00000000000006</ele><time>2026-05-01T09:55:30.014Z</time></trkpt><trkpt lat="43.469073" lon="10.5974587"><ele>473.00000000000006</ele><time>2026-05-01T09:55:31.024Z</time></trkpt><trkpt lat="43.469088" lon="10.5975508"><ele>475.0</ele><time>2026-05-01T09:55:32.031Z</time></trkpt><trkpt lat="43.469033" lon="10.5977365"><ele>477.0</ele><time>2026-05-01T09:55:34.03Z</time></trkpt><trkpt lat="43.4689721" lon="10.5978626"><ele>479.6</ele><time>2026-05-01T09:55:35.016Z</time></trkpt><trkpt lat="43.4689129" lon="10.5979766"><ele>482.20000000000005</ele><time>2026-05-01T09:55:36.021Z</time></trkpt><trkpt lat="43.4688741" lon="10.5981062"><ele>484.8</ele><time>2026-05-01T09:55:37.024Z</time></trkpt><trkpt lat="43.4688511" lon="10.598242"><ele>487.4</ele><time>2026-05-01T09:55:38.022Z</time></trkpt><trkpt lat="43.4688246" lon="10.5983541"><ele>490.0</ele><time>2026-05-01T09:55:39.021Z</time></trkpt><trkpt lat="43.4687954" lon="10.5984419"><ele>490.2</ele><time>2026-05-01T09:55:40.021Z</time></trkpt><trkpt lat="43.46873" lon="10.5985475"><ele>490.4</ele><time>2026-05-01T09:55:42.016Z</time></trkpt><trkpt lat="43.4686351" lon="10.5985572"><ele>490.6</ele><time>2026-05-01T09:55:44.019Z</time></trkpt><trkpt lat="43.4685655" lon="10.598437"><ele>490.8</ele><time>2026-05-01T09:55:46.017Z</time></trkpt><trkpt lat="43.4685384" lon="10.5983513"><ele>491.0</ele><time>2026-05-01T09:55:47.013Z</time></trkpt><trkpt lat="43.4685124" lon="10.5982354"><ele>491.0</ele><time>2026-05-01T09:55:48.023Z</time></trkpt><trkpt lat="43.4684799" lon="10.5980915"><ele>491.0</ele><time>2026-05-01T09:55:49.03Z</time></trkpt><trkpt lat="43.4684313" lon="10.5979487"><ele>491.0</ele><time>2026-05-01T09:55:50.019Z</time></trkpt><trkpt lat="43.468371" lon="10.5978638"><ele>491.0</ele><time>2026-05-01T09:55:51.023Z</time></trkpt><trkpt lat="43.4682988" lon="10.5978074"><ele>491.0</ele><time>2026-05-01T09:55:52.026Z</time></trkpt><trkpt lat="43.4682061" lon="10.5977542"><ele>493.0</ele><time>2026-05-01T09:55:53.018Z</time></trkpt><trkpt lat="43.4680971" lon="10.5977027"><ele>495.0</ele><time>2026-05-01T09:55:54.026Z</time></trkpt><trkpt lat="43.4680024" lon="10.5976475"><ele>497.0</ele><time>2026-05-01T09:55:55.021Z</time></trkpt><trkpt lat="43.4679356" lon="10.5976065"><ele>499.0</ele><time>2026-05-01T09:55:56.013Z</time></trkpt><trkpt lat="43.467879" lon="10.5975403"><ele>501.0</ele><time>2026-05-01T09:55:57.025Z</time></trkpt><trkpt lat="43.4678363" lon="10.5974396"><ele>501.0</ele><time>2026-05-01T09:55:58.034Z</time></trkpt><trkpt lat="43.4678097" lon="10.5972951"><ele>501.0</ele><time>2026-05-01T09:55:59.025Z</time></trkpt><trkpt lat="43.4677825" lon="10.5971094"><ele>501.0</ele><time>2026-05-01T09:56:00.03Z</time></trkpt><trkpt lat="43.4677503" lon="10.5969006"><ele>501.0</ele><time>2026-05-01T09:56:01.034Z</time></trkpt><trkpt lat="43.4677151" lon="10.5967044"><ele>498.75</ele><time>2026-05-01T09:56:02.032Z</time></trkpt><trkpt lat="43.4676703" lon="10.596535"><ele>496.5</ele><time>2026-05-01T09:56:03.021Z</time></trkpt><trkpt lat="43.4676332" lon="10.596372"><ele>494.25</ele><time>2026-05-01T09:56:04.022Z</time></trkpt><trkpt lat="43.4675897" lon="10.5962002"><ele>492.0</ele><time>2026-05-01T09:56:05.012Z</time></trkpt><trkpt lat="43.4675603" lon="10.5960311"><ele>490.8</ele><time>2026-05-01T09:56:06.022Z</time></trkpt><trkpt lat="43.4675507" lon="10.5958757"><ele>489.6</ele><time>2026-05-01T09:56:07.028Z</time></trkpt><trkpt lat="43.4675349" lon="10.5957442"><ele>488.40000000000003</ele><time>2026-05-01T09:56:08.034Z</time></trkpt><trkpt lat="43.4675222" lon="10.5955916"><ele>487.20000000000005</ele><time>2026-05-01T09:56:09.024Z</time></trkpt><trkpt lat="43.4675129" lon="10.5954228"><ele>486.0</ele><time>2026-05-01T09:56:10.024Z</time></trkpt><trkpt lat="43.4674968" lon="10.5952449"><ele>484.5</ele><time>2026-05-01T09:56:11.031Z</time></trkpt><trkpt lat="43.467479" lon="10.5950539"><ele>483.0</ele><time>2026-05-01T09:56:12.019Z</time></trkpt><trkpt lat="43.4674656" lon="10.5948743"><ele>481.5</ele><time>2026-05-01T09:56:13.031Z</time></trkpt><trkpt lat="43.4674483" lon="10.5947184"><ele>480.0</ele><time>2026-05-01T09:56:14.025Z</time></trkpt><trkpt lat="43.4674321" lon="10.5945791"><ele>477.2</ele><time>2026-05-01T09:56:15.017Z</time></trkpt><trkpt lat="43.467394" lon="10.5944374"><ele>474.4</ele><time>2026-05-01T09:56:16.027Z</time></trkpt><trkpt lat="43.4673449" lon="10.5942897"><ele>471.6</ele><time>2026-05-01T09:56:17.02Z</time></trkpt><trkpt lat="43.4672965" lon="10.5941592"><ele>468.8</ele><time>2026-05-01T09:56:18.032Z</time></trkpt><trkpt lat="43.4672418" lon="10.5940451"><ele>466.0</ele><time>2026-05-01T09:56:19.021Z</time></trkpt><trkpt lat="43.4671863" lon="10.5939685"><ele>466.0</ele><time>2026-05-01T09:56:20.031Z</time></trkpt><trkpt lat="43.4671361" lon="10.5939139"><ele>466.0</ele><time>2026-05-01T09:56:21.017Z</time></trkpt><trkpt lat="43.4670587" lon="10.5938964"><ele>466.0</ele><time>2026-05-01T09:56:22.022Z</time></trkpt><trkpt lat="43.4669777" lon="10.5938845"><ele>466.0</ele><time>2026-05-01T09:56:23.022Z</time></trkpt><trkpt lat="43.4669061" lon="10.5938464"><ele>466.0</ele><time>2026-05-01T09:56:24.026Z</time></trkpt><trkpt lat="43.466854" lon="10.5937681"><ele>466.0</ele><time>2026-05-01T09:56:25.025Z</time></trkpt><trkpt lat="43.4668384" lon="10.5936742"><ele>466.0</ele><time>2026-05-01T09:56:26.023Z</time></trkpt><trkpt lat="43.4668183" lon="10.5935681"><ele>469.4</ele><time>2026-05-01T09:56:27.02Z</time></trkpt><trkpt lat="43.4667821" lon="10.5934506"><ele>472.8</ele><time>2026-05-01T09:56:28.025Z</time></trkpt><trkpt lat="43.4667326" lon="10.5933333"><ele>476.19999999999993</ele><time>2026-05-01T09:56:29.03Z</time></trkpt><trkpt lat="43.4666599" lon="10.5932369"><ele>479.59999999999997</ele><time>2026-05-01T09:56:30.02Z</time></trkpt><trkpt lat="43.4665782" lon="10.5931537"><ele>483.0</ele><time>2026-05-01T09:56:31.029Z</time></trkpt><trkpt lat="43.4665094" lon="10.5930931"><ele>483.0</ele><time>2026-05-01T09:56:32.027Z</time></trkpt><trkpt lat="43.4664303" lon="10.593061"><ele>483.0</ele><time>2026-05-01T09:56:33.031Z</time></trkpt><trkpt lat="43.4663609" lon="10.5930536"><ele>483.0</ele><time>2026-05-01T09:56:34.031Z</time></trkpt><trkpt lat="43.4662987" lon="10.5930761"><ele>483.0</ele><time>2026-05-01T09:56:35.021Z</time></trkpt><trkpt lat="43.4662374" lon="10.593104"><ele>483.0</ele><time>2026-05-01T09:56:36.03Z</time></trkpt><trkpt lat="43.4661686" lon="10.5931384"><ele>483.0</ele><time>2026-05-01T09:56:37.028Z</time></trkpt><trkpt lat="43.4660984" lon="10.5931672"><ele>483.0</ele><time>2026-05-01T09:56:38.027Z</time></trkpt><trkpt lat="43.4659817" lon="10.5931251"><ele>481.59999999999997</ele><time>2026-05-01T09:56:40.031Z</time></trkpt><trkpt lat="43.4659095" lon="10.593045"><ele>480.19999999999993</ele><time>2026-05-01T09:56:41.031Z</time></trkpt><trkpt lat="43.4658325" lon="10.5929505"><ele>478.8</ele><time>2026-05-01T09:56:42.022Z</time></trkpt><trkpt lat="43.465752" lon="10.5928755"><ele>477.4</ele><time>2026-05-01T09:56:43.021Z</time></trkpt><trkpt lat="43.4656395" lon="10.5928364"><ele>476.0</ele><time>2026-05-01T09:56:44.031Z</time></trkpt><trkpt lat="43.4655381" lon="10.5928301"><ele>477.20000000000005</ele><time>2026-05-01T09:56:45.025Z</time></trkpt><trkpt lat="43.4654197" lon="10.5928429"><ele>478.40000000000003</ele><time>2026-05-01T09:56:46.02Z</time></trkpt><trkpt lat="43.4652967" lon="10.5928543"><ele>479.6</ele><time>2026-05-01T09:56:47.03Z</time></trkpt><trkpt lat="43.4651913" lon="10.5928429"><ele>480.8</ele><time>2026-05-01T09:56:48.03Z</time></trkpt><trkpt lat="43.4651121" lon="10.5928309"><ele>482.0</ele><time>2026-05-01T09:56:49.031Z</time></trkpt><trkpt lat="43.4650297" lon="10.5928578"><ele>484.3333333333333</ele><time>2026-05-01T09:56:50.032Z</time></trkpt><trkpt lat="43.4649458" lon="10.5929104"><ele>486.66666666666663</ele><time>2026-05-01T09:56:51.025Z</time></trkpt><trkpt lat="43.4648715" lon="10.5929823"><ele>489.0</ele><time>2026-05-01T09:56:52.016Z</time></trkpt><trkpt lat="43.4648115" lon="10.5930697"><ele>491.33333333333337</ele><time>2026-05-01T09:56:53.035Z</time></trkpt><trkpt lat="43.4647609" lon="10.5931439"><ele>493.6666666666667</ele><time>2026-05-01T09:56:54.027Z</time></trkpt><trkpt lat="43.4646996" lon="10.5931955"><ele>496.0</ele><time>2026-05-01T09:56:55.035Z</time></trkpt><trkpt lat="43.4646089" lon="10.5931781"><ele>496.0</ele><time>2026-05-01T09:56:57.025Z</time></trkpt><trkpt lat="43.4645454" lon="10.5930451"><ele>496.0</ele><time>2026-05-01T09:56:59.033Z</time></trkpt><trkpt lat="43.4644785" lon="10.5929238"><ele>496.0</ele><time>2026-05-01T09:57:01.031Z</time></trkpt><trkpt lat="43.4643975" lon="10.5928802"><ele>496.0</ele><time>2026-05-01T09:57:03.032Z</time></trkpt><trkpt lat="43.4643271" lon="10.5929311"><ele>496.0</ele><time>2026-05-01T09:57:05.033Z</time></trkpt><trkpt lat="43.4643074" lon="10.5930368"><ele>496.0</ele><time>2026-05-01T09:57:08.026Z</time></trkpt><trkpt lat="43.4643393" lon="10.5931286"><ele>496.0</ele><time>2026-05-01T09:57:10.027Z</time></trkpt><trkpt lat="43.4644073" lon="10.5932435"><ele>496.0</ele><time>2026-05-01T09:57:12.021Z</time></trkpt><trkpt lat="43.4644665" lon="10.5933192"><ele>496.0</ele><time>2026-05-01T09:57:13.035Z</time></trkpt><trkpt lat="43.4645433" lon="10.593404"><ele>496.0</ele><time>2026-05-01T09:57:14.023Z</time></trkpt><trkpt lat="43.4646332" lon="10.5934801"><ele>496.20000000000005</ele><time>2026-05-01T09:57:15.023Z</time></trkpt><trkpt lat="43.4647183" lon="10.5935616"><ele>496.40000000000003</ele><time>2026-05-01T09:57:16.022Z</time></trkpt><trkpt lat="43.4648027" lon="10.5936489"><ele>496.6</ele><time>2026-05-01T09:57:17.027Z</time></trkpt><trkpt lat="43.4648751" lon="10.5937345"><ele>496.8</ele><time>2026-05-01T09:57:18.029Z</time></trkpt><trkpt lat="43.4649484" lon="10.5938165"><ele>497.0</ele><time>2026-05-01T09:57:19.024Z</time></trkpt><trkpt lat="43.4650158" lon="10.5938956"><ele>498.3333333333333</ele><time>2026-05-01T09:57:20.026Z</time></trkpt><trkpt lat="43.4650717" lon="10.5939846"><ele>499.66666666666663</ele><time>2026-05-01T09:57:21.037Z</time></trkpt><trkpt lat="43.4651211" lon="10.5940849"><ele>501.0</ele><time>2026-05-01T09:57:22.028Z</time></trkpt><trkpt lat="43.465152" lon="10.5941904"><ele>502.33333333333337</ele><time>2026-05-01T09:57:23.034Z</time></trkpt><trkpt lat="43.4651677" lon="10.5942982"><ele>503.6666666666667</ele><time>2026-05-01T09:57:24.025Z</time></trkpt><trkpt lat="43.4651721" lon="10.5944267"><ele>505.0</ele><time>2026-05-01T09:57:25.048Z</time></trkpt><trkpt lat="43.4651629" lon="10.5945679"><ele>505.00000000000006</ele><time>2026-05-01T09:57:26.025Z</time></trkpt><trkpt lat="43.4651579" lon="10.5946938"><ele>505.0</ele><time>2026-05-01T09:57:27.03Z</time></trkpt><trkpt lat="43.4651543" lon="10.594816"><ele>505.0</ele><time>2026-05-01T09:57:28.034Z</time></trkpt><trkpt lat="43.4651569" lon="10.5949177"><ele>505.0</ele><time>2026-05-01T09:57:29.036Z</time></trkpt><trkpt lat="43.4651683" lon="10.5950211"><ele>505.00000000000006</ele><time>2026-05-01T09:57:30.022Z</time></trkpt><trkpt lat="43.4651872" lon="10.5951284"><ele>505.0</ele><time>2026-05-01T09:57:31.027Z</time></trkpt><trkpt lat="43.4652132" lon="10.5952337"><ele>505.00000000000006</ele><time>2026-05-01T09:57:32.027Z</time></trkpt><trkpt lat="43.4652486" lon="10.595335"><ele>505.0</ele><time>2026-05-01T09:57:33.023Z</time></trkpt><trkpt lat="43.4652915" lon="10.5954451"><ele>505.0</ele><time>2026-05-01T09:57:34.03Z</time></trkpt><trkpt lat="43.4653373" lon="10.5955578"><ele>505.0</ele><time>2026-05-01T09:57:35.026Z</time></trkpt><trkpt lat="43.465383" lon="10.5956658"><ele>505.00000000000006</ele><time>2026-05-01T09:57:36.038Z</time></trkpt><trkpt lat="43.465428" lon="10.5957619"><ele>505.0</ele><time>2026-05-01T09:57:37.038Z</time></trkpt><trkpt lat="43.4654742" lon="10.5958445"><ele>504.50000000000006</ele><time>2026-05-01T09:57:38.032Z</time></trkpt><trkpt lat="43.4654765" lon="10.5959702"><ele>504.0</ele><time>2026-05-01T09:57:40.03Z</time></trkpt><trkpt lat="43.4654418" lon="10.5960753"><ele>503.5</ele><time>2026-05-01T09:57:42.035Z</time></trkpt><trkpt lat="43.4653808" lon="10.5961075"><ele>503.0</ele><time>2026-05-01T09:57:43.025Z</time></trkpt><trkpt lat="43.4653085" lon="10.5961179"><ele>502.50000000000006</ele><time>2026-05-01T09:57:44.027Z</time></trkpt><trkpt lat="43.4652276" lon="10.596131"><ele>502.0</ele><time>2026-05-01T09:57:45.032Z</time></trkpt><trkpt lat="43.4651422" lon="10.5961296"><ele>502.00000000000006</ele><time>2026-05-01T09:57:46.019Z</time></trkpt><trkpt lat="43.4650575" lon="10.5961356"><ele>502.0</ele><time>2026-05-01T09:57:47.032Z</time></trkpt><trkpt lat="43.4649802" lon="10.5961811"><ele>502.0</ele><time>2026-05-01T09:57:48.021Z</time></trkpt><trkpt lat="43.4649168" lon="10.5962473"><ele>502.0</ele><time>2026-05-01T09:57:49.032Z</time></trkpt><trkpt lat="43.4648683" lon="10.5963409"><ele>502.00000000000006</ele><time>2026-05-01T09:57:50.027Z</time></trkpt><trkpt lat="43.4648227" lon="10.5964503"><ele>502.0</ele><time>2026-05-01T09:57:51.027Z</time></trkpt><trkpt lat="43.4647674" lon="10.5965784"><ele>503.0</ele><time>2026-05-01T09:57:52.029Z</time></trkpt><trkpt lat="43.4647018" lon="10.5967451"><ele>504.0</ele><time>2026-05-01T09:57:53.027Z</time></trkpt><trkpt lat="43.4646399" lon="10.5969603"><ele>505.0</ele><time>2026-05-01T09:57:54.031Z</time></trkpt><trkpt lat="43.4645877" lon="10.5971782"><ele>501.75</ele><time>2026-05-01T09:57:55.032Z</time></trkpt><trkpt lat="43.464545" lon="10.5973768"><ele>498.5</ele><time>2026-05-01T09:57:56.033Z</time></trkpt><trkpt lat="43.4645095" lon="10.5975415"><ele>495.25</ele><time>2026-05-01T09:57:57.029Z</time></trkpt><trkpt lat="43.4644674" lon="10.5976884"><ele>492.0</ele><time>2026-05-01T09:57:58.031Z</time></trkpt><trkpt lat="43.464428" lon="10.5978017"><ele>494.20000000000005</ele><time>2026-05-01T09:57:59.034Z</time></trkpt><trkpt lat="43.4643772" lon="10.5979009"><ele>496.40000000000003</ele><time>2026-05-01T09:58:00.031Z</time></trkpt><trkpt lat="43.4643199" lon="10.5979718"><ele>498.59999999999997</ele><time>2026-05-01T09:58:01.019Z</time></trkpt><trkpt lat="43.4642353" lon="10.5979925"><ele>500.79999999999995</ele><time>2026-05-01T09:58:02.022Z</time></trkpt><trkpt lat="43.4641246" lon="10.5979997"><ele>503.0</ele><time>2026-05-01T09:58:03.027Z</time></trkpt><trkpt lat="43.464002" lon="10.5979925"><ele>502.99999999999994</ele><time>2026-05-01T09:58:04.018Z</time></trkpt><trkpt lat="43.4639011" lon="10.5980022"><ele>503.0</ele><time>2026-05-01T09:58:05.031Z</time></trkpt><trkpt lat="43.463824" lon="10.5980534"><ele>503.0</ele><time>2026-05-01T09:58:06.028Z</time></trkpt><trkpt lat="43.4637537" lon="10.5981167"><ele>503.0</ele><time>2026-05-01T09:58:07.025Z</time></trkpt><trkpt lat="43.4636979" lon="10.5982057"><ele>502.99999999999994</ele><time>2026-05-01T09:58:08.032Z</time></trkpt><trkpt lat="43.4636557" lon="10.5983096"><ele>503.0</ele><time>2026-05-01T09:58:09.028Z</time></trkpt><trkpt lat="43.463615" lon="10.5984432"><ele>496.75</ele><time>2026-05-01T09:58:10.033Z</time></trkpt><trkpt lat="43.4636002" lon="10.5986142"><ele>490.5</ele><time>2026-05-01T09:58:11.032Z</time></trkpt><trkpt lat="43.4636071" lon="10.5988259"><ele>484.25</ele><time>2026-05-01T09:58:12.035Z</time></trkpt><trkpt lat="43.4636197" lon="10.5990413"><ele>478.0</ele><time>2026-05-01T09:58:13.037Z</time></trkpt><trkpt lat="43.4636274" lon="10.5992331"><ele>478.0</ele><time>2026-05-01T09:58:14.026Z</time></trkpt><trkpt lat="43.4636313" lon="10.599422"><ele>478.0</ele><time>2026-05-01T09:58:15.029Z</time></trkpt><trkpt lat="43.4636331" lon="10.5996192"><ele>478.0</ele><time>2026-05-01T09:58:16.029Z</time></trkpt><trkpt lat="43.4636437" lon="10.5998186"><ele>478.0</ele><time>2026-05-01T09:58:17.031Z</time></trkpt><trkpt lat="43.4636521" lon="10.6000204"><ele>477.25</ele><time>2026-05-01T09:58:18.027Z</time></trkpt><trkpt lat="43.4636667" lon="10.6002194"><ele>476.5</ele><time>2026-05-01T09:58:19.029Z</time></trkpt><trkpt lat="43.4636857" lon="10.6004069"><ele>475.75</ele><time>2026-05-01T09:58:20.023Z</time></trkpt><trkpt lat="43.4636969" lon="10.6005651"><ele>475.0</ele><time>2026-05-01T09:58:21.034Z</time></trkpt><trkpt lat="43.4637085" lon="10.6007126"><ele>474.6666666666667</ele><time>2026-05-01T09:58:22.025Z</time></trkpt><trkpt lat="43.4637279" lon="10.6008445"><ele>474.33333333333337</ele><time>2026-05-01T09:58:23.042Z</time></trkpt><trkpt lat="43.4637508" lon="10.6009642"><ele>474.0</ele><time>2026-05-01T09:58:24.036Z</time></trkpt><trkpt lat="43.4637826" lon="10.6010666"><ele>473.66666666666663</ele><time>2026-05-01T09:58:25.034Z</time></trkpt><trkpt lat="43.4638249" lon="10.6011429"><ele>473.3333333333333</ele><time>2026-05-01T09:58:26.03Z</time></trkpt><trkpt lat="43.4638826" lon="10.6011921"><ele>473.0</ele><time>2026-05-01T09:58:27.024Z</time></trkpt><trkpt lat="43.4639483" lon="10.6012185"><ele>473.8333333333333</ele><time>2026-05-01T09:58:28.031Z</time></trkpt><trkpt lat="43.4640177" lon="10.6012313"><ele>474.66666666666663</ele><time>2026-05-01T09:58:29.028Z</time></trkpt><trkpt lat="43.4640881" lon="10.6012243"><ele>475.5</ele><time>2026-05-01T09:58:30.017Z</time></trkpt><trkpt lat="43.464157" lon="10.6012133"><ele>476.33333333333337</ele><time>2026-05-01T09:58:31.022Z</time></trkpt><trkpt lat="43.4642246" lon="10.6012052"><ele>477.1666666666667</ele><time>2026-05-01T09:58:32.019Z</time></trkpt><trkpt lat="43.4643046" lon="10.6012582"><ele>478.0</ele><time>2026-05-01T09:58:34.027Z</time></trkpt><trkpt lat="43.4643129" lon="10.6014017"><ele>478.0</ele><time>2026-05-01T09:58:36.024Z</time></trkpt><trkpt lat="43.4642998" lon="10.601518"><ele>477.99999999999994</ele><time>2026-05-01T09:58:37.025Z</time></trkpt><trkpt lat="43.4642667" lon="10.6016345"><ele>477.99999999999994</ele><time>2026-05-01T09:58:38.024Z</time></trkpt><trkpt lat="43.4642325" lon="10.6017563"><ele>478.0</ele><time>2026-05-01T09:58:39.036Z</time></trkpt><trkpt lat="43.464175" lon="10.6018708"><ele>478.0</ele><time>2026-05-01T09:58:40.03Z</time></trkpt><trkpt lat="43.4640898" lon="10.6019777"><ele>479.75</ele><time>2026-05-01T09:58:41.022Z</time></trkpt><trkpt lat="43.4639869" lon="10.6020952"><ele>481.5</ele><time>2026-05-01T09:58:42.025Z</time></trkpt><trkpt lat="43.4639048" lon="10.6021998"><ele>483.25</ele><time>2026-05-01T09:58:43.021Z</time></trkpt><trkpt lat="43.4638253" lon="10.6023125"><ele>485.0</ele><time>2026-05-01T09:58:44.026Z</time></trkpt><trkpt lat="43.463758" lon="10.6024282"><ele>478.0</ele><time>2026-05-01T09:58:45.029Z</time></trkpt><trkpt lat="43.4637001" lon="10.6025495"><ele>471.0</ele><time>2026-05-01T09:58:46.027Z</time></trkpt><trkpt lat="43.4636534" lon="10.6026546"><ele>464.0</ele><time>2026-05-01T09:58:47.022Z</time></trkpt><trkpt lat="43.4636328" lon="10.6027746"><ele>457.0</ele><time>2026-05-01T09:58:48.025Z</time></trkpt><trkpt lat="43.4636364" lon="10.6028834"><ele>450.0</ele><time>2026-05-01T09:58:49.022Z</time></trkpt><trkpt lat="43.4636611" lon="10.6030061"><ele>449.8</ele><time>2026-05-01T09:58:50.027Z</time></trkpt><trkpt lat="43.4637059" lon="10.6031309"><ele>449.6</ele><time>2026-05-01T09:58:51.026Z</time></trkpt><trkpt lat="43.4637541" lon="10.603255"><ele>449.4</ele><time>2026-05-01T09:58:52.024Z</time></trkpt><trkpt lat="43.4638133" lon="10.603377"><ele>449.2</ele><time>2026-05-01T09:58:53.022Z</time></trkpt><trkpt lat="43.4638714" lon="10.6035123"><ele>449.0</ele><time>2026-05-01T09:58:54.027Z</time></trkpt><trkpt lat="43.4639328" lon="10.6036473"><ele>452.99999999999994</ele><time>2026-05-01T09:58:55.018Z</time></trkpt><trkpt lat="43.4639945" lon="10.603761"><ele>457.0</ele><time>2026-05-01T09:58:56.022Z</time></trkpt><trkpt lat="43.4640533" lon="10.6038693"><ele>461.0</ele><time>2026-05-01T09:58:57.026Z</time></trkpt><trkpt lat="43.4641054" lon="10.603968"><ele>465.0</ele><time>2026-05-01T09:58:58.021Z</time></trkpt><trkpt lat="43.4641594" lon="10.6040495"><ele>468.99999999999994</ele><time>2026-05-01T09:58:59.018Z</time></trkpt><trkpt lat="43.4641953" lon="10.6041336"><ele>473.0</ele><time>2026-05-01T09:59:00.023Z</time></trkpt><trkpt lat="43.4642083" lon="10.6042267"><ele>473.0</ele><time>2026-05-01T09:59:01.024Z</time></trkpt><trkpt lat="43.4641944" lon="10.6043806"><ele>472.99999999999994</ele><time>2026-05-01T09:59:03.03Z</time></trkpt><trkpt lat="43.4641038" lon="10.6044829"><ele>472.99999999999994</ele><time>2026-05-01T09:59:05.019Z</time></trkpt><trkpt lat="43.4640398" lon="10.60449"><ele>473.0</ele><time>2026-05-01T09:59:06.018Z</time></trkpt><trkpt lat="43.4639659" lon="10.6044644"><ele>473.0</ele><time>2026-05-01T09:59:07.021Z</time></trkpt><trkpt lat="43.4638668" lon="10.6044138"><ele>469.75</ele><time>2026-05-01T09:59:08.019Z</time></trkpt><trkpt lat="43.4637489" lon="10.6043268"><ele>466.5</ele><time>2026-05-01T09:59:09.018Z</time></trkpt><trkpt lat="43.4636196" lon="10.6042288"><ele>463.25</ele><time>2026-05-01T09:59:10.033Z</time></trkpt><trkpt lat="43.4634941" lon="10.6041482"><ele>460.0</ele><time>2026-05-01T09:59:11.013Z</time></trkpt><trkpt lat="43.4633957" lon="10.6040844"><ele>460.0</ele><time>2026-05-01T09:59:12.027Z</time></trkpt><trkpt lat="43.4633007" lon="10.604016"><ele>460.0</ele><time>2026-05-01T09:59:13.023Z</time></trkpt><trkpt lat="43.4632006" lon="10.6039532"><ele>460.0</ele><time>2026-05-01T09:59:14.029Z</time></trkpt><trkpt lat="43.4631063" lon="10.6038986"><ele>460.0</ele><time>2026-05-01T09:59:15.016Z</time></trkpt><trkpt lat="43.4630201" lon="10.6038413"><ele>460.0</ele><time>2026-05-01T09:59:16.029Z</time></trkpt><trkpt lat="43.4629405" lon="10.6037982"><ele>457.6666666666667</ele><time>2026-05-01T09:59:17.017Z</time></trkpt><trkpt lat="43.4628612" lon="10.6037636"><ele>455.33333333333337</ele><time>2026-05-01T09:59:18.018Z</time></trkpt><trkpt lat="43.4627849" lon="10.6037412"><ele>453.0</ele><time>2026-05-01T09:59:19.016Z</time></trkpt><trkpt lat="43.4627174" lon="10.6037191"><ele>450.66666666666663</ele><time>2026-05-01T09:59:20.023Z</time></trkpt><trkpt lat="43.4626449" lon="10.603716"><ele>448.3333333333333</ele><time>2026-05-01T09:59:21.014Z</time></trkpt><trkpt lat="43.4625712" lon="10.6037365"><ele>446.0</ele><time>2026-05-01T09:59:22.031Z</time></trkpt><trkpt lat="43.4625113" lon="10.6037919"><ele>446.0</ele><time>2026-05-01T09:59:23.025Z</time></trkpt><trkpt lat="43.462458" lon="10.6038725"><ele>446.0</ele><time>2026-05-01T09:59:24.021Z</time></trkpt><trkpt lat="43.4624055" lon="10.6039697"><ele>446.0</ele><time>2026-05-01T09:59:25.018Z</time></trkpt><trkpt lat="43.4623485" lon="10.6040791"><ele>446.0</ele><time>2026-05-01T09:59:26.021Z</time></trkpt><trkpt lat="43.4622847" lon="10.6042081"><ele>446.0</ele><time>2026-05-01T09:59:27.006Z</time></trkpt><trkpt lat="43.4622218" lon="10.6043481"><ele>446.0</ele><time>2026-05-01T09:59:28.02Z</time></trkpt><trkpt lat="43.4621564" lon="10.6044873"><ele>446.0</ele><time>2026-05-01T09:59:29.024Z</time></trkpt><trkpt lat="43.462088" lon="10.6046401"><ele>446.0</ele><time>2026-05-01T09:59:30.028Z</time></trkpt><trkpt lat="43.4620101" lon="10.604801"><ele>446.0</ele><time>2026-05-01T09:59:31.018Z</time></trkpt><trkpt lat="43.4619401" lon="10.6049399"><ele>444.99999999999994</ele><time>2026-05-01T09:59:32.019Z</time></trkpt><trkpt lat="43.4618789" lon="10.6050602"><ele>444.0</ele><time>2026-05-01T09:59:33.025Z</time></trkpt><trkpt lat="43.4618276" lon="10.6051698"><ele>443.0</ele><time>2026-05-01T09:59:34.029Z</time></trkpt><trkpt lat="43.4617887" lon="10.6052684"><ele>442.0</ele><time>2026-05-01T09:59:35.029Z</time></trkpt><trkpt lat="43.461752" lon="10.605359"><ele>440.99999999999994</ele><time>2026-05-01T09:59:36.019Z</time></trkpt><trkpt lat="43.4617217" lon="10.6054403"><ele>440.0</ele><time>2026-05-01T09:59:37.02Z</time></trkpt><trkpt lat="43.4616889" lon="10.6055365"><ele>439.99999999999994</ele><time>2026-05-01T09:59:38.022Z</time></trkpt><trkpt lat="43.4616512" lon="10.6056332"><ele>440.0</ele><time>2026-05-01T09:59:39.03Z</time></trkpt><trkpt lat="43.4616062" lon="10.6057324"><ele>440.0</ele><time>2026-05-01T09:59:40.021Z</time></trkpt><trkpt lat="43.4615488" lon="10.6058214"><ele>440.0</ele><time>2026-05-01T09:59:41.032Z</time></trkpt><trkpt lat="43.4614912" lon="10.6059118"><ele>439.99999999999994</ele><time>2026-05-01T09:59:42.021Z</time></trkpt><trkpt lat="43.4614361" lon="10.6060021"><ele>440.0</ele><time>2026-05-01T09:59:43.02Z</time></trkpt><trkpt lat="43.4613727" lon="10.6060993"><ele>442.4</ele><time>2026-05-01T09:59:44.027Z</time></trkpt><trkpt lat="43.4613096" lon="10.6062046"><ele>444.8</ele><time>2026-05-01T09:59:45.032Z</time></trkpt><trkpt lat="43.4612489" lon="10.6063132"><ele>447.20000000000005</ele><time>2026-05-01T09:59:46.024Z</time></trkpt><trkpt lat="43.4611931" lon="10.606407"><ele>449.6</ele><time>2026-05-01T09:59:47.027Z</time></trkpt><trkpt lat="43.4611457" lon="10.6065112"><ele>452.0</ele><time>2026-05-01T09:59:48.031Z</time></trkpt><trkpt lat="43.4611166" lon="10.6066186"><ele>448.8</ele><time>2026-05-01T09:59:49.033Z</time></trkpt><trkpt lat="43.4610966" lon="10.6067247"><ele>445.6</ele><time>2026-05-01T09:59:50.024Z</time></trkpt><trkpt lat="43.461095" lon="10.6068517"><ele>442.40000000000003</ele><time>2026-05-01T09:59:51.028Z</time></trkpt><trkpt lat="43.461107" lon="10.6069933"><ele>439.20000000000005</ele><time>2026-05-01T09:59:52.02Z</time></trkpt><trkpt lat="43.4611085" lon="10.6071481"><ele>436.0</ele><time>2026-05-01T09:59:53.02Z</time></trkpt><trkpt lat="43.4611065" lon="10.6073183"><ele>436.0</ele><time>2026-05-01T09:59:54.019Z</time></trkpt><trkpt lat="43.4610987" lon="10.6075077"><ele>436.0</ele><time>2026-05-01T09:59:55.032Z</time></trkpt><trkpt lat="43.4610889" lon="10.6076902"><ele>436.0</ele><time>2026-05-01T09:59:56.02Z</time></trkpt><trkpt lat="43.4610724" lon="10.6078564"><ele>436.0</ele><time>2026-05-01T09:59:57.014Z</time></trkpt><trkpt lat="43.4610586" lon="10.6079927"><ele>437.50000000000006</ele><time>2026-05-01T09:59:58.018Z</time></trkpt><trkpt lat="43.4610371" lon="10.6081161"><ele>439.0</ele><time>2026-05-01T09:59:59.022Z</time></trkpt><trkpt lat="43.4610129" lon="10.6082211"><ele>440.5</ele><time>2026-05-01T10:00:00.022Z</time></trkpt><trkpt lat="43.4609714" lon="10.6083138"><ele>442.0</ele><time>2026-05-01T10:00:01.023Z</time></trkpt><trkpt lat="43.4609131" lon="10.6083947"><ele>443.50000000000006</ele><time>2026-05-01T10:00:02.021Z</time></trkpt><trkpt lat="43.4608394" lon="10.6084368"><ele>445.0</ele><time>2026-05-01T10:00:03.027Z</time></trkpt><trkpt lat="43.4607527" lon="10.6084461"><ele>445.00000000000006</ele><time>2026-05-01T10:00:04.026Z</time></trkpt><trkpt lat="43.4606713" lon="10.6084576"><ele>445.0</ele><time>2026-05-01T10:00:05.019Z</time></trkpt><trkpt lat="43.4605945" lon="10.6084097"><ele>445.0</ele><time>2026-05-01T10:00:06.025Z</time></trkpt><trkpt lat="43.46052" lon="10.6083212"><ele>445.0</ele><time>2026-05-01T10:00:07.029Z</time></trkpt><trkpt lat="43.4604558" lon="10.6082418"><ele>445.00000000000006</ele><time>2026-05-01T10:00:08.023Z</time></trkpt><trkpt lat="43.4603963" lon="10.6081805"><ele>445.0</ele><time>2026-05-01T10:00:09.015Z</time></trkpt><trkpt lat="43.4602905" lon="10.60814"><ele>442.83333333333337</ele><time>2026-05-01T10:00:11.024Z</time></trkpt><trkpt lat="43.4602202" lon="10.6081623"><ele>440.6666666666667</ele><time>2026-05-01T10:00:12.024Z</time></trkpt><trkpt lat="43.4601191" lon="10.6082505"><ele>438.5</ele><time>2026-05-01T10:00:14.018Z</time></trkpt><trkpt lat="43.460083" lon="10.6083221"><ele>436.33333333333337</ele><time>2026-05-01T10:00:15.028Z</time></trkpt><trkpt lat="43.4600445" lon="10.6084032"><ele>434.1666666666667</ele><time>2026-05-01T10:00:16.015Z</time></trkpt><trkpt lat="43.4600041" lon="10.6084838"><ele>432.0</ele><time>2026-05-01T10:00:17.027Z</time></trkpt><trkpt lat="43.4599819" lon="10.6085951"><ele>434.40000000000003</ele><time>2026-05-01T10:00:18.028Z</time></trkpt><trkpt lat="43.4599683" lon="10.6087186"><ele>436.80000000000007</ele><time>2026-05-01T10:00:19.022Z</time></trkpt><trkpt lat="43.4599559" lon="10.6088537"><ele>439.2</ele><time>2026-05-01T10:00:20.024Z</time></trkpt><trkpt lat="43.4599225" lon="10.608991"><ele>441.6</ele><time>2026-05-01T10:00:21.023Z</time></trkpt><trkpt lat="43.4598482" lon="10.6091546"><ele>444.0</ele><time>2026-05-01T10:00:22.03Z</time></trkpt><trkpt lat="43.4597631" lon="10.6093361"><ele>441.75</ele><time>2026-05-01T10:00:23.024Z</time></trkpt><trkpt lat="43.4596819" lon="10.6095282"><ele>439.5</ele><time>2026-05-01T10:00:24.019Z</time></trkpt><trkpt lat="43.4596291" lon="10.6096881"><ele>437.25</ele><time>2026-05-01T10:00:25.033Z</time></trkpt><trkpt lat="43.4595724" lon="10.6098238"><ele>435.0</ele><time>2026-05-01T10:00:26.016Z</time></trkpt><trkpt lat="43.4595203" lon="10.6099598"><ele>435.0</ele><time>2026-05-01T10:00:27.025Z</time></trkpt><trkpt lat="43.4594671" lon="10.61008"><ele>435.0</ele><time>2026-05-01T10:00:28.028Z</time></trkpt><trkpt lat="43.4594172" lon="10.6102035"><ele>435.0</ele><time>2026-05-01T10:00:29.018Z</time></trkpt><trkpt lat="43.4593579" lon="10.6103306"><ele>435.0</ele><time>2026-05-01T10:00:30.019Z</time></trkpt><trkpt lat="43.4592958" lon="10.6104529"><ele>435.0</ele><time>2026-05-01T10:00:31.037Z</time></trkpt><trkpt lat="43.459232" lon="10.6105796"><ele>437.0</ele><time>2026-05-01T10:00:32.017Z</time></trkpt><trkpt lat="43.459175" lon="10.6106917"><ele>439.0</ele><time>2026-05-01T10:00:33.026Z</time></trkpt><trkpt lat="43.4591093" lon="10.6107781"><ele>441.0</ele><time>2026-05-01T10:00:34.025Z</time></trkpt><trkpt lat="43.4590328" lon="10.6108599"><ele>443.0</ele><time>2026-05-01T10:00:35.032Z</time></trkpt><trkpt lat="43.4589452" lon="10.6109297"><ele>445.0</ele><time>2026-05-01T10:00:36.034Z</time></trkpt><trkpt lat="43.4588518" lon="10.6110259"><ele>443.4</ele><time>2026-05-01T10:00:37.027Z</time></trkpt><trkpt lat="43.4587471" lon="10.611136"><ele>441.8</ele><time>2026-05-01T10:00:38.04Z</time></trkpt><trkpt lat="43.4586632" lon="10.6112237"><ele>440.20000000000005</ele><time>2026-05-01T10:00:39.028Z</time></trkpt><trkpt lat="43.4585962" lon="10.611314"><ele>438.6</ele><time>2026-05-01T10:00:40.03Z</time></trkpt><trkpt lat="43.4585399" lon="10.611405"><ele>437.0</ele><time>2026-05-01T10:00:41.028Z</time></trkpt><trkpt lat="43.4584895" lon="10.6114918"><ele>436.99999999999994</ele><time>2026-05-01T10:00:42.026Z</time></trkpt><trkpt lat="43.4584463" lon="10.6115579"><ele>437.0</ele><time>2026-05-01T10:00:43.022Z</time></trkpt><trkpt lat="43.4583534" lon="10.6116385"><ele>437.0</ele><time>2026-05-01T10:00:45.026Z</time></trkpt><trkpt lat="43.4582915" lon="10.6116703"><ele>437.0</ele><time>2026-05-01T10:00:46.03Z</time></trkpt><trkpt lat="43.458242" lon="10.6117257"><ele>436.99999999999994</ele><time>2026-05-01T10:00:47.026Z</time></trkpt><trkpt lat="43.458203" lon="10.6118092"><ele>437.0</ele><time>2026-05-01T10:00:48.042Z</time></trkpt><trkpt lat="43.4581827" lon="10.6119135"><ele>438.8333333333333</ele><time>2026-05-01T10:00:49.025Z</time></trkpt><trkpt lat="43.4581721" lon="10.6120343"><ele>440.66666666666663</ele><time>2026-05-01T10:00:50.031Z</time></trkpt><trkpt lat="43.4581596" lon="10.6121642"><ele>442.5</ele><time>2026-05-01T10:00:51.022Z</time></trkpt><trkpt lat="43.4581453" lon="10.6122828"><ele>444.33333333333337</ele><time>2026-05-01T10:00:52.041Z</time></trkpt><trkpt lat="43.4581251" lon="10.6123932"><ele>446.1666666666667</ele><time>2026-05-01T10:00:53.03Z</time></trkpt><trkpt lat="43.4581077" lon="10.6125129"><ele>448.0</ele><time>2026-05-01T10:00:54.021Z</time></trkpt><trkpt lat="43.4580899" lon="10.6126254"><ele>448.00000000000006</ele><time>2026-05-01T10:00:55.041Z</time></trkpt><trkpt lat="43.458064" lon="10.6127413"><ele>448.0</ele><time>2026-05-01T10:00:56.025Z</time></trkpt><trkpt lat="43.4580301" lon="10.6128343"><ele>448.0</ele><time>2026-05-01T10:00:57.03Z</time></trkpt><trkpt lat="43.4579361" lon="10.6129292"><ele>448.0</ele><time>2026-05-01T10:00:59.031Z</time></trkpt><trkpt lat="43.457868" lon="10.6129771"><ele>448.00000000000006</ele><time>2026-05-01T10:01:00.028Z</time></trkpt><trkpt lat="43.4577942" lon="10.613029"><ele>448.0</ele><time>2026-05-01T10:01:01.029Z</time></trkpt><trkpt lat="43.457732" lon="10.6130868"><ele>444.83333333333337</ele><time>2026-05-01T10:01:02.025Z</time></trkpt><trkpt lat="43.4576753" lon="10.6131524"><ele>441.6666666666667</ele><time>2026-05-01T10:01:03.034Z</time></trkpt><trkpt lat="43.4576229" lon="10.613232"><ele>438.5</ele><time>2026-05-01T10:01:04.022Z</time></trkpt><trkpt lat="43.4575889" lon="10.613332"><ele>435.33333333333337</ele><time>2026-05-01T10:01:05.024Z</time></trkpt><trkpt lat="43.4575522" lon="10.6134209"><ele>432.1666666666667</ele><time>2026-05-01T10:01:06.024Z</time></trkpt><trkpt lat="43.4575241" lon="10.6135165"><ele>429.0</ele><time>2026-05-01T10:01:07.022Z</time></trkpt><trkpt lat="43.4574995" lon="10.6136338"><ele>430.3333333333333</ele><time>2026-05-01T10:01:08.039Z</time></trkpt><trkpt lat="43.4574822" lon="10.6137579"><ele>431.66666666666663</ele><time>2026-05-01T10:01:09.024Z</time></trkpt><trkpt lat="43.4574573" lon="10.6138732"><ele>433.0</ele><time>2026-05-01T10:01:10.029Z</time></trkpt><trkpt lat="43.4574385" lon="10.6139853"><ele>434.3333333333333</ele><time>2026-05-01T10:01:11.037Z</time></trkpt><trkpt lat="43.4574198" lon="10.6141074"><ele>435.66666666666663</ele><time>2026-05-01T10:01:12.028Z</time></trkpt><trkpt lat="43.4574116" lon="10.6142391"><ele>437.0</ele><time>2026-05-01T10:01:13.035Z</time></trkpt><trkpt lat="43.4574082" lon="10.614382"><ele>436.8333333333333</ele><time>2026-05-01T10:01:14.027Z</time></trkpt><trkpt lat="43.4574243" lon="10.6145118"><ele>436.66666666666663</ele><time>2026-05-01T10:01:15.032Z</time></trkpt><trkpt lat="43.4574325" lon="10.6146263"><ele>436.5</ele><time>2026-05-01T10:01:16.021Z</time></trkpt><trkpt lat="43.4574557" lon="10.6147388"><ele>436.33333333333337</ele><time>2026-05-01T10:01:17.019Z</time></trkpt><trkpt lat="43.4574971" lon="10.6148459"><ele>436.1666666666667</ele><time>2026-05-01T10:01:18.032Z</time></trkpt><trkpt lat="43.4575356" lon="10.6149511"><ele>436.0</ele><time>2026-05-01T10:01:19.031Z</time></trkpt><trkpt lat="43.4575593" lon="10.6150553"><ele>436.00000000000006</ele><time>2026-05-01T10:01:20.03Z</time></trkpt><trkpt lat="43.4575618" lon="10.6151616"><ele>436.0</ele><time>2026-05-01T10:01:21.03Z</time></trkpt><trkpt lat="43.457559" lon="10.6152546"><ele>436.0</ele><time>2026-05-01T10:01:22.034Z</time></trkpt><trkpt lat="43.4575685" lon="10.6153569"><ele>436.0</ele><time>2026-05-01T10:01:23.025Z</time></trkpt><trkpt lat="43.4575872" lon="10.6154578"><ele>436.00000000000006</ele><time>2026-05-01T10:01:24.03Z</time></trkpt><trkpt lat="43.4576154" lon="10.6155572"><ele>436.0</ele><time>2026-05-01T10:01:25.025Z</time></trkpt><trkpt lat="43.4576578" lon="10.6156557"><ele>435.0</ele><time>2026-05-01T10:01:26.021Z</time></trkpt><trkpt lat="43.4577159" lon="10.6157588"><ele>434.0</ele><time>2026-05-01T10:01:27.022Z</time></trkpt><trkpt lat="43.457766" lon="10.6158682"><ele>433.0</ele><time>2026-05-01T10:01:28.036Z</time></trkpt><trkpt lat="43.4578277" lon="10.6159998"><ele>432.0</ele><time>2026-05-01T10:01:29.025Z</time></trkpt><trkpt lat="43.4578833" lon="10.6161267"><ele>431.0</ele><time>2026-05-01T10:01:30.023Z</time></trkpt><trkpt lat="43.4579277" lon="10.6162562"><ele>430.0</ele><time>2026-05-01T10:01:31.024Z</time></trkpt><trkpt lat="43.4579519" lon="10.6163817"><ele>429.0</ele><time>2026-05-01T10:01:32.04Z</time></trkpt><trkpt lat="43.4579583" lon="10.6165028"><ele>428.0</ele><time>2026-05-01T10:01:33.026Z</time></trkpt><trkpt lat="43.4579391" lon="10.6166092"><ele>427.0</ele><time>2026-05-01T10:01:34.022Z</time></trkpt><trkpt lat="43.4579157" lon="10.6167371"><ele>426.0</ele><time>2026-05-01T10:01:35.033Z</time></trkpt><trkpt lat="43.4578971" lon="10.6168714"><ele>426.25</ele><time>2026-05-01T10:01:36.029Z</time></trkpt><trkpt lat="43.4578811" lon="10.6170161"><ele>426.5</ele><time>2026-05-01T10:01:37.02Z</time></trkpt><trkpt lat="43.4578823" lon="10.6171884"><ele>426.75</ele><time>2026-05-01T10:01:38.025Z</time></trkpt><trkpt lat="43.4578863" lon="10.6173715"><ele>427.0</ele><time>2026-05-01T10:01:39.021Z</time></trkpt><trkpt lat="43.4578822" lon="10.6175277"><ele>427.0</ele><time>2026-05-01T10:01:40.026Z</time></trkpt><trkpt lat="43.4578925" lon="10.6176475"><ele>427.00000000000006</ele><time>2026-05-01T10:01:41.023Z</time></trkpt><trkpt lat="43.4579247" lon="10.6177743"><ele>427.00000000000006</ele><time>2026-05-01T10:01:42.027Z</time></trkpt><trkpt lat="43.4579508" lon="10.6178883"><ele>427.0</ele><time>2026-05-01T10:01:43.019Z</time></trkpt><trkpt lat="43.4579867" lon="10.6180128"><ele>427.0</ele><time>2026-05-01T10:01:44.034Z</time></trkpt><trkpt lat="43.4580176" lon="10.6181424"><ele>430.8</ele><time>2026-05-01T10:01:45.032Z</time></trkpt><trkpt lat="43.4580464" lon="10.6182524"><ele>434.6</ele><time>2026-05-01T10:01:46.037Z</time></trkpt><trkpt lat="43.4580821" lon="10.618365"><ele>438.40000000000003</ele><time>2026-05-01T10:01:47.023Z</time></trkpt><trkpt lat="43.4581222" lon="10.6184746"><ele>442.20000000000005</ele><time>2026-05-01T10:01:48.026Z</time></trkpt><trkpt lat="43.4581745" lon="10.6185933"><ele>446.0</ele><time>2026-05-01T10:01:49.025Z</time></trkpt><trkpt lat="43.4582301" lon="10.6186984"><ele>445.99999999999994</ele><time>2026-05-01T10:01:50.029Z</time></trkpt><trkpt lat="43.4582778" lon="10.6187985"><ele>446.0</ele><time>2026-05-01T10:01:51.033Z</time></trkpt><trkpt lat="43.4583059" lon="10.6189026"><ele>446.0</ele><time>2026-05-01T10:01:52.029Z</time></trkpt><trkpt lat="43.458321" lon="10.619013"><ele>446.0</ele><time>2026-05-01T10:01:53.024Z</time></trkpt><trkpt lat="43.4583197" lon="10.6191366"><ele>445.99999999999994</ele><time>2026-05-01T10:01:54.033Z</time></trkpt><trkpt lat="43.4583085" lon="10.6192645"><ele>446.0</ele><time>2026-05-01T10:01:55.023Z</time></trkpt><trkpt lat="43.4583088" lon="10.6193812"><ele>446.4</ele><time>2026-05-01T10:01:56.027Z</time></trkpt><trkpt lat="43.4583008" lon="10.6195009"><ele>446.8</ele><time>2026-05-01T10:01:57.015Z</time></trkpt><trkpt lat="43.4582901" lon="10.6196313"><ele>447.19999999999993</ele><time>2026-05-01T10:01:58.023Z</time></trkpt><trkpt lat="43.4582674" lon="10.6197583"><ele>447.59999999999997</ele><time>2026-05-01T10:01:59.024Z</time></trkpt><trkpt lat="43.4582326" lon="10.619902"><ele>448.0</ele><time>2026-05-01T10:02:00.026Z</time></trkpt><trkpt lat="43.4581943" lon="10.6200442"><ele>448.0</ele><time>2026-05-01T10:02:01.017Z</time></trkpt><trkpt lat="43.4581702" lon="10.6201808"><ele>447.99999999999994</ele><time>2026-05-01T10:02:02.024Z</time></trkpt><trkpt lat="43.4581653" lon="10.6202966"><ele>447.99999999999994</ele><time>2026-05-01T10:02:03.03Z</time></trkpt><trkpt lat="43.4581671" lon="10.6204234"><ele>448.0</ele><time>2026-05-01T10:02:04.015Z</time></trkpt><trkpt lat="43.4581824" lon="10.6205563"><ele>448.0</ele><time>2026-05-01T10:02:05.033Z</time></trkpt><trkpt lat="43.458206" lon="10.6207102"><ele>447.59999999999997</ele><time>2026-05-01T10:02:06.023Z</time></trkpt><trkpt lat="43.45823" lon="10.6208787"><ele>447.19999999999993</ele><time>2026-05-01T10:02:07.023Z</time></trkpt><trkpt lat="43.4582541" lon="10.6210283"><ele>446.8</ele><time>2026-05-01T10:02:08.028Z</time></trkpt><trkpt lat="43.4582916" lon="10.6211522"><ele>446.4</ele><time>2026-05-01T10:02:09.03Z</time></trkpt><trkpt lat="43.4583416" lon="10.6212656"><ele>446.0</ele><time>2026-05-01T10:02:10.027Z</time></trkpt><trkpt lat="43.4583909" lon="10.6213682"><ele>443.8333333333333</ele><time>2026-05-01T10:02:11.041Z</time></trkpt><trkpt lat="43.4584456" lon="10.6214692"><ele>441.66666666666663</ele><time>2026-05-01T10:02:12.019Z</time></trkpt><trkpt lat="43.4585014" lon="10.6215551"><ele>439.5</ele><time>2026-05-01T10:02:13.035Z</time></trkpt><trkpt lat="43.4585495" lon="10.6216412"><ele>437.33333333333337</ele><time>2026-05-01T10:02:14.028Z</time></trkpt><trkpt lat="43.458605" lon="10.6217257"><ele>435.1666666666667</ele><time>2026-05-01T10:02:15.034Z</time></trkpt><trkpt lat="43.4586655" lon="10.6218123"><ele>433.0</ele><time>2026-05-01T10:02:16.034Z</time></trkpt><trkpt lat="43.4587324" lon="10.6218969"><ele>435.0</ele><time>2026-05-01T10:02:17.03Z</time></trkpt><trkpt lat="43.4587982" lon="10.6220022"><ele>436.99999999999994</ele><time>2026-05-01T10:02:18.024Z</time></trkpt><trkpt lat="43.4588642" lon="10.6221156"><ele>438.99999999999994</ele><time>2026-05-01T10:02:19.025Z</time></trkpt><trkpt lat="43.4589145" lon="10.6222083"><ele>441.0</ele><time>2026-05-01T10:02:20.023Z</time></trkpt><trkpt lat="43.4589633" lon="10.6222657"><ele>443.0</ele><time>2026-05-01T10:02:21.027Z</time></trkpt><trkpt lat="43.4590723" lon="10.6223068"><ele>443.0</ele><time>2026-05-01T10:02:23.029Z</time></trkpt><trkpt lat="43.4591952" lon="10.6223276"><ele>442.99999999999994</ele><time>2026-05-01T10:02:25.03Z</time></trkpt><trkpt lat="43.4593199" lon="10.6223583"><ele>442.99999999999994</ele><time>2026-05-01T10:02:27.025Z</time></trkpt><trkpt lat="43.4593888" lon="10.6223715"><ele>443.0</ele><time>2026-05-01T10:02:28.03Z</time></trkpt><trkpt lat="43.4594994" lon="10.6223771"><ele>443.0</ele><time>2026-05-01T10:02:30.031Z</time></trkpt><trkpt lat="43.4595947" lon="10.6223162"><ele>441.16666666666663</ele><time>2026-05-01T10:02:32.033Z</time></trkpt><trkpt lat="43.4596929" lon="10.6222257"><ele>439.3333333333333</ele><time>2026-05-01T10:02:34.034Z</time></trkpt><trkpt lat="43.4597391" lon="10.6221562"><ele>437.5</ele><time>2026-05-01T10:02:35.021Z</time></trkpt><trkpt lat="43.4597751" lon="10.6220781"><ele>435.66666666666663</ele><time>2026-05-01T10:02:36.034Z</time></trkpt><trkpt lat="43.4598149" lon="10.6220035"><ele>433.8333333333333</ele><time>2026-05-01T10:02:37.027Z</time></trkpt><trkpt lat="43.4598478" lon="10.6219212"><ele>432.0</ele><time>2026-05-01T10:02:38.031Z</time></trkpt><trkpt lat="43.4598821" lon="10.6218272"><ele>436.1666666666667</ele><time>2026-05-01T10:02:39.036Z</time></trkpt><trkpt lat="43.4599211" lon="10.6217332"><ele>440.33333333333337</ele><time>2026-05-01T10:02:40.035Z</time></trkpt><trkpt lat="43.4599648" lon="10.6216325"><ele>444.5</ele><time>2026-05-01T10:02:41.011Z</time></trkpt><trkpt lat="43.4600087" lon="10.6215152"><ele>448.6666666666667</ele><time>2026-05-01T10:02:42.025Z</time></trkpt><trkpt lat="43.4600516" lon="10.6213999"><ele>452.83333333333337</ele><time>2026-05-01T10:02:43.033Z</time></trkpt><trkpt lat="43.4600954" lon="10.6212879"><ele>457.0</ele><time>2026-05-01T10:02:44.031Z</time></trkpt><trkpt lat="43.4601395" lon="10.6211828"><ele>460.40000000000003</ele><time>2026-05-01T10:02:45.032Z</time></trkpt><trkpt lat="43.4601817" lon="10.6210715"><ele>463.80000000000007</ele><time>2026-05-01T10:02:46.029Z</time></trkpt><trkpt lat="43.4602278" lon="10.620953"><ele>467.2</ele><time>2026-05-01T10:02:47.034Z</time></trkpt><trkpt lat="43.4602598" lon="10.6208125"><ele>470.6</ele><time>2026-05-01T10:02:48.031Z</time></trkpt><trkpt lat="43.460295" lon="10.6206565"><ele>474.0</ele><time>2026-05-01T10:02:49.032Z</time></trkpt><trkpt lat="43.460335" lon="10.620491"><ele>474.0</ele><time>2026-05-01T10:02:50.041Z</time></trkpt><trkpt lat="43.4603751" lon="10.6203264"><ele>474.0</ele><time>2026-05-01T10:02:51.023Z</time></trkpt><trkpt lat="43.4604137" lon="10.620176"><ele>474.0</ele><time>2026-05-01T10:02:52.024Z</time></trkpt><trkpt lat="43.4604456" lon="10.6200357"><ele>474.0</ele><time>2026-05-01T10:02:53.031Z</time></trkpt><trkpt lat="43.4604734" lon="10.6199123"><ele>474.0</ele><time>2026-05-01T10:02:54.035Z</time></trkpt><trkpt lat="43.4604947" lon="10.6197916"><ele>472.6666666666667</ele><time>2026-05-01T10:02:55.031Z</time></trkpt><trkpt lat="43.4605139" lon="10.6196695"><ele>471.33333333333337</ele><time>2026-05-01T10:02:56.018Z</time></trkpt><trkpt lat="43.4605358" lon="10.6195448"><ele>470.0</ele><time>2026-05-01T10:02:57.036Z</time></trkpt><trkpt lat="43.4605616" lon="10.6194251"><ele>468.6666666666667</ele><time>2026-05-01T10:02:58.041Z</time></trkpt><trkpt lat="43.4605948" lon="10.619323"><ele>467.33333333333337</ele><time>2026-05-01T10:02:59.029Z</time></trkpt><trkpt lat="43.4606459" lon="10.6192501"><ele>466.0</ele><time>2026-05-01T10:03:00.034Z</time></trkpt><trkpt lat="43.4607113" lon="10.6191703"><ele>466.0</ele><time>2026-05-01T10:03:01.018Z</time></trkpt><trkpt lat="43.4607812" lon="10.6190819"><ele>466.0</ele><time>2026-05-01T10:03:02.036Z</time></trkpt><trkpt lat="43.4608526" lon="10.6189702"><ele>466.0</ele><time>2026-05-01T10:03:03.029Z</time></trkpt><trkpt lat="43.4609286" lon="10.6188287"><ele>466.0</ele><time>2026-05-01T10:03:04.041Z</time></trkpt><trkpt lat="43.4609994" lon="10.6186886"><ele>468.6666666666667</ele><time>2026-05-01T10:03:05.03Z</time></trkpt><trkpt lat="43.4610561" lon="10.6185698"><ele>471.33333333333337</ele><time>2026-05-01T10:03:06.023Z</time></trkpt><trkpt lat="43.4610886" lon="10.6184498"><ele>474.0</ele><time>2026-05-01T10:03:07.031Z</time></trkpt><trkpt lat="43.461112" lon="10.6183507"><ele>476.66666666666663</ele><time>2026-05-01T10:03:08.035Z</time></trkpt><trkpt lat="43.4611302" lon="10.6182512"><ele>479.3333333333333</ele><time>2026-05-01T10:03:09.024Z</time></trkpt><trkpt lat="43.4611385" lon="10.6181542"><ele>482.0</ele><time>2026-05-01T10:03:10.035Z</time></trkpt><trkpt lat="43.4611131" lon="10.6179946"><ele>481.99999999999994</ele><time>2026-05-01T10:03:12.023Z</time></trkpt><trkpt lat="43.4610869" lon="10.6178522"><ele>482.0</ele><time>2026-05-01T10:03:14.031Z</time></trkpt><trkpt lat="43.4610904" lon="10.617763"><ele>482.0</ele><time>2026-05-01T10:03:15.027Z</time></trkpt><trkpt lat="43.4611134" lon="10.6176112"><ele>482.0</ele><time>2026-05-01T10:03:17.025Z</time></trkpt><trkpt lat="43.4611588" lon="10.6175361"><ele>481.99999999999994</ele><time>2026-05-01T10:03:18.024Z</time></trkpt><trkpt lat="43.4611994" lon="10.6174618"><ele>482.0</ele><time>2026-05-01T10:03:19.024Z</time></trkpt><trkpt lat="43.4612561" lon="10.6173976"><ele>479.99999999999994</ele><time>2026-05-01T10:03:20.022Z</time></trkpt><trkpt lat="43.461321" lon="10.6173366"><ele>478.0</ele><time>2026-05-01T10:03:21.03Z</time></trkpt><trkpt lat="43.4613823" lon="10.6172674"><ele>476.0</ele><time>2026-05-01T10:03:22.024Z</time></trkpt><trkpt lat="43.4614436" lon="10.6171917"><ele>474.0</ele><time>2026-05-01T10:03:23.033Z</time></trkpt><trkpt lat="43.4614996" lon="10.617105"><ele>471.99999999999994</ele><time>2026-05-01T10:03:24.028Z</time></trkpt><trkpt lat="43.4615544" lon="10.6170151"><ele>470.0</ele><time>2026-05-01T10:03:25.025Z</time></trkpt><trkpt lat="43.461604" lon="10.6169108"><ele>470.0</ele><time>2026-05-01T10:03:26.032Z</time></trkpt><trkpt lat="43.4616549" lon="10.6168011"><ele>470.0</ele><time>2026-05-01T10:03:27.033Z</time></trkpt><trkpt lat="43.4617081" lon="10.6166858"><ele>470.0</ele><time>2026-05-01T10:03:28.023Z</time></trkpt><trkpt lat="43.4617661" lon="10.6165756"><ele>470.0</ele><time>2026-05-01T10:03:29.029Z</time></trkpt><trkpt lat="43.4618207" lon="10.6164689"><ele>470.0</ele><time>2026-05-01T10:03:30.032Z</time></trkpt><trkpt lat="43.4618823" lon="10.6163715"><ele>470.0</ele><time>2026-05-01T10:03:31.036Z</time></trkpt><trkpt lat="43.4619368" lon="10.6162795"><ele>470.0</ele><time>2026-05-01T10:03:32.027Z</time></trkpt><trkpt lat="43.4619908" lon="10.616189"><ele>470.0</ele><time>2026-05-01T10:03:33.03Z</time></trkpt><trkpt lat="43.4620334" lon="10.6161139"><ele>470.0</ele><time>2026-05-01T10:03:34.037Z</time></trkpt><trkpt lat="43.4621366" lon="10.616058"><ele>470.0</ele><time>2026-05-01T10:03:36.025Z</time></trkpt><trkpt lat="43.4622386" lon="10.6161016"><ele>468.6</ele><time>2026-05-01T10:03:38.025Z</time></trkpt><trkpt lat="43.4622888" lon="10.6161701"><ele>467.2</ele><time>2026-05-01T10:03:39.024Z</time></trkpt><trkpt lat="43.4623388" lon="10.6162586"><ele>465.79999999999995</ele><time>2026-05-01T10:03:40.024Z</time></trkpt><trkpt lat="43.4623982" lon="10.6163788"><ele>464.4</ele><time>2026-05-01T10:03:41.03Z</time></trkpt><trkpt lat="43.4624602" lon="10.6165034"><ele>463.0</ele><time>2026-05-01T10:03:42.027Z</time></trkpt><trkpt lat="43.4625072" lon="10.6166137"><ele>463.00000000000006</ele><time>2026-05-01T10:03:43.029Z</time></trkpt><trkpt lat="43.4625621" lon="10.6167195"><ele>463.0</ele><time>2026-05-01T10:03:44.037Z</time></trkpt><trkpt lat="43.4626127" lon="10.6168177"><ele>463.0</ele><time>2026-05-01T10:03:45.033Z</time></trkpt><trkpt lat="43.4626826" lon="10.6168946"><ele>463.0</ele><time>2026-05-01T10:03:46.025Z</time></trkpt><trkpt lat="43.4627461" lon="10.616929"><ele>463.00000000000006</ele><time>2026-05-01T10:03:47.045Z</time></trkpt><trkpt lat="43.4628118" lon="10.6169209"><ele>463.0</ele><time>2026-05-01T10:03:48.034Z</time></trkpt><trkpt lat="43.4628805" lon="10.6168921"><ele>463.0</ele><time>2026-05-01T10:03:49.044Z</time></trkpt><trkpt lat="43.4629468" lon="10.6168614"><ele>462.99999999999994</ele><time>2026-05-01T10:03:50.026Z</time></trkpt><trkpt lat="43.4630115" lon="10.616834"><ele>463.0</ele><time>2026-05-01T10:03:51.027Z</time></trkpt><trkpt lat="43.4630798" lon="10.6167912"><ele>463.0</ele><time>2026-05-01T10:03:52.027Z</time></trkpt><trkpt lat="43.4631416" lon="10.616732"><ele>462.99999999999994</ele><time>2026-05-01T10:03:53.019Z</time></trkpt><trkpt lat="43.4631953" lon="10.6166626"><ele>463.0</ele><time>2026-05-01T10:03:54.021Z</time></trkpt><trkpt lat="43.4632467" lon="10.6165647"><ele>463.0</ele><time>2026-05-01T10:03:55.036Z</time></trkpt><trkpt lat="43.4632868" lon="10.6164588"><ele>462.79999999999995</ele><time>2026-05-01T10:03:56.03Z</time></trkpt><trkpt lat="43.4633088" lon="10.6163407"><ele>462.59999999999997</ele><time>2026-05-01T10:03:57.027Z</time></trkpt><trkpt lat="43.4633179" lon="10.6162119"><ele>462.40000000000003</ele><time>2026-05-01T10:03:58.024Z</time></trkpt><trkpt lat="43.4633083" lon="10.6160695"><ele>462.20000000000005</ele><time>2026-05-01T10:03:59.035Z</time></trkpt><trkpt lat="43.4632956" lon="10.6159386"><ele>462.0</ele><time>2026-05-01T10:04:00.03Z</time></trkpt><trkpt lat="43.4632837" lon="10.6157956"><ele>464.20000000000005</ele><time>2026-05-01T10:04:01.024Z</time></trkpt><trkpt lat="43.4632785" lon="10.6156467"><ele>466.40000000000003</ele><time>2026-05-01T10:04:02.024Z</time></trkpt><trkpt lat="43.4632708" lon="10.6155176"><ele>468.59999999999997</ele><time>2026-05-01T10:04:03.022Z</time></trkpt><trkpt lat="43.463264" lon="10.6154027"><ele>470.79999999999995</ele><time>2026-05-01T10:04:04.031Z</time></trkpt><trkpt lat="43.4632531" lon="10.6153044"><ele>473.0</ele><time>2026-05-01T10:04:05.027Z</time></trkpt><trkpt lat="43.4632946" lon="10.6151617"><ele>473.0</ele><time>2026-05-01T10:04:07.023Z</time></trkpt><trkpt lat="43.4633549" lon="10.6151075"><ele>472.99999999999994</ele><time>2026-05-01T10:04:09.027Z</time></trkpt><trkpt lat="43.4634363" lon="10.6152657"><ele>472.99999999999994</ele><time>2026-05-01T10:04:11.024Z</time></trkpt><trkpt lat="43.4634893" lon="10.6153918"><ele>473.0</ele><time>2026-05-01T10:04:12.024Z</time></trkpt><trkpt lat="43.463539" lon="10.6155077"><ele>473.0</ele><time>2026-05-01T10:04:13.027Z</time></trkpt><trkpt lat="43.463601" lon="10.6156245"><ele>473.0</ele><time>2026-05-01T10:04:14.02Z</time></trkpt><trkpt lat="43.4636764" lon="10.6157486"><ele>473.0</ele><time>2026-05-01T10:04:15.025Z</time></trkpt><trkpt lat="43.4637578" lon="10.6158898"><ele>473.0</ele><time>2026-05-01T10:04:16.032Z</time></trkpt><trkpt lat="43.4638344" lon="10.6160198"><ele>473.0</ele><time>2026-05-01T10:04:17.023Z</time></trkpt><trkpt lat="43.4638984" lon="10.6161448"><ele>469.79999999999995</ele><time>2026-05-01T10:04:18.028Z</time></trkpt><trkpt lat="43.4639506" lon="10.6162659"><ele>466.59999999999997</ele><time>2026-05-01T10:04:19.022Z</time></trkpt><trkpt lat="43.4639924" lon="10.6164031"><ele>463.40000000000003</ele><time>2026-05-01T10:04:20.036Z</time></trkpt><trkpt lat="43.4640244" lon="10.6165396"><ele>460.20000000000005</ele><time>2026-05-01T10:04:21.027Z</time></trkpt><trkpt lat="43.4640549" lon="10.6166433"><ele>457.0</ele><time>2026-05-01T10:04:22.029Z</time></trkpt><trkpt lat="43.4640933" lon="10.6167564"><ele>457.00000000000006</ele><time>2026-05-01T10:04:24.034Z</time></trkpt><trkpt lat="43.4641636" lon="10.6167642"><ele>457.0</ele><time>2026-05-01T10:05:02.02Z</time></trkpt><trkpt lat="43.4642291" lon="10.6166921"><ele>457.0</ele><time>2026-05-01T10:05:04.036Z</time></trkpt><trkpt lat="43.4642659" lon="10.6166178"><ele>457.0</ele><time>2026-05-01T10:05:05.034Z</time></trkpt><trkpt lat="43.4642922" lon="10.6165372"><ele>457.00000000000006</ele><time>2026-05-01T10:05:06.035Z</time></trkpt><trkpt lat="43.4643174" lon="10.6164534"><ele>457.0</ele><time>2026-05-01T10:05:07.034Z</time></trkpt><trkpt lat="43.4643698" lon="10.6163104"><ele>457.00000000000006</ele><time>2026-05-01T10:05:09.033Z</time></trkpt><trkpt lat="43.4644016" lon="10.6162347"><ele>457.0</ele><time>2026-05-01T10:05:10.03Z</time></trkpt><trkpt lat="43.464441" lon="10.6161563"><ele>457.00000000000006</ele><time>2026-05-01T10:05:11.029Z</time></trkpt><trkpt lat="43.464484" lon="10.6160866"><ele>457.00000000000006</ele><time>2026-05-01T10:05:12.023Z</time></trkpt><trkpt lat="43.464528" lon="10.6160155"><ele>457.0</ele><time>2026-05-01T10:05:13.032Z</time></trkpt><trkpt lat="43.4645726" lon="10.6159369"><ele>457.00000000000006</ele><time>2026-05-01T10:05:14.022Z</time></trkpt><trkpt lat="43.4646176" lon="10.6158418"><ele>457.00000000000006</ele><time>2026-05-01T10:05:15.026Z</time></trkpt><trkpt lat="43.4646658" lon="10.6157324"><ele>459.0</ele><time>2026-05-01T10:05:16.044Z</time></trkpt><trkpt lat="43.4647168" lon="10.6156256"><ele>461.00000000000006</ele><time>2026-05-01T10:05:17.03Z</time></trkpt><trkpt lat="43.4647677" lon="10.6155169"><ele>463.00000000000006</ele><time>2026-05-01T10:05:18.027Z</time></trkpt><trkpt lat="43.4648201" lon="10.615394"><ele>465.0</ele><time>2026-05-01T10:05:19.022Z</time></trkpt><trkpt lat="43.4648691" lon="10.6152735"><ele>467.0</ele><time>2026-05-01T10:05:20.029Z</time></trkpt><trkpt lat="43.4649216" lon="10.6151624"><ele>467.0</ele><time>2026-05-01T10:05:21.03Z</time></trkpt><trkpt lat="43.4649766" lon="10.6150614"><ele>467.00000000000006</ele><time>2026-05-01T10:05:22.026Z</time></trkpt><trkpt lat="43.4650386" lon="10.614973"><ele>467.00000000000006</ele><time>2026-05-01T10:05:23.026Z</time></trkpt><trkpt lat="43.4651123" lon="10.6148763"><ele>467.0</ele><time>2026-05-01T10:05:24.029Z</time></trkpt><trkpt lat="43.4651891" lon="10.6147736"><ele>467.0</ele><time>2026-05-01T10:05:25.018Z</time></trkpt><trkpt lat="43.465257" lon="10.6146654"><ele>467.0</ele><time>2026-05-01T10:05:26.031Z</time></trkpt><trkpt lat="43.4653255" lon="10.6145486"><ele>467.00000000000006</ele><time>2026-05-01T10:05:27.017Z</time></trkpt><trkpt lat="43.4653889" lon="10.6144319"><ele>467.00000000000006</ele><time>2026-05-01T10:05:28.029Z</time></trkpt><trkpt lat="43.4654575" lon="10.6143145"><ele>467.0</ele><time>2026-05-01T10:05:29.019Z</time></trkpt><trkpt lat="43.4655251" lon="10.6142105"><ele>467.0</ele><time>2026-05-01T10:05:30.031Z</time></trkpt><trkpt lat="43.4655938" lon="10.6141046"><ele>467.6</ele><time>2026-05-01T10:05:31.025Z</time></trkpt><trkpt lat="43.4656663" lon="10.6139985"><ele>468.20000000000005</ele><time>2026-05-01T10:05:32.03Z</time></trkpt><trkpt lat="43.4657329" lon="10.6138864"><ele>468.8</ele><time>2026-05-01T10:05:33.028Z</time></trkpt><trkpt lat="43.4658015" lon="10.6137662"><ele>469.4</ele><time>2026-05-01T10:05:34.025Z</time></trkpt><trkpt lat="43.4658669" lon="10.6136329"><ele>470.0</ele><time>2026-05-01T10:05:35.026Z</time></trkpt><trkpt lat="43.4659267" lon="10.6135151"><ele>469.99999999999994</ele><time>2026-05-01T10:05:36.036Z</time></trkpt><trkpt lat="43.4659714" lon="10.6134402"><ele>470.0</ele><time>2026-05-01T10:05:37.032Z</time></trkpt><trkpt lat="43.4660538" lon="10.6133826"><ele>470.0</ele><time>2026-05-01T10:05:39.02Z</time></trkpt><trkpt lat="43.466137" lon="10.6134633"><ele>470.0</ele><time>2026-05-01T10:05:41.036Z</time></trkpt><trkpt lat="43.4661862" lon="10.6135655"><ele>469.99999999999994</ele><time>2026-05-01T10:05:42.027Z</time></trkpt><trkpt lat="43.4662237" lon="10.6136669"><ele>470.0</ele><time>2026-05-01T10:05:43.022Z</time></trkpt><trkpt lat="43.4662411" lon="10.6137709"><ele>466.2</ele><time>2026-05-01T10:05:44.021Z</time></trkpt><trkpt lat="43.4662064" lon="10.6138804"><ele>462.4</ele><time>2026-05-01T10:05:45.023Z</time></trkpt><trkpt lat="43.4661566" lon="10.6140025"><ele>458.6</ele><time>2026-05-01T10:05:46.019Z</time></trkpt><trkpt lat="43.4660929" lon="10.6141244"><ele>454.8</ele><time>2026-05-01T10:05:47.027Z</time></trkpt><trkpt lat="43.466031" lon="10.6142414"><ele>451.0</ele><time>2026-05-01T10:05:48.018Z</time></trkpt><trkpt lat="43.4659805" lon="10.6143445"><ele>451.0</ele><time>2026-05-01T10:05:49.033Z</time></trkpt><trkpt lat="43.465937" lon="10.6144249"><ele>451.0</ele><time>2026-05-01T10:05:50.026Z</time></trkpt><trkpt lat="43.465873" lon="10.6145697"><ele>451.0</ele><time>2026-05-01T10:05:52.018Z</time></trkpt><trkpt lat="43.4658131" lon="10.6147011"><ele>451.0</ele><time>2026-05-01T10:05:54.027Z</time></trkpt><trkpt lat="43.4657791" lon="10.6148685"><ele>451.0</ele><time>2026-05-01T10:05:56.031Z</time></trkpt><trkpt lat="43.465778" lon="10.6149734"><ele>449.50000000000006</ele><time>2026-05-01T10:05:57.029Z</time></trkpt><trkpt lat="43.4657787" lon="10.6150823"><ele>448.0</ele><time>2026-05-01T10:05:58.03Z</time></trkpt><trkpt lat="43.4657708" lon="10.6151913"><ele>446.5</ele><time>2026-05-01T10:05:59.03Z</time></trkpt><trkpt lat="43.465758" lon="10.6153062"><ele>445.0</ele><time>2026-05-01T10:06:00.017Z</time></trkpt><trkpt lat="43.4657238" lon="10.6153903"><ele>443.50000000000006</ele><time>2026-05-01T10:06:01.017Z</time></trkpt><trkpt lat="43.4656723" lon="10.6154668"><ele>442.0</ele><time>2026-05-01T10:06:02.025Z</time></trkpt><trkpt lat="43.4656198" lon="10.6155516"><ele>441.83333333333337</ele><time>2026-05-01T10:06:03.023Z</time></trkpt><trkpt lat="43.4655762" lon="10.6156414"><ele>441.6666666666667</ele><time>2026-05-01T10:06:04.033Z</time></trkpt><trkpt lat="43.4655526" lon="10.6157229"><ele>441.5</ele><time>2026-05-01T10:06:05.022Z</time></trkpt><trkpt lat="43.4655542" lon="10.6158154"><ele>441.33333333333337</ele><time>2026-05-01T10:06:06.021Z</time></trkpt><trkpt lat="43.4655651" lon="10.6159138"><ele>441.1666666666667</ele><time>2026-05-01T10:06:07.026Z</time></trkpt><trkpt lat="43.4656001" lon="10.6160272"><ele>441.0</ele><time>2026-05-01T10:06:08.022Z</time></trkpt><trkpt lat="43.4656453" lon="10.6161581"><ele>439.20000000000005</ele><time>2026-05-01T10:06:09.021Z</time></trkpt><trkpt lat="43.4656794" lon="10.6162988"><ele>437.40000000000003</ele><time>2026-05-01T10:06:10.034Z</time></trkpt><trkpt lat="43.4657148" lon="10.616438"><ele>435.6</ele><time>2026-05-01T10:06:11.023Z</time></trkpt><trkpt lat="43.4657449" lon="10.6165668"><ele>433.8</ele><time>2026-05-01T10:06:12.023Z</time></trkpt><trkpt lat="43.4657785" lon="10.6167127"><ele>432.0</ele><time>2026-05-01T10:06:13.034Z</time></trkpt><trkpt lat="43.4658264" lon="10.6168554"><ele>428.40000000000003</ele><time>2026-05-01T10:06:14.027Z</time></trkpt><trkpt lat="43.4658768" lon="10.6169993"><ele>424.80000000000007</ele><time>2026-05-01T10:06:15.029Z</time></trkpt><trkpt lat="43.4659237" lon="10.6171292"><ele>421.2</ele><time>2026-05-01T10:06:16.031Z</time></trkpt><trkpt lat="43.4659764" lon="10.6172423"><ele>417.6</ele><time>2026-05-01T10:06:17.025Z</time></trkpt><trkpt lat="43.4660222" lon="10.6173457"><ele>414.0</ele><time>2026-05-01T10:06:18.023Z</time></trkpt><trkpt lat="43.4660611" lon="10.6174506"><ele>414.0</ele><time>2026-05-01T10:06:19.014Z</time></trkpt><trkpt lat="43.4660979" lon="10.6175615"><ele>414.0</ele><time>2026-05-01T10:06:20.025Z</time></trkpt><trkpt lat="43.4661302" lon="10.6176812"><ele>414.0</ele><time>2026-05-01T10:06:21.025Z</time></trkpt><trkpt lat="43.4661665" lon="10.6177923"><ele>414.0</ele><time>2026-05-01T10:06:22.027Z</time></trkpt><trkpt lat="43.4662084" lon="10.6178934"><ele>414.0</ele><time>2026-05-01T10:06:23.021Z</time></trkpt><trkpt lat="43.46625" lon="10.6179887"><ele>414.0</ele><time>2026-05-01T10:06:24.015Z</time></trkpt><trkpt lat="43.4663017" lon="10.618086"><ele>415.8333333333333</ele><time>2026-05-01T10:06:25.026Z</time></trkpt><trkpt lat="43.4663625" lon="10.6181912"><ele>417.66666666666663</ele><time>2026-05-01T10:06:26.018Z</time></trkpt><trkpt lat="43.4664172" lon="10.6183006"><ele>419.5</ele><time>2026-05-01T10:06:27.033Z</time></trkpt><trkpt lat="43.4664724" lon="10.6183912"><ele>421.3333333333333</ele><time>2026-05-01T10:06:28.021Z</time></trkpt><trkpt lat="43.4665273" lon="10.6184742"><ele>423.16666666666663</ele><time>2026-05-01T10:06:29.029Z</time></trkpt><trkpt lat="43.4665726" lon="10.6185622"><ele>425.0</ele><time>2026-05-01T10:06:30.023Z</time></trkpt><trkpt lat="43.4666148" lon="10.6186499"><ele>422.8333333333333</ele><time>2026-05-01T10:06:31.018Z</time></trkpt><trkpt lat="43.4666398" lon="10.6187482"><ele>420.66666666666663</ele><time>2026-05-01T10:06:32.033Z</time></trkpt><trkpt lat="43.4666494" lon="10.6188641"><ele>418.5</ele><time>2026-05-01T10:06:33.018Z</time></trkpt><trkpt lat="43.4666487" lon="10.6189929"><ele>416.33333333333337</ele><time>2026-05-01T10:06:34.021Z</time></trkpt><trkpt lat="43.4666539" lon="10.6191244"><ele>414.1666666666667</ele><time>2026-05-01T10:06:35.031Z</time></trkpt><trkpt lat="43.4666675" lon="10.6192584"><ele>412.0</ele><time>2026-05-01T10:06:36.017Z</time></trkpt><trkpt lat="43.4666866" lon="10.6193853"><ele>410.8</ele><time>2026-05-01T10:06:37.03Z</time></trkpt><trkpt lat="43.4667048" lon="10.6195058"><ele>409.6</ele><time>2026-05-01T10:06:38.024Z</time></trkpt><trkpt lat="43.4667059" lon="10.6196321"><ele>408.40000000000003</ele><time>2026-05-01T10:06:39.031Z</time></trkpt><trkpt lat="43.4666912" lon="10.6197681"><ele>407.20000000000005</ele><time>2026-05-01T10:06:40.02Z</time></trkpt><trkpt lat="43.4666692" lon="10.619911"><ele>406.0</ele><time>2026-05-01T10:06:41.028Z</time></trkpt><trkpt lat="43.4666478" lon="10.6200514"><ele>406.00000000000006</ele><time>2026-05-01T10:06:42.019Z</time></trkpt><trkpt lat="43.466636" lon="10.6201829"><ele>406.0</ele><time>2026-05-01T10:06:43.031Z</time></trkpt><trkpt lat="43.4666314" lon="10.6202973"><ele>406.0</ele><time>2026-05-01T10:06:44.024Z</time></trkpt><trkpt lat="43.4666406" lon="10.6204006"><ele>406.0</ele><time>2026-05-01T10:06:45.029Z</time></trkpt><trkpt lat="43.4666731" lon="10.6204836"><ele>406.00000000000006</ele><time>2026-05-01T10:06:46.038Z</time></trkpt><trkpt lat="43.466723" lon="10.6205528"><ele>406.0</ele><time>2026-05-01T10:06:47.014Z</time></trkpt><trkpt lat="43.466785" lon="10.6206306"><ele>405.57142857142856</ele><time>2026-05-01T10:06:48.027Z</time></trkpt><trkpt lat="43.4668429" lon="10.6206971"><ele>405.1428571428571</ele><time>2026-05-01T10:06:49.035Z</time></trkpt><trkpt lat="43.4668793" lon="10.6207782"><ele>404.7142857142857</ele><time>2026-05-01T10:06:50.025Z</time></trkpt><trkpt lat="43.4669076" lon="10.6208651"><ele>404.2857142857143</ele><time>2026-05-01T10:06:51.031Z</time></trkpt><trkpt lat="43.4669134" lon="10.6209617"><ele>403.85714285714283</ele><time>2026-05-01T10:06:52.026Z</time></trkpt><trkpt lat="43.4669067" lon="10.6210657"><ele>403.42857142857144</ele><time>2026-05-01T10:06:53.025Z</time></trkpt><trkpt lat="43.4668896" lon="10.6211799"><ele>403.0</ele><time>2026-05-01T10:06:54.026Z</time></trkpt><trkpt lat="43.4668598" lon="10.6212763"><ele>403.0</ele><time>2026-05-01T10:06:55.02Z</time></trkpt><trkpt lat="43.4668113" lon="10.6213539"><ele>403.0</ele><time>2026-05-01T10:06:56.021Z</time></trkpt><trkpt lat="43.4667511" lon="10.6213894"><ele>403.0</ele><time>2026-05-01T10:06:57.019Z</time></trkpt><trkpt lat="43.4666838" lon="10.6214231"><ele>403.0</ele><time>2026-05-01T10:06:58.023Z</time></trkpt><trkpt lat="43.4666111" lon="10.6214717"><ele>403.0</ele><time>2026-05-01T10:06:59.03Z</time></trkpt><trkpt lat="43.4665521" lon="10.62154"><ele>403.0</ele><time>2026-05-01T10:07:00.02Z</time></trkpt><trkpt lat="43.4665147" lon="10.6216303"><ele>403.0</ele><time>2026-05-01T10:07:01.02Z</time></trkpt><trkpt lat="43.4664919" lon="10.6217427"><ele>403.0</ele><time>2026-05-01T10:07:02.025Z</time></trkpt><trkpt lat="43.4664714" lon="10.6218576"><ele>403.0</ele><time>2026-05-01T10:07:03.022Z</time></trkpt><trkpt lat="43.4664547" lon="10.6219924"><ele>403.0</ele><time>2026-05-01T10:07:04.024Z</time></trkpt><trkpt lat="43.4664574" lon="10.6221327"><ele>403.0</ele><time>2026-05-01T10:07:05.035Z</time></trkpt><trkpt lat="43.4664701" lon="10.6222663"><ele>403.0</ele><time>2026-05-01T10:07:06.018Z</time></trkpt><trkpt lat="43.4664804" lon="10.6223886"><ele>402.4</ele><time>2026-05-01T10:07:07.022Z</time></trkpt><trkpt lat="43.4664707" lon="10.6225023"><ele>401.79999999999995</ele><time>2026-05-01T10:07:08.019Z</time></trkpt><trkpt lat="43.4664301" lon="10.6225908"><ele>401.2</ele><time>2026-05-01T10:07:09.036Z</time></trkpt><trkpt lat="43.4663556" lon="10.6226791"><ele>400.6</ele><time>2026-05-01T10:07:10.016Z</time></trkpt><trkpt lat="43.4662714" lon="10.6227559"><ele>400.0</ele><time>2026-05-01T10:07:11.015Z</time></trkpt><trkpt lat="43.4661859" lon="10.622831"><ele>400.0</ele><time>2026-05-01T10:07:12.026Z</time></trkpt><trkpt lat="43.4660926" lon="10.6228819"><ele>400.0</ele><time>2026-05-01T10:07:13.018Z</time></trkpt><trkpt lat="43.4659969" lon="10.6228969"><ele>400.0</ele><time>2026-05-01T10:07:14.014Z</time></trkpt><trkpt lat="43.4659011" lon="10.6229243"><ele>400.0</ele><time>2026-05-01T10:07:15.028Z</time></trkpt><trkpt lat="43.4658039" lon="10.6229543"><ele>400.0</ele><time>2026-05-01T10:07:16.018Z</time></trkpt><trkpt lat="43.4657159" lon="10.6230156"><ele>400.0</ele><time>2026-05-01T10:07:17.034Z</time></trkpt><trkpt lat="43.4656451" lon="10.6231041"><ele>400.0</ele><time>2026-05-01T10:07:18.021Z</time></trkpt><trkpt lat="43.4655974" lon="10.6232035"><ele>400.0</ele><time>2026-05-01T10:07:19.028Z</time></trkpt><trkpt lat="43.465551" lon="10.6233157"><ele>400.0</ele><time>2026-05-01T10:07:20.019Z</time></trkpt><trkpt lat="43.4654963" lon="10.6234272"><ele>400.0</ele><time>2026-05-01T10:07:21.026Z</time></trkpt><trkpt lat="43.4654486" lon="10.6235374"><ele>396.8</ele><time>2026-05-01T10:07:22.02Z</time></trkpt><trkpt lat="43.4653993" lon="10.6236386"><ele>393.6</ele><time>2026-05-01T10:07:23.02Z</time></trkpt><trkpt lat="43.4653446" lon="10.6237331"><ele>390.4</ele><time>2026-05-01T10:07:24.026Z</time></trkpt><trkpt lat="43.4652914" lon="10.6238429"><ele>387.2</ele><time>2026-05-01T10:07:25.026Z</time></trkpt><trkpt lat="43.4652441" lon="10.6239594"><ele>384.0</ele><time>2026-05-01T10:07:26.018Z</time></trkpt><trkpt lat="43.4652043" lon="10.6240849"><ele>384.0</ele><time>2026-05-01T10:07:27.015Z</time></trkpt><trkpt lat="43.4651725" lon="10.6242252"><ele>384.0</ele><time>2026-05-01T10:07:28.022Z</time></trkpt><trkpt lat="43.4651308" lon="10.6243544"><ele>384.0</ele><time>2026-05-01T10:07:29.029Z</time></trkpt><trkpt lat="43.4650658" lon="10.62446"><ele>384.0</ele><time>2026-05-01T10:07:30.019Z</time></trkpt><trkpt lat="43.4649885" lon="10.6245544"><ele>384.0</ele><time>2026-05-01T10:07:31.027Z</time></trkpt><trkpt lat="43.4649093" lon="10.6246476"><ele>386.1666666666667</ele><time>2026-05-01T10:07:32.026Z</time></trkpt><trkpt lat="43.4648341" lon="10.6247531"><ele>388.33333333333337</ele><time>2026-05-01T10:07:33.023Z</time></trkpt><trkpt lat="43.4647728" lon="10.6248592"><ele>390.5</ele><time>2026-05-01T10:07:34.022Z</time></trkpt><trkpt lat="43.4647385" lon="10.6249642"><ele>392.6666666666667</ele><time>2026-05-01T10:07:35.012Z</time></trkpt><trkpt lat="43.4647209" lon="10.6250602"><ele>394.83333333333337</ele><time>2026-05-01T10:07:36.027Z</time></trkpt><trkpt lat="43.4647233" lon="10.6251762"><ele>397.0</ele><time>2026-05-01T10:07:37.024Z</time></trkpt><trkpt lat="43.4647277" lon="10.6252941"><ele>398.00000000000006</ele><time>2026-05-01T10:07:38.018Z</time></trkpt><trkpt lat="43.4647182" lon="10.6254071"><ele>399.0</ele><time>2026-05-01T10:07:39.028Z</time></trkpt><trkpt lat="43.4646814" lon="10.6255058"><ele>400.0</ele><time>2026-05-01T10:07:40.015Z</time></trkpt><trkpt lat="43.4646378" lon="10.6256002"><ele>401.0</ele><time>2026-05-01T10:07:41.024Z</time></trkpt><trkpt lat="43.4645801" lon="10.6256934"><ele>402.00000000000006</ele><time>2026-05-01T10:07:42.018Z</time></trkpt><trkpt lat="43.4645185" lon="10.6257935"><ele>403.0</ele><time>2026-05-01T10:07:43.025Z</time></trkpt><trkpt lat="43.4644692" lon="10.6258976"><ele>395.59999999999997</ele><time>2026-05-01T10:07:44.022Z</time></trkpt><trkpt lat="43.4644224" lon="10.6260013"><ele>388.2</ele><time>2026-05-01T10:07:45.029Z</time></trkpt><trkpt lat="43.4643985" lon="10.62611"><ele>380.8</ele><time>2026-05-01T10:07:46.022Z</time></trkpt><trkpt lat="43.4644023" lon="10.6262336"><ele>373.4</ele><time>2026-05-01T10:07:47.027Z</time></trkpt><trkpt lat="43.4644034" lon="10.6263617"><ele>366.0</ele><time>2026-05-01T10:07:48.037Z</time></trkpt><trkpt lat="43.4644264" lon="10.6264966"><ele>365.20000000000005</ele><time>2026-05-01T10:07:49.021Z</time></trkpt><trkpt lat="43.464453" lon="10.6266272"><ele>364.40000000000003</ele><time>2026-05-01T10:07:50.027Z</time></trkpt><trkpt lat="43.4644977" lon="10.6267451"><ele>363.6</ele><time>2026-05-01T10:07:51.027Z</time></trkpt><trkpt lat="43.4645634" lon="10.626828"><ele>362.8</ele><time>2026-05-01T10:07:52.03Z</time></trkpt><trkpt lat="43.4646459" lon="10.6269034"><ele>362.0</ele><time>2026-05-01T10:07:53.028Z</time></trkpt><trkpt lat="43.464728" lon="10.6269712"><ele>363.8</ele><time>2026-05-01T10:07:54.023Z</time></trkpt><trkpt lat="43.4648136" lon="10.6270116"><ele>365.6</ele><time>2026-05-01T10:07:55.025Z</time></trkpt><trkpt lat="43.4649002" lon="10.6270319"><ele>367.40000000000003</ele><time>2026-05-01T10:07:56.035Z</time></trkpt><trkpt lat="43.4649898" lon="10.6270534"><ele>369.20000000000005</ele><time>2026-05-01T10:07:57.03Z</time></trkpt><trkpt lat="43.4650905" lon="10.6270694"><ele>371.0</ele><time>2026-05-01T10:07:58.025Z</time></trkpt><trkpt lat="43.4651856" lon="10.6270876"><ele>371.0</ele><time>2026-05-01T10:07:59.026Z</time></trkpt><trkpt lat="43.4652833" lon="10.6271094"><ele>371.0</ele><time>2026-05-01T10:08:00.029Z</time></trkpt><trkpt lat="43.4653757" lon="10.6271399"><ele>371.0</ele><time>2026-05-01T10:08:01.024Z</time></trkpt><trkpt lat="43.4654526" lon="10.6271926"><ele>371.0</ele><time>2026-05-01T10:08:02.014Z</time></trkpt><trkpt lat="43.4655027" lon="10.6272575"><ele>371.0</ele><time>2026-05-01T10:08:03.018Z</time></trkpt><trkpt lat="43.4655242" lon="10.6273995"><ele>371.0</ele><time>2026-05-01T10:08:05.023Z</time></trkpt><trkpt lat="43.4655013" lon="10.6274818"><ele>371.0</ele><time>2026-05-01T10:08:06.023Z</time></trkpt><trkpt lat="43.4654299" lon="10.6275781"><ele>371.0</ele><time>2026-05-01T10:08:07.025Z</time></trkpt><trkpt lat="43.4653458" lon="10.6276844"><ele>371.0</ele><time>2026-05-01T10:08:08.023Z</time></trkpt><trkpt lat="43.4652713" lon="10.6277956"><ele>371.0</ele><time>2026-05-01T10:08:09.038Z</time></trkpt><trkpt lat="43.4652043" lon="10.6279094"><ele>370.33333333333337</ele><time>2026-05-01T10:08:10.028Z</time></trkpt><trkpt lat="43.4651439" lon="10.6280158"><ele>369.6666666666667</ele><time>2026-05-01T10:08:11.034Z</time></trkpt><trkpt lat="43.4650986" lon="10.6281127"><ele>369.0</ele><time>2026-05-01T10:08:12.023Z</time></trkpt><trkpt lat="43.4650698" lon="10.6282018"><ele>368.3333333333333</ele><time>2026-05-01T10:08:13.023Z</time></trkpt><trkpt lat="43.4650373" lon="10.6282822"><ele>367.66666666666663</ele><time>2026-05-01T10:08:14.021Z</time></trkpt><trkpt lat="43.4650282" lon="10.6283712"><ele>367.0</ele><time>2026-05-01T10:08:15.032Z</time></trkpt><trkpt lat="43.4650478" lon="10.628458"><ele>367.0</ele><time>2026-05-01T10:08:16.024Z</time></trkpt><trkpt lat="43.4650864" lon="10.6285465"><ele>367.0</ele><time>2026-05-01T10:08:17.019Z</time></trkpt><trkpt lat="43.4651386" lon="10.6286252"><ele>367.0</ele><time>2026-05-01T10:08:18.025Z</time></trkpt><trkpt lat="43.4651905" lon="10.6287047"><ele>367.0</ele><time>2026-05-01T10:08:19.029Z</time></trkpt><trkpt lat="43.4652421" lon="10.6287937"><ele>367.0</ele><time>2026-05-01T10:08:20.026Z</time></trkpt><trkpt lat="43.4652989" lon="10.6288856"><ele>367.0</ele><time>2026-05-01T10:08:21.037Z</time></trkpt><trkpt lat="43.465364" lon="10.628973"><ele>365.40000000000003</ele><time>2026-05-01T10:08:22.03Z</time></trkpt><trkpt lat="43.4654355" lon="10.6290518"><ele>363.8</ele><time>2026-05-01T10:08:23.027Z</time></trkpt><trkpt lat="43.4655132" lon="10.6291227"><ele>362.2</ele><time>2026-05-01T10:08:24.032Z</time></trkpt><trkpt lat="43.4655954" lon="10.6292"><ele>360.6</ele><time>2026-05-01T10:08:25.038Z</time></trkpt><trkpt lat="43.465676" lon="10.629293"><ele>359.0</ele><time>2026-05-01T10:08:26.035Z</time></trkpt><trkpt lat="43.4657537" lon="10.6293953"><ele>360.2</ele><time>2026-05-01T10:08:27.02Z</time></trkpt><trkpt lat="43.4658277" lon="10.6295034"><ele>361.4</ele><time>2026-05-01T10:08:28.029Z</time></trkpt><trkpt lat="43.4659017" lon="10.6296217"><ele>362.6</ele><time>2026-05-01T10:08:29.019Z</time></trkpt><trkpt lat="43.4659733" lon="10.6297465"><ele>363.8</ele><time>2026-05-01T10:08:30.037Z</time></trkpt><trkpt lat="43.4660305" lon="10.6298761"><ele>365.0</ele><time>2026-05-01T10:08:31.031Z</time></trkpt><trkpt lat="43.4660614" lon="10.6299997"><ele>365.0</ele><time>2026-05-01T10:08:32.026Z</time></trkpt><trkpt lat="43.4660722" lon="10.6301225"><ele>365.0</ele><time>2026-05-01T10:08:33.028Z</time></trkpt><trkpt lat="43.4660594" lon="10.6302522"><ele>365.0</ele><time>2026-05-01T10:08:34.024Z</time></trkpt><trkpt lat="43.4660456" lon="10.6303756"><ele>365.0</ele><time>2026-05-01T10:08:35.038Z</time></trkpt><trkpt lat="43.4660387" lon="10.6304771"><ele>365.0</ele><time>2026-05-01T10:08:36.028Z</time></trkpt><trkpt lat="43.4660491" lon="10.6305817"><ele>365.0</ele><time>2026-05-01T10:08:38.03Z</time></trkpt><trkpt lat="43.4660654" lon="10.630675"><ele>364.6666666666667</ele><time>2026-05-01T10:08:42.024Z</time></trkpt><trkpt lat="43.4660072" lon="10.6307514"><ele>364.33333333333337</ele><time>2026-05-01T10:08:46.027Z</time></trkpt><trkpt lat="43.4659418" lon="10.6307256"><ele>364.0</ele><time>2026-05-01T10:08:51.033Z</time></trkpt><trkpt lat="43.4658747" lon="10.6307343"><ele>363.6666666666667</ele><time>2026-05-01T10:08:56.022Z</time></trkpt><trkpt lat="43.4658079" lon="10.6307529"><ele>363.3333333333333</ele><time>2026-05-01T10:09:08.031Z</time></trkpt><trkpt lat="43.4657477" lon="10.6307945"><ele>363.0</ele><time>2026-05-01T10:15:31.025Z</time></trkpt><trkpt lat="43.4656665" lon="10.630883"><ele>363.0</ele><time>2026-05-01T10:15:34.029Z</time></trkpt><trkpt lat="43.465577" lon="10.6309413"><ele>363.0</ele><time>2026-05-01T10:15:36.029Z</time></trkpt><trkpt lat="43.465477" lon="10.6309952"><ele>363.0</ele><time>2026-05-01T10:15:38.03Z</time></trkpt><trkpt lat="43.4653612" lon="10.6310577"><ele>363.0</ele><time>2026-05-01T10:15:40.031Z</time></trkpt><trkpt lat="43.4652882" lon="10.6310964"><ele>363.0</ele><time>2026-05-01T10:15:41.033Z</time></trkpt><trkpt lat="43.4652083" lon="10.6311403"><ele>362.2</ele><time>2026-05-01T10:15:42.025Z</time></trkpt><trkpt lat="43.4651224" lon="10.6311836"><ele>361.4</ele><time>2026-05-01T10:15:43.021Z</time></trkpt><trkpt lat="43.4650292" lon="10.6312214"><ele>360.59999999999997</ele><time>2026-05-01T10:15:44.027Z</time></trkpt><trkpt lat="43.4649268" lon="10.6312452"><ele>359.79999999999995</ele><time>2026-05-01T10:15:45.012Z</time></trkpt><trkpt lat="43.4648201" lon="10.6312394"><ele>359.0</ele><time>2026-05-01T10:15:46.025Z</time></trkpt><trkpt lat="43.4647186" lon="10.6312119"><ele>359.0</ele><time>2026-05-01T10:15:47.024Z</time></trkpt><trkpt lat="43.4646269" lon="10.6311583"><ele>359.0</ele><time>2026-05-01T10:15:48.026Z</time></trkpt><trkpt lat="43.4645426" lon="10.6310967"><ele>359.0</ele><time>2026-05-01T10:15:49.028Z</time></trkpt><trkpt lat="43.4644622" lon="10.6310358"><ele>359.0</ele><time>2026-05-01T10:15:50.034Z</time></trkpt><trkpt lat="43.4643843" lon="10.6309795"><ele>359.0</ele><time>2026-05-01T10:15:51.032Z</time></trkpt><trkpt lat="43.4643072" lon="10.6309321"><ele>356.8571428571429</ele><time>2026-05-01T10:15:52.026Z</time></trkpt><trkpt lat="43.4642329" lon="10.6308897"><ele>354.7142857142857</ele><time>2026-05-01T10:15:53.027Z</time></trkpt><trkpt lat="43.4641569" lon="10.6308664"><ele>352.57142857142856</ele><time>2026-05-01T10:15:54.038Z</time></trkpt><trkpt lat="43.4640818" lon="10.6308557"><ele>350.42857142857144</ele><time>2026-05-01T10:15:55.028Z</time></trkpt><trkpt lat="43.4640115" lon="10.6308526"><ele>348.2857142857143</ele><time>2026-05-01T10:15:56.033Z</time></trkpt><trkpt lat="43.463947" lon="10.6308587"><ele>346.14285714285717</ele><time>2026-05-01T10:15:57.042Z</time></trkpt><trkpt lat="43.4638827" lon="10.6308735"><ele>344.0</ele><time>2026-05-01T10:15:58.033Z</time></trkpt><trkpt lat="43.4637608" lon="10.6309099"><ele>342.0</ele><time>2026-05-01T10:16:00.029Z</time></trkpt><trkpt lat="43.4636598" lon="10.6309928"><ele>340.0</ele><time>2026-05-01T10:16:02.031Z</time></trkpt><trkpt lat="43.4636159" lon="10.6310726"><ele>338.0</ele><time>2026-05-01T10:16:03.024Z</time></trkpt><trkpt lat="43.4635748" lon="10.6311684"><ele>336.0</ele><time>2026-05-01T10:16:04.031Z</time></trkpt><trkpt lat="43.463549" lon="10.631285"><ele>334.0</ele><time>2026-05-01T10:16:05.031Z</time></trkpt><trkpt lat="43.463522" lon="10.6314225"><ele>334.0</ele><time>2026-05-01T10:16:06.033Z</time></trkpt><trkpt lat="43.4634838" lon="10.6315651"><ele>334.0</ele><time>2026-05-01T10:16:07.037Z</time></trkpt><trkpt lat="43.4634423" lon="10.6317197"><ele>334.0</ele><time>2026-05-01T10:16:08.027Z</time></trkpt><trkpt lat="43.4634083" lon="10.6318791"><ele>334.0</ele><time>2026-05-01T10:16:09.035Z</time></trkpt><trkpt lat="43.4633703" lon="10.6320444"><ele>333.5</ele><time>2026-05-01T10:16:10.024Z</time></trkpt><trkpt lat="43.4633379" lon="10.6321925"><ele>333.0</ele><time>2026-05-01T10:16:11.03Z</time></trkpt><trkpt lat="43.4633097" lon="10.6323186"><ele>332.5</ele><time>2026-05-01T10:16:12.028Z</time></trkpt><trkpt lat="43.4632771" lon="10.6324228"><ele>332.0</ele><time>2026-05-01T10:16:13.031Z</time></trkpt><trkpt lat="43.4632265" lon="10.6325063"><ele>331.5</ele><time>2026-05-01T10:16:14.038Z</time></trkpt><trkpt lat="43.4631648" lon="10.6325537"><ele>331.0</ele><time>2026-05-01T10:16:15.025Z</time></trkpt><trkpt lat="43.4630946" lon="10.6325218"><ele>331.0</ele><time>2026-05-01T10:16:16.023Z</time></trkpt><trkpt lat="43.4630418" lon="10.6324464"><ele>331.0</ele><time>2026-05-01T10:16:17.027Z</time></trkpt><trkpt lat="43.4630263" lon="10.6323476"><ele>331.0</ele><time>2026-05-01T10:16:18.024Z</time></trkpt><trkpt lat="43.4630175" lon="10.6322419"><ele>331.0</ele><time>2026-05-01T10:16:19.025Z</time></trkpt><trkpt lat="43.463001" lon="10.6321179"><ele>331.0</ele><time>2026-05-01T10:16:20.025Z</time></trkpt><trkpt lat="43.4629864" lon="10.6319727"><ele>331.0</ele><time>2026-05-01T10:16:21.02Z</time></trkpt><trkpt lat="43.4629779" lon="10.6318061"><ele>331.75</ele><time>2026-05-01T10:16:22.028Z</time></trkpt><trkpt lat="43.4629675" lon="10.6316253"><ele>332.5</ele><time>2026-05-01T10:16:23.043Z</time></trkpt><trkpt lat="43.4629608" lon="10.631439"><ele>333.25</ele><time>2026-05-01T10:16:24.028Z</time></trkpt><trkpt lat="43.4629561" lon="10.6312467"><ele>334.0</ele><time>2026-05-01T10:16:25.024Z</time></trkpt><trkpt lat="43.4629474" lon="10.6310377"><ele>326.0</ele><time>2026-05-01T10:16:26.03Z</time></trkpt><trkpt lat="43.4629419" lon="10.6308229"><ele>318.0</ele><time>2026-05-01T10:16:27.029Z</time></trkpt><trkpt lat="43.4629402" lon="10.6305963"><ele>310.0</ele><time>2026-05-01T10:16:28.022Z</time></trkpt><trkpt lat="43.4629407" lon="10.6303738"><ele>313.75</ele><time>2026-05-01T10:16:29.027Z</time></trkpt><trkpt lat="43.4629476" lon="10.630164"><ele>317.5</ele><time>2026-05-01T10:16:30.017Z</time></trkpt><trkpt lat="43.4629564" lon="10.6299686"><ele>321.25</ele><time>2026-05-01T10:16:31.024Z</time></trkpt><trkpt lat="43.4629645" lon="10.6298089"><ele>325.0</ele><time>2026-05-01T10:16:32.033Z</time></trkpt><trkpt lat="43.4629719" lon="10.6296797"><ele>322.66666666666663</ele><time>2026-05-01T10:16:33.025Z</time></trkpt><trkpt lat="43.4629441" lon="10.6295806"><ele>320.3333333333333</ele><time>2026-05-01T10:16:34.035Z</time></trkpt><trkpt lat="43.4628932" lon="10.6295098"><ele>318.0</ele><time>2026-05-01T10:16:35.034Z</time></trkpt><trkpt lat="43.4628129" lon="10.6294904"><ele>315.6666666666667</ele><time>2026-05-01T10:16:36.023Z</time></trkpt><trkpt lat="43.4627527" lon="10.6295296"><ele>313.33333333333337</ele><time>2026-05-01T10:16:37.024Z</time></trkpt><trkpt lat="43.4627017" lon="10.6296217"><ele>311.0</ele><time>2026-05-01T10:16:38.036Z</time></trkpt><trkpt lat="43.462653" lon="10.6297373"><ele>311.0</ele><time>2026-05-01T10:16:39.028Z</time></trkpt><trkpt lat="43.4625984" lon="10.6298693"><ele>311.0</ele><time>2026-05-01T10:16:40.033Z</time></trkpt><trkpt lat="43.462542" lon="10.6300175"><ele>311.0</ele><time>2026-05-01T10:16:41.028Z</time></trkpt><trkpt lat="43.4624821" lon="10.6301671"><ele>311.0</ele><time>2026-05-01T10:16:42.032Z</time></trkpt><trkpt lat="43.4624181" lon="10.6303127"><ele>310.8</ele><time>2026-05-01T10:16:43.029Z</time></trkpt><trkpt lat="43.4623604" lon="10.6304453"><ele>310.6</ele><time>2026-05-01T10:16:44.025Z</time></trkpt><trkpt lat="43.4623032" lon="10.6305722"><ele>310.4</ele><time>2026-05-01T10:16:45.026Z</time></trkpt><trkpt lat="43.4622429" lon="10.6306825"><ele>310.2</ele><time>2026-05-01T10:16:46.032Z</time></trkpt><trkpt lat="43.4621739" lon="10.6307735"><ele>310.0</ele><time>2026-05-01T10:16:47.031Z</time></trkpt><trkpt lat="43.4620864" lon="10.6308371"><ele>307.2</ele><time>2026-05-01T10:16:48.034Z</time></trkpt><trkpt lat="43.4619809" lon="10.6308551"><ele>304.4</ele><time>2026-05-01T10:16:49.03Z</time></trkpt><trkpt lat="43.4618733" lon="10.6308402"><ele>301.6</ele><time>2026-05-01T10:16:50.027Z</time></trkpt><trkpt lat="43.4617697" lon="10.6308027"><ele>298.8</ele><time>2026-05-01T10:16:51.026Z</time></trkpt><trkpt lat="43.4616591" lon="10.6307583"><ele>296.0</ele><time>2026-05-01T10:16:52.024Z</time></trkpt><trkpt lat="43.4615546" lon="10.6307215"><ele>296.0</ele><time>2026-05-01T10:16:53.02Z</time></trkpt><trkpt lat="43.4614583" lon="10.6306758"><ele>296.0</ele><time>2026-05-01T10:16:54.03Z</time></trkpt><trkpt lat="43.4613766" lon="10.6306012"><ele>296.0</ele><time>2026-05-01T10:16:55.025Z</time></trkpt><trkpt lat="43.4613281" lon="10.6304982"><ele>296.0</ele><time>2026-05-01T10:16:56.036Z</time></trkpt><trkpt lat="43.4613161" lon="10.6303629"><ele>296.0</ele><time>2026-05-01T10:16:57.038Z</time></trkpt><trkpt lat="43.4613413" lon="10.6302242"><ele>295.0</ele><time>2026-05-01T10:16:58.018Z</time></trkpt><trkpt lat="43.4613885" lon="10.6300688"><ele>294.0</ele><time>2026-05-01T10:16:59.022Z</time></trkpt><trkpt lat="43.4614378" lon="10.6299031"><ele>293.0</ele><time>2026-05-01T10:17:00.031Z</time></trkpt><trkpt lat="43.4614869" lon="10.6297259"><ele>292.0</ele><time>2026-05-01T10:17:01.037Z</time></trkpt><trkpt lat="43.4615286" lon="10.6295567"><ele>290.8333333333333</ele><time>2026-05-01T10:17:02.026Z</time></trkpt><trkpt lat="43.4615603" lon="10.6294156"><ele>289.66666666666663</ele><time>2026-05-01T10:17:03.028Z</time></trkpt><trkpt lat="43.4615842" lon="10.6292931"><ele>288.5</ele><time>2026-05-01T10:17:04.024Z</time></trkpt><trkpt lat="43.4615847" lon="10.6291891"><ele>287.3333333333333</ele><time>2026-05-01T10:17:05.013Z</time></trkpt><trkpt lat="43.4615629" lon="10.6290986"><ele>286.1666666666667</ele><time>2026-05-01T10:17:06.037Z</time></trkpt><trkpt lat="43.4615075" lon="10.6290429"><ele>285.0</ele><time>2026-05-01T10:17:07.035Z</time></trkpt><trkpt lat="43.4614237" lon="10.6290289"><ele>285.0</ele><time>2026-05-01T10:17:08.02Z</time></trkpt><trkpt lat="43.4613385" lon="10.6290697"><ele>285.0</ele><time>2026-05-01T10:17:09.028Z</time></trkpt><trkpt lat="43.4612554" lon="10.6291456"><ele>285.0</ele><time>2026-05-01T10:17:10.03Z</time></trkpt><trkpt lat="43.4611714" lon="10.6292343"><ele>285.0</ele><time>2026-05-01T10:17:11.028Z</time></trkpt><trkpt lat="43.4610729" lon="10.6293306"><ele>285.0</ele><time>2026-05-01T10:17:12.02Z</time></trkpt><trkpt lat="43.460966" lon="10.6294299"><ele>283.25</ele><time>2026-05-01T10:17:13.025Z</time></trkpt><trkpt lat="43.4608537" lon="10.6295247"><ele>281.5</ele><time>2026-05-01T10:17:14.015Z</time></trkpt><trkpt lat="43.4607542" lon="10.6296075"><ele>279.75</ele><time>2026-05-01T10:17:15.02Z</time></trkpt><trkpt lat="43.4606722" lon="10.6296952"><ele>278.0</ele><time>2026-05-01T10:17:16.032Z</time></trkpt><trkpt lat="43.4606119" lon="10.6298013"><ele>278.0</ele><time>2026-05-01T10:17:17.034Z</time></trkpt><trkpt lat="43.4605711" lon="10.629919"><ele>278.0</ele><time>2026-05-01T10:17:18.019Z</time></trkpt><trkpt lat="43.4605482" lon="10.6300452"><ele>278.0</ele><time>2026-05-01T10:17:19.026Z</time></trkpt><trkpt lat="43.4605282" lon="10.63018"><ele>278.0</ele><time>2026-05-01T10:17:20.025Z</time></trkpt><trkpt lat="43.460508" lon="10.6303343"><ele>278.0</ele><time>2026-05-01T10:17:21.034Z</time></trkpt><trkpt lat="43.4604928" lon="10.6304954"><ele>277.83333333333337</ele><time>2026-05-01T10:17:22.019Z</time></trkpt><trkpt lat="43.4604769" lon="10.6306447"><ele>277.6666666666667</ele><time>2026-05-01T10:17:23.031Z</time></trkpt><trkpt lat="43.4604585" lon="10.630767"><ele>277.5</ele><time>2026-05-01T10:17:24.024Z</time></trkpt><trkpt lat="43.4604292" lon="10.6308667"><ele>277.3333333333333</ele><time>2026-05-01T10:17:25.039Z</time></trkpt><trkpt lat="43.4603749" lon="10.6309393"><ele>277.16666666666663</ele><time>2026-05-01T10:17:26.034Z</time></trkpt><trkpt lat="43.4602921" lon="10.6309425"><ele>277.0</ele><time>2026-05-01T10:17:27.023Z</time></trkpt><trkpt lat="43.4602011" lon="10.6308953"><ele>272.75</ele><time>2026-05-01T10:17:28.023Z</time></trkpt><trkpt lat="43.4601532" lon="10.6307757"><ele>268.5</ele><time>2026-05-01T10:17:29.037Z</time></trkpt><trkpt lat="43.460128" lon="10.630623"><ele>264.25</ele><time>2026-05-01T10:17:30.027Z</time></trkpt><trkpt lat="43.4601042" lon="10.6304418"><ele>260.0</ele><time>2026-05-01T10:17:31.022Z</time></trkpt><trkpt lat="43.4600703" lon="10.6302319"><ele>259.6666666666667</ele><time>2026-05-01T10:17:32.018Z</time></trkpt><trkpt lat="43.4600293" lon="10.6299995"><ele>259.3333333333333</ele><time>2026-05-01T10:17:33.025Z</time></trkpt><trkpt lat="43.4599874" lon="10.6297866"><ele>259.0</ele><time>2026-05-01T10:17:34.022Z</time></trkpt><trkpt lat="43.4599446" lon="10.6295925"><ele>258.4</ele><time>2026-05-01T10:17:35.028Z</time></trkpt><trkpt lat="43.459912" lon="10.6294277"><ele>257.79999999999995</ele><time>2026-05-01T10:17:36.018Z</time></trkpt><trkpt lat="43.4598886" lon="10.6292772"><ele>257.20000000000005</ele><time>2026-05-01T10:17:37.027Z</time></trkpt><trkpt lat="43.4598676" lon="10.6291358"><ele>256.6</ele><time>2026-05-01T10:17:38.032Z</time></trkpt><trkpt lat="43.4598413" lon="10.6290041"><ele>256.0</ele><time>2026-05-01T10:17:39.033Z</time></trkpt><trkpt lat="43.4597986" lon="10.6288875"><ele>256.0</ele><time>2026-05-01T10:17:40.037Z</time></trkpt><trkpt lat="43.4597353" lon="10.6287934"><ele>256.0</ele><time>2026-05-01T10:17:41.025Z</time></trkpt><trkpt lat="43.4596502" lon="10.6287203"><ele>256.0</ele><time>2026-05-01T10:17:42.013Z</time></trkpt><trkpt lat="43.4595712" lon="10.6286472"><ele>256.0</ele><time>2026-05-01T10:17:43.03Z</time></trkpt><trkpt lat="43.4594827" lon="10.628577"><ele>256.0</ele><time>2026-05-01T10:17:44.03Z</time></trkpt><trkpt lat="43.4594026" lon="10.6285019"><ele>255.66666666666666</ele><time>2026-05-01T10:17:45.03Z</time></trkpt><trkpt lat="43.4593266" lon="10.6284346"><ele>255.33333333333331</ele><time>2026-05-01T10:17:46.03Z</time></trkpt><trkpt lat="43.4592549" lon="10.6283784"><ele>255.0</ele><time>2026-05-01T10:17:47.026Z</time></trkpt><trkpt lat="43.4591925" lon="10.6283487"><ele>254.66666666666669</ele><time>2026-05-01T10:17:48.032Z</time></trkpt><trkpt lat="43.4590814" lon="10.6283679"><ele>254.33333333333334</ele><time>2026-05-01T10:17:50.024Z</time></trkpt><trkpt lat="43.4590031" lon="10.6284274"><ele>254.0</ele><time>2026-05-01T10:17:52.018Z</time></trkpt><trkpt lat="43.4589254" lon="10.6285452"><ele>254.0</ele><time>2026-05-01T10:17:54.024Z</time></trkpt><trkpt lat="43.45889" lon="10.6286259"><ele>253.99999999999997</ele><time>2026-05-01T10:17:55.025Z</time></trkpt><trkpt lat="43.4588584" lon="10.6287172"><ele>253.99999999999997</ele><time>2026-05-01T10:17:56.029Z</time></trkpt><trkpt lat="43.4588413" lon="10.6288405"><ele>254.0</ele><time>2026-05-01T10:17:57.03Z</time></trkpt><trkpt lat="43.4588374" lon="10.6289836"><ele>254.0</ele><time>2026-05-01T10:17:58.026Z</time></trkpt><trkpt lat="43.4588271" lon="10.6291395"><ele>253.79999999999998</ele><time>2026-05-01T10:17:59.024Z</time></trkpt><trkpt lat="43.4588164" lon="10.6292984"><ele>253.59999999999997</ele><time>2026-05-01T10:18:00.031Z</time></trkpt><trkpt lat="43.4588066" lon="10.6294494"><ele>253.4</ele><time>2026-05-01T10:18:01.034Z</time></trkpt><trkpt lat="43.4587898" lon="10.6295867"><ele>253.2</ele><time>2026-05-01T10:18:02.01Z</time></trkpt><trkpt lat="43.4587468" lon="10.6297097"><ele>253.0</ele><time>2026-05-01T10:18:03.027Z</time></trkpt><trkpt lat="43.4586799" lon="10.6297992"><ele>255.2</ele><time>2026-05-01T10:18:04.02Z</time></trkpt><trkpt lat="43.4585948" lon="10.6298677"><ele>257.4</ele><time>2026-05-01T10:18:05.025Z</time></trkpt><trkpt lat="43.4584975" lon="10.629914"><ele>259.59999999999997</ele><time>2026-05-01T10:18:06.022Z</time></trkpt><trkpt lat="43.4583935" lon="10.6299521"><ele>261.8</ele><time>2026-05-01T10:18:07.035Z</time></trkpt><trkpt lat="43.458289" lon="10.629995"><ele>264.0</ele><time>2026-05-01T10:18:08.04Z</time></trkpt><trkpt lat="43.4581834" lon="10.6300422"><ele>264.0</ele><time>2026-05-01T10:18:09.026Z</time></trkpt><trkpt lat="43.4580796" lon="10.6301085"><ele>264.0</ele><time>2026-05-01T10:18:10.03Z</time></trkpt><trkpt lat="43.4579892" lon="10.6301956"><ele>264.0</ele><time>2026-05-01T10:18:11.024Z</time></trkpt><trkpt lat="43.4579029" lon="10.6303036"><ele>264.0</ele><time>2026-05-01T10:18:12.026Z</time></trkpt><trkpt lat="43.4578173" lon="10.6304287"><ele>266.5</ele><time>2026-05-01T10:18:13.021Z</time></trkpt><trkpt lat="43.4577307" lon="10.6305748"><ele>269.0</ele><time>2026-05-01T10:18:14.026Z</time></trkpt><trkpt lat="43.4576397" lon="10.6307408"><ele>271.5</ele><time>2026-05-01T10:18:15.022Z</time></trkpt><trkpt lat="43.4575476" lon="10.6309168"><ele>274.0</ele><time>2026-05-01T10:18:16.026Z</time></trkpt><trkpt lat="43.4574538" lon="10.6310904"><ele>273.0</ele><time>2026-05-01T10:18:17.045Z</time></trkpt><trkpt lat="43.4573605" lon="10.6312428"><ele>272.0</ele><time>2026-05-01T10:18:18.024Z</time></trkpt><trkpt lat="43.4572739" lon="10.6313824"><ele>271.0</ele><time>2026-05-01T10:18:19.026Z</time></trkpt><trkpt lat="43.4572012" lon="10.6315357"><ele>270.0</ele><time>2026-05-01T10:18:20.022Z</time></trkpt><trkpt lat="43.4571563" lon="10.6316905"><ele>270.0</ele><time>2026-05-01T10:18:21.027Z</time></trkpt><trkpt lat="43.457128" lon="10.6318534"><ele>270.0</ele><time>2026-05-01T10:18:22.031Z</time></trkpt><trkpt lat="43.457122" lon="10.6320102"><ele>270.0</ele><time>2026-05-01T10:18:23.023Z</time></trkpt><trkpt lat="43.4571149" lon="10.6321485"><ele>270.0</ele><time>2026-05-01T10:18:24.01Z</time></trkpt><trkpt lat="43.4571034" lon="10.6322573"><ele>270.0</ele><time>2026-05-01T10:18:25.025Z</time></trkpt><trkpt lat="43.4570675" lon="10.6323525"><ele>273.8333333333333</ele><time>2026-05-01T10:18:26.028Z</time></trkpt><trkpt lat="43.4570011" lon="10.6324138"><ele>277.6666666666667</ele><time>2026-05-01T10:18:27.021Z</time></trkpt><trkpt lat="43.4569178" lon="10.6324008"><ele>281.5</ele><time>2026-05-01T10:18:28.02Z</time></trkpt><trkpt lat="43.4568542" lon="10.6323357"><ele>285.33333333333337</ele><time>2026-05-01T10:18:29.029Z</time></trkpt><trkpt lat="43.4568266" lon="10.632218"><ele>289.1666666666667</ele><time>2026-05-01T10:18:30.033Z</time></trkpt><trkpt lat="43.4568035" lon="10.6320654"><ele>293.0</ele><time>2026-05-01T10:18:31.026Z</time></trkpt><trkpt lat="43.4567839" lon="10.6318805"><ele>294.0</ele><time>2026-05-01T10:18:32.025Z</time></trkpt><trkpt lat="43.4567502" lon="10.6316958"><ele>295.0</ele><time>2026-05-01T10:18:33.026Z</time></trkpt><trkpt lat="43.4567053" lon="10.6315005"><ele>296.0</ele><time>2026-05-01T10:18:34.013Z</time></trkpt><trkpt lat="43.4566561" lon="10.6312965"><ele>297.0</ele><time>2026-05-01T10:18:35.012Z</time></trkpt><trkpt lat="43.4566068" lon="10.6310982"><ele>297.25</ele><time>2026-05-01T10:18:36.025Z</time></trkpt><trkpt lat="43.4565641" lon="10.6308968"><ele>297.5</ele><time>2026-05-01T10:18:37.019Z</time></trkpt><trkpt lat="43.456544" lon="10.6306962"><ele>297.75</ele><time>2026-05-01T10:18:38.019Z</time></trkpt><trkpt lat="43.4565343" lon="10.6304973"><ele>298.0</ele><time>2026-05-01T10:18:39.03Z</time></trkpt><trkpt lat="43.4565358" lon="10.6303075"><ele>299.8</ele><time>2026-05-01T10:18:40.021Z</time></trkpt><trkpt lat="43.4565403" lon="10.630134"><ele>301.6</ele><time>2026-05-01T10:18:41.022Z</time></trkpt><trkpt lat="43.456552" lon="10.6299874"><ele>303.4</ele><time>2026-05-01T10:18:42.038Z</time></trkpt><trkpt lat="43.4565798" lon="10.6298607"><ele>305.2</ele><time>2026-05-01T10:18:43.031Z</time></trkpt><trkpt lat="43.4566264" lon="10.6297445"><ele>307.0</ele><time>2026-05-01T10:18:44.031Z</time></trkpt><trkpt lat="43.4567074" lon="10.6296317"><ele>307.0</ele><time>2026-05-01T10:18:45.042Z</time></trkpt><trkpt lat="43.4568035" lon="10.6295331"><ele>307.0</ele><time>2026-05-01T10:18:46.027Z</time></trkpt><trkpt lat="43.4568816" lon="10.6294295"><ele>307.0</ele><time>2026-05-01T10:18:47.022Z</time></trkpt><trkpt lat="43.4569349" lon="10.6292903"><ele>307.0</ele><time>2026-05-01T10:18:48.03Z</time></trkpt><trkpt lat="43.456976" lon="10.629127"><ele>309.75</ele><time>2026-05-01T10:18:49.033Z</time></trkpt><trkpt lat="43.457014" lon="10.6289499"><ele>312.5</ele><time>2026-05-01T10:18:50.037Z</time></trkpt><trkpt lat="43.4570497" lon="10.6287806"><ele>315.25</ele><time>2026-05-01T10:18:51.03Z</time></trkpt><trkpt lat="43.4570812" lon="10.6286306"><ele>318.0</ele><time>2026-05-01T10:18:52.021Z</time></trkpt><trkpt lat="43.457097" lon="10.6284903"><ele>320.0</ele><time>2026-05-01T10:18:53.023Z</time></trkpt><trkpt lat="43.4570749" lon="10.6283536"><ele>322.0</ele><time>2026-05-01T10:18:54.022Z</time></trkpt><trkpt lat="43.4570165" lon="10.6282272"><ele>324.0</ele><time>2026-05-01T10:18:55.026Z</time></trkpt><trkpt lat="43.4569305" lon="10.6281042"><ele>326.0</ele><time>2026-05-01T10:18:56.025Z</time></trkpt><trkpt lat="43.4568397" lon="10.6279779"><ele>326.0</ele><time>2026-05-01T10:18:57.031Z</time></trkpt><trkpt lat="43.4567522" lon="10.627826"><ele>326.0</ele><time>2026-05-01T10:18:58.033Z</time></trkpt><trkpt lat="43.4566865" lon="10.6276505"><ele>326.0</ele><time>2026-05-01T10:18:59.015Z</time></trkpt><trkpt lat="43.4566258" lon="10.6274594"><ele>326.0</ele><time>2026-05-01T10:19:00.034Z</time></trkpt><trkpt lat="43.4565756" lon="10.6272798"><ele>325.75</ele><time>2026-05-01T10:19:01.037Z</time></trkpt><trkpt lat="43.4565284" lon="10.6271092"><ele>325.5</ele><time>2026-05-01T10:19:02.031Z</time></trkpt><trkpt lat="43.456477" lon="10.626946"><ele>325.25</ele><time>2026-05-01T10:19:03.025Z</time></trkpt><trkpt lat="43.4564327" lon="10.6267847"><ele>325.0</ele><time>2026-05-01T10:19:04.034Z</time></trkpt><trkpt lat="43.4563862" lon="10.6266517"><ele>324.4</ele><time>2026-05-01T10:19:05.033Z</time></trkpt><trkpt lat="43.4563262" lon="10.6265431"><ele>323.8</ele><time>2026-05-01T10:19:06.029Z</time></trkpt><trkpt lat="43.456244" lon="10.6264827"><ele>323.20000000000005</ele><time>2026-05-01T10:19:07.032Z</time></trkpt><trkpt lat="43.4561347" lon="10.6264696"><ele>322.6</ele><time>2026-05-01T10:19:08.025Z</time></trkpt><trkpt lat="43.4560212" lon="10.626491"><ele>322.0</ele><time>2026-05-01T10:19:09.021Z</time></trkpt><trkpt lat="43.4559068" lon="10.6265466"><ele>326.0</ele><time>2026-05-01T10:19:10.029Z</time></trkpt><trkpt lat="43.4557997" lon="10.6266065"><ele>330.0</ele><time>2026-05-01T10:19:11.019Z</time></trkpt><trkpt lat="43.4556961" lon="10.6266947"><ele>334.0</ele><time>2026-05-01T10:19:12.022Z</time></trkpt><trkpt lat="43.455591" lon="10.6267937"><ele>338.0</ele><time>2026-05-01T10:19:13.031Z</time></trkpt><trkpt lat="43.4554908" lon="10.6268594"><ele>340.1666666666667</ele><time>2026-05-01T10:19:14.028Z</time></trkpt><trkpt lat="43.4554047" lon="10.626857"><ele>342.33333333333337</ele><time>2026-05-01T10:19:15.024Z</time></trkpt><trkpt lat="43.4553493" lon="10.6267978"><ele>344.5</ele><time>2026-05-01T10:19:16.027Z</time></trkpt><trkpt lat="43.4553234" lon="10.6267032"><ele>346.6666666666667</ele><time>2026-05-01T10:19:17.024Z</time></trkpt><trkpt lat="43.4553009" lon="10.6265755"><ele>348.8333333333333</ele><time>2026-05-01T10:19:18.02Z</time></trkpt><trkpt lat="43.4552887" lon="10.6264732"><ele>351.0</ele><time>2026-05-01T10:19:19.033Z</time></trkpt><trkpt lat="43.4551938" lon="10.6264468"><ele>351.0</ele><time>2026-05-01T10:19:20.03Z</time></trkpt><trkpt lat="43.4551013" lon="10.6264696"><ele>351.0</ele><time>2026-05-01T10:19:21.032Z</time></trkpt><trkpt lat="43.4550378" lon="10.6265508"><ele>351.0</ele><time>2026-05-01T10:19:22.029Z</time></trkpt><trkpt lat="43.4550002" lon="10.6266916"><ele>351.0</ele><time>2026-05-01T10:19:23.024Z</time></trkpt><trkpt lat="43.4549913" lon="10.6268461"><ele>351.0</ele><time>2026-05-01T10:19:24.021Z</time></trkpt><trkpt lat="43.4550056" lon="10.6270048"><ele>351.75</ele><time>2026-05-01T10:19:25.02Z</time></trkpt><trkpt lat="43.4550109" lon="10.6271798"><ele>352.5</ele><time>2026-05-01T10:19:26.027Z</time></trkpt><trkpt lat="43.455019" lon="10.6273597"><ele>353.25</ele><time>2026-05-01T10:19:27.029Z</time></trkpt><trkpt lat="43.4550239" lon="10.6275501"><ele>354.0</ele><time>2026-05-01T10:19:28.032Z</time></trkpt><trkpt lat="43.4550297" lon="10.6277443"><ele>355.75</ele><time>2026-05-01T10:19:29.025Z</time></trkpt><trkpt lat="43.4550341" lon="10.6279478"><ele>357.5</ele><time>2026-05-01T10:19:30.021Z</time></trkpt><trkpt lat="43.4550412" lon="10.6281557"><ele>359.25</ele><time>2026-05-01T10:19:31.017Z</time></trkpt><trkpt lat="43.4550476" lon="10.6283604"><ele>361.0</ele><time>2026-05-01T10:19:32.033Z</time></trkpt><trkpt lat="43.4550555" lon="10.6285566"><ele>362.25</ele><time>2026-05-01T10:19:33.022Z</time></trkpt><trkpt lat="43.4550668" lon="10.6287431"><ele>363.5</ele><time>2026-05-01T10:19:34.02Z</time></trkpt><trkpt lat="43.4550734" lon="10.6289315"><ele>364.75</ele><time>2026-05-01T10:19:35.02Z</time></trkpt><trkpt lat="43.4550767" lon="10.6291207"><ele>366.0</ele><time>2026-05-01T10:19:36.023Z</time></trkpt><trkpt lat="43.4550787" lon="10.6293036"><ele>366.0</ele><time>2026-05-01T10:19:37.037Z</time></trkpt><trkpt lat="43.4550809" lon="10.6294726"><ele>366.0</ele><time>2026-05-01T10:19:38.02Z</time></trkpt><trkpt lat="43.4550715" lon="10.6296294"><ele>366.0</ele><time>2026-05-01T10:19:39.017Z</time></trkpt><trkpt lat="43.4550513" lon="10.6297748"><ele>366.0</ele><time>2026-05-01T10:19:40.036Z</time></trkpt><trkpt lat="43.4550083" lon="10.6299115"><ele>365.75</ele><time>2026-05-01T10:19:41.023Z</time></trkpt><trkpt lat="43.4549316" lon="10.630015"><ele>365.5</ele><time>2026-05-01T10:19:42.021Z</time></trkpt><trkpt lat="43.454833" lon="10.6301033"><ele>365.25</ele><time>2026-05-01T10:19:43.019Z</time></trkpt><trkpt lat="43.4547439" lon="10.6301982"><ele>365.0</ele><time>2026-05-01T10:19:44.023Z</time></trkpt><trkpt lat="43.4546627" lon="10.6303072"><ele>366.8</ele><time>2026-05-01T10:19:45.028Z</time></trkpt><trkpt lat="43.4545893" lon="10.6304181"><ele>368.6</ele><time>2026-05-01T10:19:46.021Z</time></trkpt><trkpt lat="43.4545313" lon="10.63053"><ele>370.4</ele><time>2026-05-01T10:19:47.024Z</time></trkpt><trkpt lat="43.4544817" lon="10.6306322"><ele>372.2</ele><time>2026-05-01T10:19:48.021Z</time></trkpt><trkpt lat="43.4544355" lon="10.6307289"><ele>374.0</ele><time>2026-05-01T10:19:49.033Z</time></trkpt><trkpt lat="43.4543862" lon="10.6308232"><ele>374.0</ele><time>2026-05-01T10:19:50.023Z</time></trkpt><trkpt lat="43.4543227" lon="10.6308895"><ele>374.0</ele><time>2026-05-01T10:19:51.037Z</time></trkpt><trkpt lat="43.4542582" lon="10.630923"><ele>374.0</ele><time>2026-05-01T10:19:52.009Z</time></trkpt><trkpt lat="43.4541768" lon="10.6309251"><ele>374.0</ele><time>2026-05-01T10:19:53.019Z</time></trkpt><trkpt lat="43.4541063" lon="10.630909"><ele>374.0</ele><time>2026-05-01T10:19:54.016Z</time></trkpt><trkpt lat="43.4540371" lon="10.6308843"><ele>374.0</ele><time>2026-05-01T10:19:55.028Z</time></trkpt><trkpt lat="43.4539761" lon="10.630853"><ele>374.0</ele><time>2026-05-01T10:19:56.03Z</time></trkpt><trkpt lat="43.4538998" lon="10.6307871"><ele>374.0</ele><time>2026-05-01T10:19:58.026Z</time></trkpt><trkpt lat="43.453829" lon="10.6307662"><ele>374.0</ele><time>2026-05-01T10:20:01.033Z</time></trkpt><trkpt lat="43.4538019" lon="10.6309461"><ele>374.0</ele><time>2026-05-01T10:20:03.031Z</time></trkpt><trkpt lat="43.4537918" lon="10.6310815"><ele>374.0</ele><time>2026-05-01T10:20:04.025Z</time></trkpt><trkpt lat="43.4537802" lon="10.631243"><ele>374.0</ele><time>2026-05-01T10:20:05.029Z</time></trkpt><trkpt lat="43.4537586" lon="10.6314102"><ele>370.5</ele><time>2026-05-01T10:20:06.029Z</time></trkpt><trkpt lat="43.4537428" lon="10.6315725"><ele>367.0</ele><time>2026-05-01T10:20:07.033Z</time></trkpt><trkpt lat="43.4537332" lon="10.6317399"><ele>363.5</ele><time>2026-05-01T10:20:08.035Z</time></trkpt><trkpt lat="43.4537288" lon="10.6319109"><ele>360.0</ele><time>2026-05-01T10:20:09.024Z</time></trkpt><trkpt lat="43.453728" lon="10.6320798"><ele>358.5</ele><time>2026-05-01T10:20:10.036Z</time></trkpt><trkpt lat="43.4537437" lon="10.6322549"><ele>357.0</ele><time>2026-05-01T10:20:11.032Z</time></trkpt><trkpt lat="43.4537734" lon="10.6324298"><ele>355.5</ele><time>2026-05-01T10:20:12.021Z</time></trkpt><trkpt lat="43.4538162" lon="10.6326008"><ele>354.0</ele><time>2026-05-01T10:20:13.02Z</time></trkpt><trkpt lat="43.4538637" lon="10.6327679"><ele>356.25</ele><time>2026-05-01T10:20:14.027Z</time></trkpt><trkpt lat="43.4539152" lon="10.6329287"><ele>358.5</ele><time>2026-05-01T10:20:15.035Z</time></trkpt><trkpt lat="43.453975" lon="10.6330944"><ele>360.75</ele><time>2026-05-01T10:20:16.023Z</time></trkpt><trkpt lat="43.4540394" lon="10.6332586"><ele>363.0</ele><time>2026-05-01T10:20:17.03Z</time></trkpt><trkpt lat="43.4540996" lon="10.6334217"><ele>363.0</ele><time>2026-05-01T10:20:18.031Z</time></trkpt><trkpt lat="43.4541619" lon="10.6335871"><ele>363.0</ele><time>2026-05-01T10:20:19.017Z</time></trkpt><trkpt lat="43.4542229" lon="10.633758"><ele>363.0</ele><time>2026-05-01T10:20:20.032Z</time></trkpt><trkpt lat="43.4542895" lon="10.6339283"><ele>363.0</ele><time>2026-05-01T10:20:21.034Z</time></trkpt><trkpt lat="43.4543481" lon="10.6341013"><ele>362.25</ele><time>2026-05-01T10:20:22.024Z</time></trkpt><trkpt lat="43.4544019" lon="10.6342782"><ele>361.5</ele><time>2026-05-01T10:20:23.023Z</time></trkpt><trkpt lat="43.4544513" lon="10.6344579"><ele>360.75</ele><time>2026-05-01T10:20:24.023Z</time></trkpt><trkpt lat="43.454489" lon="10.634642"><ele>360.0</ele><time>2026-05-01T10:20:25.024Z</time></trkpt><trkpt lat="43.4545126" lon="10.6348242"><ele>359.0</ele><time>2026-05-01T10:20:26.035Z</time></trkpt><trkpt lat="43.4545234" lon="10.6349967"><ele>358.0</ele><time>2026-05-01T10:20:27.029Z</time></trkpt><trkpt lat="43.4545265" lon="10.6351683"><ele>357.0</ele><time>2026-05-01T10:20:28.032Z</time></trkpt><trkpt lat="43.4545237" lon="10.6353441"><ele>356.0</ele><time>2026-05-01T10:20:29.026Z</time></trkpt><trkpt lat="43.4545199" lon="10.635515"><ele>355.5</ele><time>2026-05-01T10:20:30.018Z</time></trkpt><trkpt lat="43.4545196" lon="10.6356842"><ele>355.0</ele><time>2026-05-01T10:20:31.025Z</time></trkpt><trkpt lat="43.4545188" lon="10.6358625"><ele>354.5</ele><time>2026-05-01T10:20:32.034Z</time></trkpt><trkpt lat="43.4545125" lon="10.6360429"><ele>354.0</ele><time>2026-05-01T10:20:33.026Z</time></trkpt><trkpt lat="43.4545021" lon="10.6362296"><ele>353.75</ele><time>2026-05-01T10:20:34.026Z</time></trkpt><trkpt lat="43.4544822" lon="10.6364197"><ele>353.5</ele><time>2026-05-01T10:20:35.025Z</time></trkpt><trkpt lat="43.4544581" lon="10.636614"><ele>353.25</ele><time>2026-05-01T10:20:36.023Z</time></trkpt><trkpt lat="43.4544295" lon="10.6368172"><ele>353.0</ele><time>2026-05-01T10:20:37.02Z</time></trkpt><trkpt lat="43.454397" lon="10.6370219"><ele>352.5</ele><time>2026-05-01T10:20:38.031Z</time></trkpt><trkpt lat="43.4543717" lon="10.6372171"><ele>352.0</ele><time>2026-05-01T10:20:39.025Z</time></trkpt><trkpt lat="43.454353" lon="10.6374057"><ele>351.5</ele><time>2026-05-01T10:20:40.027Z</time></trkpt><trkpt lat="43.4543354" lon="10.6375858"><ele>351.0</ele><time>2026-05-01T10:20:41.032Z</time></trkpt><trkpt lat="43.4543162" lon="10.6377605"><ele>348.75</ele><time>2026-05-01T10:20:42.029Z</time></trkpt><trkpt lat="43.4542975" lon="10.6379298"><ele>346.5</ele><time>2026-05-01T10:20:43.049Z</time></trkpt><trkpt lat="43.4542772" lon="10.6380914"><ele>344.25</ele><time>2026-05-01T10:20:44.042Z</time></trkpt><trkpt lat="43.4542619" lon="10.6382527"><ele>342.0</ele><time>2026-05-01T10:20:45.027Z</time></trkpt><trkpt lat="43.4542559" lon="10.638425"><ele>342.0</ele><time>2026-05-01T10:20:46.028Z</time></trkpt><trkpt lat="43.4542626" lon="10.6385997"><ele>342.0</ele><time>2026-05-01T10:20:47.027Z</time></trkpt><trkpt lat="43.4542807" lon="10.6387735"><ele>342.0</ele><time>2026-05-01T10:20:48.024Z</time></trkpt><trkpt lat="43.4543167" lon="10.6389493"><ele>342.0</ele><time>2026-05-01T10:20:49.033Z</time></trkpt><trkpt lat="43.4543644" lon="10.6391217"><ele>339.5</ele><time>2026-05-01T10:20:50.024Z</time></trkpt><trkpt lat="43.4544106" lon="10.6392959"><ele>337.0</ele><time>2026-05-01T10:20:51.035Z</time></trkpt><trkpt lat="43.4544565" lon="10.6394637"><ele>334.5</ele><time>2026-05-01T10:20:52.023Z</time></trkpt><trkpt lat="43.4545068" lon="10.6396377"><ele>332.0</ele><time>2026-05-01T10:20:53.025Z</time></trkpt><trkpt lat="43.4545493" lon="10.6398228"><ele>327.75</ele><time>2026-05-01T10:20:54.024Z</time></trkpt><trkpt lat="43.4545722" lon="10.6400092"><ele>323.5</ele><time>2026-05-01T10:20:55.029Z</time></trkpt><trkpt lat="43.4545904" lon="10.6402038"><ele>319.25</ele><time>2026-05-01T10:20:56.026Z</time></trkpt><trkpt lat="43.4546122" lon="10.6403989"><ele>315.0</ele><time>2026-05-01T10:20:57.02Z</time></trkpt><trkpt lat="43.4546382" lon="10.6406118"><ele>315.0</ele><time>2026-05-01T10:20:58.034Z</time></trkpt><trkpt lat="43.4546638" lon="10.640826"><ele>315.0</ele><time>2026-05-01T10:20:59.022Z</time></trkpt><trkpt lat="43.4546894" lon="10.6410376"><ele>315.0</ele><time>2026-05-01T10:21:00.032Z</time></trkpt><trkpt lat="43.4547051" lon="10.6412366"><ele>313.5</ele><time>2026-05-01T10:21:01.031Z</time></trkpt><trkpt lat="43.4547184" lon="10.6414305"><ele>312.0</ele><time>2026-05-01T10:21:02.022Z</time></trkpt><trkpt lat="43.454733" lon="10.6416148"><ele>310.5</ele><time>2026-05-01T10:21:03.032Z</time></trkpt><trkpt lat="43.4547534" lon="10.6417976"><ele>309.0</ele><time>2026-05-01T10:21:04.027Z</time></trkpt><trkpt lat="43.4547745" lon="10.6419783"><ele>307.0</ele><time>2026-05-01T10:21:05.031Z</time></trkpt><trkpt lat="43.4547923" lon="10.642152"><ele>305.0</ele><time>2026-05-01T10:21:06.033Z</time></trkpt><trkpt lat="43.4548072" lon="10.6423254"><ele>303.0</ele><time>2026-05-01T10:21:07.026Z</time></trkpt><trkpt lat="43.4548223" lon="10.6425045"><ele>301.0</ele><time>2026-05-01T10:21:08.031Z</time></trkpt><trkpt lat="43.4548403" lon="10.6426802"><ele>299.25</ele><time>2026-05-01T10:21:09.028Z</time></trkpt><trkpt lat="43.4548564" lon="10.6428603"><ele>297.5</ele><time>2026-05-01T10:21:10.035Z</time></trkpt><trkpt lat="43.454869" lon="10.64305"><ele>295.75</ele><time>2026-05-01T10:21:11.03Z</time></trkpt><trkpt lat="43.4548819" lon="10.6432401"><ele>294.0</ele><time>2026-05-01T10:21:12.03Z</time></trkpt><trkpt lat="43.4548872" lon="10.6434376"><ele>292.75</ele><time>2026-05-01T10:21:13.032Z</time></trkpt><trkpt lat="43.4548897" lon="10.643643"><ele>291.5</ele><time>2026-05-01T10:21:14.034Z</time></trkpt><trkpt lat="43.4548904" lon="10.6438467"><ele>290.25</ele><time>2026-05-01T10:21:15.026Z</time></trkpt><trkpt lat="43.4548968" lon="10.6440382"><ele>289.0</ele><time>2026-05-01T10:21:16.032Z</time></trkpt><trkpt lat="43.454901" lon="10.6442097"><ele>289.0</ele><time>2026-05-01T10:21:17.022Z</time></trkpt><trkpt lat="43.4549051" lon="10.6443572"><ele>289.0</ele><time>2026-05-01T10:21:18.031Z</time></trkpt><trkpt lat="43.4548981" lon="10.6444726"><ele>289.0</ele><time>2026-05-01T10:21:19.023Z</time></trkpt><trkpt lat="43.4548882" lon="10.644573"><ele>289.0</ele><time>2026-05-01T10:21:20.041Z</time></trkpt><trkpt lat="43.4548607" lon="10.64466"><ele>289.0</ele><time>2026-05-01T10:21:21.036Z</time></trkpt><trkpt lat="43.4548194" lon="10.644729"><ele>289.0</ele><time>2026-05-01T10:21:22.032Z</time></trkpt><trkpt lat="43.4547581" lon="10.6447566"><ele>288.25</ele><time>2026-05-01T10:21:23.049Z</time></trkpt><trkpt lat="43.4546713" lon="10.6447604"><ele>287.5</ele><time>2026-05-01T10:21:24.016Z</time></trkpt><trkpt lat="43.4545719" lon="10.6447273"><ele>286.75</ele><time>2026-05-01T10:21:25.029Z</time></trkpt><trkpt lat="43.4544497" lon="10.6446738"><ele>286.0</ele><time>2026-05-01T10:21:26.026Z</time></trkpt><trkpt lat="43.4543124" lon="10.644629"><ele>283.25</ele><time>2026-05-01T10:21:27.034Z</time></trkpt><trkpt lat="43.4541755" lon="10.6445937"><ele>280.5</ele><time>2026-05-01T10:21:28.021Z</time></trkpt><trkpt lat="43.4540278" lon="10.6445813"><ele>277.75</ele><time>2026-05-01T10:21:29.048Z</time></trkpt><trkpt lat="43.4538871" lon="10.6445745"><ele>275.0</ele><time>2026-05-01T10:21:30.04Z</time></trkpt><trkpt lat="43.4537522" lon="10.6445751"><ele>273.4</ele><time>2026-05-01T10:21:31.025Z</time></trkpt><trkpt lat="43.4536333" lon="10.6445847"><ele>271.8</ele><time>2026-05-01T10:21:32.031Z</time></trkpt><trkpt lat="43.4535273" lon="10.6445743"><ele>270.2</ele><time>2026-05-01T10:21:33.014Z</time></trkpt><trkpt lat="43.4534381" lon="10.6445175"><ele>268.6</ele><time>2026-05-01T10:21:34.024Z</time></trkpt><trkpt lat="43.4533773" lon="10.6444095"><ele>267.0</ele><time>2026-05-01T10:21:35.034Z</time></trkpt><trkpt lat="43.4533767" lon="10.6442757"><ele>267.0</ele><time>2026-05-01T10:21:36.03Z</time></trkpt><trkpt lat="43.4534075" lon="10.6441384"><ele>267.0</ele><time>2026-05-01T10:21:37.023Z</time></trkpt><trkpt lat="43.453456" lon="10.6440097"><ele>267.0</ele><time>2026-05-01T10:21:38.02Z</time></trkpt><trkpt lat="43.4535097" lon="10.6438822"><ele>267.0</ele><time>2026-05-01T10:21:39.03Z</time></trkpt><trkpt lat="43.453538" lon="10.6437504"><ele>267.0</ele><time>2026-05-01T10:21:40.039Z</time></trkpt><trkpt lat="43.4535347" lon="10.6436198"><ele>267.0</ele><time>2026-05-01T10:21:41.029Z</time></trkpt><trkpt lat="43.4535066" lon="10.6435084"><ele>267.0</ele><time>2026-05-01T10:21:42.022Z</time></trkpt><trkpt lat="43.4534337" lon="10.6434397"><ele>267.0</ele><time>2026-05-01T10:21:43.015Z</time></trkpt><trkpt lat="43.4533339" lon="10.6434264"><ele>267.0</ele><time>2026-05-01T10:21:44.029Z</time></trkpt><trkpt lat="43.4532334" lon="10.6434722"><ele>267.0</ele><time>2026-05-01T10:21:45.033Z</time></trkpt><trkpt lat="43.4531622" lon="10.6435893"><ele>267.0</ele><time>2026-05-01T10:21:46.023Z</time></trkpt><trkpt lat="43.4531065" lon="10.6437196"><ele>267.0</ele><time>2026-05-01T10:21:47.023Z</time></trkpt><trkpt lat="43.4530466" lon="10.6438657"><ele>267.0</ele><time>2026-05-01T10:21:48.025Z</time></trkpt><trkpt lat="43.4529719" lon="10.6440143"><ele>267.0</ele><time>2026-05-01T10:21:49.029Z</time></trkpt><trkpt lat="43.4528936" lon="10.6441547"><ele>260.25</ele><time>2026-05-01T10:21:50.022Z</time></trkpt><trkpt lat="43.4528316" lon="10.644294"><ele>253.5</ele><time>2026-05-01T10:21:51.017Z</time></trkpt><trkpt lat="43.4528013" lon="10.6444499"><ele>246.75</ele><time>2026-05-01T10:21:52.027Z</time></trkpt><trkpt lat="43.4528166" lon="10.6446113"><ele>240.0</ele><time>2026-05-01T10:21:53.026Z</time></trkpt><trkpt lat="43.4528868" lon="10.6447545"><ele>239.75</ele><time>2026-05-01T10:21:54.025Z</time></trkpt><trkpt lat="43.4529826" lon="10.6448786"><ele>239.5</ele><time>2026-05-01T10:21:55.032Z</time></trkpt><trkpt lat="43.4530706" lon="10.6450091"><ele>239.25</ele><time>2026-05-01T10:21:56.022Z</time></trkpt><trkpt lat="43.4531432" lon="10.645154"><ele>239.0</ele><time>2026-05-01T10:21:57.034Z</time></trkpt><trkpt lat="43.453186" lon="10.645302"><ele>239.0</ele><time>2026-05-01T10:21:58.027Z</time></trkpt><trkpt lat="43.4531863" lon="10.6454542"><ele>238.99999999999997</ele><time>2026-05-01T10:21:59.023Z</time></trkpt><trkpt lat="43.4531403" lon="10.6455852"><ele>238.99999999999997</ele><time>2026-05-01T10:22:00.031Z</time></trkpt><trkpt lat="43.4530531" lon="10.645671"><ele>239.0</ele><time>2026-05-01T10:22:01.028Z</time></trkpt><trkpt lat="43.4529456" lon="10.6457083"><ele>239.0</ele><time>2026-05-01T10:22:02.03Z</time></trkpt><trkpt lat="43.4528451" lon="10.645695"><ele>236.5</ele><time>2026-05-01T10:22:03.03Z</time></trkpt><trkpt lat="43.4527636" lon="10.6456106"><ele>234.0</ele><time>2026-05-01T10:22:04.026Z</time></trkpt><trkpt lat="43.4526989" lon="10.6454743"><ele>231.5</ele><time>2026-05-01T10:22:05.03Z</time></trkpt><trkpt lat="43.4526513" lon="10.6453191"><ele>229.0</ele><time>2026-05-01T10:22:06.026Z</time></trkpt><trkpt lat="43.4526129" lon="10.6451723"><ele>228.99999999999997</ele><time>2026-05-01T10:22:07.023Z</time></trkpt><trkpt lat="43.4525467" lon="10.6450732"><ele>229.0</ele><time>2026-05-01T10:22:08.044Z</time></trkpt><trkpt lat="43.4524752" lon="10.6450272"><ele>229.0</ele><time>2026-05-01T10:22:09.024Z</time></trkpt><trkpt lat="43.4523991" lon="10.6450291"><ele>229.0</ele><time>2026-05-01T10:22:10.03Z</time></trkpt><trkpt lat="43.452345" lon="10.6450925"><ele>228.99999999999997</ele><time>2026-05-01T10:22:11.029Z</time></trkpt><trkpt lat="43.4522988" lon="10.6451948"><ele>229.0</ele><time>2026-05-01T10:22:12.02Z</time></trkpt><trkpt lat="43.4522996" lon="10.6453313"><ele>226.5</ele><time>2026-05-01T10:22:13.02Z</time></trkpt><trkpt lat="43.4523483" lon="10.645484"><ele>224.0</ele><time>2026-05-01T10:22:14.025Z</time></trkpt><trkpt lat="43.452399" lon="10.6456614"><ele>221.5</ele><time>2026-05-01T10:22:15.025Z</time></trkpt><trkpt lat="43.4524401" lon="10.6458546"><ele>219.0</ele><time>2026-05-01T10:22:16.026Z</time></trkpt><trkpt lat="43.4524489" lon="10.6460532"><ele>217.25</ele><time>2026-05-01T10:22:17.034Z</time></trkpt><trkpt lat="43.4524383" lon="10.6462333"><ele>215.5</ele><time>2026-05-01T10:22:18.048Z</time></trkpt><trkpt lat="43.4524326" lon="10.6463939"><ele>213.75</ele><time>2026-05-01T10:22:19.031Z</time></trkpt><trkpt lat="43.4524441" lon="10.6465508"><ele>212.0</ele><time>2026-05-01T10:22:20.031Z</time></trkpt><trkpt lat="43.4524837" lon="10.6466896"><ele>212.0</ele><time>2026-05-01T10:22:21.03Z</time></trkpt><trkpt lat="43.4525456" lon="10.6468271"><ele>212.0</ele><time>2026-05-01T10:22:22.007Z</time></trkpt><trkpt lat="43.4526184" lon="10.6469677"><ele>212.0</ele><time>2026-05-01T10:22:23.025Z</time></trkpt><trkpt lat="43.4526932" lon="10.6471172"><ele>212.0</ele><time>2026-05-01T10:22:24.029Z</time></trkpt><trkpt lat="43.4527803" lon="10.6472764"><ele>211.0</ele><time>2026-05-01T10:22:25.029Z</time></trkpt><trkpt lat="43.452872" lon="10.6474483"><ele>210.0</ele><time>2026-05-01T10:22:26.025Z</time></trkpt><trkpt lat="43.4529672" lon="10.6476374"><ele>209.0</ele><time>2026-05-01T10:22:27.022Z</time></trkpt><trkpt lat="43.4530684" lon="10.6478255"><ele>209.0</ele><time>2026-05-01T10:22:28.02Z</time></trkpt><trkpt lat="43.4531746" lon="10.6480174"><ele>209.0</ele><time>2026-05-01T10:22:29.028Z</time></trkpt><trkpt lat="43.4532746" lon="10.6482098"><ele>209.0</ele><time>2026-05-01T10:22:30.023Z</time></trkpt><trkpt lat="43.4533628" lon="10.6484039"><ele>209.0</ele><time>2026-05-01T10:22:31.033Z</time></trkpt><trkpt lat="43.453427" lon="10.6485923"><ele>209.0</ele><time>2026-05-01T10:22:32.025Z</time></trkpt><trkpt lat="43.4534713" lon="10.6487947"><ele>209.0</ele><time>2026-05-01T10:22:33.034Z</time></trkpt><trkpt lat="43.4534931" lon="10.6490147"><ele>206.33333333333334</ele><time>2026-05-01T10:22:34.027Z</time></trkpt><trkpt lat="43.4535043" lon="10.6492304"><ele>203.66666666666669</ele><time>2026-05-01T10:22:35.024Z</time></trkpt><trkpt lat="43.4535086" lon="10.6494428"><ele>201.0</ele><time>2026-05-01T10:22:36.038Z</time></trkpt><trkpt lat="43.4535135" lon="10.6496443"><ele>199.5</ele><time>2026-05-01T10:22:37.025Z</time></trkpt><trkpt lat="43.4535285" lon="10.6498297"><ele>198.0</ele><time>2026-05-01T10:22:38.031Z</time></trkpt><trkpt lat="43.4535533" lon="10.6500069"><ele>196.5</ele><time>2026-05-01T10:22:39.029Z</time></trkpt><trkpt lat="43.4535977" lon="10.6501778"><ele>195.0</ele><time>2026-05-01T10:22:40.029Z</time></trkpt><trkpt lat="43.4536647" lon="10.6503462"><ele>195.66666666666669</ele><time>2026-05-01T10:22:41.019Z</time></trkpt><trkpt lat="43.4537492" lon="10.6505047"><ele>196.33333333333334</ele><time>2026-05-01T10:22:42.023Z</time></trkpt><trkpt lat="43.4538396" lon="10.6506644"><ele>197.0</ele><time>2026-05-01T10:22:43.025Z</time></trkpt><trkpt lat="43.4539361" lon="10.6508409"><ele>197.0</ele><time>2026-05-01T10:22:44.02Z</time></trkpt><trkpt lat="43.4540387" lon="10.6510269"><ele>197.0</ele><time>2026-05-01T10:22:45.036Z</time></trkpt><trkpt lat="43.4541426" lon="10.651219"><ele>197.0</ele><time>2026-05-01T10:22:46.035Z</time></trkpt><trkpt lat="43.4542539" lon="10.6514139"><ele>194.66666666666669</ele><time>2026-05-01T10:22:47.032Z</time></trkpt><trkpt lat="43.4543602" lon="10.651606"><ele>192.33333333333334</ele><time>2026-05-01T10:22:48.03Z</time></trkpt><trkpt lat="43.4544659" lon="10.6517777"><ele>190.0</ele><time>2026-05-01T10:22:49.025Z</time></trkpt><trkpt lat="43.4545761" lon="10.6519308"><ele>190.5</ele><time>2026-05-01T10:22:50.038Z</time></trkpt><trkpt lat="43.4546944" lon="10.6520597"><ele>191.0</ele><time>2026-05-01T10:22:51.033Z</time></trkpt><trkpt lat="43.4548145" lon="10.6521691"><ele>191.5</ele><time>2026-05-01T10:22:52.027Z</time></trkpt><trkpt lat="43.4549424" lon="10.6522727"><ele>192.0</ele><time>2026-05-01T10:22:53.028Z</time></trkpt><trkpt lat="43.4550566" lon="10.6523787"><ele>192.0</ele><time>2026-05-01T10:22:54.026Z</time></trkpt><trkpt lat="43.4551504" lon="10.6525135"><ele>192.0</ele><time>2026-05-01T10:22:55.041Z</time></trkpt><trkpt lat="43.4552162" lon="10.6526674"><ele>192.0</ele><time>2026-05-01T10:22:56.026Z</time></trkpt><trkpt lat="43.455247" lon="10.6528386"><ele>192.0</ele><time>2026-05-01T10:22:57.027Z</time></trkpt><trkpt lat="43.455254" lon="10.6530218"><ele>189.5</ele><time>2026-05-01T10:22:58.024Z</time></trkpt><trkpt lat="43.4552405" lon="10.6532076"><ele>187.0</ele><time>2026-05-01T10:22:59.027Z</time></trkpt><trkpt lat="43.4552362" lon="10.653388"><ele>184.5</ele><time>2026-05-01T10:23:00.016Z</time></trkpt><trkpt lat="43.4552599" lon="10.6535518"><ele>182.0</ele><time>2026-05-01T10:23:01.035Z</time></trkpt><trkpt lat="43.45533" lon="10.6536863"><ele>181.75</ele><time>2026-05-01T10:23:02.026Z</time></trkpt><trkpt lat="43.4554187" lon="10.6538024"><ele>181.5</ele><time>2026-05-01T10:23:03.019Z</time></trkpt><trkpt lat="43.4555159" lon="10.6539254"><ele>181.25</ele><time>2026-05-01T10:23:04.034Z</time></trkpt><trkpt lat="43.4555896" lon="10.6540641"><ele>181.0</ele><time>2026-05-01T10:23:05.022Z</time></trkpt><trkpt lat="43.4556322" lon="10.6542218"><ele>181.0</ele><time>2026-05-01T10:23:06.029Z</time></trkpt><trkpt lat="43.4556576" lon="10.654405"><ele>181.0</ele><time>2026-05-01T10:23:07.016Z</time></trkpt><trkpt lat="43.4556761" lon="10.6545898"><ele>181.0</ele><time>2026-05-01T10:23:08.027Z</time></trkpt><trkpt lat="43.455698" lon="10.6547776"><ele>181.0</ele><time>2026-05-01T10:23:09.027Z</time></trkpt><trkpt lat="43.4557228" lon="10.6549704"><ele>178.5</ele><time>2026-05-01T10:23:10.034Z</time></trkpt><trkpt lat="43.4557547" lon="10.6551723"><ele>176.0</ele><time>2026-05-01T10:23:11.025Z</time></trkpt><trkpt lat="43.4557961" lon="10.6553579"><ele>173.5</ele><time>2026-05-01T10:23:12.025Z</time></trkpt><trkpt lat="43.4558564" lon="10.655528"><ele>171.0</ele><time>2026-05-01T10:23:13.022Z</time></trkpt><trkpt lat="43.4559301" lon="10.6556841"><ele>170.20000000000002</ele><time>2026-05-01T10:23:14.035Z</time></trkpt><trkpt lat="43.4560202" lon="10.655825"><ele>169.4</ele><time>2026-05-01T10:23:15.033Z</time></trkpt><trkpt lat="43.4561166" lon="10.6559303"><ele>168.6</ele><time>2026-05-01T10:23:16.037Z</time></trkpt><trkpt lat="43.4561996" lon="10.6560057"><ele>167.8</ele><time>2026-05-01T10:23:17.033Z</time></trkpt><trkpt lat="43.4562769" lon="10.6560702"><ele>167.0</ele><time>2026-05-01T10:23:18.03Z</time></trkpt><trkpt lat="43.4563486" lon="10.6561238"><ele>166.5</ele><time>2026-05-01T10:23:19.021Z</time></trkpt><trkpt lat="43.456423" lon="10.6561728"><ele>166.0</ele><time>2026-05-01T10:23:20.04Z</time></trkpt><trkpt lat="43.4565022" lon="10.6562203"><ele>165.5</ele><time>2026-05-01T10:23:21.02Z</time></trkpt><trkpt lat="43.4565799" lon="10.6562623"><ele>165.0</ele><time>2026-05-01T10:23:22.026Z</time></trkpt><trkpt lat="43.4566583" lon="10.6563051"><ele>164.5</ele><time>2026-05-01T10:23:23.031Z</time></trkpt><trkpt lat="43.4567383" lon="10.6563581"><ele>164.0</ele><time>2026-05-01T10:23:24.023Z</time></trkpt><trkpt lat="43.4568089" lon="10.6564313"><ele>164.0</ele><time>2026-05-01T10:23:25.031Z</time></trkpt><trkpt lat="43.4568678" lon="10.6565268"><ele>164.0</ele><time>2026-05-01T10:23:26.033Z</time></trkpt><trkpt lat="43.4569117" lon="10.6566389"><ele>164.0</ele><time>2026-05-01T10:23:27.028Z</time></trkpt><trkpt lat="43.4569469" lon="10.6567648"><ele>164.0</ele><time>2026-05-01T10:23:28.029Z</time></trkpt><trkpt lat="43.4569633" lon="10.6568995"><ele>164.0</ele><time>2026-05-01T10:23:29.033Z</time></trkpt><trkpt lat="43.4569575" lon="10.6570451"><ele>163.75</ele><time>2026-05-01T10:23:30.04Z</time></trkpt><trkpt lat="43.4569334" lon="10.657192"><ele>163.5</ele><time>2026-05-01T10:23:31.035Z</time></trkpt><trkpt lat="43.4568954" lon="10.6573412"><ele>163.25</ele><time>2026-05-01T10:23:32.022Z</time></trkpt><trkpt lat="43.4568722" lon="10.6574978"><ele>163.0</ele><time>2026-05-01T10:23:33.027Z</time></trkpt><trkpt lat="43.4568458" lon="10.6576597"><ele>163.0</ele><time>2026-05-01T10:23:34.026Z</time></trkpt><trkpt lat="43.4568171" lon="10.6578278"><ele>163.0</ele><time>2026-05-01T10:23:35.029Z</time></trkpt><trkpt lat="43.4567879" lon="10.6580072"><ele>163.0</ele><time>2026-05-01T10:23:36.021Z</time></trkpt><trkpt lat="43.4567651" lon="10.6581955"><ele>163.0</ele><time>2026-05-01T10:23:37.037Z</time></trkpt><trkpt lat="43.4567443" lon="10.6583877"><ele>163.0</ele><time>2026-05-01T10:23:38.02Z</time></trkpt><trkpt lat="43.4567292" lon="10.6585797"><ele>163.0</ele><time>2026-05-01T10:23:39.03Z</time></trkpt><trkpt lat="43.4567162" lon="10.658775"><ele>163.0</ele><time>2026-05-01T10:23:40.031Z</time></trkpt><trkpt lat="43.4567062" lon="10.6589742"><ele>163.0</ele><time>2026-05-01T10:23:41.031Z</time></trkpt><trkpt lat="43.4566968" lon="10.6591814"><ele>163.0</ele><time>2026-05-01T10:23:42.021Z</time></trkpt><trkpt lat="43.4566846" lon="10.6593914"><ele>163.0</ele><time>2026-05-01T10:23:43.028Z</time></trkpt><trkpt lat="43.4566785" lon="10.6596056"><ele>163.0</ele><time>2026-05-01T10:23:44.035Z</time></trkpt><trkpt lat="43.4566728" lon="10.6598303"><ele>163.0</ele><time>2026-05-01T10:23:45.026Z</time></trkpt><trkpt lat="43.4566625" lon="10.6600565"><ele>163.0</ele><time>2026-05-01T10:23:46.029Z</time></trkpt><trkpt lat="43.4566561" lon="10.6602886"><ele>163.0</ele><time>2026-05-01T10:23:47.029Z</time></trkpt><trkpt lat="43.4566457" lon="10.660523"><ele>163.33333333333334</ele><time>2026-05-01T10:23:48.035Z</time></trkpt><trkpt lat="43.4566336" lon="10.6607596"><ele>163.66666666666666</ele><time>2026-05-01T10:23:49.03Z</time></trkpt><trkpt lat="43.4566234" lon="10.6610009"><ele>164.0</ele><time>2026-05-01T10:23:50.024Z</time></trkpt><trkpt lat="43.4566127" lon="10.6612444"><ele>164.0</ele><time>2026-05-01T10:23:51.027Z</time></trkpt><trkpt lat="43.4566008" lon="10.6614866"><ele>164.0</ele><time>2026-05-01T10:23:52.027Z</time></trkpt><trkpt lat="43.4565916" lon="10.661732"><ele>164.0</ele><time>2026-05-01T10:23:53.041Z</time></trkpt><trkpt lat="43.4565795" lon="10.6619762"><ele>164.0</ele><time>2026-05-01T10:23:54.015Z</time></trkpt><trkpt lat="43.4565675" lon="10.6622252"><ele>164.0</ele><time>2026-05-01T10:23:55.017Z</time></trkpt><trkpt lat="43.4565536" lon="10.6624724"><ele>164.0</ele><time>2026-05-01T10:23:56.025Z</time></trkpt><trkpt lat="43.4565428" lon="10.6627052"><ele>161.66666666666666</ele><time>2026-05-01T10:23:57.036Z</time></trkpt><trkpt lat="43.456528" lon="10.6629188"><ele>159.33333333333334</ele><time>2026-05-01T10:23:58.014Z</time></trkpt><trkpt lat="43.456505" lon="10.6631315"><ele>157.0</ele><time>2026-05-01T10:23:59.028Z</time></trkpt><trkpt lat="43.4564693" lon="10.6633529"><ele>157.0</ele><time>2026-05-01T10:24:00.024Z</time></trkpt><trkpt lat="43.4564237" lon="10.663566"><ele>157.0</ele><time>2026-05-01T10:24:01.025Z</time></trkpt><trkpt lat="43.4563732" lon="10.6637775"><ele>157.0</ele><time>2026-05-01T10:24:02.025Z</time></trkpt><trkpt lat="43.4563233" lon="10.6639782"><ele>154.66666666666669</ele><time>2026-05-01T10:24:03.014Z</time></trkpt><trkpt lat="43.456275" lon="10.6641696"><ele>152.33333333333334</ele><time>2026-05-01T10:24:04.022Z</time></trkpt><trkpt lat="43.4562234" lon="10.6643623"><ele>150.0</ele><time>2026-05-01T10:24:05.043Z</time></trkpt><trkpt lat="43.4561767" lon="10.6645659"><ele>149.25</ele><time>2026-05-01T10:24:06.021Z</time></trkpt><trkpt lat="43.4561464" lon="10.6647693"><ele>148.5</ele><time>2026-05-01T10:24:07.028Z</time></trkpt><trkpt lat="43.4561239" lon="10.6649695"><ele>147.75</ele><time>2026-05-01T10:24:08.033Z</time></trkpt><trkpt lat="43.4561241" lon="10.6651617"><ele>147.0</ele><time>2026-05-01T10:24:09.03Z</time></trkpt><trkpt lat="43.4561428" lon="10.6653555"><ele>147.0</ele><time>2026-05-01T10:24:10.023Z</time></trkpt><trkpt lat="43.4561718" lon="10.6655554"><ele>147.0</ele><time>2026-05-01T10:24:11.032Z</time></trkpt><trkpt lat="43.4562121" lon="10.665765"><ele>147.0</ele><time>2026-05-01T10:24:12.032Z</time></trkpt><trkpt lat="43.4562544" lon="10.665983"><ele>146.66666666666666</ele><time>2026-05-01T10:24:13.019Z</time></trkpt><trkpt lat="43.4562937" lon="10.6662038"><ele>146.33333333333331</ele><time>2026-05-01T10:24:14.026Z</time></trkpt><trkpt lat="43.4563347" lon="10.6664264"><ele>146.0</ele><time>2026-05-01T10:24:15.027Z</time></trkpt><trkpt lat="43.4563738" lon="10.6666476"><ele>146.0</ele><time>2026-05-01T10:24:16.029Z</time></trkpt><trkpt lat="43.4564149" lon="10.6668699"><ele>146.0</ele><time>2026-05-01T10:24:17.036Z</time></trkpt><trkpt lat="43.4564523" lon="10.6670834"><ele>146.0</ele><time>2026-05-01T10:24:18.026Z</time></trkpt><trkpt lat="43.4564886" lon="10.6672867"><ele>145.25</ele><time>2026-05-01T10:24:19.024Z</time></trkpt><trkpt lat="43.4565287" lon="10.6674773"><ele>144.5</ele><time>2026-05-01T10:24:20.027Z</time></trkpt><trkpt lat="43.4565615" lon="10.6676555"><ele>143.75</ele><time>2026-05-01T10:24:21.036Z</time></trkpt><trkpt lat="43.4565911" lon="10.6678176"><ele>143.0</ele><time>2026-05-01T10:24:22.026Z</time></trkpt><trkpt lat="43.4566194" lon="10.6679618"><ele>142.8</ele><time>2026-05-01T10:24:23.026Z</time></trkpt><trkpt lat="43.4566431" lon="10.6681007"><ele>142.60000000000002</ele><time>2026-05-01T10:24:24.027Z</time></trkpt><trkpt lat="43.4566552" lon="10.6682256"><ele>142.39999999999998</ele><time>2026-05-01T10:24:25.039Z</time></trkpt><trkpt lat="43.4566597" lon="10.6683339"><ele>142.2</ele><time>2026-05-01T10:24:26.021Z</time></trkpt><trkpt lat="43.4566398" lon="10.6684695"><ele>142.0</ele><time>2026-05-01T10:24:28.025Z</time></trkpt><trkpt lat="43.4566543" lon="10.6686084"><ele>141.79999999999998</ele><time>2026-05-01T10:24:31.033Z</time></trkpt><trkpt lat="43.456708" lon="10.6686758"><ele>141.6</ele><time>2026-05-01T10:24:32.022Z</time></trkpt><trkpt lat="43.4567876" lon="10.6687324"><ele>141.39999999999998</ele><time>2026-05-01T10:24:33.018Z</time></trkpt><trkpt lat="43.4568726" lon="10.6687925"><ele>141.2</ele><time>2026-05-01T10:24:34.022Z</time></trkpt><trkpt lat="43.4569711" lon="10.6688633"><ele>141.0</ele><time>2026-05-01T10:24:35.02Z</time></trkpt><trkpt lat="43.4570903" lon="10.6689536"><ele>140.66666666666666</ele><time>2026-05-01T10:24:36.023Z</time></trkpt><trkpt lat="43.4572172" lon="10.6690493"><ele>140.33333333333331</ele><time>2026-05-01T10:24:37.02Z</time></trkpt><trkpt lat="43.4573743" lon="10.6691645"><ele>140.0</ele><time>2026-05-01T10:24:38.027Z</time></trkpt><trkpt lat="43.4575697" lon="10.6693009"><ele>139.66666666666666</ele><time>2026-05-01T10:24:39.031Z</time></trkpt><trkpt lat="43.4577641" lon="10.6694524"><ele>139.33333333333334</ele><time>2026-05-01T10:24:40.035Z</time></trkpt><trkpt lat="43.4579331" lon="10.6695759"><ele>139.0</ele><time>2026-05-01T10:24:41.028Z</time></trkpt><trkpt lat="43.458086" lon="10.6696854"><ele>139.0</ele><time>2026-05-01T10:24:42.026Z</time></trkpt><trkpt lat="43.4582272" lon="10.6697874"><ele>139.0</ele><time>2026-05-01T10:24:43.037Z</time></trkpt><trkpt lat="43.4583643" lon="10.6698864"><ele>139.0</ele><time>2026-05-01T10:24:44.04Z</time></trkpt><trkpt lat="43.4585071" lon="10.6699852"><ele>139.0</ele><time>2026-05-01T10:24:45.025Z</time></trkpt><trkpt lat="43.4586519" lon="10.670085"><ele>139.0</ele><time>2026-05-01T10:24:46.035Z</time></trkpt><trkpt lat="43.4587867" lon="10.6701814"><ele>139.0</ele><time>2026-05-01T10:24:47.035Z</time></trkpt><trkpt lat="43.458924" lon="10.6702797"><ele>137.66666666666669</ele><time>2026-05-01T10:24:48.023Z</time></trkpt><trkpt lat="43.4590589" lon="10.6703764"><ele>136.33333333333334</ele><time>2026-05-01T10:24:49.032Z</time></trkpt><trkpt lat="43.4591924" lon="10.6704757"><ele>135.0</ele><time>2026-05-01T10:24:50.026Z</time></trkpt><trkpt lat="43.4593247" lon="10.6705739"><ele>135.0</ele><time>2026-05-01T10:24:51.037Z</time></trkpt><trkpt lat="43.4594543" lon="10.6706691"><ele>135.0</ele><time>2026-05-01T10:24:52.035Z</time></trkpt><trkpt lat="43.4595896" lon="10.6707674"><ele>135.0</ele><time>2026-05-01T10:24:53.028Z</time></trkpt><trkpt lat="43.4597288" lon="10.6708642"><ele>135.66666666666666</ele><time>2026-05-01T10:24:54.032Z</time></trkpt><trkpt lat="43.4598685" lon="10.6709607"><ele>136.33333333333331</ele><time>2026-05-01T10:24:55.03Z</time></trkpt><trkpt lat="43.460009" lon="10.6710643"><ele>137.0</ele><time>2026-05-01T10:24:56.027Z</time></trkpt><trkpt lat="43.4601449" lon="10.6711614"><ele>136.0</ele><time>2026-05-01T10:24:57.026Z</time></trkpt><trkpt lat="43.4602752" lon="10.6712563"><ele>135.0</ele><time>2026-05-01T10:24:58.018Z</time></trkpt><trkpt lat="43.4604074" lon="10.6713422"><ele>134.0</ele><time>2026-05-01T10:24:59.029Z</time></trkpt><trkpt lat="43.4605423" lon="10.6714408"><ele>133.0</ele><time>2026-05-01T10:25:00.025Z</time></trkpt><trkpt lat="43.46068" lon="10.6715453"><ele>132.66666666666669</ele><time>2026-05-01T10:25:01.017Z</time></trkpt><trkpt lat="43.4608156" lon="10.6716438"><ele>132.33333333333334</ele><time>2026-05-01T10:25:02.018Z</time></trkpt><trkpt lat="43.4609496" lon="10.6717415"><ele>132.0</ele><time>2026-05-01T10:25:03.021Z</time></trkpt><trkpt lat="43.4610895" lon="10.6718391"><ele>132.0</ele><time>2026-05-01T10:25:04.026Z</time></trkpt><trkpt lat="43.4612321" lon="10.6719398"><ele>132.0</ele><time>2026-05-01T10:25:05.03Z</time></trkpt><trkpt lat="43.4613763" lon="10.6720487"><ele>132.0</ele><time>2026-05-01T10:25:06.025Z</time></trkpt><trkpt lat="43.461527" lon="10.6721555"><ele>131.66666666666666</ele><time>2026-05-01T10:25:07.027Z</time></trkpt><trkpt lat="43.4616787" lon="10.6722624"><ele>131.33333333333331</ele><time>2026-05-01T10:25:08.034Z</time></trkpt><trkpt lat="43.4618209" lon="10.6723636"><ele>131.0</ele><time>2026-05-01T10:25:09.029Z</time></trkpt><trkpt lat="43.4619553" lon="10.6724541"><ele>131.0</ele><time>2026-05-01T10:25:10.022Z</time></trkpt><trkpt lat="43.4620858" lon="10.672549"><ele>131.0</ele><time>2026-05-01T10:25:11.022Z</time></trkpt><trkpt lat="43.4622196" lon="10.6726429"><ele>131.0</ele><time>2026-05-01T10:25:12.023Z</time></trkpt><trkpt lat="43.4623513" lon="10.672743"><ele>131.0</ele><time>2026-05-01T10:25:13.032Z</time></trkpt><trkpt lat="43.4624811" lon="10.6728423"><ele>130.66666666666666</ele><time>2026-05-01T10:25:14.027Z</time></trkpt><trkpt lat="43.4626169" lon="10.6729413"><ele>130.33333333333334</ele><time>2026-05-01T10:25:15.037Z</time></trkpt><trkpt lat="43.4627525" lon="10.673034"><ele>130.0</ele><time>2026-05-01T10:25:16.021Z</time></trkpt><trkpt lat="43.4628902" lon="10.673134"><ele>130.66666666666669</ele><time>2026-05-01T10:25:17.032Z</time></trkpt><trkpt lat="43.4630299" lon="10.6732371"><ele>131.33333333333334</ele><time>2026-05-01T10:25:18.026Z</time></trkpt><trkpt lat="43.4631754" lon="10.6733434"><ele>132.0</ele><time>2026-05-01T10:25:19.037Z</time></trkpt><trkpt lat="43.4633175" lon="10.6734455"><ele>132.0</ele><time>2026-05-01T10:25:20.029Z</time></trkpt><trkpt lat="43.4634551" lon="10.6735427"><ele>132.0</ele><time>2026-05-01T10:25:21.025Z</time></trkpt><trkpt lat="43.4635922" lon="10.6736383"><ele>132.0</ele><time>2026-05-01T10:25:22.025Z</time></trkpt><trkpt lat="43.4637308" lon="10.6737325"><ele>130.66666666666666</ele><time>2026-05-01T10:25:23.032Z</time></trkpt><trkpt lat="43.46387" lon="10.67383"><ele>129.33333333333331</ele><time>2026-05-01T10:25:24.022Z</time></trkpt><trkpt lat="43.4640089" lon="10.6739296"><ele>128.0</ele><time>2026-05-01T10:25:25.026Z</time></trkpt><trkpt lat="43.4641462" lon="10.6740338"><ele>128.0</ele><time>2026-05-01T10:25:26.022Z</time></trkpt><trkpt lat="43.4642863" lon="10.6741321"><ele>128.0</ele><time>2026-05-01T10:25:27.025Z</time></trkpt><trkpt lat="43.4644243" lon="10.6742395"><ele>128.0</ele><time>2026-05-01T10:25:28.025Z</time></trkpt><trkpt lat="43.4645569" lon="10.6743554"><ele>127.33333333333333</ele><time>2026-05-01T10:25:29.017Z</time></trkpt><trkpt lat="43.4646841" lon="10.6744804"><ele>126.66666666666666</ele><time>2026-05-01T10:25:30.028Z</time></trkpt><trkpt lat="43.4648087" lon="10.674617"><ele>126.0</ele><time>2026-05-01T10:25:31.036Z</time></trkpt><trkpt lat="43.4649303" lon="10.6747697"><ele>126.0</ele><time>2026-05-01T10:25:32.02Z</time></trkpt><trkpt lat="43.4650513" lon="10.6749304"><ele>126.0</ele><time>2026-05-01T10:25:33.026Z</time></trkpt><trkpt lat="43.4651667" lon="10.6750931"><ele>126.0</ele><time>2026-05-01T10:25:34.027Z</time></trkpt><trkpt lat="43.4652634" lon="10.675266"><ele>125.66666666666666</ele><time>2026-05-01T10:25:35.017Z</time></trkpt><trkpt lat="43.4653495" lon="10.6754439"><ele>125.33333333333333</ele><time>2026-05-01T10:25:36.027Z</time></trkpt><trkpt lat="43.4654211" lon="10.6756272"><ele>125.0</ele><time>2026-05-01T10:25:37.023Z</time></trkpt><trkpt lat="43.465491" lon="10.675814"><ele>126.0</ele><time>2026-05-01T10:25:38.028Z</time></trkpt><trkpt lat="43.465556" lon="10.6760088"><ele>127.0</ele><time>2026-05-01T10:25:39.024Z</time></trkpt><trkpt lat="43.4656205" lon="10.6762002"><ele>128.0</ele><time>2026-05-01T10:25:40.03Z</time></trkpt><trkpt lat="43.4656907" lon="10.6763735"><ele>128.0</ele><time>2026-05-01T10:25:41.026Z</time></trkpt><trkpt lat="43.4657534" lon="10.6765377"><ele>128.0</ele><time>2026-05-01T10:25:42.032Z</time></trkpt><trkpt lat="43.4658141" lon="10.6767056"><ele>128.0</ele><time>2026-05-01T10:25:43.018Z</time></trkpt><trkpt lat="43.4658817" lon="10.6768743"><ele>128.0</ele><time>2026-05-01T10:25:44.025Z</time></trkpt><trkpt lat="43.465948" lon="10.6770455"><ele>127.25</ele><time>2026-05-01T10:25:45.028Z</time></trkpt><trkpt lat="43.4660145" lon="10.6772157"><ele>126.5</ele><time>2026-05-01T10:25:46.019Z</time></trkpt><trkpt lat="43.466083" lon="10.6773812"><ele>125.75</ele><time>2026-05-01T10:25:47.028Z</time></trkpt><trkpt lat="43.466151" lon="10.6775572"><ele>125.0</ele><time>2026-05-01T10:25:48.029Z</time></trkpt><trkpt lat="43.4662214" lon="10.6777322"><ele>126.0</ele><time>2026-05-01T10:25:49.031Z</time></trkpt><trkpt lat="43.4662934" lon="10.6779118"><ele>127.0</ele><time>2026-05-01T10:25:50.025Z</time></trkpt><trkpt lat="43.4663618" lon="10.6780883"><ele>128.0</ele><time>2026-05-01T10:25:51.023Z</time></trkpt><trkpt lat="43.4664302" lon="10.6782616"><ele>129.0</ele><time>2026-05-01T10:25:52.028Z</time></trkpt><trkpt lat="43.4665004" lon="10.6784357"><ele>126.33333333333334</ele><time>2026-05-01T10:25:53.029Z</time></trkpt><trkpt lat="43.4665716" lon="10.6786153"><ele>123.66666666666667</ele><time>2026-05-01T10:25:54.027Z</time></trkpt><trkpt lat="43.4666504" lon="10.6787995"><ele>121.0</ele><time>2026-05-01T10:25:55.022Z</time></trkpt><trkpt lat="43.4667337" lon="10.6789652"><ele>121.0</ele><time>2026-05-01T10:25:56.022Z</time></trkpt><trkpt lat="43.4668211" lon="10.679132"><ele>121.0</ele><time>2026-05-01T10:25:57.024Z</time></trkpt><trkpt lat="43.4669106" lon="10.6792895"><ele>121.0</ele><time>2026-05-01T10:25:58.028Z</time></trkpt><trkpt lat="43.4670071" lon="10.67945"><ele>121.0</ele><time>2026-05-01T10:25:59.025Z</time></trkpt><trkpt lat="43.4671005" lon="10.6796151"><ele>121.0</ele><time>2026-05-01T10:26:00.017Z</time></trkpt><trkpt lat="43.4672" lon="10.6797804"><ele>121.0</ele><time>2026-05-01T10:26:01.025Z</time></trkpt><trkpt lat="43.4672958" lon="10.6799525"><ele>121.0</ele><time>2026-05-01T10:26:02.019Z</time></trkpt><trkpt lat="43.4673903" lon="10.6801255"><ele>120.33333333333334</ele><time>2026-05-01T10:26:03.017Z</time></trkpt><trkpt lat="43.4674897" lon="10.6802948"><ele>119.66666666666666</ele><time>2026-05-01T10:26:04.031Z</time></trkpt><trkpt lat="43.4675906" lon="10.6804649"><ele>119.0</ele><time>2026-05-01T10:26:05.024Z</time></trkpt><trkpt lat="43.4676901" lon="10.6806373"><ele>119.0</ele><time>2026-05-01T10:26:06.025Z</time></trkpt><trkpt lat="43.4677868" lon="10.6807973"><ele>119.0</ele><time>2026-05-01T10:26:07.017Z</time></trkpt><trkpt lat="43.4678845" lon="10.680956"><ele>119.0</ele><time>2026-05-01T10:26:08.019Z</time></trkpt><trkpt lat="43.4679831" lon="10.6811148"><ele>121.33333333333333</ele><time>2026-05-01T10:26:09.036Z</time></trkpt><trkpt lat="43.4680764" lon="10.68128"><ele>123.66666666666666</ele><time>2026-05-01T10:26:10.024Z</time></trkpt><trkpt lat="43.4681747" lon="10.6814454"><ele>126.0</ele><time>2026-05-01T10:26:11.032Z</time></trkpt><trkpt lat="43.4682712" lon="10.6816105"><ele>126.0</ele><time>2026-05-01T10:26:12.025Z</time></trkpt><trkpt lat="43.4683621" lon="10.6817719"><ele>126.0</ele><time>2026-05-01T10:26:13.018Z</time></trkpt><trkpt lat="43.4684423" lon="10.6819158"><ele>126.0</ele><time>2026-05-01T10:26:14.02Z</time></trkpt><trkpt lat="43.4685234" lon="10.6820547"><ele>126.0</ele><time>2026-05-01T10:26:15.036Z</time></trkpt><trkpt lat="43.468608" lon="10.6821964"><ele>125.0</ele><time>2026-05-01T10:26:16.024Z</time></trkpt><trkpt lat="43.468686" lon="10.682355"><ele>124.0</ele><time>2026-05-01T10:26:17.025Z</time></trkpt><trkpt lat="43.4687436" lon="10.6825249"><ele>123.0</ele><time>2026-05-01T10:26:18.031Z</time></trkpt><trkpt lat="43.4687725" lon="10.6827093"><ele>122.0</ele><time>2026-05-01T10:26:19.027Z</time></trkpt><trkpt lat="43.4687786" lon="10.6829148"><ele>121.5</ele><time>2026-05-01T10:26:20.03Z</time></trkpt><trkpt lat="43.4687676" lon="10.6831202"><ele>121.0</ele><time>2026-05-01T10:26:21.022Z</time></trkpt><trkpt lat="43.4687421" lon="10.6833211"><ele>120.5</ele><time>2026-05-01T10:26:22.024Z</time></trkpt><trkpt lat="43.4687272" lon="10.6835146"><ele>120.0</ele><time>2026-05-01T10:26:23.033Z</time></trkpt><trkpt lat="43.468718" lon="10.6836953"><ele>119.25</ele><time>2026-05-01T10:26:24.025Z</time></trkpt><trkpt lat="43.4687294" lon="10.6838777"><ele>118.5</ele><time>2026-05-01T10:26:25.028Z</time></trkpt><trkpt lat="43.4687727" lon="10.6840517"><ele>117.75</ele><time>2026-05-01T10:26:26.023Z</time></trkpt><trkpt lat="43.4688388" lon="10.6842053"><ele>117.0</ele><time>2026-05-01T10:26:27.022Z</time></trkpt><trkpt lat="43.4689196" lon="10.6843306"><ele>117.0</ele><time>2026-05-01T10:26:28.022Z</time></trkpt><trkpt lat="43.4690236" lon="10.6844361"><ele>117.0</ele><time>2026-05-01T10:26:29.027Z</time></trkpt><trkpt lat="43.4691424" lon="10.6845318"><ele>117.0</ele><time>2026-05-01T10:26:30.026Z</time></trkpt><trkpt lat="43.4692715" lon="10.6846321"><ele>117.0</ele><time>2026-05-01T10:26:31.03Z</time></trkpt><trkpt lat="43.4694074" lon="10.6847508"><ele>117.0</ele><time>2026-05-01T10:26:32.031Z</time></trkpt><trkpt lat="43.4695515" lon="10.6848877"><ele>117.0</ele><time>2026-05-01T10:26:33.035Z</time></trkpt><trkpt lat="43.4696998" lon="10.6850389"><ele>117.0</ele><time>2026-05-01T10:26:34.02Z</time></trkpt><trkpt lat="43.469854" lon="10.6851844"><ele>115.66666666666666</ele><time>2026-05-01T10:26:35.032Z</time></trkpt><trkpt lat="43.4700047" lon="10.6853179"><ele>114.33333333333333</ele><time>2026-05-01T10:26:36.028Z</time></trkpt><trkpt lat="43.4701561" lon="10.6854346"><ele>113.0</ele><time>2026-05-01T10:26:37.022Z</time></trkpt><trkpt lat="43.4703086" lon="10.6855479"><ele>113.33333333333333</ele><time>2026-05-01T10:26:38.023Z</time></trkpt><trkpt lat="43.4704625" lon="10.6856485"><ele>113.66666666666666</ele><time>2026-05-01T10:26:39.025Z</time></trkpt><trkpt lat="43.4706071" lon="10.6857351"><ele>114.0</ele><time>2026-05-01T10:26:40.024Z</time></trkpt><trkpt lat="43.4707407" lon="10.6858237"><ele>114.0</ele><time>2026-05-01T10:26:41.026Z</time></trkpt><trkpt lat="43.4708681" lon="10.6859102"><ele>114.0</ele><time>2026-05-01T10:26:42.022Z</time></trkpt><trkpt lat="43.4709987" lon="10.6859988"><ele>114.0</ele><time>2026-05-01T10:26:43.019Z</time></trkpt><trkpt lat="43.4711305" lon="10.6861051"><ele>114.0</ele><time>2026-05-01T10:26:44.024Z</time></trkpt><trkpt lat="43.4712579" lon="10.6862133"><ele>113.75</ele><time>2026-05-01T10:26:45.02Z</time></trkpt><trkpt lat="43.4713798" lon="10.6863335"><ele>113.5</ele><time>2026-05-01T10:26:46.031Z</time></trkpt><trkpt lat="43.4714926" lon="10.6864638"><ele>113.25</ele><time>2026-05-01T10:26:47.032Z</time></trkpt><trkpt lat="43.4716072" lon="10.6866021"><ele>113.0</ele><time>2026-05-01T10:26:48.028Z</time></trkpt><trkpt lat="43.4717102" lon="10.6867492"><ele>113.0</ele><time>2026-05-01T10:26:49.031Z</time></trkpt><trkpt lat="43.4718063" lon="10.6869039"><ele>113.0</ele><time>2026-05-01T10:26:50.02Z</time></trkpt><trkpt lat="43.4718968" lon="10.6870679"><ele>113.0</ele><time>2026-05-01T10:26:51.035Z</time></trkpt><trkpt lat="43.4719862" lon="10.6872377"><ele>113.0</ele><time>2026-05-01T10:26:52.02Z</time></trkpt><trkpt lat="43.4720724" lon="10.6874058"><ele>113.0</ele><time>2026-05-01T10:26:53.025Z</time></trkpt><trkpt lat="43.4721616" lon="10.6875735"><ele>113.0</ele><time>2026-05-01T10:26:54.021Z</time></trkpt><trkpt lat="43.472243" lon="10.6877375"><ele>113.0</ele><time>2026-05-01T10:26:55.032Z</time></trkpt><trkpt lat="43.4723151" lon="10.6878934"><ele>112.25</ele><time>2026-05-01T10:26:56.027Z</time></trkpt><trkpt lat="43.4723865" lon="10.6880466"><ele>111.5</ele><time>2026-05-01T10:26:57.031Z</time></trkpt><trkpt lat="43.4724635" lon="10.6882005"><ele>110.75</ele><time>2026-05-01T10:26:58.037Z</time></trkpt><trkpt lat="43.4725346" lon="10.6883567"><ele>110.0</ele><time>2026-05-01T10:26:59.021Z</time></trkpt><trkpt lat="43.4726066" lon="10.6885234"><ele>109.33333333333333</ele><time>2026-05-01T10:27:00.026Z</time></trkpt><trkpt lat="43.472675" lon="10.6886981"><ele>108.66666666666666</ele><time>2026-05-01T10:27:01.03Z</time></trkpt><trkpt lat="43.4727466" lon="10.6888823"><ele>108.0</ele><time>2026-05-01T10:27:02.024Z</time></trkpt><trkpt lat="43.4728193" lon="10.6890707"><ele>108.0</ele><time>2026-05-01T10:27:03.029Z</time></trkpt><trkpt lat="43.4728888" lon="10.6892541"><ele>108.0</ele><time>2026-05-01T10:27:04.025Z</time></trkpt><trkpt lat="43.472961" lon="10.6894363"><ele>108.0</ele><time>2026-05-01T10:27:05.025Z</time></trkpt><trkpt lat="43.4730374" lon="10.6896245"><ele>109.33333333333334</ele><time>2026-05-01T10:27:06.032Z</time></trkpt><trkpt lat="43.4731114" lon="10.689812"><ele>110.66666666666667</ele><time>2026-05-01T10:27:07.025Z</time></trkpt><trkpt lat="43.4731844" lon="10.6900006"><ele>112.0</ele><time>2026-05-01T10:27:08.043Z</time></trkpt><trkpt lat="43.4732573" lon="10.6901933"><ele>110.66666666666667</ele><time>2026-05-01T10:27:09.02Z</time></trkpt><trkpt lat="43.4733325" lon="10.6903862"><ele>109.33333333333334</ele><time>2026-05-01T10:27:10.025Z</time></trkpt><trkpt lat="43.473408" lon="10.6905803"><ele>108.0</ele><time>2026-05-01T10:27:11.024Z</time></trkpt><trkpt lat="43.4734828" lon="10.6907807"><ele>108.0</ele><time>2026-05-01T10:27:12.025Z</time></trkpt><trkpt lat="43.473558" lon="10.6909818"><ele>108.0</ele><time>2026-05-01T10:27:13.024Z</time></trkpt><trkpt lat="43.4736356" lon="10.6911855"><ele>108.0</ele><time>2026-05-01T10:27:14.032Z</time></trkpt><trkpt lat="43.4737159" lon="10.6913882"><ele>108.33333333333334</ele><time>2026-05-01T10:27:15.03Z</time></trkpt><trkpt lat="43.4737965" lon="10.6915904"><ele>108.66666666666667</ele><time>2026-05-01T10:27:16.024Z</time></trkpt><trkpt lat="43.4738675" lon="10.6917824"><ele>109.0</ele><time>2026-05-01T10:27:17.039Z</time></trkpt><trkpt lat="43.4739373" lon="10.6919709"><ele>109.0</ele><time>2026-05-01T10:27:18.024Z</time></trkpt><trkpt lat="43.4740037" lon="10.69216"><ele>109.0</ele><time>2026-05-01T10:27:19.026Z</time></trkpt><trkpt lat="43.4740719" lon="10.6923445"><ele>109.0</ele><time>2026-05-01T10:27:20.034Z</time></trkpt><trkpt lat="43.474144" lon="10.6925285"><ele>109.0</ele><time>2026-05-01T10:27:21.026Z</time></trkpt><trkpt lat="43.4742129" lon="10.6927169"><ele>109.0</ele><time>2026-05-01T10:27:22.032Z</time></trkpt><trkpt lat="43.4742851" lon="10.6929038"><ele>109.0</ele><time>2026-05-01T10:27:23.021Z</time></trkpt><trkpt lat="43.4743585" lon="10.6930924"><ele>108.0</ele><time>2026-05-01T10:27:24.019Z</time></trkpt><trkpt lat="43.4744338" lon="10.6932842"><ele>107.0</ele><time>2026-05-01T10:27:25.016Z</time></trkpt><trkpt lat="43.4745061" lon="10.6934813"><ele>106.0</ele><time>2026-05-01T10:27:26.028Z</time></trkpt><trkpt lat="43.4745788" lon="10.6936719"><ele>107.66666666666667</ele><time>2026-05-01T10:27:27.026Z</time></trkpt><trkpt lat="43.4746518" lon="10.6938654"><ele>109.33333333333334</ele><time>2026-05-01T10:27:28.031Z</time></trkpt><trkpt lat="43.4747267" lon="10.6940605"><ele>111.0</ele><time>2026-05-01T10:27:29.039Z</time></trkpt><trkpt lat="43.4748028" lon="10.6942531"><ele>108.66666666666666</ele><time>2026-05-01T10:27:30.026Z</time></trkpt><trkpt lat="43.4748867" lon="10.6944391"><ele>106.33333333333333</ele><time>2026-05-01T10:27:31.035Z</time></trkpt><trkpt lat="43.4749752" lon="10.6946188"><ele>104.0</ele><time>2026-05-01T10:27:32.03Z</time></trkpt><trkpt lat="43.4750656" lon="10.6947994"><ele>104.0</ele><time>2026-05-01T10:27:33.027Z</time></trkpt><trkpt lat="43.4751585" lon="10.6949786"><ele>104.0</ele><time>2026-05-01T10:27:34.032Z</time></trkpt><trkpt lat="43.4752513" lon="10.6951529"><ele>104.0</ele><time>2026-05-01T10:27:35.032Z</time></trkpt><trkpt lat="43.4753485" lon="10.6953244"><ele>104.66666666666666</ele><time>2026-05-01T10:27:36.02Z</time></trkpt><trkpt lat="43.4754466" lon="10.6955001"><ele>105.33333333333334</ele><time>2026-05-01T10:27:37.036Z</time></trkpt><trkpt lat="43.475546" lon="10.6956778"><ele>106.0</ele><time>2026-05-01T10:27:38.033Z</time></trkpt><trkpt lat="43.4756487" lon="10.6958547"><ele>106.0</ele><time>2026-05-01T10:27:39.023Z</time></trkpt><trkpt lat="43.475752" lon="10.6960358"><ele>106.0</ele><time>2026-05-01T10:27:40.02Z</time></trkpt><trkpt lat="43.4758544" lon="10.6962202"><ele>106.0</ele><time>2026-05-01T10:27:41.021Z</time></trkpt><trkpt lat="43.4759538" lon="10.6964008"><ele>104.66666666666667</ele><time>2026-05-01T10:27:42.024Z</time></trkpt><trkpt lat="43.4760535" lon="10.6965714"><ele>103.33333333333334</ele><time>2026-05-01T10:27:43.024Z</time></trkpt><trkpt lat="43.4761507" lon="10.6967333"><ele>102.0</ele><time>2026-05-01T10:27:44.027Z</time></trkpt><trkpt lat="43.4762437" lon="10.6968902"><ele>101.5</ele><time>2026-05-01T10:27:45.023Z</time></trkpt><trkpt lat="43.4763416" lon="10.6970364"><ele>101.0</ele><time>2026-05-01T10:27:46.027Z</time></trkpt><trkpt lat="43.4764437" lon="10.6971847"><ele>100.5</ele><time>2026-05-01T10:27:47.037Z</time></trkpt><trkpt lat="43.4765476" lon="10.6973302"><ele>100.0</ele><time>2026-05-01T10:27:48.023Z</time></trkpt><trkpt lat="43.4766597" lon="10.6974773"><ele>100.0</ele><time>2026-05-01T10:27:49.026Z</time></trkpt><trkpt lat="43.4767709" lon="10.6976212"><ele>100.0</ele><time>2026-05-01T10:27:50.028Z</time></trkpt><trkpt lat="43.4768838" lon="10.6977626"><ele>100.0</ele><time>2026-05-01T10:27:51.027Z</time></trkpt><trkpt lat="43.4769918" lon="10.6978981"><ele>99.4</ele><time>2026-05-01T10:27:52.02Z</time></trkpt><trkpt lat="43.4770945" lon="10.6980238"><ele>98.8</ele><time>2026-05-01T10:27:53.03Z</time></trkpt><trkpt lat="43.4771799" lon="10.6981363"><ele>98.19999999999999</ele><time>2026-05-01T10:27:54.024Z</time></trkpt><trkpt lat="43.4772489" lon="10.6982323"><ele>97.6</ele><time>2026-05-01T10:27:55.022Z</time></trkpt><trkpt lat="43.477309" lon="10.6983072"><ele>97.0</ele><time>2026-05-01T10:27:56.026Z</time></trkpt><trkpt lat="43.4773556" lon="10.6983718"><ele>96.83333333333334</ele><time>2026-05-01T10:27:57.033Z</time></trkpt><trkpt lat="43.4774519" lon="10.6984949"><ele>96.66666666666667</ele><time>2026-05-01T10:27:59.046Z</time></trkpt><trkpt lat="43.4775079" lon="10.698559"><ele>96.5</ele><time>2026-05-01T10:28:00.023Z</time></trkpt><trkpt lat="43.4775531" lon="10.6986239"><ele>96.33333333333334</ele><time>2026-05-01T10:28:01.021Z</time></trkpt><trkpt lat="43.4775779" lon="10.6987534"><ele>96.16666666666667</ele><time>2026-05-01T10:28:03.024Z</time></trkpt><trkpt lat="43.4775578" lon="10.6988513"><ele>96.0</ele><time>2026-05-01T10:28:05.024Z</time></trkpt><trkpt lat="43.4775397" lon="10.6989516"><ele>95.66666666666667</ele><time>2026-05-01T10:28:07.027Z</time></trkpt><trkpt lat="43.4775098" lon="10.699049"><ele>95.33333333333333</ele><time>2026-05-01T10:28:09.026Z</time></trkpt><trkpt lat="43.4774739" lon="10.6991367"><ele>95.0</ele><time>2026-05-01T10:28:12.033Z</time></trkpt><trkpt lat="43.4775249" lon="10.6990293"><ele>94.66666666666666</ele><time>2026-05-01T10:28:33.025Z</time></trkpt><trkpt lat="43.4775168" lon="10.69889"><ele>94.33333333333333</ele><time>2026-05-01T10:28:35.027Z</time></trkpt><trkpt lat="43.477532" lon="10.6988022"><ele>94.0</ele><time>2026-05-01T10:28:36.031Z</time></trkpt><trkpt lat="43.4775683" lon="10.6986875"><ele>94.0</ele><time>2026-05-01T10:28:38.023Z</time></trkpt><trkpt lat="43.4775596" lon="10.6985918"><ele>94.0</ele><time>2026-05-01T10:28:40.021Z</time></trkpt><trkpt lat="43.4774648" lon="10.6984745"><ele>94.0</ele><time>2026-05-01T10:28:42.025Z</time></trkpt><trkpt lat="43.4773653" lon="10.6984085"><ele>94.0</ele><time>2026-05-01T10:28:44.027Z</time></trkpt><trkpt lat="43.4772724" lon="10.6984294"><ele>94.0</ele><time>2026-05-01T10:28:46.028Z</time></trkpt><trkpt lat="43.4771641" lon="10.69849"><ele>94.2</ele><time>2026-05-01T10:28:48.023Z</time></trkpt><trkpt lat="43.4770936" lon="10.6985626"><ele>94.4</ele><time>2026-05-01T10:28:50.014Z</time></trkpt><trkpt lat="43.4770266" lon="10.6986484"><ele>94.6</ele><time>2026-05-01T10:28:52.024Z</time></trkpt><trkpt lat="43.476972" lon="10.698749"><ele>94.8</ele><time>2026-05-01T10:28:54.027Z</time></trkpt><trkpt lat="43.4769412" lon="10.6988737"><ele>95.0</ele><time>2026-05-01T10:28:56.018Z</time></trkpt><trkpt lat="43.4769288" lon="10.6990137"><ele>95.0</ele><time>2026-05-01T10:28:58.039Z</time></trkpt><trkpt lat="43.4769102" lon="10.6991609"><ele>95.0</ele><time>2026-05-01T10:29:00.021Z</time></trkpt><trkpt lat="43.4769009" lon="10.6992694"><ele>95.0</ele><time>2026-05-01T10:29:02.025Z</time></trkpt><trkpt lat="43.4769341" lon="10.6993769"><ele>95.0</ele><time>2026-05-01T10:29:28.028Z</time></trkpt><trkpt lat="43.4769501" lon="10.6994657"><ele>95.0</ele><time>2026-05-01T10:29:30.042Z</time></trkpt><trkpt lat="43.4769323" lon="10.6996091"><ele>95.0</ele><time>2026-05-01T10:29:32.027Z</time></trkpt><trkpt lat="43.4768981" lon="10.6997613"><ele>95.0</ele><time>2026-05-01T10:29:34.037Z</time></trkpt><trkpt lat="43.4768835" lon="10.6998531"><ele>95.0</ele><time>2026-05-01T10:29:35.034Z</time></trkpt><trkpt lat="43.47687" lon="10.6999593"><ele>95.0</ele><time>2026-05-01T10:29:36.021Z</time></trkpt><trkpt lat="43.4768593" lon="10.7000762"><ele>95.0</ele><time>2026-05-01T10:29:37.024Z</time></trkpt><trkpt lat="43.476837" lon="10.7002105"><ele>95.0</ele><time>2026-05-01T10:29:38.025Z</time></trkpt><trkpt lat="43.4768136" lon="10.7003595"><ele>95.0</ele><time>2026-05-01T10:29:39.032Z</time></trkpt><trkpt lat="43.4767779" lon="10.7005118"><ele>95.2</ele><time>2026-05-01T10:29:40.034Z</time></trkpt><trkpt lat="43.4767424" lon="10.7006528"><ele>95.4</ele><time>2026-05-01T10:29:41.026Z</time></trkpt><trkpt lat="43.4767074" lon="10.7007869"><ele>95.6</ele><time>2026-05-01T10:29:42.022Z</time></trkpt><trkpt lat="43.4766684" lon="10.7009256"><ele>95.8</ele><time>2026-05-01T10:29:43.026Z</time></trkpt><trkpt lat="43.4766221" lon="10.7010682"><ele>96.0</ele><time>2026-05-01T10:29:44.04Z</time></trkpt><trkpt lat="43.4765748" lon="10.7012166"><ele>95.5</ele><time>2026-05-01T10:29:45.022Z</time></trkpt><trkpt lat="43.4765266" lon="10.701371"><ele>95.0</ele><time>2026-05-01T10:29:46.029Z</time></trkpt><trkpt lat="43.4764834" lon="10.7015239"><ele>94.5</ele><time>2026-05-01T10:29:47.033Z</time></trkpt><trkpt lat="43.4764349" lon="10.7016787"><ele>94.0</ele><time>2026-05-01T10:29:48.025Z</time></trkpt><trkpt lat="43.4763907" lon="10.7018303"><ele>94.25</ele><time>2026-05-01T10:29:49.035Z</time></trkpt><trkpt lat="43.4763476" lon="10.7019845"><ele>94.5</ele><time>2026-05-01T10:29:50.037Z</time></trkpt><trkpt lat="43.4763029" lon="10.70214"><ele>94.75</ele><time>2026-05-01T10:29:51.031Z</time></trkpt><trkpt lat="43.4762537" lon="10.702285"><ele>95.0</ele><time>2026-05-01T10:29:52.034Z</time></trkpt><trkpt lat="43.4762143" lon="10.7024078"><ele>95.0</ele><time>2026-05-01T10:29:53.029Z</time></trkpt><trkpt lat="43.4761783" lon="10.702524"><ele>95.0</ele><time>2026-05-01T10:29:54.03Z</time></trkpt><trkpt lat="43.4761419" lon="10.7026468"><ele>95.0</ele><time>2026-05-01T10:29:55.035Z</time></trkpt><trkpt lat="43.4761073" lon="10.7027737"><ele>95.0</ele><time>2026-05-01T10:29:56.027Z</time></trkpt><trkpt lat="43.4760688" lon="10.7029071"><ele>95.0</ele><time>2026-05-01T10:29:57.033Z</time></trkpt><trkpt lat="43.4760311" lon="10.7030363"><ele>95.0</ele><time>2026-05-01T10:29:58.031Z</time></trkpt><trkpt lat="43.4759881" lon="10.7031713"><ele>95.0</ele><time>2026-05-01T10:29:59.036Z</time></trkpt><trkpt lat="43.4759484" lon="10.7033045"><ele>95.0</ele><time>2026-05-01T10:30:00.031Z</time></trkpt><trkpt lat="43.4759101" lon="10.7034367"><ele>95.0</ele><time>2026-05-01T10:30:01.03Z</time></trkpt><trkpt lat="43.4758691" lon="10.7035699"><ele>95.0</ele><time>2026-05-01T10:30:02.026Z</time></trkpt><trkpt lat="43.4758307" lon="10.703709"><ele>94.75</ele><time>2026-05-01T10:30:03.045Z</time></trkpt><trkpt lat="43.4757879" lon="10.7038492"><ele>94.5</ele><time>2026-05-01T10:30:04.026Z</time></trkpt><trkpt lat="43.4757451" lon="10.7039934"><ele>94.25</ele><time>2026-05-01T10:30:05.031Z</time></trkpt><trkpt lat="43.4757025" lon="10.7041436"><ele>94.0</ele><time>2026-05-01T10:30:06.022Z</time></trkpt><trkpt lat="43.4756525" lon="10.7043019"><ele>94.0</ele><time>2026-05-01T10:30:07.042Z</time></trkpt><trkpt lat="43.4756062" lon="10.7044606"><ele>94.0</ele><time>2026-05-01T10:30:08.026Z</time></trkpt><trkpt lat="43.4755555" lon="10.7046251"><ele>94.0</ele><time>2026-05-01T10:30:09.027Z</time></trkpt><trkpt lat="43.4755046" lon="10.7047767"><ele>94.0</ele><time>2026-05-01T10:30:10.031Z</time></trkpt><trkpt lat="43.4754566" lon="10.7049119"><ele>94.5</ele><time>2026-05-01T10:30:11.035Z</time></trkpt><trkpt lat="43.475396" lon="10.705047"><ele>95.0</ele><time>2026-05-01T10:30:12.026Z</time></trkpt><trkpt lat="43.4753231" lon="10.7051693"><ele>95.5</ele><time>2026-05-01T10:30:13.027Z</time></trkpt><trkpt lat="43.4752374" lon="10.7052672"><ele>96.0</ele><time>2026-05-01T10:30:14.026Z</time></trkpt><trkpt lat="43.4751358" lon="10.7053564"><ele>96.0</ele><time>2026-05-01T10:30:15.024Z</time></trkpt><trkpt lat="43.4750283" lon="10.7054353"><ele>96.0</ele><time>2026-05-01T10:30:16.017Z</time></trkpt><trkpt lat="43.4749257" lon="10.7055184"><ele>96.0</ele><time>2026-05-01T10:30:17.02Z</time></trkpt><trkpt lat="43.4748191" lon="10.7056005"><ele>96.0</ele><time>2026-05-01T10:30:18.026Z</time></trkpt><trkpt lat="43.4747122" lon="10.7056789"><ele>96.0</ele><time>2026-05-01T10:30:19.024Z</time></trkpt><trkpt lat="43.4746121" lon="10.7057571"><ele>96.0</ele><time>2026-05-01T10:30:20.031Z</time></trkpt><trkpt lat="43.4745178" lon="10.7058452"><ele>96.0</ele><time>2026-05-01T10:30:21.024Z</time></trkpt><trkpt lat="43.4744266" lon="10.7059414"><ele>96.0</ele><time>2026-05-01T10:30:22.025Z</time></trkpt><trkpt lat="43.4743563" lon="10.706057"><ele>96.4</ele><time>2026-05-01T10:30:23.019Z</time></trkpt><trkpt lat="43.4743105" lon="10.7061905"><ele>96.8</ele><time>2026-05-01T10:30:24.031Z</time></trkpt><trkpt lat="43.4742846" lon="10.7063353"><ele>97.2</ele><time>2026-05-01T10:30:25.04Z</time></trkpt><trkpt lat="43.4742718" lon="10.7064715"><ele>97.60000000000001</ele><time>2026-05-01T10:30:26.022Z</time></trkpt><trkpt lat="43.4742644" lon="10.7066117"><ele>98.0</ele><time>2026-05-01T10:30:27.029Z</time></trkpt><trkpt lat="43.4742567" lon="10.7067475"><ele>98.0</ele><time>2026-05-01T10:30:28.032Z</time></trkpt><trkpt lat="43.4742479" lon="10.7068927"><ele>98.0</ele><time>2026-05-01T10:30:29.028Z</time></trkpt><trkpt lat="43.4742378" lon="10.7070439"><ele>98.0</ele><time>2026-05-01T10:30:30.02Z</time></trkpt><trkpt lat="43.4742303" lon="10.7071964"><ele>98.0</ele><time>2026-05-01T10:30:31.03Z</time></trkpt><trkpt lat="43.4742243" lon="10.7073375"><ele>98.0</ele><time>2026-05-01T10:30:32.032Z</time></trkpt><trkpt lat="43.4742159" lon="10.7074581"><ele>98.33333333333333</ele><time>2026-05-01T10:30:33.029Z</time></trkpt><trkpt lat="43.4742101" lon="10.7075733"><ele>98.66666666666666</ele><time>2026-05-01T10:30:34.037Z</time></trkpt><trkpt lat="43.4742175" lon="10.7076751"><ele>99.0</ele><time>2026-05-01T10:30:35.03Z</time></trkpt><trkpt lat="43.4742417" lon="10.7077648"><ele>99.33333333333334</ele><time>2026-05-01T10:30:36.029Z</time></trkpt><trkpt lat="43.4742836" lon="10.7078553"><ele>99.66666666666667</ele><time>2026-05-01T10:30:37.024Z</time></trkpt><trkpt lat="43.4743376" lon="10.7079335"><ele>100.0</ele><time>2026-05-01T10:30:38.03Z</time></trkpt><trkpt lat="43.4744044" lon="10.7079921"><ele>101.4</ele><time>2026-05-01T10:30:39.028Z</time></trkpt><trkpt lat="43.4744774" lon="10.7080416"><ele>102.8</ele><time>2026-05-01T10:30:40.029Z</time></trkpt><trkpt lat="43.4745515" lon="10.708057"><ele>104.19999999999999</ele><time>2026-05-01T10:30:41.022Z</time></trkpt><trkpt lat="43.4746855" lon="10.708024"><ele>105.6</ele><time>2026-05-01T10:30:43.035Z</time></trkpt><trkpt lat="43.4747677" lon="10.7079609"><ele>107.0</ele><time>2026-05-01T10:30:44.027Z</time></trkpt><trkpt lat="43.4748367" lon="10.7078842"><ele>107.83333333333333</ele><time>2026-05-01T10:30:45.023Z</time></trkpt><trkpt lat="43.4749043" lon="10.7078159"><ele>108.66666666666666</ele><time>2026-05-01T10:30:46.03Z</time></trkpt><trkpt lat="43.4749769" lon="10.7077576"><ele>109.5</ele><time>2026-05-01T10:30:47.022Z</time></trkpt><trkpt lat="43.4750555" lon="10.7077377"><ele>110.33333333333334</ele><time>2026-05-01T10:30:48.029Z</time></trkpt><trkpt lat="43.4751379" lon="10.7077336"><ele>111.16666666666667</ele><time>2026-05-01T10:30:49.024Z</time></trkpt><trkpt lat="43.4752268" lon="10.707732"><ele>112.0</ele><time>2026-05-01T10:30:50.035Z</time></trkpt><trkpt lat="43.4753191" lon="10.7077331"><ele>112.19999999999999</ele><time>2026-05-01T10:30:51.022Z</time></trkpt><trkpt lat="43.4754184" lon="10.7077376"><ele>112.39999999999999</ele><time>2026-05-01T10:30:52.023Z</time></trkpt><trkpt lat="43.475515" lon="10.7077596"><ele>112.60000000000001</ele><time>2026-05-01T10:30:53.024Z</time></trkpt><trkpt lat="43.4756159" lon="10.7077988"><ele>112.80000000000001</ele><time>2026-05-01T10:30:54.026Z</time></trkpt><trkpt lat="43.4757117" lon="10.7078504"><ele>113.0</ele><time>2026-05-01T10:30:55.025Z</time></trkpt><trkpt lat="43.4757983" lon="10.7079187"><ele>113.0</ele><time>2026-05-01T10:30:56.028Z</time></trkpt><trkpt lat="43.4758738" lon="10.7080011"><ele>113.00000000000001</ele><time>2026-05-01T10:30:57.037Z</time></trkpt><trkpt lat="43.4759338" lon="10.7080934"><ele>113.00000000000001</ele><time>2026-05-01T10:30:58.034Z</time></trkpt><trkpt lat="43.4759928" lon="10.7081877"><ele>113.0</ele><time>2026-05-01T10:30:59.029Z</time></trkpt><trkpt lat="43.476055" lon="10.7082981"><ele>113.0</ele><time>2026-05-01T10:31:00.026Z</time></trkpt><trkpt lat="43.4761084" lon="10.708415"><ele>113.0</ele><time>2026-05-01T10:31:01.025Z</time></trkpt><trkpt lat="43.4761537" lon="10.7085381"><ele>113.00000000000001</ele><time>2026-05-01T10:31:02.038Z</time></trkpt><trkpt lat="43.4761791" lon="10.7086666"><ele>113.00000000000001</ele><time>2026-05-01T10:31:03.025Z</time></trkpt><trkpt lat="43.4761855" lon="10.7087954"><ele>113.0</ele><time>2026-05-01T10:31:04.036Z</time></trkpt><trkpt lat="43.4761661" lon="10.7089137"><ele>113.0</ele><time>2026-05-01T10:31:05.03Z</time></trkpt><trkpt lat="43.4761361" lon="10.7090253"><ele>114.4</ele><time>2026-05-01T10:31:06.035Z</time></trkpt><trkpt lat="43.4761033" lon="10.7091511"><ele>115.80000000000001</ele><time>2026-05-01T10:31:07.038Z</time></trkpt><trkpt lat="43.4760628" lon="10.7092956"><ele>117.2</ele><time>2026-05-01T10:31:08.021Z</time></trkpt><trkpt lat="43.4760219" lon="10.7094255"><ele>118.6</ele><time>2026-05-01T10:31:09.034Z</time></trkpt><trkpt lat="43.475991" lon="10.7095332"><ele>120.0</ele><time>2026-05-01T10:31:10.026Z</time></trkpt><trkpt lat="43.4759553" lon="10.7096411"><ele>120.0</ele><time>2026-05-01T10:31:11.025Z</time></trkpt><trkpt lat="43.4758943" lon="10.7097534"><ele>120.0</ele><time>2026-05-01T10:31:12.021Z</time></trkpt><trkpt lat="43.4758266" lon="10.7098828"><ele>120.0</ele><time>2026-05-01T10:31:13.024Z</time></trkpt><trkpt lat="43.4757411" lon="10.7100035"><ele>120.0</ele><time>2026-05-01T10:31:14.029Z</time></trkpt><trkpt lat="43.4756595" lon="10.7101"><ele>120.0</ele><time>2026-05-01T10:31:15.024Z</time></trkpt><trkpt lat="43.4755849" lon="10.7101817"><ele>120.0</ele><time>2026-05-01T10:31:16.037Z</time></trkpt><trkpt lat="43.4755094" lon="10.7102606"><ele>120.0</ele><time>2026-05-01T10:31:17.031Z</time></trkpt><trkpt lat="43.4754451" lon="10.7103356"><ele>120.0</ele><time>2026-05-01T10:31:18.029Z</time></trkpt><trkpt lat="43.4753863" lon="10.7104153"><ele>120.0</ele><time>2026-05-01T10:31:19.024Z</time></trkpt><trkpt lat="43.4753324" lon="10.7104965"><ele>120.0</ele><time>2026-05-01T10:31:20.033Z</time></trkpt><trkpt lat="43.4752888" lon="10.7105865"><ele>120.0</ele><time>2026-05-01T10:31:21.033Z</time></trkpt><trkpt lat="43.4752474" lon="10.7106873"><ele>122.2</ele><time>2026-05-01T10:31:22.021Z</time></trkpt><trkpt lat="43.4752095" lon="10.7108006"><ele>124.4</ele><time>2026-05-01T10:31:23.031Z</time></trkpt><trkpt lat="43.4751751" lon="10.7109187"><ele>126.6</ele><time>2026-05-01T10:31:24.026Z</time></trkpt><trkpt lat="43.4751464" lon="10.711025"><ele>128.8</ele><time>2026-05-01T10:31:25.024Z</time></trkpt><trkpt lat="43.47511" lon="10.7111425"><ele>131.0</ele><time>2026-05-01T10:31:26.029Z</time></trkpt><trkpt lat="43.4750718" lon="10.7112644"><ele>131.0</ele><time>2026-05-01T10:31:27.037Z</time></trkpt><trkpt lat="43.4750349" lon="10.7113831"><ele>131.0</ele><time>2026-05-01T10:31:28.026Z</time></trkpt><trkpt lat="43.4749997" lon="10.7114966"><ele>131.0</ele><time>2026-05-01T10:31:29.038Z</time></trkpt><trkpt lat="43.4749675" lon="10.7116065"><ele>131.0</ele><time>2026-05-01T10:31:30.028Z</time></trkpt><trkpt lat="43.4749361" lon="10.7117014"><ele>131.0</ele><time>2026-05-01T10:31:31.026Z</time></trkpt><trkpt lat="43.4749049" lon="10.7117817"><ele>131.0</ele><time>2026-05-01T10:31:32.012Z</time></trkpt><trkpt lat="43.4748645" lon="10.7118655"><ele>131.16666666666666</ele><time>2026-05-01T10:31:33.04Z</time></trkpt><trkpt lat="43.4748153" lon="10.7119428"><ele>131.33333333333331</ele><time>2026-05-01T10:31:34.027Z</time></trkpt><trkpt lat="43.4747555" lon="10.7119881"><ele>131.5</ele><time>2026-05-01T10:31:35.028Z</time></trkpt><trkpt lat="43.4746805" lon="10.7120236"><ele>131.66666666666666</ele><time>2026-05-01T10:31:36.027Z</time></trkpt><trkpt lat="43.4745958" lon="10.7120389"><ele>131.83333333333334</ele><time>2026-05-01T10:31:37.03Z</time></trkpt><trkpt lat="43.4745019" lon="10.7120358"><ele>132.0</ele><time>2026-05-01T10:31:38.027Z</time></trkpt><trkpt lat="43.4744032" lon="10.7120339"><ele>133.0</ele><time>2026-05-01T10:31:39.032Z</time></trkpt><trkpt lat="43.4743015" lon="10.71203"><ele>134.0</ele><time>2026-05-01T10:31:40.033Z</time></trkpt><trkpt lat="43.474206" lon="10.7120323"><ele>135.0</ele><time>2026-05-01T10:31:41.027Z</time></trkpt><trkpt lat="43.4741169" lon="10.7120394"><ele>136.0</ele><time>2026-05-01T10:31:42.032Z</time></trkpt><trkpt lat="43.4740438" lon="10.7120517"><ele>137.0</ele><time>2026-05-01T10:31:43.035Z</time></trkpt><trkpt lat="43.4739744" lon="10.712097"><ele>138.0</ele><time>2026-05-01T10:31:44.034Z</time></trkpt><trkpt lat="43.4739114" lon="10.7121733"><ele>138.0</ele><time>2026-05-01T10:31:45.031Z</time></trkpt><trkpt lat="43.4738564" lon="10.7122551"><ele>138.0</ele><time>2026-05-01T10:31:46.03Z</time></trkpt><trkpt lat="43.473817" lon="10.7123564"><ele>138.0</ele><time>2026-05-01T10:31:47.022Z</time></trkpt><trkpt lat="43.4738004" lon="10.7124825"><ele>138.0</ele><time>2026-05-01T10:31:48.032Z</time></trkpt><trkpt lat="43.4738032" lon="10.7126325"><ele>138.0</ele><time>2026-05-01T10:31:49.03Z</time></trkpt><trkpt lat="43.4738049" lon="10.7127919"><ele>138.75</ele><time>2026-05-01T10:31:50.038Z</time></trkpt><trkpt lat="43.4738016" lon="10.7129515"><ele>139.5</ele><time>2026-05-01T10:31:51.019Z</time></trkpt><trkpt lat="43.4737913" lon="10.7131214"><ele>140.25</ele><time>2026-05-01T10:31:52.041Z</time></trkpt><trkpt lat="43.4737805" lon="10.7132922"><ele>141.0</ele><time>2026-05-01T10:31:53.018Z</time></trkpt><trkpt lat="43.4737669" lon="10.7134434"><ele>138.83333333333334</ele><time>2026-05-01T10:31:54.037Z</time></trkpt><trkpt lat="43.4737582" lon="10.7135718"><ele>136.66666666666666</ele><time>2026-05-01T10:31:55.035Z</time></trkpt><trkpt lat="43.4737512" lon="10.7136923"><ele>134.5</ele><time>2026-05-01T10:31:56.025Z</time></trkpt><trkpt lat="43.4737464" lon="10.7137957"><ele>132.33333333333331</ele><time>2026-05-01T10:31:57.03Z</time></trkpt><trkpt lat="43.4737416" lon="10.7139042"><ele>130.16666666666666</ele><time>2026-05-01T10:31:58.029Z</time></trkpt><trkpt lat="43.4737386" lon="10.7140262"><ele>128.0</ele><time>2026-05-01T10:31:59.044Z</time></trkpt><trkpt lat="43.4737398" lon="10.714156"><ele>127.80000000000001</ele><time>2026-05-01T10:32:00.037Z</time></trkpt><trkpt lat="43.4737473" lon="10.7142896"><ele>127.60000000000001</ele><time>2026-05-01T10:32:01.021Z</time></trkpt><trkpt lat="43.4737661" lon="10.7144251"><ele>127.39999999999999</ele><time>2026-05-01T10:32:02.019Z</time></trkpt><trkpt lat="43.4737987" lon="10.7145509"><ele>127.19999999999999</ele><time>2026-05-01T10:32:03.019Z</time></trkpt><trkpt lat="43.473845" lon="10.7146711"><ele>127.0</ele><time>2026-05-01T10:32:04.023Z</time></trkpt><trkpt lat="43.4738967" lon="10.7147965"><ele>129.2</ele><time>2026-05-01T10:32:05.029Z</time></trkpt><trkpt lat="43.4739471" lon="10.7149278"><ele>131.39999999999998</ele><time>2026-05-01T10:32:06.037Z</time></trkpt><trkpt lat="43.4739951" lon="10.7150664"><ele>133.60000000000002</ele><time>2026-05-01T10:32:07.026Z</time></trkpt><trkpt lat="43.4740369" lon="10.7152003"><ele>135.8</ele><time>2026-05-01T10:32:08.036Z</time></trkpt><trkpt lat="43.4740641" lon="10.7153196"><ele>138.0</ele><time>2026-05-01T10:32:09.025Z</time></trkpt><trkpt lat="43.4740836" lon="10.715436"><ele>138.0</ele><time>2026-05-01T10:32:10.023Z</time></trkpt><trkpt lat="43.4740925" lon="10.7155639"><ele>138.0</ele><time>2026-05-01T10:32:11.038Z</time></trkpt><trkpt lat="43.4740912" lon="10.715704"><ele>138.0</ele><time>2026-05-01T10:32:12.042Z</time></trkpt><trkpt lat="43.4740832" lon="10.7158459"><ele>138.0</ele><time>2026-05-01T10:32:13.029Z</time></trkpt><trkpt lat="43.4740625" lon="10.715985"><ele>138.0</ele><time>2026-05-01T10:32:14.034Z</time></trkpt><trkpt lat="43.4740384" lon="10.7161196"><ele>137.6</ele><time>2026-05-01T10:32:15.034Z</time></trkpt><trkpt lat="43.4740107" lon="10.7162376"><ele>137.20000000000002</ele><time>2026-05-01T10:32:16.023Z</time></trkpt><trkpt lat="43.4739706" lon="10.7163447"><ele>136.8</ele><time>2026-05-01T10:32:17.032Z</time></trkpt><trkpt lat="43.47392" lon="10.7164484"><ele>136.4</ele><time>2026-05-01T10:32:18.034Z</time></trkpt><trkpt lat="43.4738684" lon="10.7165581"><ele>136.0</ele><time>2026-05-01T10:32:19.024Z</time></trkpt><trkpt lat="43.4738069" lon="10.7166639"><ele>136.8</ele><time>2026-05-01T10:32:20.028Z</time></trkpt><trkpt lat="43.4737332" lon="10.7167723"><ele>137.6</ele><time>2026-05-01T10:32:21.022Z</time></trkpt><trkpt lat="43.4736647" lon="10.7168761"><ele>138.4</ele><time>2026-05-01T10:32:22.032Z</time></trkpt><trkpt lat="43.4736039" lon="10.7169647"><ele>139.2</ele><time>2026-05-01T10:32:23.031Z</time></trkpt><trkpt lat="43.4735529" lon="10.7170428"><ele>140.0</ele><time>2026-05-01T10:32:24.025Z</time></trkpt><trkpt lat="43.4734997" lon="10.7171176"><ele>140.0</ele><time>2026-05-01T10:32:25.036Z</time></trkpt><trkpt lat="43.4734421" lon="10.7172057"><ele>140.0</ele><time>2026-05-01T10:32:26.026Z</time></trkpt><trkpt lat="43.4733798" lon="10.7173011"><ele>140.0</ele><time>2026-05-01T10:32:27.032Z</time></trkpt><trkpt lat="43.4733188" lon="10.7174037"><ele>140.0</ele><time>2026-05-01T10:32:28.028Z</time></trkpt><trkpt lat="43.4732479" lon="10.7175074"><ele>140.0</ele><time>2026-05-01T10:32:29.034Z</time></trkpt><trkpt lat="43.4731702" lon="10.7176129"><ele>140.0</ele><time>2026-05-01T10:32:30.03Z</time></trkpt><trkpt lat="43.4730837" lon="10.7177263"><ele>140.0</ele><time>2026-05-01T10:32:31.028Z</time></trkpt><trkpt lat="43.4729944" lon="10.7178411"><ele>140.0</ele><time>2026-05-01T10:32:32.024Z</time></trkpt><trkpt lat="43.4729117" lon="10.7179496"><ele>140.0</ele><time>2026-05-01T10:32:33.038Z</time></trkpt><trkpt lat="43.4728268" lon="10.7180573"><ele>140.5</ele><time>2026-05-01T10:32:34.028Z</time></trkpt><trkpt lat="43.4727401" lon="10.7181735"><ele>141.0</ele><time>2026-05-01T10:32:35.033Z</time></trkpt><trkpt lat="43.4726609" lon="10.7183019"><ele>141.5</ele><time>2026-05-01T10:32:36.028Z</time></trkpt><trkpt lat="43.4725768" lon="10.7184245"><ele>142.0</ele><time>2026-05-01T10:32:37.035Z</time></trkpt><trkpt lat="43.4724901" lon="10.7185434"><ele>141.25</ele><time>2026-05-01T10:32:38.02Z</time></trkpt><trkpt lat="43.4724039" lon="10.718663"><ele>140.5</ele><time>2026-05-01T10:32:39.026Z</time></trkpt><trkpt lat="43.4723148" lon="10.718789"><ele>139.75</ele><time>2026-05-01T10:32:40.026Z</time></trkpt><trkpt lat="43.4722168" lon="10.7189157"><ele>139.0</ele><time>2026-05-01T10:32:41.046Z</time></trkpt><trkpt lat="43.4721187" lon="10.719043"><ele>140.5</ele><time>2026-05-01T10:32:42.021Z</time></trkpt><trkpt lat="43.4720175" lon="10.719179"><ele>142.0</ele><time>2026-05-01T10:32:43.025Z</time></trkpt><trkpt lat="43.4719121" lon="10.7193223"><ele>143.5</ele><time>2026-05-01T10:32:44.039Z</time></trkpt><trkpt lat="43.4718068" lon="10.7194687"><ele>145.0</ele><time>2026-05-01T10:32:45.023Z</time></trkpt><trkpt lat="43.4717045" lon="10.7196169"><ele>145.5</ele><time>2026-05-01T10:32:46.018Z</time></trkpt><trkpt lat="43.471608" lon="10.7197532"><ele>146.0</ele><time>2026-05-01T10:32:47.012Z</time></trkpt><trkpt lat="43.4715129" lon="10.7198865"><ele>146.5</ele><time>2026-05-01T10:32:48.027Z</time></trkpt><trkpt lat="43.4714102" lon="10.7200268"><ele>147.0</ele><time>2026-05-01T10:32:49.028Z</time></trkpt><trkpt lat="43.4713075" lon="10.7201677"><ele>147.66666666666666</ele><time>2026-05-01T10:32:50.032Z</time></trkpt><trkpt lat="43.4711998" lon="10.7203157"><ele>148.33333333333331</ele><time>2026-05-01T10:32:51.029Z</time></trkpt><trkpt lat="43.4710896" lon="10.7204661"><ele>149.0</ele><time>2026-05-01T10:32:52.015Z</time></trkpt><trkpt lat="43.470984" lon="10.720623"><ele>149.0</ele><time>2026-05-01T10:32:53.03Z</time></trkpt><trkpt lat="43.4708722" lon="10.7207755"><ele>149.0</ele><time>2026-05-01T10:32:54.037Z</time></trkpt><trkpt lat="43.4707609" lon="10.7209174"><ele>149.0</ele><time>2026-05-01T10:32:55.015Z</time></trkpt><trkpt lat="43.4706513" lon="10.7210584"><ele>149.25</ele><time>2026-05-01T10:32:56.023Z</time></trkpt><trkpt lat="43.4705449" lon="10.7211942"><ele>149.5</ele><time>2026-05-01T10:32:57.033Z</time></trkpt><trkpt lat="43.470441" lon="10.7213247"><ele>149.75</ele><time>2026-05-01T10:32:58.028Z</time></trkpt><trkpt lat="43.4703442" lon="10.7214579"><ele>150.0</ele><time>2026-05-01T10:32:59.039Z</time></trkpt><trkpt lat="43.4702643" lon="10.7215802"><ele>151.6</ele><time>2026-05-01T10:33:00.029Z</time></trkpt><trkpt lat="43.4702184" lon="10.7216859"><ele>153.2</ele><time>2026-05-01T10:33:01.032Z</time></trkpt><trkpt lat="43.4702168" lon="10.721801"><ele>154.8</ele><time>2026-05-01T10:33:02.023Z</time></trkpt><trkpt lat="43.4702292" lon="10.721935"><ele>156.4</ele><time>2026-05-01T10:33:03.011Z</time></trkpt><trkpt lat="43.4702597" lon="10.722065"><ele>158.0</ele><time>2026-05-01T10:33:04.027Z</time></trkpt><trkpt lat="43.4703144" lon="10.7221977"><ele>159.60000000000002</ele><time>2026-05-01T10:33:05.036Z</time></trkpt><trkpt lat="43.4703807" lon="10.7223305"><ele>161.20000000000002</ele><time>2026-05-01T10:33:06.029Z</time></trkpt><trkpt lat="43.4704175" lon="10.7224594"><ele>162.8</ele><time>2026-05-01T10:33:07.021Z</time></trkpt><trkpt lat="43.4704311" lon="10.7226101"><ele>164.4</ele><time>2026-05-01T10:33:08.029Z</time></trkpt><trkpt lat="43.4704014" lon="10.7227697"><ele>166.0</ele><time>2026-05-01T10:33:09.023Z</time></trkpt><trkpt lat="43.470354" lon="10.7229258"><ele>167.5</ele><time>2026-05-01T10:33:10.026Z</time></trkpt><trkpt lat="43.4702932" lon="10.723074"><ele>169.0</ele><time>2026-05-01T10:33:11.024Z</time></trkpt><trkpt lat="43.4702232" lon="10.7232151"><ele>170.5</ele><time>2026-05-01T10:33:12.036Z</time></trkpt><trkpt lat="43.4701581" lon="10.7233472"><ele>172.0</ele><time>2026-05-01T10:33:13.029Z</time></trkpt><trkpt lat="43.4701051" lon="10.7234732"><ele>171.71428571428572</ele><time>2026-05-01T10:33:14.03Z</time></trkpt><trkpt lat="43.4700617" lon="10.7235778"><ele>171.42857142857144</ele><time>2026-05-01T10:33:15.03Z</time></trkpt><trkpt lat="43.470029" lon="10.7236709"><ele>171.14285714285717</ele><time>2026-05-01T10:33:16.033Z</time></trkpt><trkpt lat="43.4699965" lon="10.7237524"><ele>170.85714285714286</ele><time>2026-05-01T10:33:17.028Z</time></trkpt><trkpt lat="43.469966" lon="10.7238373"><ele>170.57142857142856</ele><time>2026-05-01T10:33:18.029Z</time></trkpt><trkpt lat="43.4699332" lon="10.7239187"><ele>170.2857142857143</ele><time>2026-05-01T10:33:19.029Z</time></trkpt><trkpt lat="43.4698965" lon="10.7239956"><ele>170.0</ele><time>2026-05-01T10:33:20.032Z</time></trkpt><trkpt lat="43.4698308" lon="10.7241094"><ele>170.0</ele><time>2026-05-01T10:33:22.025Z</time></trkpt><trkpt lat="43.4697716" lon="10.724155"><ele>170.0</ele><time>2026-05-01T10:33:25.033Z</time></trkpt><trkpt lat="43.4697666" lon="10.7242567"><ele>170.0</ele><time>2026-05-01T10:33:27.027Z</time></trkpt><trkpt lat="43.4697949" lon="10.7243463"><ele>170.0</ele><time>2026-05-01T10:33:28.029Z</time></trkpt><trkpt lat="43.4698351" lon="10.7244705"><ele>170.0</ele><time>2026-05-01T10:33:29.035Z</time></trkpt><trkpt lat="43.4698776" lon="10.7246053"><ele>170.0</ele><time>2026-05-01T10:33:30.031Z</time></trkpt><trkpt lat="43.4699296" lon="10.7247403"><ele>170.25</ele><time>2026-05-01T10:33:31.029Z</time></trkpt><trkpt lat="43.4699837" lon="10.7248951"><ele>170.5</ele><time>2026-05-01T10:33:32.026Z</time></trkpt><trkpt lat="43.4700423" lon="10.7250437"><ele>170.75</ele><time>2026-05-01T10:33:33.034Z</time></trkpt><trkpt lat="43.4700929" lon="10.7251845"><ele>171.0</ele><time>2026-05-01T10:33:34.029Z</time></trkpt><trkpt lat="43.4701365" lon="10.7252951"><ele>171.66666666666666</ele><time>2026-05-01T10:33:35.023Z</time></trkpt><trkpt lat="43.470167" lon="10.7253746"><ele>172.33333333333334</ele><time>2026-05-01T10:33:36.024Z</time></trkpt><trkpt lat="43.4702127" lon="10.7255076"><ele>173.0</ele><time>2026-05-01T10:33:38.03Z</time></trkpt><trkpt lat="43.4702544" lon="10.7255772"><ele>173.66666666666669</ele><time>2026-05-01T10:33:39.029Z</time></trkpt><trkpt lat="43.4703009" lon="10.725647"><ele>174.33333333333334</ele><time>2026-05-01T10:33:40.035Z</time></trkpt><trkpt lat="43.4703595" lon="10.7257175"><ele>175.0</ele><time>2026-05-01T10:33:41.031Z</time></trkpt><trkpt lat="43.4704212" lon="10.7258004"><ele>175.0</ele><time>2026-05-01T10:33:42.038Z</time></trkpt><trkpt lat="43.4704698" lon="10.7258761"><ele>175.0</ele><time>2026-05-01T10:33:43.037Z</time></trkpt><trkpt lat="43.470496" lon="10.7259665"><ele>175.0</ele><time>2026-05-01T10:33:44.029Z</time></trkpt><trkpt lat="43.470496" lon="10.7260661"><ele>175.0</ele><time>2026-05-01T10:33:45.033Z</time></trkpt><trkpt lat="43.4704716" lon="10.7261783"><ele>175.0</ele><time>2026-05-01T10:33:46.026Z</time></trkpt><trkpt lat="43.4704322" lon="10.726303"><ele>175.0</ele><time>2026-05-01T10:33:47.029Z</time></trkpt><trkpt lat="43.4703954" lon="10.7264402"><ele>176.75</ele><time>2026-05-01T10:33:48.029Z</time></trkpt><trkpt lat="43.4703529" lon="10.7265848"><ele>178.5</ele><time>2026-05-01T10:33:49.029Z</time></trkpt><trkpt lat="43.4703151" lon="10.7267314"><ele>180.25</ele><time>2026-05-01T10:33:50.023Z</time></trkpt><trkpt lat="43.4702678" lon="10.7268901"><ele>182.0</ele><time>2026-05-01T10:33:51.022Z</time></trkpt><trkpt lat="43.4702174" lon="10.7270597"><ele>184.0</ele><time>2026-05-01T10:33:52.027Z</time></trkpt><trkpt lat="43.4701633" lon="10.7272412"><ele>186.0</ele><time>2026-05-01T10:33:53.029Z</time></trkpt><trkpt lat="43.4701116" lon="10.7274189"><ele>188.0</ele><time>2026-05-01T10:33:54.028Z</time></trkpt><trkpt lat="43.4700659" lon="10.7275886"><ele>190.0</ele><time>2026-05-01T10:33:55.04Z</time></trkpt><trkpt lat="43.4700436" lon="10.7277305"><ele>191.8</ele><time>2026-05-01T10:33:56.037Z</time></trkpt><trkpt lat="43.4700389" lon="10.7278634"><ele>193.6</ele><time>2026-05-01T10:33:57.031Z</time></trkpt><trkpt lat="43.4700497" lon="10.7280068"><ele>195.39999999999998</ele><time>2026-05-01T10:33:58.043Z</time></trkpt><trkpt lat="43.4700749" lon="10.7281519"><ele>197.2</ele><time>2026-05-01T10:33:59.033Z</time></trkpt><trkpt lat="43.4701053" lon="10.7282989"><ele>199.0</ele><time>2026-05-01T10:34:00.027Z</time></trkpt><trkpt lat="43.4701408" lon="10.728442"><ele>199.79999999999998</ele><time>2026-05-01T10:34:01.043Z</time></trkpt><trkpt lat="43.4701787" lon="10.7285726"><ele>200.6</ele><time>2026-05-01T10:34:02.028Z</time></trkpt><trkpt lat="43.4702095" lon="10.7286848"><ele>201.4</ele><time>2026-05-01T10:34:03.017Z</time></trkpt><trkpt lat="43.4702461" lon="10.728789"><ele>202.2</ele><time>2026-05-01T10:34:04.031Z</time></trkpt><trkpt lat="43.4702857" lon="10.7288976"><ele>203.0</ele><time>2026-05-01T10:34:05.028Z</time></trkpt><trkpt lat="43.4703223" lon="10.7290089"><ele>203.0</ele><time>2026-05-01T10:34:06.027Z</time></trkpt><trkpt lat="43.4703626" lon="10.729107"><ele>203.0</ele><time>2026-05-01T10:34:07.028Z</time></trkpt><trkpt lat="43.470399" lon="10.7291847"><ele>203.0</ele><time>2026-05-01T10:34:08.027Z</time></trkpt><trkpt lat="43.4704518" lon="10.7293091"><ele>203.0</ele><time>2026-05-01T10:34:10.033Z</time></trkpt><trkpt lat="43.4704983" lon="10.7294718"><ele>203.0</ele><time>2026-05-01T10:34:12.029Z</time></trkpt><trkpt lat="43.4705323" lon="10.7295955"><ele>201.5</ele><time>2026-05-01T10:34:13.035Z</time></trkpt><trkpt lat="43.4705588" lon="10.7297393"><ele>200.0</ele><time>2026-05-01T10:34:14.025Z</time></trkpt><trkpt lat="43.4705845" lon="10.7298906"><ele>198.5</ele><time>2026-05-01T10:34:15.032Z</time></trkpt><trkpt lat="43.4706192" lon="10.7300472"><ele>197.0</ele><time>2026-05-01T10:34:16.04Z</time></trkpt><trkpt lat="43.4706574" lon="10.7301961"><ele>197.0</ele><time>2026-05-01T10:34:17.034Z</time></trkpt><trkpt lat="43.4706895" lon="10.7303401"><ele>197.0</ele><time>2026-05-01T10:34:18.026Z</time></trkpt><trkpt lat="43.4707131" lon="10.7304759"><ele>197.0</ele><time>2026-05-01T10:34:19.026Z</time></trkpt><trkpt lat="43.4707347" lon="10.7306063"><ele>197.0</ele><time>2026-05-01T10:34:20.02Z</time></trkpt><trkpt lat="43.4707393" lon="10.7307426"><ele>197.0</ele><time>2026-05-01T10:34:21.034Z</time></trkpt><trkpt lat="43.470739" lon="10.7308801"><ele>197.0</ele><time>2026-05-01T10:34:22.033Z</time></trkpt><trkpt lat="43.4707288" lon="10.7310196"><ele>197.0</ele><time>2026-05-01T10:34:23.029Z</time></trkpt><trkpt lat="43.4707069" lon="10.7311676"><ele>197.0</ele><time>2026-05-01T10:34:24.037Z</time></trkpt><trkpt lat="43.4706851" lon="10.7313103"><ele>197.0</ele><time>2026-05-01T10:34:25.036Z</time></trkpt><trkpt lat="43.4706591" lon="10.7314439"><ele>197.0</ele><time>2026-05-01T10:34:26.013Z</time></trkpt><trkpt lat="43.4706403" lon="10.7315518"><ele>196.83333333333334</ele><time>2026-05-01T10:34:27.018Z</time></trkpt><trkpt lat="43.470623" lon="10.7317019"><ele>196.66666666666669</ele><time>2026-05-01T10:34:29.032Z</time></trkpt><trkpt lat="43.4706044" lon="10.7318436"><ele>196.5</ele><time>2026-05-01T10:34:31.027Z</time></trkpt><trkpt lat="43.4705925" lon="10.7319375"><ele>196.33333333333331</ele><time>2026-05-01T10:34:32.022Z</time></trkpt><trkpt lat="43.4705745" lon="10.7320385"><ele>196.16666666666666</ele><time>2026-05-01T10:34:33.018Z</time></trkpt><trkpt lat="43.4705524" lon="10.7321502"><ele>196.0</ele><time>2026-05-01T10:34:34.037Z</time></trkpt><trkpt lat="43.4705242" lon="10.7322679"><ele>194.20000000000002</ele><time>2026-05-01T10:34:35.035Z</time></trkpt><trkpt lat="43.4704989" lon="10.7323913"><ele>192.4</ele><time>2026-05-01T10:34:36.018Z</time></trkpt><trkpt lat="43.4704756" lon="10.7325119"><ele>190.6</ele><time>2026-05-01T10:34:37.027Z</time></trkpt><trkpt lat="43.470456" lon="10.7326414"><ele>188.8</ele><time>2026-05-01T10:34:38.026Z</time></trkpt><trkpt lat="43.4704439" lon="10.7327744"><ele>187.0</ele><time>2026-05-01T10:34:39.027Z</time></trkpt><trkpt lat="43.4704336" lon="10.7329134"><ele>185.2</ele><time>2026-05-01T10:34:40.034Z</time></trkpt><trkpt lat="43.4704252" lon="10.7330583"><ele>183.39999999999998</ele><time>2026-05-01T10:34:41.02Z</time></trkpt><trkpt lat="43.4704179" lon="10.7332088"><ele>181.60000000000002</ele><time>2026-05-01T10:34:42.018Z</time></trkpt><trkpt lat="43.4704074" lon="10.7333667"><ele>179.8</ele><time>2026-05-01T10:34:43.033Z</time></trkpt><trkpt lat="43.4703896" lon="10.7335224"><ele>178.0</ele><time>2026-05-01T10:34:44.032Z</time></trkpt><trkpt lat="43.4703739" lon="10.7336628"><ele>178.0</ele><time>2026-05-01T10:34:45.031Z</time></trkpt><trkpt lat="43.4703571" lon="10.7337914"><ele>178.0</ele><time>2026-05-01T10:34:46.032Z</time></trkpt><trkpt lat="43.4703411" lon="10.7339107"><ele>178.0</ele><time>2026-05-01T10:34:47.021Z</time></trkpt><trkpt lat="43.4703313" lon="10.7340255"><ele>178.0</ele><time>2026-05-01T10:34:48.029Z</time></trkpt><trkpt lat="43.4703219" lon="10.7341407"><ele>178.0</ele><time>2026-05-01T10:34:49.032Z</time></trkpt><trkpt lat="43.4703246" lon="10.7342521"><ele>178.0</ele><time>2026-05-01T10:34:50.032Z</time></trkpt><trkpt lat="43.4703367" lon="10.7343585"><ele>178.0</ele><time>2026-05-01T10:34:51.029Z</time></trkpt><trkpt lat="43.4703566" lon="10.7344698"><ele>178.0</ele><time>2026-05-01T10:34:52.026Z</time></trkpt><trkpt lat="43.4703783" lon="10.7345891"><ele>178.0</ele><time>2026-05-01T10:34:53.038Z</time></trkpt><trkpt lat="43.4703987" lon="10.7347128"><ele>178.0</ele><time>2026-05-01T10:34:54.034Z</time></trkpt><trkpt lat="43.4704188" lon="10.7348498"><ele>178.0</ele><time>2026-05-01T10:34:55.029Z</time></trkpt><trkpt lat="43.4704214" lon="10.7349863"><ele>178.0</ele><time>2026-05-01T10:34:56.022Z</time></trkpt><trkpt lat="43.4703952" lon="10.7351294"><ele>178.0</ele><time>2026-05-01T10:34:57.038Z</time></trkpt><trkpt lat="43.4703673" lon="10.7352708"><ele>178.0</ele><time>2026-05-01T10:34:58.023Z</time></trkpt><trkpt lat="43.4703474" lon="10.7354093"><ele>178.0</ele><time>2026-05-01T10:34:59.02Z</time></trkpt><trkpt lat="43.470325" lon="10.7355519"><ele>178.0</ele><time>2026-05-01T10:35:00.025Z</time></trkpt><trkpt lat="43.470304" lon="10.7356852"><ele>175.33333333333334</ele><time>2026-05-01T10:35:01.022Z</time></trkpt><trkpt lat="43.4702847" lon="10.7357968"><ele>172.66666666666669</ele><time>2026-05-01T10:35:02.02Z</time></trkpt><trkpt lat="43.4702733" lon="10.7358846"><ele>170.0</ele><time>2026-05-01T10:35:03.031Z</time></trkpt><trkpt lat="43.4702492" lon="10.7359911"><ele>167.33333333333334</ele><time>2026-05-01T10:35:05.037Z</time></trkpt><trkpt lat="43.4702057" lon="10.7360593"><ele>164.66666666666666</ele><time>2026-05-01T10:35:08.038Z</time></trkpt><trkpt lat="43.4701457" lon="10.736166"><ele>162.0</ele><time>2026-05-01T10:35:11.027Z</time></trkpt><trkpt lat="43.4701004" lon="10.7362492"><ele>161.0</ele><time>2026-05-01T10:35:13.036Z</time></trkpt><trkpt lat="43.4700617" lon="10.7363258"><ele>160.0</ele><time>2026-05-01T10:35:15.024Z</time></trkpt><trkpt lat="43.4700271" lon="10.7364016"><ele>159.0</ele><time>2026-05-01T10:35:17.016Z</time></trkpt><trkpt lat="43.4699884" lon="10.7364806"><ele>158.0</ele><time>2026-05-01T10:35:19.029Z</time></trkpt><trkpt lat="43.4699564" lon="10.7365676"><ele>157.0</ele><time>2026-05-01T10:35:21.039Z</time></trkpt><trkpt lat="43.4699218" lon="10.7366627"><ele>156.0</ele><time>2026-05-01T10:35:23.029Z</time></trkpt><trkpt lat="43.4698806" lon="10.7367616"><ele>155.0</ele><time>2026-05-01T10:35:25.027Z</time></trkpt><trkpt lat="43.4698403" lon="10.7368611"><ele>153.8</ele><time>2026-05-01T10:35:27.027Z</time></trkpt><trkpt lat="43.4697991" lon="10.7369576"><ele>152.6</ele><time>2026-05-01T10:35:29.028Z</time></trkpt><trkpt lat="43.469754" lon="10.7370647"><ele>151.4</ele><time>2026-05-01T10:35:31.027Z</time></trkpt><trkpt lat="43.4696942" lon="10.7371712"><ele>150.2</ele><time>2026-05-01T10:35:33.02Z</time></trkpt><trkpt lat="43.469617" lon="10.7372959"><ele>149.0</ele><time>2026-05-01T10:35:35.023Z</time></trkpt><trkpt lat="43.4695443" lon="10.7374358"><ele>147.5</ele><time>2026-05-01T10:35:37.008Z</time></trkpt><trkpt lat="43.4695076" lon="10.7375123"><ele>146.0</ele><time>2026-05-01T10:35:38.023Z</time></trkpt><trkpt lat="43.4694764" lon="10.7375877"><ele>144.5</ele><time>2026-05-01T10:35:39.024Z</time></trkpt><trkpt lat="43.4694043" lon="10.737729"><ele>143.0</ele><time>2026-05-01T10:35:41.028Z</time></trkpt><trkpt lat="43.4693204" lon="10.7378508"><ele>141.5</ele><time>2026-05-01T10:35:43.014Z</time></trkpt><trkpt lat="43.4692699" lon="10.7379057"><ele>140.0</ele><time>2026-05-01T10:35:44.03Z</time></trkpt><trkpt lat="43.4692165" lon="10.7379581"><ele>140.0</ele><time>2026-05-01T10:35:45.025Z</time></trkpt><trkpt lat="43.4691521" lon="10.7380048"><ele>140.0</ele><time>2026-05-01T10:35:46.02Z</time></trkpt><trkpt lat="43.4690824" lon="10.7380381"><ele>140.0</ele><time>2026-05-01T10:35:47.031Z</time></trkpt><trkpt lat="43.4690098" lon="10.7380598"><ele>140.0</ele><time>2026-05-01T10:35:48.031Z</time></trkpt><trkpt lat="43.4689376" lon="10.7380669"><ele>140.0</ele><time>2026-05-01T10:35:49.029Z</time></trkpt><trkpt lat="43.4688651" lon="10.7380672"><ele>140.0</ele><time>2026-05-01T10:35:50.026Z</time></trkpt><trkpt lat="43.4687962" lon="10.7380704"><ele>140.0</ele><time>2026-05-01T10:35:51.031Z</time></trkpt><trkpt lat="43.4687012" lon="10.738082"><ele>139.57142857142858</ele><time>2026-05-01T10:35:53.029Z</time></trkpt><trkpt lat="43.4686225" lon="10.7380919"><ele>139.14285714285714</ele><time>2026-05-01T10:35:55.028Z</time></trkpt><trkpt lat="43.4685425" lon="10.7381177"><ele>138.71428571428572</ele><time>2026-05-01T10:35:57.027Z</time></trkpt><trkpt lat="43.4684662" lon="10.7381399"><ele>138.28571428571428</ele><time>2026-05-01T10:35:59.035Z</time></trkpt><trkpt lat="43.4684015" lon="10.7381394"><ele>137.85714285714286</ele><time>2026-05-01T10:36:02.038Z</time></trkpt><trkpt lat="43.4683247" lon="10.7381128"><ele>137.42857142857144</ele><time>2026-05-01T10:36:06.03Z</time></trkpt><trkpt lat="43.4682666" lon="10.7381525"><ele>137.0</ele><time>2026-05-01T10:36:10.026Z</time></trkpt><trkpt lat="43.4682737" lon="10.7382418"><ele>137.0</ele><time>2026-05-01T10:36:16.029Z</time></trkpt><trkpt lat="43.4683162" lon="10.7381774"><ele>137.0</ele><time>2026-05-01T10:36:20.024Z</time></trkpt><trkpt lat="43.4682947" lon="10.7380938"><ele>137.0</ele><time>2026-05-01T10:36:23.028Z</time></trkpt><trkpt lat="43.4682306" lon="10.7381265"><ele>137.0</ele><time>2026-05-01T10:37:42.008Z</time></trkpt><trkpt lat="43.4701392" lon="10.7363282"><ele>137.0</ele><time>2026-05-01T10:38:33.377Z</time></trkpt><trkpt lat="43.4682826" lon="10.7381933"><ele>137.0</ele><time>2026-05-01T10:40:25.016Z</time></trkpt><trkpt lat="43.4682219" lon="10.7381481"><ele>137.0</ele><time>2026-05-01T10:41:43.022Z</time></trkpt><trkpt lat="43.4701558" lon="10.7363756"><ele>137.0</ele><time>2026-05-01T10:46:12.196Z</time></trkpt><trkpt lat="43.4682723" lon="10.7381245"><ele>155.0</ele><time>2026-05-01T10:46:16.464Z</time></trkpt><trkpt lat="43.470143" lon="10.7363256"><ele>137.0</ele><time>2026-05-01T10:46:30.926Z</time></trkpt><trkpt lat="43.4682378" lon="10.7382053"><ele>155.0</ele><time>2026-05-01T11:00:50.992Z</time></trkpt><trkpt lat="43.4701424" lon="10.7364921"><ele>155.0</ele><time>2026-05-01T11:01:07.602Z</time></trkpt><trkpt lat="43.4701561" lon="10.7363291"><ele>155.0</ele><time>2026-05-01T11:01:14.325Z</time></trkpt><trkpt lat="43.470221" lon="10.7364014"><ele>155.0</ele><time>2026-05-01T11:03:58.793Z</time></trkpt><trkpt lat="43.4701489" lon="10.7364122"><ele>155.0</ele><time>2026-05-01T11:04:48.378Z</time></trkpt><trkpt lat="43.4682985" lon="10.7381804"><ele>152.42857142857144</ele><time>2026-05-01T11:09:35.945Z</time></trkpt><trkpt lat="43.4682453" lon="10.7381077"><ele>149.85714285714286</ele><time>2026-05-01T11:09:55.952Z</time></trkpt><trkpt lat="43.4682723" lon="10.7381945"><ele>147.28571428571428</ele><time>2026-05-01T11:10:47.953Z</time></trkpt><trkpt lat="43.4682901" lon="10.7382907"><ele>144.71428571428572</ele><time>2026-05-01T11:10:53.95Z</time></trkpt><trkpt lat="43.4682429" lon="10.738369"><ele>142.14285714285714</ele><time>2026-05-01T11:11:01.963Z</time></trkpt><trkpt lat="43.4682337" lon="10.7384923"><ele>139.57142857142858</ele><time>2026-05-01T11:11:34.948Z</time></trkpt><trkpt lat="43.4682322" lon="10.7385792"><ele>137.0</ele><time>2026-05-01T11:11:36.946Z</time></trkpt><trkpt lat="43.4682541" lon="10.7386945"><ele>136.33333333333331</ele><time>2026-05-01T11:11:39.971Z</time></trkpt><trkpt lat="43.4682951" lon="10.7388078"><ele>135.66666666666666</ele><time>2026-05-01T11:11:42.947Z</time></trkpt><trkpt lat="43.4683351" lon="10.7389139"><ele>135.0</ele><time>2026-05-01T11:11:44.952Z</time></trkpt><trkpt lat="43.4683977" lon="10.7390347"><ele>134.33333333333334</ele><time>2026-05-01T11:11:46.952Z</time></trkpt><trkpt lat="43.4684413" lon="10.7391129"><ele>133.66666666666669</ele><time>2026-05-01T11:11:47.958Z</time></trkpt><trkpt lat="43.4684782" lon="10.7392028"><ele>133.0</ele><time>2026-05-01T11:11:48.957Z</time></trkpt><trkpt lat="43.4685072" lon="10.7392954"><ele>132.66666666666669</ele><time>2026-05-01T11:11:49.963Z</time></trkpt><trkpt lat="43.4685251" lon="10.7393849"><ele>132.33333333333334</ele><time>2026-05-01T11:11:50.948Z</time></trkpt><trkpt lat="43.4685249" lon="10.7395501"><ele>132.0</ele><time>2026-05-01T11:11:52.953Z</time></trkpt><trkpt lat="43.4685143" lon="10.7397056"><ele>131.66666666666666</ele><time>2026-05-01T11:11:54.942Z</time></trkpt><trkpt lat="43.4685081" lon="10.7398024"><ele>131.33333333333331</ele><time>2026-05-01T11:11:55.951Z</time></trkpt><trkpt lat="43.4685009" lon="10.7399072"><ele>131.0</ele><time>2026-05-01T11:11:56.953Z</time></trkpt><trkpt lat="43.4684902" lon="10.7400184"><ele>131.0</ele><time>2026-05-01T11:11:57.963Z</time></trkpt><trkpt lat="43.46848" lon="10.7401281"><ele>131.0</ele><time>2026-05-01T11:11:58.953Z</time></trkpt><trkpt lat="43.4684695" lon="10.7402392"><ele>131.0</ele><time>2026-05-01T11:11:59.955Z</time></trkpt><trkpt lat="43.468457" lon="10.7403494"><ele>131.0</ele><time>2026-05-01T11:12:00.968Z</time></trkpt><trkpt lat="43.4684369" lon="10.7404671"><ele>131.0</ele><time>2026-05-01T11:12:01.962Z</time></trkpt><trkpt lat="43.4684091" lon="10.7405721"><ele>131.0</ele><time>2026-05-01T11:12:02.951Z</time></trkpt><trkpt lat="43.468372" lon="10.7406655"><ele>131.0</ele><time>2026-05-01T11:12:03.961Z</time></trkpt><trkpt lat="43.4683282" lon="10.7407477"><ele>131.0</ele><time>2026-05-01T11:12:04.941Z</time></trkpt><trkpt lat="43.4682748" lon="10.7408229"><ele>131.0</ele><time>2026-05-01T11:12:05.953Z</time></trkpt><trkpt lat="43.4682205" lon="10.7408978"><ele>131.0</ele><time>2026-05-01T11:12:06.956Z</time></trkpt><trkpt lat="43.4681658" lon="10.7409557"><ele>131.0</ele><time>2026-05-01T11:12:07.955Z</time></trkpt><trkpt lat="43.4681108" lon="10.7410197"><ele>131.0</ele><time>2026-05-01T11:12:08.958Z</time></trkpt><trkpt lat="43.4680581" lon="10.7410847"><ele>131.0</ele><time>2026-05-01T11:12:09.962Z</time></trkpt><trkpt lat="43.468009" lon="10.7411601"><ele>130.4</ele><time>2026-05-01T11:12:10.961Z</time></trkpt><trkpt lat="43.467959" lon="10.7412487"><ele>129.8</ele><time>2026-05-01T11:12:11.953Z</time></trkpt><trkpt lat="43.4679096" lon="10.7413529"><ele>129.20000000000002</ele><time>2026-05-01T11:12:12.959Z</time></trkpt><trkpt lat="43.467859" lon="10.74146"><ele>128.6</ele><time>2026-05-01T11:12:13.958Z</time></trkpt><trkpt lat="43.4678062" lon="10.7415881"><ele>128.0</ele><time>2026-05-01T11:12:14.951Z</time></trkpt><trkpt lat="43.4677566" lon="10.7417204"><ele>128.83333333333331</ele><time>2026-05-01T11:12:15.959Z</time></trkpt><trkpt lat="43.46771" lon="10.7418304"><ele>129.66666666666666</ele><time>2026-05-01T11:12:16.945Z</time></trkpt><trkpt lat="43.4676735" lon="10.7419312"><ele>130.5</ele><time>2026-05-01T11:12:17.951Z</time></trkpt><trkpt lat="43.4676433" lon="10.7420404"><ele>131.33333333333334</ele><time>2026-05-01T11:12:18.962Z</time></trkpt><trkpt lat="43.4676117" lon="10.7421562"><ele>132.16666666666669</ele><time>2026-05-01T11:12:19.953Z</time></trkpt><trkpt lat="43.4675733" lon="10.742273"><ele>133.0</ele><time>2026-05-01T11:12:20.958Z</time></trkpt><trkpt lat="43.467535" lon="10.742387"><ele>133.0</ele><time>2026-05-01T11:12:21.953Z</time></trkpt><trkpt lat="43.4674936" lon="10.7424887"><ele>133.0</ele><time>2026-05-01T11:12:22.952Z</time></trkpt><trkpt lat="43.4674537" lon="10.7425962"><ele>133.0</ele><time>2026-05-01T11:12:23.955Z</time></trkpt><trkpt lat="43.467419" lon="10.7427077"><ele>133.0</ele><time>2026-05-01T11:12:24.954Z</time></trkpt><trkpt lat="43.4673892" lon="10.7428224"><ele>133.0</ele><time>2026-05-01T11:12:25.953Z</time></trkpt><trkpt lat="43.4673654" lon="10.7429451"><ele>133.0</ele><time>2026-05-01T11:12:26.955Z</time></trkpt><trkpt lat="43.4673517" lon="10.7430835"><ele>133.5</ele><time>2026-05-01T11:12:27.965Z</time></trkpt><trkpt lat="43.4673408" lon="10.7432377"><ele>134.0</ele><time>2026-05-01T11:12:28.96Z</time></trkpt><trkpt lat="43.46732" lon="10.7434122"><ele>134.5</ele><time>2026-05-01T11:12:29.955Z</time></trkpt><trkpt lat="43.4672931" lon="10.7435978"><ele>135.0</ele><time>2026-05-01T11:12:30.957Z</time></trkpt><trkpt lat="43.4672691" lon="10.7437813"><ele>135.0</ele><time>2026-05-01T11:12:31.96Z</time></trkpt><trkpt lat="43.4672516" lon="10.7439198"><ele>135.0</ele><time>2026-05-01T11:12:32.948Z</time></trkpt><trkpt lat="43.4672456" lon="10.7440475"><ele>135.0</ele><time>2026-05-01T11:12:33.956Z</time></trkpt><trkpt lat="43.4672488" lon="10.7441688"><ele>135.0</ele><time>2026-05-01T11:12:34.937Z</time></trkpt><trkpt lat="43.4672843" lon="10.7442891"><ele>135.0</ele><time>2026-05-01T11:12:35.968Z</time></trkpt><trkpt lat="43.4673367" lon="10.7443819"><ele>136.25</ele><time>2026-05-01T11:12:36.961Z</time></trkpt><trkpt lat="43.46741" lon="10.7444688"><ele>137.5</ele><time>2026-05-01T11:12:37.947Z</time></trkpt><trkpt lat="43.4675099" lon="10.7445406"><ele>138.75</ele><time>2026-05-01T11:12:38.959Z</time></trkpt><trkpt lat="43.4676332" lon="10.744622"><ele>140.0</ele><time>2026-05-01T11:12:39.967Z</time></trkpt><trkpt lat="43.4677689" lon="10.7447217"><ele>140.0</ele><time>2026-05-01T11:12:40.951Z</time></trkpt><trkpt lat="43.4679006" lon="10.7448168"><ele>140.0</ele><time>2026-05-01T11:12:41.955Z</time></trkpt><trkpt lat="43.4680021" lon="10.7449123"><ele>140.0</ele><time>2026-05-01T11:12:42.957Z</time></trkpt><trkpt lat="43.4681042" lon="10.7450171"><ele>140.0</ele><time>2026-05-01T11:12:43.96Z</time></trkpt><trkpt lat="43.4681924" lon="10.7451194"><ele>138.75</ele><time>2026-05-01T11:12:44.96Z</time></trkpt><trkpt lat="43.468258" lon="10.745224"><ele>137.5</ele><time>2026-05-01T11:12:45.947Z</time></trkpt><trkpt lat="43.4683168" lon="10.7453582"><ele>136.25</ele><time>2026-05-01T11:12:46.966Z</time></trkpt><trkpt lat="43.4683774" lon="10.745515"><ele>135.0</ele><time>2026-05-01T11:12:47.954Z</time></trkpt><trkpt lat="43.4684318" lon="10.7456914"><ele>135.0</ele><time>2026-05-01T11:12:48.953Z</time></trkpt><trkpt lat="43.4684829" lon="10.7458839"><ele>135.0</ele><time>2026-05-01T11:12:49.957Z</time></trkpt><trkpt lat="43.468535" lon="10.7461004"><ele>135.0</ele><time>2026-05-01T11:12:50.957Z</time></trkpt><trkpt lat="43.4685827" lon="10.7463011"><ele>135.25</ele><time>2026-05-01T11:12:51.956Z</time></trkpt><trkpt lat="43.4686273" lon="10.7464613"><ele>135.5</ele><time>2026-05-01T11:12:52.953Z</time></trkpt><trkpt lat="43.4686792" lon="10.7466033"><ele>135.75</ele><time>2026-05-01T11:12:53.954Z</time></trkpt><trkpt lat="43.4687392" lon="10.7467392"><ele>136.0</ele><time>2026-05-01T11:12:54.955Z</time></trkpt><trkpt lat="43.4688143" lon="10.7468725"><ele>133.33333333333334</ele><time>2026-05-01T11:12:55.956Z</time></trkpt><trkpt lat="43.4689147" lon="10.7469958"><ele>130.66666666666666</ele><time>2026-05-01T11:12:56.963Z</time></trkpt><trkpt lat="43.4690457" lon="10.7471174"><ele>128.0</ele><time>2026-05-01T11:12:57.951Z</time></trkpt><trkpt lat="43.4692004" lon="10.7472498"><ele>128.0</ele><time>2026-05-01T11:12:58.952Z</time></trkpt><trkpt lat="43.4693383" lon="10.7473755"><ele>128.0</ele><time>2026-05-01T11:12:59.956Z</time></trkpt><trkpt lat="43.4694695" lon="10.7474867"><ele>128.0</ele><time>2026-05-01T11:13:00.957Z</time></trkpt><trkpt lat="43.4696001" lon="10.7476085"><ele>126.25</ele><time>2026-05-01T11:13:01.947Z</time></trkpt><trkpt lat="43.4697275" lon="10.747725"><ele>124.5</ele><time>2026-05-01T11:13:02.948Z</time></trkpt><trkpt lat="43.4698433" lon="10.747826"><ele>122.75</ele><time>2026-05-01T11:13:03.95Z</time></trkpt><trkpt lat="43.4699481" lon="10.7479021"><ele>121.0</ele><time>2026-05-01T11:13:04.954Z</time></trkpt><trkpt lat="43.4700482" lon="10.7479792"><ele>121.0</ele><time>2026-05-01T11:13:05.953Z</time></trkpt><trkpt lat="43.4701546" lon="10.7480505"><ele>121.0</ele><time>2026-05-01T11:13:06.952Z</time></trkpt><trkpt lat="43.4702707" lon="10.7481241"><ele>121.0</ele><time>2026-05-01T11:13:07.968Z</time></trkpt><trkpt lat="43.4704034" lon="10.7482059"><ele>121.0</ele><time>2026-05-01T11:13:08.945Z</time></trkpt><trkpt lat="43.4705323" lon="10.74828"><ele>121.25</ele><time>2026-05-01T11:13:09.966Z</time></trkpt><trkpt lat="43.4706454" lon="10.7483475"><ele>121.5</ele><time>2026-05-01T11:13:10.952Z</time></trkpt><trkpt lat="43.4707542" lon="10.7484052"><ele>121.75</ele><time>2026-05-01T11:13:11.965Z</time></trkpt><trkpt lat="43.4708663" lon="10.7484682"><ele>122.0</ele><time>2026-05-01T11:13:12.952Z</time></trkpt><trkpt lat="43.4709769" lon="10.7485355"><ele>121.75</ele><time>2026-05-01T11:13:13.942Z</time></trkpt><trkpt lat="43.4710833" lon="10.7486266"><ele>121.5</ele><time>2026-05-01T11:13:14.953Z</time></trkpt><trkpt lat="43.4711797" lon="10.7487194"><ele>121.25</ele><time>2026-05-01T11:13:15.948Z</time></trkpt><trkpt lat="43.4712588" lon="10.748832"><ele>121.0</ele><time>2026-05-01T11:13:16.952Z</time></trkpt><trkpt lat="43.4713334" lon="10.7489554"><ele>121.0</ele><time>2026-05-01T11:13:17.954Z</time></trkpt><trkpt lat="43.4713976" lon="10.7491065"><ele>121.0</ele><time>2026-05-01T11:13:18.951Z</time></trkpt><trkpt lat="43.4714743" lon="10.7492908"><ele>121.0</ele><time>2026-05-01T11:13:19.951Z</time></trkpt><trkpt lat="43.4715512" lon="10.7495226"><ele>121.66666666666667</ele><time>2026-05-01T11:13:20.958Z</time></trkpt><trkpt lat="43.4716455" lon="10.7497943"><ele>122.33333333333334</ele><time>2026-05-01T11:13:21.951Z</time></trkpt><trkpt lat="43.471734" lon="10.7500463"><ele>123.0</ele><time>2026-05-01T11:13:22.945Z</time></trkpt><trkpt lat="43.4718074" lon="10.7502557"><ele>123.0</ele><time>2026-05-01T11:13:23.957Z</time></trkpt><trkpt lat="43.4718716" lon="10.7504446"><ele>123.0</ele><time>2026-05-01T11:13:24.947Z</time></trkpt><trkpt lat="43.4719221" lon="10.7506129"><ele>123.0</ele><time>2026-05-01T11:13:25.963Z</time></trkpt><trkpt lat="43.471968" lon="10.7507848"><ele>123.0</ele><time>2026-05-01T11:13:26.955Z</time></trkpt><trkpt lat="43.4720053" lon="10.7509549"><ele>123.25</ele><time>2026-05-01T11:13:27.956Z</time></trkpt><trkpt lat="43.4720399" lon="10.7511257"><ele>123.5</ele><time>2026-05-01T11:13:28.948Z</time></trkpt><trkpt lat="43.4720765" lon="10.7512841"><ele>123.75</ele><time>2026-05-01T11:13:29.954Z</time></trkpt><trkpt lat="43.4721127" lon="10.7514191"><ele>124.0</ele><time>2026-05-01T11:13:30.958Z</time></trkpt><trkpt lat="43.4721489" lon="10.7515524"><ele>124.0</ele><time>2026-05-01T11:13:31.953Z</time></trkpt><trkpt lat="43.4721843" lon="10.751686"><ele>124.0</ele><time>2026-05-01T11:13:32.959Z</time></trkpt><trkpt lat="43.4722238" lon="10.7518179"><ele>124.0</ele><time>2026-05-01T11:13:33.961Z</time></trkpt><trkpt lat="43.4722673" lon="10.751952"><ele>124.0</ele><time>2026-05-01T11:13:34.957Z</time></trkpt><trkpt lat="43.472308" lon="10.7520921"><ele>124.0</ele><time>2026-05-01T11:13:35.95Z</time></trkpt><trkpt lat="43.4723443" lon="10.7522408"><ele>124.5</ele><time>2026-05-01T11:13:36.951Z</time></trkpt><trkpt lat="43.4723842" lon="10.7524144"><ele>125.0</ele><time>2026-05-01T11:13:37.947Z</time></trkpt><trkpt lat="43.4724251" lon="10.7525817"><ele>125.5</ele><time>2026-05-01T11:13:38.961Z</time></trkpt><trkpt lat="43.4724628" lon="10.7527257"><ele>126.0</ele><time>2026-05-01T11:13:39.958Z</time></trkpt><trkpt lat="43.472504" lon="10.7528622"><ele>126.0</ele><time>2026-05-01T11:13:40.96Z</time></trkpt><trkpt lat="43.4725403" lon="10.7529978"><ele>126.0</ele><time>2026-05-01T11:13:41.947Z</time></trkpt><trkpt lat="43.4725763" lon="10.7531443"><ele>126.0</ele><time>2026-05-01T11:13:42.959Z</time></trkpt><trkpt lat="43.4726176" lon="10.7532981"><ele>126.0</ele><time>2026-05-01T11:13:43.961Z</time></trkpt><trkpt lat="43.4726589" lon="10.753471"><ele>125.75</ele><time>2026-05-01T11:13:44.963Z</time></trkpt><trkpt lat="43.4727017" lon="10.7536292"><ele>125.5</ele><time>2026-05-01T11:13:45.954Z</time></trkpt><trkpt lat="43.4727451" lon="10.7537774"><ele>125.25</ele><time>2026-05-01T11:13:46.956Z</time></trkpt><trkpt lat="43.4727809" lon="10.7539214"><ele>125.0</ele><time>2026-05-01T11:13:47.954Z</time></trkpt><trkpt lat="43.4728246" lon="10.7540752"><ele>125.0</ele><time>2026-05-01T11:13:48.946Z</time></trkpt><trkpt lat="43.4728743" lon="10.754238"><ele>125.0</ele><time>2026-05-01T11:13:49.956Z</time></trkpt><trkpt lat="43.4729417" lon="10.7544263"><ele>125.0</ele><time>2026-05-01T11:13:50.948Z</time></trkpt><trkpt lat="43.473014" lon="10.7546104"><ele>125.0</ele><time>2026-05-01T11:13:51.954Z</time></trkpt><trkpt lat="43.4730867" lon="10.7547959"><ele>125.33333333333333</ele><time>2026-05-01T11:13:52.958Z</time></trkpt><trkpt lat="43.4731651" lon="10.7549801"><ele>125.66666666666666</ele><time>2026-05-01T11:13:53.944Z</time></trkpt><trkpt lat="43.4732442" lon="10.7551736"><ele>126.0</ele><time>2026-05-01T11:13:54.961Z</time></trkpt><trkpt lat="43.4733173" lon="10.7553813"><ele>126.0</ele><time>2026-05-01T11:13:55.958Z</time></trkpt><trkpt lat="43.4733823" lon="10.7555882"><ele>126.0</ele><time>2026-05-01T11:13:56.956Z</time></trkpt><trkpt lat="43.4734386" lon="10.7557705"><ele>126.0</ele><time>2026-05-01T11:13:57.955Z</time></trkpt><trkpt lat="43.4734996" lon="10.7559421"><ele>126.0</ele><time>2026-05-01T11:13:58.954Z</time></trkpt><trkpt lat="43.4735542" lon="10.7561044"><ele>126.0</ele><time>2026-05-01T11:13:59.945Z</time></trkpt><trkpt lat="43.473602" lon="10.7562638"><ele>126.0</ele><time>2026-05-01T11:14:00.951Z</time></trkpt><trkpt lat="43.4736484" lon="10.7563995"><ele>126.0</ele><time>2026-05-01T11:14:01.952Z</time></trkpt><trkpt lat="43.4736917" lon="10.7565176"><ele>126.0</ele><time>2026-05-01T11:14:02.95Z</time></trkpt><trkpt lat="43.4737308" lon="10.7566132"><ele>126.0</ele><time>2026-05-01T11:14:03.951Z</time></trkpt><trkpt lat="43.4737706" lon="10.7567037"><ele>125.83333333333333</ele><time>2026-05-01T11:14:04.948Z</time></trkpt><trkpt lat="43.4738127" lon="10.7567793"><ele>125.66666666666666</ele><time>2026-05-01T11:14:05.951Z</time></trkpt><trkpt lat="43.4738587" lon="10.7568616"><ele>125.5</ele><time>2026-05-01T11:14:06.949Z</time></trkpt><trkpt lat="43.473918" lon="10.7569522"><ele>125.33333333333333</ele><time>2026-05-01T11:14:07.949Z</time></trkpt><trkpt lat="43.4739859" lon="10.7570443"><ele>125.16666666666666</ele><time>2026-05-01T11:14:08.96Z</time></trkpt><trkpt lat="43.4740672" lon="10.7571376"><ele>125.0</ele><time>2026-05-01T11:14:09.958Z</time></trkpt><trkpt lat="43.4741551" lon="10.7572339"><ele>125.6</ele><time>2026-05-01T11:14:10.952Z</time></trkpt><trkpt lat="43.4742479" lon="10.7573314"><ele>126.2</ele><time>2026-05-01T11:14:11.954Z</time></trkpt><trkpt lat="43.4743375" lon="10.7574231"><ele>126.80000000000001</ele><time>2026-05-01T11:14:12.953Z</time></trkpt><trkpt lat="43.4744149" lon="10.7575055"><ele>127.4</ele><time>2026-05-01T11:14:13.957Z</time></trkpt><trkpt lat="43.4744887" lon="10.7575849"><ele>128.0</ele><time>2026-05-01T11:14:14.96Z</time></trkpt><trkpt lat="43.4745566" lon="10.7576577"><ele>126.83333333333333</ele><time>2026-05-01T11:14:15.953Z</time></trkpt><trkpt lat="43.4746336" lon="10.7577277"><ele>125.66666666666666</ele><time>2026-05-01T11:14:16.955Z</time></trkpt><trkpt lat="43.4747141" lon="10.7578065"><ele>124.5</ele><time>2026-05-01T11:14:17.945Z</time></trkpt><trkpt lat="43.4747884" lon="10.7578706"><ele>123.33333333333334</ele><time>2026-05-01T11:14:18.953Z</time></trkpt><trkpt lat="43.4748579" lon="10.7579354"><ele>122.16666666666667</ele><time>2026-05-01T11:14:19.952Z</time></trkpt><trkpt lat="43.4749197" lon="10.7579987"><ele>121.0</ele><time>2026-05-01T11:14:20.953Z</time></trkpt><trkpt lat="43.4749723" lon="10.7580713"><ele>121.0</ele><time>2026-05-01T11:14:21.957Z</time></trkpt><trkpt lat="43.475016" lon="10.7581546"><ele>120.99999999999999</ele><time>2026-05-01T11:14:22.943Z</time></trkpt><trkpt lat="43.4750555" lon="10.7582399"><ele>121.0</ele><time>2026-05-01T11:14:23.959Z</time></trkpt><trkpt lat="43.4750895" lon="10.7583286"><ele>121.0</ele><time>2026-05-01T11:14:24.945Z</time></trkpt><trkpt lat="43.4751137" lon="10.7584217"><ele>120.99999999999999</ele><time>2026-05-01T11:14:25.953Z</time></trkpt><trkpt lat="43.4751327" lon="10.7585134"><ele>121.0</ele><time>2026-05-01T11:14:26.959Z</time></trkpt><trkpt lat="43.4751532" lon="10.7586079"><ele>121.0</ele><time>2026-05-01T11:14:27.953Z</time></trkpt><trkpt lat="43.4751694" lon="10.7587042"><ele>120.00000000000001</ele><time>2026-05-01T11:14:28.952Z</time></trkpt><trkpt lat="43.4751826" lon="10.7588014"><ele>119.0</ele><time>2026-05-01T11:14:29.954Z</time></trkpt><trkpt lat="43.4751938" lon="10.7588952"><ele>118.0</ele><time>2026-05-01T11:14:30.949Z</time></trkpt><trkpt lat="43.4752056" lon="10.7590001"><ele>117.0</ele><time>2026-05-01T11:14:31.955Z</time></trkpt><trkpt lat="43.4752139" lon="10.7591096"><ele>116.00000000000001</ele><time>2026-05-01T11:14:32.952Z</time></trkpt><trkpt lat="43.475219" lon="10.7592361"><ele>115.0</ele><time>2026-05-01T11:14:33.956Z</time></trkpt><trkpt lat="43.4752263" lon="10.7593728"><ele>114.6</ele><time>2026-05-01T11:14:34.954Z</time></trkpt><trkpt lat="43.4752334" lon="10.7595109"><ele>114.2</ele><time>2026-05-01T11:14:35.952Z</time></trkpt><trkpt lat="43.4752386" lon="10.7596543"><ele>113.80000000000001</ele><time>2026-05-01T11:14:36.964Z</time></trkpt><trkpt lat="43.4752466" lon="10.759801"><ele>113.4</ele><time>2026-05-01T11:14:37.943Z</time></trkpt><trkpt lat="43.4752508" lon="10.7599327"><ele>113.0</ele><time>2026-05-01T11:14:38.949Z</time></trkpt><trkpt lat="43.4752552" lon="10.7600581"><ele>112.99999999999999</ele><time>2026-05-01T11:14:39.952Z</time></trkpt><trkpt lat="43.4752686" lon="10.7601733"><ele>113.0</ele><time>2026-05-01T11:14:40.953Z</time></trkpt><trkpt lat="43.4752746" lon="10.760286"><ele>113.0</ele><time>2026-05-01T11:14:41.963Z</time></trkpt><trkpt lat="43.4752743" lon="10.7604025"><ele>113.0</ele><time>2026-05-01T11:14:42.951Z</time></trkpt><trkpt lat="43.47527" lon="10.7605135"><ele>112.99999999999999</ele><time>2026-05-01T11:14:43.948Z</time></trkpt><trkpt lat="43.475253" lon="10.7606507"><ele>113.0</ele><time>2026-05-01T11:14:44.95Z</time></trkpt><trkpt lat="43.4752258" lon="10.7607728"><ele>111.80000000000001</ele><time>2026-05-01T11:14:45.95Z</time></trkpt><trkpt lat="43.4751845" lon="10.760902"><ele>110.60000000000001</ele><time>2026-05-01T11:14:46.963Z</time></trkpt><trkpt lat="43.4751276" lon="10.7610262"><ele>109.39999999999999</ele><time>2026-05-01T11:14:47.947Z</time></trkpt><trkpt lat="43.4750597" lon="10.7611366"><ele>108.19999999999999</ele><time>2026-05-01T11:14:48.951Z</time></trkpt><trkpt lat="43.4749749" lon="10.7612428"><ele>107.0</ele><time>2026-05-01T11:14:49.963Z</time></trkpt><trkpt lat="43.4748842" lon="10.7613341"><ele>105.6</ele><time>2026-05-01T11:14:50.947Z</time></trkpt><trkpt lat="43.4747945" lon="10.7614153"><ele>104.19999999999999</ele><time>2026-05-01T11:14:51.94Z</time></trkpt><trkpt lat="43.4746984" lon="10.7614934"><ele>102.8</ele><time>2026-05-01T11:14:52.952Z</time></trkpt><trkpt lat="43.4745995" lon="10.7615723"><ele>101.4</ele><time>2026-05-01T11:14:53.952Z</time></trkpt><trkpt lat="43.4745046" lon="10.7616605"><ele>100.0</ele><time>2026-05-01T11:14:54.953Z</time></trkpt><trkpt lat="43.4744054" lon="10.7617493"><ele>100.0</ele><time>2026-05-01T11:14:55.948Z</time></trkpt><trkpt lat="43.4743012" lon="10.7618246"><ele>100.0</ele><time>2026-05-01T11:14:56.952Z</time></trkpt><trkpt lat="43.4742011" lon="10.7619087"><ele>100.0</ele><time>2026-05-01T11:14:57.945Z</time></trkpt><trkpt lat="43.4740964" lon="10.7619933"><ele>100.0</ele><time>2026-05-01T11:14:58.945Z</time></trkpt><trkpt lat="43.4739955" lon="10.7620827"><ele>97.8</ele><time>2026-05-01T11:14:59.955Z</time></trkpt><trkpt lat="43.4739007" lon="10.7621632"><ele>95.6</ele><time>2026-05-01T11:15:00.953Z</time></trkpt><trkpt lat="43.4738083" lon="10.7622329"><ele>93.4</ele><time>2026-05-01T11:15:01.964Z</time></trkpt><trkpt lat="43.4737145" lon="10.7623008"><ele>91.2</ele><time>2026-05-01T11:15:02.949Z</time></trkpt><trkpt lat="43.4736203" lon="10.7623698"><ele>89.0</ele><time>2026-05-01T11:15:03.945Z</time></trkpt><trkpt lat="43.473525" lon="10.762439"><ele>89.0</ele><time>2026-05-01T11:15:04.949Z</time></trkpt><trkpt lat="43.4734291" lon="10.7625086"><ele>89.0</ele><time>2026-05-01T11:15:05.945Z</time></trkpt><trkpt lat="43.4733322" lon="10.7625791"><ele>89.0</ele><time>2026-05-01T11:15:06.95Z</time></trkpt><trkpt lat="43.4732439" lon="10.7626658"><ele>89.0</ele><time>2026-05-01T11:15:07.95Z</time></trkpt><trkpt lat="43.4731832" lon="10.7627621"><ele>89.0</ele><time>2026-05-01T11:15:08.954Z</time></trkpt><trkpt lat="43.4731033" lon="10.7629774"><ele>88.0</ele><time>2026-05-01T11:15:10.95Z</time></trkpt><trkpt lat="43.4730821" lon="10.7630805"><ele>87.0</ele><time>2026-05-01T11:15:11.945Z</time></trkpt><trkpt lat="43.4730646" lon="10.7631717"><ele>86.0</ele><time>2026-05-01T11:15:12.946Z</time></trkpt><trkpt lat="43.4730333" lon="10.7632484"><ele>85.0</ele><time>2026-05-01T11:15:18.963Z</time></trkpt><trkpt lat="43.472956" lon="10.7632978"><ele>84.0</ele><time>2026-05-01T11:15:22.956Z</time></trkpt><trkpt lat="43.4728592" lon="10.7632858"><ele>83.0</ele><time>2026-05-01T11:15:24.946Z</time></trkpt><trkpt lat="43.4727878" lon="10.7632711"><ele>82.60000000000001</ele><time>2026-05-01T11:15:25.935Z</time></trkpt><trkpt lat="43.4727046" lon="10.7632534"><ele>82.2</ele><time>2026-05-01T11:15:26.951Z</time></trkpt><trkpt lat="43.4726185" lon="10.7632427"><ele>81.8</ele><time>2026-05-01T11:15:27.945Z</time></trkpt><trkpt lat="43.47251" lon="10.7632279"><ele>81.4</ele><time>2026-05-01T11:15:28.959Z</time></trkpt><trkpt lat="43.4723931" lon="10.7631933"><ele>81.0</ele><time>2026-05-01T11:15:29.947Z</time></trkpt><trkpt lat="43.4722733" lon="10.7631376"><ele>81.0</ele><time>2026-05-01T11:15:30.952Z</time></trkpt><trkpt lat="43.472144" lon="10.763067"><ele>81.0</ele><time>2026-05-01T11:15:31.953Z</time></trkpt><trkpt lat="43.4720068" lon="10.7629882"><ele>81.0</ele><time>2026-05-01T11:15:32.949Z</time></trkpt><trkpt lat="43.4718636" lon="10.7629051"><ele>81.0</ele><time>2026-05-01T11:15:33.953Z</time></trkpt><trkpt lat="43.4717101" lon="10.7628178"><ele>80.66666666666667</ele><time>2026-05-01T11:15:34.951Z</time></trkpt><trkpt lat="43.4715294" lon="10.7627067"><ele>80.33333333333334</ele><time>2026-05-01T11:15:35.949Z</time></trkpt><trkpt lat="43.4713159" lon="10.7625751"><ele>80.0</ele><time>2026-05-01T11:15:36.943Z</time></trkpt><trkpt lat="43.4711072" lon="10.7624554"><ele>81.0</ele><time>2026-05-01T11:15:37.947Z</time></trkpt><trkpt lat="43.4709189" lon="10.7623443"><ele>82.0</ele><time>2026-05-01T11:15:38.956Z</time></trkpt><trkpt lat="43.470751" lon="10.7622434"><ele>83.0</ele><time>2026-05-01T11:15:39.959Z</time></trkpt><trkpt lat="43.4705934" lon="10.7621475"><ele>83.0</ele><time>2026-05-01T11:15:40.964Z</time></trkpt><trkpt lat="43.4704518" lon="10.7620608"><ele>83.0</ele><time>2026-05-01T11:15:41.945Z</time></trkpt><trkpt lat="43.4703303" lon="10.7619881"><ele>83.0</ele><time>2026-05-01T11:15:42.956Z</time></trkpt><trkpt lat="43.4702238" lon="10.7619351"><ele>83.0</ele><time>2026-05-01T11:15:43.952Z</time></trkpt><trkpt lat="43.4701372" lon="10.7618934"><ele>83.2</ele><time>2026-05-01T11:15:44.965Z</time></trkpt><trkpt lat="43.4700557" lon="10.7618498"><ele>83.4</ele><time>2026-05-01T11:15:45.945Z</time></trkpt><trkpt lat="43.4699787" lon="10.7618041"><ele>83.60000000000001</ele><time>2026-05-01T11:15:46.956Z</time></trkpt><trkpt lat="43.4698927" lon="10.7617601"><ele>83.80000000000001</ele><time>2026-05-01T11:15:47.963Z</time></trkpt><trkpt lat="43.4697915" lon="10.7617119"><ele>84.0</ele><time>2026-05-01T11:15:48.948Z</time></trkpt><trkpt lat="43.4696824" lon="10.7616546"><ele>84.0</ele><time>2026-05-01T11:15:49.951Z</time></trkpt><trkpt lat="43.4695708" lon="10.7616075"><ele>84.0</ele><time>2026-05-01T11:15:50.956Z</time></trkpt><trkpt lat="43.4694547" lon="10.7615695"><ele>84.0</ele><time>2026-05-01T11:15:51.953Z</time></trkpt><trkpt lat="43.4693373" lon="10.761531"><ele>84.0</ele><time>2026-05-01T11:15:52.943Z</time></trkpt><trkpt lat="43.4692209" lon="10.7614973"><ele>84.0</ele><time>2026-05-01T11:15:53.952Z</time></trkpt><trkpt lat="43.4691008" lon="10.7614631"><ele>84.0</ele><time>2026-05-01T11:15:54.946Z</time></trkpt><trkpt lat="43.4689865" lon="10.7614225"><ele>84.0</ele><time>2026-05-01T11:15:55.966Z</time></trkpt><trkpt lat="43.4688643" lon="10.7613771"><ele>84.0</ele><time>2026-05-01T11:15:56.956Z</time></trkpt><trkpt lat="43.4687392" lon="10.7613375"><ele>83.25</ele><time>2026-05-01T11:15:57.944Z</time></trkpt><trkpt lat="43.4686107" lon="10.7612966"><ele>82.5</ele><time>2026-05-01T11:15:58.952Z</time></trkpt><trkpt lat="43.4684684" lon="10.7612529"><ele>81.75</ele><time>2026-05-01T11:15:59.96Z</time></trkpt><trkpt lat="43.4683109" lon="10.7612005"><ele>81.0</ele><time>2026-05-01T11:16:00.948Z</time></trkpt><trkpt lat="43.4681602" lon="10.7611546"><ele>81.0</ele><time>2026-05-01T11:16:01.953Z</time></trkpt><trkpt lat="43.4680215" lon="10.76111"><ele>81.0</ele><time>2026-05-01T11:16:02.958Z</time></trkpt><trkpt lat="43.4678793" lon="10.7610686"><ele>81.0</ele><time>2026-05-01T11:16:03.954Z</time></trkpt><trkpt lat="43.4677355" lon="10.7610265"><ele>81.0</ele><time>2026-05-01T11:16:04.952Z</time></trkpt><trkpt lat="43.4675885" lon="10.760981"><ele>83.0</ele><time>2026-05-01T11:16:05.944Z</time></trkpt><trkpt lat="43.4674383" lon="10.7609376"><ele>85.0</ele><time>2026-05-01T11:16:06.966Z</time></trkpt><trkpt lat="43.467289" lon="10.7608938"><ele>87.0</ele><time>2026-05-01T11:16:07.95Z</time></trkpt><trkpt lat="43.4671386" lon="10.7608434"><ele>86.0</ele><time>2026-05-01T11:16:08.949Z</time></trkpt><trkpt lat="43.4669952" lon="10.7607981"><ele>85.0</ele><time>2026-05-01T11:16:09.948Z</time></trkpt><trkpt lat="43.4668506" lon="10.7607573"><ele>84.0</ele><time>2026-05-01T11:16:10.955Z</time></trkpt><trkpt lat="43.4667084" lon="10.7607126"><ele>83.0</ele><time>2026-05-01T11:16:11.944Z</time></trkpt><trkpt lat="43.4665692" lon="10.7606636"><ele>83.0</ele><time>2026-05-01T11:16:12.956Z</time></trkpt><trkpt lat="43.4664314" lon="10.7606157"><ele>83.0</ele><time>2026-05-01T11:16:13.951Z</time></trkpt><trkpt lat="43.466288" lon="10.7605736"><ele>83.0</ele><time>2026-05-01T11:16:14.964Z</time></trkpt><trkpt lat="43.466141" lon="10.7605316"><ele>83.0</ele><time>2026-05-01T11:16:15.952Z</time></trkpt><trkpt lat="43.4659919" lon="10.7604862"><ele>82.75</ele><time>2026-05-01T11:16:16.956Z</time></trkpt><trkpt lat="43.4658456" lon="10.7604496"><ele>82.5</ele><time>2026-05-01T11:16:17.952Z</time></trkpt><trkpt lat="43.4656992" lon="10.7604303"><ele>82.25</ele><time>2026-05-01T11:16:18.952Z</time></trkpt><trkpt lat="43.4655495" lon="10.7604282"><ele>82.0</ele><time>2026-05-01T11:16:19.947Z</time></trkpt><trkpt lat="43.4653989" lon="10.7604387"><ele>82.0</ele><time>2026-05-01T11:16:20.948Z</time></trkpt><trkpt lat="43.4652492" lon="10.7604523"><ele>82.0</ele><time>2026-05-01T11:16:21.945Z</time></trkpt><trkpt lat="43.4650974" lon="10.7604738"><ele>82.0</ele><time>2026-05-01T11:16:22.957Z</time></trkpt><trkpt lat="43.4649485" lon="10.7604928"><ele>82.0</ele><time>2026-05-01T11:16:23.948Z</time></trkpt><trkpt lat="43.4647973" lon="10.7605141"><ele>82.0</ele><time>2026-05-01T11:16:24.95Z</time></trkpt><trkpt lat="43.4646398" lon="10.7605357"><ele>82.0</ele><time>2026-05-01T11:16:25.949Z</time></trkpt><trkpt lat="43.4644848" lon="10.7605642"><ele>82.33333333333333</ele><time>2026-05-01T11:16:26.956Z</time></trkpt><trkpt lat="43.4643288" lon="10.7605878"><ele>82.66666666666667</ele><time>2026-05-01T11:16:27.955Z</time></trkpt><trkpt lat="43.4641708" lon="10.7606071"><ele>83.0</ele><time>2026-05-01T11:16:28.946Z</time></trkpt><trkpt lat="43.4640172" lon="10.7606172"><ele>83.0</ele><time>2026-05-01T11:16:29.937Z</time></trkpt><trkpt lat="43.463863" lon="10.7606135"><ele>83.0</ele><time>2026-05-01T11:16:30.944Z</time></trkpt><trkpt lat="43.4637121" lon="10.7606104"><ele>83.0</ele><time>2026-05-01T11:16:31.967Z</time></trkpt><trkpt lat="43.4635586" lon="10.7605909"><ele>84.0</ele><time>2026-05-01T11:16:32.954Z</time></trkpt><trkpt lat="43.4634007" lon="10.7605742"><ele>85.0</ele><time>2026-05-01T11:16:33.943Z</time></trkpt><trkpt lat="43.4632389" lon="10.7605617"><ele>86.0</ele><time>2026-05-01T11:16:34.947Z</time></trkpt><trkpt lat="43.4630815" lon="10.7605711"><ele>86.66666666666667</ele><time>2026-05-01T11:16:35.947Z</time></trkpt><trkpt lat="43.4629263" lon="10.7606059"><ele>87.33333333333333</ele><time>2026-05-01T11:16:36.947Z</time></trkpt><trkpt lat="43.4627699" lon="10.7606564"><ele>88.0</ele><time>2026-05-01T11:16:37.952Z</time></trkpt><trkpt lat="43.4626148" lon="10.7607078"><ele>88.0</ele><time>2026-05-01T11:16:38.954Z</time></trkpt><trkpt lat="43.4624574" lon="10.7607494"><ele>88.0</ele><time>2026-05-01T11:16:39.951Z</time></trkpt><trkpt lat="43.4623096" lon="10.7607759"><ele>88.0</ele><time>2026-05-01T11:16:40.951Z</time></trkpt><trkpt lat="43.4621682" lon="10.7607817"><ele>88.0</ele><time>2026-05-01T11:16:41.947Z</time></trkpt><trkpt lat="43.4620263" lon="10.7607624"><ele>88.0</ele><time>2026-05-01T11:16:42.948Z</time></trkpt><trkpt lat="43.4618868" lon="10.7607124"><ele>88.0</ele><time>2026-05-01T11:16:43.957Z</time></trkpt><trkpt lat="43.4617473" lon="10.7606331"><ele>88.0</ele><time>2026-05-01T11:16:44.946Z</time></trkpt><trkpt lat="43.4616022" lon="10.7605423"><ele>88.0</ele><time>2026-05-01T11:16:45.942Z</time></trkpt><trkpt lat="43.4614557" lon="10.7604359"><ele>88.0</ele><time>2026-05-01T11:16:46.955Z</time></trkpt><trkpt lat="43.461305" lon="10.7603306"><ele>88.0</ele><time>2026-05-01T11:16:47.949Z</time></trkpt><trkpt lat="43.4611541" lon="10.7602234"><ele>89.33333333333333</ele><time>2026-05-01T11:16:48.952Z</time></trkpt><trkpt lat="43.4610021" lon="10.7601211"><ele>90.66666666666667</ele><time>2026-05-01T11:16:49.944Z</time></trkpt><trkpt lat="43.4608511" lon="10.7600229"><ele>92.0</ele><time>2026-05-01T11:16:50.947Z</time></trkpt><trkpt lat="43.4606989" lon="10.7599254"><ele>92.0</ele><time>2026-05-01T11:16:51.947Z</time></trkpt><trkpt lat="43.4605609" lon="10.7598304"><ele>92.0</ele><time>2026-05-01T11:16:52.948Z</time></trkpt><trkpt lat="43.4604277" lon="10.7597416"><ele>92.0</ele><time>2026-05-01T11:16:53.948Z</time></trkpt><trkpt lat="43.4603081" lon="10.7596593"><ele>92.0</ele><time>2026-05-01T11:16:54.944Z</time></trkpt><trkpt lat="43.4601972" lon="10.7595816"><ele>91.19999999999999</ele><time>2026-05-01T11:16:55.957Z</time></trkpt><trkpt lat="43.4600965" lon="10.759516"><ele>90.4</ele><time>2026-05-01T11:16:56.947Z</time></trkpt><trkpt lat="43.4600012" lon="10.7594683"><ele>89.6</ele><time>2026-05-01T11:16:57.948Z</time></trkpt><trkpt lat="43.4599026" lon="10.7594478"><ele>88.80000000000001</ele><time>2026-05-01T11:16:58.945Z</time></trkpt><trkpt lat="43.4597915" lon="10.7594552"><ele>88.0</ele><time>2026-05-01T11:16:59.952Z</time></trkpt><trkpt lat="43.459685" lon="10.7594983"><ele>87.4</ele><time>2026-05-01T11:17:00.943Z</time></trkpt><trkpt lat="43.4595882" lon="10.759544"><ele>86.80000000000001</ele><time>2026-05-01T11:17:01.946Z</time></trkpt><trkpt lat="43.4595028" lon="10.7595972"><ele>86.2</ele><time>2026-05-01T11:17:02.95Z</time></trkpt><trkpt lat="43.4594238" lon="10.7596735"><ele>85.6</ele><time>2026-05-01T11:17:03.946Z</time></trkpt><trkpt lat="43.4593557" lon="10.7597758"><ele>85.0</ele><time>2026-05-01T11:17:04.954Z</time></trkpt><trkpt lat="43.4592866" lon="10.759906"><ele>85.0</ele><time>2026-05-01T11:17:05.966Z</time></trkpt><trkpt lat="43.4592224" lon="10.7600522"><ele>85.0</ele><time>2026-05-01T11:17:06.942Z</time></trkpt><trkpt lat="43.4591605" lon="10.7602179"><ele>85.0</ele><time>2026-05-01T11:17:07.946Z</time></trkpt><trkpt lat="43.4591002" lon="10.7603995"><ele>85.0</ele><time>2026-05-01T11:17:08.953Z</time></trkpt><trkpt lat="43.4590334" lon="10.7605899"><ele>85.0</ele><time>2026-05-01T11:17:09.942Z</time></trkpt><trkpt lat="43.4589641" lon="10.7607763"><ele>85.0</ele><time>2026-05-01T11:17:10.963Z</time></trkpt><trkpt lat="43.4588926" lon="10.7609707"><ele>85.0</ele><time>2026-05-01T11:17:11.938Z</time></trkpt><trkpt lat="43.4588263" lon="10.7611772"><ele>86.33333333333333</ele><time>2026-05-01T11:17:12.956Z</time></trkpt><trkpt lat="43.4587555" lon="10.761388"><ele>87.66666666666667</ele><time>2026-05-01T11:17:13.956Z</time></trkpt><trkpt lat="43.4586789" lon="10.7616003"><ele>89.0</ele><time>2026-05-01T11:17:14.952Z</time></trkpt><trkpt lat="43.4586003" lon="10.7618097"><ele>89.66666666666667</ele><time>2026-05-01T11:17:15.955Z</time></trkpt><trkpt lat="43.4585387" lon="10.7620128"><ele>90.33333333333333</ele><time>2026-05-01T11:17:16.95Z</time></trkpt><trkpt lat="43.4585074" lon="10.7622125"><ele>91.0</ele><time>2026-05-01T11:17:17.946Z</time></trkpt><trkpt lat="43.4585015" lon="10.7624178"><ele>91.0</ele><time>2026-05-01T11:17:18.954Z</time></trkpt><trkpt lat="43.4585036" lon="10.7626447"><ele>91.0</ele><time>2026-05-01T11:17:19.946Z</time></trkpt><trkpt lat="43.4585046" lon="10.7628608"><ele>91.0</ele><time>2026-05-01T11:17:20.946Z</time></trkpt><trkpt lat="43.4585026" lon="10.7630693"><ele>90.75</ele><time>2026-05-01T11:17:21.946Z</time></trkpt><trkpt lat="43.4584898" lon="10.7632721"><ele>90.5</ele><time>2026-05-01T11:17:22.955Z</time></trkpt><trkpt lat="43.4584523" lon="10.7634587"><ele>90.25</ele><time>2026-05-01T11:17:23.944Z</time></trkpt><trkpt lat="43.4583893" lon="10.763619"><ele>90.0</ele><time>2026-05-01T11:17:24.945Z</time></trkpt><trkpt lat="43.4582943" lon="10.7637667"><ele>89.0</ele><time>2026-05-01T11:17:25.941Z</time></trkpt><trkpt lat="43.4581707" lon="10.7639129"><ele>88.0</ele><time>2026-05-01T11:17:26.95Z</time></trkpt><trkpt lat="43.4580407" lon="10.7640532"><ele>87.0</ele><time>2026-05-01T11:17:27.956Z</time></trkpt><trkpt lat="43.457914" lon="10.7642014"><ele>87.66666666666667</ele><time>2026-05-01T11:17:28.96Z</time></trkpt><trkpt lat="43.4577834" lon="10.7643487"><ele>88.33333333333334</ele><time>2026-05-01T11:17:29.944Z</time></trkpt><trkpt lat="43.4576516" lon="10.764496"><ele>89.0</ele><time>2026-05-01T11:17:30.953Z</time></trkpt><trkpt lat="43.4575213" lon="10.7646491"><ele>89.0</ele><time>2026-05-01T11:17:31.949Z</time></trkpt><trkpt lat="43.45739" lon="10.7648046"><ele>89.0</ele><time>2026-05-01T11:17:32.953Z</time></trkpt><trkpt lat="43.4572564" lon="10.7649526"><ele>89.0</ele><time>2026-05-01T11:17:33.955Z</time></trkpt><trkpt lat="43.4571246" lon="10.7651063"><ele>89.33333333333334</ele><time>2026-05-01T11:17:34.953Z</time></trkpt><trkpt lat="43.4570005" lon="10.7652504"><ele>89.66666666666667</ele><time>2026-05-01T11:17:35.95Z</time></trkpt><trkpt lat="43.4568771" lon="10.7653935"><ele>90.0</ele><time>2026-05-01T11:17:36.958Z</time></trkpt><trkpt lat="43.4567528" lon="10.76554"><ele>90.0</ele><time>2026-05-01T11:17:37.956Z</time></trkpt><trkpt lat="43.456624" lon="10.7656858"><ele>90.0</ele><time>2026-05-01T11:17:38.942Z</time></trkpt><trkpt lat="43.4564983" lon="10.7658304"><ele>90.0</ele><time>2026-05-01T11:17:39.952Z</time></trkpt><trkpt lat="43.4563684" lon="10.7659782"><ele>90.66666666666667</ele><time>2026-05-01T11:17:40.948Z</time></trkpt><trkpt lat="43.4562326" lon="10.7661281"><ele>91.33333333333334</ele><time>2026-05-01T11:17:41.945Z</time></trkpt><trkpt lat="43.456096" lon="10.7662831"><ele>92.0</ele><time>2026-05-01T11:17:42.957Z</time></trkpt><trkpt lat="43.4559512" lon="10.7664388"><ele>92.0</ele><time>2026-05-01T11:17:43.955Z</time></trkpt><trkpt lat="43.4558143" lon="10.766593"><ele>92.0</ele><time>2026-05-01T11:17:44.955Z</time></trkpt><trkpt lat="43.4556768" lon="10.7667437"><ele>92.0</ele><time>2026-05-01T11:17:45.95Z</time></trkpt><trkpt lat="43.4555443" lon="10.7668915"><ele>93.0</ele><time>2026-05-01T11:17:46.946Z</time></trkpt><trkpt lat="43.4554136" lon="10.7670377"><ele>94.0</ele><time>2026-05-01T11:17:47.96Z</time></trkpt><trkpt lat="43.455283" lon="10.7671878"><ele>95.0</ele><time>2026-05-01T11:17:48.947Z</time></trkpt><trkpt lat="43.4551531" lon="10.7673395"><ele>95.0</ele><time>2026-05-01T11:17:49.956Z</time></trkpt><trkpt lat="43.4550227" lon="10.7674923"><ele>95.0</ele><time>2026-05-01T11:17:50.941Z</time></trkpt><trkpt lat="43.4548938" lon="10.7676417"><ele>95.0</ele><time>2026-05-01T11:17:51.96Z</time></trkpt><trkpt lat="43.4547615" lon="10.7677897"><ele>95.33333333333334</ele><time>2026-05-01T11:17:52.942Z</time></trkpt><trkpt lat="43.4546252" lon="10.7679264"><ele>95.66666666666667</ele><time>2026-05-01T11:17:53.953Z</time></trkpt><trkpt lat="43.4544798" lon="10.768053"><ele>96.0</ele><time>2026-05-01T11:17:54.957Z</time></trkpt><trkpt lat="43.4543225" lon="10.7681555"><ele>96.0</ele><time>2026-05-01T11:17:55.953Z</time></trkpt><trkpt lat="43.4541611" lon="10.7682581"><ele>96.0</ele><time>2026-05-01T11:17:56.952Z</time></trkpt><trkpt lat="43.4539927" lon="10.7683527"><ele>96.0</ele><time>2026-05-01T11:17:57.957Z</time></trkpt><trkpt lat="43.4538238" lon="10.7684457"><ele>96.33333333333334</ele><time>2026-05-01T11:17:58.945Z</time></trkpt><trkpt lat="43.4536529" lon="10.7685416"><ele>96.66666666666667</ele><time>2026-05-01T11:17:59.947Z</time></trkpt><trkpt lat="43.453478" lon="10.7686401"><ele>97.0</ele><time>2026-05-01T11:18:00.947Z</time></trkpt><trkpt lat="43.4533031" lon="10.7687453"><ele>97.0</ele><time>2026-05-01T11:18:01.957Z</time></trkpt><trkpt lat="43.4531242" lon="10.7688485"><ele>97.0</ele><time>2026-05-01T11:18:02.95Z</time></trkpt><trkpt lat="43.4529482" lon="10.7689468"><ele>97.0</ele><time>2026-05-01T11:18:03.946Z</time></trkpt><trkpt lat="43.4527697" lon="10.7690409"><ele>97.66666666666667</ele><time>2026-05-01T11:18:04.947Z</time></trkpt><trkpt lat="43.4526" lon="10.7691311"><ele>98.33333333333334</ele><time>2026-05-01T11:18:05.955Z</time></trkpt><trkpt lat="43.4524376" lon="10.7692257"><ele>99.0</ele><time>2026-05-01T11:18:06.949Z</time></trkpt><trkpt lat="43.4522784" lon="10.7693108"><ele>99.0</ele><time>2026-05-01T11:18:07.955Z</time></trkpt><trkpt lat="43.4521181" lon="10.7694018"><ele>99.0</ele><time>2026-05-01T11:18:08.963Z</time></trkpt><trkpt lat="43.4519617" lon="10.7694936"><ele>99.0</ele><time>2026-05-01T11:18:09.956Z</time></trkpt><trkpt lat="43.4518072" lon="10.7695827"><ele>99.0</ele><time>2026-05-01T11:18:10.942Z</time></trkpt><trkpt lat="43.4516526" lon="10.7696654"><ele>99.0</ele><time>2026-05-01T11:18:11.956Z</time></trkpt><trkpt lat="43.4515019" lon="10.7697448"><ele>99.0</ele><time>2026-05-01T11:18:12.948Z</time></trkpt><trkpt lat="43.4513506" lon="10.7698304"><ele>99.66666666666666</ele><time>2026-05-01T11:18:13.952Z</time></trkpt><trkpt lat="43.4512012" lon="10.7699147"><ele>100.33333333333333</ele><time>2026-05-01T11:18:14.948Z</time></trkpt><trkpt lat="43.4510511" lon="10.7699997"><ele>101.0</ele><time>2026-05-01T11:18:15.951Z</time></trkpt><trkpt lat="43.4509002" lon="10.7700894"><ele>101.0</ele><time>2026-05-01T11:18:16.953Z</time></trkpt><trkpt lat="43.4507431" lon="10.7701774"><ele>101.0</ele><time>2026-05-01T11:18:17.967Z</time></trkpt><trkpt lat="43.4505875" lon="10.7702639"><ele>101.0</ele><time>2026-05-01T11:18:18.955Z</time></trkpt><trkpt lat="43.4504335" lon="10.7703498"><ele>101.0</ele><time>2026-05-01T11:18:19.953Z</time></trkpt><trkpt lat="43.4502899" lon="10.7704319"><ele>101.0</ele><time>2026-05-01T11:18:20.949Z</time></trkpt><trkpt lat="43.4501592" lon="10.7705157"><ele>101.0</ele><time>2026-05-01T11:18:21.949Z</time></trkpt><trkpt lat="43.4500533" lon="10.7706262"><ele>101.0</ele><time>2026-05-01T11:18:22.96Z</time></trkpt><trkpt lat="43.449993" lon="10.7707837"><ele>101.0</ele><time>2026-05-01T11:18:23.945Z</time></trkpt><trkpt lat="43.4499564" lon="10.77097"><ele>101.0</ele><time>2026-05-01T11:18:24.952Z</time></trkpt><trkpt lat="43.4499515" lon="10.7711734"><ele>101.0</ele><time>2026-05-01T11:18:25.951Z</time></trkpt><trkpt lat="43.4499603" lon="10.7713813"><ele>101.0</ele><time>2026-05-01T11:18:26.949Z</time></trkpt><trkpt lat="43.4499738" lon="10.7715924"><ele>100.5</ele><time>2026-05-01T11:18:27.953Z</time></trkpt><trkpt lat="43.4499715" lon="10.7717875"><ele>100.0</ele><time>2026-05-01T11:18:28.945Z</time></trkpt><trkpt lat="43.4499497" lon="10.7719594"><ele>99.5</ele><time>2026-05-01T11:18:29.955Z</time></trkpt><trkpt lat="43.4499026" lon="10.7721182"><ele>99.0</ele><time>2026-05-01T11:18:30.95Z</time></trkpt><trkpt lat="43.4498213" lon="10.7722222"><ele>98.80000000000001</ele><time>2026-05-01T11:18:31.951Z</time></trkpt><trkpt lat="43.4497" lon="10.7722859"><ele>98.60000000000001</ele><time>2026-05-01T11:18:32.964Z</time></trkpt><trkpt lat="43.4495884" lon="10.7722976"><ele>98.4</ele><time>2026-05-01T11:18:33.959Z</time></trkpt><trkpt lat="43.4494828" lon="10.7722838"><ele>98.2</ele><time>2026-05-01T11:18:34.948Z</time></trkpt><trkpt lat="43.449384" lon="10.7722758"><ele>98.0</ele><time>2026-05-01T11:18:35.954Z</time></trkpt><trkpt lat="43.4492791" lon="10.7722616"><ele>99.0</ele><time>2026-05-01T11:18:36.946Z</time></trkpt><trkpt lat="43.4491668" lon="10.7722401"><ele>100.0</ele><time>2026-05-01T11:18:37.957Z</time></trkpt><trkpt lat="43.4490388" lon="10.7722116"><ele>101.0</ele><time>2026-05-01T11:18:38.94Z</time></trkpt><trkpt lat="43.4489046" lon="10.7721787"><ele>102.0</ele><time>2026-05-01T11:18:39.951Z</time></trkpt><trkpt lat="43.4487475" lon="10.7721583"><ele>104.33333333333334</ele><time>2026-05-01T11:18:40.952Z</time></trkpt><trkpt lat="43.4485906" lon="10.7721546"><ele>106.66666666666667</ele><time>2026-05-01T11:18:41.948Z</time></trkpt><trkpt lat="43.4484311" lon="10.772171"><ele>109.0</ele><time>2026-05-01T11:18:42.94Z</time></trkpt><trkpt lat="43.4482674" lon="10.7721946"><ele>109.0</ele><time>2026-05-01T11:18:43.95Z</time></trkpt><trkpt lat="43.4481001" lon="10.77223"><ele>109.0</ele><time>2026-05-01T11:18:44.951Z</time></trkpt><trkpt lat="43.4479244" lon="10.7722638"><ele>109.0</ele><time>2026-05-01T11:18:45.95Z</time></trkpt><trkpt lat="43.4477382" lon="10.7723027"><ele>109.0</ele><time>2026-05-01T11:18:46.959Z</time></trkpt><trkpt lat="43.4475376" lon="10.7723302"><ele>109.0</ele><time>2026-05-01T11:18:47.949Z</time></trkpt><trkpt lat="43.4473275" lon="10.7723589"><ele>109.0</ele><time>2026-05-01T11:18:48.952Z</time></trkpt><trkpt lat="43.4471221" lon="10.7723903"><ele>108.66666666666667</ele><time>2026-05-01T11:18:49.951Z</time></trkpt><trkpt lat="43.4469222" lon="10.7724246"><ele>108.33333333333334</ele><time>2026-05-01T11:18:50.957Z</time></trkpt><trkpt lat="43.4467324" lon="10.7724563"><ele>108.0</ele><time>2026-05-01T11:18:51.953Z</time></trkpt><trkpt lat="43.4465411" lon="10.7724881"><ele>108.0</ele><time>2026-05-01T11:18:52.953Z</time></trkpt><trkpt lat="43.4463485" lon="10.7725135"><ele>108.0</ele><time>2026-05-01T11:18:53.96Z</time></trkpt><trkpt lat="43.4461625" lon="10.7725366"><ele>108.0</ele><time>2026-05-01T11:18:54.946Z</time></trkpt><trkpt lat="43.4459903" lon="10.7725562"><ele>108.33333333333334</ele><time>2026-05-01T11:18:55.947Z</time></trkpt><trkpt lat="43.4458183" lon="10.7725717"><ele>108.66666666666667</ele><time>2026-05-01T11:18:56.955Z</time></trkpt><trkpt lat="43.4456469" lon="10.7725851"><ele>109.0</ele><time>2026-05-01T11:18:57.943Z</time></trkpt><trkpt lat="43.4454748" lon="10.7725955"><ele>109.66666666666667</ele><time>2026-05-01T11:18:58.949Z</time></trkpt><trkpt lat="43.4452965" lon="10.7726044"><ele>110.33333333333334</ele><time>2026-05-01T11:18:59.949Z</time></trkpt><trkpt lat="43.4451161" lon="10.7726174"><ele>111.0</ele><time>2026-05-01T11:19:00.955Z</time></trkpt><trkpt lat="43.4449362" lon="10.7726306"><ele>111.0</ele><time>2026-05-01T11:19:01.95Z</time></trkpt><trkpt lat="43.4447547" lon="10.7726478"><ele>111.0</ele><time>2026-05-01T11:19:02.962Z</time></trkpt><trkpt lat="43.4445727" lon="10.7726611"><ele>111.0</ele><time>2026-05-01T11:19:03.952Z</time></trkpt><trkpt lat="43.4443958" lon="10.7726759"><ele>109.66666666666666</ele><time>2026-05-01T11:19:04.959Z</time></trkpt><trkpt lat="43.4442189" lon="10.7726914"><ele>108.33333333333333</ele><time>2026-05-01T11:19:05.946Z</time></trkpt><trkpt lat="43.444042" lon="10.7727061"><ele>107.0</ele><time>2026-05-01T11:19:06.953Z</time></trkpt><trkpt lat="43.4438633" lon="10.772717"><ele>108.66666666666666</ele><time>2026-05-01T11:19:07.949Z</time></trkpt><trkpt lat="43.4436924" lon="10.7727231"><ele>110.33333333333334</ele><time>2026-05-01T11:19:08.95Z</time></trkpt><trkpt lat="43.4435331" lon="10.7727016"><ele>112.0</ele><time>2026-05-01T11:19:09.947Z</time></trkpt><trkpt lat="43.4433819" lon="10.7726586"><ele>112.66666666666667</ele><time>2026-05-01T11:19:10.955Z</time></trkpt><trkpt lat="43.4432295" lon="10.7725948"><ele>113.33333333333334</ele><time>2026-05-01T11:19:11.955Z</time></trkpt><trkpt lat="43.4430751" lon="10.7725279"><ele>114.0</ele><time>2026-05-01T11:19:12.946Z</time></trkpt><trkpt lat="43.4429283" lon="10.7724611"><ele>114.33333333333334</ele><time>2026-05-01T11:19:13.947Z</time></trkpt><trkpt lat="43.4427738" lon="10.7723987"><ele>114.66666666666667</ele><time>2026-05-01T11:19:14.953Z</time></trkpt><trkpt lat="43.4426172" lon="10.7723365"><ele>115.0</ele><time>2026-05-01T11:19:15.953Z</time></trkpt><trkpt lat="43.4424555" lon="10.7722742"><ele>115.0</ele><time>2026-05-01T11:19:16.96Z</time></trkpt><trkpt lat="43.4422961" lon="10.7722113"><ele>115.0</ele><time>2026-05-01T11:19:17.943Z</time></trkpt><trkpt lat="43.4421438" lon="10.7721457"><ele>115.0</ele><time>2026-05-01T11:19:18.943Z</time></trkpt><trkpt lat="43.4419908" lon="10.7720839"><ele>116.66666666666667</ele><time>2026-05-01T11:19:19.954Z</time></trkpt><trkpt lat="43.4418399" lon="10.7720204"><ele>118.33333333333334</ele><time>2026-05-01T11:19:20.949Z</time></trkpt><trkpt lat="43.4416872" lon="10.7719602"><ele>120.0</ele><time>2026-05-01T11:19:21.955Z</time></trkpt><trkpt lat="43.4415312" lon="10.771894"><ele>119.33333333333334</ele><time>2026-05-01T11:19:22.964Z</time></trkpt><trkpt lat="43.4413723" lon="10.7718324"><ele>118.66666666666667</ele><time>2026-05-01T11:19:23.956Z</time></trkpt><trkpt lat="43.4412142" lon="10.7717642"><ele>118.0</ele><time>2026-05-01T11:19:24.949Z</time></trkpt><trkpt lat="43.441049" lon="10.7716921"><ele>118.0</ele><time>2026-05-01T11:19:25.946Z</time></trkpt><trkpt lat="43.4408875" lon="10.7716226"><ele>118.0</ele><time>2026-05-01T11:19:26.96Z</time></trkpt><trkpt lat="43.4407253" lon="10.7715536"><ele>118.0</ele><time>2026-05-01T11:19:27.953Z</time></trkpt><trkpt lat="43.4405644" lon="10.7714806"><ele>120.66666666666667</ele><time>2026-05-01T11:19:28.954Z</time></trkpt><trkpt lat="43.4404103" lon="10.7713778"><ele>123.33333333333334</ele><time>2026-05-01T11:19:29.956Z</time></trkpt><trkpt lat="43.4402693" lon="10.7712425"><ele>126.0</ele><time>2026-05-01T11:19:30.954Z</time></trkpt><trkpt lat="43.4401409" lon="10.7710854"><ele>123.66666666666666</ele><time>2026-05-01T11:19:31.943Z</time></trkpt><trkpt lat="43.4400164" lon="10.7709053"><ele>121.33333333333333</ele><time>2026-05-01T11:19:32.944Z</time></trkpt><trkpt lat="43.4398879" lon="10.770732"><ele>119.0</ele><time>2026-05-01T11:19:33.953Z</time></trkpt><trkpt lat="43.4397596" lon="10.770556"><ele>119.66666666666666</ele><time>2026-05-01T11:19:34.949Z</time></trkpt><trkpt lat="43.4396325" lon="10.7703799"><ele>120.33333333333334</ele><time>2026-05-01T11:19:35.955Z</time></trkpt><trkpt lat="43.4395053" lon="10.7702091"><ele>121.0</ele><time>2026-05-01T11:19:36.944Z</time></trkpt><trkpt lat="43.4393752" lon="10.7700298"><ele>121.0</ele><time>2026-05-01T11:19:37.951Z</time></trkpt><trkpt lat="43.4392407" lon="10.7698521"><ele>121.0</ele><time>2026-05-01T11:19:38.934Z</time></trkpt><trkpt lat="43.4391066" lon="10.7696676"><ele>121.0</ele><time>2026-05-01T11:19:39.952Z</time></trkpt><trkpt lat="43.4389726" lon="10.7694865"><ele>121.66666666666667</ele><time>2026-05-01T11:19:40.936Z</time></trkpt><trkpt lat="43.4388342" lon="10.7693029"><ele>122.33333333333334</ele><time>2026-05-01T11:19:41.946Z</time></trkpt><trkpt lat="43.4386964" lon="10.7691173"><ele>123.0</ele><time>2026-05-01T11:19:42.953Z</time></trkpt><trkpt lat="43.4385586" lon="10.7689351"><ele>123.0</ele><time>2026-05-01T11:19:43.951Z</time></trkpt><trkpt lat="43.4384225" lon="10.7687525"><ele>123.0</ele><time>2026-05-01T11:19:44.952Z</time></trkpt><trkpt lat="43.4382853" lon="10.7685644"><ele>123.0</ele><time>2026-05-01T11:19:45.951Z</time></trkpt><trkpt lat="43.4381465" lon="10.7683796"><ele>123.66666666666666</ele><time>2026-05-01T11:19:46.955Z</time></trkpt><trkpt lat="43.4380062" lon="10.7682008"><ele>124.33333333333333</ele><time>2026-05-01T11:19:47.954Z</time></trkpt><trkpt lat="43.437865" lon="10.7680139"><ele>125.0</ele><time>2026-05-01T11:19:48.957Z</time></trkpt><trkpt lat="43.4377245" lon="10.7678265"><ele>124.66666666666666</ele><time>2026-05-01T11:19:49.952Z</time></trkpt><trkpt lat="43.4375813" lon="10.7676431"><ele>124.33333333333334</ele><time>2026-05-01T11:19:50.95Z</time></trkpt><trkpt lat="43.4374393" lon="10.7674563"><ele>124.0</ele><time>2026-05-01T11:19:51.944Z</time></trkpt><trkpt lat="43.437297" lon="10.7672696"><ele>124.0</ele><time>2026-05-01T11:19:52.961Z</time></trkpt><trkpt lat="43.4371613" lon="10.7670844"><ele>124.0</ele><time>2026-05-01T11:19:53.952Z</time></trkpt><trkpt lat="43.4370359" lon="10.7668895"><ele>124.0</ele><time>2026-05-01T11:19:54.95Z</time></trkpt><trkpt lat="43.43693" lon="10.766683"><ele>124.33333333333334</ele><time>2026-05-01T11:19:55.962Z</time></trkpt><trkpt lat="43.436833" lon="10.7664697"><ele>124.66666666666666</ele><time>2026-05-01T11:19:56.955Z</time></trkpt><trkpt lat="43.4367426" lon="10.7662377"><ele>125.0</ele><time>2026-05-01T11:19:57.949Z</time></trkpt><trkpt lat="43.4366536" lon="10.7660016"><ele>125.0</ele><time>2026-05-01T11:19:58.951Z</time></trkpt><trkpt lat="43.436565" lon="10.7657581"><ele>125.0</ele><time>2026-05-01T11:19:59.954Z</time></trkpt><trkpt lat="43.4364742" lon="10.7655123"><ele>125.0</ele><time>2026-05-01T11:20:00.954Z</time></trkpt><trkpt lat="43.4363797" lon="10.765269"><ele>127.66666666666666</ele><time>2026-05-01T11:20:01.953Z</time></trkpt><trkpt lat="43.436284" lon="10.7650313"><ele>130.33333333333334</ele><time>2026-05-01T11:20:02.947Z</time></trkpt><trkpt lat="43.4361901" lon="10.7648014"><ele>133.0</ele><time>2026-05-01T11:20:03.95Z</time></trkpt><trkpt lat="43.4361027" lon="10.7645685"><ele>132.33333333333334</ele><time>2026-05-01T11:20:04.943Z</time></trkpt><trkpt lat="43.4360169" lon="10.7643406"><ele>131.66666666666666</ele><time>2026-05-01T11:20:05.957Z</time></trkpt><trkpt lat="43.4359309" lon="10.7641064"><ele>131.0</ele><time>2026-05-01T11:20:06.947Z</time></trkpt><trkpt lat="43.43584" lon="10.7638748"><ele>131.0</ele><time>2026-05-01T11:20:07.95Z</time></trkpt><trkpt lat="43.4357513" lon="10.763647"><ele>131.0</ele><time>2026-05-01T11:20:08.954Z</time></trkpt><trkpt lat="43.435665" lon="10.7634242"><ele>131.0</ele><time>2026-05-01T11:20:09.95Z</time></trkpt><trkpt lat="43.4355764" lon="10.7632009"><ele>130.33333333333331</ele><time>2026-05-01T11:20:10.942Z</time></trkpt><trkpt lat="43.4354873" lon="10.7629693"><ele>129.66666666666666</ele><time>2026-05-01T11:20:11.95Z</time></trkpt><trkpt lat="43.4354001" lon="10.7627434"><ele>129.0</ele><time>2026-05-01T11:20:12.953Z</time></trkpt><trkpt lat="43.4353146" lon="10.7625244"><ele>130.33333333333334</ele><time>2026-05-01T11:20:13.959Z</time></trkpt><trkpt lat="43.4352297" lon="10.7623063"><ele>131.66666666666669</ele><time>2026-05-01T11:20:14.947Z</time></trkpt><trkpt lat="43.4351454" lon="10.7620943"><ele>133.0</ele><time>2026-05-01T11:20:15.954Z</time></trkpt><trkpt lat="43.4350635" lon="10.7618767"><ele>132.66666666666669</ele><time>2026-05-01T11:20:16.946Z</time></trkpt><trkpt lat="43.4349815" lon="10.7616576"><ele>132.33333333333334</ele><time>2026-05-01T11:20:17.962Z</time></trkpt><trkpt lat="43.4349016" lon="10.7614379"><ele>132.0</ele><time>2026-05-01T11:20:18.958Z</time></trkpt><trkpt lat="43.4348143" lon="10.7612147"><ele>131.66666666666666</ele><time>2026-05-01T11:20:19.95Z</time></trkpt><trkpt lat="43.434718" lon="10.7609973"><ele>131.33333333333331</ele><time>2026-05-01T11:20:20.963Z</time></trkpt><trkpt lat="43.4346017" lon="10.7608007"><ele>131.0</ele><time>2026-05-01T11:20:21.955Z</time></trkpt><trkpt lat="43.4344665" lon="10.7606241"><ele>132.0</ele><time>2026-05-01T11:20:22.956Z</time></trkpt><trkpt lat="43.4343208" lon="10.7604443"><ele>133.0</ele><time>2026-05-01T11:20:23.96Z</time></trkpt><trkpt lat="43.4341762" lon="10.760275"><ele>134.0</ele><time>2026-05-01T11:20:24.952Z</time></trkpt><trkpt lat="43.434043" lon="10.7601146"><ele>134.0</ele><time>2026-05-01T11:20:25.952Z</time></trkpt><trkpt lat="43.4339169" lon="10.7599559"><ele>134.0</ele><time>2026-05-01T11:20:26.948Z</time></trkpt><trkpt lat="43.433785" lon="10.7598117"><ele>134.0</ele><time>2026-05-01T11:20:27.956Z</time></trkpt><trkpt lat="43.4336383" lon="10.7596841"><ele>136.0</ele><time>2026-05-01T11:20:28.969Z</time></trkpt><trkpt lat="43.4334671" lon="10.7595947"><ele>138.0</ele><time>2026-05-01T11:20:29.944Z</time></trkpt><trkpt lat="43.4332938" lon="10.7595306"><ele>140.0</ele><time>2026-05-01T11:20:30.946Z</time></trkpt><trkpt lat="43.4331032" lon="10.7594596"><ele>139.33333333333331</ele><time>2026-05-01T11:20:31.95Z</time></trkpt><trkpt lat="43.4329107" lon="10.7593892"><ele>138.66666666666666</ele><time>2026-05-01T11:20:32.95Z</time></trkpt><trkpt lat="43.4327208" lon="10.7593323"><ele>138.0</ele><time>2026-05-01T11:20:33.949Z</time></trkpt><trkpt lat="43.4325419" lon="10.7592921"><ele>138.0</ele><time>2026-05-01T11:20:34.953Z</time></trkpt><trkpt lat="43.4323644" lon="10.7592759"><ele>138.0</ele><time>2026-05-01T11:20:35.96Z</time></trkpt><trkpt lat="43.4321907" lon="10.7592844"><ele>138.0</ele><time>2026-05-01T11:20:36.955Z</time></trkpt><trkpt lat="43.4320119" lon="10.7593158"><ele>139.66666666666666</ele><time>2026-05-01T11:20:37.955Z</time></trkpt><trkpt lat="43.4318257" lon="10.759364"><ele>141.33333333333331</ele><time>2026-05-01T11:20:38.945Z</time></trkpt><trkpt lat="43.431642" lon="10.7594225"><ele>143.0</ele><time>2026-05-01T11:20:39.951Z</time></trkpt><trkpt lat="43.431454" lon="10.7594821"><ele>145.0</ele><time>2026-05-01T11:20:40.953Z</time></trkpt><trkpt lat="43.4312653" lon="10.7595406"><ele>147.0</ele><time>2026-05-01T11:20:41.953Z</time></trkpt><trkpt lat="43.4310767" lon="10.7595974"><ele>149.0</ele><time>2026-05-01T11:20:42.95Z</time></trkpt><trkpt lat="43.4308897" lon="10.7596574"><ele>149.0</ele><time>2026-05-01T11:20:43.95Z</time></trkpt><trkpt lat="43.4307093" lon="10.7597167"><ele>149.0</ele><time>2026-05-01T11:20:44.946Z</time></trkpt><trkpt lat="43.4305313" lon="10.7597591"><ele>149.0</ele><time>2026-05-01T11:20:45.962Z</time></trkpt><trkpt lat="43.4303528" lon="10.7597694"><ele>148.33333333333331</ele><time>2026-05-01T11:20:46.943Z</time></trkpt><trkpt lat="43.4301865" lon="10.7597484"><ele>147.66666666666666</ele><time>2026-05-01T11:20:47.95Z</time></trkpt><trkpt lat="43.4300198" lon="10.7597012"><ele>147.0</ele><time>2026-05-01T11:20:48.949Z</time></trkpt><trkpt lat="43.4298585" lon="10.7596335"><ele>147.0</ele><time>2026-05-01T11:20:49.965Z</time></trkpt><trkpt lat="43.4296891" lon="10.7595629"><ele>147.0</ele><time>2026-05-01T11:20:50.945Z</time></trkpt><trkpt lat="43.4295139" lon="10.7595041"><ele>147.0</ele><time>2026-05-01T11:20:51.946Z</time></trkpt><trkpt lat="43.4293353" lon="10.7595004"><ele>148.66666666666666</ele><time>2026-05-01T11:20:52.964Z</time></trkpt><trkpt lat="43.4291707" lon="10.759551"><ele>150.33333333333331</ele><time>2026-05-01T11:20:53.946Z</time></trkpt><trkpt lat="43.4290066" lon="10.7596577"><ele>152.0</ele><time>2026-05-01T11:20:54.963Z</time></trkpt><trkpt lat="43.4288664" lon="10.7597988"><ele>154.0</ele><time>2026-05-01T11:20:55.944Z</time></trkpt><trkpt lat="43.4287308" lon="10.7599677"><ele>156.0</ele><time>2026-05-01T11:20:56.959Z</time></trkpt><trkpt lat="43.4285896" lon="10.7601135"><ele>158.0</ele><time>2026-05-01T11:20:57.95Z</time></trkpt><trkpt lat="43.4284399" lon="10.7602217"><ele>158.0</ele><time>2026-05-01T11:20:58.946Z</time></trkpt><trkpt lat="43.428288" lon="10.7602752"><ele>158.0</ele><time>2026-05-01T11:20:59.95Z</time></trkpt><trkpt lat="43.4281546" lon="10.7603247"><ele>158.0</ele><time>2026-05-01T11:21:00.943Z</time></trkpt><trkpt lat="43.4280408" lon="10.7604146"><ele>158.0</ele><time>2026-05-01T11:21:01.947Z</time></trkpt><trkpt lat="43.42795" lon="10.7605684"><ele>156.33333333333331</ele><time>2026-05-01T11:21:02.945Z</time></trkpt><trkpt lat="43.4278747" lon="10.7607556"><ele>154.66666666666666</ele><time>2026-05-01T11:21:03.956Z</time></trkpt><trkpt lat="43.4278039" lon="10.7609372"><ele>153.0</ele><time>2026-05-01T11:21:04.951Z</time></trkpt><trkpt lat="43.4277255" lon="10.7611157"><ele>153.0</ele><time>2026-05-01T11:21:05.955Z</time></trkpt><trkpt lat="43.4276475" lon="10.7612831"><ele>153.0</ele><time>2026-05-01T11:21:06.956Z</time></trkpt><trkpt lat="43.4275673" lon="10.7614416"><ele>153.0</ele><time>2026-05-01T11:21:07.95Z</time></trkpt><trkpt lat="43.4275062" lon="10.7616137"><ele>153.0</ele><time>2026-05-01T11:21:08.969Z</time></trkpt><trkpt lat="43.4274717" lon="10.7618045"><ele>153.25</ele><time>2026-05-01T11:21:09.953Z</time></trkpt><trkpt lat="43.427463" lon="10.761992"><ele>153.5</ele><time>2026-05-01T11:21:10.962Z</time></trkpt><trkpt lat="43.4274786" lon="10.7621789"><ele>153.75</ele><time>2026-05-01T11:21:11.96Z</time></trkpt><trkpt lat="43.427493" lon="10.7623718"><ele>154.0</ele><time>2026-05-01T11:21:12.956Z</time></trkpt><trkpt lat="43.4274787" lon="10.7625513"><ele>154.75</ele><time>2026-05-01T11:21:13.946Z</time></trkpt><trkpt lat="43.4274387" lon="10.762712"><ele>155.5</ele><time>2026-05-01T11:21:14.95Z</time></trkpt><trkpt lat="43.427355" lon="10.7628372"><ele>156.25</ele><time>2026-05-01T11:21:15.959Z</time></trkpt><trkpt lat="43.4272463" lon="10.7629095"><ele>157.0</ele><time>2026-05-01T11:21:16.951Z</time></trkpt><trkpt lat="43.427136" lon="10.762959"><ele>154.0</ele><time>2026-05-01T11:21:17.947Z</time></trkpt><trkpt lat="43.4270258" lon="10.7630096"><ele>151.0</ele><time>2026-05-01T11:21:18.967Z</time></trkpt><trkpt lat="43.4269109" lon="10.763073"><ele>148.0</ele><time>2026-05-01T11:21:19.955Z</time></trkpt><trkpt lat="43.4268003" lon="10.7631644"><ele>145.0</ele><time>2026-05-01T11:21:20.941Z</time></trkpt><trkpt lat="43.4267154" lon="10.7632835"><ele>145.0</ele><time>2026-05-01T11:21:21.952Z</time></trkpt><trkpt lat="43.4266718" lon="10.763462"><ele>145.0</ele><time>2026-05-01T11:21:22.938Z</time></trkpt><trkpt lat="43.4266437" lon="10.7636496"><ele>145.0</ele><time>2026-05-01T11:21:23.943Z</time></trkpt><trkpt lat="43.4266132" lon="10.7638326"><ele>145.0</ele><time>2026-05-01T11:21:24.941Z</time></trkpt><trkpt lat="43.4265661" lon="10.764008"><ele>145.75</ele><time>2026-05-01T11:21:25.943Z</time></trkpt><trkpt lat="43.426482" lon="10.7641336"><ele>146.5</ele><time>2026-05-01T11:21:26.96Z</time></trkpt><trkpt lat="43.4263762" lon="10.7642084"><ele>147.25</ele><time>2026-05-01T11:21:27.949Z</time></trkpt><trkpt lat="43.426277" lon="10.7642787"><ele>148.0</ele><time>2026-05-01T11:21:28.952Z</time></trkpt><trkpt lat="43.4262087" lon="10.7644023"><ele>145.0</ele><time>2026-05-01T11:21:29.955Z</time></trkpt><trkpt lat="43.426157" lon="10.7645514"><ele>142.0</ele><time>2026-05-01T11:21:30.954Z</time></trkpt><trkpt lat="43.4261295" lon="10.7647211"><ele>139.0</ele><time>2026-05-01T11:21:31.945Z</time></trkpt><trkpt lat="43.4261289" lon="10.7649039"><ele>136.0</ele><time>2026-05-01T11:21:32.961Z</time></trkpt><trkpt lat="43.4261328" lon="10.7650844"><ele>136.0</ele><time>2026-05-01T11:21:33.942Z</time></trkpt><trkpt lat="43.4261137" lon="10.7652645"><ele>136.0</ele><time>2026-05-01T11:21:34.954Z</time></trkpt><trkpt lat="43.4260623" lon="10.765437"><ele>136.0</ele><time>2026-05-01T11:21:35.954Z</time></trkpt><trkpt lat="43.4259852" lon="10.7655765"><ele>136.0</ele><time>2026-05-01T11:21:36.95Z</time></trkpt><trkpt lat="43.4258798" lon="10.7656991"><ele>136.0</ele><time>2026-05-01T11:21:37.96Z</time></trkpt><trkpt lat="43.4257716" lon="10.7658299"><ele>136.0</ele><time>2026-05-01T11:21:38.95Z</time></trkpt><trkpt lat="43.425682" lon="10.7659904"><ele>136.0</ele><time>2026-05-01T11:21:39.954Z</time></trkpt><trkpt lat="43.4256123" lon="10.7661695"><ele>136.0</ele><time>2026-05-01T11:21:40.948Z</time></trkpt><trkpt lat="43.4255395" lon="10.7663599"><ele>133.66666666666669</ele><time>2026-05-01T11:21:41.955Z</time></trkpt><trkpt lat="43.4254673" lon="10.7665502"><ele>131.33333333333334</ele><time>2026-05-01T11:21:42.959Z</time></trkpt><trkpt lat="43.4253892" lon="10.7667442"><ele>129.0</ele><time>2026-05-01T11:21:43.949Z</time></trkpt><trkpt lat="43.4253103" lon="10.7669466"><ele>129.0</ele><time>2026-05-01T11:21:44.95Z</time></trkpt><trkpt lat="43.4252273" lon="10.7671473"><ele>129.0</ele><time>2026-05-01T11:21:45.951Z</time></trkpt><trkpt lat="43.4251473" lon="10.7673556"><ele>129.0</ele><time>2026-05-01T11:21:46.948Z</time></trkpt><trkpt lat="43.4250613" lon="10.7675631"><ele>127.66666666666666</ele><time>2026-05-01T11:21:47.939Z</time></trkpt><trkpt lat="43.4249646" lon="10.7677438"><ele>126.33333333333333</ele><time>2026-05-01T11:21:48.939Z</time></trkpt><trkpt lat="43.4248513" lon="10.7678935"><ele>125.0</ele><time>2026-05-01T11:21:49.951Z</time></trkpt><trkpt lat="43.4247372" lon="10.7680171"><ele>125.0</ele><time>2026-05-01T11:21:50.951Z</time></trkpt><trkpt lat="43.4246253" lon="10.7681255"><ele>125.0</ele><time>2026-05-01T11:21:51.949Z</time></trkpt><trkpt lat="43.4245199" lon="10.7682414"><ele>125.0</ele><time>2026-05-01T11:21:52.955Z</time></trkpt><trkpt lat="43.4244313" lon="10.7683592"><ele>125.0</ele><time>2026-05-01T11:21:53.952Z</time></trkpt><trkpt lat="43.4243544" lon="10.7684709"><ele>124.2</ele><time>2026-05-01T11:21:54.946Z</time></trkpt><trkpt lat="43.4242778" lon="10.7685845"><ele>123.4</ele><time>2026-05-01T11:21:55.947Z</time></trkpt><trkpt lat="43.4242047" lon="10.7686918"><ele>122.6</ele><time>2026-05-01T11:21:56.947Z</time></trkpt><trkpt lat="43.4241292" lon="10.7687967"><ele>121.8</ele><time>2026-05-01T11:21:57.949Z</time></trkpt><trkpt lat="43.424052" lon="10.7689073"><ele>121.0</ele><time>2026-05-01T11:21:58.95Z</time></trkpt><trkpt lat="43.4239803" lon="10.7690129"><ele>121.0</ele><time>2026-05-01T11:21:59.952Z</time></trkpt><trkpt lat="43.4239296" lon="10.7691174"><ele>121.0</ele><time>2026-05-01T11:22:00.947Z</time></trkpt><trkpt lat="43.4239121" lon="10.7692396"><ele>121.0</ele><time>2026-05-01T11:22:01.948Z</time></trkpt><trkpt lat="43.4239353" lon="10.7693751"><ele>121.0</ele><time>2026-05-01T11:22:02.951Z</time></trkpt><trkpt lat="43.4239879" lon="10.7695166"><ele>121.0</ele><time>2026-05-01T11:22:03.951Z</time></trkpt><trkpt lat="43.4240556" lon="10.7696717"><ele>121.5</ele><time>2026-05-01T11:22:04.945Z</time></trkpt><trkpt lat="43.424134" lon="10.7698257"><ele>122.0</ele><time>2026-05-01T11:22:05.955Z</time></trkpt><trkpt lat="43.4242092" lon="10.7699983"><ele>122.5</ele><time>2026-05-01T11:22:06.953Z</time></trkpt><trkpt lat="43.4242723" lon="10.7701871"><ele>123.0</ele><time>2026-05-01T11:22:07.953Z</time></trkpt><trkpt lat="43.4243031" lon="10.7703781"><ele>124.0</ele><time>2026-05-01T11:22:08.952Z</time></trkpt><trkpt lat="43.424291" lon="10.7705571"><ele>125.0</ele><time>2026-05-01T11:22:09.942Z</time></trkpt><trkpt lat="43.4242361" lon="10.7707132"><ele>126.0</ele><time>2026-05-01T11:22:10.96Z</time></trkpt><trkpt lat="43.4241611" lon="10.7708628"><ele>127.0</ele><time>2026-05-01T11:22:11.953Z</time></trkpt><trkpt lat="43.4240829" lon="10.7710149"><ele>126.33333333333334</ele><time>2026-05-01T11:22:12.952Z</time></trkpt><trkpt lat="43.4239905" lon="10.7711738"><ele>125.66666666666666</ele><time>2026-05-01T11:22:13.949Z</time></trkpt><trkpt lat="43.4238941" lon="10.7713393"><ele>125.0</ele><time>2026-05-01T11:22:14.967Z</time></trkpt><trkpt lat="43.4237831" lon="10.7714912"><ele>124.75</ele><time>2026-05-01T11:22:15.962Z</time></trkpt><trkpt lat="43.4236583" lon="10.7716309"><ele>124.5</ele><time>2026-05-01T11:22:16.946Z</time></trkpt><trkpt lat="43.4235344" lon="10.7717259"><ele>124.25</ele><time>2026-05-01T11:22:17.958Z</time></trkpt><trkpt lat="43.4234226" lon="10.771808"><ele>124.0</ele><time>2026-05-01T11:22:18.956Z</time></trkpt><trkpt lat="43.423335" lon="10.7719102"><ele>124.0</ele><time>2026-05-01T11:22:19.948Z</time></trkpt><trkpt lat="43.4232761" lon="10.772031"><ele>124.0</ele><time>2026-05-01T11:22:20.966Z</time></trkpt><trkpt lat="43.4232505" lon="10.7721717"><ele>124.0</ele><time>2026-05-01T11:22:21.957Z</time></trkpt><trkpt lat="43.4232558" lon="10.7723166"><ele>124.0</ele><time>2026-05-01T11:22:22.951Z</time></trkpt><trkpt lat="43.4232882" lon="10.77248"><ele>124.0</ele><time>2026-05-01T11:22:23.947Z</time></trkpt><trkpt lat="43.4233016" lon="10.7726491"><ele>124.0</ele><time>2026-05-01T11:22:24.958Z</time></trkpt><trkpt lat="43.4232734" lon="10.7728019"><ele>124.0</ele><time>2026-05-01T11:22:25.948Z</time></trkpt><trkpt lat="43.4232035" lon="10.7729471"><ele>124.0</ele><time>2026-05-01T11:22:26.954Z</time></trkpt><trkpt lat="43.423108" lon="10.773088"><ele>124.0</ele><time>2026-05-01T11:22:27.948Z</time></trkpt><trkpt lat="43.422994" lon="10.773221"><ele>124.0</ele><time>2026-05-01T11:22:28.955Z</time></trkpt><trkpt lat="43.4228756" lon="10.7733539"><ele>124.0</ele><time>2026-05-01T11:22:29.954Z</time></trkpt><trkpt lat="43.4227528" lon="10.7734845"><ele>124.0</ele><time>2026-05-01T11:22:30.957Z</time></trkpt><trkpt lat="43.4226347" lon="10.7736168"><ele>124.4</ele><time>2026-05-01T11:22:31.941Z</time></trkpt><trkpt lat="43.4225208" lon="10.7737446"><ele>124.80000000000001</ele><time>2026-05-01T11:22:32.949Z</time></trkpt><trkpt lat="43.4224277" lon="10.7738583"><ele>125.19999999999999</ele><time>2026-05-01T11:22:33.956Z</time></trkpt><trkpt lat="43.4223549" lon="10.773936"><ele>125.6</ele><time>2026-05-01T11:22:34.947Z</time></trkpt><trkpt lat="43.4222983" lon="10.773983"><ele>126.0</ele><time>2026-05-01T11:22:35.949Z</time></trkpt><trkpt lat="43.4221864" lon="10.774053"><ele>126.6</ele><time>2026-05-01T11:22:37.961Z</time></trkpt><trkpt lat="43.4220637" lon="10.7740767"><ele>127.19999999999999</ele><time>2026-05-01T11:22:39.941Z</time></trkpt><trkpt lat="43.4219924" lon="10.7740793"><ele>127.80000000000001</ele><time>2026-05-01T11:22:40.947Z</time></trkpt><trkpt lat="43.4219139" lon="10.7740689"><ele>128.4</ele><time>2026-05-01T11:22:41.949Z</time></trkpt><trkpt lat="43.4218301" lon="10.7740537"><ele>129.0</ele><time>2026-05-01T11:22:42.949Z</time></trkpt><trkpt lat="43.4217282" lon="10.7740377"><ele>129.0</ele><time>2026-05-01T11:22:43.957Z</time></trkpt><trkpt lat="43.4216176" lon="10.7740252"><ele>129.0</ele><time>2026-05-01T11:22:44.954Z</time></trkpt><trkpt lat="43.4214954" lon="10.7740013"><ele>129.0</ele><time>2026-05-01T11:22:45.951Z</time></trkpt><trkpt lat="43.4213656" lon="10.7739756"><ele>129.0</ele><time>2026-05-01T11:22:46.948Z</time></trkpt><trkpt lat="43.4212375" lon="10.7739489"><ele>129.5</ele><time>2026-05-01T11:22:47.944Z</time></trkpt><trkpt lat="43.421105" lon="10.7739216"><ele>130.0</ele><time>2026-05-01T11:22:48.956Z</time></trkpt><trkpt lat="43.4209597" lon="10.77389"><ele>130.5</ele><time>2026-05-01T11:22:49.95Z</time></trkpt><trkpt lat="43.420806" lon="10.7738542"><ele>131.0</ele><time>2026-05-01T11:22:50.946Z</time></trkpt><trkpt lat="43.4206469" lon="10.7738077"><ele>130.33333333333331</ele><time>2026-05-01T11:22:51.95Z</time></trkpt><trkpt lat="43.4204771" lon="10.7737595"><ele>129.66666666666666</ele><time>2026-05-01T11:22:52.946Z</time></trkpt><trkpt lat="43.4202968" lon="10.773706"><ele>129.0</ele><time>2026-05-01T11:22:53.945Z</time></trkpt><trkpt lat="43.4201069" lon="10.7736446"><ele>129.0</ele><time>2026-05-01T11:22:54.945Z</time></trkpt><trkpt lat="43.4198989" lon="10.7735764"><ele>129.0</ele><time>2026-05-01T11:22:55.946Z</time></trkpt><trkpt lat="43.4196864" lon="10.7735064"><ele>129.0</ele><time>2026-05-01T11:22:56.963Z</time></trkpt><trkpt lat="43.4194722" lon="10.7734438"><ele>128.66666666666666</ele><time>2026-05-01T11:22:57.953Z</time></trkpt><trkpt lat="43.4192612" lon="10.7733817"><ele>128.33333333333331</ele><time>2026-05-01T11:22:58.949Z</time></trkpt><trkpt lat="43.4190589" lon="10.7733233"><ele>128.0</ele><time>2026-05-01T11:22:59.952Z</time></trkpt><trkpt lat="43.418875" lon="10.7732678"><ele>128.66666666666666</ele><time>2026-05-01T11:23:00.952Z</time></trkpt><trkpt lat="43.4186963" lon="10.7732185"><ele>129.33333333333334</ele><time>2026-05-01T11:23:01.952Z</time></trkpt><trkpt lat="43.4185339" lon="10.773169"><ele>130.0</ele><time>2026-05-01T11:23:02.949Z</time></trkpt><trkpt lat="43.4183815" lon="10.773119"><ele>130.0</ele><time>2026-05-01T11:23:03.956Z</time></trkpt><trkpt lat="43.4182326" lon="10.7730716"><ele>130.0</ele><time>2026-05-01T11:23:04.95Z</time></trkpt><trkpt lat="43.4180813" lon="10.7730213"><ele>130.0</ele><time>2026-05-01T11:23:05.951Z</time></trkpt><trkpt lat="43.4179343" lon="10.7729763"><ele>130.25</ele><time>2026-05-01T11:23:06.955Z</time></trkpt><trkpt lat="43.4177924" lon="10.7729291"><ele>130.5</ele><time>2026-05-01T11:23:07.956Z</time></trkpt><trkpt lat="43.4176534" lon="10.7728875"><ele>130.75</ele><time>2026-05-01T11:23:08.949Z</time></trkpt><trkpt lat="43.41752" lon="10.7728487"><ele>131.0</ele><time>2026-05-01T11:23:09.954Z</time></trkpt><trkpt lat="43.4173917" lon="10.7728071"><ele>131.0</ele><time>2026-05-01T11:23:10.961Z</time></trkpt><trkpt lat="43.4172732" lon="10.7727684"><ele>131.0</ele><time>2026-05-01T11:23:11.95Z</time></trkpt><trkpt lat="43.4171626" lon="10.7727365"><ele>131.0</ele><time>2026-05-01T11:23:12.958Z</time></trkpt><trkpt lat="43.4170536" lon="10.772722"><ele>131.0</ele><time>2026-05-01T11:23:13.957Z</time></trkpt><trkpt lat="43.416945" lon="10.7727264"><ele>131.5</ele><time>2026-05-01T11:23:14.948Z</time></trkpt><trkpt lat="43.416838" lon="10.7727608"><ele>132.0</ele><time>2026-05-01T11:23:15.961Z</time></trkpt><trkpt lat="43.4167242" lon="10.772818"><ele>132.5</ele><time>2026-05-01T11:23:16.943Z</time></trkpt><trkpt lat="43.4166144" lon="10.7728988"><ele>133.0</ele><time>2026-05-01T11:23:17.94Z</time></trkpt><trkpt lat="43.4165245" lon="10.7730096"><ele>133.0</ele><time>2026-05-01T11:23:18.958Z</time></trkpt><trkpt lat="43.4164497" lon="10.7731363"><ele>133.0</ele><time>2026-05-01T11:23:19.96Z</time></trkpt><trkpt lat="43.416384" lon="10.7732744"><ele>133.0</ele><time>2026-05-01T11:23:20.944Z</time></trkpt><trkpt lat="43.4163077" lon="10.7734053"><ele>133.0</ele><time>2026-05-01T11:23:21.955Z</time></trkpt><trkpt lat="43.4162265" lon="10.7735208"><ele>132.75</ele><time>2026-05-01T11:23:22.948Z</time></trkpt><trkpt lat="43.4161313" lon="10.7736135"><ele>132.5</ele><time>2026-05-01T11:23:23.964Z</time></trkpt><trkpt lat="43.4160278" lon="10.7736931"><ele>132.25</ele><time>2026-05-01T11:23:24.944Z</time></trkpt><trkpt lat="43.4159161" lon="10.7737655"><ele>132.0</ele><time>2026-05-01T11:23:25.943Z</time></trkpt><trkpt lat="43.4157903" lon="10.7738276"><ele>132.0</ele><time>2026-05-01T11:23:26.953Z</time></trkpt><trkpt lat="43.4156597" lon="10.7738826"><ele>132.0</ele><time>2026-05-01T11:23:27.95Z</time></trkpt><trkpt lat="43.4155298" lon="10.7739358"><ele>132.0</ele><time>2026-05-01T11:23:28.961Z</time></trkpt><trkpt lat="43.4154024" lon="10.77399"><ele>132.0</ele><time>2026-05-01T11:23:29.953Z</time></trkpt><trkpt lat="43.4152823" lon="10.7740392"><ele>132.79999999999998</ele><time>2026-05-01T11:23:30.955Z</time></trkpt><trkpt lat="43.4151743" lon="10.7740781"><ele>133.6</ele><time>2026-05-01T11:23:31.961Z</time></trkpt><trkpt lat="43.4150764" lon="10.7741221"><ele>134.39999999999998</ele><time>2026-05-01T11:23:32.949Z</time></trkpt><trkpt lat="43.4149735" lon="10.774162"><ele>135.2</ele><time>2026-05-01T11:23:33.96Z</time></trkpt><trkpt lat="43.41487" lon="10.7742015"><ele>136.0</ele><time>2026-05-01T11:23:34.962Z</time></trkpt><trkpt lat="43.414762" lon="10.77424"><ele>136.25</ele><time>2026-05-01T11:23:35.951Z</time></trkpt><trkpt lat="43.4146491" lon="10.7742588"><ele>136.5</ele><time>2026-05-01T11:23:36.957Z</time></trkpt><trkpt lat="43.4145357" lon="10.7742372"><ele>136.75</ele><time>2026-05-01T11:23:37.95Z</time></trkpt><trkpt lat="43.4144257" lon="10.7741894"><ele>137.0</ele><time>2026-05-01T11:23:38.958Z</time></trkpt><trkpt lat="43.4143031" lon="10.7741133"><ele>137.0</ele><time>2026-05-01T11:23:39.947Z</time></trkpt><trkpt lat="43.4141815" lon="10.7740241"><ele>137.0</ele><time>2026-05-01T11:23:40.962Z</time></trkpt><trkpt lat="43.4140532" lon="10.7739309"><ele>137.0</ele><time>2026-05-01T11:23:41.939Z</time></trkpt><trkpt lat="43.4139127" lon="10.7738349"><ele>137.0</ele><time>2026-05-01T11:23:42.953Z</time></trkpt><trkpt lat="43.4137593" lon="10.7737329"><ele>136.66666666666666</ele><time>2026-05-01T11:23:43.962Z</time></trkpt><trkpt lat="43.4135952" lon="10.7736321"><ele>136.33333333333334</ele><time>2026-05-01T11:23:44.948Z</time></trkpt><trkpt lat="43.413407" lon="10.7734979"><ele>136.0</ele><time>2026-05-01T11:23:45.946Z</time></trkpt><trkpt lat="43.4132272" lon="10.7733654"><ele>137.0</ele><time>2026-05-01T11:23:46.952Z</time></trkpt><trkpt lat="43.4130631" lon="10.7732757"><ele>138.0</ele><time>2026-05-01T11:23:47.955Z</time></trkpt><trkpt lat="43.4129052" lon="10.7732077"><ele>139.0</ele><time>2026-05-01T11:23:48.953Z</time></trkpt><trkpt lat="43.4127692" lon="10.7731649"><ele>139.0</ele><time>2026-05-01T11:23:49.953Z</time></trkpt><trkpt lat="43.4126448" lon="10.7731639"><ele>139.0</ele><time>2026-05-01T11:23:50.976Z</time></trkpt><trkpt lat="43.4125207" lon="10.7732165"><ele>139.0</ele><time>2026-05-01T11:23:51.949Z</time></trkpt><trkpt lat="43.4124046" lon="10.7733105"><ele>139.0</ele><time>2026-05-01T11:23:52.949Z</time></trkpt><trkpt lat="43.4122863" lon="10.7734217"><ele>138.5</ele><time>2026-05-01T11:23:53.941Z</time></trkpt><trkpt lat="43.4121625" lon="10.77353"><ele>138.0</ele><time>2026-05-01T11:23:54.956Z</time></trkpt><trkpt lat="43.4120246" lon="10.7736169"><ele>137.5</ele><time>2026-05-01T11:23:55.943Z</time></trkpt><trkpt lat="43.4118899" lon="10.7736749"><ele>137.0</ele><time>2026-05-01T11:23:56.946Z</time></trkpt><trkpt lat="43.4117605" lon="10.7737213"><ele>137.0</ele><time>2026-05-01T11:23:57.958Z</time></trkpt><trkpt lat="43.4116295" lon="10.7737419"><ele>137.0</ele><time>2026-05-01T11:23:58.947Z</time></trkpt><trkpt lat="43.4115015" lon="10.7737323"><ele>137.0</ele><time>2026-05-01T11:23:59.94Z</time></trkpt><trkpt lat="43.4113696" lon="10.7736977"><ele>137.0</ele><time>2026-05-01T11:24:00.95Z</time></trkpt><trkpt lat="43.4112317" lon="10.7736567"><ele>137.66666666666666</ele><time>2026-05-01T11:24:01.958Z</time></trkpt><trkpt lat="43.4110842" lon="10.7736299"><ele>138.33333333333334</ele><time>2026-05-01T11:24:02.94Z</time></trkpt><trkpt lat="43.4109327" lon="10.7736279"><ele>139.0</ele><time>2026-05-01T11:24:03.938Z</time></trkpt><trkpt lat="43.410782" lon="10.7736335"><ele>139.0</ele><time>2026-05-01T11:24:04.964Z</time></trkpt><trkpt lat="43.4106322" lon="10.7736401"><ele>139.0</ele><time>2026-05-01T11:24:05.961Z</time></trkpt><trkpt lat="43.4104919" lon="10.7736227"><ele>139.0</ele><time>2026-05-01T11:24:06.951Z</time></trkpt><trkpt lat="43.4103589" lon="10.7735799"><ele>139.0</ele><time>2026-05-01T11:24:07.952Z</time></trkpt><trkpt lat="43.4102439" lon="10.7735165"><ele>139.0</ele><time>2026-05-01T11:24:08.952Z</time></trkpt><trkpt lat="43.4101424" lon="10.7734769"><ele>139.0</ele><time>2026-05-01T11:24:09.961Z</time></trkpt><trkpt lat="43.4100284" lon="10.7734809"><ele>139.0</ele><time>2026-05-01T11:24:10.949Z</time></trkpt><trkpt lat="43.4099165" lon="10.7735191"><ele>139.0</ele><time>2026-05-01T11:24:11.957Z</time></trkpt><trkpt lat="43.4098187" lon="10.7736049"><ele>139.0</ele><time>2026-05-01T11:24:12.949Z</time></trkpt><trkpt lat="43.4097423" lon="10.7737364"><ele>139.0</ele><time>2026-05-01T11:24:13.954Z</time></trkpt><trkpt lat="43.4096896" lon="10.7738888"><ele>139.0</ele><time>2026-05-01T11:24:14.953Z</time></trkpt><trkpt lat="43.4096521" lon="10.7740641"><ele>139.0</ele><time>2026-05-01T11:24:15.943Z</time></trkpt><trkpt lat="43.409617" lon="10.7742338"><ele>140.25</ele><time>2026-05-01T11:24:16.944Z</time></trkpt><trkpt lat="43.409551" lon="10.7743909"><ele>141.5</ele><time>2026-05-01T11:24:17.962Z</time></trkpt><trkpt lat="43.4094705" lon="10.7745428"><ele>142.75</ele><time>2026-05-01T11:24:18.945Z</time></trkpt><trkpt lat="43.4093651" lon="10.7746812"><ele>144.0</ele><time>2026-05-01T11:24:19.943Z</time></trkpt><trkpt lat="43.4092531" lon="10.7747851"><ele>144.0</ele><time>2026-05-01T11:24:20.954Z</time></trkpt><trkpt lat="43.4091402" lon="10.7748816"><ele>144.0</ele><time>2026-05-01T11:24:21.956Z</time></trkpt><trkpt lat="43.4090207" lon="10.7749662"><ele>144.0</ele><time>2026-05-01T11:24:22.951Z</time></trkpt><trkpt lat="43.4089098" lon="10.7750417"><ele>144.0</ele><time>2026-05-01T11:24:23.948Z</time></trkpt><trkpt lat="43.4088069" lon="10.7751094"><ele>143.5</ele><time>2026-05-01T11:24:24.95Z</time></trkpt><trkpt lat="43.408694" lon="10.7751677"><ele>143.0</ele><time>2026-05-01T11:24:25.946Z</time></trkpt><trkpt lat="43.4085734" lon="10.7752213"><ele>142.5</ele><time>2026-05-01T11:24:26.942Z</time></trkpt><trkpt lat="43.4084468" lon="10.7752724"><ele>142.0</ele><time>2026-05-01T11:24:27.935Z</time></trkpt><trkpt lat="43.4083159" lon="10.7753173"><ele>142.0</ele><time>2026-05-01T11:24:28.949Z</time></trkpt><trkpt lat="43.4081821" lon="10.7753514"><ele>142.0</ele><time>2026-05-01T11:24:29.95Z</time></trkpt><trkpt lat="43.4080499" lon="10.7753818"><ele>142.0</ele><time>2026-05-01T11:24:30.949Z</time></trkpt><trkpt lat="43.4079252" lon="10.7753977"><ele>142.0</ele><time>2026-05-01T11:24:31.955Z</time></trkpt><trkpt lat="43.4078039" lon="10.7754062"><ele>142.75</ele><time>2026-05-01T11:24:32.944Z</time></trkpt><trkpt lat="43.4076822" lon="10.7754171"><ele>143.5</ele><time>2026-05-01T11:24:33.955Z</time></trkpt><trkpt lat="43.40756" lon="10.7754148"><ele>144.25</ele><time>2026-05-01T11:24:34.962Z</time></trkpt><trkpt lat="43.4074303" lon="10.7754152"><ele>145.0</ele><time>2026-05-01T11:24:35.947Z</time></trkpt><trkpt lat="43.4072981" lon="10.7754303"><ele>145.0</ele><time>2026-05-01T11:24:36.952Z</time></trkpt><trkpt lat="43.4071687" lon="10.7754643"><ele>145.0</ele><time>2026-05-01T11:24:37.944Z</time></trkpt><trkpt lat="43.4070433" lon="10.7755159"><ele>145.0</ele><time>2026-05-01T11:24:38.938Z</time></trkpt><trkpt lat="43.4069168" lon="10.7755675"><ele>145.0</ele><time>2026-05-01T11:24:39.971Z</time></trkpt><trkpt lat="43.4067888" lon="10.7755952"><ele>145.0</ele><time>2026-05-01T11:24:40.951Z</time></trkpt><trkpt lat="43.4066531" lon="10.7755957"><ele>145.0</ele><time>2026-05-01T11:24:41.952Z</time></trkpt><trkpt lat="43.406509" lon="10.7755767"><ele>145.0</ele><time>2026-05-01T11:24:42.951Z</time></trkpt><trkpt lat="43.406363" lon="10.7755415"><ele>145.0</ele><time>2026-05-01T11:24:43.955Z</time></trkpt><trkpt lat="43.4062106" lon="10.7754892"><ele>145.0</ele><time>2026-05-01T11:24:44.957Z</time></trkpt><trkpt lat="43.4060505" lon="10.7754222"><ele>145.0</ele><time>2026-05-01T11:24:45.942Z</time></trkpt><trkpt lat="43.4058856" lon="10.7753417"><ele>145.0</ele><time>2026-05-01T11:24:46.941Z</time></trkpt><trkpt lat="43.4057079" lon="10.7752558"><ele>146.66666666666669</ele><time>2026-05-01T11:24:47.948Z</time></trkpt><trkpt lat="43.4055306" lon="10.7751591"><ele>148.33333333333334</ele><time>2026-05-01T11:24:48.937Z</time></trkpt><trkpt lat="43.4053446" lon="10.7750599"><ele>150.0</ele><time>2026-05-01T11:24:49.949Z</time></trkpt><trkpt lat="43.4051494" lon="10.7749536"><ele>150.0</ele><time>2026-05-01T11:24:50.939Z</time></trkpt><trkpt lat="43.4049495" lon="10.7748504"><ele>150.0</ele><time>2026-05-01T11:24:51.953Z</time></trkpt><trkpt lat="43.4047521" lon="10.7747479"><ele>150.0</ele><time>2026-05-01T11:24:52.95Z</time></trkpt><trkpt lat="43.4045618" lon="10.7746612"><ele>150.0</ele><time>2026-05-01T11:24:53.962Z</time></trkpt><trkpt lat="43.4043832" lon="10.774623"><ele>150.0</ele><time>2026-05-01T11:24:54.944Z</time></trkpt><trkpt lat="43.4042132" lon="10.7746059"><ele>150.0</ele><time>2026-05-01T11:24:55.948Z</time></trkpt><trkpt lat="43.4040537" lon="10.7746291"><ele>150.0</ele><time>2026-05-01T11:24:56.956Z</time></trkpt><trkpt lat="43.4039034" lon="10.7746929"><ele>150.0</ele><time>2026-05-01T11:24:57.954Z</time></trkpt><trkpt lat="43.4037583" lon="10.7747834"><ele>150.0</ele><time>2026-05-01T11:24:58.941Z</time></trkpt><trkpt lat="43.4036117" lon="10.7748925"><ele>152.66666666666666</ele><time>2026-05-01T11:24:59.948Z</time></trkpt><trkpt lat="43.4034603" lon="10.7749855"><ele>155.33333333333331</ele><time>2026-05-01T11:25:00.953Z</time></trkpt><trkpt lat="43.4033086" lon="10.7750756"><ele>158.0</ele><time>2026-05-01T11:25:01.954Z</time></trkpt><trkpt lat="43.4031573" lon="10.7751622"><ele>158.0</ele><time>2026-05-01T11:25:02.941Z</time></trkpt><trkpt lat="43.4030057" lon="10.7752545"><ele>158.0</ele><time>2026-05-01T11:25:03.931Z</time></trkpt><trkpt lat="43.4028535" lon="10.7753469"><ele>158.0</ele><time>2026-05-01T11:25:04.942Z</time></trkpt><trkpt lat="43.4027154" lon="10.7754389"><ele>158.0</ele><time>2026-05-01T11:25:05.944Z</time></trkpt><trkpt lat="43.4025995" lon="10.7755439"><ele>158.0</ele><time>2026-05-01T11:25:06.955Z</time></trkpt><trkpt lat="43.402498" lon="10.7756751"><ele>158.0</ele><time>2026-05-01T11:25:07.948Z</time></trkpt><trkpt lat="43.4024287" lon="10.7758385"><ele>158.0</ele><time>2026-05-01T11:25:08.95Z</time></trkpt><trkpt lat="43.4023849" lon="10.7760258"><ele>158.0</ele><time>2026-05-01T11:25:09.949Z</time></trkpt><trkpt lat="43.4023619" lon="10.7762276"><ele>158.0</ele><time>2026-05-01T11:25:10.946Z</time></trkpt><trkpt lat="43.4023465" lon="10.776432"><ele>158.0</ele><time>2026-05-01T11:25:11.948Z</time></trkpt><trkpt lat="43.4023218" lon="10.7766328"><ele>158.0</ele><time>2026-05-01T11:25:12.945Z</time></trkpt><trkpt lat="43.4022841" lon="10.7768032"><ele>157.5</ele><time>2026-05-01T11:25:13.951Z</time></trkpt><trkpt lat="43.402245" lon="10.7769535"><ele>157.0</ele><time>2026-05-01T11:25:14.949Z</time></trkpt><trkpt lat="43.4022084" lon="10.7770941"><ele>156.5</ele><time>2026-05-01T11:25:15.958Z</time></trkpt><trkpt lat="43.4021719" lon="10.7772454"><ele>156.0</ele><time>2026-05-01T11:25:16.96Z</time></trkpt><trkpt lat="43.4021324" lon="10.7774076"><ele>158.0</ele><time>2026-05-01T11:25:17.956Z</time></trkpt><trkpt lat="43.402091" lon="10.7775821"><ele>160.0</ele><time>2026-05-01T11:25:18.95Z</time></trkpt><trkpt lat="43.4020558" lon="10.7777741"><ele>162.0</ele><time>2026-05-01T11:25:19.954Z</time></trkpt><trkpt lat="43.4020338" lon="10.7779846"><ele>164.0</ele><time>2026-05-01T11:25:20.955Z</time></trkpt><trkpt lat="43.4020229" lon="10.7781902"><ele>164.66666666666666</ele><time>2026-05-01T11:25:21.963Z</time></trkpt><trkpt lat="43.402014" lon="10.7783963"><ele>165.33333333333334</ele><time>2026-05-01T11:25:22.945Z</time></trkpt><trkpt lat="43.4020172" lon="10.7786041"><ele>166.0</ele><time>2026-05-01T11:25:23.948Z</time></trkpt><trkpt lat="43.4020265" lon="10.7788097"><ele>166.0</ele><time>2026-05-01T11:25:24.932Z</time></trkpt><trkpt lat="43.4020369" lon="10.7790125"><ele>166.0</ele><time>2026-05-01T11:25:25.956Z</time></trkpt><trkpt lat="43.4020438" lon="10.779214"><ele>166.0</ele><time>2026-05-01T11:25:26.953Z</time></trkpt><trkpt lat="43.4020526" lon="10.7794155"><ele>166.0</ele><time>2026-05-01T11:25:27.953Z</time></trkpt><trkpt lat="43.4020598" lon="10.7796258"><ele>166.0</ele><time>2026-05-01T11:25:28.953Z</time></trkpt><trkpt lat="43.4020591" lon="10.7798396"><ele>166.0</ele><time>2026-05-01T11:25:29.958Z</time></trkpt><trkpt lat="43.4020477" lon="10.7800546"><ele>166.0</ele><time>2026-05-01T11:25:30.941Z</time></trkpt><trkpt lat="43.4020275" lon="10.7802721"><ele>165.66666666666669</ele><time>2026-05-01T11:25:31.936Z</time></trkpt><trkpt lat="43.4019984" lon="10.780498"><ele>165.33333333333334</ele><time>2026-05-01T11:25:32.949Z</time></trkpt><trkpt lat="43.4019705" lon="10.7807253"><ele>165.0</ele><time>2026-05-01T11:25:33.952Z</time></trkpt><trkpt lat="43.4019419" lon="10.7809544"><ele>165.0</ele><time>2026-05-01T11:25:34.951Z</time></trkpt><trkpt lat="43.4019156" lon="10.781188"><ele>165.0</ele><time>2026-05-01T11:25:35.951Z</time></trkpt><trkpt lat="43.401896" lon="10.78143"><ele>165.0</ele><time>2026-05-01T11:25:36.949Z</time></trkpt><trkpt lat="43.4018869" lon="10.7816742"><ele>164.66666666666666</ele><time>2026-05-01T11:25:37.934Z</time></trkpt><trkpt lat="43.4018933" lon="10.7819194"><ele>164.33333333333331</ele><time>2026-05-01T11:25:38.924Z</time></trkpt><trkpt lat="43.4019086" lon="10.7821614"><ele>164.0</ele><time>2026-05-01T11:25:39.941Z</time></trkpt><trkpt lat="43.40193" lon="10.7823994"><ele>164.0</ele><time>2026-05-01T11:25:40.931Z</time></trkpt><trkpt lat="43.4019518" lon="10.7826379"><ele>164.0</ele><time>2026-05-01T11:25:41.944Z</time></trkpt><trkpt lat="43.4019677" lon="10.7828677"><ele>164.0</ele><time>2026-05-01T11:25:42.976Z</time></trkpt><trkpt lat="43.4019894" lon="10.7831054"><ele>162.5</ele><time>2026-05-01T11:25:43.94Z</time></trkpt><trkpt lat="43.4020078" lon="10.7833416"><ele>161.0</ele><time>2026-05-01T11:25:44.946Z</time></trkpt><trkpt lat="43.4020579" lon="10.7838053"><ele>160.0</ele><time>2026-05-01T11:25:46.931Z</time></trkpt><trkpt lat="43.4020816" lon="10.7840362"><ele>159.0</ele><time>2026-05-01T11:25:47.953Z</time></trkpt><trkpt lat="43.4021123" lon="10.7842739"><ele>158.0</ele><time>2026-05-01T11:25:48.947Z</time></trkpt><trkpt lat="43.4021545" lon="10.7845099"><ele>160.0</ele><time>2026-05-01T11:25:49.95Z</time></trkpt><trkpt lat="43.4022086" lon="10.7847487"><ele>162.0</ele><time>2026-05-01T11:25:50.949Z</time></trkpt><trkpt lat="43.402267" lon="10.7849871"><ele>164.0</ele><time>2026-05-01T11:25:51.954Z</time></trkpt><trkpt lat="43.402329" lon="10.7852276"><ele>164.0</ele><time>2026-05-01T11:25:52.957Z</time></trkpt><trkpt lat="43.4023906" lon="10.7854681"><ele>164.0</ele><time>2026-05-01T11:25:53.959Z</time></trkpt><trkpt lat="43.402453" lon="10.785706"><ele>164.0</ele><time>2026-05-01T11:25:54.939Z</time></trkpt><trkpt lat="43.4025139" lon="10.7859451"><ele>164.66666666666666</ele><time>2026-05-01T11:25:55.955Z</time></trkpt><trkpt lat="43.402574" lon="10.7861785"><ele>165.33333333333334</ele><time>2026-05-01T11:25:56.951Z</time></trkpt><trkpt lat="43.4026347" lon="10.7864088"><ele>166.0</ele><time>2026-05-01T11:25:57.941Z</time></trkpt><trkpt lat="43.4026913" lon="10.7866275"><ele>166.0</ele><time>2026-05-01T11:25:58.951Z</time></trkpt><trkpt lat="43.4027426" lon="10.7868334"><ele>166.0</ele><time>2026-05-01T11:25:59.955Z</time></trkpt><trkpt lat="43.4027865" lon="10.787027"><ele>166.0</ele><time>2026-05-01T11:26:00.961Z</time></trkpt><trkpt lat="43.4028257" lon="10.7872034"><ele>166.0</ele><time>2026-05-01T11:26:01.951Z</time></trkpt><trkpt lat="43.4028604" lon="10.7873617"><ele>166.33333333333334</ele><time>2026-05-01T11:26:02.959Z</time></trkpt><trkpt lat="43.4028918" lon="10.787509"><ele>166.66666666666669</ele><time>2026-05-01T11:26:03.951Z</time></trkpt><trkpt lat="43.4029083" lon="10.787637"><ele>167.0</ele><time>2026-05-01T11:26:04.947Z</time></trkpt><trkpt lat="43.4029185" lon="10.7877473"><ele>167.33333333333334</ele><time>2026-05-01T11:26:05.952Z</time></trkpt><trkpt lat="43.4029118" lon="10.7878514"><ele>167.66666666666666</ele><time>2026-05-01T11:26:07.96Z</time></trkpt><trkpt lat="43.4029428" lon="10.7879327"><ele>168.0</ele><time>2026-05-01T11:26:10.951Z</time></trkpt><trkpt lat="43.4030319" lon="10.7879441"><ele>170.0</ele><time>2026-05-01T11:26:12.954Z</time></trkpt><trkpt lat="43.403101" lon="10.7879677"><ele>172.0</ele><time>2026-05-01T11:26:13.956Z</time></trkpt><trkpt lat="43.4031665" lon="10.7880268"><ele>174.0</ele><time>2026-05-01T11:26:14.954Z</time></trkpt><trkpt lat="43.40323" lon="10.7881117"><ele>176.0</ele><time>2026-05-01T11:26:15.95Z</time></trkpt><trkpt lat="43.4032992" lon="10.7882181"><ele>178.0</ele><time>2026-05-01T11:26:16.952Z</time></trkpt><trkpt lat="43.4033704" lon="10.7883437"><ele>178.0</ele><time>2026-05-01T11:26:17.961Z</time></trkpt><trkpt lat="43.4034351" lon="10.788484"><ele>178.0</ele><time>2026-05-01T11:26:18.956Z</time></trkpt><trkpt lat="43.4035058" lon="10.7886434"><ele>178.0</ele><time>2026-05-01T11:26:19.938Z</time></trkpt><trkpt lat="43.403578" lon="10.7888018"><ele>178.0</ele><time>2026-05-01T11:26:20.956Z</time></trkpt><trkpt lat="43.4036559" lon="10.7889621"><ele>179.75</ele><time>2026-05-01T11:26:21.949Z</time></trkpt><trkpt lat="43.4037376" lon="10.7891248"><ele>181.5</ele><time>2026-05-01T11:26:22.949Z</time></trkpt><trkpt lat="43.4038141" lon="10.7892918"><ele>183.25</ele><time>2026-05-01T11:26:23.94Z</time></trkpt><trkpt lat="43.403882" lon="10.7894622"><ele>185.0</ele><time>2026-05-01T11:26:24.945Z</time></trkpt><trkpt lat="43.4039368" lon="10.7896411"><ele>185.0</ele><time>2026-05-01T11:26:25.956Z</time></trkpt><trkpt lat="43.403984" lon="10.7898165"><ele>185.0</ele><time>2026-05-01T11:26:26.952Z</time></trkpt><trkpt lat="43.4040347" lon="10.7899867"><ele>185.0</ele><time>2026-05-01T11:26:27.945Z</time></trkpt><trkpt lat="43.4040986" lon="10.7901593"><ele>185.0</ele><time>2026-05-01T11:26:28.953Z</time></trkpt><trkpt lat="43.4041841" lon="10.7903223"><ele>186.66666666666666</ele><time>2026-05-01T11:26:29.945Z</time></trkpt><trkpt lat="43.4042864" lon="10.7904684"><ele>188.33333333333334</ele><time>2026-05-01T11:26:30.952Z</time></trkpt><trkpt lat="43.4044072" lon="10.7906151"><ele>190.0</ele><time>2026-05-01T11:26:31.947Z</time></trkpt><trkpt lat="43.4045266" lon="10.7907495"><ele>190.0</ele><time>2026-05-01T11:26:32.938Z</time></trkpt><trkpt lat="43.4046404" lon="10.7908793"><ele>190.0</ele><time>2026-05-01T11:26:33.949Z</time></trkpt><trkpt lat="43.4047478" lon="10.7910153"><ele>190.0</ele><time>2026-05-01T11:26:34.953Z</time></trkpt><trkpt lat="43.4048524" lon="10.7911545"><ele>190.0</ele><time>2026-05-01T11:26:35.949Z</time></trkpt><trkpt lat="43.4049408" lon="10.791301"><ele>191.5</ele><time>2026-05-01T11:26:36.955Z</time></trkpt><trkpt lat="43.4050222" lon="10.7914527"><ele>193.0</ele><time>2026-05-01T11:26:37.951Z</time></trkpt><trkpt lat="43.4051081" lon="10.7916039"><ele>194.5</ele><time>2026-05-01T11:26:38.946Z</time></trkpt><trkpt lat="43.4052079" lon="10.791738"><ele>196.0</ele><time>2026-05-01T11:26:39.965Z</time></trkpt><trkpt lat="43.4053088" lon="10.7918537"><ele>197.4</ele><time>2026-05-01T11:26:40.952Z</time></trkpt><trkpt lat="43.4053848" lon="10.7919632"><ele>198.8</ele><time>2026-05-01T11:26:41.96Z</time></trkpt><trkpt lat="43.4054194" lon="10.7920903"><ele>200.20000000000002</ele><time>2026-05-01T11:26:42.959Z</time></trkpt><trkpt lat="43.4054343" lon="10.7922331"><ele>201.60000000000002</ele><time>2026-05-01T11:26:43.949Z</time></trkpt><trkpt lat="43.4054391" lon="10.7923957"><ele>203.0</ele><time>2026-05-01T11:26:44.946Z</time></trkpt><trkpt lat="43.4054349" lon="10.7925922"><ele>202.25</ele><time>2026-05-01T11:26:45.942Z</time></trkpt><trkpt lat="43.4054676" lon="10.7927859"><ele>201.5</ele><time>2026-05-01T11:26:46.945Z</time></trkpt><trkpt lat="43.4055313" lon="10.7929553"><ele>200.75</ele><time>2026-05-01T11:26:47.944Z</time></trkpt><trkpt lat="43.4055952" lon="10.7931175"><ele>200.0</ele><time>2026-05-01T11:26:48.949Z</time></trkpt><trkpt lat="43.4056734" lon="10.7932476"><ele>200.0</ele><time>2026-05-01T11:26:49.947Z</time></trkpt><trkpt lat="43.405769" lon="10.7933428"><ele>200.0</ele><time>2026-05-01T11:26:50.956Z</time></trkpt><trkpt lat="43.4058877" lon="10.793396"><ele>200.0</ele><time>2026-05-01T11:26:51.939Z</time></trkpt><trkpt lat="43.4060284" lon="10.7934089"><ele>200.0</ele><time>2026-05-01T11:26:52.96Z</time></trkpt><trkpt lat="43.4061664" lon="10.7934116"><ele>200.0</ele><time>2026-05-01T11:26:53.946Z</time></trkpt><trkpt lat="43.406308" lon="10.7934128"><ele>200.0</ele><time>2026-05-01T11:26:54.946Z</time></trkpt><trkpt lat="43.4064465" lon="10.7934167"><ele>200.0</ele><time>2026-05-01T11:26:55.947Z</time></trkpt><trkpt lat="43.4065754" lon="10.79343"><ele>200.0</ele><time>2026-05-01T11:26:56.943Z</time></trkpt><trkpt lat="43.4067005" lon="10.7934746"><ele>197.5</ele><time>2026-05-01T11:26:57.955Z</time></trkpt><trkpt lat="43.4068238" lon="10.7935512"><ele>195.0</ele><time>2026-05-01T11:26:58.951Z</time></trkpt><trkpt lat="43.406937" lon="10.7936511"><ele>192.5</ele><time>2026-05-01T11:26:59.958Z</time></trkpt><trkpt lat="43.4070422" lon="10.7937744"><ele>190.0</ele><time>2026-05-01T11:27:00.962Z</time></trkpt><trkpt lat="43.4071415" lon="10.7939109"><ele>193.0</ele><time>2026-05-01T11:27:01.952Z</time></trkpt><trkpt lat="43.4072301" lon="10.794047"><ele>196.0</ele><time>2026-05-01T11:27:02.957Z</time></trkpt><trkpt lat="43.4073055" lon="10.7941982"><ele>199.0</ele><time>2026-05-01T11:27:03.949Z</time></trkpt><trkpt lat="43.4073716" lon="10.7943693"><ele>202.0</ele><time>2026-05-01T11:27:04.948Z</time></trkpt><trkpt lat="43.4074226" lon="10.7945562"><ele>202.0</ele><time>2026-05-01T11:27:05.962Z</time></trkpt><trkpt lat="43.4074649" lon="10.7947527"><ele>202.0</ele><time>2026-05-01T11:27:06.945Z</time></trkpt><trkpt lat="43.4075086" lon="10.7949576"><ele>202.0</ele><time>2026-05-01T11:27:07.944Z</time></trkpt><trkpt lat="43.407554" lon="10.7951739"><ele>200.66666666666666</ele><time>2026-05-01T11:27:08.96Z</time></trkpt><trkpt lat="43.4075995" lon="10.7953931"><ele>199.33333333333331</ele><time>2026-05-01T11:27:09.958Z</time></trkpt><trkpt lat="43.4076477" lon="10.7956009"><ele>198.0</ele><time>2026-05-01T11:27:10.95Z</time></trkpt><trkpt lat="43.4076919" lon="10.7957716"><ele>198.0</ele><time>2026-05-01T11:27:11.949Z</time></trkpt><trkpt lat="43.407732" lon="10.7958927"><ele>198.0</ele><time>2026-05-01T11:27:12.954Z</time></trkpt><trkpt lat="43.4077948" lon="10.7959648"><ele>198.0</ele><time>2026-05-01T11:27:13.954Z</time></trkpt><trkpt lat="43.4078805" lon="10.7960121"><ele>198.0</ele><time>2026-05-01T11:27:14.953Z</time></trkpt><trkpt lat="43.4079889" lon="10.7960106"><ele>198.0</ele><time>2026-05-01T11:27:15.955Z</time></trkpt><trkpt lat="43.4081043" lon="10.7959872"><ele>198.66666666666666</ele><time>2026-05-01T11:27:16.952Z</time></trkpt><trkpt lat="43.4082104" lon="10.7959469"><ele>199.33333333333331</ele><time>2026-05-01T11:27:17.951Z</time></trkpt><trkpt lat="43.4082939" lon="10.7959015"><ele>200.0</ele><time>2026-05-01T11:27:18.96Z</time></trkpt><trkpt lat="43.4083694" lon="10.7958693"><ele>200.66666666666666</ele><time>2026-05-01T11:27:19.954Z</time></trkpt><trkpt lat="43.4084402" lon="10.7958858"><ele>201.33333333333331</ele><time>2026-05-01T11:27:20.955Z</time></trkpt><trkpt lat="43.4084843" lon="10.7959489"><ele>202.0</ele><time>2026-05-01T11:27:21.947Z</time></trkpt><trkpt lat="43.4084409" lon="10.7960939"><ele>200.0</ele><time>2026-05-01T11:27:23.95Z</time></trkpt><trkpt lat="43.408391" lon="10.7961669"><ele>198.0</ele><time>2026-05-01T11:27:24.953Z</time></trkpt><trkpt lat="43.4083184" lon="10.7962315"><ele>196.0</ele><time>2026-05-01T11:27:25.956Z</time></trkpt><trkpt lat="43.4082356" lon="10.7963164"><ele>194.0</ele><time>2026-05-01T11:27:26.954Z</time></trkpt><trkpt lat="43.4081567" lon="10.7964101"><ele>192.0</ele><time>2026-05-01T11:27:27.942Z</time></trkpt><trkpt lat="43.4080836" lon="10.7965069"><ele>192.0</ele><time>2026-05-01T11:27:28.954Z</time></trkpt><trkpt lat="43.4080093" lon="10.796619"><ele>192.0</ele><time>2026-05-01T11:27:29.951Z</time></trkpt><trkpt lat="43.4079376" lon="10.7967389"><ele>192.0</ele><time>2026-05-01T11:27:30.956Z</time></trkpt><trkpt lat="43.407887" lon="10.7968845"><ele>192.0</ele><time>2026-05-01T11:27:31.945Z</time></trkpt><trkpt lat="43.4078701" lon="10.7970471"><ele>190.5</ele><time>2026-05-01T11:27:32.955Z</time></trkpt><trkpt lat="43.4078797" lon="10.7972166"><ele>189.0</ele><time>2026-05-01T11:27:33.946Z</time></trkpt><trkpt lat="43.4079117" lon="10.7973839"><ele>187.5</ele><time>2026-05-01T11:27:34.958Z</time></trkpt><trkpt lat="43.4079543" lon="10.7975494"><ele>186.0</ele><time>2026-05-01T11:27:35.952Z</time></trkpt><trkpt lat="43.408006" lon="10.7977145"><ele>185.75</ele><time>2026-05-01T11:27:36.95Z</time></trkpt><trkpt lat="43.40806" lon="10.7978914"><ele>185.5</ele><time>2026-05-01T11:27:37.955Z</time></trkpt><trkpt lat="43.408111" lon="10.7980744"><ele>185.25</ele><time>2026-05-01T11:27:38.947Z</time></trkpt><trkpt lat="43.4081567" lon="10.798265"><ele>185.0</ele><time>2026-05-01T11:27:39.958Z</time></trkpt><trkpt lat="43.4081823" lon="10.7984674"><ele>185.66666666666666</ele><time>2026-05-01T11:27:40.954Z</time></trkpt><trkpt lat="43.4081905" lon="10.7986751"><ele>186.33333333333334</ele><time>2026-05-01T11:27:41.962Z</time></trkpt><trkpt lat="43.4081848" lon="10.79889"><ele>187.0</ele><time>2026-05-01T11:27:42.964Z</time></trkpt><trkpt lat="43.4081667" lon="10.7991016"><ele>187.0</ele><time>2026-05-01T11:27:43.947Z</time></trkpt><trkpt lat="43.4081409" lon="10.7993093"><ele>187.0</ele><time>2026-05-01T11:27:44.958Z</time></trkpt><trkpt lat="43.4081089" lon="10.7995109"><ele>187.0</ele><time>2026-05-01T11:27:45.955Z</time></trkpt><trkpt lat="43.4080737" lon="10.799713"><ele>187.75</ele><time>2026-05-01T11:27:46.961Z</time></trkpt><trkpt lat="43.4080331" lon="10.7999058"><ele>188.5</ele><time>2026-05-01T11:27:47.955Z</time></trkpt><trkpt lat="43.4079929" lon="10.8000946"><ele>189.25</ele><time>2026-05-01T11:27:48.969Z</time></trkpt><trkpt lat="43.4079497" lon="10.8002926"><ele>190.0</ele><time>2026-05-01T11:27:49.96Z</time></trkpt><trkpt lat="43.4079071" lon="10.8005044"><ele>189.0</ele><time>2026-05-01T11:27:50.955Z</time></trkpt><trkpt lat="43.4078638" lon="10.8007151"><ele>188.0</ele><time>2026-05-01T11:27:51.952Z</time></trkpt><trkpt lat="43.4078215" lon="10.8009273"><ele>187.0</ele><time>2026-05-01T11:27:52.955Z</time></trkpt><trkpt lat="43.4077852" lon="10.8011404"><ele>187.0</ele><time>2026-05-01T11:27:53.952Z</time></trkpt><trkpt lat="43.407757" lon="10.8013523"><ele>187.0</ele><time>2026-05-01T11:27:54.954Z</time></trkpt><trkpt lat="43.4077381" lon="10.8015728"><ele>187.0</ele><time>2026-05-01T11:27:55.967Z</time></trkpt><trkpt lat="43.4077253" lon="10.8017978"><ele>188.33333333333334</ele><time>2026-05-01T11:27:56.947Z</time></trkpt><trkpt lat="43.4077179" lon="10.8020237"><ele>189.66666666666666</ele><time>2026-05-01T11:27:57.95Z</time></trkpt><trkpt lat="43.407723" lon="10.8022415"><ele>191.0</ele><time>2026-05-01T11:27:58.949Z</time></trkpt><trkpt lat="43.4077487" lon="10.80245"><ele>190.33333333333331</ele><time>2026-05-01T11:27:59.954Z</time></trkpt><trkpt lat="43.4077885" lon="10.8026649"><ele>189.66666666666666</ele><time>2026-05-01T11:28:00.949Z</time></trkpt><trkpt lat="43.4078275" lon="10.8028842"><ele>189.0</ele><time>2026-05-01T11:28:01.946Z</time></trkpt><trkpt lat="43.4078598" lon="10.8031073"><ele>189.0</ele><time>2026-05-01T11:28:02.937Z</time></trkpt><trkpt lat="43.4078789" lon="10.8033453"><ele>189.0</ele><time>2026-05-01T11:28:03.957Z</time></trkpt><trkpt lat="43.4079" lon="10.803593"><ele>189.0</ele><time>2026-05-01T11:28:04.961Z</time></trkpt><trkpt lat="43.4079439" lon="10.8038366"><ele>190.0</ele><time>2026-05-01T11:28:05.949Z</time></trkpt><trkpt lat="43.4080056" lon="10.8040784"><ele>191.0</ele><time>2026-05-01T11:28:06.953Z</time></trkpt><trkpt lat="43.4080735" lon="10.8043214"><ele>192.0</ele><time>2026-05-01T11:28:07.954Z</time></trkpt><trkpt lat="43.408138" lon="10.8045616"><ele>192.0</ele><time>2026-05-01T11:28:08.95Z</time></trkpt><trkpt lat="43.4082045" lon="10.8048"><ele>192.0</ele><time>2026-05-01T11:28:09.958Z</time></trkpt><trkpt lat="43.408269" lon="10.8050342"><ele>192.0</ele><time>2026-05-01T11:28:10.953Z</time></trkpt><trkpt lat="43.4083247" lon="10.8052516"><ele>192.75</ele><time>2026-05-01T11:28:11.961Z</time></trkpt><trkpt lat="43.4083628" lon="10.8054534"><ele>193.5</ele><time>2026-05-01T11:28:12.945Z</time></trkpt><trkpt lat="43.4083665" lon="10.805648"><ele>194.25</ele><time>2026-05-01T11:28:13.948Z</time></trkpt><trkpt lat="43.4083378" lon="10.8058459"><ele>195.0</ele><time>2026-05-01T11:28:14.95Z</time></trkpt><trkpt lat="43.4082739" lon="10.8060334"><ele>198.0</ele><time>2026-05-01T11:28:15.953Z</time></trkpt><trkpt lat="43.408195" lon="10.8062084"><ele>201.0</ele><time>2026-05-01T11:28:16.953Z</time></trkpt><trkpt lat="43.4081082" lon="10.8063875"><ele>204.0</ele><time>2026-05-01T11:28:17.95Z</time></trkpt><trkpt lat="43.4080243" lon="10.8065577"><ele>202.75</ele><time>2026-05-01T11:28:18.952Z</time></trkpt><trkpt lat="43.4079459" lon="10.8067269"><ele>201.5</ele><time>2026-05-01T11:28:19.949Z</time></trkpt><trkpt lat="43.4078851" lon="10.806908"><ele>200.25</ele><time>2026-05-01T11:28:20.961Z</time></trkpt><trkpt lat="43.4078342" lon="10.8071043"><ele>199.0</ele><time>2026-05-01T11:28:21.957Z</time></trkpt><trkpt lat="43.4077954" lon="10.8073117"><ele>199.0</ele><time>2026-05-01T11:28:22.954Z</time></trkpt><trkpt lat="43.4077539" lon="10.8075204"><ele>199.0</ele><time>2026-05-01T11:28:23.949Z</time></trkpt><trkpt lat="43.4076945" lon="10.8077246"><ele>199.0</ele><time>2026-05-01T11:28:24.955Z</time></trkpt><trkpt lat="43.4076174" lon="10.8079229"><ele>203.66666666666666</ele><time>2026-05-01T11:28:25.947Z</time></trkpt><trkpt lat="43.4075268" lon="10.8081165"><ele>208.33333333333331</ele><time>2026-05-01T11:28:26.951Z</time></trkpt><trkpt lat="43.4074269" lon="10.8083042"><ele>213.0</ele><time>2026-05-01T11:28:27.956Z</time></trkpt><trkpt lat="43.4073227" lon="10.8084988"><ele>212.66666666666669</ele><time>2026-05-01T11:28:28.958Z</time></trkpt><trkpt lat="43.4072187" lon="10.8086856"><ele>212.33333333333334</ele><time>2026-05-01T11:28:29.955Z</time></trkpt><trkpt lat="43.4071041" lon="10.8088655"><ele>212.0</ele><time>2026-05-01T11:28:30.95Z</time></trkpt><trkpt lat="43.4069734" lon="10.8090283"><ele>212.0</ele><time>2026-05-01T11:28:31.942Z</time></trkpt><trkpt lat="43.4068376" lon="10.8091528"><ele>212.0</ele><time>2026-05-01T11:28:32.963Z</time></trkpt><trkpt lat="43.4066896" lon="10.8092351"><ele>212.0</ele><time>2026-05-01T11:28:33.95Z</time></trkpt><trkpt lat="43.4065299" lon="10.8092623"><ele>212.0</ele><time>2026-05-01T11:28:34.95Z</time></trkpt><trkpt lat="43.406363" lon="10.8092694"><ele>212.0</ele><time>2026-05-01T11:28:35.949Z</time></trkpt><trkpt lat="43.4062105" lon="10.8092776"><ele>212.0</ele><time>2026-05-01T11:28:36.948Z</time></trkpt><trkpt lat="43.4060832" lon="10.8093443"><ele>212.75</ele><time>2026-05-01T11:28:37.948Z</time></trkpt><trkpt lat="43.4059782" lon="10.8094607"><ele>213.5</ele><time>2026-05-01T11:28:38.963Z</time></trkpt><trkpt lat="43.4059125" lon="10.8096134"><ele>214.25</ele><time>2026-05-01T11:28:39.958Z</time></trkpt><trkpt lat="43.4058608" lon="10.8097991"><ele>215.0</ele><time>2026-05-01T11:28:40.944Z</time></trkpt><trkpt lat="43.4058042" lon="10.8099985"><ele>217.66666666666669</ele><time>2026-05-01T11:28:41.957Z</time></trkpt><trkpt lat="43.4057514" lon="10.8102144"><ele>220.33333333333331</ele><time>2026-05-01T11:28:42.951Z</time></trkpt><trkpt lat="43.4056865" lon="10.8104162"><ele>223.0</ele><time>2026-05-01T11:28:43.947Z</time></trkpt><trkpt lat="43.4055959" lon="10.8105918"><ele>223.0</ele><time>2026-05-01T11:28:44.949Z</time></trkpt><trkpt lat="43.4054974" lon="10.8107519"><ele>223.0</ele><time>2026-05-01T11:28:45.933Z</time></trkpt><trkpt lat="43.4054155" lon="10.8109152"><ele>223.0</ele><time>2026-05-01T11:28:46.951Z</time></trkpt><trkpt lat="43.4053755" lon="10.8110814"><ele>223.0</ele><time>2026-05-01T11:28:47.941Z</time></trkpt><trkpt lat="43.4053817" lon="10.8112448"><ele>223.5</ele><time>2026-05-01T11:28:48.95Z</time></trkpt><trkpt lat="43.4054169" lon="10.8114016"><ele>224.0</ele><time>2026-05-01T11:28:49.957Z</time></trkpt><trkpt lat="43.405495" lon="10.8115677"><ele>224.5</ele><time>2026-05-01T11:28:50.948Z</time></trkpt><trkpt lat="43.4055794" lon="10.8117493"><ele>225.0</ele><time>2026-05-01T11:28:51.951Z</time></trkpt><trkpt lat="43.4056723" lon="10.8119407"><ele>222.66666666666669</ele><time>2026-05-01T11:28:52.951Z</time></trkpt><trkpt lat="43.4057629" lon="10.8121474"><ele>220.33333333333334</ele><time>2026-05-01T11:28:53.945Z</time></trkpt><trkpt lat="43.405829" lon="10.8123554"><ele>218.0</ele><time>2026-05-01T11:28:54.955Z</time></trkpt><trkpt lat="43.4058648" lon="10.8125809"><ele>217.66666666666669</ele><time>2026-05-01T11:28:55.954Z</time></trkpt><trkpt lat="43.4058772" lon="10.8128226"><ele>217.33333333333331</ele><time>2026-05-01T11:28:56.949Z</time></trkpt><trkpt lat="43.4058715" lon="10.8130558"><ele>217.0</ele><time>2026-05-01T11:28:57.952Z</time></trkpt><trkpt lat="43.4058635" lon="10.8133039"><ele>217.0</ele><time>2026-05-01T11:28:58.946Z</time></trkpt><trkpt lat="43.4058572" lon="10.8135507"><ele>217.0</ele><time>2026-05-01T11:28:59.961Z</time></trkpt><trkpt lat="43.4058658" lon="10.8137883"><ele>217.0</ele><time>2026-05-01T11:29:00.95Z</time></trkpt><trkpt lat="43.4058896" lon="10.8140187"><ele>217.0</ele><time>2026-05-01T11:29:01.949Z</time></trkpt><trkpt lat="43.4059254" lon="10.8142394"><ele>217.0</ele><time>2026-05-01T11:29:02.949Z</time></trkpt><trkpt lat="43.4059687" lon="10.814458"><ele>217.0</ele><time>2026-05-01T11:29:03.942Z</time></trkpt><trkpt lat="43.4060102" lon="10.8146748"><ele>218.0</ele><time>2026-05-01T11:29:04.956Z</time></trkpt><trkpt lat="43.4060372" lon="10.814893"><ele>219.0</ele><time>2026-05-01T11:29:05.944Z</time></trkpt><trkpt lat="43.4060618" lon="10.8151186"><ele>220.0</ele><time>2026-05-01T11:29:06.943Z</time></trkpt><trkpt lat="43.406087" lon="10.8153485"><ele>220.0</ele><time>2026-05-01T11:29:07.947Z</time></trkpt><trkpt lat="43.4061146" lon="10.8155784"><ele>220.0</ele><time>2026-05-01T11:29:08.962Z</time></trkpt><trkpt lat="43.4061453" lon="10.8158055"><ele>220.0</ele><time>2026-05-01T11:29:09.954Z</time></trkpt><trkpt lat="43.4061874" lon="10.8160301"><ele>219.33333333333331</ele><time>2026-05-01T11:29:10.949Z</time></trkpt><trkpt lat="43.4062385" lon="10.8162539"><ele>218.66666666666669</ele><time>2026-05-01T11:29:11.954Z</time></trkpt><trkpt lat="43.4062951" lon="10.8164834"><ele>218.0</ele><time>2026-05-01T11:29:12.955Z</time></trkpt><trkpt lat="43.4063516" lon="10.8167149"><ele>222.66666666666669</ele><time>2026-05-01T11:29:13.946Z</time></trkpt><trkpt lat="43.4064069" lon="10.8169468"><ele>227.33333333333331</ele><time>2026-05-01T11:29:14.961Z</time></trkpt><trkpt lat="43.4064572" lon="10.8171667"><ele>232.0</ele><time>2026-05-01T11:29:15.945Z</time></trkpt><trkpt lat="43.4064855" lon="10.8173636"><ele>232.0</ele><time>2026-05-01T11:29:16.96Z</time></trkpt><trkpt lat="43.4064745" lon="10.8175312"><ele>232.0</ele><time>2026-05-01T11:29:17.961Z</time></trkpt><trkpt lat="43.4064174" lon="10.8176915"><ele>232.0</ele><time>2026-05-01T11:29:18.952Z</time></trkpt><trkpt lat="43.406324" lon="10.8178214"><ele>232.0</ele><time>2026-05-01T11:29:19.957Z</time></trkpt><trkpt lat="43.4062107" lon="10.8179503"><ele>231.0</ele><time>2026-05-01T11:29:20.953Z</time></trkpt><trkpt lat="43.4061071" lon="10.8180955"><ele>230.0</ele><time>2026-05-01T11:29:21.965Z</time></trkpt><trkpt lat="43.4060297" lon="10.8182547"><ele>229.0</ele><time>2026-05-01T11:29:22.955Z</time></trkpt><trkpt lat="43.4059994" lon="10.8184469"><ele>228.0</ele><time>2026-05-01T11:29:23.945Z</time></trkpt><trkpt lat="43.4060213" lon="10.8186269"><ele>227.5</ele><time>2026-05-01T11:29:24.952Z</time></trkpt><trkpt lat="43.4060769" lon="10.8187768"><ele>227.0</ele><time>2026-05-01T11:29:25.962Z</time></trkpt><trkpt lat="43.4061655" lon="10.8189059"><ele>226.5</ele><time>2026-05-01T11:29:26.959Z</time></trkpt><trkpt lat="43.4062747" lon="10.8190134"><ele>226.0</ele><time>2026-05-01T11:29:27.956Z</time></trkpt><trkpt lat="43.4063889" lon="10.8191083"><ele>226.75</ele><time>2026-05-01T11:29:28.96Z</time></trkpt><trkpt lat="43.4065029" lon="10.8192014"><ele>227.5</ele><time>2026-05-01T11:29:29.949Z</time></trkpt><trkpt lat="43.4066011" lon="10.8192935"><ele>228.25</ele><time>2026-05-01T11:29:30.951Z</time></trkpt><trkpt lat="43.4066957" lon="10.8193957"><ele>229.0</ele><time>2026-05-01T11:29:31.96Z</time></trkpt><trkpt lat="43.4067872" lon="10.8195078"><ele>229.0</ele><time>2026-05-01T11:29:32.955Z</time></trkpt><trkpt lat="43.4068779" lon="10.8196399"><ele>229.0</ele><time>2026-05-01T11:29:33.955Z</time></trkpt><trkpt lat="43.4069722" lon="10.8197739"><ele>229.0</ele><time>2026-05-01T11:29:34.946Z</time></trkpt><trkpt lat="43.4070786" lon="10.8199103"><ele>229.0</ele><time>2026-05-01T11:29:35.959Z</time></trkpt><trkpt lat="43.4071991" lon="10.8200196"><ele>231.0</ele><time>2026-05-01T11:29:36.953Z</time></trkpt><trkpt lat="43.4073246" lon="10.8201343"><ele>233.0</ele><time>2026-05-01T11:29:37.961Z</time></trkpt><trkpt lat="43.4074526" lon="10.8202499"><ele>235.0</ele><time>2026-05-01T11:29:38.953Z</time></trkpt><trkpt lat="43.4075818" lon="10.8203803"><ele>235.0</ele><time>2026-05-01T11:29:39.953Z</time></trkpt><trkpt lat="43.4076965" lon="10.8205351"><ele>235.0</ele><time>2026-05-01T11:29:40.966Z</time></trkpt><trkpt lat="43.4077963" lon="10.8207091"><ele>235.0</ele><time>2026-05-01T11:29:41.947Z</time></trkpt><trkpt lat="43.4078758" lon="10.8208974"><ele>235.33333333333331</ele><time>2026-05-01T11:29:42.949Z</time></trkpt><trkpt lat="43.4079352" lon="10.8211015"><ele>235.66666666666669</ele><time>2026-05-01T11:29:43.951Z</time></trkpt><trkpt lat="43.4079499" lon="10.8213306"><ele>236.0</ele><time>2026-05-01T11:29:44.956Z</time></trkpt><trkpt lat="43.4079459" lon="10.821555"><ele>236.0</ele><time>2026-05-01T11:29:45.952Z</time></trkpt><trkpt lat="43.4079393" lon="10.8217825"><ele>236.0</ele><time>2026-05-01T11:29:46.952Z</time></trkpt><trkpt lat="43.4079447" lon="10.8220037"><ele>236.0</ele><time>2026-05-01T11:29:47.945Z</time></trkpt><trkpt lat="43.4079656" lon="10.8222149"><ele>236.0</ele><time>2026-05-01T11:29:48.955Z</time></trkpt><trkpt lat="43.4080024" lon="10.8224075"><ele>236.0</ele><time>2026-05-01T11:29:49.958Z</time></trkpt><trkpt lat="43.4080425" lon="10.8225748"><ele>236.0</ele><time>2026-05-01T11:29:50.95Z</time></trkpt><trkpt lat="43.4080947" lon="10.8227298"><ele>236.0</ele><time>2026-05-01T11:29:51.951Z</time></trkpt><trkpt lat="43.4081496" lon="10.8228856"><ele>236.0</ele><time>2026-05-01T11:29:52.943Z</time></trkpt><trkpt lat="43.4082048" lon="10.8230521"><ele>236.0</ele><time>2026-05-01T11:29:53.961Z</time></trkpt><trkpt lat="43.4082516" lon="10.8232296"><ele>236.0</ele><time>2026-05-01T11:29:54.958Z</time></trkpt><trkpt lat="43.4082969" lon="10.8234132"><ele>236.0</ele><time>2026-05-01T11:29:55.945Z</time></trkpt><trkpt lat="43.408334" lon="10.8236003"><ele>237.25</ele><time>2026-05-01T11:29:56.946Z</time></trkpt><trkpt lat="43.4083491" lon="10.8237968"><ele>238.5</ele><time>2026-05-01T11:29:57.949Z</time></trkpt><trkpt lat="43.4083374" lon="10.8239997"><ele>239.75</ele><time>2026-05-01T11:29:58.96Z</time></trkpt><trkpt lat="43.4083042" lon="10.824195"><ele>241.0</ele><time>2026-05-01T11:29:59.957Z</time></trkpt><trkpt lat="43.4082495" lon="10.8243713"><ele>242.0</ele><time>2026-05-01T11:30:00.957Z</time></trkpt><trkpt lat="43.4081898" lon="10.8245365"><ele>243.0</ele><time>2026-05-01T11:30:01.947Z</time></trkpt><trkpt lat="43.4081413" lon="10.8246995"><ele>244.0</ele><time>2026-05-01T11:30:02.946Z</time></trkpt><trkpt lat="43.4081115" lon="10.8248549"><ele>245.0</ele><time>2026-05-01T11:30:03.953Z</time></trkpt><trkpt lat="43.4081099" lon="10.8250005"><ele>244.6</ele><time>2026-05-01T11:30:04.957Z</time></trkpt><trkpt lat="43.4081285" lon="10.825149"><ele>244.2</ele><time>2026-05-01T11:30:05.955Z</time></trkpt><trkpt lat="43.4081526" lon="10.8252963"><ele>243.8</ele><time>2026-05-01T11:30:06.952Z</time></trkpt><trkpt lat="43.4081759" lon="10.825445"><ele>243.4</ele><time>2026-05-01T11:30:07.949Z</time></trkpt><trkpt lat="43.4082" lon="10.8256031"><ele>243.0</ele><time>2026-05-01T11:30:08.952Z</time></trkpt><trkpt lat="43.4082194" lon="10.825767"><ele>243.0</ele><time>2026-05-01T11:30:09.941Z</time></trkpt><trkpt lat="43.4082371" lon="10.8259348"><ele>243.0</ele><time>2026-05-01T11:30:10.954Z</time></trkpt><trkpt lat="43.4082618" lon="10.8261052"><ele>243.0</ele><time>2026-05-01T11:30:11.961Z</time></trkpt><trkpt lat="43.4082864" lon="10.826283"><ele>243.0</ele><time>2026-05-01T11:30:12.953Z</time></trkpt><trkpt lat="43.4083123" lon="10.8264598"><ele>242.5</ele><time>2026-05-01T11:30:13.954Z</time></trkpt><trkpt lat="43.408335" lon="10.8266273"><ele>242.0</ele><time>2026-05-01T11:30:14.959Z</time></trkpt><trkpt lat="43.4083588" lon="10.8267857"><ele>241.5</ele><time>2026-05-01T11:30:15.936Z</time></trkpt><trkpt lat="43.4083787" lon="10.8269332"><ele>241.0</ele><time>2026-05-01T11:30:16.95Z</time></trkpt><trkpt lat="43.4083975" lon="10.8270809"><ele>242.0</ele><time>2026-05-01T11:30:17.956Z</time></trkpt><trkpt lat="43.4084177" lon="10.8272254"><ele>243.00000000000003</ele><time>2026-05-01T11:30:18.952Z</time></trkpt><trkpt lat="43.4084374" lon="10.8273662"><ele>244.00000000000003</ele><time>2026-05-01T11:30:19.954Z</time></trkpt><trkpt lat="43.4084596" lon="10.8275008"><ele>245.0</ele><time>2026-05-01T11:30:20.95Z</time></trkpt><trkpt lat="43.4084863" lon="10.8276339"><ele>246.0</ele><time>2026-05-01T11:30:21.943Z</time></trkpt><trkpt lat="43.4085225" lon="10.8277708"><ele>248.5</ele><time>2026-05-01T11:30:22.94Z</time></trkpt><trkpt lat="43.4085689" lon="10.8279105"><ele>251.0</ele><time>2026-05-01T11:30:23.953Z</time></trkpt><trkpt lat="43.4086246" lon="10.8280519"><ele>253.5</ele><time>2026-05-01T11:30:24.953Z</time></trkpt><trkpt lat="43.4086853" lon="10.828199"><ele>256.0</ele><time>2026-05-01T11:30:25.947Z</time></trkpt><trkpt lat="43.4087455" lon="10.8283562"><ele>257.75</ele><time>2026-05-01T11:30:26.945Z</time></trkpt><trkpt lat="43.4087963" lon="10.828528"><ele>259.5</ele><time>2026-05-01T11:30:27.966Z</time></trkpt><trkpt lat="43.4088393" lon="10.8287125"><ele>261.25</ele><time>2026-05-01T11:30:28.944Z</time></trkpt><trkpt lat="43.4088735" lon="10.82891"><ele>263.0</ele><time>2026-05-01T11:30:29.955Z</time></trkpt><trkpt lat="43.4088968" lon="10.8291212"><ele>261.75</ele><time>2026-05-01T11:30:30.942Z</time></trkpt><trkpt lat="43.4089171" lon="10.8293328"><ele>260.5</ele><time>2026-05-01T11:30:31.945Z</time></trkpt><trkpt lat="43.4089344" lon="10.8295305"><ele>259.25</ele><time>2026-05-01T11:30:32.966Z</time></trkpt><trkpt lat="43.4089663" lon="10.8297036"><ele>258.0</ele><time>2026-05-01T11:30:33.958Z</time></trkpt><trkpt lat="43.4090218" lon="10.8298401"><ele>258.0</ele><time>2026-05-01T11:30:34.949Z</time></trkpt><trkpt lat="43.4091045" lon="10.8299501"><ele>258.0</ele><time>2026-05-01T11:30:35.954Z</time></trkpt><trkpt lat="43.4092007" lon="10.830034"><ele>258.0</ele><time>2026-05-01T11:30:36.947Z</time></trkpt><trkpt lat="43.4092874" lon="10.8301389"><ele>258.0</ele><time>2026-05-01T11:30:37.947Z</time></trkpt><trkpt lat="43.4093471" lon="10.830264"><ele>260.25</ele><time>2026-05-01T11:30:38.941Z</time></trkpt><trkpt lat="43.4093709" lon="10.8304137"><ele>262.5</ele><time>2026-05-01T11:30:39.948Z</time></trkpt><trkpt lat="43.4093804" lon="10.8305759"><ele>264.75</ele><time>2026-05-01T11:30:40.956Z</time></trkpt><trkpt lat="43.4094151" lon="10.8307436"><ele>267.0</ele><time>2026-05-01T11:30:41.97Z</time></trkpt><trkpt lat="43.4094792" lon="10.8308943"><ele>268.4</ele><time>2026-05-01T11:30:42.952Z</time></trkpt><trkpt lat="43.4095444" lon="10.8310469"><ele>269.79999999999995</ele><time>2026-05-01T11:30:43.946Z</time></trkpt><trkpt lat="43.4095787" lon="10.8311787"><ele>271.2</ele><time>2026-05-01T11:30:44.949Z</time></trkpt><trkpt lat="43.409576" lon="10.8313052"><ele>272.59999999999997</ele><time>2026-05-01T11:30:45.949Z</time></trkpt><trkpt lat="43.4095438" lon="10.8314358"><ele>274.0</ele><time>2026-05-01T11:30:46.959Z</time></trkpt><trkpt lat="43.4094951" lon="10.8315539"><ele>274.0</ele><time>2026-05-01T11:30:47.954Z</time></trkpt><trkpt lat="43.4094645" lon="10.8317055"><ele>274.0</ele><time>2026-05-01T11:30:48.949Z</time></trkpt><trkpt lat="43.4094766" lon="10.8318531"><ele>274.0</ele><time>2026-05-01T11:30:49.945Z</time></trkpt><trkpt lat="43.4095112" lon="10.832003"><ele>274.0</ele><time>2026-05-01T11:30:50.953Z</time></trkpt><trkpt lat="43.4095434" lon="10.8321577"><ele>274.2</ele><time>2026-05-01T11:30:51.957Z</time></trkpt><trkpt lat="43.4095647" lon="10.8323138"><ele>274.4</ele><time>2026-05-01T11:30:52.952Z</time></trkpt><trkpt lat="43.4095662" lon="10.8324638"><ele>274.6</ele><time>2026-05-01T11:30:53.949Z</time></trkpt><trkpt lat="43.4095629" lon="10.8326039"><ele>274.8</ele><time>2026-05-01T11:30:54.95Z</time></trkpt><trkpt lat="43.4095337" lon="10.8327308"><ele>275.0</ele><time>2026-05-01T11:30:55.947Z</time></trkpt><trkpt lat="43.409487" lon="10.8328362"><ele>274.4</ele><time>2026-05-01T11:30:56.952Z</time></trkpt><trkpt lat="43.4094331" lon="10.8329183"><ele>273.8</ele><time>2026-05-01T11:30:57.944Z</time></trkpt><trkpt lat="43.4093835" lon="10.8329991"><ele>273.2</ele><time>2026-05-01T11:30:58.956Z</time></trkpt><trkpt lat="43.4093236" lon="10.8330812"><ele>272.6</ele><time>2026-05-01T11:30:59.942Z</time></trkpt><trkpt lat="43.4092483" lon="10.8331705"><ele>272.0</ele><time>2026-05-01T11:31:00.955Z</time></trkpt><trkpt lat="43.4091632" lon="10.8332712"><ele>272.0</ele><time>2026-05-01T11:31:01.946Z</time></trkpt><trkpt lat="43.4090719" lon="10.833381"><ele>272.0</ele><time>2026-05-01T11:31:02.951Z</time></trkpt><trkpt lat="43.4089772" lon="10.8334991"><ele>272.0</ele><time>2026-05-01T11:31:03.955Z</time></trkpt><trkpt lat="43.4088727" lon="10.8336291"><ele>272.0</ele><time>2026-05-01T11:31:04.953Z</time></trkpt><trkpt lat="43.4087632" lon="10.8337744"><ele>272.75</ele><time>2026-05-01T11:31:05.952Z</time></trkpt><trkpt lat="43.4086572" lon="10.8339221"><ele>273.5</ele><time>2026-05-01T11:31:06.948Z</time></trkpt><trkpt lat="43.4085669" lon="10.8340709"><ele>274.25</ele><time>2026-05-01T11:31:07.94Z</time></trkpt><trkpt lat="43.4084926" lon="10.8342398"><ele>275.0</ele><time>2026-05-01T11:31:08.949Z</time></trkpt><trkpt lat="43.4084452" lon="10.8344249"><ele>275.0</ele><time>2026-05-01T11:31:09.949Z</time></trkpt><trkpt lat="43.4084119" lon="10.8346042"><ele>275.0</ele><time>2026-05-01T11:31:10.945Z</time></trkpt><trkpt lat="43.4083566" lon="10.8347546"><ele>275.0</ele><time>2026-05-01T11:31:11.949Z</time></trkpt><trkpt lat="43.4082666" lon="10.8348819"><ele>275.0</ele><time>2026-05-01T11:31:12.958Z</time></trkpt><trkpt lat="43.4081486" lon="10.8349834"><ele>275.0</ele><time>2026-05-01T11:31:13.948Z</time></trkpt><trkpt lat="43.4080333" lon="10.8351078"><ele>275.0</ele><time>2026-05-01T11:31:14.947Z</time></trkpt><trkpt lat="43.407939" lon="10.8352815"><ele>275.0</ele><time>2026-05-01T11:31:15.959Z</time></trkpt><trkpt lat="43.4078707" lon="10.8354871"><ele>274.0</ele><time>2026-05-01T11:31:16.951Z</time></trkpt><trkpt lat="43.407811" lon="10.8357026"><ele>273.0</ele><time>2026-05-01T11:31:17.963Z</time></trkpt><trkpt lat="43.4077309" lon="10.835915"><ele>272.0</ele><time>2026-05-01T11:31:18.963Z</time></trkpt><trkpt lat="43.4076399" lon="10.836115"><ele>272.0</ele><time>2026-05-01T11:31:19.954Z</time></trkpt><trkpt lat="43.4075329" lon="10.8363008"><ele>272.0</ele><time>2026-05-01T11:31:20.956Z</time></trkpt><trkpt lat="43.4074081" lon="10.8364815"><ele>272.0</ele><time>2026-05-01T11:31:21.955Z</time></trkpt><trkpt lat="43.4072721" lon="10.8366604"><ele>271.6666666666667</ele><time>2026-05-01T11:31:22.942Z</time></trkpt><trkpt lat="43.4071399" lon="10.8368467"><ele>271.3333333333333</ele><time>2026-05-01T11:31:23.952Z</time></trkpt><trkpt lat="43.4070203" lon="10.8370581"><ele>271.0</ele><time>2026-05-01T11:31:24.955Z</time></trkpt><trkpt lat="43.4069139" lon="10.8372868"><ele>271.0</ele><time>2026-05-01T11:31:25.954Z</time></trkpt><trkpt lat="43.4068245" lon="10.8375159"><ele>271.0</ele><time>2026-05-01T11:31:26.945Z</time></trkpt><trkpt lat="43.4067465" lon="10.8377277"><ele>271.0</ele><time>2026-05-01T11:31:27.952Z</time></trkpt><trkpt lat="43.406666" lon="10.8379182"><ele>271.66666666666663</ele><time>2026-05-01T11:31:28.95Z</time></trkpt><trkpt lat="43.4065892" lon="10.838118"><ele>272.3333333333333</ele><time>2026-05-01T11:31:29.956Z</time></trkpt><trkpt lat="43.4065117" lon="10.8383168"><ele>273.0</ele><time>2026-05-01T11:31:30.953Z</time></trkpt><trkpt lat="43.4064323" lon="10.8385163"><ele>271.3333333333333</ele><time>2026-05-01T11:31:31.949Z</time></trkpt><trkpt lat="43.4063513" lon="10.8387192"><ele>269.66666666666663</ele><time>2026-05-01T11:31:32.955Z</time></trkpt><trkpt lat="43.4062662" lon="10.8389164"><ele>268.0</ele><time>2026-05-01T11:31:33.958Z</time></trkpt><trkpt lat="43.4061814" lon="10.8391121"><ele>275.66666666666663</ele><time>2026-05-01T11:31:34.941Z</time></trkpt><trkpt lat="43.4061027" lon="10.8393051"><ele>283.3333333333333</ele><time>2026-05-01T11:31:35.938Z</time></trkpt><trkpt lat="43.4060285" lon="10.8394962"><ele>291.0</ele><time>2026-05-01T11:31:36.95Z</time></trkpt><trkpt lat="43.4059755" lon="10.8397068"><ele>291.0</ele><time>2026-05-01T11:31:37.953Z</time></trkpt><trkpt lat="43.4059494" lon="10.8399334"><ele>291.0</ele><time>2026-05-01T11:31:38.944Z</time></trkpt><trkpt lat="43.40594" lon="10.8401601"><ele>291.0</ele><time>2026-05-01T11:31:39.95Z</time></trkpt><trkpt lat="43.4059401" lon="10.8403875"><ele>293.6666666666667</ele><time>2026-05-01T11:31:40.953Z</time></trkpt><trkpt lat="43.4059219" lon="10.8406011"><ele>296.33333333333337</ele><time>2026-05-01T11:31:41.945Z</time></trkpt><trkpt lat="43.4058888" lon="10.8408107"><ele>299.0</ele><time>2026-05-01T11:31:42.951Z</time></trkpt><trkpt lat="43.4058449" lon="10.8410091"><ele>299.5</ele><time>2026-05-01T11:31:43.968Z</time></trkpt><trkpt lat="43.4058118" lon="10.8412066"><ele>300.0</ele><time>2026-05-01T11:31:44.947Z</time></trkpt><trkpt lat="43.405794" lon="10.8414005"><ele>300.5</ele><time>2026-05-01T11:31:45.95Z</time></trkpt><trkpt lat="43.4057771" lon="10.8415795"><ele>301.0</ele><time>2026-05-01T11:31:46.946Z</time></trkpt><trkpt lat="43.4057471" lon="10.8417529"><ele>302.0</ele><time>2026-05-01T11:31:47.956Z</time></trkpt><trkpt lat="43.4057017" lon="10.8419154"><ele>303.0</ele><time>2026-05-01T11:31:48.949Z</time></trkpt><trkpt lat="43.4056476" lon="10.8420812"><ele>304.0</ele><time>2026-05-01T11:31:49.947Z</time></trkpt><trkpt lat="43.4055795" lon="10.8422409"><ele>305.0</ele><time>2026-05-01T11:31:50.967Z</time></trkpt><trkpt lat="43.4054916" lon="10.8423787"><ele>304.5</ele><time>2026-05-01T11:31:51.943Z</time></trkpt><trkpt lat="43.4054114" lon="10.8425146"><ele>304.0</ele><time>2026-05-01T11:31:52.956Z</time></trkpt><trkpt lat="43.4053646" lon="10.8426662"><ele>303.5</ele><time>2026-05-01T11:31:53.954Z</time></trkpt><trkpt lat="43.4053515" lon="10.8428408"><ele>303.0</ele><time>2026-05-01T11:31:54.956Z</time></trkpt><trkpt lat="43.4053515" lon="10.8430291"><ele>303.0</ele><time>2026-05-01T11:31:55.949Z</time></trkpt><trkpt lat="43.4053521" lon="10.8432231"><ele>303.0</ele><time>2026-05-01T11:31:56.95Z</time></trkpt><trkpt lat="43.4053341" lon="10.8434297"><ele>303.0</ele><time>2026-05-01T11:31:57.948Z</time></trkpt><trkpt lat="43.405313" lon="10.8436467"><ele>306.5</ele><time>2026-05-01T11:31:58.948Z</time></trkpt><trkpt lat="43.4053008" lon="10.843855"><ele>310.0</ele><time>2026-05-01T11:31:59.958Z</time></trkpt><trkpt lat="43.4052959" lon="10.8440466"><ele>313.5</ele><time>2026-05-01T11:32:00.961Z</time></trkpt><trkpt lat="43.4052861" lon="10.8442113"><ele>317.0</ele><time>2026-05-01T11:32:01.953Z</time></trkpt><trkpt lat="43.4052459" lon="10.8443448"><ele>320.6</ele><time>2026-05-01T11:32:02.948Z</time></trkpt><trkpt lat="43.4051886" lon="10.844456"><ele>324.2</ele><time>2026-05-01T11:32:03.947Z</time></trkpt><trkpt lat="43.4051183" lon="10.8445229"><ele>327.8</ele><time>2026-05-01T11:32:04.944Z</time></trkpt><trkpt lat="43.4050431" lon="10.8445223"><ele>331.4</ele><time>2026-05-01T11:32:05.956Z</time></trkpt><trkpt lat="43.4049646" lon="10.8444457"><ele>335.0</ele><time>2026-05-01T11:32:06.942Z</time></trkpt><trkpt lat="43.4048825" lon="10.8443502"><ele>334.0</ele><time>2026-05-01T11:32:07.942Z</time></trkpt><trkpt lat="43.404803" lon="10.8442884"><ele>333.0</ele><time>2026-05-01T11:32:08.951Z</time></trkpt><trkpt lat="43.4047255" lon="10.8442643"><ele>332.0</ele><time>2026-05-01T11:32:09.955Z</time></trkpt><trkpt lat="43.4046594" lon="10.8443246"><ele>331.0</ele><time>2026-05-01T11:32:10.951Z</time></trkpt><trkpt lat="43.4046125" lon="10.84442"><ele>330.0</ele><time>2026-05-01T11:32:11.968Z</time></trkpt><trkpt lat="43.4045663" lon="10.8445414"><ele>329.0</ele><time>2026-05-01T11:32:12.95Z</time></trkpt><trkpt lat="43.4045134" lon="10.8446802"><ele>329.0</ele><time>2026-05-01T11:32:13.951Z</time></trkpt><trkpt lat="43.4044316" lon="10.8448172"><ele>329.0</ele><time>2026-05-01T11:32:14.947Z</time></trkpt><trkpt lat="43.4043453" lon="10.8449247"><ele>329.0</ele><time>2026-05-01T11:32:15.961Z</time></trkpt><trkpt lat="43.4042531" lon="10.8449843"><ele>329.0</ele><time>2026-05-01T11:32:16.959Z</time></trkpt><trkpt lat="43.4041472" lon="10.8450149"><ele>329.0</ele><time>2026-05-01T11:32:17.931Z</time></trkpt><trkpt lat="43.4040389" lon="10.8450078"><ele>329.0</ele><time>2026-05-01T11:32:18.954Z</time></trkpt><trkpt lat="43.403911" lon="10.8450005"><ele>329.0</ele><time>2026-05-01T11:32:19.947Z</time></trkpt><trkpt lat="43.4037755" lon="10.8449999"><ele>329.0</ele><time>2026-05-01T11:32:20.957Z</time></trkpt><trkpt lat="43.4036297" lon="10.8450125"><ele>329.5</ele><time>2026-05-01T11:32:21.941Z</time></trkpt><trkpt lat="43.4035059" lon="10.844998"><ele>330.0</ele><time>2026-05-01T11:32:22.947Z</time></trkpt><trkpt lat="43.4033979" lon="10.8449916"><ele>330.5</ele><time>2026-05-01T11:32:23.954Z</time></trkpt><trkpt lat="43.4032906" lon="10.8450102"><ele>331.0</ele><time>2026-05-01T11:32:24.949Z</time></trkpt><trkpt lat="43.4031871" lon="10.8450895"><ele>334.0</ele><time>2026-05-01T11:32:25.947Z</time></trkpt><trkpt lat="43.4030819" lon="10.8452147"><ele>337.0</ele><time>2026-05-01T11:32:26.949Z</time></trkpt><trkpt lat="43.4029577" lon="10.8453517"><ele>340.0</ele><time>2026-05-01T11:32:27.95Z</time></trkpt><trkpt lat="43.4028198" lon="10.8454862"><ele>340.0</ele><time>2026-05-01T11:32:28.945Z</time></trkpt><trkpt lat="43.4026723" lon="10.8456251"><ele>340.0</ele><time>2026-05-01T11:32:29.944Z</time></trkpt><trkpt lat="43.402516" lon="10.8457712"><ele>340.0</ele><time>2026-05-01T11:32:30.939Z</time></trkpt><trkpt lat="43.4023525" lon="10.8459104"><ele>342.66666666666663</ele><time>2026-05-01T11:32:31.955Z</time></trkpt><trkpt lat="43.4022051" lon="10.8460222"><ele>345.3333333333333</ele><time>2026-05-01T11:32:32.961Z</time></trkpt><trkpt lat="43.402077" lon="10.846126"><ele>348.0</ele><time>2026-05-01T11:32:33.949Z</time></trkpt><trkpt lat="43.4019666" lon="10.8462287"><ele>348.0</ele><time>2026-05-01T11:32:34.947Z</time></trkpt><trkpt lat="43.4018792" lon="10.8463361"><ele>348.0</ele><time>2026-05-01T11:32:35.949Z</time></trkpt><trkpt lat="43.4018056" lon="10.8464669"><ele>348.0</ele><time>2026-05-01T11:32:36.952Z</time></trkpt><trkpt lat="43.4017387" lon="10.8465886"><ele>348.0</ele><time>2026-05-01T11:32:37.949Z</time></trkpt><trkpt lat="43.4016495" lon="10.8466904"><ele>348.0</ele><time>2026-05-01T11:32:38.959Z</time></trkpt><trkpt lat="43.4015408" lon="10.8467465"><ele>348.0</ele><time>2026-05-01T11:32:39.958Z</time></trkpt><trkpt lat="43.4014114" lon="10.8467788"><ele>348.0</ele><time>2026-05-01T11:32:40.952Z</time></trkpt><trkpt lat="43.4012787" lon="10.8467904"><ele>348.0</ele><time>2026-05-01T11:32:41.956Z</time></trkpt><trkpt lat="43.4011396" lon="10.8467993"><ele>350.5</ele><time>2026-05-01T11:32:42.955Z</time></trkpt><trkpt lat="43.4010047" lon="10.8468194"><ele>353.0</ele><time>2026-05-01T11:32:43.946Z</time></trkpt><trkpt lat="43.4008716" lon="10.8468486"><ele>355.5</ele><time>2026-05-01T11:32:44.958Z</time></trkpt><trkpt lat="43.4007517" lon="10.8469076"><ele>358.0</ele><time>2026-05-01T11:32:45.947Z</time></trkpt><trkpt lat="43.4006421" lon="10.8470014"><ele>358.0</ele><time>2026-05-01T11:32:46.959Z</time></trkpt><trkpt lat="43.400536" lon="10.8471176"><ele>358.0</ele><time>2026-05-01T11:32:47.952Z</time></trkpt><trkpt lat="43.400426" lon="10.8472382"><ele>358.0</ele><time>2026-05-01T11:32:48.948Z</time></trkpt><trkpt lat="43.4003132" lon="10.8473717"><ele>358.0</ele><time>2026-05-01T11:32:49.942Z</time></trkpt><trkpt lat="43.4002195" lon="10.8475322"><ele>359.0</ele><time>2026-05-01T11:32:50.951Z</time></trkpt><trkpt lat="43.4001356" lon="10.8477117"><ele>360.0</ele><time>2026-05-01T11:32:51.949Z</time></trkpt><trkpt lat="43.4000593" lon="10.8479031"><ele>361.0</ele><time>2026-05-01T11:32:52.955Z</time></trkpt><trkpt lat="43.3999802" lon="10.848084"><ele>361.0</ele><time>2026-05-01T11:32:53.948Z</time></trkpt><trkpt lat="43.3998963" lon="10.848239"><ele>361.0</ele><time>2026-05-01T11:32:54.955Z</time></trkpt><trkpt lat="43.3997804" lon="10.8483458"><ele>361.0</ele><time>2026-05-01T11:32:55.954Z</time></trkpt><trkpt lat="43.3996804" lon="10.8484169"><ele>361.0</ele><time>2026-05-01T11:32:56.948Z</time></trkpt><trkpt lat="43.3995856" lon="10.8484988"><ele>362.25</ele><time>2026-05-01T11:32:57.949Z</time></trkpt><trkpt lat="43.3995359" lon="10.8486188"><ele>363.5</ele><time>2026-05-01T11:32:58.958Z</time></trkpt><trkpt lat="43.3995215" lon="10.8487948"><ele>364.75</ele><time>2026-05-01T11:32:59.959Z</time></trkpt><trkpt lat="43.3995303" lon="10.8489791"><ele>366.0</ele><time>2026-05-01T11:33:00.947Z</time></trkpt><trkpt lat="43.3995624" lon="10.8491834"><ele>369.3333333333333</ele><time>2026-05-01T11:33:01.957Z</time></trkpt><trkpt lat="43.3995975" lon="10.8494077"><ele>372.66666666666663</ele><time>2026-05-01T11:33:02.955Z</time></trkpt><trkpt lat="43.3996261" lon="10.849636"><ele>376.0</ele><time>2026-05-01T11:33:03.956Z</time></trkpt><trkpt lat="43.3996469" lon="10.8498377"><ele>376.0</ele><time>2026-05-01T11:33:04.939Z</time></trkpt><trkpt lat="43.399651" lon="10.8500006"><ele>376.0</ele><time>2026-05-01T11:33:05.956Z</time></trkpt><trkpt lat="43.3996262" lon="10.8501222"><ele>376.0</ele><time>2026-05-01T11:33:06.954Z</time></trkpt><trkpt lat="43.399519" lon="10.8501513"><ele>376.0</ele><time>2026-05-01T11:33:08.95Z</time></trkpt><trkpt lat="43.3994593" lon="10.8500757"><ele>376.0</ele><time>2026-05-01T11:33:09.947Z</time></trkpt><trkpt lat="43.3994029" lon="10.8499573"><ele>376.0</ele><time>2026-05-01T11:33:10.952Z</time></trkpt><trkpt lat="43.3993433" lon="10.8498417"><ele>376.0</ele><time>2026-05-01T11:33:11.945Z</time></trkpt><trkpt lat="43.3992737" lon="10.8497279"><ele>376.0</ele><time>2026-05-01T11:33:12.959Z</time></trkpt><trkpt lat="43.39918" lon="10.8496139"><ele>376.0</ele><time>2026-05-01T11:33:13.957Z</time></trkpt><trkpt lat="43.3990715" lon="10.8494959"><ele>376.0</ele><time>2026-05-01T11:33:14.955Z</time></trkpt><trkpt lat="43.3989417" lon="10.8493743"><ele>376.0</ele><time>2026-05-01T11:33:15.952Z</time></trkpt><trkpt lat="43.3988116" lon="10.849257"><ele>376.0</ele><time>2026-05-01T11:33:16.946Z</time></trkpt><trkpt lat="43.3986814" lon="10.8491375"><ele>375.6</ele><time>2026-05-01T11:33:17.953Z</time></trkpt><trkpt lat="43.3985687" lon="10.849034"><ele>375.20000000000005</ele><time>2026-05-01T11:33:18.955Z</time></trkpt><trkpt lat="43.3984696" lon="10.8489601"><ele>374.79999999999995</ele><time>2026-05-01T11:33:19.958Z</time></trkpt><trkpt lat="43.3983766" lon="10.8489201"><ele>374.4</ele><time>2026-05-01T11:33:20.951Z</time></trkpt><trkpt lat="43.3983049" lon="10.8489209"><ele>374.0</ele><time>2026-05-01T11:33:21.958Z</time></trkpt><trkpt lat="43.398239" lon="10.8489567"><ele>374.0</ele><time>2026-05-01T11:33:22.953Z</time></trkpt><trkpt lat="43.3982295" lon="10.8490812"><ele>374.0</ele><time>2026-05-01T11:33:24.947Z</time></trkpt><trkpt lat="43.3982896" lon="10.8491322"><ele>374.0</ele><time>2026-05-01T11:33:25.944Z</time></trkpt><trkpt lat="43.3983748" lon="10.8491838"><ele>374.0</ele><time>2026-05-01T11:33:26.952Z</time></trkpt><trkpt lat="43.3984622" lon="10.8492473"><ele>374.0</ele><time>2026-05-01T11:33:27.942Z</time></trkpt><trkpt lat="43.3985461" lon="10.8493855"><ele>376.25</ele><time>2026-05-01T11:33:28.951Z</time></trkpt><trkpt lat="43.3986177" lon="10.8495466"><ele>378.5</ele><time>2026-05-01T11:33:29.942Z</time></trkpt><trkpt lat="43.3986956" lon="10.8497277"><ele>380.75</ele><time>2026-05-01T11:33:30.955Z</time></trkpt><trkpt lat="43.3987666" lon="10.849911"><ele>383.0</ele><time>2026-05-01T11:33:31.948Z</time></trkpt><trkpt lat="43.3988326" lon="10.8500849"><ele>383.59999999999997</ele><time>2026-05-01T11:33:32.959Z</time></trkpt><trkpt lat="43.3988906" lon="10.8502354"><ele>384.2</ele><time>2026-05-01T11:33:33.948Z</time></trkpt><trkpt lat="43.3989334" lon="10.8503635"><ele>384.8</ele><time>2026-05-01T11:33:34.951Z</time></trkpt><trkpt lat="43.3989355" lon="10.8504637"><ele>385.4</ele><time>2026-05-01T11:33:35.947Z</time></trkpt><trkpt lat="43.3988997" lon="10.8505412"><ele>386.0</ele><time>2026-05-01T11:33:36.957Z</time></trkpt><trkpt lat="43.3988174" lon="10.8505705"><ele>387.5</ele><time>2026-05-01T11:33:37.957Z</time></trkpt><trkpt lat="43.3987082" lon="10.8505622"><ele>389.0</ele><time>2026-05-01T11:33:38.952Z</time></trkpt><trkpt lat="43.3985722" lon="10.8505435"><ele>390.5</ele><time>2026-05-01T11:33:39.952Z</time></trkpt><trkpt lat="43.3984571" lon="10.8505667"><ele>392.0</ele><time>2026-05-01T11:33:40.948Z</time></trkpt><trkpt lat="43.398364" lon="10.8506497"><ele>391.99999999999994</ele><time>2026-05-01T11:33:41.962Z</time></trkpt><trkpt lat="43.3982934" lon="10.8507757"><ele>392.0</ele><time>2026-05-01T11:33:42.947Z</time></trkpt><trkpt lat="43.3982596" lon="10.8508857"><ele>392.0</ele><time>2026-05-01T11:33:43.956Z</time></trkpt><trkpt lat="43.3982414" lon="10.8509699"><ele>392.0</ele><time>2026-05-01T11:33:44.949Z</time></trkpt><trkpt lat="43.3982324" lon="10.8510765"><ele>391.99999999999994</ele><time>2026-05-01T11:33:47.954Z</time></trkpt><trkpt lat="43.3982882" lon="10.8511595"><ele>392.0</ele><time>2026-05-01T11:33:49.956Z</time></trkpt><trkpt lat="43.3983489" lon="10.8512185"><ele>393.20000000000005</ele><time>2026-05-01T11:33:50.957Z</time></trkpt><trkpt lat="43.3984135" lon="10.8512818"><ele>394.4</ele><time>2026-05-01T11:33:51.939Z</time></trkpt><trkpt lat="43.3984648" lon="10.8513652"><ele>395.6</ele><time>2026-05-01T11:33:52.952Z</time></trkpt><trkpt lat="43.3985119" lon="10.8514942"><ele>396.79999999999995</ele><time>2026-05-01T11:33:53.952Z</time></trkpt><trkpt lat="43.3985473" lon="10.851644"><ele>398.0</ele><time>2026-05-01T11:33:54.95Z</time></trkpt><trkpt lat="43.3985809" lon="10.8518086"><ele>399.25</ele><time>2026-05-01T11:33:55.96Z</time></trkpt><trkpt lat="43.3986177" lon="10.8519572"><ele>400.5</ele><time>2026-05-01T11:33:56.944Z</time></trkpt><trkpt lat="43.3986553" lon="10.8521038"><ele>401.75</ele><time>2026-05-01T11:33:57.944Z</time></trkpt><trkpt lat="43.3987" lon="10.8522629"><ele>403.0</ele><time>2026-05-01T11:33:58.944Z</time></trkpt><trkpt lat="43.3987624" lon="10.852413"><ele>402.5</ele><time>2026-05-01T11:33:59.951Z</time></trkpt><trkpt lat="43.3988528" lon="10.8525405"><ele>402.0</ele><time>2026-05-01T11:34:00.951Z</time></trkpt><trkpt lat="43.3989555" lon="10.8526596"><ele>401.5</ele><time>2026-05-01T11:34:01.937Z</time></trkpt><trkpt lat="43.399048" lon="10.8527708"><ele>401.0</ele><time>2026-05-01T11:34:02.954Z</time></trkpt><trkpt lat="43.3991365" lon="10.8528822"><ele>403.25</ele><time>2026-05-01T11:34:03.95Z</time></trkpt><trkpt lat="43.3992239" lon="10.8529926"><ele>405.5</ele><time>2026-05-01T11:34:04.96Z</time></trkpt><trkpt lat="43.3993153" lon="10.8530844"><ele>407.75</ele><time>2026-05-01T11:34:05.955Z</time></trkpt><trkpt lat="43.3994204" lon="10.8531279"><ele>410.0</ele><time>2026-05-01T11:34:06.95Z</time></trkpt><trkpt lat="43.3995287" lon="10.8531163"><ele>410.0</ele><time>2026-05-01T11:34:07.957Z</time></trkpt><trkpt lat="43.399625" lon="10.8530553"><ele>410.0</ele><time>2026-05-01T11:34:08.944Z</time></trkpt><trkpt lat="43.3997192" lon="10.8529449"><ele>410.0</ele><time>2026-05-01T11:34:09.939Z</time></trkpt><trkpt lat="43.3998188" lon="10.8527809"><ele>410.0</ele><time>2026-05-01T11:34:10.957Z</time></trkpt><trkpt lat="43.3999334" lon="10.8525884"><ele>410.3333333333333</ele><time>2026-05-01T11:34:11.946Z</time></trkpt><trkpt lat="43.4000841" lon="10.8524184"><ele>410.66666666666663</ele><time>2026-05-01T11:34:12.953Z</time></trkpt><trkpt lat="43.4002646" lon="10.8522517"><ele>411.0</ele><time>2026-05-01T11:34:13.952Z</time></trkpt><trkpt lat="43.4004723" lon="10.8520744"><ele>411.66666666666663</ele><time>2026-05-01T11:34:14.943Z</time></trkpt><trkpt lat="43.4006504" lon="10.8518942"><ele>412.3333333333333</ele><time>2026-05-01T11:34:15.942Z</time></trkpt><trkpt lat="43.4007894" lon="10.8517553"><ele>413.0</ele><time>2026-05-01T11:34:16.951Z</time></trkpt><trkpt lat="43.4009168" lon="10.8516507"><ele>413.0</ele><time>2026-05-01T11:34:17.937Z</time></trkpt><trkpt lat="43.4010555" lon="10.8515919"><ele>413.0</ele><time>2026-05-01T11:34:18.945Z</time></trkpt><trkpt lat="43.4012122" lon="10.8515442"><ele>413.0</ele><time>2026-05-01T11:34:19.942Z</time></trkpt><trkpt lat="43.4013701" lon="10.8514884"><ele>416.25</ele><time>2026-05-01T11:34:20.948Z</time></trkpt><trkpt lat="43.4015253" lon="10.8514348"><ele>419.5</ele><time>2026-05-01T11:34:21.95Z</time></trkpt><trkpt lat="43.4016731" lon="10.851381"><ele>422.75</ele><time>2026-05-01T11:34:22.953Z</time></trkpt><trkpt lat="43.4017979" lon="10.8513321"><ele>426.0</ele><time>2026-05-01T11:34:23.95Z</time></trkpt><trkpt lat="43.4019045" lon="10.8513025"><ele>426.0</ele><time>2026-05-01T11:34:24.952Z</time></trkpt><trkpt lat="43.4019846" lon="10.8513389"><ele>426.0</ele><time>2026-05-01T11:34:25.947Z</time></trkpt><trkpt lat="43.4020171" lon="10.8514183"><ele>426.0</ele><time>2026-05-01T11:34:26.947Z</time></trkpt><trkpt lat="43.4019918" lon="10.8515139"><ele>426.0</ele><time>2026-05-01T11:34:27.957Z</time></trkpt><trkpt lat="43.4019369" lon="10.8516019"><ele>426.0</ele><time>2026-05-01T11:34:28.944Z</time></trkpt><trkpt lat="43.4018451" lon="10.8516725"><ele>426.0</ele><time>2026-05-01T11:34:29.951Z</time></trkpt><trkpt lat="43.4017198" lon="10.8517476"><ele>425.0</ele><time>2026-05-01T11:34:30.946Z</time></trkpt><trkpt lat="43.4015812" lon="10.8518291"><ele>424.0</ele><time>2026-05-01T11:34:31.946Z</time></trkpt><trkpt lat="43.4014466" lon="10.8519366"><ele>423.0</ele><time>2026-05-01T11:34:32.954Z</time></trkpt><trkpt lat="43.4013287" lon="10.8520624"><ele>423.0</ele><time>2026-05-01T11:34:33.956Z</time></trkpt><trkpt lat="43.4012261" lon="10.8521812"><ele>423.0</ele><time>2026-05-01T11:34:34.943Z</time></trkpt><trkpt lat="43.4011339" lon="10.852311"><ele>423.0</ele><time>2026-05-01T11:34:35.949Z</time></trkpt><trkpt lat="43.4010648" lon="10.8524539"><ele>423.0</ele><time>2026-05-01T11:34:36.951Z</time></trkpt><trkpt lat="43.4010223" lon="10.8526091"><ele>425.0</ele><time>2026-05-01T11:34:37.947Z</time></trkpt><trkpt lat="43.4010102" lon="10.8527902"><ele>427.0</ele><time>2026-05-01T11:34:38.951Z</time></trkpt><trkpt lat="43.4009991" lon="10.8529807"><ele>429.0</ele><time>2026-05-01T11:34:39.952Z</time></trkpt><trkpt lat="43.4009705" lon="10.853172"><ele>431.0</ele><time>2026-05-01T11:34:40.958Z</time></trkpt><trkpt lat="43.4009143" lon="10.8533797"><ele>433.66666666666663</ele><time>2026-05-01T11:34:41.944Z</time></trkpt><trkpt lat="43.4008451" lon="10.8535653"><ele>436.33333333333337</ele><time>2026-05-01T11:34:42.956Z</time></trkpt><trkpt lat="43.4007757" lon="10.8537551"><ele>439.0</ele><time>2026-05-01T11:34:43.947Z</time></trkpt><trkpt lat="43.4007201" lon="10.853939"><ele>439.0</ele><time>2026-05-01T11:34:44.944Z</time></trkpt><trkpt lat="43.4006926" lon="10.8541243"><ele>439.0</ele><time>2026-05-01T11:34:45.951Z</time></trkpt><trkpt lat="43.4006699" lon="10.8543003"><ele>439.0</ele><time>2026-05-01T11:34:46.956Z</time></trkpt><trkpt lat="43.4006391" lon="10.8544716"><ele>439.0</ele><time>2026-05-01T11:34:47.96Z</time></trkpt><trkpt lat="43.4005714" lon="10.8546096"><ele>439.25</ele><time>2026-05-01T11:34:48.955Z</time></trkpt><trkpt lat="43.4004828" lon="10.8547506"><ele>439.5</ele><time>2026-05-01T11:34:49.943Z</time></trkpt><trkpt lat="43.4003812" lon="10.8548615"><ele>439.75</ele><time>2026-05-01T11:34:50.956Z</time></trkpt><trkpt lat="43.4002601" lon="10.8549649"><ele>440.0</ele><time>2026-05-01T11:34:51.931Z</time></trkpt><trkpt lat="43.4001396" lon="10.855054"><ele>443.5</ele><time>2026-05-01T11:34:52.948Z</time></trkpt><trkpt lat="43.4000164" lon="10.8551425"><ele>447.0</ele><time>2026-05-01T11:34:53.946Z</time></trkpt><trkpt lat="43.399901" lon="10.8552316"><ele>450.5</ele><time>2026-05-01T11:34:54.959Z</time></trkpt><trkpt lat="43.3997842" lon="10.8553203"><ele>454.0</ele><time>2026-05-01T11:34:55.954Z</time></trkpt><trkpt lat="43.3996696" lon="10.8553931"><ele>453.5</ele><time>2026-05-01T11:34:56.955Z</time></trkpt><trkpt lat="43.399546" lon="10.8554486"><ele>453.0</ele><time>2026-05-01T11:34:57.955Z</time></trkpt><trkpt lat="43.3994201" lon="10.8554816"><ele>452.5</ele><time>2026-05-01T11:34:58.951Z</time></trkpt><trkpt lat="43.3992948" lon="10.8555043"><ele>452.0</ele><time>2026-05-01T11:34:59.944Z</time></trkpt><trkpt lat="43.3991697" lon="10.85553"><ele>452.0</ele><time>2026-05-01T11:35:00.956Z</time></trkpt><trkpt lat="43.3990455" lon="10.8555497"><ele>452.0</ele><time>2026-05-01T11:35:01.94Z</time></trkpt><trkpt lat="43.3989437" lon="10.8556131"><ele>452.0</ele><time>2026-05-01T11:35:02.948Z</time></trkpt><trkpt lat="43.3988776" lon="10.8557374"><ele>452.0</ele><time>2026-05-01T11:35:03.954Z</time></trkpt><trkpt lat="43.3988487" lon="10.8558747"><ele>451.20000000000005</ele><time>2026-05-01T11:35:04.949Z</time></trkpt><trkpt lat="43.3988427" lon="10.856021"><ele>450.40000000000003</ele><time>2026-05-01T11:35:05.942Z</time></trkpt><trkpt lat="43.3988287" lon="10.8561596"><ele>449.59999999999997</ele><time>2026-05-01T11:35:06.949Z</time></trkpt><trkpt lat="43.3988141" lon="10.856303"><ele>448.79999999999995</ele><time>2026-05-01T11:35:07.946Z</time></trkpt><trkpt lat="43.3988077" lon="10.856457"><ele>448.0</ele><time>2026-05-01T11:35:08.962Z</time></trkpt><trkpt lat="43.398811" lon="10.8566144"><ele>448.0</ele><time>2026-05-01T11:35:09.949Z</time></trkpt><trkpt lat="43.3988106" lon="10.8567685"><ele>447.99999999999994</ele><time>2026-05-01T11:35:10.948Z</time></trkpt><trkpt lat="43.3988146" lon="10.8569232"><ele>447.99999999999994</ele><time>2026-05-01T11:35:11.963Z</time></trkpt><trkpt lat="43.3988139" lon="10.8570694"><ele>448.0</ele><time>2026-05-01T11:35:12.964Z</time></trkpt><trkpt lat="43.3987998" lon="10.8572101"><ele>448.0</ele><time>2026-05-01T11:35:13.955Z</time></trkpt><trkpt lat="43.3987773" lon="10.8573475"><ele>449.2</ele><time>2026-05-01T11:35:14.962Z</time></trkpt><trkpt lat="43.3987369" lon="10.8574801"><ele>450.4</ele><time>2026-05-01T11:35:15.957Z</time></trkpt><trkpt lat="43.3986878" lon="10.8576017"><ele>451.59999999999997</ele><time>2026-05-01T11:35:16.935Z</time></trkpt><trkpt lat="43.3986426" lon="10.8577177"><ele>452.79999999999995</ele><time>2026-05-01T11:35:17.947Z</time></trkpt><trkpt lat="43.398608" lon="10.857822"><ele>454.0</ele><time>2026-05-01T11:35:18.947Z</time></trkpt><trkpt lat="43.3985772" lon="10.857924"><ele>454.4</ele><time>2026-05-01T11:35:19.952Z</time></trkpt><trkpt lat="43.3985496" lon="10.8580278"><ele>454.79999999999995</ele><time>2026-05-01T11:35:20.952Z</time></trkpt><trkpt lat="43.3985291" lon="10.8581459"><ele>455.20000000000005</ele><time>2026-05-01T11:35:21.951Z</time></trkpt><trkpt lat="43.3985263" lon="10.8582818"><ele>455.6</ele><time>2026-05-01T11:35:22.948Z</time></trkpt><trkpt lat="43.3985479" lon="10.8584261"><ele>456.0</ele><time>2026-05-01T11:35:23.953Z</time></trkpt><trkpt lat="43.3985717" lon="10.8585753"><ele>456.20000000000005</ele><time>2026-05-01T11:35:24.952Z</time></trkpt><trkpt lat="43.3985896" lon="10.8587279"><ele>456.40000000000003</ele><time>2026-05-01T11:35:25.95Z</time></trkpt><trkpt lat="43.3985967" lon="10.8588816"><ele>456.6</ele><time>2026-05-01T11:35:26.95Z</time></trkpt><trkpt lat="43.3986039" lon="10.8590236"><ele>456.8</ele><time>2026-05-01T11:35:27.952Z</time></trkpt><trkpt lat="43.3985976" lon="10.8591431"><ele>457.0</ele><time>2026-05-01T11:35:28.95Z</time></trkpt><trkpt lat="43.3986007" lon="10.8592378"><ele>457.50000000000006</ele><time>2026-05-01T11:35:29.949Z</time></trkpt><trkpt lat="43.398648" lon="10.859365"><ele>458.0</ele><time>2026-05-01T11:35:31.953Z</time></trkpt><trkpt lat="43.3987552" lon="10.8593948"><ele>458.5</ele><time>2026-05-01T11:35:33.951Z</time></trkpt><trkpt lat="43.3988081" lon="10.8593468"><ele>459.0</ele><time>2026-05-01T11:35:34.95Z</time></trkpt><trkpt lat="43.3988515" lon="10.8592554"><ele>459.50000000000006</ele><time>2026-05-01T11:35:35.959Z</time></trkpt><trkpt lat="43.3988928" lon="10.859142"><ele>460.0</ele><time>2026-05-01T11:35:36.957Z</time></trkpt><trkpt lat="43.3989302" lon="10.85904"><ele>463.33333333333337</ele><time>2026-05-01T11:35:37.949Z</time></trkpt><trkpt lat="43.3989715" lon="10.8589472"><ele>466.6666666666667</ele><time>2026-05-01T11:35:38.952Z</time></trkpt><trkpt lat="43.3990186" lon="10.858852"><ele>470.0</ele><time>2026-05-01T11:35:39.952Z</time></trkpt><trkpt lat="43.3990668" lon="10.858765"><ele>473.33333333333337</ele><time>2026-05-01T11:35:40.952Z</time></trkpt><trkpt lat="43.3991208" lon="10.8586898"><ele>476.6666666666667</ele><time>2026-05-01T11:35:41.943Z</time></trkpt><trkpt lat="43.3991829" lon="10.858618"><ele>480.0</ele><time>2026-05-01T11:35:42.943Z</time></trkpt><trkpt lat="43.399244" lon="10.8585587"><ele>480.0</ele><time>2026-05-01T11:35:43.944Z</time></trkpt><trkpt lat="43.3993125" lon="10.8585054"><ele>480.0</ele><time>2026-05-01T11:35:44.959Z</time></trkpt><trkpt lat="43.3993797" lon="10.8584571"><ele>480.0</ele><time>2026-05-01T11:35:45.964Z</time></trkpt><trkpt lat="43.3994506" lon="10.858414"><ele>480.0</ele><time>2026-05-01T11:35:46.945Z</time></trkpt><trkpt lat="43.3995252" lon="10.8583809"><ele>480.0</ele><time>2026-05-01T11:35:47.965Z</time></trkpt><trkpt lat="43.3996009" lon="10.8583539"><ele>480.0</ele><time>2026-05-01T11:35:48.949Z</time></trkpt><trkpt lat="43.3996807" lon="10.8583232"><ele>481.0</ele><time>2026-05-01T11:35:49.958Z</time></trkpt><trkpt lat="43.3997597" lon="10.8582913"><ele>482.0</ele><time>2026-05-01T11:35:50.936Z</time></trkpt><trkpt lat="43.3998429" lon="10.8582599"><ele>483.0</ele><time>2026-05-01T11:35:51.955Z</time></trkpt><trkpt lat="43.3999285" lon="10.8582276"><ele>484.0</ele><time>2026-05-01T11:35:52.955Z</time></trkpt><trkpt lat="43.4000131" lon="10.858199"><ele>485.0</ele><time>2026-05-01T11:35:53.954Z</time></trkpt><trkpt lat="43.4000928" lon="10.8581752"><ele>486.0</ele><time>2026-05-01T11:35:54.94Z</time></trkpt><trkpt lat="43.4001849" lon="10.8581371"><ele>486.0</ele><time>2026-05-01T11:35:56.956Z</time></trkpt><trkpt lat="43.4002538" lon="10.858092"><ele>486.0</ele><time>2026-05-01T11:35:58.957Z</time></trkpt><trkpt lat="43.400349" lon="10.8580616"><ele>486.0</ele><time>2026-05-01T11:36:00.95Z</time></trkpt><trkpt lat="43.4004251" lon="10.85812"><ele>486.0</ele><time>2026-05-01T11:36:02.942Z</time></trkpt><trkpt lat="43.4003997" lon="10.8582674"><ele>486.0</ele><time>2026-05-01T11:36:04.952Z</time></trkpt><trkpt lat="43.4003541" lon="10.8583493"><ele>486.0</ele><time>2026-05-01T11:36:05.949Z</time></trkpt><trkpt lat="43.4002956" lon="10.8584383"><ele>488.6</ele><time>2026-05-01T11:36:06.962Z</time></trkpt><trkpt lat="43.4002313" lon="10.8585211"><ele>491.20000000000005</ele><time>2026-05-01T11:36:07.948Z</time></trkpt><trkpt lat="43.4001635" lon="10.8586127"><ele>493.79999999999995</ele><time>2026-05-01T11:36:08.953Z</time></trkpt><trkpt lat="43.4000901" lon="10.8587169"><ele>496.4</ele><time>2026-05-01T11:36:09.947Z</time></trkpt><trkpt lat="43.4000147" lon="10.858824"><ele>499.0</ele><time>2026-05-01T11:36:10.963Z</time></trkpt><trkpt lat="43.3999377" lon="10.8589366"><ele>499.0</ele><time>2026-05-01T11:36:11.954Z</time></trkpt><trkpt lat="43.3998477" lon="10.8590441"><ele>499.0</ele><time>2026-05-01T11:36:12.953Z</time></trkpt><trkpt lat="43.3997608" lon="10.8591645"><ele>499.0</ele><time>2026-05-01T11:36:13.948Z</time></trkpt><trkpt lat="43.3996801" lon="10.8592822"><ele>499.0</ele><time>2026-05-01T11:36:14.959Z</time></trkpt><trkpt lat="43.3996264" lon="10.8593895"><ele>496.4</ele><time>2026-05-01T11:36:15.944Z</time></trkpt><trkpt lat="43.3995875" lon="10.8594859"><ele>493.79999999999995</ele><time>2026-05-01T11:36:16.96Z</time></trkpt><trkpt lat="43.3995564" lon="10.8595927"><ele>491.20000000000005</ele><time>2026-05-01T11:36:17.947Z</time></trkpt><trkpt lat="43.3995353" lon="10.8597232"><ele>488.6</ele><time>2026-05-01T11:36:18.95Z</time></trkpt><trkpt lat="43.3995314" lon="10.859865"><ele>486.0</ele><time>2026-05-01T11:36:19.955Z</time></trkpt><trkpt lat="43.3995297" lon="10.8600247"><ele>487.0</ele><time>2026-05-01T11:36:20.953Z</time></trkpt><trkpt lat="43.3995208" lon="10.8601852"><ele>488.0</ele><time>2026-05-01T11:36:21.975Z</time></trkpt><trkpt lat="43.3995082" lon="10.8603542"><ele>489.0</ele><time>2026-05-01T11:36:22.951Z</time></trkpt><trkpt lat="43.3994931" lon="10.8605438"><ele>490.0</ele><time>2026-05-01T11:36:23.948Z</time></trkpt><trkpt lat="43.3994812" lon="10.8607451"><ele>490.0</ele><time>2026-05-01T11:36:24.952Z</time></trkpt><trkpt lat="43.3994652" lon="10.8609475"><ele>490.0</ele><time>2026-05-01T11:36:25.95Z</time></trkpt><trkpt lat="43.3994473" lon="10.8611547"><ele>490.0</ele><time>2026-05-01T11:36:26.959Z</time></trkpt><trkpt lat="43.3994329" lon="10.861353"><ele>490.0</ele><time>2026-05-01T11:36:27.949Z</time></trkpt><trkpt lat="43.3994188" lon="10.8615484"><ele>491.25</ele><time>2026-05-01T11:36:28.956Z</time></trkpt><trkpt lat="43.3994109" lon="10.8617436"><ele>492.5</ele><time>2026-05-01T11:36:29.94Z</time></trkpt><trkpt lat="43.399395" lon="10.8619373"><ele>493.75</ele><time>2026-05-01T11:36:30.956Z</time></trkpt><trkpt lat="43.399384" lon="10.8621288"><ele>495.0</ele><time>2026-05-01T11:36:31.955Z</time></trkpt><trkpt lat="43.3993678" lon="10.8623216"><ele>497.0</ele><time>2026-05-01T11:36:32.953Z</time></trkpt><trkpt lat="43.3993575" lon="10.8625182"><ele>499.0</ele><time>2026-05-01T11:36:33.951Z</time></trkpt><trkpt lat="43.3993458" lon="10.8627133"><ele>501.0</ele><time>2026-05-01T11:36:34.943Z</time></trkpt><trkpt lat="43.3993323" lon="10.8629092"><ele>503.0</ele><time>2026-05-01T11:36:35.956Z</time></trkpt><trkpt lat="43.3993186" lon="10.8631038"><ele>504.75</ele><time>2026-05-01T11:36:36.947Z</time></trkpt><trkpt lat="43.3993021" lon="10.8632975"><ele>506.5</ele><time>2026-05-01T11:36:37.948Z</time></trkpt><trkpt lat="43.3992876" lon="10.8634975"><ele>508.25</ele><time>2026-05-01T11:36:38.937Z</time></trkpt><trkpt lat="43.3992742" lon="10.8636933"><ele>510.0</ele><time>2026-05-01T11:36:39.955Z</time></trkpt><trkpt lat="43.3992606" lon="10.863888"><ele>511.25</ele><time>2026-05-01T11:36:40.955Z</time></trkpt><trkpt lat="43.3992425" lon="10.86408"><ele>512.5</ele><time>2026-05-01T11:36:41.949Z</time></trkpt><trkpt lat="43.3992268" lon="10.8642531"><ele>513.75</ele><time>2026-05-01T11:36:42.956Z</time></trkpt><trkpt lat="43.3992218" lon="10.8643996"><ele>515.0</ele><time>2026-05-01T11:36:43.952Z</time></trkpt><trkpt lat="43.3992143" lon="10.8645374"><ele>515.3333333333333</ele><time>2026-05-01T11:36:44.944Z</time></trkpt><trkpt lat="43.3992072" lon="10.8646735"><ele>515.6666666666666</ele><time>2026-05-01T11:36:45.959Z</time></trkpt><trkpt lat="43.3991952" lon="10.8648003"><ele>516.0</ele><time>2026-05-01T11:36:46.959Z</time></trkpt><trkpt lat="43.3991864" lon="10.8649068"><ele>516.3333333333334</ele><time>2026-05-01T11:36:47.955Z</time></trkpt><trkpt lat="43.399176" lon="10.865005"><ele>516.6666666666667</ele><time>2026-05-01T11:36:48.958Z</time></trkpt><trkpt lat="43.3991663" lon="10.8650998"><ele>517.0</ele><time>2026-05-01T11:36:49.95Z</time></trkpt><trkpt lat="43.3991624" lon="10.8651996"><ele>517.1666666666667</ele><time>2026-05-01T11:36:50.953Z</time></trkpt><trkpt lat="43.3991619" lon="10.8652938"><ele>517.3333333333334</ele><time>2026-05-01T11:36:51.952Z</time></trkpt><trkpt lat="43.3991732" lon="10.865421"><ele>517.5</ele><time>2026-05-01T11:36:53.951Z</time></trkpt><trkpt lat="43.399193" lon="10.8655281"><ele>517.6666666666666</ele><time>2026-05-01T11:36:56.951Z</time></trkpt><trkpt lat="43.399257" lon="10.8655866"><ele>517.8333333333333</ele><time>2026-05-01T11:36:59.951Z</time></trkpt><trkpt lat="43.3993234" lon="10.8655557"><ele>518.0</ele><time>2026-05-01T11:37:01.952Z</time></trkpt><trkpt lat="43.3993565" lon="10.8654664"><ele>518.0</ele><time>2026-05-01T11:37:04.955Z</time></trkpt><trkpt lat="43.399375" lon="10.8653474"><ele>518.0</ele><time>2026-05-01T11:37:07.952Z</time></trkpt><trkpt lat="43.3994041" lon="10.8652115"><ele>518.0</ele><time>2026-05-01T11:37:09.945Z</time></trkpt><trkpt lat="43.3994305" lon="10.8650481"><ele>518.0</ele><time>2026-05-01T11:37:11.947Z</time></trkpt><trkpt lat="43.3994567" lon="10.8648836"><ele>518.0</ele><time>2026-05-01T11:37:13.937Z</time></trkpt><trkpt lat="43.3994677" lon="10.864793"><ele>517.8</ele><time>2026-05-01T11:37:14.952Z</time></trkpt><trkpt lat="43.3994877" lon="10.8646952"><ele>517.5999999999999</ele><time>2026-05-01T11:37:15.958Z</time></trkpt><trkpt lat="43.3995051" lon="10.8645913"><ele>517.4000000000001</ele><time>2026-05-01T11:37:16.958Z</time></trkpt><trkpt lat="43.3995268" lon="10.8644824"><ele>517.2</ele><time>2026-05-01T11:37:17.949Z</time></trkpt><trkpt lat="43.3995519" lon="10.8643555"><ele>517.0</ele><time>2026-05-01T11:37:18.96Z</time></trkpt><trkpt lat="43.3995815" lon="10.8641901"><ele>516.3333333333334</ele><time>2026-05-01T11:37:19.959Z</time></trkpt><trkpt lat="43.39961" lon="10.8640156"><ele>515.6666666666666</ele><time>2026-05-01T11:37:20.958Z</time></trkpt><trkpt lat="43.3996349" lon="10.8638113"><ele>515.0</ele><time>2026-05-01T11:37:21.958Z</time></trkpt><trkpt lat="43.3996671" lon="10.8635787"><ele>524.0</ele><time>2026-05-01T11:37:22.962Z</time></trkpt><trkpt lat="43.3996984" lon="10.8633427"><ele>533.0</ele><time>2026-05-01T11:37:23.946Z</time></trkpt><trkpt lat="43.3997353" lon="10.8631027"><ele>542.0</ele><time>2026-05-01T11:37:24.955Z</time></trkpt><trkpt lat="43.3997607" lon="10.8628753"><ele>542.0</ele><time>2026-05-01T11:37:25.946Z</time></trkpt><trkpt lat="43.3997824" lon="10.8626531"><ele>542.0</ele><time>2026-05-01T11:37:26.952Z</time></trkpt><trkpt lat="43.3998108" lon="10.8624372"><ele>542.0</ele><time>2026-05-01T11:37:27.958Z</time></trkpt><trkpt lat="43.3998306" lon="10.862221"><ele>541.0</ele><time>2026-05-01T11:37:28.95Z</time></trkpt><trkpt lat="43.3998525" lon="10.8620066"><ele>540.0</ele><time>2026-05-01T11:37:29.951Z</time></trkpt><trkpt lat="43.3998747" lon="10.8617963"><ele>539.0</ele><time>2026-05-01T11:37:30.949Z</time></trkpt><trkpt lat="43.3998993" lon="10.8615921"><ele>538.0</ele><time>2026-05-01T11:37:31.953Z</time></trkpt><trkpt lat="43.3999265" lon="10.8614052"><ele>537.0</ele><time>2026-05-01T11:37:32.951Z</time></trkpt><trkpt lat="43.3999496" lon="10.8612338"><ele>536.0</ele><time>2026-05-01T11:37:33.938Z</time></trkpt><trkpt lat="43.399974" lon="10.8610683"><ele>535.0</ele><time>2026-05-01T11:37:34.939Z</time></trkpt><trkpt lat="43.399997" lon="10.860889"><ele>533.5</ele><time>2026-05-01T11:37:35.956Z</time></trkpt><trkpt lat="43.4000144" lon="10.8607053"><ele>532.0</ele><time>2026-05-01T11:37:36.958Z</time></trkpt><trkpt lat="43.4000402" lon="10.8605369"><ele>530.5</ele><time>2026-05-01T11:37:37.959Z</time></trkpt><trkpt lat="43.4000728" lon="10.8603822"><ele>529.0</ele><time>2026-05-01T11:37:38.958Z</time></trkpt><trkpt lat="43.4001212" lon="10.860234"><ele>525.8</ele><time>2026-05-01T11:37:39.961Z</time></trkpt><trkpt lat="43.4001852" lon="10.8600936"><ele>522.5999999999999</ele><time>2026-05-01T11:37:40.964Z</time></trkpt><trkpt lat="43.4002494" lon="10.8599701"><ele>519.4</ele><time>2026-05-01T11:37:41.949Z</time></trkpt><trkpt lat="43.4003019" lon="10.8598728"><ele>516.1999999999999</ele><time>2026-05-01T11:37:42.951Z</time></trkpt><trkpt lat="43.4003481" lon="10.8597921"><ele>513.0</ele><time>2026-05-01T11:37:43.942Z</time></trkpt><trkpt lat="43.4003841" lon="10.8597082"><ele>513.0</ele><time>2026-05-01T11:37:44.947Z</time></trkpt><trkpt lat="43.400422" lon="10.8596383"><ele>513.0</ele><time>2026-05-01T11:37:45.953Z</time></trkpt><trkpt lat="43.4004807" lon="10.8595144"><ele>513.0</ele><time>2026-05-01T11:37:47.952Z</time></trkpt><trkpt lat="43.4005225" lon="10.8594481"><ele>513.0</ele><time>2026-05-01T11:37:48.941Z</time></trkpt><trkpt lat="43.4005684" lon="10.8593617"><ele>513.0</ele><time>2026-05-01T11:37:49.953Z</time></trkpt><trkpt lat="43.4006141" lon="10.8592709"><ele>513.0</ele><time>2026-05-01T11:37:50.961Z</time></trkpt><trkpt lat="43.4006631" lon="10.8591948"><ele>514.5714285714287</ele><time>2026-05-01T11:37:51.946Z</time></trkpt><trkpt lat="43.4007238" lon="10.8591208"><ele>516.1428571428571</ele><time>2026-05-01T11:37:53.949Z</time></trkpt><trkpt lat="43.4007735" lon="10.8590651"><ele>517.7142857142858</ele><time>2026-05-01T11:37:56.966Z</time></trkpt><trkpt lat="43.4008467" lon="10.8590416"><ele>519.2857142857143</ele><time>2026-05-01T11:37:59.952Z</time></trkpt><trkpt lat="43.4009142" lon="10.8590443"><ele>520.8571428571429</ele><time>2026-05-01T11:38:02.954Z</time></trkpt><trkpt lat="43.4009715" lon="10.8590908"><ele>522.4285714285714</ele><time>2026-05-01T11:38:06.948Z</time></trkpt><trkpt lat="43.4009883" lon="10.8591819"><ele>524.0</ele><time>2026-05-01T11:38:09.964Z</time></trkpt><trkpt lat="43.4009574" lon="10.8592772"><ele>526.0</ele><time>2026-05-01T11:38:12.951Z</time></trkpt><trkpt lat="43.4009907" lon="10.8593562"><ele>528.0</ele><time>2026-05-01T11:38:15.956Z</time></trkpt><trkpt lat="43.4010637" lon="10.8593833"><ele>530.0</ele><time>2026-05-01T11:38:57.956Z</time></trkpt><trkpt lat="43.4011112" lon="10.8594407"><ele>532.0</ele><time>2026-05-01T11:39:00.944Z</time></trkpt><trkpt lat="43.4011535" lon="10.8595207"><ele>534.0</ele><time>2026-05-01T11:39:04.953Z</time></trkpt><trkpt lat="43.4011934" lon="10.8595963"><ele>536.0</ele><time>2026-05-01T11:39:09.941Z</time></trkpt><trkpt lat="43.4012435" lon="10.859652"><ele>538.0</ele><time>2026-05-01T11:39:18.959Z</time></trkpt><trkpt lat="43.4011975" lon="10.8595773"><ele>538.0</ele><time>2026-05-01T11:39:22.95Z</time></trkpt><trkpt lat="43.4011497" lon="10.8594964"><ele>538.0</ele><time>2026-05-01T11:39:24.945Z</time></trkpt><trkpt lat="43.401105" lon="10.8594163"><ele>538.0</ele><time>2026-05-01T11:39:26.946Z</time></trkpt><trkpt lat="43.4010703" lon="10.8593223"><ele>538.0</ele><time>2026-05-01T11:39:28.95Z</time></trkpt><trkpt lat="43.4010299" lon="10.8592496"><ele>524.0</ele><time>2026-05-01T11:39:30.95Z</time></trkpt><trkpt lat="43.4009802" lon="10.8591833"><ele>524.0</ele><time>2026-05-01T11:39:33.948Z</time></trkpt><trkpt lat="43.4009296" lon="10.8591228"><ele>524.0</ele><time>2026-05-01T11:39:37.945Z</time></trkpt></trkseg><trkseg><trkpt lat="43.4020507" lon="10.8601439"><ele>540.0</ele><time>2026-05-01T12:08:23.086Z</time></trkpt><trkpt lat="43.4019609" lon="10.8595993"><ele>540.0</ele><time>2026-05-01T12:57:49.26Z</time></trkpt><trkpt lat="43.4016803" lon="10.8596551"><ele>540.0</ele><time>2026-05-01T12:58:24.777Z</time></trkpt><trkpt lat="43.4014168" lon="10.8599941"><ele>540.0</ele><time>2026-05-01T12:59:33.957Z</time></trkpt><trkpt lat="43.4013453" lon="10.8599237"><ele>540.0</ele><time>2026-05-01T13:00:33.831Z</time></trkpt><trkpt lat="43.4012714" lon="10.8596324"><ele>539.6</ele><time>2026-05-01T13:00:53.415Z</time></trkpt><trkpt lat="43.4012219" lon="10.8595699"><ele>539.2</ele><time>2026-05-01T13:01:06.005Z</time></trkpt><trkpt lat="43.4011831" lon="10.8594969"><ele>538.8</ele><time>2026-05-01T13:01:09.903Z</time></trkpt><trkpt lat="43.4011516" lon="10.8594196"><ele>538.4</ele><time>2026-05-01T13:01:14.737Z</time></trkpt><trkpt lat="43.4011173" lon="10.8593386"><ele>538.0</ele><time>2026-05-01T13:01:20.393Z</time></trkpt><trkpt lat="43.4012074" lon="10.8590149"><ele>535.6666666666667</ele><time>2026-05-01T13:02:09.294Z</time></trkpt><trkpt lat="43.401088" lon="10.8590328"><ele>533.3333333333334</ele><time>2026-05-01T13:04:15.669Z</time></trkpt><trkpt lat="43.4009739" lon="10.8590678"><ele>531.0</ele><time>2026-05-01T13:04:17.65Z</time></trkpt><trkpt lat="43.4009115" lon="10.8590935"><ele>528.6666666666666</ele><time>2026-05-01T13:04:20.662Z</time></trkpt><trkpt lat="43.4008781" lon="10.8590053"><ele>526.3333333333333</ele><time>2026-05-01T13:07:09.673Z</time></trkpt><trkpt lat="43.4008068" lon="10.8590046"><ele>524.0</ele><time>2026-05-01T13:07:13.674Z</time></trkpt><trkpt lat="43.4007348" lon="10.8590405"><ele>524.0</ele><time>2026-05-01T13:07:18.676Z</time></trkpt><trkpt lat="43.4006794" lon="10.859092"><ele>524.0</ele><time>2026-05-01T13:07:23.662Z</time></trkpt><trkpt lat="43.4006183" lon="10.85916"><ele>524.0</ele><time>2026-05-01T13:09:45.663Z</time></trkpt><trkpt lat="43.4005619" lon="10.8592372"><ele>524.0</ele><time>2026-05-01T13:09:48.67Z</time></trkpt><trkpt lat="43.4005218" lon="10.8593136"><ele>524.0</ele><time>2026-05-01T13:09:50.667Z</time></trkpt><trkpt lat="43.4004574" lon="10.8594532"><ele>524.0</ele><time>2026-05-01T13:09:52.67Z</time></trkpt><trkpt lat="43.4003968" lon="10.8595887"><ele>521.8</ele><time>2026-05-01T13:09:54.681Z</time></trkpt><trkpt lat="43.4003537" lon="10.8596735"><ele>519.5999999999999</ele><time>2026-05-01T13:09:55.669Z</time></trkpt><trkpt lat="43.4003052" lon="10.8597594"><ele>517.4</ele><time>2026-05-01T13:09:56.667Z</time></trkpt><trkpt lat="43.4002469" lon="10.8598655"><ele>515.1999999999999</ele><time>2026-05-01T13:09:57.679Z</time></trkpt><trkpt lat="43.4001867" lon="10.8599836"><ele>513.0</ele><time>2026-05-01T13:09:58.669Z</time></trkpt><trkpt lat="43.4001332" lon="10.8600902"><ele>515.6666666666666</ele><time>2026-05-01T13:09:59.668Z</time></trkpt><trkpt lat="43.4000827" lon="10.860191"><ele>518.3333333333334</ele><time>2026-05-01T13:10:00.663Z</time></trkpt><trkpt lat="43.4000395" lon="10.8602933"><ele>521.0</ele><time>2026-05-01T13:10:01.688Z</time></trkpt><trkpt lat="43.4000073" lon="10.8604051"><ele>523.6666666666667</ele><time>2026-05-01T13:10:02.67Z</time></trkpt><trkpt lat="43.3999791" lon="10.8605138"><ele>526.3333333333334</ele><time>2026-05-01T13:10:03.693Z</time></trkpt><trkpt lat="43.3999541" lon="10.8606435"><ele>529.0</ele><time>2026-05-01T13:10:04.661Z</time></trkpt><trkpt lat="43.3999425" lon="10.8607846"><ele>529.0</ele><time>2026-05-01T13:10:05.672Z</time></trkpt><trkpt lat="43.3999294" lon="10.8609278"><ele>529.0</ele><time>2026-05-01T13:10:06.667Z</time></trkpt><trkpt lat="43.3999163" lon="10.861071"><ele>529.0</ele><time>2026-05-01T13:10:07.682Z</time></trkpt><trkpt lat="43.3999004" lon="10.8612111"><ele>529.0</ele><time>2026-05-01T13:10:08.666Z</time></trkpt><trkpt lat="43.3998776" lon="10.8613576"><ele>529.0</ele><time>2026-05-01T13:10:09.661Z</time></trkpt><trkpt lat="43.3998627" lon="10.8614989"><ele>530.2</ele><time>2026-05-01T13:10:10.662Z</time></trkpt><trkpt lat="43.3998443" lon="10.8616414"><ele>531.4</ele><time>2026-05-01T13:10:11.663Z</time></trkpt><trkpt lat="43.399825" lon="10.8617865"><ele>532.6</ele><time>2026-05-01T13:10:12.663Z</time></trkpt><trkpt lat="43.3998078" lon="10.8619283"><ele>533.8</ele><time>2026-05-01T13:10:13.671Z</time></trkpt><trkpt lat="43.3997906" lon="10.8620652"><ele>535.0</ele><time>2026-05-01T13:10:14.661Z</time></trkpt><trkpt lat="43.3997727" lon="10.8622105"><ele>535.8</ele><time>2026-05-01T13:10:15.655Z</time></trkpt><trkpt lat="43.3997567" lon="10.8623584"><ele>536.6</ele><time>2026-05-01T13:10:16.663Z</time></trkpt><trkpt lat="43.3997467" lon="10.8625031"><ele>537.4</ele><time>2026-05-01T13:10:17.666Z</time></trkpt><trkpt lat="43.3997389" lon="10.8626418"><ele>538.2</ele><time>2026-05-01T13:10:18.67Z</time></trkpt><trkpt lat="43.3997338" lon="10.8627826"><ele>539.0</ele><time>2026-05-01T13:10:19.667Z</time></trkpt><trkpt lat="43.3997218" lon="10.8629226"><ele>539.6</ele><time>2026-05-01T13:10:20.677Z</time></trkpt><trkpt lat="43.3997033" lon="10.8630622"><ele>540.2</ele><time>2026-05-01T13:10:21.663Z</time></trkpt><trkpt lat="43.3996861" lon="10.8632037"><ele>540.8000000000001</ele><time>2026-05-01T13:10:22.67Z</time></trkpt><trkpt lat="43.3996655" lon="10.863345"><ele>541.4</ele><time>2026-05-01T13:10:23.661Z</time></trkpt><trkpt lat="43.3996487" lon="10.8634824"><ele>542.0</ele><time>2026-05-01T13:10:24.661Z</time></trkpt><trkpt lat="43.3996384" lon="10.8636215"><ele>537.0</ele><time>2026-05-01T13:10:25.668Z</time></trkpt><trkpt lat="43.3996206" lon="10.863757"><ele>532.0</ele><time>2026-05-01T13:10:26.666Z</time></trkpt><trkpt lat="43.3996082" lon="10.8639"><ele>527.0</ele><time>2026-05-01T13:10:27.668Z</time></trkpt><trkpt lat="43.3995873" lon="10.864039"><ele>522.0</ele><time>2026-05-01T13:10:28.666Z</time></trkpt><trkpt lat="43.3995646" lon="10.8641771"><ele>517.0</ele><time>2026-05-01T13:10:29.661Z</time></trkpt><trkpt lat="43.3995354" lon="10.8643175"><ele>517.0</ele><time>2026-05-01T13:10:30.664Z</time></trkpt><trkpt lat="43.3995088" lon="10.864455"><ele>517.0</ele><time>2026-05-01T13:10:31.668Z</time></trkpt><trkpt lat="43.3994827" lon="10.864577"><ele>517.0</ele><time>2026-05-01T13:10:32.667Z</time></trkpt><trkpt lat="43.3994617" lon="10.8646916"><ele>517.0</ele><time>2026-05-01T13:10:33.661Z</time></trkpt><trkpt lat="43.3994437" lon="10.8648052"><ele>517.0</ele><time>2026-05-01T13:10:34.664Z</time></trkpt><trkpt lat="43.3994225" lon="10.864919"><ele>517.0</ele><time>2026-05-01T13:10:35.664Z</time></trkpt><trkpt lat="43.3994038" lon="10.865035"><ele>517.0</ele><time>2026-05-01T13:10:36.669Z</time></trkpt><trkpt lat="43.3993873" lon="10.865137"><ele>517.0</ele><time>2026-05-01T13:10:37.668Z</time></trkpt><trkpt lat="43.3993673" lon="10.8652271"><ele>517.0</ele><time>2026-05-01T13:10:38.654Z</time></trkpt><trkpt lat="43.3993368" lon="10.8653727"><ele>517.0</ele><time>2026-05-01T13:10:40.669Z</time></trkpt><trkpt lat="43.3993078" lon="10.8654633"><ele>517.0</ele><time>2026-05-01T13:10:42.656Z</time></trkpt><trkpt lat="43.3992728" lon="10.8655473"><ele>517.2</ele><time>2026-05-01T13:10:56.669Z</time></trkpt><trkpt lat="43.399253" lon="10.865657"><ele>517.4000000000001</ele><time>2026-05-01T13:10:58.675Z</time></trkpt><trkpt lat="43.3992563" lon="10.8658342"><ele>517.5999999999999</ele><time>2026-05-01T13:11:00.662Z</time></trkpt><trkpt lat="43.3992518" lon="10.865946"><ele>517.8</ele><time>2026-05-01T13:11:01.678Z</time></trkpt><trkpt lat="43.3992497" lon="10.866068"><ele>518.0</ele><time>2026-05-01T13:11:02.682Z</time></trkpt><trkpt lat="43.399249" lon="10.8661873"><ele>517.1999999999999</ele><time>2026-05-01T13:11:03.672Z</time></trkpt><trkpt lat="43.3992421" lon="10.8662987"><ele>516.4</ele><time>2026-05-01T13:11:04.672Z</time></trkpt><trkpt lat="43.3992381" lon="10.8664339"><ele>515.5999999999999</ele><time>2026-05-01T13:11:05.671Z</time></trkpt><trkpt lat="43.3992374" lon="10.8665843"><ele>514.8</ele><time>2026-05-01T13:11:06.687Z</time></trkpt><trkpt lat="43.3992361" lon="10.866747"><ele>514.0</ele><time>2026-05-01T13:11:07.679Z</time></trkpt><trkpt lat="43.3992327" lon="10.8669089"><ele>512.25</ele><time>2026-05-01T13:11:08.668Z</time></trkpt><trkpt lat="43.3992286" lon="10.8670712"><ele>510.5</ele><time>2026-05-01T13:11:09.669Z</time></trkpt><trkpt lat="43.3992297" lon="10.8672375"><ele>508.75</ele><time>2026-05-01T13:11:10.664Z</time></trkpt><trkpt lat="43.3992323" lon="10.8674105"><ele>507.0</ele><time>2026-05-01T13:11:11.67Z</time></trkpt><trkpt lat="43.3992424" lon="10.8675755"><ele>505.8</ele><time>2026-05-01T13:11:12.683Z</time></trkpt><trkpt lat="43.399257" lon="10.8677275"><ele>504.6</ele><time>2026-05-01T13:11:13.668Z</time></trkpt><trkpt lat="43.3992824" lon="10.8678688"><ele>503.40000000000003</ele><time>2026-05-01T13:11:14.666Z</time></trkpt><trkpt lat="43.3993065" lon="10.8680026"><ele>502.20000000000005</ele><time>2026-05-01T13:11:15.677Z</time></trkpt><trkpt lat="43.3993361" lon="10.8681347"><ele>501.0</ele><time>2026-05-01T13:11:16.669Z</time></trkpt><trkpt lat="43.3993653" lon="10.8682606"><ele>501.0</ele><time>2026-05-01T13:11:17.672Z</time></trkpt><trkpt lat="43.3993931" lon="10.8683903"><ele>501.0</ele><time>2026-05-01T13:11:18.67Z</time></trkpt><trkpt lat="43.399416" lon="10.8685202"><ele>501.0</ele><time>2026-05-01T13:11:19.669Z</time></trkpt><trkpt lat="43.399441" lon="10.8686487"><ele>501.0</ele><time>2026-05-01T13:11:20.667Z</time></trkpt><trkpt lat="43.3994667" lon="10.86878"><ele>501.0</ele><time>2026-05-01T13:11:21.678Z</time></trkpt><trkpt lat="43.3994895" lon="10.8689045"><ele>501.0</ele><time>2026-05-01T13:11:22.671Z</time></trkpt><trkpt lat="43.3995138" lon="10.8690275"><ele>501.0</ele><time>2026-05-01T13:11:23.67Z</time></trkpt><trkpt lat="43.3995378" lon="10.8691574"><ele>501.0</ele><time>2026-05-01T13:11:24.671Z</time></trkpt><trkpt lat="43.3995637" lon="10.8692894"><ele>501.0</ele><time>2026-05-01T13:11:25.677Z</time></trkpt><trkpt lat="43.3995945" lon="10.8694276"><ele>501.0</ele><time>2026-05-01T13:11:26.677Z</time></trkpt><trkpt lat="43.3996089" lon="10.8695694"><ele>500.8</ele><time>2026-05-01T13:11:27.667Z</time></trkpt><trkpt lat="43.3996221" lon="10.8697224"><ele>500.6</ele><time>2026-05-01T13:11:28.665Z</time></trkpt><trkpt lat="43.3996367" lon="10.8698685"><ele>500.4</ele><time>2026-05-01T13:11:29.665Z</time></trkpt><trkpt lat="43.3996483" lon="10.8700102"><ele>500.2</ele><time>2026-05-01T13:11:30.666Z</time></trkpt><trkpt lat="43.3996565" lon="10.8701479"><ele>500.0</ele><time>2026-05-01T13:11:31.666Z</time></trkpt><trkpt lat="43.3996675" lon="10.870273"><ele>499.4</ele><time>2026-05-01T13:11:32.666Z</time></trkpt><trkpt lat="43.3996784" lon="10.8704005"><ele>498.8</ele><time>2026-05-01T13:11:33.681Z</time></trkpt><trkpt lat="43.3996913" lon="10.8705283"><ele>498.20000000000005</ele><time>2026-05-01T13:11:34.665Z</time></trkpt><trkpt lat="43.3997044" lon="10.8706599"><ele>497.6</ele><time>2026-05-01T13:11:35.665Z</time></trkpt><trkpt lat="43.3997068" lon="10.8707901"><ele>497.0</ele><time>2026-05-01T13:11:36.667Z</time></trkpt><trkpt lat="43.3996972" lon="10.8709253"><ele>497.6</ele><time>2026-05-01T13:11:37.672Z</time></trkpt><trkpt lat="43.3996781" lon="10.8710661"><ele>498.20000000000005</ele><time>2026-05-01T13:11:38.676Z</time></trkpt><trkpt lat="43.3996531" lon="10.8712016"><ele>498.8</ele><time>2026-05-01T13:11:39.675Z</time></trkpt><trkpt lat="43.3996184" lon="10.8713229"><ele>499.4</ele><time>2026-05-01T13:11:40.654Z</time></trkpt><trkpt lat="43.3995872" lon="10.871436"><ele>500.0</ele><time>2026-05-01T13:11:41.683Z</time></trkpt><trkpt lat="43.3995566" lon="10.8715516"><ele>498.66666666666663</ele><time>2026-05-01T13:11:42.674Z</time></trkpt><trkpt lat="43.3995206" lon="10.8716541"><ele>497.3333333333333</ele><time>2026-05-01T13:11:43.666Z</time></trkpt><trkpt lat="43.3994788" lon="10.8717544"><ele>496.0</ele><time>2026-05-01T13:11:44.678Z</time></trkpt><trkpt lat="43.3994385" lon="10.871859"><ele>494.66666666666663</ele><time>2026-05-01T13:11:45.677Z</time></trkpt><trkpt lat="43.3994053" lon="10.871966"><ele>493.3333333333333</ele><time>2026-05-01T13:11:46.68Z</time></trkpt><trkpt lat="43.3993716" lon="10.87206"><ele>492.0</ele><time>2026-05-01T13:11:47.684Z</time></trkpt><trkpt lat="43.3993204" lon="10.8721576"><ele>491.6</ele><time>2026-05-01T13:11:48.675Z</time></trkpt><trkpt lat="43.3992494" lon="10.8722442"><ele>491.20000000000005</ele><time>2026-05-01T13:11:49.666Z</time></trkpt><trkpt lat="43.3991628" lon="10.8723344"><ele>490.8</ele><time>2026-05-01T13:11:50.67Z</time></trkpt><trkpt lat="43.3990804" lon="10.8724332"><ele>490.4</ele><time>2026-05-01T13:11:51.668Z</time></trkpt><trkpt lat="43.3989993" lon="10.8725383"><ele>490.0</ele><time>2026-05-01T13:11:52.667Z</time></trkpt><trkpt lat="43.3989191" lon="10.8726554"><ele>491.25</ele><time>2026-05-01T13:11:53.681Z</time></trkpt><trkpt lat="43.3988386" lon="10.8727823"><ele>492.5</ele><time>2026-05-01T13:11:54.675Z</time></trkpt><trkpt lat="43.3987645" lon="10.8729201"><ele>493.75</ele><time>2026-05-01T13:11:55.665Z</time></trkpt><trkpt lat="43.3986874" lon="10.8730537"><ele>495.0</ele><time>2026-05-01T13:11:56.673Z</time></trkpt><trkpt lat="43.3986118" lon="10.8731977"><ele>491.5</ele><time>2026-05-01T13:11:57.67Z</time></trkpt><trkpt lat="43.3985375" lon="10.8733468"><ele>488.0</ele><time>2026-05-01T13:11:58.657Z</time></trkpt><trkpt lat="43.3984657" lon="10.8734958"><ele>484.5</ele><time>2026-05-01T13:11:59.657Z</time></trkpt><trkpt lat="43.3984021" lon="10.8736455"><ele>481.0</ele><time>2026-05-01T13:12:00.668Z</time></trkpt><trkpt lat="43.3983289" lon="10.8737768"><ele>481.0</ele><time>2026-05-01T13:12:01.674Z</time></trkpt><trkpt lat="43.3982491" lon="10.8738935"><ele>481.0</ele><time>2026-05-01T13:12:02.668Z</time></trkpt><trkpt lat="43.3981785" lon="10.8739994"><ele>481.0</ele><time>2026-05-01T13:12:03.679Z</time></trkpt><trkpt lat="43.3980979" lon="10.8740923"><ele>481.0</ele><time>2026-05-01T13:12:04.675Z</time></trkpt><trkpt lat="43.3980221" lon="10.8741891"><ele>481.0</ele><time>2026-05-01T13:12:05.672Z</time></trkpt><trkpt lat="43.3979482" lon="10.8742961"><ele>476.75</ele><time>2026-05-01T13:12:06.659Z</time></trkpt><trkpt lat="43.3978713" lon="10.8744148"><ele>472.5</ele><time>2026-05-01T13:12:07.675Z</time></trkpt><trkpt lat="43.3977932" lon="10.8745334"><ele>468.25</ele><time>2026-05-01T13:12:08.664Z</time></trkpt><trkpt lat="43.3977293" lon="10.8746593"><ele>464.0</ele><time>2026-05-01T13:12:09.67Z</time></trkpt><trkpt lat="43.3976791" lon="10.8747899"><ele>464.0</ele><time>2026-05-01T13:12:10.662Z</time></trkpt><trkpt lat="43.3976326" lon="10.8749307"><ele>464.0</ele><time>2026-05-01T13:12:11.663Z</time></trkpt><trkpt lat="43.3975882" lon="10.8750747"><ele>464.0</ele><time>2026-05-01T13:12:12.667Z</time></trkpt><trkpt lat="43.3975382" lon="10.8752247"><ele>464.0</ele><time>2026-05-01T13:12:13.668Z</time></trkpt><trkpt lat="43.3974815" lon="10.8753826"><ele>464.75</ele><time>2026-05-01T13:12:14.667Z</time></trkpt><trkpt lat="43.3974241" lon="10.8755355"><ele>465.5</ele><time>2026-05-01T13:12:15.665Z</time></trkpt><trkpt lat="43.3973653" lon="10.875695"><ele>466.25</ele><time>2026-05-01T13:12:16.668Z</time></trkpt><trkpt lat="43.3973104" lon="10.8758575"><ele>467.0</ele><time>2026-05-01T13:12:17.673Z</time></trkpt><trkpt lat="43.3972531" lon="10.8760031"><ele>467.0</ele><time>2026-05-01T13:12:18.665Z</time></trkpt><trkpt lat="43.3972031" lon="10.8761483"><ele>467.00000000000006</ele><time>2026-05-01T13:12:19.665Z</time></trkpt><trkpt lat="43.3971507" lon="10.8762978"><ele>467.00000000000006</ele><time>2026-05-01T13:12:20.673Z</time></trkpt><trkpt lat="43.3971209" lon="10.8764477"><ele>467.0</ele><time>2026-05-01T13:12:21.678Z</time></trkpt><trkpt lat="43.3971065" lon="10.8765812"><ele>467.0</ele><time>2026-05-01T13:12:22.663Z</time></trkpt><trkpt lat="43.3970989" lon="10.8766983"><ele>463.16666666666663</ele><time>2026-05-01T13:12:23.666Z</time></trkpt><trkpt lat="43.3970973" lon="10.8767878"><ele>459.3333333333333</ele><time>2026-05-01T13:12:24.672Z</time></trkpt><trkpt lat="43.3970805" lon="10.8768906"><ele>455.5</ele><time>2026-05-01T13:12:26.674Z</time></trkpt><trkpt lat="43.3970124" lon="10.8768437"><ele>451.66666666666663</ele><time>2026-05-01T13:12:29.685Z</time></trkpt><trkpt lat="43.3969756" lon="10.8766544"><ele>447.8333333333333</ele><time>2026-05-01T13:12:31.677Z</time></trkpt><trkpt lat="43.3969495" lon="10.8765437"><ele>444.0</ele><time>2026-05-01T13:12:32.665Z</time></trkpt><trkpt lat="43.3969154" lon="10.8764341"><ele>444.0</ele><time>2026-05-01T13:12:33.68Z</time></trkpt><trkpt lat="43.396868" lon="10.8763182"><ele>444.0</ele><time>2026-05-01T13:12:34.662Z</time></trkpt><trkpt lat="43.3968084" lon="10.8762141"><ele>444.0</ele><time>2026-05-01T13:12:35.676Z</time></trkpt><trkpt lat="43.3967469" lon="10.8761208"><ele>444.0</ele><time>2026-05-01T13:12:36.674Z</time></trkpt><trkpt lat="43.3966841" lon="10.8760318"><ele>444.0</ele><time>2026-05-01T13:12:37.657Z</time></trkpt><trkpt lat="43.3966329" lon="10.875961"><ele>444.0</ele><time>2026-05-01T13:12:38.675Z</time></trkpt><trkpt lat="43.3965287" lon="10.8758984"><ele>444.0</ele><time>2026-05-01T13:12:40.665Z</time></trkpt><trkpt lat="43.3964468" lon="10.8759846"><ele>444.0</ele><time>2026-05-01T13:12:42.673Z</time></trkpt><trkpt lat="43.3964464" lon="10.8761489"><ele>444.0</ele><time>2026-05-01T13:12:44.671Z</time></trkpt><trkpt lat="43.3964623" lon="10.8762363"><ele>444.0</ele><time>2026-05-01T13:12:45.674Z</time></trkpt><trkpt lat="43.3964777" lon="10.8763301"><ele>444.0</ele><time>2026-05-01T13:12:46.671Z</time></trkpt><trkpt lat="43.3965008" lon="10.8764244"><ele>444.0</ele><time>2026-05-01T13:12:47.673Z</time></trkpt><trkpt lat="43.3965222" lon="10.8765153"><ele>444.0</ele><time>2026-05-01T13:12:48.663Z</time></trkpt><trkpt lat="43.3965071" lon="10.8766824"><ele>444.0</ele><time>2026-05-01T13:12:50.665Z</time></trkpt><trkpt lat="43.3964742" lon="10.8767663"><ele>444.0</ele><time>2026-05-01T13:12:51.669Z</time></trkpt><trkpt lat="43.3964321" lon="10.8768622"><ele>444.0</ele><time>2026-05-01T13:12:52.672Z</time></trkpt><trkpt lat="43.3964249" lon="10.8769709"><ele>444.0</ele><time>2026-05-01T13:12:53.671Z</time></trkpt><trkpt lat="43.3964454" lon="10.8770677"><ele>444.0</ele><time>2026-05-01T13:12:54.664Z</time></trkpt><trkpt lat="43.3964679" lon="10.8771643"><ele>443.1666666666667</ele><time>2026-05-01T13:12:55.668Z</time></trkpt><trkpt lat="43.3964898" lon="10.8772629"><ele>442.33333333333337</ele><time>2026-05-01T13:12:56.677Z</time></trkpt><trkpt lat="43.3964996" lon="10.8773516"><ele>441.5</ele><time>2026-05-01T13:12:57.67Z</time></trkpt><trkpt lat="43.3964353" lon="10.877476"><ele>440.6666666666667</ele><time>2026-05-01T13:12:59.678Z</time></trkpt><trkpt lat="43.3963351" lon="10.8774109"><ele>439.83333333333337</ele><time>2026-05-01T13:13:01.664Z</time></trkpt><trkpt lat="43.3962987" lon="10.8773212"><ele>439.0</ele><time>2026-05-01T13:13:02.667Z</time></trkpt><trkpt lat="43.3962497" lon="10.8772178"><ele>435.2</ele><time>2026-05-01T13:13:03.668Z</time></trkpt><trkpt lat="43.3961952" lon="10.8771087"><ele>431.4</ele><time>2026-05-01T13:13:04.673Z</time></trkpt><trkpt lat="43.3961551" lon="10.8769854"><ele>427.6</ele><time>2026-05-01T13:13:05.665Z</time></trkpt><trkpt lat="43.3961348" lon="10.876842"><ele>423.8</ele><time>2026-05-01T13:13:06.668Z</time></trkpt><trkpt lat="43.3961312" lon="10.8766977"><ele>420.0</ele><time>2026-05-01T13:13:07.662Z</time></trkpt><trkpt lat="43.3961424" lon="10.8765559"><ele>420.0</ele><time>2026-05-01T13:13:08.666Z</time></trkpt><trkpt lat="43.3961445" lon="10.8764459"><ele>420.0</ele><time>2026-05-01T13:13:09.668Z</time></trkpt><trkpt lat="43.39608" lon="10.8763505"><ele>420.0</ele><time>2026-05-01T13:13:11.677Z</time></trkpt><trkpt lat="43.3959991" lon="10.8764497"><ele>420.0</ele><time>2026-05-01T13:13:13.67Z</time></trkpt><trkpt lat="43.3959805" lon="10.8765534"><ele>420.0</ele><time>2026-05-01T13:13:14.678Z</time></trkpt><trkpt lat="43.3959569" lon="10.876671"><ele>420.0</ele><time>2026-05-01T13:13:15.671Z</time></trkpt><trkpt lat="43.3959312" lon="10.8767991"><ele>420.0</ele><time>2026-05-01T13:13:16.675Z</time></trkpt><trkpt lat="43.3959082" lon="10.8769071"><ele>420.0</ele><time>2026-05-01T13:13:17.681Z</time></trkpt><trkpt lat="43.3958881" lon="10.8769938"><ele>420.0</ele><time>2026-05-01T13:13:18.674Z</time></trkpt><trkpt lat="43.3958023" lon="10.8770342"><ele>420.0</ele><time>2026-05-01T13:13:20.66Z</time></trkpt><trkpt lat="43.3957926" lon="10.8768863"><ele>420.0</ele><time>2026-05-01T13:13:22.667Z</time></trkpt><trkpt lat="43.3957959" lon="10.8767704"><ele>420.0</ele><time>2026-05-01T13:13:23.656Z</time></trkpt><trkpt lat="43.3957934" lon="10.8766356"><ele>420.0</ele><time>2026-05-01T13:13:24.667Z</time></trkpt><trkpt lat="43.3957895" lon="10.8765161"><ele>420.0</ele><time>2026-05-01T13:13:25.677Z</time></trkpt><trkpt lat="43.3957606" lon="10.8764001"><ele>420.0</ele><time>2026-05-01T13:13:26.67Z</time></trkpt><trkpt lat="43.3957023" lon="10.8763211"><ele>420.0</ele><time>2026-05-01T13:13:27.662Z</time></trkpt><trkpt lat="43.3956222" lon="10.8762656"><ele>420.0</ele><time>2026-05-01T13:13:28.673Z</time></trkpt><trkpt lat="43.3955278" lon="10.8762278"><ele>420.0</ele><time>2026-05-01T13:13:29.662Z</time></trkpt><trkpt lat="43.3954265" lon="10.8761842"><ele>416.6</ele><time>2026-05-01T13:13:30.672Z</time></trkpt><trkpt lat="43.3953249" lon="10.8761382"><ele>413.2</ele><time>2026-05-01T13:13:31.668Z</time></trkpt><trkpt lat="43.3952227" lon="10.8760695"><ele>409.79999999999995</ele><time>2026-05-01T13:13:32.672Z</time></trkpt><trkpt lat="43.3951302" lon="10.8759891"><ele>406.4</ele><time>2026-05-01T13:13:33.679Z</time></trkpt><trkpt lat="43.3950429" lon="10.8758966"><ele>403.0</ele><time>2026-05-01T13:13:34.67Z</time></trkpt><trkpt lat="43.3949646" lon="10.8757779"><ele>403.0</ele><time>2026-05-01T13:13:35.658Z</time></trkpt><trkpt lat="43.3948885" lon="10.8756391"><ele>403.0</ele><time>2026-05-01T13:13:36.674Z</time></trkpt><trkpt lat="43.3948109" lon="10.8754953"><ele>403.0</ele><time>2026-05-01T13:13:37.674Z</time></trkpt><trkpt lat="43.3947324" lon="10.8753452"><ele>403.0</ele><time>2026-05-01T13:13:38.667Z</time></trkpt><trkpt lat="43.3946606" lon="10.8752019"><ele>400.25</ele><time>2026-05-01T13:13:39.671Z</time></trkpt><trkpt lat="43.3945833" lon="10.8750618"><ele>397.5</ele><time>2026-05-01T13:13:40.672Z</time></trkpt><trkpt lat="43.3945138" lon="10.8749274"><ele>394.75</ele><time>2026-05-01T13:13:41.662Z</time></trkpt><trkpt lat="43.3944472" lon="10.8747938"><ele>392.0</ele><time>2026-05-01T13:13:42.675Z</time></trkpt><trkpt lat="43.3943983" lon="10.8746644"><ele>391.99999999999994</ele><time>2026-05-01T13:13:43.672Z</time></trkpt><trkpt lat="43.3943771" lon="10.8745255"><ele>392.0</ele><time>2026-05-01T13:13:44.672Z</time></trkpt><trkpt lat="43.3943796" lon="10.8744093"><ele>392.0</ele><time>2026-05-01T13:13:45.673Z</time></trkpt><trkpt lat="43.3943314" lon="10.8742855"><ele>392.0</ele><time>2026-05-01T13:13:47.671Z</time></trkpt><trkpt lat="43.3942664" lon="10.8742686"><ele>391.99999999999994</ele><time>2026-05-01T13:13:48.666Z</time></trkpt><trkpt lat="43.394218" lon="10.8743409"><ele>392.0</ele><time>2026-05-01T13:13:49.668Z</time></trkpt><trkpt lat="43.3941812" lon="10.8744425"><ele>392.0</ele><time>2026-05-01T13:13:50.661Z</time></trkpt><trkpt lat="43.394159" lon="10.8745751"><ele>392.0</ele><time>2026-05-01T13:13:51.666Z</time></trkpt><trkpt lat="43.3941398" lon="10.8747226"><ele>392.0</ele><time>2026-05-01T13:13:52.669Z</time></trkpt><trkpt lat="43.3941138" lon="10.8748889"><ele>392.0</ele><time>2026-05-01T13:13:53.656Z</time></trkpt><trkpt lat="43.3940937" lon="10.8750663"><ele>390.8</ele><time>2026-05-01T13:13:54.672Z</time></trkpt><trkpt lat="43.3940707" lon="10.8752281"><ele>389.6</ele><time>2026-05-01T13:13:55.668Z</time></trkpt><trkpt lat="43.3940342" lon="10.8753754"><ele>388.40000000000003</ele><time>2026-05-01T13:13:56.66Z</time></trkpt><trkpt lat="43.3939836" lon="10.8754811"><ele>387.20000000000005</ele><time>2026-05-01T13:13:57.669Z</time></trkpt><trkpt lat="43.3939035" lon="10.8755472"><ele>386.0</ele><time>2026-05-01T13:13:58.659Z</time></trkpt><trkpt lat="43.3938195" lon="10.8755537"><ele>384.6</ele><time>2026-05-01T13:13:59.672Z</time></trkpt><trkpt lat="43.3937413" lon="10.8755019"><ele>383.20000000000005</ele><time>2026-05-01T13:14:00.682Z</time></trkpt><trkpt lat="43.3936676" lon="10.8754204"><ele>381.79999999999995</ele><time>2026-05-01T13:14:01.672Z</time></trkpt><trkpt lat="43.3935954" lon="10.8753139"><ele>380.4</ele><time>2026-05-01T13:14:02.673Z</time></trkpt><trkpt lat="43.3935251" lon="10.8752172"><ele>379.0</ele><time>2026-05-01T13:14:03.659Z</time></trkpt><trkpt lat="43.3934567" lon="10.875146"><ele>379.0</ele><time>2026-05-01T13:14:04.667Z</time></trkpt><trkpt lat="43.3933872" lon="10.8751013"><ele>379.0</ele><time>2026-05-01T13:14:05.679Z</time></trkpt><trkpt lat="43.3933205" lon="10.8750871"><ele>379.0</ele><time>2026-05-01T13:14:06.665Z</time></trkpt><trkpt lat="43.393216" lon="10.8751851"><ele>379.0</ele><time>2026-05-01T13:14:08.662Z</time></trkpt><trkpt lat="43.3931867" lon="10.8752853"><ele>379.0</ele><time>2026-05-01T13:14:09.672Z</time></trkpt><trkpt lat="43.3931688" lon="10.8753993"><ele>379.0</ele><time>2026-05-01T13:14:10.676Z</time></trkpt><trkpt lat="43.3931659" lon="10.8755128"><ele>379.0</ele><time>2026-05-01T13:14:11.67Z</time></trkpt><trkpt lat="43.3931838" lon="10.875624"><ele>379.0</ele><time>2026-05-01T13:14:12.679Z</time></trkpt><trkpt lat="43.3932091" lon="10.8757235"><ele>379.0</ele><time>2026-05-01T13:14:13.662Z</time></trkpt><trkpt lat="43.3932405" lon="10.8758162"><ele>379.0</ele><time>2026-05-01T13:14:14.676Z</time></trkpt><trkpt lat="43.393264" lon="10.8759136"><ele>379.0</ele><time>2026-05-01T13:14:15.669Z</time></trkpt><trkpt lat="43.3932677" lon="10.8760136"><ele>379.0</ele><time>2026-05-01T13:14:16.654Z</time></trkpt><trkpt lat="43.3932667" lon="10.8761324"><ele>377.0</ele><time>2026-05-01T13:14:17.676Z</time></trkpt><trkpt lat="43.3932522" lon="10.8762519"><ele>375.0</ele><time>2026-05-01T13:14:18.675Z</time></trkpt><trkpt lat="43.3932351" lon="10.8763695"><ele>373.0</ele><time>2026-05-01T13:14:19.665Z</time></trkpt><trkpt lat="43.3932154" lon="10.8764753"><ele>371.0</ele><time>2026-05-01T13:14:20.672Z</time></trkpt><trkpt lat="43.3931768" lon="10.8765741"><ele>369.0</ele><time>2026-05-01T13:14:21.688Z</time></trkpt><trkpt lat="43.3931106" lon="10.8766268"><ele>367.0</ele><time>2026-05-01T13:14:22.668Z</time></trkpt><trkpt lat="43.3930292" lon="10.8766202"><ele>364.25</ele><time>2026-05-01T13:14:23.675Z</time></trkpt><trkpt lat="43.3929117" lon="10.8764722"><ele>361.5</ele><time>2026-05-01T13:14:25.67Z</time></trkpt><trkpt lat="43.3928911" lon="10.8763322"><ele>358.75</ele><time>2026-05-01T13:14:26.662Z</time></trkpt><trkpt lat="43.3928754" lon="10.8761738"><ele>356.0</ele><time>2026-05-01T13:14:27.668Z</time></trkpt><trkpt lat="43.3928668" lon="10.8760121"><ele>356.83333333333337</ele><time>2026-05-01T13:14:28.67Z</time></trkpt><trkpt lat="43.3928695" lon="10.875881"><ele>357.6666666666667</ele><time>2026-05-01T13:14:29.67Z</time></trkpt><trkpt lat="43.3928699" lon="10.8757698"><ele>358.5</ele><time>2026-05-01T13:14:30.66Z</time></trkpt><trkpt lat="43.3928483" lon="10.8756865"><ele>359.3333333333333</ele><time>2026-05-01T13:14:31.669Z</time></trkpt><trkpt lat="43.3927691" lon="10.875629"><ele>360.16666666666663</ele><time>2026-05-01T13:14:33.656Z</time></trkpt><trkpt lat="43.3926976" lon="10.8756298"><ele>361.0</ele><time>2026-05-01T13:14:35.664Z</time></trkpt><trkpt lat="43.3925622" lon="10.8757423"><ele>361.0</ele><time>2026-05-01T13:14:37.668Z</time></trkpt><trkpt lat="43.392477" lon="10.8758147"><ele>361.0</ele><time>2026-05-01T13:14:38.668Z</time></trkpt><trkpt lat="43.3923996" lon="10.8758812"><ele>361.0</ele><time>2026-05-01T13:14:39.669Z</time></trkpt><trkpt lat="43.3923296" lon="10.8759379"><ele>361.0</ele><time>2026-05-01T13:14:40.665Z</time></trkpt><trkpt lat="43.3922597" lon="10.8759748"><ele>361.0</ele><time>2026-05-01T13:14:41.668Z</time></trkpt><trkpt lat="43.3921815" lon="10.8759818"><ele>361.0</ele><time>2026-05-01T13:14:42.664Z</time></trkpt><trkpt lat="43.3921035" lon="10.8759497"><ele>359.0</ele><time>2026-05-01T13:14:43.668Z</time></trkpt><trkpt lat="43.3920167" lon="10.8759005"><ele>357.0</ele><time>2026-05-01T13:14:44.674Z</time></trkpt><trkpt lat="43.3919292" lon="10.8758344"><ele>355.0</ele><time>2026-05-01T13:14:45.669Z</time></trkpt><trkpt lat="43.3918284" lon="10.8757649"><ele>353.0</ele><time>2026-05-01T13:14:46.672Z</time></trkpt><trkpt lat="43.3917213" lon="10.8756861"><ele>351.0</ele><time>2026-05-01T13:14:47.67Z</time></trkpt><trkpt lat="43.3916132" lon="10.8756077"><ele>351.0</ele><time>2026-05-01T13:14:48.672Z</time></trkpt><trkpt lat="43.3914996" lon="10.8755272"><ele>351.0</ele><time>2026-05-01T13:14:49.67Z</time></trkpt><trkpt lat="43.3913848" lon="10.875455"><ele>351.0</ele><time>2026-05-01T13:14:50.671Z</time></trkpt><trkpt lat="43.3912591" lon="10.8754003"><ele>351.0</ele><time>2026-05-01T13:14:51.655Z</time></trkpt><trkpt lat="43.3911321" lon="10.8753756"><ele>349.0</ele><time>2026-05-01T13:14:52.68Z</time></trkpt><trkpt lat="43.39101" lon="10.8753944"><ele>347.0</ele><time>2026-05-01T13:14:53.666Z</time></trkpt><trkpt lat="43.3908882" lon="10.8754189"><ele>345.0</ele><time>2026-05-01T13:14:54.665Z</time></trkpt><trkpt lat="43.3907724" lon="10.8754418"><ele>343.0</ele><time>2026-05-01T13:14:55.666Z</time></trkpt><trkpt lat="43.3906493" lon="10.8754412"><ele>343.0</ele><time>2026-05-01T13:14:56.677Z</time></trkpt><trkpt lat="43.3905294" lon="10.875425"><ele>343.0</ele><time>2026-05-01T13:14:57.667Z</time></trkpt><trkpt lat="43.3904164" lon="10.8753862"><ele>343.0</ele><time>2026-05-01T13:14:58.669Z</time></trkpt><trkpt lat="43.3902999" lon="10.8753464"><ele>343.0</ele><time>2026-05-01T13:14:59.67Z</time></trkpt><trkpt lat="43.3901824" lon="10.8753058"><ele>343.5</ele><time>2026-05-01T13:15:00.665Z</time></trkpt><trkpt lat="43.3900634" lon="10.8752672"><ele>344.0</ele><time>2026-05-01T13:15:01.672Z</time></trkpt><trkpt lat="43.3899444" lon="10.8752253"><ele>344.5</ele><time>2026-05-01T13:15:02.666Z</time></trkpt><trkpt lat="43.3898247" lon="10.875189"><ele>345.0</ele><time>2026-05-01T13:15:03.675Z</time></trkpt><trkpt lat="43.3897111" lon="10.8751622"><ele>344.6</ele><time>2026-05-01T13:15:04.679Z</time></trkpt><trkpt lat="43.3896005" lon="10.8751586"><ele>344.2</ele><time>2026-05-01T13:15:05.671Z</time></trkpt><trkpt lat="43.3894947" lon="10.8751833"><ele>343.79999999999995</ele><time>2026-05-01T13:15:06.684Z</time></trkpt><trkpt lat="43.3893864" lon="10.8752482"><ele>343.4</ele><time>2026-05-01T13:15:07.666Z</time></trkpt><trkpt lat="43.3892864" lon="10.8753135"><ele>343.0</ele><time>2026-05-01T13:15:08.677Z</time></trkpt><trkpt lat="43.389191" lon="10.8753858"><ele>343.0</ele><time>2026-05-01T13:15:09.669Z</time></trkpt><trkpt lat="43.3891023" lon="10.8754647"><ele>343.0</ele><time>2026-05-01T13:15:10.678Z</time></trkpt><trkpt lat="43.3890155" lon="10.8755291"><ele>343.0</ele><time>2026-05-01T13:15:11.671Z</time></trkpt><trkpt lat="43.3889269" lon="10.8755746"><ele>343.0</ele><time>2026-05-01T13:15:12.689Z</time></trkpt><trkpt lat="43.388834" lon="10.8756015"><ele>343.0</ele><time>2026-05-01T13:15:13.673Z</time></trkpt><trkpt lat="43.3887404" lon="10.8756128"><ele>342.2</ele><time>2026-05-01T13:15:14.674Z</time></trkpt><trkpt lat="43.3886501" lon="10.8756267"><ele>341.4</ele><time>2026-05-01T13:15:15.658Z</time></trkpt><trkpt lat="43.3885577" lon="10.875641"><ele>340.59999999999997</ele><time>2026-05-01T13:15:16.668Z</time></trkpt><trkpt lat="43.3884617" lon="10.8756561"><ele>339.79999999999995</ele><time>2026-05-01T13:15:17.667Z</time></trkpt><trkpt lat="43.388365" lon="10.875661"><ele>339.0</ele><time>2026-05-01T13:15:18.66Z</time></trkpt><trkpt lat="43.3882785" lon="10.8756694"><ele>339.0</ele><time>2026-05-01T13:15:19.672Z</time></trkpt><trkpt lat="43.3882057" lon="10.8756871"><ele>339.0</ele><time>2026-05-01T13:15:20.664Z</time></trkpt><trkpt lat="43.3881484" lon="10.8757336"><ele>339.0</ele><time>2026-05-01T13:15:21.666Z</time></trkpt><trkpt lat="43.3881048" lon="10.8758209"><ele>339.0</ele><time>2026-05-01T13:15:22.686Z</time></trkpt><trkpt lat="43.388077" lon="10.8759392"><ele>339.0</ele><time>2026-05-01T13:15:23.686Z</time></trkpt><trkpt lat="43.3880503" lon="10.8760452"><ele>339.0</ele><time>2026-05-01T13:15:24.666Z</time></trkpt><trkpt lat="43.3880016" lon="10.8761183"><ele>337.4</ele><time>2026-05-01T13:15:25.662Z</time></trkpt><trkpt lat="43.3878891" lon="10.8761238"><ele>335.79999999999995</ele><time>2026-05-01T13:15:27.672Z</time></trkpt><trkpt lat="43.3878307" lon="10.8760545"><ele>334.20000000000005</ele><time>2026-05-01T13:15:28.679Z</time></trkpt><trkpt lat="43.3877644" lon="10.8759727"><ele>332.6</ele><time>2026-05-01T13:15:29.656Z</time></trkpt><trkpt lat="43.3877017" lon="10.875886"><ele>331.0</ele><time>2026-05-01T13:15:30.661Z</time></trkpt><trkpt lat="43.3876295" lon="10.8757952"><ele>331.0</ele><time>2026-05-01T13:15:31.667Z</time></trkpt><trkpt lat="43.3875522" lon="10.8757064"><ele>331.0</ele><time>2026-05-01T13:15:32.67Z</time></trkpt><trkpt lat="43.3874767" lon="10.8756204"><ele>331.0</ele><time>2026-05-01T13:15:33.667Z</time></trkpt><trkpt lat="43.3874114" lon="10.8755439"><ele>331.0</ele><time>2026-05-01T13:15:34.67Z</time></trkpt><trkpt lat="43.3873461" lon="10.8755096"><ele>331.0</ele><time>2026-05-01T13:15:35.662Z</time></trkpt><trkpt lat="43.3872822" lon="10.8755288"><ele>331.0</ele><time>2026-05-01T13:15:36.679Z</time></trkpt><trkpt lat="43.3872254" lon="10.8755963"><ele>331.0</ele><time>2026-05-01T13:15:37.67Z</time></trkpt><trkpt lat="43.3871864" lon="10.8757039"><ele>331.0</ele><time>2026-05-01T13:15:38.684Z</time></trkpt><trkpt lat="43.3871586" lon="10.8758391"><ele>331.0</ele><time>2026-05-01T13:15:39.672Z</time></trkpt><trkpt lat="43.3871298" lon="10.8759654"><ele>331.0</ele><time>2026-05-01T13:15:40.666Z</time></trkpt><trkpt lat="43.3870895" lon="10.8760576"><ele>331.0</ele><time>2026-05-01T13:15:41.682Z</time></trkpt><trkpt lat="43.3870347" lon="10.8761138"><ele>331.0</ele><time>2026-05-01T13:15:42.671Z</time></trkpt><trkpt lat="43.3869635" lon="10.8761235"><ele>328.66666666666663</ele><time>2026-05-01T13:15:43.672Z</time></trkpt><trkpt lat="43.3868951" lon="10.8760861"><ele>326.3333333333333</ele><time>2026-05-01T13:15:44.677Z</time></trkpt><trkpt lat="43.3868271" lon="10.8760234"><ele>324.0</ele><time>2026-05-01T13:15:45.672Z</time></trkpt><trkpt lat="43.3867648" lon="10.8759456"><ele>321.6666666666667</ele><time>2026-05-01T13:15:46.665Z</time></trkpt><trkpt lat="43.3867352" lon="10.8758411"><ele>319.33333333333337</ele><time>2026-05-01T13:15:47.673Z</time></trkpt><trkpt lat="43.3867123" lon="10.875724"><ele>317.0</ele><time>2026-05-01T13:15:48.661Z</time></trkpt><trkpt lat="43.3867115" lon="10.8756018"><ele>317.0</ele><time>2026-05-01T13:15:49.669Z</time></trkpt><trkpt lat="43.3867006" lon="10.875491"><ele>317.0</ele><time>2026-05-01T13:15:50.668Z</time></trkpt><trkpt lat="43.3866659" lon="10.8754061"><ele>317.0</ele><time>2026-05-01T13:15:51.664Z</time></trkpt><trkpt lat="43.3865887" lon="10.8753754"><ele>317.0</ele><time>2026-05-01T13:15:52.667Z</time></trkpt><trkpt lat="43.3865274" lon="10.8754033"><ele>317.0</ele><time>2026-05-01T13:15:53.66Z</time></trkpt><trkpt lat="43.3864711" lon="10.8754723"><ele>317.0</ele><time>2026-05-01T13:15:54.669Z</time></trkpt><trkpt lat="43.3864362" lon="10.8755873"><ele>317.0</ele><time>2026-05-01T13:15:55.673Z</time></trkpt><trkpt lat="43.3864204" lon="10.8757221"><ele>317.0</ele><time>2026-05-01T13:15:56.671Z</time></trkpt><trkpt lat="43.3864098" lon="10.8758594"><ele>317.0</ele><time>2026-05-01T13:15:57.671Z</time></trkpt><trkpt lat="43.3863724" lon="10.8759758"><ele>317.0</ele><time>2026-05-01T13:15:58.665Z</time></trkpt><trkpt lat="43.3863103" lon="10.8760666"><ele>317.0</ele><time>2026-05-01T13:15:59.688Z</time></trkpt><trkpt lat="43.3862245" lon="10.8761363"><ele>314.4</ele><time>2026-05-01T13:16:00.671Z</time></trkpt><trkpt lat="43.3861216" lon="10.8761851"><ele>311.79999999999995</ele><time>2026-05-01T13:16:01.664Z</time></trkpt><trkpt lat="43.3860095" lon="10.8762339"><ele>309.2</ele><time>2026-05-01T13:16:02.685Z</time></trkpt><trkpt lat="43.3858998" lon="10.8762863"><ele>306.59999999999997</ele><time>2026-05-01T13:16:03.676Z</time></trkpt><trkpt lat="43.3858086" lon="10.8763216"><ele>304.0</ele><time>2026-05-01T13:16:04.673Z</time></trkpt><trkpt lat="43.3857416" lon="10.8763661"><ele>304.0</ele><time>2026-05-01T13:16:05.68Z</time></trkpt><trkpt lat="43.3857047" lon="10.8764437"><ele>304.0</ele><time>2026-05-01T13:16:06.68Z</time></trkpt><trkpt lat="43.3856821" lon="10.8765373"><ele>304.0</ele><time>2026-05-01T13:16:07.665Z</time></trkpt><trkpt lat="43.3856519" lon="10.8766289"><ele>304.0</ele><time>2026-05-01T13:16:08.686Z</time></trkpt><trkpt lat="43.3855562" lon="10.8767003"><ele>304.0</ele><time>2026-05-01T13:16:10.67Z</time></trkpt><trkpt lat="43.385477" lon="10.8766199"><ele>304.0</ele><time>2026-05-01T13:16:12.668Z</time></trkpt><trkpt lat="43.3854494" lon="10.8765257"><ele>304.0</ele><time>2026-05-01T13:16:13.671Z</time></trkpt><trkpt lat="43.3854474" lon="10.8764282"><ele>304.0</ele><time>2026-05-01T13:16:14.671Z</time></trkpt><trkpt lat="43.3854766" lon="10.8763407"><ele>304.0</ele><time>2026-05-01T13:16:15.668Z</time></trkpt><trkpt lat="43.3855304" lon="10.876262"><ele>304.0</ele><time>2026-05-01T13:16:16.67Z</time></trkpt><trkpt lat="43.3856004" lon="10.8761917"><ele>304.0</ele><time>2026-05-01T13:16:17.671Z</time></trkpt><trkpt lat="43.385685" lon="10.8761154"><ele>304.0</ele><time>2026-05-01T13:16:18.675Z</time></trkpt><trkpt lat="43.3857665" lon="10.8759995"><ele>303.2</ele><time>2026-05-01T13:16:19.678Z</time></trkpt><trkpt lat="43.3858332" lon="10.8758535"><ele>302.4</ele><time>2026-05-01T13:16:20.666Z</time></trkpt><trkpt lat="43.3858705" lon="10.8757075"><ele>301.6</ele><time>2026-05-01T13:16:21.683Z</time></trkpt><trkpt lat="43.3858879" lon="10.8755634"><ele>300.8</ele><time>2026-05-01T13:16:22.671Z</time></trkpt><trkpt lat="43.3858892" lon="10.8754311"><ele>300.0</ele><time>2026-05-01T13:16:23.691Z</time></trkpt><trkpt lat="43.3858606" lon="10.8753102"><ele>300.0</ele><time>2026-05-01T13:16:24.651Z</time></trkpt><trkpt lat="43.3858275" lon="10.8752117"><ele>300.0</ele><time>2026-05-01T13:16:25.669Z</time></trkpt><trkpt lat="43.3857774" lon="10.8751436"><ele>300.0</ele><time>2026-05-01T13:16:26.666Z</time></trkpt><trkpt lat="43.3856623" lon="10.8751702"><ele>300.0</ele><time>2026-05-01T13:16:28.666Z</time></trkpt><trkpt lat="43.385601" lon="10.87532"><ele>300.0</ele><time>2026-05-01T13:16:30.664Z</time></trkpt><trkpt lat="43.3855611" lon="10.8754301"><ele>296.25</ele><time>2026-05-01T13:16:31.664Z</time></trkpt><trkpt lat="43.385503" lon="10.8755429"><ele>292.5</ele><time>2026-05-01T13:16:32.658Z</time></trkpt><trkpt lat="43.3854245" lon="10.8756516"><ele>288.75</ele><time>2026-05-01T13:16:33.665Z</time></trkpt><trkpt lat="43.3853261" lon="10.8757489"><ele>285.0</ele><time>2026-05-01T13:16:34.662Z</time></trkpt><trkpt lat="43.3852138" lon="10.8758317"><ele>285.0</ele><time>2026-05-01T13:16:35.677Z</time></trkpt><trkpt lat="43.3851062" lon="10.8759246"><ele>285.0</ele><time>2026-05-01T13:16:36.675Z</time></trkpt><trkpt lat="43.385003" lon="10.876021"><ele>285.0</ele><time>2026-05-01T13:16:37.677Z</time></trkpt><trkpt lat="43.3848907" lon="10.8761079"><ele>285.0</ele><time>2026-05-01T13:16:38.669Z</time></trkpt><trkpt lat="43.3847788" lon="10.8761622"><ele>284.0</ele><time>2026-05-01T13:16:39.676Z</time></trkpt><trkpt lat="43.3846694" lon="10.8762088"><ele>283.0</ele><time>2026-05-01T13:16:40.676Z</time></trkpt><trkpt lat="43.3845691" lon="10.8762481"><ele>282.0</ele><time>2026-05-01T13:16:41.666Z</time></trkpt><trkpt lat="43.3844739" lon="10.8762819"><ele>281.0</ele><time>2026-05-01T13:16:42.671Z</time></trkpt><trkpt lat="43.3843784" lon="10.8763032"><ele>280.0</ele><time>2026-05-01T13:16:43.678Z</time></trkpt><trkpt lat="43.3842743" lon="10.8762955"><ele>280.0</ele><time>2026-05-01T13:16:44.684Z</time></trkpt><trkpt lat="43.3841763" lon="10.8762533"><ele>280.0</ele><time>2026-05-01T13:16:45.68Z</time></trkpt><trkpt lat="43.3840988" lon="10.876211"><ele>280.0</ele><time>2026-05-01T13:16:46.668Z</time></trkpt><trkpt lat="43.3840269" lon="10.8761952"><ele>280.0</ele><time>2026-05-01T13:16:47.673Z</time></trkpt><trkpt lat="43.3839439" lon="10.876206"><ele>280.0</ele><time>2026-05-01T13:16:48.674Z</time></trkpt><trkpt lat="43.3838418" lon="10.8762286"><ele>280.0</ele><time>2026-05-01T13:16:49.663Z</time></trkpt><trkpt lat="43.3837305" lon="10.8762559"><ele>276.5</ele><time>2026-05-01T13:16:50.686Z</time></trkpt><trkpt lat="43.3836129" lon="10.8762829"><ele>273.0</ele><time>2026-05-01T13:16:51.647Z</time></trkpt><trkpt lat="43.38349" lon="10.8763193"><ele>269.5</ele><time>2026-05-01T13:16:52.665Z</time></trkpt><trkpt lat="43.3833721" lon="10.8763481"><ele>266.0</ele><time>2026-05-01T13:16:53.669Z</time></trkpt><trkpt lat="43.3832594" lon="10.8763658"><ele>266.0</ele><time>2026-05-01T13:16:54.664Z</time></trkpt><trkpt lat="43.3831494" lon="10.8763639"><ele>266.0</ele><time>2026-05-01T13:16:55.696Z</time></trkpt><trkpt lat="43.3830389" lon="10.8763426"><ele>266.0</ele><time>2026-05-01T13:16:56.672Z</time></trkpt><trkpt lat="43.3829329" lon="10.8762899"><ele>266.0</ele><time>2026-05-01T13:16:57.691Z</time></trkpt><trkpt lat="43.3828259" lon="10.8762207"><ele>264.25</ele><time>2026-05-01T13:16:58.653Z</time></trkpt><trkpt lat="43.3827135" lon="10.8761439"><ele>262.5</ele><time>2026-05-01T13:16:59.669Z</time></trkpt><trkpt lat="43.3826002" lon="10.8760569"><ele>260.75</ele><time>2026-05-01T13:17:00.674Z</time></trkpt><trkpt lat="43.3824828" lon="10.8759709"><ele>259.0</ele><time>2026-05-01T13:17:01.663Z</time></trkpt><trkpt lat="43.3823555" lon="10.8758817"><ele>259.0</ele><time>2026-05-01T13:17:02.659Z</time></trkpt><trkpt lat="43.3822255" lon="10.875795"><ele>259.0</ele><time>2026-05-01T13:17:03.665Z</time></trkpt><trkpt lat="43.3820917" lon="10.8757035"><ele>259.0</ele><time>2026-05-01T13:17:04.67Z</time></trkpt><trkpt lat="43.3819551" lon="10.8756039"><ele>259.0</ele><time>2026-05-01T13:17:05.685Z</time></trkpt><trkpt lat="43.3818204" lon="10.8755037"><ele>257.5</ele><time>2026-05-01T13:17:06.666Z</time></trkpt><trkpt lat="43.381698" lon="10.8754103"><ele>256.0</ele><time>2026-05-01T13:17:07.666Z</time></trkpt><trkpt lat="43.3815997" lon="10.8753343"><ele>254.5</ele><time>2026-05-01T13:17:08.662Z</time></trkpt><trkpt lat="43.381498" lon="10.8752839"><ele>253.0</ele><time>2026-05-01T13:17:09.679Z</time></trkpt><trkpt lat="43.3813927" lon="10.8752491"><ele>251.2</ele><time>2026-05-01T13:17:10.669Z</time></trkpt><trkpt lat="43.3812887" lon="10.8752335"><ele>249.4</ele><time>2026-05-01T13:17:11.664Z</time></trkpt><trkpt lat="43.3811812" lon="10.8752214"><ele>247.59999999999997</ele><time>2026-05-01T13:17:12.664Z</time></trkpt><trkpt lat="43.3810731" lon="10.8752178"><ele>245.79999999999998</ele><time>2026-05-01T13:17:13.66Z</time></trkpt><trkpt lat="43.3809604" lon="10.8752236"><ele>244.0</ele><time>2026-05-01T13:17:14.661Z</time></trkpt><trkpt lat="43.3808492" lon="10.8752372"><ele>244.0</ele><time>2026-05-01T13:17:15.661Z</time></trkpt><trkpt lat="43.3807372" lon="10.875261"><ele>243.99999999999997</ele><time>2026-05-01T13:17:16.671Z</time></trkpt><trkpt lat="43.3806304" lon="10.8752946"><ele>243.99999999999997</ele><time>2026-05-01T13:17:17.664Z</time></trkpt><trkpt lat="43.3805224" lon="10.8753174"><ele>244.0</ele><time>2026-05-01T13:17:18.665Z</time></trkpt><trkpt lat="43.3804075" lon="10.8753341"><ele>244.0</ele><time>2026-05-01T13:17:19.67Z</time></trkpt><trkpt lat="43.3802749" lon="10.8753436"><ele>242.5</ele><time>2026-05-01T13:17:20.665Z</time></trkpt><trkpt lat="43.3801427" lon="10.8753568"><ele>241.0</ele><time>2026-05-01T13:17:21.663Z</time></trkpt><trkpt lat="43.3800136" lon="10.875366"><ele>239.5</ele><time>2026-05-01T13:17:22.666Z</time></trkpt><trkpt lat="43.3798861" lon="10.8753745"><ele>238.0</ele><time>2026-05-01T13:17:23.664Z</time></trkpt><trkpt lat="43.3797652" lon="10.8753794"><ele>237.8</ele><time>2026-05-01T13:17:24.664Z</time></trkpt><trkpt lat="43.3796479" lon="10.8753889"><ele>237.60000000000002</ele><time>2026-05-01T13:17:25.661Z</time></trkpt><trkpt lat="43.3795427" lon="10.8753971"><ele>237.39999999999998</ele><time>2026-05-01T13:17:26.664Z</time></trkpt><trkpt lat="43.3794494" lon="10.8754003"><ele>237.2</ele><time>2026-05-01T13:17:27.674Z</time></trkpt><trkpt lat="43.3793667" lon="10.875405"><ele>237.0</ele><time>2026-05-01T13:17:28.651Z</time></trkpt><trkpt lat="43.379296" lon="10.8754079"><ele>237.0</ele><time>2026-05-01T13:17:29.666Z</time></trkpt><trkpt lat="43.3792302" lon="10.8754115"><ele>237.0</ele><time>2026-05-01T13:17:30.668Z</time></trkpt><trkpt lat="43.3791324" lon="10.8754097"><ele>237.0</ele><time>2026-05-01T13:17:32.679Z</time></trkpt><trkpt lat="43.3790675" lon="10.8754096"><ele>237.0</ele><time>2026-05-01T13:17:57.673Z</time></trkpt><trkpt lat="43.3790023" lon="10.8753998"><ele>237.0</ele><time>2026-05-01T13:18:01.67Z</time></trkpt><trkpt lat="43.3788727" lon="10.8753822"><ele>237.0</ele><time>2026-05-01T13:18:17.665Z</time></trkpt><trkpt lat="43.3787962" lon="10.8753537"><ele>237.0</ele><time>2026-05-01T13:18:18.674Z</time></trkpt><trkpt lat="43.3787291" lon="10.875303"><ele>237.0</ele><time>2026-05-01T13:18:19.667Z</time></trkpt><trkpt lat="43.3786653" lon="10.8752529"><ele>237.0</ele><time>2026-05-01T13:18:20.672Z</time></trkpt><trkpt lat="43.3786054" lon="10.8752024"><ele>237.0</ele><time>2026-05-01T13:18:21.666Z</time></trkpt><trkpt lat="43.3785412" lon="10.8751385"><ele>237.0</ele><time>2026-05-01T13:18:22.666Z</time></trkpt><trkpt lat="43.3784748" lon="10.8750579"><ele>237.0</ele><time>2026-05-01T13:18:23.668Z</time></trkpt><trkpt lat="43.3784061" lon="10.8749718"><ele>237.6</ele><time>2026-05-01T13:18:24.68Z</time></trkpt><trkpt lat="43.3783345" lon="10.8748823"><ele>238.2</ele><time>2026-05-01T13:18:25.675Z</time></trkpt><trkpt lat="43.3782644" lon="10.8747985"><ele>238.8</ele><time>2026-05-01T13:18:26.674Z</time></trkpt><trkpt lat="43.378202" lon="10.8747088"><ele>239.4</ele><time>2026-05-01T13:18:27.678Z</time></trkpt><trkpt lat="43.3781481" lon="10.8746163"><ele>240.0</ele><time>2026-05-01T13:18:28.679Z</time></trkpt><trkpt lat="43.3781043" lon="10.874514"><ele>240.0</ele><time>2026-05-01T13:18:29.665Z</time></trkpt><trkpt lat="43.3780658" lon="10.8744176"><ele>240.0</ele><time>2026-05-01T13:18:30.697Z</time></trkpt><trkpt lat="43.3780266" lon="10.874313"><ele>240.0</ele><time>2026-05-01T13:18:31.682Z</time></trkpt><trkpt lat="43.3779887" lon="10.8742063"><ele>240.0</ele><time>2026-05-01T13:18:32.668Z</time></trkpt><trkpt lat="43.3779379" lon="10.874104"><ele>240.0</ele><time>2026-05-01T13:18:33.665Z</time></trkpt><trkpt lat="43.3778805" lon="10.873997"><ele>240.0</ele><time>2026-05-01T13:18:34.659Z</time></trkpt><trkpt lat="43.3778122" lon="10.8738927"><ele>239.25</ele><time>2026-05-01T13:18:35.673Z</time></trkpt><trkpt lat="43.3777328" lon="10.8737893"><ele>238.5</ele><time>2026-05-01T13:18:36.658Z</time></trkpt><trkpt lat="43.3776525" lon="10.8736776"><ele>237.75</ele><time>2026-05-01T13:18:37.677Z</time></trkpt><trkpt lat="43.3775703" lon="10.873556"><ele>237.0</ele><time>2026-05-01T13:18:38.693Z</time></trkpt><trkpt lat="43.3774822" lon="10.8734188"><ele>235.5</ele><time>2026-05-01T13:18:39.672Z</time></trkpt><trkpt lat="43.3773865" lon="10.8732856"><ele>234.0</ele><time>2026-05-01T13:18:40.675Z</time></trkpt><trkpt lat="43.3772933" lon="10.8731571"><ele>232.5</ele><time>2026-05-01T13:18:41.664Z</time></trkpt><trkpt lat="43.377205" lon="10.8730324"><ele>231.0</ele><time>2026-05-01T13:18:42.663Z</time></trkpt><trkpt lat="43.3771226" lon="10.8729153"><ele>231.0</ele><time>2026-05-01T13:18:43.671Z</time></trkpt><trkpt lat="43.3770501" lon="10.8728068"><ele>231.00000000000003</ele><time>2026-05-01T13:18:44.666Z</time></trkpt><trkpt lat="43.3769775" lon="10.8727066"><ele>231.00000000000003</ele><time>2026-05-01T13:18:45.689Z</time></trkpt><trkpt lat="43.3769141" lon="10.8726114"><ele>231.0</ele><time>2026-05-01T13:18:46.675Z</time></trkpt><trkpt lat="43.3768489" lon="10.8725193"><ele>231.0</ele><time>2026-05-01T13:18:47.678Z</time></trkpt><trkpt lat="43.3767786" lon="10.8724192"><ele>229.8</ele><time>2026-05-01T13:18:48.666Z</time></trkpt><trkpt lat="43.3767122" lon="10.8723204"><ele>228.60000000000002</ele><time>2026-05-01T13:18:49.674Z</time></trkpt><trkpt lat="43.3766436" lon="10.8722188"><ele>227.4</ele><time>2026-05-01T13:18:50.67Z</time></trkpt><trkpt lat="43.3765724" lon="10.8721146"><ele>226.2</ele><time>2026-05-01T13:18:51.671Z</time></trkpt><trkpt lat="43.3765019" lon="10.8720064"><ele>225.0</ele><time>2026-05-01T13:18:52.675Z</time></trkpt><trkpt lat="43.3764251" lon="10.8719007"><ele>225.0</ele><time>2026-05-01T13:18:53.681Z</time></trkpt><trkpt lat="43.3763477" lon="10.8717894"><ele>225.0</ele><time>2026-05-01T13:18:54.672Z</time></trkpt><trkpt lat="43.3762679" lon="10.8716773"><ele>225.0</ele><time>2026-05-01T13:18:55.676Z</time></trkpt><trkpt lat="43.3761866" lon="10.8715659"><ele>225.0</ele><time>2026-05-01T13:18:56.675Z</time></trkpt><trkpt lat="43.3761047" lon="10.8714561"><ele>225.0</ele><time>2026-05-01T13:18:57.667Z</time></trkpt><trkpt lat="43.3760255" lon="10.8713453"><ele>225.0</ele><time>2026-05-01T13:18:58.663Z</time></trkpt><trkpt lat="43.3759464" lon="10.8712305"><ele>225.0</ele><time>2026-05-01T13:18:59.68Z</time></trkpt><trkpt lat="43.3758673" lon="10.8711076"><ele>225.0</ele><time>2026-05-01T13:19:00.663Z</time></trkpt><trkpt lat="43.3757834" lon="10.8709922"><ele>224.25</ele><time>2026-05-01T13:19:01.67Z</time></trkpt><trkpt lat="43.3756978" lon="10.8708783"><ele>223.5</ele><time>2026-05-01T13:19:02.68Z</time></trkpt><trkpt lat="43.3756099" lon="10.8707574"><ele>222.75</ele><time>2026-05-01T13:19:03.671Z</time></trkpt><trkpt lat="43.3755222" lon="10.8706327"><ele>222.0</ele><time>2026-05-01T13:19:04.666Z</time></trkpt><trkpt lat="43.3754316" lon="10.870501"><ele>222.0</ele><time>2026-05-01T13:19:05.679Z</time></trkpt><trkpt lat="43.3753378" lon="10.8703805"><ele>222.0</ele><time>2026-05-01T13:19:06.672Z</time></trkpt><trkpt lat="43.3752498" lon="10.8702601"><ele>222.0</ele><time>2026-05-01T13:19:07.672Z</time></trkpt><trkpt lat="43.3751737" lon="10.8701616"><ele>222.0</ele><time>2026-05-01T13:19:08.661Z</time></trkpt><trkpt lat="43.3751056" lon="10.8700714"><ele>220.8</ele><time>2026-05-01T13:19:09.669Z</time></trkpt><trkpt lat="43.3750462" lon="10.8699722"><ele>219.6</ele><time>2026-05-01T13:19:10.669Z</time></trkpt><trkpt lat="43.374986" lon="10.8698788"><ele>218.40000000000003</ele><time>2026-05-01T13:19:11.674Z</time></trkpt><trkpt lat="43.3749189" lon="10.8697856"><ele>217.20000000000002</ele><time>2026-05-01T13:19:12.675Z</time></trkpt><trkpt lat="43.3748359" lon="10.8697055"><ele>216.0</ele><time>2026-05-01T13:19:13.679Z</time></trkpt><trkpt lat="43.374747" lon="10.8696378"><ele>215.60000000000002</ele><time>2026-05-01T13:19:14.68Z</time></trkpt><trkpt lat="43.3746595" lon="10.8695701"><ele>215.20000000000002</ele><time>2026-05-01T13:19:15.678Z</time></trkpt><trkpt lat="43.3745647" lon="10.869495"><ele>214.79999999999998</ele><time>2026-05-01T13:19:16.676Z</time></trkpt><trkpt lat="43.3744606" lon="10.8694176"><ele>214.39999999999998</ele><time>2026-05-01T13:19:17.681Z</time></trkpt><trkpt lat="43.3743594" lon="10.869341"><ele>214.0</ele><time>2026-05-01T13:19:18.669Z</time></trkpt><trkpt lat="43.3742666" lon="10.8692715"><ele>213.79999999999998</ele><time>2026-05-01T13:19:19.678Z</time></trkpt><trkpt lat="43.3741894" lon="10.8692013"><ele>213.59999999999997</ele><time>2026-05-01T13:19:20.675Z</time></trkpt><trkpt lat="43.3741268" lon="10.8691279"><ele>213.4</ele><time>2026-05-01T13:19:21.664Z</time></trkpt><trkpt lat="43.3740788" lon="10.8690261"><ele>213.2</ele><time>2026-05-01T13:19:22.682Z</time></trkpt><trkpt lat="43.3740352" lon="10.868914"><ele>213.0</ele><time>2026-05-01T13:19:23.68Z</time></trkpt><trkpt lat="43.3739837" lon="10.8687988"><ele>213.0</ele><time>2026-05-01T13:19:24.671Z</time></trkpt><trkpt lat="43.3739152" lon="10.8687184"><ele>213.0</ele><time>2026-05-01T13:19:25.69Z</time></trkpt><trkpt lat="43.3738436" lon="10.8686571"><ele>213.0</ele><time>2026-05-01T13:19:26.673Z</time></trkpt><trkpt lat="43.3737606" lon="10.8686159"><ele>213.0</ele><time>2026-05-01T13:19:27.683Z</time></trkpt><trkpt lat="43.3736838" lon="10.8685865"><ele>213.0</ele><time>2026-05-01T13:19:28.68Z</time></trkpt><trkpt lat="43.3736098" lon="10.8685643"><ele>213.0</ele><time>2026-05-01T13:19:29.674Z</time></trkpt><trkpt lat="43.3735349" lon="10.8685327"><ele>212.5</ele><time>2026-05-01T13:19:30.679Z</time></trkpt><trkpt lat="43.3734575" lon="10.868502"><ele>212.0</ele><time>2026-05-01T13:19:31.668Z</time></trkpt><trkpt lat="43.3733812" lon="10.8684651"><ele>211.5</ele><time>2026-05-01T13:19:32.67Z</time></trkpt><trkpt lat="43.3733134" lon="10.8684223"><ele>211.0</ele><time>2026-05-01T13:19:33.67Z</time></trkpt><trkpt lat="43.3732502" lon="10.8683567"><ele>210.5</ele><time>2026-05-01T13:19:34.683Z</time></trkpt><trkpt lat="43.3731949" lon="10.8682875"><ele>210.0</ele><time>2026-05-01T13:19:35.682Z</time></trkpt><trkpt lat="43.3731495" lon="10.8681946"><ele>210.0</ele><time>2026-05-01T13:19:36.67Z</time></trkpt><trkpt lat="43.3731044" lon="10.8681009"><ele>210.0</ele><time>2026-05-01T13:19:37.679Z</time></trkpt><trkpt lat="43.3730575" lon="10.8679969"><ele>210.0</ele><time>2026-05-01T13:19:38.664Z</time></trkpt><trkpt lat="43.3730142" lon="10.8678885"><ele>210.0</ele><time>2026-05-01T13:19:39.669Z</time></trkpt><trkpt lat="43.3729834" lon="10.8677735"><ele>210.0</ele><time>2026-05-01T13:19:40.657Z</time></trkpt><trkpt lat="43.3729616" lon="10.8676405"><ele>210.0</ele><time>2026-05-01T13:19:41.668Z</time></trkpt><trkpt lat="43.3729435" lon="10.8675075"><ele>207.6</ele><time>2026-05-01T13:19:42.663Z</time></trkpt><trkpt lat="43.3729135" lon="10.867375"><ele>205.2</ele><time>2026-05-01T13:19:43.691Z</time></trkpt><trkpt lat="43.3728714" lon="10.8672489"><ele>202.8</ele><time>2026-05-01T13:19:44.665Z</time></trkpt><trkpt lat="43.3728119" lon="10.8671382"><ele>200.4</ele><time>2026-05-01T13:19:45.671Z</time></trkpt><trkpt lat="43.3727326" lon="10.8670383"><ele>198.0</ele><time>2026-05-01T13:19:46.661Z</time></trkpt><trkpt lat="43.372659" lon="10.8669334"><ele>198.0</ele><time>2026-05-01T13:19:47.676Z</time></trkpt><trkpt lat="43.3725938" lon="10.8668296"><ele>198.0</ele><time>2026-05-01T13:19:48.676Z</time></trkpt><trkpt lat="43.3725415" lon="10.8667244"><ele>198.0</ele><time>2026-05-01T13:19:49.688Z</time></trkpt><trkpt lat="43.3725031" lon="10.8666195"><ele>198.0</ele><time>2026-05-01T13:19:50.667Z</time></trkpt><trkpt lat="43.3724753" lon="10.8665024"><ele>198.0</ele><time>2026-05-01T13:19:51.675Z</time></trkpt><trkpt lat="43.3724491" lon="10.8663845"><ele>198.60000000000002</ele><time>2026-05-01T13:19:52.688Z</time></trkpt><trkpt lat="43.3724224" lon="10.8662669"><ele>199.20000000000002</ele><time>2026-05-01T13:19:53.672Z</time></trkpt><trkpt lat="43.3723885" lon="10.8661472"><ele>199.8</ele><time>2026-05-01T13:19:54.666Z</time></trkpt><trkpt lat="43.3723483" lon="10.866018"><ele>200.4</ele><time>2026-05-01T13:19:55.644Z</time></trkpt><trkpt lat="43.3723157" lon="10.8658948"><ele>201.0</ele><time>2026-05-01T13:19:56.667Z</time></trkpt><trkpt lat="43.3722827" lon="10.8657783"><ele>201.0</ele><time>2026-05-01T13:19:57.663Z</time></trkpt><trkpt lat="43.3722441" lon="10.8656793"><ele>201.0</ele><time>2026-05-01T13:19:58.658Z</time></trkpt><trkpt lat="43.3721963" lon="10.8656006"><ele>201.0</ele><time>2026-05-01T13:19:59.65Z</time></trkpt><trkpt lat="43.3721326" lon="10.8655497"><ele>201.0</ele><time>2026-05-01T13:20:00.668Z</time></trkpt><trkpt lat="43.372062" lon="10.8655369"><ele>201.0</ele><time>2026-05-01T13:20:01.667Z</time></trkpt><trkpt lat="43.3719886" lon="10.8655493"><ele>201.0</ele><time>2026-05-01T13:20:02.671Z</time></trkpt><trkpt lat="43.3719215" lon="10.8655715"><ele>201.0</ele><time>2026-05-01T13:20:03.685Z</time></trkpt><trkpt lat="43.3718579" lon="10.8656089"><ele>200.5</ele><time>2026-05-01T13:20:04.666Z</time></trkpt><trkpt lat="43.3718013" lon="10.8656625"><ele>200.0</ele><time>2026-05-01T13:20:05.669Z</time></trkpt><trkpt lat="43.3717464" lon="10.8657218"><ele>199.5</ele><time>2026-05-01T13:20:06.666Z</time></trkpt><trkpt lat="43.3716869" lon="10.8657906"><ele>199.0</ele><time>2026-05-01T13:20:07.673Z</time></trkpt><trkpt lat="43.3716152" lon="10.8658689"><ele>198.5</ele><time>2026-05-01T13:20:08.665Z</time></trkpt><trkpt lat="43.3715428" lon="10.8659524"><ele>198.0</ele><time>2026-05-01T13:20:09.672Z</time></trkpt><trkpt lat="43.3714744" lon="10.8660362"><ele>197.4</ele><time>2026-05-01T13:20:10.669Z</time></trkpt><trkpt lat="43.3713984" lon="10.8661253"><ele>196.8</ele><time>2026-05-01T13:20:11.685Z</time></trkpt><trkpt lat="43.3713169" lon="10.8662219"><ele>196.2</ele><time>2026-05-01T13:20:12.67Z</time></trkpt><trkpt lat="43.3712301" lon="10.8663256"><ele>195.6</ele><time>2026-05-01T13:20:13.686Z</time></trkpt><trkpt lat="43.3711486" lon="10.8664237"><ele>195.0</ele><time>2026-05-01T13:20:14.672Z</time></trkpt><trkpt lat="43.3710682" lon="10.8664901"><ele>195.0</ele><time>2026-05-01T13:20:15.673Z</time></trkpt><trkpt lat="43.3709907" lon="10.8665317"><ele>195.0</ele><time>2026-05-01T13:20:16.665Z</time></trkpt><trkpt lat="43.370913" lon="10.8665646"><ele>195.0</ele><time>2026-05-01T13:20:17.662Z</time></trkpt><trkpt lat="43.3708254" lon="10.866583"><ele>195.0</ele><time>2026-05-01T13:20:18.668Z</time></trkpt><trkpt lat="43.3707322" lon="10.8665953"><ele>195.0</ele><time>2026-05-01T13:20:19.665Z</time></trkpt><trkpt lat="43.3706356" lon="10.8665993"><ele>195.0</ele><time>2026-05-01T13:20:20.665Z</time></trkpt><trkpt lat="43.3705343" lon="10.8665866"><ele>196.0</ele><time>2026-05-01T13:20:21.669Z</time></trkpt><trkpt lat="43.3704321" lon="10.8665474"><ele>197.0</ele><time>2026-05-01T13:20:22.673Z</time></trkpt><trkpt lat="43.3703223" lon="10.8665042"><ele>198.0</ele><time>2026-05-01T13:20:23.671Z</time></trkpt><trkpt lat="43.3702069" lon="10.8664575"><ele>199.0</ele><time>2026-05-01T13:20:24.66Z</time></trkpt><trkpt lat="43.3701002" lon="10.8664253"><ele>199.0</ele><time>2026-05-01T13:20:25.686Z</time></trkpt><trkpt lat="43.3699914" lon="10.8664094"><ele>199.0</ele><time>2026-05-01T13:20:26.665Z</time></trkpt><trkpt lat="43.3698796" lon="10.8664101"><ele>199.0</ele><time>2026-05-01T13:20:27.666Z</time></trkpt><trkpt lat="43.369773" lon="10.8664233"><ele>199.0</ele><time>2026-05-01T13:20:28.661Z</time></trkpt><trkpt lat="43.3696622" lon="10.8664345"><ele>199.0</ele><time>2026-05-01T13:20:29.687Z</time></trkpt><trkpt lat="43.3695516" lon="10.8664545"><ele>198.0</ele><time>2026-05-01T13:20:30.664Z</time></trkpt><trkpt lat="43.3694326" lon="10.8664743"><ele>197.0</ele><time>2026-05-01T13:20:31.668Z</time></trkpt><trkpt lat="43.3693123" lon="10.8664818"><ele>196.0</ele><time>2026-05-01T13:20:32.667Z</time></trkpt><trkpt lat="43.3691923" lon="10.8664596"><ele>195.0</ele><time>2026-05-01T13:20:33.677Z</time></trkpt><trkpt lat="43.3690694" lon="10.8664264"><ele>195.0</ele><time>2026-05-01T13:20:34.671Z</time></trkpt><trkpt lat="43.3689519" lon="10.8663929"><ele>195.0</ele><time>2026-05-01T13:20:35.67Z</time></trkpt><trkpt lat="43.3688273" lon="10.8663745"><ele>195.0</ele><time>2026-05-01T13:20:36.666Z</time></trkpt><trkpt lat="43.3686999" lon="10.8663649"><ele>195.0</ele><time>2026-05-01T13:20:37.683Z</time></trkpt><trkpt lat="43.3685704" lon="10.8663478"><ele>194.0</ele><time>2026-05-01T13:20:38.666Z</time></trkpt><trkpt lat="43.3684368" lon="10.8663363"><ele>193.0</ele><time>2026-05-01T13:20:39.683Z</time></trkpt><trkpt lat="43.3683014" lon="10.8663287"><ele>192.0</ele><time>2026-05-01T13:20:40.697Z</time></trkpt><trkpt lat="43.3681658" lon="10.8663198"><ele>191.0</ele><time>2026-05-01T13:20:41.667Z</time></trkpt><trkpt lat="43.3680372" lon="10.8663093"><ele>190.5</ele><time>2026-05-01T13:20:42.665Z</time></trkpt><trkpt lat="43.3679147" lon="10.8663015"><ele>190.0</ele><time>2026-05-01T13:20:43.682Z</time></trkpt><trkpt lat="43.3677905" lon="10.8662897"><ele>189.5</ele><time>2026-05-01T13:20:44.671Z</time></trkpt><trkpt lat="43.36766" lon="10.8662854"><ele>189.0</ele><time>2026-05-01T13:20:45.675Z</time></trkpt><trkpt lat="43.3675248" lon="10.8662976"><ele>189.0</ele><time>2026-05-01T13:20:46.68Z</time></trkpt><trkpt lat="43.3673891" lon="10.8663221"><ele>189.0</ele><time>2026-05-01T13:20:47.676Z</time></trkpt><trkpt lat="43.36725" lon="10.8663594"><ele>189.0</ele><time>2026-05-01T13:20:48.671Z</time></trkpt><trkpt lat="43.3671121" lon="10.8663932"><ele>189.0</ele><time>2026-05-01T13:20:49.686Z</time></trkpt><trkpt lat="43.3669764" lon="10.8664256"><ele>188.5</ele><time>2026-05-01T13:20:50.667Z</time></trkpt><trkpt lat="43.3668527" lon="10.8664292"><ele>188.0</ele><time>2026-05-01T13:20:51.67Z</time></trkpt><trkpt lat="43.3667244" lon="10.8664009"><ele>187.5</ele><time>2026-05-01T13:20:52.662Z</time></trkpt><trkpt lat="43.3665942" lon="10.8663469"><ele>187.0</ele><time>2026-05-01T13:20:53.667Z</time></trkpt><trkpt lat="43.3664664" lon="10.8662753"><ele>186.0</ele><time>2026-05-01T13:20:54.661Z</time></trkpt><trkpt lat="43.3663362" lon="10.8661958"><ele>185.0</ele><time>2026-05-01T13:20:55.68Z</time></trkpt><trkpt lat="43.3661985" lon="10.866114"><ele>184.0</ele><time>2026-05-01T13:20:56.662Z</time></trkpt><trkpt lat="43.3660476" lon="10.8660378"><ele>184.0</ele><time>2026-05-01T13:20:57.675Z</time></trkpt><trkpt lat="43.3658836" lon="10.8659569"><ele>184.0</ele><time>2026-05-01T13:20:58.665Z</time></trkpt><trkpt lat="43.3657111" lon="10.8658737"><ele>184.0</ele><time>2026-05-01T13:20:59.668Z</time></trkpt><trkpt lat="43.3655304" lon="10.865776"><ele>183.33333333333334</ele><time>2026-05-01T13:21:00.66Z</time></trkpt><trkpt lat="43.3653349" lon="10.8656669"><ele>182.66666666666666</ele><time>2026-05-01T13:21:01.669Z</time></trkpt><trkpt lat="43.3651349" lon="10.8655312"><ele>182.0</ele><time>2026-05-01T13:21:02.674Z</time></trkpt><trkpt lat="43.3649197" lon="10.8653842"><ele>180.5</ele><time>2026-05-01T13:21:03.681Z</time></trkpt><trkpt lat="43.3646921" lon="10.8652323"><ele>179.0</ele><time>2026-05-01T13:21:04.68Z</time></trkpt><trkpt lat="43.3644747" lon="10.8650888"><ele>181.66666666666666</ele><time>2026-05-01T13:21:05.668Z</time></trkpt><trkpt lat="43.3642914" lon="10.8649595"><ele>184.33333333333334</ele><time>2026-05-01T13:21:06.66Z</time></trkpt><trkpt lat="43.3641446" lon="10.8648557"><ele>187.0</ele><time>2026-05-01T13:21:07.671Z</time></trkpt><trkpt lat="43.3640249" lon="10.8647475"><ele>187.0</ele><time>2026-05-01T13:21:08.666Z</time></trkpt><trkpt lat="43.3639461" lon="10.8646324"><ele>187.0</ele><time>2026-05-01T13:21:09.672Z</time></trkpt><trkpt lat="43.36388" lon="10.864504"><ele>187.0</ele><time>2026-05-01T13:21:10.665Z</time></trkpt><trkpt lat="43.3638125" lon="10.8643278"><ele>187.0</ele><time>2026-05-01T13:21:11.682Z</time></trkpt><trkpt lat="43.3637451" lon="10.8641247"><ele>187.25</ele><time>2026-05-01T13:21:12.667Z</time></trkpt><trkpt lat="43.3636884" lon="10.8639433"><ele>187.5</ele><time>2026-05-01T13:21:13.668Z</time></trkpt><trkpt lat="43.3636365" lon="10.86378"><ele>187.75</ele><time>2026-05-01T13:21:14.662Z</time></trkpt><trkpt lat="43.363582" lon="10.8636049"><ele>188.0</ele><time>2026-05-01T13:21:15.67Z</time></trkpt><trkpt lat="43.3635211" lon="10.8634181"><ele>187.5</ele><time>2026-05-01T13:21:16.674Z</time></trkpt><trkpt lat="43.363461" lon="10.8632416"><ele>187.0</ele><time>2026-05-01T13:21:17.661Z</time></trkpt><trkpt lat="43.3634006" lon="10.8630712"><ele>186.5</ele><time>2026-05-01T13:21:18.687Z</time></trkpt><trkpt lat="43.3633413" lon="10.8629117"><ele>186.0</ele><time>2026-05-01T13:21:19.666Z</time></trkpt><trkpt lat="43.3632783" lon="10.862753"><ele>184.75</ele><time>2026-05-01T13:21:20.673Z</time></trkpt><trkpt lat="43.3632077" lon="10.8626049"><ele>183.5</ele><time>2026-05-01T13:21:21.661Z</time></trkpt><trkpt lat="43.363141" lon="10.8624539"><ele>182.25</ele><time>2026-05-01T13:21:22.665Z</time></trkpt><trkpt lat="43.363068" lon="10.8622927"><ele>181.0</ele><time>2026-05-01T13:21:23.676Z</time></trkpt><trkpt lat="43.3629874" lon="10.8621346"><ele>180.75</ele><time>2026-05-01T13:21:24.665Z</time></trkpt><trkpt lat="43.3629048" lon="10.8619774"><ele>180.5</ele><time>2026-05-01T13:21:25.665Z</time></trkpt><trkpt lat="43.3628261" lon="10.8618081"><ele>180.25</ele><time>2026-05-01T13:21:26.653Z</time></trkpt><trkpt lat="43.3627503" lon="10.8616327"><ele>180.0</ele><time>2026-05-01T13:21:27.669Z</time></trkpt><trkpt lat="43.3626874" lon="10.8614336"><ele>179.75</ele><time>2026-05-01T13:21:28.66Z</time></trkpt><trkpt lat="43.3626344" lon="10.8612414"><ele>179.5</ele><time>2026-05-01T13:21:29.676Z</time></trkpt><trkpt lat="43.3625917" lon="10.8610633"><ele>179.25</ele><time>2026-05-01T13:21:30.667Z</time></trkpt><trkpt lat="43.3625476" lon="10.8609147"><ele>179.0</ele><time>2026-05-01T13:21:31.671Z</time></trkpt><trkpt lat="43.3625033" lon="10.8607836"><ele>179.0</ele><time>2026-05-01T13:21:32.661Z</time></trkpt><trkpt lat="43.3624586" lon="10.8606772"><ele>179.0</ele><time>2026-05-01T13:21:33.672Z</time></trkpt><trkpt lat="43.3624165" lon="10.8605958"><ele>179.0</ele><time>2026-05-01T13:21:34.666Z</time></trkpt><trkpt lat="43.3623415" lon="10.8605206"><ele>179.0</ele><time>2026-05-01T13:21:35.661Z</time></trkpt><trkpt lat="43.3622542" lon="10.8604438"><ele>179.0</ele><time>2026-05-01T13:21:36.665Z</time></trkpt><trkpt lat="43.3621577" lon="10.8603799"><ele>179.0</ele><time>2026-05-01T13:21:37.663Z</time></trkpt><trkpt lat="43.3620617" lon="10.860329"><ele>179.0</ele><time>2026-05-01T13:21:38.661Z</time></trkpt><trkpt lat="43.3619667" lon="10.8602936"><ele>179.0</ele><time>2026-05-01T13:21:39.664Z</time></trkpt><trkpt lat="43.3618636" lon="10.8602721"><ele>179.0</ele><time>2026-05-01T13:21:40.673Z</time></trkpt><trkpt lat="43.3617515" lon="10.8602549"><ele>179.0</ele><time>2026-05-01T13:21:41.678Z</time></trkpt><trkpt lat="43.3616317" lon="10.860243"><ele>179.0</ele><time>2026-05-01T13:21:42.666Z</time></trkpt><trkpt lat="43.3614906" lon="10.8602271"><ele>179.0</ele><time>2026-05-01T13:21:43.676Z</time></trkpt><trkpt lat="43.361341" lon="10.8602142"><ele>179.0</ele><time>2026-05-01T13:21:44.672Z</time></trkpt><trkpt lat="43.3611946" lon="10.8601917"><ele>179.0</ele><time>2026-05-01T13:21:45.686Z</time></trkpt><trkpt lat="43.3610718" lon="10.8601668"><ele>179.2</ele><time>2026-05-01T13:21:46.66Z</time></trkpt><trkpt lat="43.3609555" lon="10.8601442"><ele>179.39999999999998</ele><time>2026-05-01T13:21:47.686Z</time></trkpt><trkpt lat="43.3608573" lon="10.8601371"><ele>179.6</ele><time>2026-05-01T13:21:48.669Z</time></trkpt><trkpt lat="43.360768" lon="10.8601442"><ele>179.8</ele><time>2026-05-01T13:21:49.668Z</time></trkpt><trkpt lat="43.3606861" lon="10.860152"><ele>180.0</ele><time>2026-05-01T13:21:50.678Z</time></trkpt><trkpt lat="43.360614" lon="10.860128"><ele>181.4</ele><time>2026-05-01T13:21:51.671Z</time></trkpt><trkpt lat="43.3605519" lon="10.8599945"><ele>182.8</ele><time>2026-05-01T13:21:53.664Z</time></trkpt><trkpt lat="43.3605432" lon="10.8598976"><ele>184.2</ele><time>2026-05-01T13:21:54.677Z</time></trkpt><trkpt lat="43.3605399" lon="10.8597898"><ele>185.6</ele><time>2026-05-01T13:21:55.668Z</time></trkpt><trkpt lat="43.3605168" lon="10.859676"><ele>187.0</ele><time>2026-05-01T13:21:56.665Z</time></trkpt><trkpt lat="43.3604851" lon="10.8595457"><ele>189.6</ele><time>2026-05-01T13:21:57.667Z</time></trkpt><trkpt lat="43.3604478" lon="10.8594196"><ele>192.2</ele><time>2026-05-01T13:21:58.664Z</time></trkpt><trkpt lat="43.3604092" lon="10.8593193"><ele>194.8</ele><time>2026-05-01T13:21:59.659Z</time></trkpt><trkpt lat="43.3603169" lon="10.8592446"><ele>197.4</ele><time>2026-05-01T13:22:01.663Z</time></trkpt><trkpt lat="43.3602505" lon="10.8593151"><ele>200.0</ele><time>2026-05-01T13:22:03.672Z</time></trkpt><trkpt lat="43.3602453" lon="10.8594259"><ele>200.0</ele><time>2026-05-01T13:22:05.683Z</time></trkpt><trkpt lat="43.3602295" lon="10.8596087"><ele>200.0</ele><time>2026-05-01T13:22:07.67Z</time></trkpt><trkpt lat="43.3601845" lon="10.8596916"><ele>200.0</ele><time>2026-05-01T13:22:08.678Z</time></trkpt><trkpt lat="43.3601163" lon="10.8597688"><ele>200.0</ele><time>2026-05-01T13:22:09.684Z</time></trkpt><trkpt lat="43.3600387" lon="10.8598622"><ele>200.0</ele><time>2026-05-01T13:22:10.662Z</time></trkpt><trkpt lat="43.3599739" lon="10.8599244"><ele>200.00000000000003</ele><time>2026-05-01T13:22:11.662Z</time></trkpt><trkpt lat="43.3599211" lon="10.859979"><ele>200.0</ele><time>2026-05-01T13:22:12.667Z</time></trkpt><trkpt lat="43.3598376" lon="10.860005"><ele>200.0</ele><time>2026-05-01T13:22:14.675Z</time></trkpt><trkpt lat="43.3598006" lon="10.8599329"><ele>200.0</ele><time>2026-05-01T13:22:32.68Z</time></trkpt><trkpt lat="43.3598281" lon="10.8597771"><ele>200.00000000000003</ele><time>2026-05-01T13:22:35.675Z</time></trkpt><trkpt lat="43.3598432" lon="10.8596634"><ele>200.0</ele><time>2026-05-01T13:22:36.667Z</time></trkpt><trkpt lat="43.3598422" lon="10.8595259"><ele>200.0</ele><time>2026-05-01T13:22:37.675Z</time></trkpt><trkpt lat="43.3598301" lon="10.8593708"><ele>200.0</ele><time>2026-05-01T13:22:38.663Z</time></trkpt><trkpt lat="43.3598089" lon="10.8592094"><ele>200.0</ele><time>2026-05-01T13:22:39.673Z</time></trkpt><trkpt lat="43.3597878" lon="10.8590553"><ele>200.0</ele><time>2026-05-01T13:22:40.665Z</time></trkpt><trkpt lat="43.3597623" lon="10.8589028"><ele>201.2</ele><time>2026-05-01T13:22:41.671Z</time></trkpt><trkpt lat="43.359747" lon="10.8587453"><ele>202.4</ele><time>2026-05-01T13:22:42.663Z</time></trkpt><trkpt lat="43.3597591" lon="10.8586123"><ele>203.60000000000002</ele><time>2026-05-01T13:22:43.669Z</time></trkpt><trkpt lat="43.3597765" lon="10.858508"><ele>204.8</ele><time>2026-05-01T13:22:44.67Z</time></trkpt><trkpt lat="43.3597874" lon="10.8584189"><ele>206.0</ele><time>2026-05-01T13:22:45.666Z</time></trkpt><trkpt lat="43.3597164" lon="10.8583073"><ele>208.7142857142857</ele><time>2026-05-01T13:22:47.671Z</time></trkpt><trkpt lat="43.3596615" lon="10.8582613"><ele>211.42857142857144</ele><time>2026-05-01T13:22:48.66Z</time></trkpt><trkpt lat="43.359582" lon="10.8582178"><ele>214.14285714285717</ele><time>2026-05-01T13:22:49.665Z</time></trkpt><trkpt lat="43.3595078" lon="10.8581921"><ele>216.85714285714286</ele><time>2026-05-01T13:22:50.666Z</time></trkpt><trkpt lat="43.3594363" lon="10.8581923"><ele>219.57142857142858</ele><time>2026-05-01T13:22:51.689Z</time></trkpt><trkpt lat="43.3593733" lon="10.8582225"><ele>222.2857142857143</ele><time>2026-05-01T13:22:52.673Z</time></trkpt><trkpt lat="43.3593309" lon="10.8582967"><ele>225.00000000000003</ele><time>2026-05-01T13:22:53.665Z</time></trkpt><trkpt lat="43.3593126" lon="10.8583838"><ele>224.0</ele><time>2026-05-01T13:22:54.67Z</time></trkpt><trkpt lat="43.3593159" lon="10.8584769"><ele>223.0</ele><time>2026-05-01T13:22:55.666Z</time></trkpt><trkpt lat="43.3593287" lon="10.8585691"><ele>222.0</ele><time>2026-05-01T13:22:56.67Z</time></trkpt><trkpt lat="43.3593484" lon="10.8586715"><ele>221.0</ele><time>2026-05-01T13:22:57.671Z</time></trkpt><trkpt lat="43.3593759" lon="10.8587933"><ele>220.0</ele><time>2026-05-01T13:22:59.672Z</time></trkpt><trkpt lat="43.3592917" lon="10.8587612"><ele>219.0</ele><time>2026-05-01T13:23:04.669Z</time></trkpt><trkpt lat="43.359214" lon="10.8586218"><ele>219.0</ele><time>2026-05-01T13:23:06.667Z</time></trkpt><trkpt lat="43.3591539" lon="10.8585142"><ele>218.99999999999997</ele><time>2026-05-01T13:23:07.672Z</time></trkpt><trkpt lat="43.3590877" lon="10.858395"><ele>218.99999999999997</ele><time>2026-05-01T13:23:08.658Z</time></trkpt><trkpt lat="43.3590176" lon="10.8582755"><ele>219.0</ele><time>2026-05-01T13:23:09.667Z</time></trkpt><trkpt lat="43.3589533" lon="10.8581434"><ele>219.0</ele><time>2026-05-01T13:23:10.66Z</time></trkpt><trkpt lat="43.3588939" lon="10.8580162"><ele>222.2</ele><time>2026-05-01T13:23:11.662Z</time></trkpt><trkpt lat="43.3588404" lon="10.8578901"><ele>225.39999999999998</ele><time>2026-05-01T13:23:12.672Z</time></trkpt><trkpt lat="43.3587914" lon="10.8577933"><ele>228.6</ele><time>2026-05-01T13:23:13.675Z</time></trkpt><trkpt lat="43.358741" lon="10.8577129"><ele>231.8</ele><time>2026-05-01T13:23:14.673Z</time></trkpt><trkpt lat="43.3586649" lon="10.8576238"><ele>235.0</ele><time>2026-05-01T13:23:15.666Z</time></trkpt><trkpt lat="43.3585777" lon="10.8575451"><ele>235.0</ele><time>2026-05-01T13:23:16.675Z</time></trkpt><trkpt lat="43.3585041" lon="10.8574533"><ele>235.0</ele><time>2026-05-01T13:23:17.659Z</time></trkpt><trkpt lat="43.3584393" lon="10.8573524"><ele>235.0</ele><time>2026-05-01T13:23:18.663Z</time></trkpt><trkpt lat="43.3583916" lon="10.857235"><ele>235.0</ele><time>2026-05-01T13:23:19.66Z</time></trkpt><trkpt lat="43.3583682" lon="10.8570919"><ele>235.0</ele><time>2026-05-01T13:23:20.673Z</time></trkpt><trkpt lat="43.3583479" lon="10.8569358"><ele>235.0</ele><time>2026-05-01T13:23:21.664Z</time></trkpt><trkpt lat="43.3583266" lon="10.8567879"><ele>235.0</ele><time>2026-05-01T13:23:22.658Z</time></trkpt><trkpt lat="43.3583029" lon="10.8566533"><ele>235.0</ele><time>2026-05-01T13:23:23.664Z</time></trkpt><trkpt lat="43.3582811" lon="10.8565173"><ele>235.0</ele><time>2026-05-01T13:23:24.665Z</time></trkpt><trkpt lat="43.3582574" lon="10.8563752"><ele>235.0</ele><time>2026-05-01T13:23:25.667Z</time></trkpt><trkpt lat="43.3582378" lon="10.8562299"><ele>235.0</ele><time>2026-05-01T13:23:26.667Z</time></trkpt><trkpt lat="43.3582129" lon="10.8560942"><ele>235.0</ele><time>2026-05-01T13:23:27.679Z</time></trkpt><trkpt lat="43.3581935" lon="10.8559687"><ele>235.0</ele><time>2026-05-01T13:23:28.662Z</time></trkpt><trkpt lat="43.3581705" lon="10.855848"><ele>235.0</ele><time>2026-05-01T13:23:29.667Z</time></trkpt><trkpt lat="43.3581433" lon="10.8557218"><ele>235.0</ele><time>2026-05-01T13:23:30.668Z</time></trkpt><trkpt lat="43.358116" lon="10.855578"><ele>235.2</ele><time>2026-05-01T13:23:31.654Z</time></trkpt><trkpt lat="43.3580878" lon="10.8554347"><ele>235.4</ele><time>2026-05-01T13:23:32.663Z</time></trkpt><trkpt lat="43.3580781" lon="10.8553067"><ele>235.60000000000002</ele><time>2026-05-01T13:23:33.669Z</time></trkpt><trkpt lat="43.3580732" lon="10.855178"><ele>235.8</ele><time>2026-05-01T13:23:34.668Z</time></trkpt><trkpt lat="43.3580656" lon="10.8550321"><ele>236.0</ele><time>2026-05-01T13:23:35.662Z</time></trkpt><trkpt lat="43.3580555" lon="10.8548883"><ele>235.5</ele><time>2026-05-01T13:23:36.681Z</time></trkpt><trkpt lat="43.3580446" lon="10.8547358"><ele>235.0</ele><time>2026-05-01T13:23:37.67Z</time></trkpt><trkpt lat="43.3580352" lon="10.8545847"><ele>234.5</ele><time>2026-05-01T13:23:38.665Z</time></trkpt><trkpt lat="43.3580281" lon="10.8544286"><ele>234.0</ele><time>2026-05-01T13:23:39.654Z</time></trkpt><trkpt lat="43.3580249" lon="10.8542697"><ele>237.75</ele><time>2026-05-01T13:23:40.664Z</time></trkpt><trkpt lat="43.3580217" lon="10.8541013"><ele>241.5</ele><time>2026-05-01T13:23:41.671Z</time></trkpt><trkpt lat="43.3580226" lon="10.8539421"><ele>245.25</ele><time>2026-05-01T13:23:42.665Z</time></trkpt><trkpt lat="43.3580145" lon="10.8537771"><ele>249.0</ele><time>2026-05-01T13:23:43.663Z</time></trkpt><trkpt lat="43.3580058" lon="10.8536115"><ele>248.79999999999998</ele><time>2026-05-01T13:23:44.677Z</time></trkpt><trkpt lat="43.3579974" lon="10.8534496"><ele>248.59999999999997</ele><time>2026-05-01T13:23:45.665Z</time></trkpt><trkpt lat="43.3579888" lon="10.8532875"><ele>248.4</ele><time>2026-05-01T13:23:46.697Z</time></trkpt><trkpt lat="43.3579809" lon="10.8531476"><ele>248.2</ele><time>2026-05-01T13:23:47.676Z</time></trkpt><trkpt lat="43.3579731" lon="10.8530151"><ele>248.0</ele><time>2026-05-01T13:23:48.666Z</time></trkpt><trkpt lat="43.3579697" lon="10.8528719"><ele>248.00000000000003</ele><time>2026-05-01T13:23:49.668Z</time></trkpt><trkpt lat="43.3579783" lon="10.8527175"><ele>248.0</ele><time>2026-05-01T13:23:50.675Z</time></trkpt><trkpt lat="43.3579846" lon="10.8525876"><ele>248.0</ele><time>2026-05-01T13:23:51.675Z</time></trkpt><trkpt lat="43.3579929" lon="10.8524884"><ele>248.0</ele><time>2026-05-01T13:23:52.672Z</time></trkpt><trkpt lat="43.3580004" lon="10.8523938"><ele>248.00000000000003</ele><time>2026-05-01T13:23:53.662Z</time></trkpt><trkpt lat="43.3580109" lon="10.8523074"><ele>248.0</ele><time>2026-05-01T13:23:54.688Z</time></trkpt><trkpt lat="43.3580331" lon="10.8521743"><ele>245.2</ele><time>2026-05-01T13:23:56.667Z</time></trkpt><trkpt lat="43.3581008" lon="10.8521095"><ele>242.4</ele><time>2026-05-01T13:23:58.675Z</time></trkpt><trkpt lat="43.3581565" lon="10.8520029"><ele>239.59999999999997</ele><time>2026-05-01T13:24:00.671Z</time></trkpt><trkpt lat="43.3581975" lon="10.851857"><ele>236.79999999999998</ele><time>2026-05-01T13:24:02.663Z</time></trkpt><trkpt lat="43.3582199" lon="10.8517703"><ele>234.0</ele><time>2026-05-01T13:24:03.667Z</time></trkpt><trkpt lat="43.3582464" lon="10.8516186"><ele>233.6</ele><time>2026-05-01T13:24:05.672Z</time></trkpt><trkpt lat="43.3582588" lon="10.8515327"><ele>233.2</ele><time>2026-05-01T13:24:06.66Z</time></trkpt><trkpt lat="43.3582754" lon="10.8513838"><ele>232.79999999999998</ele><time>2026-05-01T13:24:08.674Z</time></trkpt><trkpt lat="43.3583066" lon="10.8512394"><ele>232.39999999999998</ele><time>2026-05-01T13:24:10.662Z</time></trkpt><trkpt lat="43.3583346" lon="10.8511143"><ele>232.0</ele><time>2026-05-01T13:24:12.666Z</time></trkpt><trkpt lat="43.3583674" lon="10.8509784"><ele>231.49999999999997</ele><time>2026-05-01T13:24:14.669Z</time></trkpt><trkpt lat="43.358406" lon="10.8508243"><ele>231.0</ele><time>2026-05-01T13:24:16.666Z</time></trkpt><trkpt lat="43.3584273" lon="10.8507417"><ele>230.5</ele><time>2026-05-01T13:24:17.673Z</time></trkpt><trkpt lat="43.358446" lon="10.8506581"><ele>230.0</ele><time>2026-05-01T13:24:18.674Z</time></trkpt><trkpt lat="43.3584649" lon="10.8505668"><ele>229.49999999999997</ele><time>2026-05-01T13:24:19.679Z</time></trkpt><trkpt lat="43.3584866" lon="10.8504063"><ele>229.0</ele><time>2026-05-01T13:24:21.671Z</time></trkpt><trkpt lat="43.3584646" lon="10.8502561"><ele>229.0</ele><time>2026-05-01T13:24:23.672Z</time></trkpt><trkpt lat="43.3584037" lon="10.8501359"><ele>228.99999999999997</ele><time>2026-05-01T13:24:25.669Z</time></trkpt><trkpt lat="43.3583066" lon="10.8500431"><ele>228.99999999999997</ele><time>2026-05-01T13:24:27.677Z</time></trkpt><trkpt lat="43.3582533" lon="10.8499945"><ele>229.0</ele><time>2026-05-01T13:24:28.662Z</time></trkpt><trkpt lat="43.3581867" lon="10.8499354"><ele>229.0</ele><time>2026-05-01T13:24:29.66Z</time></trkpt><trkpt lat="43.3581113" lon="10.8498758"><ele>228.39999999999998</ele><time>2026-05-01T13:24:30.667Z</time></trkpt><trkpt lat="43.3580285" lon="10.8498129"><ele>227.79999999999998</ele><time>2026-05-01T13:24:31.661Z</time></trkpt><trkpt lat="43.357943" lon="10.849745"><ele>227.20000000000002</ele><time>2026-05-01T13:24:32.666Z</time></trkpt><trkpt lat="43.3578609" lon="10.8496808"><ele>226.60000000000002</ele><time>2026-05-01T13:24:33.666Z</time></trkpt><trkpt lat="43.3577764" lon="10.8496236"><ele>226.0</ele><time>2026-05-01T13:24:34.66Z</time></trkpt><trkpt lat="43.3576957" lon="10.8495601"><ele>225.99999999999997</ele><time>2026-05-01T13:24:35.674Z</time></trkpt><trkpt lat="43.3576218" lon="10.8495015"><ele>226.0</ele><time>2026-05-01T13:24:36.666Z</time></trkpt><trkpt lat="43.3575538" lon="10.8494516"><ele>226.0</ele><time>2026-05-01T13:24:37.668Z</time></trkpt><trkpt lat="43.3574981" lon="10.849407"><ele>226.0</ele><time>2026-05-01T13:24:38.682Z</time></trkpt><trkpt lat="43.3573863" lon="10.8493317"><ele>225.99999999999997</ele><time>2026-05-01T13:24:40.669Z</time></trkpt><trkpt lat="43.3573196" lon="10.8493154"><ele>226.0</ele><time>2026-05-01T13:24:41.661Z</time></trkpt><trkpt lat="43.3572554" lon="10.8493127"><ele>225.33333333333331</ele><time>2026-05-01T13:24:42.662Z</time></trkpt><trkpt lat="43.3571453" lon="10.8493092"><ele>224.66666666666666</ele><time>2026-05-01T13:24:44.667Z</time></trkpt><trkpt lat="43.3570821" lon="10.8493135"><ele>224.0</ele><time>2026-05-01T13:24:45.664Z</time></trkpt><trkpt lat="43.3570089" lon="10.8493173"><ele>223.33333333333331</ele><time>2026-05-01T13:24:46.676Z</time></trkpt><trkpt lat="43.3569451" lon="10.8493122"><ele>222.66666666666666</ele><time>2026-05-01T13:24:47.659Z</time></trkpt><trkpt lat="43.356821" lon="10.8493173"><ele>222.0</ele><time>2026-05-01T13:24:49.669Z</time></trkpt><trkpt lat="43.3566939" lon="10.8493105"><ele>222.0</ele><time>2026-05-01T13:24:51.672Z</time></trkpt><trkpt lat="43.3566237" lon="10.8493002"><ele>222.0</ele><time>2026-05-01T13:24:52.675Z</time></trkpt><trkpt lat="43.3565471" lon="10.8492713"><ele>222.0</ele><time>2026-05-01T13:24:53.671Z</time></trkpt><trkpt lat="43.3564651" lon="10.8492413"><ele>222.0</ele><time>2026-05-01T13:24:54.673Z</time></trkpt><trkpt lat="43.3563862" lon="10.8492179"><ele>222.0</ele><time>2026-05-01T13:24:55.663Z</time></trkpt><trkpt lat="43.3563061" lon="10.8492082"><ele>222.0</ele><time>2026-05-01T13:24:56.67Z</time></trkpt><trkpt lat="43.356231" lon="10.849204"><ele>220.2</ele><time>2026-05-01T13:24:57.672Z</time></trkpt><trkpt lat="43.3561551" lon="10.8492179"><ele>218.39999999999998</ele><time>2026-05-01T13:24:58.661Z</time></trkpt><trkpt lat="43.3560745" lon="10.8492411"><ele>216.60000000000002</ele><time>2026-05-01T13:24:59.665Z</time></trkpt><trkpt lat="43.3559846" lon="10.8492921"><ele>214.8</ele><time>2026-05-01T13:25:00.663Z</time></trkpt><trkpt lat="43.3558885" lon="10.8493289"><ele>213.0</ele><time>2026-05-01T13:25:01.669Z</time></trkpt><trkpt lat="43.3557868" lon="10.8493573"><ele>213.0</ele><time>2026-05-01T13:25:02.662Z</time></trkpt><trkpt lat="43.3556818" lon="10.8493714"><ele>213.0</ele><time>2026-05-01T13:25:03.668Z</time></trkpt><trkpt lat="43.3555729" lon="10.8493766"><ele>213.0</ele><time>2026-05-01T13:25:04.662Z</time></trkpt><trkpt lat="43.3554701" lon="10.8493758"><ele>213.0</ele><time>2026-05-01T13:25:05.667Z</time></trkpt><trkpt lat="43.3553749" lon="10.8493765"><ele>213.0</ele><time>2026-05-01T13:25:06.666Z</time></trkpt><trkpt lat="43.3552948" lon="10.849396"><ele>212.0</ele><time>2026-05-01T13:25:07.671Z</time></trkpt><trkpt lat="43.3552158" lon="10.8494382"><ele>211.0</ele><time>2026-05-01T13:25:08.67Z</time></trkpt><trkpt lat="43.3551294" lon="10.8495022"><ele>210.0</ele><time>2026-05-01T13:25:09.669Z</time></trkpt><trkpt lat="43.3550365" lon="10.8495768"><ele>209.0</ele><time>2026-05-01T13:25:10.663Z</time></trkpt><trkpt lat="43.3549485" lon="10.8496472"><ele>208.0</ele><time>2026-05-01T13:25:11.663Z</time></trkpt><trkpt lat="43.3548652" lon="10.849712"><ele>208.0</ele><time>2026-05-01T13:25:12.669Z</time></trkpt><trkpt lat="43.3548011" lon="10.8497708"><ele>208.0</ele><time>2026-05-01T13:25:13.667Z</time></trkpt><trkpt lat="43.3547424" lon="10.8498196"><ele>208.0</ele><time>2026-05-01T13:25:14.663Z</time></trkpt><trkpt lat="43.3546365" lon="10.8498495"><ele>208.0</ele><time>2026-05-01T13:25:16.667Z</time></trkpt><trkpt lat="43.3545332" lon="10.8497615"><ele>208.0</ele><time>2026-05-01T13:25:18.658Z</time></trkpt><trkpt lat="43.3544756" lon="10.8496852"><ele>206.8</ele><time>2026-05-01T13:25:19.67Z</time></trkpt><trkpt lat="43.3543971" lon="10.8495853"><ele>205.60000000000002</ele><time>2026-05-01T13:25:20.664Z</time></trkpt><trkpt lat="43.3543223" lon="10.8494562"><ele>204.39999999999998</ele><time>2026-05-01T13:25:21.666Z</time></trkpt><trkpt lat="43.3542627" lon="10.8493356"><ele>203.2</ele><time>2026-05-01T13:25:22.667Z</time></trkpt><trkpt lat="43.3542089" lon="10.8492346"><ele>202.0</ele><time>2026-05-01T13:25:23.666Z</time></trkpt><trkpt lat="43.3541354" lon="10.849139"><ele>202.0</ele><time>2026-05-01T13:25:24.665Z</time></trkpt><trkpt lat="43.354046" lon="10.8490417"><ele>202.0</ele><time>2026-05-01T13:25:25.657Z</time></trkpt><trkpt lat="43.3539599" lon="10.8489416"><ele>202.0</ele><time>2026-05-01T13:25:26.657Z</time></trkpt><trkpt lat="43.3538721" lon="10.8488349"><ele>202.0</ele><time>2026-05-01T13:25:27.67Z</time></trkpt><trkpt lat="43.3537923" lon="10.8487188"><ele>202.33333333333331</ele><time>2026-05-01T13:25:28.668Z</time></trkpt><trkpt lat="43.353718" lon="10.8486238"><ele>202.66666666666666</ele><time>2026-05-01T13:25:29.668Z</time></trkpt><trkpt lat="43.3536502" lon="10.8485365"><ele>203.0</ele><time>2026-05-01T13:25:30.676Z</time></trkpt><trkpt lat="43.3535783" lon="10.8484653"><ele>203.33333333333331</ele><time>2026-05-01T13:25:31.667Z</time></trkpt><trkpt lat="43.3535237" lon="10.8483856"><ele>203.66666666666666</ele><time>2026-05-01T13:25:32.66Z</time></trkpt><trkpt lat="43.3534817" lon="10.8482959"><ele>204.0</ele><time>2026-05-01T13:25:33.664Z</time></trkpt><trkpt lat="43.3534464" lon="10.8481981"><ele>204.0</ele><time>2026-05-01T13:25:34.667Z</time></trkpt><trkpt lat="43.353411" lon="10.8481125"><ele>204.0</ele><time>2026-05-01T13:25:35.674Z</time></trkpt><trkpt lat="43.3533835" lon="10.8480221"><ele>204.0</ele><time>2026-05-01T13:25:36.673Z</time></trkpt><trkpt lat="43.353382" lon="10.8479126"><ele>204.0</ele><time>2026-05-01T13:25:37.676Z</time></trkpt><trkpt lat="43.3533845" lon="10.8477961"><ele>204.0</ele><time>2026-05-01T13:25:38.675Z</time></trkpt><trkpt lat="43.3533996" lon="10.8476829"><ele>204.0</ele><time>2026-05-01T13:25:39.672Z</time></trkpt><trkpt lat="43.3534126" lon="10.8475876"><ele>202.42857142857144</ele><time>2026-05-01T13:25:40.663Z</time></trkpt><trkpt lat="43.3534236" lon="10.8475"><ele>200.85714285714286</ele><time>2026-05-01T13:25:41.661Z</time></trkpt><trkpt lat="43.3534359" lon="10.8473365"><ele>199.28571428571428</ele><time>2026-05-01T13:25:43.668Z</time></trkpt><trkpt lat="43.3534474" lon="10.8472509"><ele>197.71428571428572</ele><time>2026-05-01T13:25:44.673Z</time></trkpt><trkpt lat="43.3534634" lon="10.8471591"><ele>196.14285714285714</ele><time>2026-05-01T13:25:45.667Z</time></trkpt><trkpt lat="43.3534811" lon="10.8470713"><ele>194.57142857142858</ele><time>2026-05-01T13:25:46.661Z</time></trkpt><trkpt lat="43.3534961" lon="10.8469848"><ele>193.0</ele><time>2026-05-01T13:25:47.663Z</time></trkpt><trkpt lat="43.3535104" lon="10.8468916"><ele>192.99999999999997</ele><time>2026-05-01T13:25:48.669Z</time></trkpt><trkpt lat="43.3535271" lon="10.8467963"><ele>193.0</ele><time>2026-05-01T13:25:49.676Z</time></trkpt><trkpt lat="43.353542" lon="10.8467021"><ele>193.0</ele><time>2026-05-01T13:25:50.664Z</time></trkpt><trkpt lat="43.353561" lon="10.8466085"><ele>193.0</ele><time>2026-05-01T13:25:51.68Z</time></trkpt><trkpt lat="43.3535877" lon="10.8465084"><ele>192.99999999999997</ele><time>2026-05-01T13:25:52.665Z</time></trkpt><trkpt lat="43.3536107" lon="10.8464018"><ele>193.0</ele><time>2026-05-01T13:25:53.66Z</time></trkpt><trkpt lat="43.3536301" lon="10.8462928"><ele>191.83333333333331</ele><time>2026-05-01T13:25:54.667Z</time></trkpt><trkpt lat="43.3536435" lon="10.8461764"><ele>190.66666666666666</ele><time>2026-05-01T13:25:55.664Z</time></trkpt><trkpt lat="43.3536562" lon="10.8460654"><ele>189.5</ele><time>2026-05-01T13:25:56.656Z</time></trkpt><trkpt lat="43.3536543" lon="10.845952"><ele>188.33333333333331</ele><time>2026-05-01T13:25:57.674Z</time></trkpt><trkpt lat="43.3536464" lon="10.8458346"><ele>187.16666666666666</ele><time>2026-05-01T13:25:58.66Z</time></trkpt><trkpt lat="43.3536341" lon="10.8457106"><ele>186.0</ele><time>2026-05-01T13:25:59.663Z</time></trkpt><trkpt lat="43.3536256" lon="10.8455855"><ele>183.8</ele><time>2026-05-01T13:26:00.654Z</time></trkpt><trkpt lat="43.3536252" lon="10.845462"><ele>181.60000000000002</ele><time>2026-05-01T13:26:01.664Z</time></trkpt><trkpt lat="43.3536385" lon="10.8453262"><ele>179.4</ele><time>2026-05-01T13:26:02.658Z</time></trkpt><trkpt lat="43.3536494" lon="10.8451946"><ele>177.2</ele><time>2026-05-01T13:26:03.663Z</time></trkpt><trkpt lat="43.353665" lon="10.8450722"><ele>175.0</ele><time>2026-05-01T13:26:04.66Z</time></trkpt><trkpt lat="43.353681" lon="10.844957"><ele>173.83333333333334</ele><time>2026-05-01T13:26:05.657Z</time></trkpt><trkpt lat="43.3536838" lon="10.8448408"><ele>172.66666666666669</ele><time>2026-05-01T13:26:06.67Z</time></trkpt><trkpt lat="43.3536679" lon="10.8447253"><ele>171.5</ele><time>2026-05-01T13:26:07.667Z</time></trkpt><trkpt lat="43.3536526" lon="10.844599"><ele>170.33333333333334</ele><time>2026-05-01T13:26:08.662Z</time></trkpt><trkpt lat="43.353633" lon="10.8444746"><ele>169.16666666666666</ele><time>2026-05-01T13:26:09.661Z</time></trkpt><trkpt lat="43.3536146" lon="10.8443716"><ele>168.0</ele><time>2026-05-01T13:26:10.67Z</time></trkpt><trkpt lat="43.3535952" lon="10.8442818"><ele>167.5</ele><time>2026-05-01T13:26:11.667Z</time></trkpt><trkpt lat="43.3535669" lon="10.8441151"><ele>167.0</ele><time>2026-05-01T13:26:13.663Z</time></trkpt><trkpt lat="43.3535477" lon="10.8440229"><ele>166.5</ele><time>2026-05-01T13:26:14.667Z</time></trkpt><trkpt lat="43.3535367" lon="10.8439337"><ele>166.0</ele><time>2026-05-01T13:26:15.652Z</time></trkpt><trkpt lat="43.3535306" lon="10.84383"><ele>165.5</ele><time>2026-05-01T13:26:16.673Z</time></trkpt><trkpt lat="43.3535291" lon="10.8437174"><ele>165.0</ele><time>2026-05-01T13:26:17.67Z</time></trkpt><trkpt lat="43.3535299" lon="10.8436116"><ele>165.0</ele><time>2026-05-01T13:26:18.675Z</time></trkpt><trkpt lat="43.3535255" lon="10.8435158"><ele>165.0</ele><time>2026-05-01T13:26:19.658Z</time></trkpt><trkpt lat="43.3535249" lon="10.8433821"><ele>165.0</ele><time>2026-05-01T13:26:21.671Z</time></trkpt><trkpt lat="43.3535314" lon="10.843289"><ele>165.0</ele><time>2026-05-01T13:26:24.669Z</time></trkpt><trkpt lat="43.3535385" lon="10.8431942"><ele>165.0</ele><time>2026-05-01T13:26:27.67Z</time></trkpt><trkpt lat="43.3535511" lon="10.8430677"><ele>165.0</ele><time>2026-05-01T13:26:29.664Z</time></trkpt><trkpt lat="43.3535543" lon="10.8429809"><ele>165.0</ele><time>2026-05-01T13:26:30.674Z</time></trkpt><trkpt lat="43.3535562" lon="10.8428724"><ele>165.0</ele><time>2026-05-01T13:26:31.684Z</time></trkpt><trkpt lat="43.3535573" lon="10.842751"><ele>165.0</ele><time>2026-05-01T13:26:32.67Z</time></trkpt><trkpt lat="43.3535541" lon="10.8426277"><ele>165.0</ele><time>2026-05-01T13:26:33.668Z</time></trkpt><trkpt lat="43.3535554" lon="10.842487"><ele>165.0</ele><time>2026-05-01T13:26:34.67Z</time></trkpt><trkpt lat="43.353556" lon="10.8423419"><ele>164.83333333333334</ele><time>2026-05-01T13:26:35.666Z</time></trkpt><trkpt lat="43.3535564" lon="10.8421958"><ele>164.66666666666666</ele><time>2026-05-01T13:26:36.665Z</time></trkpt><trkpt lat="43.353556" lon="10.8420837"><ele>164.5</ele><time>2026-05-01T13:26:37.674Z</time></trkpt><trkpt lat="43.3535593" lon="10.84197"><ele>164.33333333333331</ele><time>2026-05-01T13:26:38.665Z</time></trkpt><trkpt lat="43.3535592" lon="10.8418632"><ele>164.16666666666666</ele><time>2026-05-01T13:26:39.67Z</time></trkpt><trkpt lat="43.3535606" lon="10.8417532"><ele>164.0</ele><time>2026-05-01T13:26:40.671Z</time></trkpt><trkpt lat="43.3535605" lon="10.8416399"><ele>163.2</ele><time>2026-05-01T13:26:41.676Z</time></trkpt><trkpt lat="43.3535617" lon="10.8415209"><ele>162.39999999999998</ele><time>2026-05-01T13:26:42.668Z</time></trkpt><trkpt lat="43.3535698" lon="10.8413947"><ele>161.6</ele><time>2026-05-01T13:26:43.682Z</time></trkpt><trkpt lat="43.3535785" lon="10.8412567"><ele>160.8</ele><time>2026-05-01T13:26:44.671Z</time></trkpt><trkpt lat="43.3535899" lon="10.8411024"><ele>160.0</ele><time>2026-05-01T13:26:45.694Z</time></trkpt><trkpt lat="43.3535995" lon="10.8409361"><ele>159.0</ele><time>2026-05-01T13:26:46.664Z</time></trkpt><trkpt lat="43.353613" lon="10.8407695"><ele>158.0</ele><time>2026-05-01T13:26:47.665Z</time></trkpt><trkpt lat="43.3536291" lon="10.8405895"><ele>157.0</ele><time>2026-05-01T13:26:48.67Z</time></trkpt><trkpt lat="43.3536406" lon="10.8403802"><ele>156.0</ele><time>2026-05-01T13:26:49.672Z</time></trkpt><trkpt lat="43.3536398" lon="10.8401974"><ele>156.57142857142858</ele><time>2026-05-01T13:26:50.669Z</time></trkpt><trkpt lat="43.3536307" lon="10.8400659"><ele>157.14285714285714</ele><time>2026-05-01T13:26:51.67Z</time></trkpt><trkpt lat="43.3536173" lon="10.8399565"><ele>157.71428571428572</ele><time>2026-05-01T13:26:52.667Z</time></trkpt><trkpt lat="43.3536132" lon="10.8398653"><ele>158.28571428571428</ele><time>2026-05-01T13:26:53.671Z</time></trkpt><trkpt lat="43.3536262" lon="10.8397793"><ele>158.85714285714286</ele><time>2026-05-01T13:27:17.66Z</time></trkpt><trkpt lat="43.3536583" lon="10.8396819"><ele>159.42857142857142</ele><time>2026-05-01T13:27:19.66Z</time></trkpt><trkpt lat="43.3536839" lon="10.8396027"><ele>160.0</ele><time>2026-05-01T13:27:20.668Z</time></trkpt><trkpt lat="43.3537065" lon="10.8394264"><ele>160.0</ele><time>2026-05-01T13:27:22.662Z</time></trkpt><trkpt lat="43.3537176" lon="10.8393364"><ele>160.0</ele><time>2026-05-01T13:27:23.675Z</time></trkpt><trkpt lat="43.3537313" lon="10.8392447"><ele>160.0</ele><time>2026-05-01T13:27:24.652Z</time></trkpt><trkpt lat="43.3537459" lon="10.8390944"><ele>160.0</ele><time>2026-05-01T13:27:26.662Z</time></trkpt><trkpt lat="43.353742" lon="10.8389201"><ele>160.0</ele><time>2026-05-01T13:27:28.659Z</time></trkpt><trkpt lat="43.3537397" lon="10.8388082"><ele>160.16666666666669</ele><time>2026-05-01T13:27:29.674Z</time></trkpt><trkpt lat="43.3537387" lon="10.8386818"><ele>160.33333333333334</ele><time>2026-05-01T13:27:30.668Z</time></trkpt><trkpt lat="43.353734" lon="10.838555"><ele>160.5</ele><time>2026-05-01T13:27:31.649Z</time></trkpt><trkpt lat="43.3537244" lon="10.8384369"><ele>160.66666666666666</ele><time>2026-05-01T13:27:32.661Z</time></trkpt><trkpt lat="43.3537151" lon="10.8383326"><ele>160.83333333333331</ele><time>2026-05-01T13:27:33.666Z</time></trkpt><trkpt lat="43.3536946" lon="10.8382363"><ele>161.0</ele><time>2026-05-01T13:27:34.659Z</time></trkpt><trkpt lat="43.3536724" lon="10.8381496"><ele>161.0</ele><time>2026-05-01T13:27:35.67Z</time></trkpt><trkpt lat="43.353654" lon="10.8380602"><ele>161.0</ele><time>2026-05-01T13:27:36.66Z</time></trkpt><trkpt lat="43.3536339" lon="10.8379526"><ele>161.0</ele><time>2026-05-01T13:27:37.666Z</time></trkpt><trkpt lat="43.3536077" lon="10.8378338"><ele>161.0</ele><time>2026-05-01T13:27:38.66Z</time></trkpt><trkpt lat="43.3535874" lon="10.8377166"><ele>161.0</ele><time>2026-05-01T13:27:39.664Z</time></trkpt><trkpt lat="43.3535586" lon="10.8375903"><ele>161.0</ele><time>2026-05-01T13:27:40.658Z</time></trkpt><trkpt lat="43.3535221" lon="10.8374551"><ele>161.5</ele><time>2026-05-01T13:27:41.673Z</time></trkpt><trkpt lat="43.3534805" lon="10.8373128"><ele>162.0</ele><time>2026-05-01T13:27:42.658Z</time></trkpt><trkpt lat="43.3534325" lon="10.8371601"><ele>162.5</ele><time>2026-05-01T13:27:43.669Z</time></trkpt><trkpt lat="43.3533766" lon="10.8370121"><ele>163.0</ele><time>2026-05-01T13:27:44.658Z</time></trkpt><trkpt lat="43.3533172" lon="10.8368688"><ele>164.0</ele><time>2026-05-01T13:27:45.67Z</time></trkpt><trkpt lat="43.3532518" lon="10.8367225"><ele>165.0</ele><time>2026-05-01T13:27:46.667Z</time></trkpt><trkpt lat="43.3531938" lon="10.8365692"><ele>166.0</ele><time>2026-05-01T13:27:47.676Z</time></trkpt><trkpt lat="43.3531465" lon="10.8364091"><ele>167.0</ele><time>2026-05-01T13:27:48.672Z</time></trkpt><trkpt lat="43.3530947" lon="10.8362531"><ele>167.25</ele><time>2026-05-01T13:27:49.665Z</time></trkpt><trkpt lat="43.3530227" lon="10.8361007"><ele>167.5</ele><time>2026-05-01T13:27:50.664Z</time></trkpt><trkpt lat="43.3529214" lon="10.8359365"><ele>167.75</ele><time>2026-05-01T13:27:51.688Z</time></trkpt><trkpt lat="43.3528246" lon="10.8357806"><ele>168.0</ele><time>2026-05-01T13:27:52.673Z</time></trkpt><trkpt lat="43.352737" lon="10.8356279"><ele>168.0</ele><time>2026-05-01T13:27:53.668Z</time></trkpt><trkpt lat="43.3526552" lon="10.8354719"><ele>168.0</ele><time>2026-05-01T13:27:54.667Z</time></trkpt><trkpt lat="43.3525798" lon="10.8353134"><ele>168.0</ele><time>2026-05-01T13:27:55.666Z</time></trkpt><trkpt lat="43.3525102" lon="10.8351447"><ele>168.0</ele><time>2026-05-01T13:27:56.666Z</time></trkpt><trkpt lat="43.3524459" lon="10.8349739"><ele>168.5</ele><time>2026-05-01T13:27:57.671Z</time></trkpt><trkpt lat="43.3523851" lon="10.8348132"><ele>169.0</ele><time>2026-05-01T13:27:58.66Z</time></trkpt><trkpt lat="43.3523289" lon="10.8346635"><ele>169.5</ele><time>2026-05-01T13:27:59.669Z</time></trkpt><trkpt lat="43.352284" lon="10.8345108"><ele>170.0</ele><time>2026-05-01T13:28:00.663Z</time></trkpt><trkpt lat="43.3522519" lon="10.8343339"><ele>170.5</ele><time>2026-05-01T13:28:01.666Z</time></trkpt><trkpt lat="43.3522216" lon="10.834163"><ele>171.0</ele><time>2026-05-01T13:28:02.665Z</time></trkpt><trkpt lat="43.3521875" lon="10.8340084"><ele>171.5</ele><time>2026-05-01T13:28:03.672Z</time></trkpt><trkpt lat="43.352149" lon="10.8338704"><ele>172.0</ele><time>2026-05-01T13:28:04.663Z</time></trkpt><trkpt lat="43.3521056" lon="10.8337253"><ele>172.0</ele><time>2026-05-01T13:28:05.673Z</time></trkpt><trkpt lat="43.3520581" lon="10.8335679"><ele>172.0</ele><time>2026-05-01T13:28:06.667Z</time></trkpt><trkpt lat="43.3520108" lon="10.833398"><ele>172.0</ele><time>2026-05-01T13:28:07.695Z</time></trkpt><trkpt lat="43.3519655" lon="10.8332447"><ele>172.0</ele><time>2026-05-01T13:28:08.673Z</time></trkpt><trkpt lat="43.3519422" lon="10.8331086"><ele>170.8</ele><time>2026-05-01T13:28:09.674Z</time></trkpt><trkpt lat="43.3519292" lon="10.832965"><ele>169.6</ele><time>2026-05-01T13:28:10.67Z</time></trkpt><trkpt lat="43.3519191" lon="10.8328104"><ele>168.4</ele><time>2026-05-01T13:28:11.665Z</time></trkpt><trkpt lat="43.3519041" lon="10.8326453"><ele>167.20000000000002</ele><time>2026-05-01T13:28:12.673Z</time></trkpt><trkpt lat="43.3518825" lon="10.8324991"><ele>166.0</ele><time>2026-05-01T13:28:13.658Z</time></trkpt><trkpt lat="43.3518447" lon="10.8323606"><ele>164.5</ele><time>2026-05-01T13:28:14.656Z</time></trkpt><trkpt lat="43.35181" lon="10.83223"><ele>163.0</ele><time>2026-05-01T13:28:15.667Z</time></trkpt><trkpt lat="43.3517713" lon="10.832088"><ele>161.5</ele><time>2026-05-01T13:28:16.656Z</time></trkpt><trkpt lat="43.3517296" lon="10.8319325"><ele>160.0</ele><time>2026-05-01T13:28:17.673Z</time></trkpt><trkpt lat="43.3516837" lon="10.8317749"><ele>158.0</ele><time>2026-05-01T13:28:18.661Z</time></trkpt><trkpt lat="43.3516367" lon="10.8316204"><ele>156.0</ele><time>2026-05-01T13:28:19.662Z</time></trkpt><trkpt lat="43.3515935" lon="10.8314616"><ele>154.0</ele><time>2026-05-01T13:28:20.664Z</time></trkpt><trkpt lat="43.3515578" lon="10.831293"><ele>152.0</ele><time>2026-05-01T13:28:21.674Z</time></trkpt><trkpt lat="43.3515292" lon="10.8311197"><ele>151.25</ele><time>2026-05-01T13:28:22.662Z</time></trkpt><trkpt lat="43.3515165" lon="10.8309302"><ele>150.5</ele><time>2026-05-01T13:28:23.667Z</time></trkpt><trkpt lat="43.3515112" lon="10.8307478"><ele>149.75</ele><time>2026-05-01T13:28:24.659Z</time></trkpt><trkpt lat="43.3515049" lon="10.8305793"><ele>149.0</ele><time>2026-05-01T13:28:25.665Z</time></trkpt><trkpt lat="43.3514998" lon="10.8304275"><ele>149.0</ele><time>2026-05-01T13:28:26.67Z</time></trkpt><trkpt lat="43.3514962" lon="10.8302801"><ele>149.0</ele><time>2026-05-01T13:28:27.66Z</time></trkpt><trkpt lat="43.351491" lon="10.8301376"><ele>149.0</ele><time>2026-05-01T13:28:28.666Z</time></trkpt><trkpt lat="43.3514848" lon="10.8299959"><ele>149.0</ele><time>2026-05-01T13:28:29.662Z</time></trkpt><trkpt lat="43.3514768" lon="10.8298721"><ele>149.0</ele><time>2026-05-01T13:28:30.669Z</time></trkpt><trkpt lat="43.3514719" lon="10.8297657"><ele>148.57142857142856</ele><time>2026-05-01T13:28:31.66Z</time></trkpt><trkpt lat="43.3514742" lon="10.829666"><ele>148.14285714285714</ele><time>2026-05-01T13:28:32.667Z</time></trkpt><trkpt lat="43.351504" lon="10.8295784"><ele>147.71428571428572</ele><time>2026-05-01T13:28:33.67Z</time></trkpt><trkpt lat="43.3515572" lon="10.829499"><ele>147.28571428571428</ele><time>2026-05-01T13:28:34.669Z</time></trkpt><trkpt lat="43.3516174" lon="10.829457"><ele>146.85714285714286</ele><time>2026-05-01T13:28:35.662Z</time></trkpt><trkpt lat="43.3516867" lon="10.8294235"><ele>146.42857142857142</ele><time>2026-05-01T13:28:36.667Z</time></trkpt><trkpt lat="43.3517567" lon="10.8293881"><ele>146.0</ele><time>2026-05-01T13:28:37.667Z</time></trkpt><trkpt lat="43.3518105" lon="10.8293329"><ele>144.5</ele><time>2026-05-01T13:28:38.666Z</time></trkpt><trkpt lat="43.3518489" lon="10.8292037"><ele>143.0</ele><time>2026-05-01T13:28:40.658Z</time></trkpt><trkpt lat="43.3518661" lon="10.8290901"><ele>141.5</ele><time>2026-05-01T13:28:42.658Z</time></trkpt><trkpt lat="43.3518582" lon="10.8289857"><ele>140.0</ele><time>2026-05-01T13:28:44.668Z</time></trkpt><trkpt lat="43.3518496" lon="10.8288747"><ele>138.5</ele><time>2026-05-01T13:28:46.664Z</time></trkpt><trkpt lat="43.3518561" lon="10.8287367"><ele>137.0</ele><time>2026-05-01T13:28:48.674Z</time></trkpt><trkpt lat="43.3518804" lon="10.828623"><ele>137.0</ele><time>2026-05-01T13:28:50.669Z</time></trkpt><trkpt lat="43.3518836" lon="10.8284962"><ele>137.0</ele><time>2026-05-01T13:28:52.668Z</time></trkpt><trkpt lat="43.3518784" lon="10.8284075"><ele>137.0</ele><time>2026-05-01T13:28:53.67Z</time></trkpt><trkpt lat="43.3518662" lon="10.8282988"><ele>137.0</ele><time>2026-05-01T13:28:54.675Z</time></trkpt><trkpt lat="43.3518341" lon="10.8281746"><ele>137.0</ele><time>2026-05-01T13:28:55.659Z</time></trkpt><trkpt lat="43.351802" lon="10.828059"><ele>137.0</ele><time>2026-05-01T13:28:56.66Z</time></trkpt><trkpt lat="43.3517813" lon="10.8279366"><ele>137.2</ele><time>2026-05-01T13:28:57.661Z</time></trkpt><trkpt lat="43.3517879" lon="10.827821"><ele>137.39999999999998</ele><time>2026-05-01T13:28:58.664Z</time></trkpt><trkpt lat="43.3518567" lon="10.8276853"><ele>137.60000000000002</ele><time>2026-05-01T13:29:00.682Z</time></trkpt><trkpt lat="43.3519191" lon="10.8276207"><ele>137.8</ele><time>2026-05-01T13:29:01.674Z</time></trkpt><trkpt lat="43.3520094" lon="10.8275285"><ele>138.0</ele><time>2026-05-01T13:29:02.664Z</time></trkpt><trkpt lat="43.3521277" lon="10.8274167"><ele>140.0</ele><time>2026-05-01T13:29:03.669Z</time></trkpt><trkpt lat="43.352253" lon="10.8272994"><ele>142.0</ele><time>2026-05-01T13:29:04.699Z</time></trkpt><trkpt lat="43.3523762" lon="10.8271772"><ele>144.0</ele><time>2026-05-01T13:29:05.669Z</time></trkpt><trkpt lat="43.3524787" lon="10.8270664"><ele>146.0</ele><time>2026-05-01T13:29:06.664Z</time></trkpt><trkpt lat="43.3525674" lon="10.8269696"><ele>146.0</ele><time>2026-05-01T13:29:07.668Z</time></trkpt><trkpt lat="43.3526524" lon="10.8268684"><ele>146.0</ele><time>2026-05-01T13:29:08.671Z</time></trkpt><trkpt lat="43.3527306" lon="10.8267694"><ele>146.0</ele><time>2026-05-01T13:29:09.665Z</time></trkpt><trkpt lat="43.3527922" lon="10.826671"><ele>146.0</ele><time>2026-05-01T13:29:10.663Z</time></trkpt><trkpt lat="43.3528533" lon="10.8265757"><ele>146.0</ele><time>2026-05-01T13:29:11.678Z</time></trkpt><trkpt lat="43.3529245" lon="10.8265053"><ele>145.85714285714286</ele><time>2026-05-01T13:29:12.656Z</time></trkpt><trkpt lat="43.3529882" lon="10.8264546"><ele>145.71428571428572</ele><time>2026-05-01T13:29:13.682Z</time></trkpt><trkpt lat="43.3530541" lon="10.8264327"><ele>145.57142857142858</ele><time>2026-05-01T13:29:14.665Z</time></trkpt><trkpt lat="43.3531192" lon="10.8264215"><ele>145.42857142857144</ele><time>2026-05-01T13:29:15.68Z</time></trkpt><trkpt lat="43.3531775" lon="10.8263815"><ele>145.2857142857143</ele><time>2026-05-01T13:29:16.658Z</time></trkpt><trkpt lat="43.3532304" lon="10.8263138"><ele>145.14285714285714</ele><time>2026-05-01T13:29:17.691Z</time></trkpt><trkpt lat="43.3532718" lon="10.8262396"><ele>145.0</ele><time>2026-05-01T13:29:18.665Z</time></trkpt><trkpt lat="43.3533105" lon="10.8261501"><ele>144.83333333333334</ele><time>2026-05-01T13:29:19.667Z</time></trkpt><trkpt lat="43.3533437" lon="10.8260579"><ele>144.66666666666669</ele><time>2026-05-01T13:29:20.667Z</time></trkpt><trkpt lat="43.3533651" lon="10.8259517"><ele>144.5</ele><time>2026-05-01T13:29:21.671Z</time></trkpt><trkpt lat="43.3533654" lon="10.8258234"><ele>144.33333333333334</ele><time>2026-05-01T13:29:22.67Z</time></trkpt><trkpt lat="43.3533566" lon="10.8256986"><ele>144.16666666666666</ele><time>2026-05-01T13:29:23.667Z</time></trkpt><trkpt lat="43.353345" lon="10.8255905"><ele>144.0</ele><time>2026-05-01T13:29:24.667Z</time></trkpt><trkpt lat="43.3533383" lon="10.8254478"><ele>144.0</ele><time>2026-05-01T13:29:26.665Z</time></trkpt><trkpt lat="43.3533133" lon="10.8253568"><ele>144.0</ele><time>2026-05-01T13:35:04.66Z</time></trkpt><trkpt lat="43.3532993" lon="10.8252565"><ele>144.0</ele><time>2026-05-01T13:35:08.668Z</time></trkpt><trkpt lat="43.3532987" lon="10.8251383"><ele>144.0</ele><time>2026-05-01T13:35:11.655Z</time></trkpt><trkpt lat="43.3533045" lon="10.8250425"><ele>144.0</ele><time>2026-05-01T13:35:13.669Z</time></trkpt><trkpt lat="43.3533097" lon="10.8249068"><ele>144.0</ele><time>2026-05-01T13:35:15.65Z</time></trkpt><trkpt lat="43.3533044" lon="10.8247774"><ele>143.0</ele><time>2026-05-01T13:35:17.665Z</time></trkpt><trkpt lat="43.3532961" lon="10.8246407"><ele>142.0</ele><time>2026-05-01T13:35:19.663Z</time></trkpt><trkpt lat="43.3532997" lon="10.8245199"><ele>141.0</ele><time>2026-05-01T13:35:21.67Z</time></trkpt><trkpt lat="43.353312" lon="10.8243773"><ele>140.0</ele><time>2026-05-01T13:35:23.664Z</time></trkpt><trkpt lat="43.3533224" lon="10.8242411"><ele>139.0</ele><time>2026-05-01T13:35:25.661Z</time></trkpt><trkpt lat="43.3533094" lon="10.8240968"><ele>138.4</ele><time>2026-05-01T13:35:27.669Z</time></trkpt><trkpt lat="43.3532874" lon="10.8239718"><ele>137.8</ele><time>2026-05-01T13:35:29.67Z</time></trkpt><trkpt lat="43.353247" lon="10.8238686"><ele>137.2</ele><time>2026-05-01T13:35:31.665Z</time></trkpt><trkpt lat="43.3531731" lon="10.8238434"><ele>136.6</ele><time>2026-05-01T13:35:34.654Z</time></trkpt><trkpt lat="43.3531303" lon="10.8240016"><ele>136.0</ele><time>2026-05-01T13:35:37.67Z</time></trkpt><trkpt lat="43.3531233" lon="10.8241089"><ele>136.0</ele><time>2026-05-01T13:35:38.657Z</time></trkpt><trkpt lat="43.3531091" lon="10.8242134"><ele>136.0</ele><time>2026-05-01T13:35:39.66Z</time></trkpt><trkpt lat="43.3530789" lon="10.8243271"><ele>136.0</ele><time>2026-05-01T13:35:40.668Z</time></trkpt><trkpt lat="43.3530356" lon="10.8244457"><ele>136.0</ele><time>2026-05-01T13:35:41.655Z</time></trkpt><trkpt lat="43.352976" lon="10.8245574"><ele>136.0</ele><time>2026-05-01T13:35:42.661Z</time></trkpt><trkpt lat="43.3529023" lon="10.8246685"><ele>135.25</ele><time>2026-05-01T13:35:43.663Z</time></trkpt><trkpt lat="43.3528124" lon="10.8247666"><ele>134.5</ele><time>2026-05-01T13:35:44.666Z</time></trkpt><trkpt lat="43.3527092" lon="10.8248499"><ele>133.75</ele><time>2026-05-01T13:35:45.665Z</time></trkpt><trkpt lat="43.352582" lon="10.8249191"><ele>133.0</ele><time>2026-05-01T13:35:46.678Z</time></trkpt><trkpt lat="43.3524385" lon="10.8249664"><ele>133.0</ele><time>2026-05-01T13:35:47.666Z</time></trkpt><trkpt lat="43.3522875" lon="10.8250213"><ele>133.0</ele><time>2026-05-01T13:35:48.682Z</time></trkpt><trkpt lat="43.3521551" lon="10.8250967"><ele>133.0</ele><time>2026-05-01T13:35:49.657Z</time></trkpt><trkpt lat="43.3520399" lon="10.8251906"><ele>133.0</ele><time>2026-05-01T13:35:50.669Z</time></trkpt><trkpt lat="43.3519419" lon="10.8253115"><ele>132.25</ele><time>2026-05-01T13:35:51.671Z</time></trkpt><trkpt lat="43.3518577" lon="10.8254518"><ele>131.5</ele><time>2026-05-01T13:35:52.664Z</time></trkpt><trkpt lat="43.3517899" lon="10.8256174"><ele>130.75</ele><time>2026-05-01T13:35:53.665Z</time></trkpt><trkpt lat="43.3517322" lon="10.8257986"><ele>130.0</ele><time>2026-05-01T13:35:54.667Z</time></trkpt><trkpt lat="43.3516803" lon="10.8260076"><ele>130.0</ele><time>2026-05-01T13:35:55.654Z</time></trkpt><trkpt lat="43.3516112" lon="10.8262191"><ele>130.0</ele><time>2026-05-01T13:35:56.662Z</time></trkpt><trkpt lat="43.3515113" lon="10.8264043"><ele>130.0</ele><time>2026-05-01T13:35:57.667Z</time></trkpt><trkpt lat="43.3513841" lon="10.8265788"><ele>126.33333333333334</ele><time>2026-05-01T13:35:58.655Z</time></trkpt><trkpt lat="43.3512425" lon="10.8267321"><ele>122.66666666666666</ele><time>2026-05-01T13:35:59.662Z</time></trkpt><trkpt lat="43.3511115" lon="10.8268761"><ele>119.0</ele><time>2026-05-01T13:36:00.67Z</time></trkpt><trkpt lat="43.3509944" lon="10.8270284"><ele>119.0</ele><time>2026-05-01T13:36:01.659Z</time></trkpt><trkpt lat="43.3508883" lon="10.8271842"><ele>119.0</ele><time>2026-05-01T13:36:02.663Z</time></trkpt><trkpt lat="43.3508002" lon="10.8273685"><ele>119.0</ele><time>2026-05-01T13:36:03.663Z</time></trkpt><trkpt lat="43.350731" lon="10.8275683"><ele>117.66666666666666</ele><time>2026-05-01T13:36:04.665Z</time></trkpt><trkpt lat="43.3506596" lon="10.8277604"><ele>116.33333333333334</ele><time>2026-05-01T13:36:05.67Z</time></trkpt><trkpt lat="43.3505838" lon="10.8279488"><ele>115.0</ele><time>2026-05-01T13:36:06.656Z</time></trkpt><trkpt lat="43.3504967" lon="10.8281156"><ele>112.66666666666667</ele><time>2026-05-01T13:36:07.668Z</time></trkpt><trkpt lat="43.3503927" lon="10.8282707"><ele>110.33333333333334</ele><time>2026-05-01T13:36:08.676Z</time></trkpt><trkpt lat="43.3502687" lon="10.8284282"><ele>108.0</ele><time>2026-05-01T13:36:09.664Z</time></trkpt><trkpt lat="43.350135" lon="10.8285805"><ele>108.0</ele><time>2026-05-01T13:36:10.674Z</time></trkpt><trkpt lat="43.3499947" lon="10.8287319"><ele>108.0</ele><time>2026-05-01T13:36:11.678Z</time></trkpt><trkpt lat="43.3498498" lon="10.8288973"><ele>108.0</ele><time>2026-05-01T13:36:12.675Z</time></trkpt><trkpt lat="43.3497078" lon="10.8290576"><ele>104.66666666666666</ele><time>2026-05-01T13:36:13.671Z</time></trkpt><trkpt lat="43.3495759" lon="10.8292093"><ele>101.33333333333333</ele><time>2026-05-01T13:36:14.671Z</time></trkpt><trkpt lat="43.3494558" lon="10.8293571"><ele>98.0</ele><time>2026-05-01T13:36:15.675Z</time></trkpt><trkpt lat="43.3493535" lon="10.8295139"><ele>98.0</ele><time>2026-05-01T13:36:16.68Z</time></trkpt><trkpt lat="43.3492609" lon="10.829665"><ele>98.0</ele><time>2026-05-01T13:36:17.67Z</time></trkpt><trkpt lat="43.3491729" lon="10.8298304"><ele>98.0</ele><time>2026-05-01T13:36:18.678Z</time></trkpt><trkpt lat="43.3490864" lon="10.8299936"><ele>98.0</ele><time>2026-05-01T13:36:19.674Z</time></trkpt><trkpt lat="43.3489975" lon="10.8301558"><ele>100.33333333333333</ele><time>2026-05-01T13:36:20.664Z</time></trkpt><trkpt lat="43.3489027" lon="10.8303033"><ele>102.66666666666666</ele><time>2026-05-01T13:36:21.668Z</time></trkpt><trkpt lat="43.3488031" lon="10.8304553"><ele>105.0</ele><time>2026-05-01T13:36:22.664Z</time></trkpt><trkpt lat="43.3486972" lon="10.8306158"><ele>100.66666666666667</ele><time>2026-05-01T13:36:23.675Z</time></trkpt><trkpt lat="43.3485862" lon="10.8307887"><ele>96.33333333333334</ele><time>2026-05-01T13:36:24.673Z</time></trkpt><trkpt lat="43.3484703" lon="10.8309576"><ele>92.0</ele><time>2026-05-01T13:36:25.661Z</time></trkpt><trkpt lat="43.3483525" lon="10.8311239"><ele>92.0</ele><time>2026-05-01T13:36:26.668Z</time></trkpt><trkpt lat="43.3482313" lon="10.8312945"><ele>92.0</ele><time>2026-05-01T13:36:27.663Z</time></trkpt><trkpt lat="43.348114" lon="10.8314693"><ele>92.0</ele><time>2026-05-01T13:36:28.686Z</time></trkpt><trkpt lat="43.3479988" lon="10.831639"><ele>88.0</ele><time>2026-05-01T13:36:29.666Z</time></trkpt><trkpt lat="43.3478942" lon="10.8318026"><ele>84.0</ele><time>2026-05-01T13:36:30.672Z</time></trkpt><trkpt lat="43.3477895" lon="10.8319563"><ele>80.0</ele><time>2026-05-01T13:36:31.664Z</time></trkpt><trkpt lat="43.3476944" lon="10.8321125"><ele>80.0</ele><time>2026-05-01T13:36:32.664Z</time></trkpt><trkpt lat="43.3476092" lon="10.8322798"><ele>80.0</ele><time>2026-05-01T13:36:33.671Z</time></trkpt><trkpt lat="43.3475366" lon="10.8324575"><ele>80.0</ele><time>2026-05-01T13:36:34.674Z</time></trkpt><trkpt lat="43.3474783" lon="10.8326427"><ele>80.0</ele><time>2026-05-01T13:36:35.67Z</time></trkpt><trkpt lat="43.3474199" lon="10.8328418"><ele>80.0</ele><time>2026-05-01T13:36:36.668Z</time></trkpt><trkpt lat="43.3473642" lon="10.8330404"><ele>80.0</ele><time>2026-05-01T13:36:37.698Z</time></trkpt><trkpt lat="43.3473078" lon="10.8332489"><ele>80.0</ele><time>2026-05-01T13:36:38.655Z</time></trkpt><trkpt lat="43.3472523" lon="10.833455"><ele>78.0</ele><time>2026-05-01T13:36:39.662Z</time></trkpt><trkpt lat="43.3471933" lon="10.8336633"><ele>76.0</ele><time>2026-05-01T13:36:40.672Z</time></trkpt><trkpt lat="43.3471333" lon="10.8338818"><ele>74.0</ele><time>2026-05-01T13:36:41.675Z</time></trkpt><trkpt lat="43.3470758" lon="10.8341"><ele>74.66666666666667</ele><time>2026-05-01T13:36:42.66Z</time></trkpt><trkpt lat="43.3470142" lon="10.8343387"><ele>75.33333333333333</ele><time>2026-05-01T13:36:43.662Z</time></trkpt><trkpt lat="43.3469509" lon="10.8345827"><ele>76.0</ele><time>2026-05-01T13:36:44.682Z</time></trkpt><trkpt lat="43.3468784" lon="10.8348278"><ele>76.0</ele><time>2026-05-01T13:36:45.667Z</time></trkpt><trkpt lat="43.3468025" lon="10.8350732"><ele>76.0</ele><time>2026-05-01T13:36:46.657Z</time></trkpt><trkpt lat="43.346719" lon="10.8353195"><ele>76.0</ele><time>2026-05-01T13:36:47.665Z</time></trkpt><trkpt lat="43.346644" lon="10.8355733"><ele>78.0</ele><time>2026-05-01T13:36:48.661Z</time></trkpt><trkpt lat="43.3465684" lon="10.8358203"><ele>80.0</ele><time>2026-05-01T13:36:49.686Z</time></trkpt><trkpt lat="43.3464975" lon="10.8360693"><ele>82.0</ele><time>2026-05-01T13:36:50.671Z</time></trkpt><trkpt lat="43.3464399" lon="10.8363184"><ele>83.66666666666666</ele><time>2026-05-01T13:36:51.664Z</time></trkpt><trkpt lat="43.3463865" lon="10.8365675"><ele>85.33333333333333</ele><time>2026-05-01T13:36:52.666Z</time></trkpt><trkpt lat="43.3463316" lon="10.8367951"><ele>87.0</ele><time>2026-05-01T13:36:53.664Z</time></trkpt><trkpt lat="43.3462801" lon="10.8370184"><ele>85.0</ele><time>2026-05-01T13:36:54.664Z</time></trkpt><trkpt lat="43.3462311" lon="10.8372328"><ele>83.0</ele><time>2026-05-01T13:36:55.663Z</time></trkpt><trkpt lat="43.3461755" lon="10.8374374"><ele>81.0</ele><time>2026-05-01T13:36:56.669Z</time></trkpt><trkpt lat="43.3461082" lon="10.8376434"><ele>81.0</ele><time>2026-05-01T13:36:57.662Z</time></trkpt><trkpt lat="43.3460223" lon="10.8378503"><ele>81.0</ele><time>2026-05-01T13:36:58.679Z</time></trkpt><trkpt lat="43.3459164" lon="10.8380505"><ele>81.0</ele><time>2026-05-01T13:36:59.668Z</time></trkpt><trkpt lat="43.3457905" lon="10.8382388"><ele>81.0</ele><time>2026-05-01T13:37:00.667Z</time></trkpt><trkpt lat="43.3456419" lon="10.8384004"><ele>81.0</ele><time>2026-05-01T13:37:01.662Z</time></trkpt><trkpt lat="43.3454908" lon="10.8385536"><ele>81.0</ele><time>2026-05-01T13:37:02.665Z</time></trkpt><trkpt lat="43.3453332" lon="10.8386988"><ele>81.66666666666667</ele><time>2026-05-01T13:37:03.674Z</time></trkpt><trkpt lat="43.3451695" lon="10.8388366"><ele>82.33333333333334</ele><time>2026-05-01T13:37:04.665Z</time></trkpt><trkpt lat="43.3449967" lon="10.8389428"><ele>83.0</ele><time>2026-05-01T13:37:05.665Z</time></trkpt><trkpt lat="43.3448342" lon="10.8390435"><ele>82.33333333333334</ele><time>2026-05-01T13:37:06.657Z</time></trkpt><trkpt lat="43.3446906" lon="10.8391433"><ele>81.66666666666667</ele><time>2026-05-01T13:37:07.655Z</time></trkpt><trkpt lat="43.3445659" lon="10.8392811"><ele>81.0</ele><time>2026-05-01T13:37:08.686Z</time></trkpt><trkpt lat="43.3444639" lon="10.8394472"><ele>81.0</ele><time>2026-05-01T13:37:09.669Z</time></trkpt><trkpt lat="43.3443664" lon="10.8396273"><ele>81.0</ele><time>2026-05-01T13:37:10.657Z</time></trkpt><trkpt lat="43.3442692" lon="10.8398183"><ele>81.0</ele><time>2026-05-01T13:37:11.661Z</time></trkpt><trkpt lat="43.3441655" lon="10.8400245"><ele>82.33333333333333</ele><time>2026-05-01T13:37:12.677Z</time></trkpt><trkpt lat="43.3440603" lon="10.8402415"><ele>83.66666666666666</ele><time>2026-05-01T13:37:13.672Z</time></trkpt><trkpt lat="43.3439504" lon="10.8404647"><ele>85.0</ele><time>2026-05-01T13:37:14.668Z</time></trkpt><trkpt lat="43.3438344" lon="10.8406997"><ele>84.0</ele><time>2026-05-01T13:37:15.678Z</time></trkpt><trkpt lat="43.3437118" lon="10.8409438"><ele>83.0</ele><time>2026-05-01T13:37:16.679Z</time></trkpt><trkpt lat="43.3435848" lon="10.8412018"><ele>82.0</ele><time>2026-05-01T13:37:17.661Z</time></trkpt><trkpt lat="43.3434561" lon="10.8414631"><ele>82.0</ele><time>2026-05-01T13:37:18.669Z</time></trkpt><trkpt lat="43.3433249" lon="10.8417399"><ele>82.0</ele><time>2026-05-01T13:37:19.674Z</time></trkpt><trkpt lat="43.3431893" lon="10.8420252"><ele>80.5</ele><time>2026-05-01T13:37:20.669Z</time></trkpt><trkpt lat="43.3430493" lon="10.8423135"><ele>79.0</ele><time>2026-05-01T13:37:21.674Z</time></trkpt><trkpt lat="43.3429161" lon="10.842589"><ele>80.33333333333333</ele><time>2026-05-01T13:37:22.662Z</time></trkpt><trkpt lat="43.3427967" lon="10.8428522"><ele>81.66666666666667</ele><time>2026-05-01T13:37:23.664Z</time></trkpt><trkpt lat="43.3426806" lon="10.8430995"><ele>83.0</ele><time>2026-05-01T13:37:24.662Z</time></trkpt><trkpt lat="43.3425703" lon="10.8433293"><ele>84.0</ele><time>2026-05-01T13:37:25.67Z</time></trkpt><trkpt lat="43.342462" lon="10.8435313"><ele>85.0</ele><time>2026-05-01T13:37:26.661Z</time></trkpt><trkpt lat="43.3423441" lon="10.8437073"><ele>86.0</ele><time>2026-05-01T13:37:27.668Z</time></trkpt><trkpt lat="43.3422176" lon="10.8438572"><ele>84.66666666666667</ele><time>2026-05-01T13:37:28.662Z</time></trkpt><trkpt lat="43.3420694" lon="10.8439956"><ele>83.33333333333333</ele><time>2026-05-01T13:37:29.658Z</time></trkpt><trkpt lat="43.3419034" lon="10.8441168"><ele>82.0</ele><time>2026-05-01T13:37:30.667Z</time></trkpt><trkpt lat="43.3417317" lon="10.8442513"><ele>82.66666666666666</ele><time>2026-05-01T13:37:31.669Z</time></trkpt><trkpt lat="43.3415528" lon="10.8443874"><ele>83.33333333333333</ele><time>2026-05-01T13:37:32.673Z</time></trkpt><trkpt lat="43.3413718" lon="10.8445248"><ele>84.0</ele><time>2026-05-01T13:37:33.678Z</time></trkpt><trkpt lat="43.3411828" lon="10.8446676"><ele>84.0</ele><time>2026-05-01T13:37:34.671Z</time></trkpt><trkpt lat="43.3409937" lon="10.8448072"><ele>84.0</ele><time>2026-05-01T13:37:35.668Z</time></trkpt><trkpt lat="43.3408119" lon="10.8449459"><ele>84.0</ele><time>2026-05-01T13:37:36.674Z</time></trkpt><trkpt lat="43.3406407" lon="10.8450688"><ele>84.66666666666667</ele><time>2026-05-01T13:37:37.672Z</time></trkpt><trkpt lat="43.3404784" lon="10.8451894"><ele>85.33333333333334</ele><time>2026-05-01T13:37:38.672Z</time></trkpt><trkpt lat="43.3403271" lon="10.8453084"><ele>86.0</ele><time>2026-05-01T13:37:39.663Z</time></trkpt><trkpt lat="43.3401817" lon="10.8454213"><ele>86.0</ele><time>2026-05-01T13:37:40.679Z</time></trkpt><trkpt lat="43.340051" lon="10.8455421"><ele>86.0</ele><time>2026-05-01T13:37:41.669Z</time></trkpt><trkpt lat="43.3399298" lon="10.845701"><ele>86.0</ele><time>2026-05-01T13:37:42.676Z</time></trkpt><trkpt lat="43.3398168" lon="10.8458863"><ele>85.66666666666667</ele><time>2026-05-01T13:37:43.668Z</time></trkpt><trkpt lat="43.3396956" lon="10.8460858"><ele>85.33333333333333</ele><time>2026-05-01T13:37:44.673Z</time></trkpt><trkpt lat="43.339574" lon="10.8462964"><ele>85.0</ele><time>2026-05-01T13:37:45.664Z</time></trkpt><trkpt lat="43.3394435" lon="10.8465052"><ele>85.0</ele><time>2026-05-01T13:37:46.672Z</time></trkpt><trkpt lat="43.3393008" lon="10.8467131"><ele>85.0</ele><time>2026-05-01T13:37:47.68Z</time></trkpt><trkpt lat="43.3391664" lon="10.8469277"><ele>85.0</ele><time>2026-05-01T13:37:48.672Z</time></trkpt><trkpt lat="43.3390397" lon="10.8471615"><ele>84.33333333333333</ele><time>2026-05-01T13:37:49.671Z</time></trkpt><trkpt lat="43.3389252" lon="10.8474124"><ele>83.66666666666667</ele><time>2026-05-01T13:37:50.684Z</time></trkpt><trkpt lat="43.338813" lon="10.8476679"><ele>83.0</ele><time>2026-05-01T13:37:51.677Z</time></trkpt><trkpt lat="43.3386993" lon="10.8479292"><ele>83.0</ele><time>2026-05-01T13:37:52.671Z</time></trkpt><trkpt lat="43.3385821" lon="10.8481955"><ele>83.0</ele><time>2026-05-01T13:37:53.672Z</time></trkpt><trkpt lat="43.3384649" lon="10.8484678"><ele>84.0</ele><time>2026-05-01T13:37:54.656Z</time></trkpt><trkpt lat="43.3383413" lon="10.8487394"><ele>85.0</ele><time>2026-05-01T13:37:55.682Z</time></trkpt><trkpt lat="43.3382211" lon="10.8490232"><ele>84.5</ele><time>2026-05-01T13:37:56.653Z</time></trkpt><trkpt lat="43.3380936" lon="10.849313"><ele>84.0</ele><time>2026-05-01T13:37:57.658Z</time></trkpt><trkpt lat="43.3379699" lon="10.8496043"><ele>84.0</ele><time>2026-05-01T13:37:58.662Z</time></trkpt><trkpt lat="43.3378457" lon="10.8498982"><ele>84.0</ele><time>2026-05-01T13:37:59.668Z</time></trkpt><trkpt lat="43.337718" lon="10.8501905"><ele>84.0</ele><time>2026-05-01T13:38:00.659Z</time></trkpt><trkpt lat="43.3375889" lon="10.8504816"><ele>84.0</ele><time>2026-05-01T13:38:01.659Z</time></trkpt><trkpt lat="43.3374753" lon="10.8507529"><ele>82.66666666666667</ele><time>2026-05-01T13:38:02.662Z</time></trkpt><trkpt lat="43.3373659" lon="10.8510103"><ele>81.33333333333334</ele><time>2026-05-01T13:38:03.655Z</time></trkpt><trkpt lat="43.3372612" lon="10.8512678"><ele>80.0</ele><time>2026-05-01T13:38:04.676Z</time></trkpt><trkpt lat="43.3371588" lon="10.8515128"><ele>80.0</ele><time>2026-05-01T13:38:05.671Z</time></trkpt><trkpt lat="43.3370586" lon="10.8517686"><ele>80.0</ele><time>2026-05-01T13:38:06.671Z</time></trkpt><trkpt lat="43.3369675" lon="10.8520282"><ele>80.0</ele><time>2026-05-01T13:38:07.668Z</time></trkpt><trkpt lat="43.3368819" lon="10.8522978"><ele>81.66666666666667</ele><time>2026-05-01T13:38:08.65Z</time></trkpt><trkpt lat="43.3368015" lon="10.852576"><ele>83.33333333333333</ele><time>2026-05-01T13:38:09.661Z</time></trkpt><trkpt lat="43.3367181" lon="10.8528418"><ele>85.0</ele><time>2026-05-01T13:38:10.659Z</time></trkpt><trkpt lat="43.3366381" lon="10.8530817"><ele>86.33333333333333</ele><time>2026-05-01T13:38:11.672Z</time></trkpt><trkpt lat="43.3365666" lon="10.8533146"><ele>87.66666666666667</ele><time>2026-05-01T13:38:12.66Z</time></trkpt><trkpt lat="43.3365124" lon="10.8535635"><ele>89.0</ele><time>2026-05-01T13:38:13.676Z</time></trkpt><trkpt lat="43.3364821" lon="10.8538096"><ele>89.0</ele><time>2026-05-01T13:38:14.67Z</time></trkpt><trkpt lat="43.3364481" lon="10.854052"><ele>89.0</ele><time>2026-05-01T13:38:15.661Z</time></trkpt><trkpt lat="43.3363751" lon="10.8542666"><ele>89.0</ele><time>2026-05-01T13:38:16.657Z</time></trkpt><trkpt lat="43.3362694" lon="10.8544695"><ele>89.0</ele><time>2026-05-01T13:38:17.671Z</time></trkpt><trkpt lat="43.3361514" lon="10.85467"><ele>89.0</ele><time>2026-05-01T13:38:18.661Z</time></trkpt><trkpt lat="43.3360328" lon="10.8548741"><ele>89.0</ele><time>2026-05-01T13:38:19.681Z</time></trkpt><trkpt lat="43.3359145" lon="10.8550876"><ele>90.66666666666667</ele><time>2026-05-01T13:38:20.664Z</time></trkpt><trkpt lat="43.3358089" lon="10.8553243"><ele>92.33333333333333</ele><time>2026-05-01T13:38:21.66Z</time></trkpt><trkpt lat="43.3357092" lon="10.8555685"><ele>94.0</ele><time>2026-05-01T13:38:22.674Z</time></trkpt><trkpt lat="43.335611" lon="10.8558159"><ele>90.66666666666666</ele><time>2026-05-01T13:38:23.661Z</time></trkpt><trkpt lat="43.3355069" lon="10.8560645"><ele>87.33333333333333</ele><time>2026-05-01T13:38:24.657Z</time></trkpt><trkpt lat="43.3354084" lon="10.8563006"><ele>84.0</ele><time>2026-05-01T13:38:25.665Z</time></trkpt><trkpt lat="43.3353113" lon="10.8565295"><ele>84.0</ele><time>2026-05-01T13:38:26.666Z</time></trkpt><trkpt lat="43.3352081" lon="10.8567509"><ele>84.0</ele><time>2026-05-01T13:38:27.654Z</time></trkpt><trkpt lat="43.3350957" lon="10.8569671"><ele>84.0</ele><time>2026-05-01T13:38:28.663Z</time></trkpt><trkpt lat="43.3349646" lon="10.8571764"><ele>83.66666666666667</ele><time>2026-05-01T13:38:29.67Z</time></trkpt><trkpt lat="43.3348281" lon="10.8573715"><ele>83.33333333333334</ele><time>2026-05-01T13:38:30.659Z</time></trkpt><trkpt lat="43.3346864" lon="10.8575569"><ele>83.0</ele><time>2026-05-01T13:38:31.656Z</time></trkpt><trkpt lat="43.334544" lon="10.857732"><ele>83.0</ele><time>2026-05-01T13:38:32.675Z</time></trkpt><trkpt lat="43.3343963" lon="10.8578923"><ele>83.0</ele><time>2026-05-01T13:38:33.673Z</time></trkpt><trkpt lat="43.3342435" lon="10.8580237"><ele>83.0</ele><time>2026-05-01T13:38:34.658Z</time></trkpt><trkpt lat="43.3340848" lon="10.8581554"><ele>83.0</ele><time>2026-05-01T13:38:35.664Z</time></trkpt><trkpt lat="43.3339177" lon="10.8582872"><ele>83.0</ele><time>2026-05-01T13:38:36.674Z</time></trkpt><trkpt lat="43.3337397" lon="10.8584038"><ele>83.0</ele><time>2026-05-01T13:38:37.66Z</time></trkpt><trkpt lat="43.3335532" lon="10.858509"><ele>83.0</ele><time>2026-05-01T13:38:38.67Z</time></trkpt><trkpt lat="43.333358" lon="10.8586132"><ele>83.0</ele><time>2026-05-01T13:38:39.657Z</time></trkpt><trkpt lat="43.3331518" lon="10.8587053"><ele>83.0</ele><time>2026-05-01T13:38:40.673Z</time></trkpt><trkpt lat="43.3329432" lon="10.8587759"><ele>83.0</ele><time>2026-05-01T13:38:41.664Z</time></trkpt><trkpt lat="43.3327331" lon="10.8588208"><ele>83.0</ele><time>2026-05-01T13:38:42.691Z</time></trkpt><trkpt lat="43.3325406" lon="10.8588395"><ele>83.0</ele><time>2026-05-01T13:38:43.678Z</time></trkpt><trkpt lat="43.3323595" lon="10.8588529"><ele>83.75</ele><time>2026-05-01T13:38:44.659Z</time></trkpt><trkpt lat="43.3321986" lon="10.858869"><ele>84.5</ele><time>2026-05-01T13:38:45.663Z</time></trkpt><trkpt lat="43.3320501" lon="10.858884"><ele>85.25</ele><time>2026-05-01T13:38:46.657Z</time></trkpt><trkpt lat="43.3319259" lon="10.8589143"><ele>86.0</ele><time>2026-05-01T13:38:47.666Z</time></trkpt><trkpt lat="43.3318241" lon="10.8589793"><ele>86.0</ele><time>2026-05-01T13:38:48.667Z</time></trkpt><trkpt lat="43.3317253" lon="10.8590796"><ele>86.0</ele><time>2026-05-01T13:38:49.66Z</time></trkpt><trkpt lat="43.3316267" lon="10.8591856"><ele>86.0</ele><time>2026-05-01T13:38:50.666Z</time></trkpt><trkpt lat="43.3315214" lon="10.8592895"><ele>86.0</ele><time>2026-05-01T13:38:51.666Z</time></trkpt><trkpt lat="43.3314108" lon="10.8593905"><ele>86.66666666666667</ele><time>2026-05-01T13:38:52.656Z</time></trkpt><trkpt lat="43.3312839" lon="10.8595043"><ele>87.33333333333333</ele><time>2026-05-01T13:38:53.673Z</time></trkpt><trkpt lat="43.3311523" lon="10.8596217"><ele>88.0</ele><time>2026-05-01T13:38:54.666Z</time></trkpt><trkpt lat="43.3310192" lon="10.8597441"><ele>88.0</ele><time>2026-05-01T13:38:55.655Z</time></trkpt><trkpt lat="43.3308768" lon="10.859869"><ele>88.0</ele><time>2026-05-01T13:38:56.653Z</time></trkpt><trkpt lat="43.3307302" lon="10.8599957"><ele>88.0</ele><time>2026-05-01T13:38:57.665Z</time></trkpt><trkpt lat="43.3305803" lon="10.860132"><ele>88.0</ele><time>2026-05-01T13:38:58.661Z</time></trkpt><trkpt lat="43.3304261" lon="10.8602704"><ele>88.0</ele><time>2026-05-01T13:38:59.664Z</time></trkpt><trkpt lat="43.3302699" lon="10.8604149"><ele>88.0</ele><time>2026-05-01T13:39:00.663Z</time></trkpt><trkpt lat="43.3301089" lon="10.8605607"><ele>88.0</ele><time>2026-05-01T13:39:01.666Z</time></trkpt><trkpt lat="43.3299546" lon="10.8607085"><ele>88.0</ele><time>2026-05-01T13:39:02.661Z</time></trkpt><trkpt lat="43.3298068" lon="10.8608432"><ele>88.0</ele><time>2026-05-01T13:39:03.662Z</time></trkpt><trkpt lat="43.3296786" lon="10.86097"><ele>88.75</ele><time>2026-05-01T13:39:04.661Z</time></trkpt><trkpt lat="43.3295733" lon="10.8610862"><ele>89.5</ele><time>2026-05-01T13:39:05.66Z</time></trkpt><trkpt lat="43.3294883" lon="10.8612199"><ele>90.25</ele><time>2026-05-01T13:39:06.665Z</time></trkpt><trkpt lat="43.3294226" lon="10.8613767"><ele>91.0</ele><time>2026-05-01T13:39:07.665Z</time></trkpt><trkpt lat="43.3293688" lon="10.8615499"><ele>91.0</ele><time>2026-05-01T13:39:08.674Z</time></trkpt><trkpt lat="43.3293268" lon="10.861745"><ele>91.0</ele><time>2026-05-01T13:39:09.682Z</time></trkpt><trkpt lat="43.3292982" lon="10.8619552"><ele>91.0</ele><time>2026-05-01T13:39:10.661Z</time></trkpt><trkpt lat="43.329274" lon="10.8621822"><ele>91.33333333333333</ele><time>2026-05-01T13:39:11.673Z</time></trkpt><trkpt lat="43.3292528" lon="10.8624206"><ele>91.66666666666667</ele><time>2026-05-01T13:39:12.657Z</time></trkpt><trkpt lat="43.3292336" lon="10.8626604"><ele>92.0</ele><time>2026-05-01T13:39:13.655Z</time></trkpt><trkpt lat="43.3292224" lon="10.8629064"><ele>92.0</ele><time>2026-05-01T13:39:14.658Z</time></trkpt><trkpt lat="43.3292145" lon="10.863156"><ele>92.0</ele><time>2026-05-01T13:39:15.666Z</time></trkpt><trkpt lat="43.3292172" lon="10.8634058"><ele>92.0</ele><time>2026-05-01T13:39:16.665Z</time></trkpt><trkpt lat="43.3292347" lon="10.8636549"><ele>92.33333333333334</ele><time>2026-05-01T13:39:17.663Z</time></trkpt><trkpt lat="43.3292646" lon="10.863902"><ele>92.66666666666667</ele><time>2026-05-01T13:39:18.656Z</time></trkpt><trkpt lat="43.3293038" lon="10.8641346"><ele>93.0</ele><time>2026-05-01T13:39:19.677Z</time></trkpt><trkpt lat="43.3293371" lon="10.86435"><ele>93.66666666666667</ele><time>2026-05-01T13:39:20.671Z</time></trkpt><trkpt lat="43.3293701" lon="10.8645605"><ele>94.33333333333334</ele><time>2026-05-01T13:39:21.677Z</time></trkpt><trkpt lat="43.3293985" lon="10.8647697"><ele>95.0</ele><time>2026-05-01T13:39:22.674Z</time></trkpt><trkpt lat="43.3294161" lon="10.8649866"><ele>94.0</ele><time>2026-05-01T13:39:23.668Z</time></trkpt><trkpt lat="43.3294291" lon="10.865208"><ele>93.0</ele><time>2026-05-01T13:39:24.673Z</time></trkpt><trkpt lat="43.329438" lon="10.8654351"><ele>92.0</ele><time>2026-05-01T13:39:25.664Z</time></trkpt><trkpt lat="43.3294415" lon="10.8656614"><ele>92.0</ele><time>2026-05-01T13:39:26.659Z</time></trkpt><trkpt lat="43.3294388" lon="10.8658969"><ele>92.0</ele><time>2026-05-01T13:39:27.656Z</time></trkpt><trkpt lat="43.3294322" lon="10.8661306"><ele>92.0</ele><time>2026-05-01T13:39:28.674Z</time></trkpt><trkpt lat="43.3294219" lon="10.8663679"><ele>91.66666666666667</ele><time>2026-05-01T13:39:29.662Z</time></trkpt><trkpt lat="43.329412" lon="10.8666128"><ele>91.33333333333333</ele><time>2026-05-01T13:39:30.681Z</time></trkpt><trkpt lat="43.3294006" lon="10.8668718"><ele>91.0</ele><time>2026-05-01T13:39:31.675Z</time></trkpt><trkpt lat="43.3293909" lon="10.867125"><ele>91.0</ele><time>2026-05-01T13:39:32.668Z</time></trkpt><trkpt lat="43.3293776" lon="10.8673893"><ele>91.0</ele><time>2026-05-01T13:39:33.667Z</time></trkpt><trkpt lat="43.3293656" lon="10.8676637"><ele>91.0</ele><time>2026-05-01T13:39:34.667Z</time></trkpt><trkpt lat="43.3293582" lon="10.8679331"><ele>90.66666666666666</ele><time>2026-05-01T13:39:35.66Z</time></trkpt><trkpt lat="43.3293496" lon="10.8682059"><ele>90.33333333333333</ele><time>2026-05-01T13:39:36.658Z</time></trkpt><trkpt lat="43.3293436" lon="10.8684686"><ele>90.0</ele><time>2026-05-01T13:39:37.684Z</time></trkpt><trkpt lat="43.3293387" lon="10.8687294"><ele>90.0</ele><time>2026-05-01T13:39:38.67Z</time></trkpt><trkpt lat="43.3293341" lon="10.8689888"><ele>90.0</ele><time>2026-05-01T13:39:39.663Z</time></trkpt><trkpt lat="43.329327" lon="10.8692367"><ele>90.0</ele><time>2026-05-01T13:39:40.664Z</time></trkpt><trkpt lat="43.329316" lon="10.8694827"><ele>90.33333333333333</ele><time>2026-05-01T13:39:41.677Z</time></trkpt><trkpt lat="43.3293059" lon="10.8697297"><ele>90.66666666666666</ele><time>2026-05-01T13:39:42.668Z</time></trkpt><trkpt lat="43.3293015" lon="10.8699794"><ele>91.0</ele><time>2026-05-01T13:39:43.663Z</time></trkpt><trkpt lat="43.3292946" lon="10.8702397"><ele>91.0</ele><time>2026-05-01T13:39:44.68Z</time></trkpt><trkpt lat="43.3292838" lon="10.8705006"><ele>91.0</ele><time>2026-05-01T13:39:45.667Z</time></trkpt><trkpt lat="43.3292746" lon="10.8707665"><ele>91.0</ele><time>2026-05-01T13:39:46.652Z</time></trkpt><trkpt lat="43.3292668" lon="10.8710441"><ele>91.0</ele><time>2026-05-01T13:39:47.669Z</time></trkpt><trkpt lat="43.3292609" lon="10.8713268"><ele>91.0</ele><time>2026-05-01T13:39:48.666Z</time></trkpt><trkpt lat="43.3292541" lon="10.8716111"><ele>91.0</ele><time>2026-05-01T13:39:49.664Z</time></trkpt><trkpt lat="43.3292449" lon="10.8718863"><ele>91.0</ele><time>2026-05-01T13:39:50.661Z</time></trkpt><trkpt lat="43.3292287" lon="10.8721542"><ele>91.0</ele><time>2026-05-01T13:39:51.671Z</time></trkpt><trkpt lat="43.3292071" lon="10.8724138"><ele>91.0</ele><time>2026-05-01T13:39:52.66Z</time></trkpt><trkpt lat="43.3291686" lon="10.8726646"><ele>91.0</ele><time>2026-05-01T13:39:53.668Z</time></trkpt><trkpt lat="43.3291164" lon="10.8729088"><ele>91.0</ele><time>2026-05-01T13:39:54.665Z</time></trkpt><trkpt lat="43.3290606" lon="10.8731516"><ele>91.0</ele><time>2026-05-01T13:39:55.662Z</time></trkpt><trkpt lat="43.3290029" lon="10.8733966"><ele>90.33333333333333</ele><time>2026-05-01T13:39:56.674Z</time></trkpt><trkpt lat="43.3289469" lon="10.8736448"><ele>89.66666666666667</ele><time>2026-05-01T13:39:57.659Z</time></trkpt><trkpt lat="43.3288912" lon="10.8738872"><ele>89.0</ele><time>2026-05-01T13:39:58.666Z</time></trkpt><trkpt lat="43.3288386" lon="10.8741257"><ele>91.0</ele><time>2026-05-01T13:39:59.681Z</time></trkpt><trkpt lat="43.3287837" lon="10.8743664"><ele>93.0</ele><time>2026-05-01T13:40:00.663Z</time></trkpt><trkpt lat="43.3287294" lon="10.8746061"><ele>95.0</ele><time>2026-05-01T13:40:01.674Z</time></trkpt><trkpt lat="43.3286822" lon="10.8748441"><ele>95.0</ele><time>2026-05-01T13:40:02.674Z</time></trkpt><trkpt lat="43.3286276" lon="10.8750849"><ele>95.0</ele><time>2026-05-01T13:40:03.675Z</time></trkpt><trkpt lat="43.3285757" lon="10.8753273"><ele>95.0</ele><time>2026-05-01T13:40:04.671Z</time></trkpt><trkpt lat="43.3285267" lon="10.8755801"><ele>95.0</ele><time>2026-05-01T13:40:05.668Z</time></trkpt><trkpt lat="43.3284868" lon="10.8758386"><ele>95.0</ele><time>2026-05-01T13:40:06.656Z</time></trkpt><trkpt lat="43.3284553" lon="10.8760996"><ele>95.0</ele><time>2026-05-01T13:40:07.666Z</time></trkpt><trkpt lat="43.3284334" lon="10.8763685"><ele>95.0</ele><time>2026-05-01T13:40:08.654Z</time></trkpt><trkpt lat="43.3284203" lon="10.8766319"><ele>95.0</ele><time>2026-05-01T13:40:09.694Z</time></trkpt><trkpt lat="43.3284146" lon="10.8769004"><ele>95.0</ele><time>2026-05-01T13:40:10.654Z</time></trkpt><trkpt lat="43.3284093" lon="10.8771502"><ele>95.33333333333334</ele><time>2026-05-01T13:40:11.657Z</time></trkpt><trkpt lat="43.3284" lon="10.8773902"><ele>95.66666666666667</ele><time>2026-05-01T13:40:12.664Z</time></trkpt><trkpt lat="43.328393" lon="10.8776102"><ele>96.0</ele><time>2026-05-01T13:40:13.661Z</time></trkpt><trkpt lat="43.3283849" lon="10.8777935"><ele>96.0</ele><time>2026-05-01T13:40:14.652Z</time></trkpt><trkpt lat="43.3283865" lon="10.8779459"><ele>96.0</ele><time>2026-05-01T13:40:15.685Z</time></trkpt><trkpt lat="43.3283872" lon="10.8780845"><ele>96.0</ele><time>2026-05-01T13:40:16.656Z</time></trkpt><trkpt lat="43.3283921" lon="10.8782209"><ele>96.0</ele><time>2026-05-01T13:40:17.666Z</time></trkpt><trkpt lat="43.3283966" lon="10.8783433"><ele>96.0</ele><time>2026-05-01T13:40:18.66Z</time></trkpt><trkpt lat="43.3284056" lon="10.8784686"><ele>96.0</ele><time>2026-05-01T13:40:19.66Z</time></trkpt><trkpt lat="43.3284206" lon="10.8785884"><ele>96.0</ele><time>2026-05-01T13:40:20.654Z</time></trkpt><trkpt lat="43.328455" lon="10.8787012"><ele>96.0</ele><time>2026-05-01T13:40:21.665Z</time></trkpt><trkpt lat="43.3285023" lon="10.8788098"><ele>96.0</ele><time>2026-05-01T13:40:22.651Z</time></trkpt><trkpt lat="43.3285721" lon="10.8789126"><ele>96.0</ele><time>2026-05-01T13:40:23.657Z</time></trkpt><trkpt lat="43.3286577" lon="10.8789891"><ele>96.0</ele><time>2026-05-01T13:40:24.656Z</time></trkpt><trkpt lat="43.3287449" lon="10.8790611"><ele>96.0</ele><time>2026-05-01T13:40:25.667Z</time></trkpt><trkpt lat="43.3288247" lon="10.8791519"><ele>96.0</ele><time>2026-05-01T13:40:26.655Z</time></trkpt><trkpt lat="43.3288578" lon="10.8792592"><ele>96.0</ele><time>2026-05-01T13:40:27.656Z</time></trkpt><trkpt lat="43.3288607" lon="10.8793708"><ele>96.0</ele><time>2026-05-01T13:40:28.649Z</time></trkpt><trkpt lat="43.328829" lon="10.8795029"><ele>95.75</ele><time>2026-05-01T13:40:29.654Z</time></trkpt><trkpt lat="43.328784" lon="10.8796557"><ele>95.5</ele><time>2026-05-01T13:40:30.662Z</time></trkpt><trkpt lat="43.3287211" lon="10.8798233"><ele>95.25</ele><time>2026-05-01T13:40:31.661Z</time></trkpt><trkpt lat="43.3286384" lon="10.8799865"><ele>95.0</ele><time>2026-05-01T13:40:32.654Z</time></trkpt><trkpt lat="43.3285493" lon="10.8801375"><ele>94.25</ele><time>2026-05-01T13:40:33.666Z</time></trkpt><trkpt lat="43.3284516" lon="10.8802733"><ele>93.5</ele><time>2026-05-01T13:40:34.661Z</time></trkpt><trkpt lat="43.328345" lon="10.8804"><ele>92.75</ele><time>2026-05-01T13:40:35.669Z</time></trkpt><trkpt lat="43.3282282" lon="10.8805197"><ele>92.0</ele><time>2026-05-01T13:40:36.666Z</time></trkpt><trkpt lat="43.3281065" lon="10.8806391"><ele>92.0</ele><time>2026-05-01T13:40:37.691Z</time></trkpt><trkpt lat="43.3279814" lon="10.8807544"><ele>92.0</ele><time>2026-05-01T13:40:38.66Z</time></trkpt><trkpt lat="43.3278503" lon="10.8808736"><ele>92.0</ele><time>2026-05-01T13:40:39.674Z</time></trkpt><trkpt lat="43.3277145" lon="10.8810059"><ele>91.33333333333334</ele><time>2026-05-01T13:40:40.665Z</time></trkpt><trkpt lat="43.3275774" lon="10.8811365"><ele>90.66666666666667</ele><time>2026-05-01T13:40:41.666Z</time></trkpt><trkpt lat="43.3274392" lon="10.8812619"><ele>90.0</ele><time>2026-05-01T13:40:42.659Z</time></trkpt><trkpt lat="43.3273058" lon="10.8813939"><ele>92.0</ele><time>2026-05-01T13:40:43.652Z</time></trkpt><trkpt lat="43.3271705" lon="10.8815154"><ele>94.0</ele><time>2026-05-01T13:40:44.664Z</time></trkpt><trkpt lat="43.3270329" lon="10.8816402"><ele>96.0</ele><time>2026-05-01T13:40:45.661Z</time></trkpt><trkpt lat="43.326898" lon="10.8817647"><ele>95.25</ele><time>2026-05-01T13:40:46.666Z</time></trkpt><trkpt lat="43.3267759" lon="10.8818872"><ele>94.5</ele><time>2026-05-01T13:40:47.661Z</time></trkpt><trkpt lat="43.32667" lon="10.88202"><ele>93.75</ele><time>2026-05-01T13:40:48.653Z</time></trkpt><trkpt lat="43.3265849" lon="10.8821485"><ele>93.0</ele><time>2026-05-01T13:40:49.665Z</time></trkpt><trkpt lat="43.3265101" lon="10.8822747"><ele>93.0</ele><time>2026-05-01T13:40:50.677Z</time></trkpt><trkpt lat="43.3264465" lon="10.8823971"><ele>93.0</ele><time>2026-05-01T13:40:51.656Z</time></trkpt><trkpt lat="43.3263914" lon="10.8825268"><ele>93.0</ele><time>2026-05-01T13:40:52.66Z</time></trkpt><trkpt lat="43.3263477" lon="10.8826733"><ele>93.0</ele><time>2026-05-01T13:40:53.668Z</time></trkpt><trkpt lat="43.3263312" lon="10.8828323"><ele>93.25</ele><time>2026-05-01T13:40:54.655Z</time></trkpt><trkpt lat="43.326332" lon="10.8829993"><ele>93.5</ele><time>2026-05-01T13:40:55.655Z</time></trkpt><trkpt lat="43.3263488" lon="10.8831573"><ele>93.75</ele><time>2026-05-01T13:40:56.656Z</time></trkpt><trkpt lat="43.3263784" lon="10.8833197"><ele>94.0</ele><time>2026-05-01T13:40:57.666Z</time></trkpt><trkpt lat="43.3264158" lon="10.8834918"><ele>93.25</ele><time>2026-05-01T13:40:58.665Z</time></trkpt><trkpt lat="43.3264561" lon="10.8836719"><ele>92.5</ele><time>2026-05-01T13:40:59.659Z</time></trkpt><trkpt lat="43.3264989" lon="10.8838467"><ele>91.75</ele><time>2026-05-01T13:41:00.668Z</time></trkpt><trkpt lat="43.3265453" lon="10.8840282"><ele>91.0</ele><time>2026-05-01T13:41:01.663Z</time></trkpt><trkpt lat="43.3265918" lon="10.8842117"><ele>91.25</ele><time>2026-05-01T13:41:02.669Z</time></trkpt><trkpt lat="43.3266371" lon="10.8843905"><ele>91.5</ele><time>2026-05-01T13:41:03.662Z</time></trkpt><trkpt lat="43.3266807" lon="10.8845796"><ele>91.75</ele><time>2026-05-01T13:41:04.67Z</time></trkpt><trkpt lat="43.3267267" lon="10.8847718"><ele>92.0</ele><time>2026-05-01T13:41:05.667Z</time></trkpt><trkpt lat="43.3267697" lon="10.8849541"><ele>92.0</ele><time>2026-05-01T13:41:06.675Z</time></trkpt><trkpt lat="43.3268161" lon="10.885135"><ele>92.0</ele><time>2026-05-01T13:41:07.67Z</time></trkpt><trkpt lat="43.3268604" lon="10.8853171"><ele>92.0</ele><time>2026-05-01T13:41:08.658Z</time></trkpt><trkpt lat="43.3269111" lon="10.8855046"><ele>92.0</ele><time>2026-05-01T13:41:09.662Z</time></trkpt><trkpt lat="43.3269679" lon="10.885692"><ele>92.0</ele><time>2026-05-01T13:41:10.667Z</time></trkpt><trkpt lat="43.3270317" lon="10.8858884"><ele>92.0</ele><time>2026-05-01T13:41:11.659Z</time></trkpt><trkpt lat="43.3270887" lon="10.8860856"><ele>92.0</ele><time>2026-05-01T13:41:12.667Z</time></trkpt><trkpt lat="43.3271406" lon="10.886278"><ele>92.19999999999999</ele><time>2026-05-01T13:41:13.663Z</time></trkpt><trkpt lat="43.3271828" lon="10.886451"><ele>92.4</ele><time>2026-05-01T13:41:14.667Z</time></trkpt><trkpt lat="43.3272158" lon="10.8865966"><ele>92.6</ele><time>2026-05-01T13:41:15.666Z</time></trkpt><trkpt lat="43.3272403" lon="10.8867167"><ele>92.80000000000001</ele><time>2026-05-01T13:41:16.661Z</time></trkpt><trkpt lat="43.3272647" lon="10.886832"><ele>93.0</ele><time>2026-05-01T13:41:17.657Z</time></trkpt><trkpt lat="43.3272876" lon="10.8869349"><ele>93.2</ele><time>2026-05-01T13:41:18.673Z</time></trkpt><trkpt lat="43.3273087" lon="10.8870172"><ele>93.4</ele><time>2026-05-01T13:41:19.655Z</time></trkpt><trkpt lat="43.3273403" lon="10.8871569"><ele>93.60000000000001</ele><time>2026-05-01T13:41:21.659Z</time></trkpt><trkpt lat="43.3273667" lon="10.8872921"><ele>93.80000000000001</ele><time>2026-05-01T13:41:23.686Z</time></trkpt><trkpt lat="43.3273868" lon="10.8874497"><ele>94.0</ele><time>2026-05-01T13:41:25.664Z</time></trkpt><trkpt lat="43.3273993" lon="10.8875564"><ele>93.85714285714286</ele><time>2026-05-01T13:41:26.652Z</time></trkpt><trkpt lat="43.3274114" lon="10.8876694"><ele>93.71428571428571</ele><time>2026-05-01T13:41:27.652Z</time></trkpt><trkpt lat="43.3274271" lon="10.8877663"><ele>93.57142857142858</ele><time>2026-05-01T13:41:28.678Z</time></trkpt><trkpt lat="43.3274504" lon="10.8878619"><ele>93.42857142857143</ele><time>2026-05-01T13:41:29.671Z</time></trkpt><trkpt lat="43.3274756" lon="10.8879626"><ele>93.28571428571429</ele><time>2026-05-01T13:41:30.654Z</time></trkpt><trkpt lat="43.3274956" lon="10.8880611"><ele>93.14285714285715</ele><time>2026-05-01T13:41:31.668Z</time></trkpt><trkpt lat="43.3275043" lon="10.8881494"><ele>93.0</ele><time>2026-05-01T13:41:32.662Z</time></trkpt><trkpt lat="43.3274908" lon="10.888312"><ele>92.60000000000001</ele><time>2026-05-01T13:41:34.672Z</time></trkpt><trkpt lat="43.3274505" lon="10.8884889"><ele>92.2</ele><time>2026-05-01T13:41:36.66Z</time></trkpt><trkpt lat="43.3274331" lon="10.8886095"><ele>91.8</ele><time>2026-05-01T13:41:37.658Z</time></trkpt><trkpt lat="43.3274092" lon="10.8887396"><ele>91.4</ele><time>2026-05-01T13:41:38.662Z</time></trkpt><trkpt lat="43.3273747" lon="10.8888771"><ele>91.0</ele><time>2026-05-01T13:41:39.658Z</time></trkpt><trkpt lat="43.3273273" lon="10.8890247"><ele>91.0</ele><time>2026-05-01T13:41:40.669Z</time></trkpt><trkpt lat="43.3272735" lon="10.8891757"><ele>91.0</ele><time>2026-05-01T13:41:41.668Z</time></trkpt><trkpt lat="43.3272183" lon="10.8893058"><ele>91.0</ele><time>2026-05-01T13:41:42.658Z</time></trkpt><trkpt lat="43.3271742" lon="10.8894287"><ele>91.0</ele><time>2026-05-01T13:41:43.666Z</time></trkpt><trkpt lat="43.3271186" lon="10.8895257"><ele>91.0</ele><time>2026-05-01T13:41:44.66Z</time></trkpt><trkpt lat="43.327055" lon="10.8896047"><ele>91.16666666666666</ele><time>2026-05-01T13:41:45.663Z</time></trkpt><trkpt lat="43.3269911" lon="10.8896837"><ele>91.33333333333333</ele><time>2026-05-01T13:41:46.667Z</time></trkpt><trkpt lat="43.326924" lon="10.8897621"><ele>91.5</ele><time>2026-05-01T13:41:47.667Z</time></trkpt><trkpt lat="43.3268659" lon="10.8898427"><ele>91.66666666666667</ele><time>2026-05-01T13:41:48.649Z</time></trkpt><trkpt lat="43.3268242" lon="10.8899284"><ele>91.83333333333334</ele><time>2026-05-01T13:41:49.655Z</time></trkpt><trkpt lat="43.3267923" lon="10.8900305"><ele>92.0</ele><time>2026-05-01T13:41:50.661Z</time></trkpt><trkpt lat="43.326767" lon="10.8901311"><ele>92.39999999999999</ele><time>2026-05-01T13:41:51.654Z</time></trkpt><trkpt lat="43.326758" lon="10.8902225"><ele>92.8</ele><time>2026-05-01T13:41:52.685Z</time></trkpt><trkpt lat="43.3267785" lon="10.8903713"><ele>93.2</ele><time>2026-05-01T13:41:54.661Z</time></trkpt><trkpt lat="43.3268125" lon="10.8905121"><ele>93.6</ele><time>2026-05-01T13:41:56.652Z</time></trkpt><trkpt lat="43.3268386" lon="10.890648"><ele>94.0</ele><time>2026-05-01T13:41:58.658Z</time></trkpt><trkpt lat="43.3268548" lon="10.8907397"><ele>94.0</ele><time>2026-05-01T13:42:00.666Z</time></trkpt><trkpt lat="43.3268786" lon="10.8908268"><ele>94.0</ele><time>2026-05-01T13:42:04.673Z</time></trkpt><trkpt lat="43.3268898" lon="10.890917"><ele>94.0</ele><time>2026-05-01T13:42:55.66Z</time></trkpt><trkpt lat="43.3269069" lon="10.8910364"><ele>94.0</ele><time>2026-05-01T13:42:57.677Z</time></trkpt><trkpt lat="43.3269107" lon="10.8911302"><ele>94.0</ele><time>2026-05-01T13:42:59.661Z</time></trkpt><trkpt lat="43.3268948" lon="10.891221"><ele>94.0</ele><time>2026-05-01T13:43:01.663Z</time></trkpt><trkpt lat="43.3268368" lon="10.8913145"><ele>94.0</ele><time>2026-05-01T13:43:04.664Z</time></trkpt><trkpt lat="43.3267726" lon="10.8913678"><ele>94.0</ele><time>2026-05-01T13:43:07.668Z</time></trkpt><trkpt lat="43.3267087" lon="10.8913507"><ele>94.0</ele><time>2026-05-01T13:43:23.656Z</time></trkpt><trkpt lat="43.3266738" lon="10.8912671"><ele>94.0</ele><time>2026-05-01T13:46:40.675Z</time></trkpt><trkpt lat="43.3265942" lon="10.8912873"><ele>94.0</ele><time>2026-05-01T13:47:47.659Z</time></trkpt><trkpt lat="43.3265099" lon="10.8913077"><ele>94.0</ele><time>2026-05-01T13:47:50.672Z</time></trkpt><trkpt lat="43.3264322" lon="10.8913317"><ele>94.0</ele><time>2026-05-01T13:47:52.672Z</time></trkpt><trkpt lat="43.3263615" lon="10.8913568"><ele>94.0</ele><time>2026-05-01T13:47:54.681Z</time></trkpt><trkpt lat="43.3262836" lon="10.8913886"><ele>94.0</ele><time>2026-05-01T13:47:56.673Z</time></trkpt><trkpt lat="43.3261958" lon="10.8914223"><ele>94.0</ele><time>2026-05-01T13:47:58.661Z</time></trkpt><trkpt lat="43.3261252" lon="10.8914705"><ele>94.0</ele><time>2026-05-01T13:48:00.654Z</time></trkpt><trkpt lat="43.3260771" lon="10.8915451"><ele>94.0</ele><time>2026-05-01T13:48:02.664Z</time></trkpt><trkpt lat="43.3260615" lon="10.8916301"><ele>94.0</ele><time>2026-05-01T13:48:05.658Z</time></trkpt><trkpt lat="43.3261086" lon="10.8917365"><ele>94.0</ele><time>2026-05-01T13:48:42.667Z</time></trkpt><trkpt lat="43.3261659" lon="10.891785"><ele>94.0</ele><time>2026-05-01T13:48:44.683Z</time></trkpt><trkpt lat="43.3262522" lon="10.8917742"><ele>94.0</ele><time>2026-05-01T13:48:46.667Z</time></trkpt><trkpt lat="43.3263388" lon="10.8917615"><ele>94.0</ele><time>2026-05-01T13:48:48.655Z</time></trkpt><trkpt lat="43.3264038" lon="10.8918507"><ele>94.0</ele><time>2026-05-01T13:48:50.669Z</time></trkpt><trkpt lat="43.3264449" lon="10.8919302"><ele>94.0</ele><time>2026-05-01T13:48:51.658Z</time></trkpt><trkpt lat="43.3265453" lon="10.8920369"><ele>94.0</ele><time>2026-05-01T13:48:53.662Z</time></trkpt><trkpt lat="43.3266051" lon="10.8920699"><ele>94.0</ele><time>2026-05-01T13:48:54.668Z</time></trkpt><trkpt lat="43.3267153" lon="10.8921131"><ele>94.0</ele><time>2026-05-01T13:48:56.662Z</time></trkpt><trkpt lat="43.3268084" lon="10.8921207"><ele>94.0</ele><time>2026-05-01T13:48:58.667Z</time></trkpt><trkpt lat="43.3268842" lon="10.8921005"><ele>94.0</ele><time>2026-05-01T13:49:00.663Z</time></trkpt><trkpt lat="43.3269358" lon="10.8920503"><ele>94.0</ele><time>2026-05-01T13:49:01.666Z</time></trkpt><trkpt lat="43.3269886" lon="10.891997"><ele>94.0</ele><time>2026-05-01T13:49:02.669Z</time></trkpt><trkpt lat="43.327054" lon="10.8919593"><ele>94.0</ele><time>2026-05-01T13:49:03.672Z</time></trkpt><trkpt lat="43.3271285" lon="10.8919412"><ele>94.0</ele><time>2026-05-01T13:49:04.663Z</time></trkpt><trkpt lat="43.3272007" lon="10.8919267"><ele>94.0</ele><time>2026-05-01T13:49:05.686Z</time></trkpt><trkpt lat="43.3272807" lon="10.8919086"><ele>94.0</ele><time>2026-05-01T13:49:06.681Z</time></trkpt><trkpt lat="43.3273576" lon="10.8918768"><ele>94.0</ele><time>2026-05-01T13:49:07.67Z</time></trkpt><trkpt lat="43.3274366" lon="10.8918302"><ele>93.83333333333333</ele><time>2026-05-01T13:49:08.663Z</time></trkpt><trkpt lat="43.3275311" lon="10.8917796"><ele>93.66666666666666</ele><time>2026-05-01T13:49:09.683Z</time></trkpt><trkpt lat="43.3276181" lon="10.8917532"><ele>93.5</ele><time>2026-05-01T13:49:10.679Z</time></trkpt><trkpt lat="43.3276888" lon="10.8917412"><ele>93.33333333333333</ele><time>2026-05-01T13:49:11.667Z</time></trkpt><trkpt lat="43.32777" lon="10.8917422"><ele>93.16666666666667</ele><time>2026-05-01T13:49:12.667Z</time></trkpt><trkpt lat="43.3278635" lon="10.8917751"><ele>93.0</ele><time>2026-05-01T13:49:13.658Z</time></trkpt><trkpt lat="43.3279692" lon="10.891846"><ele>93.0</ele><time>2026-05-01T13:49:14.672Z</time></trkpt><trkpt lat="43.3280728" lon="10.89191"><ele>93.0</ele><time>2026-05-01T13:49:15.672Z</time></trkpt><trkpt lat="43.3281383" lon="10.8919758"><ele>93.0</ele><time>2026-05-01T13:49:16.662Z</time></trkpt><trkpt lat="43.3281865" lon="10.8920547"><ele>93.0</ele><time>2026-05-01T13:49:17.68Z</time></trkpt><trkpt lat="43.3282082" lon="10.892141"><ele>93.0</ele><time>2026-05-01T13:49:18.671Z</time></trkpt><trkpt lat="43.3282138" lon="10.8922502"><ele>93.0</ele><time>2026-05-01T13:49:19.67Z</time></trkpt><trkpt lat="43.3282022" lon="10.8923722"><ele>93.0</ele><time>2026-05-01T13:49:20.665Z</time></trkpt><trkpt lat="43.3281937" lon="10.8925092"><ele>93.0</ele><time>2026-05-01T13:49:21.665Z</time></trkpt><trkpt lat="43.3282046" lon="10.892655"><ele>93.0</ele><time>2026-05-01T13:49:22.666Z</time></trkpt><trkpt lat="43.3282138" lon="10.8928053"><ele>93.0</ele><time>2026-05-01T13:49:23.671Z</time></trkpt><trkpt lat="43.3282201" lon="10.8929189"><ele>93.0</ele><time>2026-05-01T13:49:24.667Z</time></trkpt><trkpt lat="43.3282323" lon="10.8930179"><ele>93.16666666666667</ele><time>2026-05-01T13:49:25.656Z</time></trkpt><trkpt lat="43.328245" lon="10.8931203"><ele>93.33333333333333</ele><time>2026-05-01T13:49:26.655Z</time></trkpt><trkpt lat="43.3282592" lon="10.8932219"><ele>93.5</ele><time>2026-05-01T13:49:27.668Z</time></trkpt><trkpt lat="43.3282855" lon="10.8933131"><ele>93.66666666666666</ele><time>2026-05-01T13:49:28.66Z</time></trkpt><trkpt lat="43.3283258" lon="10.8934172"><ele>93.83333333333333</ele><time>2026-05-01T13:49:29.653Z</time></trkpt><trkpt lat="43.3283613" lon="10.893534"><ele>94.0</ele><time>2026-05-01T13:49:30.667Z</time></trkpt><trkpt lat="43.3283888" lon="10.893657"><ele>94.2</ele><time>2026-05-01T13:49:31.666Z</time></trkpt><trkpt lat="43.3284056" lon="10.8937824"><ele>94.4</ele><time>2026-05-01T13:49:32.657Z</time></trkpt><trkpt lat="43.3284185" lon="10.8939212"><ele>94.6</ele><time>2026-05-01T13:49:33.658Z</time></trkpt><trkpt lat="43.3284395" lon="10.8940731"><ele>94.8</ele><time>2026-05-01T13:49:34.655Z</time></trkpt><trkpt lat="43.3284622" lon="10.8942246"><ele>95.0</ele><time>2026-05-01T13:49:35.666Z</time></trkpt><trkpt lat="43.3284821" lon="10.8943892"><ele>95.16666666666667</ele><time>2026-05-01T13:49:36.653Z</time></trkpt><trkpt lat="43.3284936" lon="10.8945452"><ele>95.33333333333334</ele><time>2026-05-01T13:49:37.658Z</time></trkpt><trkpt lat="43.3284949" lon="10.89467"><ele>95.5</ele><time>2026-05-01T13:49:38.656Z</time></trkpt><trkpt lat="43.3284961" lon="10.8947683"><ele>95.66666666666667</ele><time>2026-05-01T13:49:39.661Z</time></trkpt><trkpt lat="43.3284972" lon="10.8948584"><ele>95.83333333333333</ele><time>2026-05-01T13:49:40.67Z</time></trkpt><trkpt lat="43.3284921" lon="10.8949937"><ele>96.0</ele><time>2026-05-01T13:49:41.667Z</time></trkpt><trkpt lat="43.3284902" lon="10.8951582"><ele>96.25</ele><time>2026-05-01T13:49:42.665Z</time></trkpt><trkpt lat="43.3284804" lon="10.8953354"><ele>96.5</ele><time>2026-05-01T13:49:43.673Z</time></trkpt><trkpt lat="43.3284636" lon="10.8955176"><ele>96.75</ele><time>2026-05-01T13:49:44.655Z</time></trkpt><trkpt lat="43.3284258" lon="10.895696"><ele>97.0</ele><time>2026-05-01T13:49:45.661Z</time></trkpt><trkpt lat="43.3283666" lon="10.895886"><ele>97.0</ele><time>2026-05-01T13:49:46.667Z</time></trkpt><trkpt lat="43.3283068" lon="10.896079"><ele>97.0</ele><time>2026-05-01T13:49:47.667Z</time></trkpt><trkpt lat="43.3282576" lon="10.8962521"><ele>97.0</ele><time>2026-05-01T13:49:48.665Z</time></trkpt><trkpt lat="43.3282" lon="10.8964233"><ele>97.0</ele><time>2026-05-01T13:49:49.668Z</time></trkpt><trkpt lat="43.3281436" lon="10.8965967"><ele>97.0</ele><time>2026-05-01T13:49:50.666Z</time></trkpt><trkpt lat="43.3280912" lon="10.8967424"><ele>97.0</ele><time>2026-05-01T13:49:51.66Z</time></trkpt><trkpt lat="43.3280392" lon="10.8968648"><ele>97.0</ele><time>2026-05-01T13:49:52.674Z</time></trkpt><trkpt lat="43.3279853" lon="10.8969977"><ele>97.0</ele><time>2026-05-01T13:49:53.659Z</time></trkpt><trkpt lat="43.3279374" lon="10.8971404"><ele>97.0</ele><time>2026-05-01T13:49:54.663Z</time></trkpt><trkpt lat="43.3278916" lon="10.897291"><ele>97.0</ele><time>2026-05-01T13:49:55.671Z</time></trkpt><trkpt lat="43.3278493" lon="10.8974392"><ele>97.0</ele><time>2026-05-01T13:49:56.669Z</time></trkpt><trkpt lat="43.3278046" lon="10.8975796"><ele>97.0</ele><time>2026-05-01T13:49:57.673Z</time></trkpt><trkpt lat="43.3277605" lon="10.8977104"><ele>97.0</ele><time>2026-05-01T13:49:58.67Z</time></trkpt><trkpt lat="43.3277147" lon="10.8978284"><ele>97.0</ele><time>2026-05-01T13:49:59.671Z</time></trkpt><trkpt lat="43.3276672" lon="10.8979581"><ele>97.5</ele><time>2026-05-01T13:50:00.663Z</time></trkpt><trkpt lat="43.3276141" lon="10.8981013"><ele>98.0</ele><time>2026-05-01T13:50:01.663Z</time></trkpt><trkpt lat="43.3275597" lon="10.8982554"><ele>98.5</ele><time>2026-05-01T13:50:02.679Z</time></trkpt><trkpt lat="43.3275134" lon="10.8984165"><ele>99.0</ele><time>2026-05-01T13:50:03.654Z</time></trkpt><trkpt lat="43.3274721" lon="10.8985894"><ele>99.0</ele><time>2026-05-01T13:50:04.66Z</time></trkpt><trkpt lat="43.3274443" lon="10.8987449"><ele>99.0</ele><time>2026-05-01T13:50:05.676Z</time></trkpt><trkpt lat="43.3274195" lon="10.8988852"><ele>99.0</ele><time>2026-05-01T13:50:06.667Z</time></trkpt><trkpt lat="43.3273967" lon="10.8990314"><ele>99.0</ele><time>2026-05-01T13:50:07.673Z</time></trkpt><trkpt lat="43.3273744" lon="10.8991798"><ele>99.0</ele><time>2026-05-01T13:50:08.671Z</time></trkpt><trkpt lat="43.3273653" lon="10.8993426"><ele>99.25</ele><time>2026-05-01T13:50:09.673Z</time></trkpt><trkpt lat="43.3273613" lon="10.8995049"><ele>99.5</ele><time>2026-05-01T13:50:10.656Z</time></trkpt><trkpt lat="43.3273579" lon="10.8996964"><ele>99.75</ele><time>2026-05-01T13:50:11.662Z</time></trkpt><trkpt lat="43.3273467" lon="10.8998732"><ele>100.0</ele><time>2026-05-01T13:50:12.656Z</time></trkpt><trkpt lat="43.327338" lon="10.9000245"><ele>100.4</ele><time>2026-05-01T13:50:13.665Z</time></trkpt><trkpt lat="43.3273336" lon="10.9001642"><ele>100.8</ele><time>2026-05-01T13:50:14.658Z</time></trkpt><trkpt lat="43.3273255" lon="10.9002874"><ele>101.19999999999999</ele><time>2026-05-01T13:50:15.655Z</time></trkpt><trkpt lat="43.327327" lon="10.9004166"><ele>101.6</ele><time>2026-05-01T13:50:16.656Z</time></trkpt><trkpt lat="43.3273325" lon="10.9005562"><ele>102.0</ele><time>2026-05-01T13:50:17.664Z</time></trkpt><trkpt lat="43.3273295" lon="10.9006927"><ele>102.0</ele><time>2026-05-01T13:50:18.656Z</time></trkpt><trkpt lat="43.3273245" lon="10.9008486"><ele>102.0</ele><time>2026-05-01T13:50:19.658Z</time></trkpt><trkpt lat="43.3273227" lon="10.9010194"><ele>102.0</ele><time>2026-05-01T13:50:20.667Z</time></trkpt><trkpt lat="43.327321" lon="10.9011842"><ele>102.0</ele><time>2026-05-01T13:50:21.666Z</time></trkpt><trkpt lat="43.3273222" lon="10.9013523"><ele>102.25</ele><time>2026-05-01T13:50:22.664Z</time></trkpt><trkpt lat="43.3273236" lon="10.9015282"><ele>102.5</ele><time>2026-05-01T13:50:23.653Z</time></trkpt><trkpt lat="43.3273214" lon="10.9016927"><ele>102.75</ele><time>2026-05-01T13:50:24.66Z</time></trkpt><trkpt lat="43.3273035" lon="10.9018466"><ele>103.0</ele><time>2026-05-01T13:50:25.66Z</time></trkpt><trkpt lat="43.3272825" lon="10.901982"><ele>103.28571428571428</ele><time>2026-05-01T13:50:26.668Z</time></trkpt><trkpt lat="43.3272627" lon="10.9020942"><ele>103.57142857142857</ele><time>2026-05-01T13:50:27.655Z</time></trkpt><trkpt lat="43.3272453" lon="10.9021933"><ele>103.85714285714286</ele><time>2026-05-01T13:50:28.668Z</time></trkpt><trkpt lat="43.3272373" lon="10.9022867"><ele>104.14285714285714</ele><time>2026-05-01T13:50:29.67Z</time></trkpt><trkpt lat="43.327225" lon="10.9023788"><ele>104.42857142857143</ele><time>2026-05-01T13:50:30.66Z</time></trkpt><trkpt lat="43.3272059" lon="10.9024725"><ele>104.71428571428571</ele><time>2026-05-01T13:50:31.674Z</time></trkpt><trkpt lat="43.3271891" lon="10.9025787"><ele>105.0</ele><time>2026-05-01T13:50:32.662Z</time></trkpt><trkpt lat="43.3271602" lon="10.9026815"><ele>104.16666666666667</ele><time>2026-05-01T13:50:33.664Z</time></trkpt><trkpt lat="43.3271263" lon="10.902787"><ele>103.33333333333334</ele><time>2026-05-01T13:50:34.653Z</time></trkpt><trkpt lat="43.3270924" lon="10.9029046"><ele>102.5</ele><time>2026-05-01T13:50:35.667Z</time></trkpt><trkpt lat="43.3270667" lon="10.9030072"><ele>101.66666666666667</ele><time>2026-05-01T13:50:36.667Z</time></trkpt><trkpt lat="43.3270421" lon="10.9031264"><ele>100.83333333333334</ele><time>2026-05-01T13:50:38.661Z</time></trkpt><trkpt lat="43.3270087" lon="10.9032409"><ele>100.0</ele><time>2026-05-01T13:50:51.673Z</time></trkpt><trkpt lat="43.326975" lon="10.9033278"><ele>100.00000000000001</ele><time>2026-05-01T13:50:52.661Z</time></trkpt><trkpt lat="43.3269414" lon="10.9034087"><ele>100.0</ele><time>2026-05-01T13:50:53.666Z</time></trkpt><trkpt lat="43.326913" lon="10.9034972"><ele>100.0</ele><time>2026-05-01T13:50:54.68Z</time></trkpt><trkpt lat="43.3268807" lon="10.9035817"><ele>100.0</ele><time>2026-05-01T13:50:55.657Z</time></trkpt><trkpt lat="43.3268077" lon="10.9037085"><ele>100.00000000000001</ele><time>2026-05-01T13:50:57.665Z</time></trkpt><trkpt lat="43.3267175" lon="10.9037587"><ele>100.0</ele><time>2026-05-01T13:50:59.659Z</time></trkpt><trkpt lat="43.3266317" lon="10.9038123"><ele>100.0</ele><time>2026-05-01T13:51:01.654Z</time></trkpt><trkpt lat="43.3265905" lon="10.9039483"><ele>100.0</ele><time>2026-05-01T13:51:03.652Z</time></trkpt><trkpt lat="43.326569" lon="10.9040695"><ele>100.0</ele><time>2026-05-01T13:51:04.664Z</time></trkpt><trkpt lat="43.3265527" lon="10.9042219"><ele>100.0</ele><time>2026-05-01T13:51:05.662Z</time></trkpt><trkpt lat="43.3265376" lon="10.9043887"><ele>100.0</ele><time>2026-05-01T13:51:06.66Z</time></trkpt><trkpt lat="43.3265239" lon="10.9045334"><ele>100.0</ele><time>2026-05-01T13:51:07.664Z</time></trkpt><trkpt lat="43.3265213" lon="10.9046552"><ele>100.0</ele><time>2026-05-01T13:51:08.657Z</time></trkpt><trkpt lat="43.3265055" lon="10.9047672"><ele>100.0</ele><time>2026-05-01T13:51:10.662Z</time></trkpt><trkpt lat="43.3265121" lon="10.9048918"><ele>100.0</ele><time>2026-05-01T13:51:41.656Z</time></trkpt><trkpt lat="43.3265473" lon="10.9050513"><ele>100.0</ele><time>2026-05-01T13:51:43.668Z</time></trkpt><trkpt lat="43.3265683" lon="10.9051444"><ele>100.0</ele><time>2026-05-01T13:51:44.658Z</time></trkpt><trkpt lat="43.3265898" lon="10.9052456"><ele>100.0</ele><time>2026-05-01T13:51:45.676Z</time></trkpt><trkpt lat="43.3266213" lon="10.9053707"><ele>100.0</ele><time>2026-05-01T13:51:46.663Z</time></trkpt><trkpt lat="43.3266663" lon="10.9054941"><ele>100.0</ele><time>2026-05-01T13:51:47.675Z</time></trkpt><trkpt lat="43.3267164" lon="10.9056123"><ele>100.0</ele><time>2026-05-01T13:51:48.677Z</time></trkpt><trkpt lat="43.3267732" lon="10.9057322"><ele>100.0</ele><time>2026-05-01T13:51:49.662Z</time></trkpt><trkpt lat="43.326838" lon="10.905861"><ele>100.0</ele><time>2026-05-01T13:51:50.66Z</time></trkpt><trkpt lat="43.3269142" lon="10.9059755"><ele>100.0</ele><time>2026-05-01T13:51:51.666Z</time></trkpt><trkpt lat="43.3270066" lon="10.9060908"><ele>100.0</ele><time>2026-05-01T13:51:52.671Z</time></trkpt><trkpt lat="43.3271053" lon="10.9062033"><ele>100.5</ele><time>2026-05-01T13:51:53.667Z</time></trkpt><trkpt lat="43.3271957" lon="10.9062936"><ele>101.0</ele><time>2026-05-01T13:51:54.673Z</time></trkpt><trkpt lat="43.327286" lon="10.9063768"><ele>101.5</ele><time>2026-05-01T13:51:55.673Z</time></trkpt><trkpt lat="43.3273843" lon="10.9064635"><ele>102.0</ele><time>2026-05-01T13:51:56.657Z</time></trkpt><trkpt lat="43.3274831" lon="10.9065431"><ele>102.0</ele><time>2026-05-01T13:51:57.658Z</time></trkpt><trkpt lat="43.3275865" lon="10.906613"><ele>102.0</ele><time>2026-05-01T13:51:58.668Z</time></trkpt><trkpt lat="43.3276972" lon="10.9066871"><ele>102.0</ele><time>2026-05-01T13:51:59.671Z</time></trkpt><trkpt lat="43.3278126" lon="10.9067568"><ele>102.0</ele><time>2026-05-01T13:52:00.659Z</time></trkpt><trkpt lat="43.3279251" lon="10.9068303"><ele>102.0</ele><time>2026-05-01T13:52:01.661Z</time></trkpt><trkpt lat="43.3280344" lon="10.9068963"><ele>102.0</ele><time>2026-05-01T13:52:02.661Z</time></trkpt><trkpt lat="43.32814" lon="10.9069669"><ele>102.0</ele><time>2026-05-01T13:52:03.666Z</time></trkpt><trkpt lat="43.328241" lon="10.9070425"><ele>102.0</ele><time>2026-05-01T13:52:04.67Z</time></trkpt><trkpt lat="43.3283429" lon="10.9071139"><ele>102.25</ele><time>2026-05-01T13:52:05.681Z</time></trkpt><trkpt lat="43.3284493" lon="10.9071927"><ele>102.5</ele><time>2026-05-01T13:52:06.666Z</time></trkpt><trkpt lat="43.328553" lon="10.907274"><ele>102.75</ele><time>2026-05-01T13:52:07.66Z</time></trkpt><trkpt lat="43.3286631" lon="10.9073619"><ele>103.0</ele><time>2026-05-01T13:52:08.67Z</time></trkpt><trkpt lat="43.3287658" lon="10.9074387"><ele>103.0</ele><time>2026-05-01T13:52:09.667Z</time></trkpt><trkpt lat="43.3288422" lon="10.9075109"><ele>103.0</ele><time>2026-05-01T13:52:10.676Z</time></trkpt><trkpt lat="43.328897" lon="10.9075764"><ele>103.0</ele><time>2026-05-01T13:52:11.669Z</time></trkpt><trkpt lat="43.3289863" lon="10.9076667"><ele>103.0</ele><time>2026-05-01T13:52:13.661Z</time></trkpt><trkpt lat="43.3290537" lon="10.9077175"><ele>103.0</ele><time>2026-05-01T13:52:15.66Z</time></trkpt><trkpt lat="43.3291368" lon="10.9078016"><ele>103.16666666666667</ele><time>2026-05-01T13:52:17.659Z</time></trkpt><trkpt lat="43.3292394" lon="10.9079174"><ele>103.33333333333334</ele><time>2026-05-01T13:52:19.653Z</time></trkpt><trkpt lat="43.3293018" lon="10.9079807"><ele>103.5</ele><time>2026-05-01T13:52:20.666Z</time></trkpt><trkpt lat="43.3293701" lon="10.9080415"><ele>103.66666666666666</ele><time>2026-05-01T13:52:21.664Z</time></trkpt><trkpt lat="43.3294253" lon="10.9080937"><ele>103.83333333333333</ele><time>2026-05-01T13:52:22.67Z</time></trkpt><trkpt lat="43.329497" lon="10.908167"><ele>104.0</ele><time>2026-05-01T13:52:24.66Z</time></trkpt><trkpt lat="43.3295552" lon="10.908218"><ele>104.0</ele><time>2026-05-01T13:52:54.661Z</time></trkpt><trkpt lat="43.3296392" lon="10.9083197"><ele>104.0</ele><time>2026-05-01T13:52:56.669Z</time></trkpt><trkpt lat="43.3297075" lon="10.908411"><ele>104.0</ele><time>2026-05-01T13:52:57.656Z</time></trkpt><trkpt lat="43.3297936" lon="10.9085382"><ele>104.0</ele><time>2026-05-01T13:52:58.671Z</time></trkpt><trkpt lat="43.3298907" lon="10.9086638"><ele>103.75</ele><time>2026-05-01T13:52:59.664Z</time></trkpt><trkpt lat="43.3299938" lon="10.9088097"><ele>103.5</ele><time>2026-05-01T13:53:00.67Z</time></trkpt><trkpt lat="43.3300925" lon="10.9089528"><ele>103.25</ele><time>2026-05-01T13:53:01.659Z</time></trkpt><trkpt lat="43.3301769" lon="10.9090985"><ele>103.0</ele><time>2026-05-01T13:53:02.667Z</time></trkpt><trkpt lat="43.330251" lon="10.9092349"><ele>103.25</ele><time>2026-05-01T13:53:03.668Z</time></trkpt><trkpt lat="43.3303329" lon="10.9093617"><ele>103.5</ele><time>2026-05-01T13:53:04.665Z</time></trkpt><trkpt lat="43.3304226" lon="10.9094877"><ele>103.75</ele><time>2026-05-01T13:53:05.672Z</time></trkpt><trkpt lat="43.3305038" lon="10.9096128"><ele>104.0</ele><time>2026-05-01T13:53:06.654Z</time></trkpt><trkpt lat="43.3305901" lon="10.9097303"><ele>104.0</ele><time>2026-05-01T13:53:07.683Z</time></trkpt><trkpt lat="43.3306806" lon="10.9098473"><ele>104.0</ele><time>2026-05-01T13:53:08.668Z</time></trkpt><trkpt lat="43.3307729" lon="10.9099632"><ele>104.0</ele><time>2026-05-01T13:53:09.664Z</time></trkpt><trkpt lat="43.3308669" lon="10.910074"><ele>104.0</ele><time>2026-05-01T13:53:10.68Z</time></trkpt><trkpt lat="43.330959" lon="10.9101989"><ele>104.66666666666666</ele><time>2026-05-01T13:53:11.677Z</time></trkpt><trkpt lat="43.3310653" lon="10.9103489"><ele>105.33333333333334</ele><time>2026-05-01T13:53:12.673Z</time></trkpt><trkpt lat="43.3311995" lon="10.910529"><ele>106.0</ele><time>2026-05-01T13:53:13.67Z</time></trkpt><trkpt lat="43.3313285" lon="10.9107163"><ele>105.66666666666667</ele><time>2026-05-01T13:53:14.661Z</time></trkpt><trkpt lat="43.3314456" lon="10.9108782"><ele>105.33333333333334</ele><time>2026-05-01T13:53:15.67Z</time></trkpt><trkpt lat="43.3315446" lon="10.9110204"><ele>105.0</ele><time>2026-05-01T13:53:16.675Z</time></trkpt><trkpt lat="43.331662" lon="10.9111717"><ele>105.75</ele><time>2026-05-01T13:53:17.663Z</time></trkpt><trkpt lat="43.33177" lon="10.9113177"><ele>106.5</ele><time>2026-05-01T13:53:18.66Z</time></trkpt><trkpt lat="43.3318675" lon="10.9114532"><ele>107.25</ele><time>2026-05-01T13:53:19.657Z</time></trkpt><trkpt lat="43.3319555" lon="10.911565"><ele>108.0</ele><time>2026-05-01T13:53:20.673Z</time></trkpt><trkpt lat="43.3320348" lon="10.9116683"><ele>108.0</ele><time>2026-05-01T13:53:21.663Z</time></trkpt><trkpt lat="43.3321021" lon="10.9117798"><ele>108.00000000000001</ele><time>2026-05-01T13:53:22.659Z</time></trkpt><trkpt lat="43.332166" lon="10.9118965"><ele>108.00000000000001</ele><time>2026-05-01T13:53:23.654Z</time></trkpt><trkpt lat="43.3322102" lon="10.9120283"><ele>108.0</ele><time>2026-05-01T13:53:24.666Z</time></trkpt><trkpt lat="43.3322469" lon="10.9121867"><ele>108.0</ele><time>2026-05-01T13:53:25.665Z</time></trkpt><trkpt lat="43.33228" lon="10.9123619"><ele>108.0</ele><time>2026-05-01T13:53:26.657Z</time></trkpt><trkpt lat="43.332301" lon="10.912561"><ele>108.0</ele><time>2026-05-01T13:53:27.662Z</time></trkpt><trkpt lat="43.3323199" lon="10.9127632"><ele>108.0</ele><time>2026-05-01T13:53:28.665Z</time></trkpt><trkpt lat="43.3323295" lon="10.9129389"><ele>108.0</ele><time>2026-05-01T13:53:29.658Z</time></trkpt><trkpt lat="43.332332" lon="10.9130868"><ele>108.0</ele><time>2026-05-01T13:53:30.668Z</time></trkpt><trkpt lat="43.3323283" lon="10.913223"><ele>108.0</ele><time>2026-05-01T13:53:31.666Z</time></trkpt><trkpt lat="43.3323227" lon="10.9133492"><ele>108.0</ele><time>2026-05-01T13:53:32.667Z</time></trkpt><trkpt lat="43.3323147" lon="10.9134646"><ele>108.0</ele><time>2026-05-01T13:53:33.663Z</time></trkpt><trkpt lat="43.3323062" lon="10.9135707"><ele>108.0</ele><time>2026-05-01T13:53:34.666Z</time></trkpt><trkpt lat="43.3322849" lon="10.9136638"><ele>108.0</ele><time>2026-05-01T13:53:35.667Z</time></trkpt><trkpt lat="43.3322509" lon="10.9137495"><ele>108.33333333333333</ele><time>2026-05-01T13:53:36.661Z</time></trkpt><trkpt lat="43.3322109" lon="10.9138399"><ele>108.66666666666666</ele><time>2026-05-01T13:53:37.665Z</time></trkpt><trkpt lat="43.3321736" lon="10.9139319"><ele>109.0</ele><time>2026-05-01T13:53:38.657Z</time></trkpt><trkpt lat="43.3321272" lon="10.9140127"><ele>109.33333333333333</ele><time>2026-05-01T13:53:39.673Z</time></trkpt><trkpt lat="43.3320735" lon="10.9140843"><ele>109.66666666666666</ele><time>2026-05-01T13:53:40.666Z</time></trkpt><trkpt lat="43.3320151" lon="10.9141521"><ele>110.0</ele><time>2026-05-01T13:53:41.667Z</time></trkpt><trkpt lat="43.331958" lon="10.9142127"><ele>110.0</ele><time>2026-05-01T13:53:42.657Z</time></trkpt><trkpt lat="43.3318825" lon="10.9143169"><ele>110.0</ele><time>2026-05-01T13:53:44.671Z</time></trkpt><trkpt lat="43.3318033" lon="10.9144077"><ele>110.0</ele><time>2026-05-01T13:53:46.66Z</time></trkpt><trkpt lat="43.3317073" lon="10.9144542"><ele>110.0</ele><time>2026-05-01T13:53:48.661Z</time></trkpt><trkpt lat="43.3316418" lon="10.91449"><ele>110.0</ele><time>2026-05-01T13:53:51.665Z</time></trkpt><trkpt lat="43.331616" lon="10.914632"><ele>110.0</ele><time>2026-05-01T13:54:34.666Z</time></trkpt><trkpt lat="43.331574" lon="10.9147634"><ele>110.0</ele><time>2026-05-01T13:54:36.65Z</time></trkpt><trkpt lat="43.3315461" lon="10.9148525"><ele>110.0</ele><time>2026-05-01T13:54:37.673Z</time></trkpt><trkpt lat="43.3315082" lon="10.9149642"><ele>110.0</ele><time>2026-05-01T13:54:38.657Z</time></trkpt><trkpt lat="43.331463" lon="10.9151078"><ele>110.0</ele><time>2026-05-01T13:54:40.659Z</time></trkpt><trkpt lat="43.3314282" lon="10.915215"><ele>111.2</ele><time>2026-05-01T13:54:43.661Z</time></trkpt><trkpt lat="43.3314569" lon="10.9152965"><ele>112.4</ele><time>2026-05-01T13:55:40.659Z</time></trkpt><trkpt lat="43.3315483" lon="10.9153577"><ele>113.6</ele><time>2026-05-01T13:55:42.662Z</time></trkpt><trkpt lat="43.3316536" lon="10.9153914"><ele>114.8</ele><time>2026-05-01T13:55:44.659Z</time></trkpt><trkpt lat="43.3317594" lon="10.9154888"><ele>116.0</ele><time>2026-05-01T13:55:46.654Z</time></trkpt><trkpt lat="43.331803" lon="10.9155715"><ele>115.99999999999999</ele><time>2026-05-01T13:55:47.666Z</time></trkpt><trkpt lat="43.3318495" lon="10.9156591"><ele>116.0</ele><time>2026-05-01T13:55:48.664Z</time></trkpt><trkpt lat="43.3318855" lon="10.9157491"><ele>116.0</ele><time>2026-05-01T13:55:49.663Z</time></trkpt><trkpt lat="43.3319061" lon="10.9158562"><ele>116.0</ele><time>2026-05-01T13:55:50.664Z</time></trkpt><trkpt lat="43.3319117" lon="10.9159577"><ele>115.99999999999999</ele><time>2026-05-01T13:55:51.685Z</time></trkpt><trkpt lat="43.3319076" lon="10.9160698"><ele>116.0</ele><time>2026-05-01T13:55:52.662Z</time></trkpt><trkpt lat="43.3319174" lon="10.9161761"><ele>116.83333333333333</ele><time>2026-05-01T13:55:53.676Z</time></trkpt><trkpt lat="43.3319293" lon="10.9162655"><ele>117.66666666666666</ele><time>2026-05-01T13:55:54.66Z</time></trkpt><trkpt lat="43.3319705" lon="10.9163366"><ele>118.5</ele><time>2026-05-01T13:55:56.669Z</time></trkpt><trkpt lat="43.3320837" lon="10.9162983"><ele>119.33333333333334</ele><time>2026-05-01T13:55:59.662Z</time></trkpt><trkpt lat="43.3321461" lon="10.916219"><ele>120.16666666666667</ele><time>2026-05-01T13:56:00.689Z</time></trkpt><trkpt lat="43.3322142" lon="10.9161418"><ele>121.0</ele><time>2026-05-01T13:56:01.666Z</time></trkpt><trkpt lat="43.3322772" lon="10.9160791"><ele>121.33333333333334</ele><time>2026-05-01T13:56:02.668Z</time></trkpt><trkpt lat="43.3323335" lon="10.9160115"><ele>121.66666666666667</ele><time>2026-05-01T13:56:03.66Z</time></trkpt><trkpt lat="43.3323842" lon="10.9159388"><ele>122.0</ele><time>2026-05-01T13:56:04.667Z</time></trkpt><trkpt lat="43.3324393" lon="10.9158645"><ele>122.33333333333334</ele><time>2026-05-01T13:56:05.668Z</time></trkpt><trkpt lat="43.3325046" lon="10.915802"><ele>122.66666666666667</ele><time>2026-05-01T13:56:06.667Z</time></trkpt><trkpt lat="43.3325695" lon="10.915752"><ele>123.0</ele><time>2026-05-01T13:56:07.659Z</time></trkpt><trkpt lat="43.3326488" lon="10.9156884"><ele>121.5</ele><time>2026-05-01T13:56:09.666Z</time></trkpt><trkpt lat="43.3327009" lon="10.9155694"><ele>120.0</ele><time>2026-05-01T13:57:40.662Z</time></trkpt><trkpt lat="43.3327284" lon="10.9154701"><ele>118.5</ele><time>2026-05-01T13:57:42.673Z</time></trkpt><trkpt lat="43.332754" lon="10.9153904"><ele>117.0</ele><time>2026-05-01T13:57:44.678Z</time></trkpt><trkpt lat="43.3328126" lon="10.9153479"><ele>115.5</ele><time>2026-05-01T13:57:55.666Z</time></trkpt><trkpt lat="43.3329198" lon="10.9153667"><ele>114.0</ele><time>2026-05-01T13:58:25.656Z</time></trkpt><trkpt lat="43.33305" lon="10.9153386"><ele>114.4</ele><time>2026-05-01T13:58:27.668Z</time></trkpt><trkpt lat="43.3331087" lon="10.9152915"><ele>114.80000000000001</ele><time>2026-05-01T13:58:28.658Z</time></trkpt><trkpt lat="43.333184" lon="10.9152289"><ele>115.19999999999999</ele><time>2026-05-01T13:58:29.663Z</time></trkpt><trkpt lat="43.3332655" lon="10.9151572"><ele>115.6</ele><time>2026-05-01T13:58:30.661Z</time></trkpt><trkpt lat="43.3333542" lon="10.9150653"><ele>116.0</ele><time>2026-05-01T13:58:31.663Z</time></trkpt><trkpt lat="43.3334488" lon="10.9149689"><ele>114.5</ele><time>2026-05-01T13:58:32.654Z</time></trkpt><trkpt lat="43.3335443" lon="10.9148792"><ele>113.0</ele><time>2026-05-01T13:58:33.658Z</time></trkpt><trkpt lat="43.3336359" lon="10.9147867"><ele>111.5</ele><time>2026-05-01T13:58:34.672Z</time></trkpt><trkpt lat="43.3337269" lon="10.9146952"><ele>110.0</ele><time>2026-05-01T13:58:35.673Z</time></trkpt><trkpt lat="43.333818" lon="10.9146065"><ele>110.6</ele><time>2026-05-01T13:58:36.657Z</time></trkpt><trkpt lat="43.333904" lon="10.914522"><ele>111.2</ele><time>2026-05-01T13:58:37.664Z</time></trkpt><trkpt lat="43.3339881" lon="10.9144369"><ele>111.80000000000001</ele><time>2026-05-01T13:58:38.664Z</time></trkpt><trkpt lat="43.3340765" lon="10.9143469"><ele>112.4</ele><time>2026-05-01T13:58:39.664Z</time></trkpt><trkpt lat="43.3341679" lon="10.9142652"><ele>113.0</ele><time>2026-05-01T13:58:40.666Z</time></trkpt><trkpt lat="43.3342605" lon="10.9141749"><ele>113.0</ele><time>2026-05-01T13:58:41.664Z</time></trkpt><trkpt lat="43.3343503" lon="10.9140765"><ele>113.0</ele><time>2026-05-01T13:58:42.655Z</time></trkpt><trkpt lat="43.3344337" lon="10.9139776"><ele>113.0</ele><time>2026-05-01T13:58:43.66Z</time></trkpt><trkpt lat="43.334509" lon="10.9138655"><ele>113.0</ele><time>2026-05-01T13:58:44.67Z</time></trkpt><trkpt lat="43.3345798" lon="10.9137333"><ele>113.0</ele><time>2026-05-01T13:58:45.664Z</time></trkpt><trkpt lat="43.334654" lon="10.9135668"><ele>113.0</ele><time>2026-05-01T13:58:46.673Z</time></trkpt><trkpt lat="43.3347355" lon="10.9133888"><ele>113.0</ele><time>2026-05-01T13:58:47.666Z</time></trkpt><trkpt lat="43.3348125" lon="10.9132165"><ele>113.0</ele><time>2026-05-01T13:58:48.657Z</time></trkpt><trkpt lat="43.3348699" lon="10.9130805"><ele>113.16666666666666</ele><time>2026-05-01T13:58:49.663Z</time></trkpt><trkpt lat="43.3349164" lon="10.9129545"><ele>113.33333333333333</ele><time>2026-05-01T13:58:50.663Z</time></trkpt><trkpt lat="43.3349628" lon="10.9128516"><ele>113.5</ele><time>2026-05-01T13:58:51.657Z</time></trkpt><trkpt lat="43.3350183" lon="10.9127716"><ele>113.66666666666666</ele><time>2026-05-01T13:58:52.657Z</time></trkpt><trkpt lat="43.3350903" lon="10.9127084"><ele>113.83333333333333</ele><time>2026-05-01T13:58:53.647Z</time></trkpt><trkpt lat="43.3351687" lon="10.9126859"><ele>114.0</ele><time>2026-05-01T13:58:54.66Z</time></trkpt><trkpt lat="43.3352496" lon="10.912676"><ele>114.0</ele><time>2026-05-01T13:58:55.646Z</time></trkpt><trkpt lat="43.3353317" lon="10.9126758"><ele>113.99999999999999</ele><time>2026-05-01T13:58:56.663Z</time></trkpt><trkpt lat="43.3354092" lon="10.9126396"><ele>114.0</ele><time>2026-05-01T13:58:57.658Z</time></trkpt><trkpt lat="43.3354752" lon="10.9125872"><ele>114.0</ele><time>2026-05-01T13:58:58.661Z</time></trkpt><trkpt lat="43.3355256" lon="10.9125328"><ele>113.99999999999999</ele><time>2026-05-01T13:58:59.661Z</time></trkpt><trkpt lat="43.3355616" lon="10.9124532"><ele>114.0</ele><time>2026-05-01T13:59:00.656Z</time></trkpt><trkpt lat="43.3355679" lon="10.9123536"><ele>114.0</ele><time>2026-05-01T13:59:01.664Z</time></trkpt><trkpt lat="43.3355498" lon="10.912268"><ele>115.25</ele><time>2026-05-01T13:59:02.671Z</time></trkpt><trkpt lat="43.3354549" lon="10.9121367"><ele>116.5</ele><time>2026-05-01T13:59:04.658Z</time></trkpt><trkpt lat="43.3353656" lon="10.9120852"><ele>117.75</ele><time>2026-05-01T13:59:05.667Z</time></trkpt><trkpt lat="43.3352664" lon="10.9120322"><ele>119.0</ele><time>2026-05-01T13:59:06.66Z</time></trkpt><trkpt lat="43.3351462" lon="10.9119842"><ele>119.0</ele><time>2026-05-01T13:59:07.652Z</time></trkpt><trkpt lat="43.3350087" lon="10.9119321"><ele>119.0</ele><time>2026-05-01T13:59:08.653Z</time></trkpt><trkpt lat="43.3348678" lon="10.9118729"><ele>119.0</ele><time>2026-05-01T13:59:09.663Z</time></trkpt><trkpt lat="43.3347445" lon="10.9118226"><ele>119.0</ele><time>2026-05-01T13:59:10.655Z</time></trkpt><trkpt lat="43.3346397" lon="10.9117721"><ele>119.49999999999999</ele><time>2026-05-01T13:59:11.659Z</time></trkpt><trkpt lat="43.3345473" lon="10.9117095"><ele>120.0</ele><time>2026-05-01T13:59:12.66Z</time></trkpt><trkpt lat="43.334471" lon="10.9116389"><ele>120.5</ele><time>2026-05-01T13:59:13.662Z</time></trkpt><trkpt lat="43.334418" lon="10.9115805"><ele>121.0</ele><time>2026-05-01T13:59:14.66Z</time></trkpt><trkpt lat="43.334363" lon="10.9114682"><ele>121.49999999999999</ele><time>2026-05-01T13:59:16.651Z</time></trkpt><trkpt lat="43.3343946" lon="10.9113909"><ele>122.0</ele><time>2026-05-01T13:59:18.656Z</time></trkpt><trkpt lat="43.3344747" lon="10.9113815"><ele>122.0</ele><time>2026-05-01T13:59:20.662Z</time></trkpt><trkpt lat="43.3345885" lon="10.9114773"><ele>121.99999999999999</ele><time>2026-05-01T13:59:22.668Z</time></trkpt><trkpt lat="43.33465" lon="10.9115494"><ele>121.99999999999999</ele><time>2026-05-01T13:59:23.655Z</time></trkpt><trkpt lat="43.3347435" lon="10.9115719"><ele>122.0</ele><time>2026-05-01T13:59:24.657Z</time></trkpt><trkpt lat="43.3348496" lon="10.9115786"><ele>122.0</ele><time>2026-05-01T13:59:25.662Z</time></trkpt><trkpt lat="43.3349501" lon="10.9115711"><ele>124.8</ele><time>2026-05-01T13:59:26.662Z</time></trkpt><trkpt lat="43.3350398" lon="10.9115644"><ele>127.6</ele><time>2026-05-01T13:59:27.661Z</time></trkpt><trkpt lat="43.3351236" lon="10.9115263"><ele>130.39999999999998</ele><time>2026-05-01T13:59:28.651Z</time></trkpt><trkpt lat="43.3352193" lon="10.911456"><ele>133.2</ele><time>2026-05-01T13:59:29.659Z</time></trkpt><trkpt lat="43.3353159" lon="10.9113759"><ele>136.0</ele><time>2026-05-01T13:59:30.664Z</time></trkpt><trkpt lat="43.335418" lon="10.9112901"><ele>136.0</ele><time>2026-05-01T13:59:31.659Z</time></trkpt><trkpt lat="43.335532" lon="10.9112062"><ele>136.0</ele><time>2026-05-01T13:59:32.655Z</time></trkpt><trkpt lat="43.3356538" lon="10.9111274"><ele>136.0</ele><time>2026-05-01T13:59:33.657Z</time></trkpt><trkpt lat="43.3357599" lon="10.9110636"><ele>136.0</ele><time>2026-05-01T13:59:34.654Z</time></trkpt><trkpt lat="43.3358384" lon="10.9110419"><ele>135.8</ele><time>2026-05-01T13:59:35.659Z</time></trkpt><trkpt lat="43.3359287" lon="10.9110367"><ele>135.6</ele><time>2026-05-01T13:59:36.664Z</time></trkpt><trkpt lat="43.3360253" lon="10.9110536"><ele>135.4</ele><time>2026-05-01T13:59:37.664Z</time></trkpt><trkpt lat="43.3361345" lon="10.9110512"><ele>135.2</ele><time>2026-05-01T13:59:38.651Z</time></trkpt><trkpt lat="43.3362436" lon="10.9110467"><ele>135.0</ele><time>2026-05-01T13:59:39.657Z</time></trkpt><trkpt lat="43.3363597" lon="10.9110368"><ele>135.83333333333334</ele><time>2026-05-01T13:59:40.659Z</time></trkpt><trkpt lat="43.3364707" lon="10.9110496"><ele>136.66666666666666</ele><time>2026-05-01T13:59:41.668Z</time></trkpt><trkpt lat="43.3365593" lon="10.9110881"><ele>137.5</ele><time>2026-05-01T13:59:42.653Z</time></trkpt><trkpt lat="43.3366348" lon="10.9111149"><ele>138.33333333333331</ele><time>2026-05-01T13:59:43.652Z</time></trkpt><trkpt lat="43.3367033" lon="10.9111196"><ele>139.16666666666666</ele><time>2026-05-01T13:59:44.658Z</time></trkpt><trkpt lat="43.3367704" lon="10.9110842"><ele>140.0</ele><time>2026-05-01T13:59:45.665Z</time></trkpt><trkpt lat="43.3368317" lon="10.9110301"><ele>140.0</ele><time>2026-05-01T13:59:46.681Z</time></trkpt><trkpt lat="43.3368852" lon="10.9109498"><ele>140.0</ele><time>2026-05-01T13:59:47.662Z</time></trkpt><trkpt lat="43.3369212" lon="10.9108578"><ele>140.0</ele><time>2026-05-01T13:59:48.663Z</time></trkpt><trkpt lat="43.3369288" lon="10.9107602"><ele>140.0</ele><time>2026-05-01T13:59:49.666Z</time></trkpt><trkpt lat="43.3369269" lon="10.910653"><ele>140.0</ele><time>2026-05-01T13:59:50.666Z</time></trkpt><trkpt lat="43.3369015" lon="10.9105483"><ele>140.0</ele><time>2026-05-01T13:59:51.667Z</time></trkpt><trkpt lat="43.3368657" lon="10.9104311"><ele>142.33333333333331</ele><time>2026-05-01T13:59:52.665Z</time></trkpt><trkpt lat="43.3368584" lon="10.9103142"><ele>144.66666666666666</ele><time>2026-05-01T13:59:53.667Z</time></trkpt><trkpt lat="43.3368778" lon="10.9102014"><ele>147.0</ele><time>2026-05-01T13:59:54.655Z</time></trkpt><trkpt lat="43.3368905" lon="10.9100869"><ele>149.33333333333334</ele><time>2026-05-01T13:59:55.658Z</time></trkpt><trkpt lat="43.3368888" lon="10.9099868"><ele>151.66666666666669</ele><time>2026-05-01T13:59:56.675Z</time></trkpt><trkpt lat="43.3368708" lon="10.9098739"><ele>154.0</ele><time>2026-05-01T13:59:57.668Z</time></trkpt><trkpt lat="43.3368425" lon="10.9097589"><ele>155.6</ele><time>2026-05-01T13:59:58.644Z</time></trkpt><trkpt lat="43.3368165" lon="10.909628"><ele>157.2</ele><time>2026-05-01T13:59:59.649Z</time></trkpt><trkpt lat="43.3368274" lon="10.9094947"><ele>158.79999999999998</ele><time>2026-05-01T14:00:00.659Z</time></trkpt><trkpt lat="43.3368719" lon="10.9093565"><ele>160.4</ele><time>2026-05-01T14:00:01.661Z</time></trkpt><trkpt lat="43.3369258" lon="10.9092139"><ele>162.0</ele><time>2026-05-01T14:00:02.654Z</time></trkpt><trkpt lat="43.3369924" lon="10.909052"><ele>161.2</ele><time>2026-05-01T14:00:03.666Z</time></trkpt><trkpt lat="43.33706" lon="10.9088938"><ele>160.39999999999998</ele><time>2026-05-01T14:00:04.671Z</time></trkpt><trkpt lat="43.3371272" lon="10.9087784"><ele>159.60000000000002</ele><time>2026-05-01T14:00:05.662Z</time></trkpt><trkpt lat="43.3372057" lon="10.9086896"><ele>158.8</ele><time>2026-05-01T14:00:06.669Z</time></trkpt><trkpt lat="43.3372845" lon="10.9086285"><ele>158.0</ele><time>2026-05-01T14:00:07.659Z</time></trkpt><trkpt lat="43.3373624" lon="10.9085846"><ele>158.0</ele><time>2026-05-01T14:00:08.66Z</time></trkpt><trkpt lat="43.3374371" lon="10.9085553"><ele>158.0</ele><time>2026-05-01T14:00:09.655Z</time></trkpt><trkpt lat="43.3375064" lon="10.9085452"><ele>158.0</ele><time>2026-05-01T14:00:10.662Z</time></trkpt><trkpt lat="43.3376207" lon="10.9085428"><ele>158.0</ele><time>2026-05-01T14:00:12.669Z</time></trkpt><trkpt lat="43.3376876" lon="10.9085463"><ele>158.0</ele><time>2026-05-01T14:00:13.673Z</time></trkpt><trkpt lat="43.3378023" lon="10.9085154"><ele>158.0</ele><time>2026-05-01T14:00:15.661Z</time></trkpt><trkpt lat="43.3378861" lon="10.9084113"><ele>161.2</ele><time>2026-05-01T14:00:17.666Z</time></trkpt><trkpt lat="43.337914" lon="10.9082409"><ele>164.4</ele><time>2026-05-01T14:00:19.66Z</time></trkpt><trkpt lat="43.3379226" lon="10.9081351"><ele>167.6</ele><time>2026-05-01T14:00:20.658Z</time></trkpt><trkpt lat="43.3379289" lon="10.9080141"><ele>170.79999999999998</ele><time>2026-05-01T14:00:21.664Z</time></trkpt><trkpt lat="43.3379277" lon="10.9079128"><ele>174.0</ele><time>2026-05-01T14:00:22.658Z</time></trkpt><trkpt lat="43.3378904" lon="10.9078052"><ele>174.0</ele><time>2026-05-01T14:00:24.672Z</time></trkpt><trkpt lat="43.3378046" lon="10.9078023"><ele>174.0</ele><time>2026-05-01T14:00:26.675Z</time></trkpt><trkpt lat="43.3377084" lon="10.9079428"><ele>174.0</ele><time>2026-05-01T14:00:28.664Z</time></trkpt><trkpt lat="43.3376441" lon="10.908025"><ele>174.0</ele><time>2026-05-01T14:00:29.666Z</time></trkpt><trkpt lat="43.3375744" lon="10.9080574"><ele>174.0</ele><time>2026-05-01T14:00:30.668Z</time></trkpt><trkpt lat="43.3375032" lon="10.908011"><ele>174.0</ele><time>2026-05-01T14:00:31.661Z</time></trkpt><trkpt lat="43.3374625" lon="10.9079436"><ele>174.0</ele><time>2026-05-01T14:00:32.66Z</time></trkpt><trkpt lat="43.337469" lon="10.9078018"><ele>174.0</ele><time>2026-05-01T14:00:34.656Z</time></trkpt><trkpt lat="43.3375547" lon="10.9076816"><ele>174.0</ele><time>2026-05-01T14:00:36.662Z</time></trkpt><trkpt lat="43.3375947" lon="10.9075905"><ele>174.0</ele><time>2026-05-01T14:00:37.672Z</time></trkpt><trkpt lat="43.337639" lon="10.9074479"><ele>176.6</ele><time>2026-05-01T14:00:38.655Z</time></trkpt><trkpt lat="43.3376765" lon="10.9073187"><ele>179.2</ele><time>2026-05-01T14:00:39.655Z</time></trkpt><trkpt lat="43.337712" lon="10.9072226"><ele>181.79999999999998</ele><time>2026-05-01T14:00:40.653Z</time></trkpt><trkpt lat="43.3377785" lon="10.9071466"><ele>184.39999999999998</ele><time>2026-05-01T14:00:41.671Z</time></trkpt><trkpt lat="43.337855" lon="10.9070653"><ele>187.0</ele><time>2026-05-01T14:00:42.654Z</time></trkpt><trkpt lat="43.3379275" lon="10.9069779"><ele>187.0</ele><time>2026-05-01T14:00:43.665Z</time></trkpt><trkpt lat="43.3379912" lon="10.9068825"><ele>187.0</ele><time>2026-05-01T14:00:44.67Z</time></trkpt><trkpt lat="43.3380399" lon="10.9067748"><ele>187.0</ele><time>2026-05-01T14:00:45.656Z</time></trkpt><trkpt lat="43.3380895" lon="10.9066694"><ele>187.0</ele><time>2026-05-01T14:00:46.656Z</time></trkpt><trkpt lat="43.3381118" lon="10.9065664"><ele>187.0</ele><time>2026-05-01T14:00:47.67Z</time></trkpt><trkpt lat="43.3381301" lon="10.9064673"><ele>187.0</ele><time>2026-05-01T14:00:48.67Z</time></trkpt><trkpt lat="43.3381356" lon="10.906366"><ele>186.39999999999998</ele><time>2026-05-01T14:00:49.665Z</time></trkpt><trkpt lat="43.3381375" lon="10.9062437"><ele>185.79999999999998</ele><time>2026-05-01T14:00:50.657Z</time></trkpt><trkpt lat="43.3381218" lon="10.9061121"><ele>185.2</ele><time>2026-05-01T14:00:51.672Z</time></trkpt><trkpt lat="43.3381047" lon="10.9059655"><ele>184.6</ele><time>2026-05-01T14:00:52.665Z</time></trkpt><trkpt lat="43.3381054" lon="10.9058065"><ele>184.0</ele><time>2026-05-01T14:00:53.665Z</time></trkpt><trkpt lat="43.3381173" lon="10.9056515"><ele>185.2</ele><time>2026-05-01T14:00:54.662Z</time></trkpt><trkpt lat="43.3381381" lon="10.9055103"><ele>186.39999999999998</ele><time>2026-05-01T14:00:55.669Z</time></trkpt><trkpt lat="43.3381406" lon="10.9053823"><ele>187.6</ele><time>2026-05-01T14:00:56.655Z</time></trkpt><trkpt lat="43.33813" lon="10.9052549"><ele>188.8</ele><time>2026-05-01T14:00:57.662Z</time></trkpt><trkpt lat="43.3381174" lon="10.9051258"><ele>190.0</ele><time>2026-05-01T14:00:58.677Z</time></trkpt><trkpt lat="43.3381224" lon="10.9049912"><ele>191.0</ele><time>2026-05-01T14:00:59.665Z</time></trkpt><trkpt lat="43.3381586" lon="10.9048774"><ele>192.0</ele><time>2026-05-01T14:01:00.654Z</time></trkpt><trkpt lat="43.3382134" lon="10.9047669"><ele>193.0</ele><time>2026-05-01T14:01:01.665Z</time></trkpt><trkpt lat="43.3382776" lon="10.904674"><ele>194.0</ele><time>2026-05-01T14:01:02.655Z</time></trkpt><trkpt lat="43.3383418" lon="10.9045687"><ele>195.0</ele><time>2026-05-01T14:01:03.675Z</time></trkpt><trkpt lat="43.3383885" lon="10.9044712"><ele>195.0</ele><time>2026-05-01T14:01:04.662Z</time></trkpt><trkpt lat="43.3384118" lon="10.9043843"><ele>195.0</ele><time>2026-05-01T14:01:05.655Z</time></trkpt><trkpt lat="43.3384195" lon="10.9042925"><ele>195.0</ele><time>2026-05-01T14:01:06.664Z</time></trkpt><trkpt lat="43.3384145" lon="10.9041841"><ele>195.0</ele><time>2026-05-01T14:01:07.661Z</time></trkpt><trkpt lat="43.3384015" lon="10.9040361"><ele>195.0</ele><time>2026-05-01T14:01:08.659Z</time></trkpt><trkpt lat="43.3383987" lon="10.9038753"><ele>195.0</ele><time>2026-05-01T14:01:09.649Z</time></trkpt><trkpt lat="43.3383932" lon="10.9037094"><ele>196.6</ele><time>2026-05-01T14:01:10.669Z</time></trkpt><trkpt lat="43.3383773" lon="10.9035398"><ele>198.2</ele><time>2026-05-01T14:01:11.664Z</time></trkpt><trkpt lat="43.3383504" lon="10.903391"><ele>199.8</ele><time>2026-05-01T14:01:12.666Z</time></trkpt><trkpt lat="43.3383355" lon="10.9032592"><ele>201.4</ele><time>2026-05-01T14:01:13.658Z</time></trkpt><trkpt lat="43.3383415" lon="10.903136"><ele>203.0</ele><time>2026-05-01T14:01:14.672Z</time></trkpt><trkpt lat="43.3383605" lon="10.9029934"><ele>203.25</ele><time>2026-05-01T14:01:15.677Z</time></trkpt><trkpt lat="43.3384034" lon="10.9028489"><ele>203.5</ele><time>2026-05-01T14:01:16.656Z</time></trkpt><trkpt lat="43.3384558" lon="10.902717"><ele>203.75</ele><time>2026-05-01T14:01:17.662Z</time></trkpt><trkpt lat="43.3385396" lon="10.9025779"><ele>204.0</ele><time>2026-05-01T14:01:18.655Z</time></trkpt><trkpt lat="43.3386236" lon="10.9024675"><ele>203.75</ele><time>2026-05-01T14:01:19.655Z</time></trkpt><trkpt lat="43.3387191" lon="10.9023819"><ele>203.5</ele><time>2026-05-01T14:01:20.662Z</time></trkpt><trkpt lat="43.338818" lon="10.9023183"><ele>203.25</ele><time>2026-05-01T14:01:21.661Z</time></trkpt><trkpt lat="43.338931" lon="10.9022698"><ele>203.0</ele><time>2026-05-01T14:01:22.667Z</time></trkpt><trkpt lat="43.3390473" lon="10.9022147"><ele>203.0</ele><time>2026-05-01T14:01:23.674Z</time></trkpt><trkpt lat="43.3391727" lon="10.9021545"><ele>203.0</ele><time>2026-05-01T14:01:24.656Z</time></trkpt><trkpt lat="43.3392937" lon="10.9020851"><ele>203.0</ele><time>2026-05-01T14:01:25.661Z</time></trkpt><trkpt lat="43.3393964" lon="10.9020214"><ele>203.0</ele><time>2026-05-01T14:01:26.658Z</time></trkpt><trkpt lat="43.3394761" lon="10.9019704"><ele>203.00000000000003</ele><time>2026-05-01T14:01:27.661Z</time></trkpt><trkpt lat="43.3395474" lon="10.9019257"><ele>203.0</ele><time>2026-05-01T14:01:28.662Z</time></trkpt><trkpt lat="43.3396058" lon="10.9018826"><ele>203.0</ele><time>2026-05-01T14:01:29.669Z</time></trkpt><trkpt lat="43.3396891" lon="10.9018012"><ele>203.0</ele><time>2026-05-01T14:01:31.655Z</time></trkpt><trkpt lat="43.3397508" lon="10.9017054"><ele>203.00000000000003</ele><time>2026-05-01T14:01:33.656Z</time></trkpt><trkpt lat="43.3398059" lon="10.9015767"><ele>203.0</ele><time>2026-05-01T14:01:35.654Z</time></trkpt><trkpt lat="43.3398721" lon="10.9014407"><ele>203.00000000000003</ele><time>2026-05-01T14:01:37.663Z</time></trkpt><trkpt lat="43.3399131" lon="10.901373"><ele>203.0</ele><time>2026-05-01T14:01:38.65Z</time></trkpt><trkpt lat="43.3400038" lon="10.9012449"><ele>203.0</ele><time>2026-05-01T14:01:40.66Z</time></trkpt><trkpt lat="43.340054" lon="10.901174"><ele>203.0</ele><time>2026-05-01T14:01:41.656Z</time></trkpt><trkpt lat="43.3401074" lon="10.9010922"><ele>203.00000000000003</ele><time>2026-05-01T14:01:42.657Z</time></trkpt><trkpt lat="43.3401575" lon="10.9010093"><ele>203.0</ele><time>2026-05-01T14:01:43.662Z</time></trkpt><trkpt lat="43.3402126" lon="10.9009357"><ele>202.16666666666669</ele><time>2026-05-01T14:01:44.659Z</time></trkpt><trkpt lat="43.3402689" lon="10.9008676"><ele>201.33333333333334</ele><time>2026-05-01T14:01:45.669Z</time></trkpt><trkpt lat="43.3403336" lon="10.9008014"><ele>200.5</ele><time>2026-05-01T14:01:46.669Z</time></trkpt><trkpt lat="43.3404011" lon="10.9007419"><ele>199.66666666666669</ele><time>2026-05-01T14:01:47.656Z</time></trkpt><trkpt lat="43.3404801" lon="10.9006863"><ele>198.83333333333334</ele><time>2026-05-01T14:01:48.657Z</time></trkpt><trkpt lat="43.3405555" lon="10.9006362"><ele>198.0</ele><time>2026-05-01T14:01:49.677Z</time></trkpt><trkpt lat="43.340623" lon="10.9005647"><ele>198.0</ele><time>2026-05-01T14:01:50.661Z</time></trkpt><trkpt lat="43.3406845" lon="10.9004786"><ele>198.0</ele><time>2026-05-01T14:01:51.666Z</time></trkpt><trkpt lat="43.3407359" lon="10.9003885"><ele>198.0</ele><time>2026-05-01T14:01:52.675Z</time></trkpt><trkpt lat="43.3407928" lon="10.9002923"><ele>198.0</ele><time>2026-05-01T14:01:53.658Z</time></trkpt><trkpt lat="43.3408534" lon="10.9001964"><ele>198.0</ele><time>2026-05-01T14:01:54.664Z</time></trkpt><trkpt lat="43.3409209" lon="10.9001065"><ele>198.0</ele><time>2026-05-01T14:01:55.676Z</time></trkpt><trkpt lat="43.3409914" lon="10.9000348"><ele>198.60000000000002</ele><time>2026-05-01T14:01:56.66Z</time></trkpt><trkpt lat="43.3410634" lon="10.8999684"><ele>199.20000000000002</ele><time>2026-05-01T14:01:57.66Z</time></trkpt><trkpt lat="43.3411362" lon="10.8999058"><ele>199.8</ele><time>2026-05-01T14:01:58.661Z</time></trkpt><trkpt lat="43.3412167" lon="10.8998458"><ele>200.4</ele><time>2026-05-01T14:01:59.66Z</time></trkpt><trkpt lat="43.3413122" lon="10.8998007"><ele>201.0</ele><time>2026-05-01T14:02:00.669Z</time></trkpt><trkpt lat="43.3414054" lon="10.8997739"><ele>201.0</ele><time>2026-05-01T14:02:01.662Z</time></trkpt><trkpt lat="43.3414757" lon="10.8997571"><ele>201.0</ele><time>2026-05-01T14:02:02.657Z</time></trkpt><trkpt lat="43.3415789" lon="10.8996455"><ele>201.0</ele><time>2026-05-01T14:02:04.666Z</time></trkpt><trkpt lat="43.3416165" lon="10.8995562"><ele>201.0</ele><time>2026-05-01T14:02:05.652Z</time></trkpt><trkpt lat="43.3416416" lon="10.8994497"><ele>201.0</ele><time>2026-05-01T14:02:06.656Z</time></trkpt><trkpt lat="43.3416681" lon="10.8993227"><ele>203.4</ele><time>2026-05-01T14:02:07.665Z</time></trkpt><trkpt lat="43.3417051" lon="10.8991926"><ele>205.8</ele><time>2026-05-01T14:02:08.659Z</time></trkpt><trkpt lat="43.3417585" lon="10.8990778"><ele>208.20000000000002</ele><time>2026-05-01T14:02:09.663Z</time></trkpt><trkpt lat="43.3418259" lon="10.8989765"><ele>210.60000000000002</ele><time>2026-05-01T14:02:10.657Z</time></trkpt><trkpt lat="43.341908" lon="10.8988745"><ele>213.0</ele><time>2026-05-01T14:02:11.656Z</time></trkpt><trkpt lat="43.3419977" lon="10.8987684"><ele>213.0</ele><time>2026-05-01T14:02:12.653Z</time></trkpt><trkpt lat="43.3420941" lon="10.8986534"><ele>213.0</ele><time>2026-05-01T14:02:13.653Z</time></trkpt><trkpt lat="43.3421896" lon="10.8985492"><ele>213.0</ele><time>2026-05-01T14:02:14.659Z</time></trkpt><trkpt lat="43.3422914" lon="10.8984416"><ele>213.0</ele><time>2026-05-01T14:02:15.656Z</time></trkpt><trkpt lat="43.3423913" lon="10.8983167"><ele>213.25</ele><time>2026-05-01T14:02:16.659Z</time></trkpt><trkpt lat="43.3424848" lon="10.8981832"><ele>213.5</ele><time>2026-05-01T14:02:17.653Z</time></trkpt><trkpt lat="43.3425765" lon="10.8980311"><ele>213.75</ele><time>2026-05-01T14:02:18.659Z</time></trkpt><trkpt lat="43.3426609" lon="10.8978835"><ele>214.0</ele><time>2026-05-01T14:02:19.662Z</time></trkpt><trkpt lat="43.3427288" lon="10.897748"><ele>213.99999999999997</ele><time>2026-05-01T14:02:20.665Z</time></trkpt><trkpt lat="43.3427907" lon="10.8976142"><ele>214.0</ele><time>2026-05-01T14:02:21.661Z</time></trkpt><trkpt lat="43.3428324" lon="10.8974923"><ele>214.0</ele><time>2026-05-01T14:02:22.673Z</time></trkpt><trkpt lat="43.3428561" lon="10.8973848"><ele>214.0</ele><time>2026-05-01T14:02:23.666Z</time></trkpt><trkpt lat="43.3428768" lon="10.8972816"><ele>213.99999999999997</ele><time>2026-05-01T14:02:24.669Z</time></trkpt><trkpt lat="43.3428962" lon="10.8971899"><ele>214.0</ele><time>2026-05-01T14:02:25.659Z</time></trkpt><trkpt lat="43.3429195" lon="10.8971048"><ele>214.57142857142858</ele><time>2026-05-01T14:02:26.679Z</time></trkpt><trkpt lat="43.3429408" lon="10.8970152"><ele>215.14285714285714</ele><time>2026-05-01T14:02:27.667Z</time></trkpt><trkpt lat="43.3429656" lon="10.8969263"><ele>215.71428571428572</ele><time>2026-05-01T14:02:28.669Z</time></trkpt><trkpt lat="43.3429915" lon="10.8968296"><ele>216.28571428571428</ele><time>2026-05-01T14:02:29.666Z</time></trkpt><trkpt lat="43.3430245" lon="10.896742"><ele>216.85714285714286</ele><time>2026-05-01T14:02:30.651Z</time></trkpt><trkpt lat="43.3430603" lon="10.8966551"><ele>217.42857142857144</ele><time>2026-05-01T14:02:31.66Z</time></trkpt><trkpt lat="43.3431078" lon="10.8965773"><ele>218.0</ele><time>2026-05-01T14:02:32.666Z</time></trkpt><trkpt lat="43.3431625" lon="10.8965082"><ele>218.16666666666669</ele><time>2026-05-01T14:02:33.673Z</time></trkpt><trkpt lat="43.343226" lon="10.8964461"><ele>218.33333333333334</ele><time>2026-05-01T14:02:34.659Z</time></trkpt><trkpt lat="43.3432919" lon="10.8963774"><ele>218.5</ele><time>2026-05-01T14:02:35.66Z</time></trkpt><trkpt lat="43.3433657" lon="10.8963078"><ele>218.66666666666669</ele><time>2026-05-01T14:02:36.665Z</time></trkpt><trkpt lat="43.3434442" lon="10.8962348"><ele>218.83333333333334</ele><time>2026-05-01T14:02:37.663Z</time></trkpt><trkpt lat="43.3435381" lon="10.8961722"><ele>219.0</ele><time>2026-05-01T14:02:38.659Z</time></trkpt><trkpt lat="43.3436364" lon="10.8961074"><ele>219.0</ele><time>2026-05-01T14:02:39.672Z</time></trkpt><trkpt lat="43.3437379" lon="10.8960433"><ele>219.0</ele><time>2026-05-01T14:02:40.668Z</time></trkpt><trkpt lat="43.3438453" lon="10.8959767"><ele>219.0</ele><time>2026-05-01T14:02:41.662Z</time></trkpt><trkpt lat="43.3439544" lon="10.89591"><ele>219.0</ele><time>2026-05-01T14:02:42.657Z</time></trkpt><trkpt lat="43.3440654" lon="10.8958379"><ele>222.25</ele><time>2026-05-01T14:02:43.663Z</time></trkpt><trkpt lat="43.3441775" lon="10.8957647"><ele>225.5</ele><time>2026-05-01T14:02:44.67Z</time></trkpt><trkpt lat="43.3442927" lon="10.8956959"><ele>228.75</ele><time>2026-05-01T14:02:45.668Z</time></trkpt><trkpt lat="43.3444026" lon="10.8956322"><ele>232.0</ele><time>2026-05-01T14:02:46.661Z</time></trkpt><trkpt lat="43.3444999" lon="10.8955524"><ele>232.0</ele><time>2026-05-01T14:02:47.656Z</time></trkpt><trkpt lat="43.3445809" lon="10.8954579"><ele>232.0</ele><time>2026-05-01T14:02:48.674Z</time></trkpt><trkpt lat="43.3446506" lon="10.8953536"><ele>232.0</ele><time>2026-05-01T14:02:49.657Z</time></trkpt><trkpt lat="43.3447184" lon="10.8952501"><ele>232.0</ele><time>2026-05-01T14:02:50.686Z</time></trkpt><trkpt lat="43.3447943" lon="10.8951339"><ele>232.0</ele><time>2026-05-01T14:02:51.666Z</time></trkpt><trkpt lat="43.3448711" lon="10.8950419"><ele>233.66666666666666</ele><time>2026-05-01T14:02:52.666Z</time></trkpt><trkpt lat="43.3449465" lon="10.8949935"><ele>235.33333333333331</ele><time>2026-05-01T14:02:53.652Z</time></trkpt><trkpt lat="43.3450161" lon="10.8949556"><ele>237.0</ele><time>2026-05-01T14:02:54.664Z</time></trkpt><trkpt lat="43.345081" lon="10.8949122"><ele>238.66666666666669</ele><time>2026-05-01T14:02:55.677Z</time></trkpt><trkpt lat="43.3451885" lon="10.8948535"><ele>240.33333333333334</ele><time>2026-05-01T14:02:57.657Z</time></trkpt><trkpt lat="43.3452864" lon="10.8948128"><ele>242.0</ele><time>2026-05-01T14:02:59.666Z</time></trkpt><trkpt lat="43.3453953" lon="10.8947811"><ele>242.00000000000003</ele><time>2026-05-01T14:03:01.674Z</time></trkpt><trkpt lat="43.3454574" lon="10.8947625"><ele>242.0</ele><time>2026-05-01T14:03:02.661Z</time></trkpt><trkpt lat="43.3455216" lon="10.8947469"><ele>242.0</ele><time>2026-05-01T14:03:03.685Z</time></trkpt><trkpt lat="43.345652" lon="10.8947314"><ele>242.0</ele><time>2026-05-01T14:03:05.667Z</time></trkpt><trkpt lat="43.3457267" lon="10.8947242"><ele>242.00000000000003</ele><time>2026-05-01T14:03:06.654Z</time></trkpt><trkpt lat="43.3458011" lon="10.8947162"><ele>242.0</ele><time>2026-05-01T14:03:07.681Z</time></trkpt><trkpt lat="43.3458791" lon="10.8947131"><ele>239.16666666666669</ele><time>2026-05-01T14:03:08.667Z</time></trkpt><trkpt lat="43.3459529" lon="10.8947112"><ele>236.33333333333334</ele><time>2026-05-01T14:03:09.664Z</time></trkpt><trkpt lat="43.3460325" lon="10.8946985"><ele>233.5</ele><time>2026-05-01T14:03:10.653Z</time></trkpt><trkpt lat="43.3461164" lon="10.8946884"><ele>230.66666666666669</ele><time>2026-05-01T14:03:11.666Z</time></trkpt><trkpt lat="43.3461945" lon="10.8946695"><ele>227.83333333333334</ele><time>2026-05-01T14:03:12.655Z</time></trkpt><trkpt lat="43.3462661" lon="10.8946551"><ele>225.0</ele><time>2026-05-01T14:03:13.674Z</time></trkpt><trkpt lat="43.3463399" lon="10.8946401"><ele>223.16666666666666</ele><time>2026-05-01T14:03:14.662Z</time></trkpt><trkpt lat="43.3464168" lon="10.8946324"><ele>221.33333333333331</ele><time>2026-05-01T14:03:15.659Z</time></trkpt><trkpt lat="43.3464967" lon="10.8946439"><ele>219.5</ele><time>2026-05-01T14:03:16.654Z</time></trkpt><trkpt lat="43.3465886" lon="10.8946723"><ele>217.66666666666666</ele><time>2026-05-01T14:03:17.657Z</time></trkpt><trkpt lat="43.3466797" lon="10.8947076"><ele>215.83333333333331</ele><time>2026-05-01T14:03:18.665Z</time></trkpt><trkpt lat="43.3467681" lon="10.8947537"><ele>214.0</ele><time>2026-05-01T14:03:19.665Z</time></trkpt><trkpt lat="43.3468579" lon="10.8947905"><ele>214.0</ele><time>2026-05-01T14:03:20.676Z</time></trkpt><trkpt lat="43.3469485" lon="10.8948364"><ele>213.99999999999997</ele><time>2026-05-01T14:03:21.657Z</time></trkpt><trkpt lat="43.3470447" lon="10.8948828"><ele>213.99999999999997</ele><time>2026-05-01T14:03:22.657Z</time></trkpt><trkpt lat="43.3471449" lon="10.8949248"><ele>214.0</ele><time>2026-05-01T14:03:23.659Z</time></trkpt><trkpt lat="43.3472539" lon="10.8949821"><ele>214.0</ele><time>2026-05-01T14:03:24.694Z</time></trkpt><trkpt lat="43.3473738" lon="10.8950353"><ele>214.0</ele><time>2026-05-01T14:03:25.661Z</time></trkpt><trkpt lat="43.3474904" lon="10.8950795"><ele>214.0</ele><time>2026-05-01T14:03:26.666Z</time></trkpt><trkpt lat="43.3476085" lon="10.8951291"><ele>214.0</ele><time>2026-05-01T14:03:27.67Z</time></trkpt><trkpt lat="43.3477294" lon="10.8951748"><ele>214.0</ele><time>2026-05-01T14:03:28.662Z</time></trkpt><trkpt lat="43.3478524" lon="10.8952161"><ele>212.25</ele><time>2026-05-01T14:03:29.667Z</time></trkpt><trkpt lat="43.3479762" lon="10.8952441"><ele>210.5</ele><time>2026-05-01T14:03:30.651Z</time></trkpt><trkpt lat="43.3480983" lon="10.8952513"><ele>208.75</ele><time>2026-05-01T14:03:31.654Z</time></trkpt><trkpt lat="43.3482329" lon="10.8952319"><ele>207.0</ele><time>2026-05-01T14:03:32.659Z</time></trkpt><trkpt lat="43.3483663" lon="10.8951898"><ele>210.66666666666669</ele><time>2026-05-01T14:03:33.684Z</time></trkpt><trkpt lat="43.3485168" lon="10.8951291"><ele>214.33333333333334</ele><time>2026-05-01T14:03:34.661Z</time></trkpt><trkpt lat="43.3486649" lon="10.8950836"><ele>218.0</ele><time>2026-05-01T14:03:35.658Z</time></trkpt><trkpt lat="43.3488159" lon="10.8950515"><ele>219.25</ele><time>2026-05-01T14:03:36.668Z</time></trkpt><trkpt lat="43.3489545" lon="10.8950398"><ele>220.5</ele><time>2026-05-01T14:03:37.653Z</time></trkpt><trkpt lat="43.3490885" lon="10.8950422"><ele>221.75</ele><time>2026-05-01T14:03:38.655Z</time></trkpt><trkpt lat="43.3492181" lon="10.8950507"><ele>223.0</ele><time>2026-05-01T14:03:39.651Z</time></trkpt><trkpt lat="43.3493347" lon="10.8950614"><ele>223.0</ele><time>2026-05-01T14:03:40.655Z</time></trkpt><trkpt lat="43.3494515" lon="10.8950747"><ele>223.0</ele><time>2026-05-01T14:03:41.651Z</time></trkpt><trkpt lat="43.349557" lon="10.8950677"><ele>223.0</ele><time>2026-05-01T14:03:42.66Z</time></trkpt><trkpt lat="43.3496556" lon="10.8950404"><ele>223.0</ele><time>2026-05-01T14:03:43.656Z</time></trkpt><trkpt lat="43.3497414" lon="10.8949794"><ele>223.0</ele><time>2026-05-01T14:03:44.657Z</time></trkpt><trkpt lat="43.3498277" lon="10.8949035"><ele>221.25</ele><time>2026-05-01T14:03:45.659Z</time></trkpt><trkpt lat="43.3499138" lon="10.8948035"><ele>219.5</ele><time>2026-05-01T14:03:46.661Z</time></trkpt><trkpt lat="43.3499961" lon="10.8946739"><ele>217.75</ele><time>2026-05-01T14:03:47.664Z</time></trkpt><trkpt lat="43.350082" lon="10.8945544"><ele>216.0</ele><time>2026-05-01T14:03:48.657Z</time></trkpt><trkpt lat="43.3501746" lon="10.8944453"><ele>216.0</ele><time>2026-05-01T14:03:49.661Z</time></trkpt><trkpt lat="43.3502768" lon="10.8943517"><ele>216.0</ele><time>2026-05-01T14:03:50.65Z</time></trkpt><trkpt lat="43.3503812" lon="10.8942725"><ele>216.0</ele><time>2026-05-01T14:03:51.661Z</time></trkpt><trkpt lat="43.3504827" lon="10.8942158"><ele>216.0</ele><time>2026-05-01T14:03:52.66Z</time></trkpt><trkpt lat="43.3505961" lon="10.8941827"><ele>217.5</ele><time>2026-05-01T14:03:53.66Z</time></trkpt><trkpt lat="43.350717" lon="10.8941824"><ele>219.0</ele><time>2026-05-01T14:03:54.661Z</time></trkpt><trkpt lat="43.3508344" lon="10.8941977"><ele>220.5</ele><time>2026-05-01T14:03:55.653Z</time></trkpt><trkpt lat="43.3509568" lon="10.894229"><ele>222.0</ele><time>2026-05-01T14:03:56.66Z</time></trkpt><trkpt lat="43.3510787" lon="10.8942672"><ele>222.0</ele><time>2026-05-01T14:03:57.652Z</time></trkpt><trkpt lat="43.3512013" lon="10.8943205"><ele>222.0</ele><time>2026-05-01T14:03:58.658Z</time></trkpt><trkpt lat="43.3513226" lon="10.8943962"><ele>222.0</ele><time>2026-05-01T14:03:59.64Z</time></trkpt><trkpt lat="43.3514439" lon="10.8944792"><ele>222.0</ele><time>2026-05-01T14:04:00.66Z</time></trkpt><trkpt lat="43.3515666" lon="10.8945735"><ele>222.0</ele><time>2026-05-01T14:04:01.66Z</time></trkpt><trkpt lat="43.3516868" lon="10.8946712"><ele>222.0</ele><time>2026-05-01T14:04:02.659Z</time></trkpt><trkpt lat="43.351807" lon="10.8947811"><ele>222.0</ele><time>2026-05-01T14:04:03.657Z</time></trkpt><trkpt lat="43.3519158" lon="10.8948971"><ele>222.0</ele><time>2026-05-01T14:04:04.658Z</time></trkpt><trkpt lat="43.3520169" lon="10.8950343"><ele>223.0</ele><time>2026-05-01T14:04:05.655Z</time></trkpt><trkpt lat="43.3521137" lon="10.8951781"><ele>224.0</ele><time>2026-05-01T14:04:06.674Z</time></trkpt><trkpt lat="43.3521993" lon="10.8953364"><ele>225.0</ele><time>2026-05-01T14:04:07.663Z</time></trkpt><trkpt lat="43.3522845" lon="10.8954945"><ele>226.0</ele><time>2026-05-01T14:04:08.664Z</time></trkpt><trkpt lat="43.3523666" lon="10.895655"><ele>226.0</ele><time>2026-05-01T14:04:09.664Z</time></trkpt><trkpt lat="43.3524513" lon="10.8958148"><ele>226.0</ele><time>2026-05-01T14:04:10.709Z</time></trkpt><trkpt lat="43.3525373" lon="10.8959764"><ele>226.0</ele><time>2026-05-01T14:04:11.653Z</time></trkpt><trkpt lat="43.3526245" lon="10.8961383"><ele>226.0</ele><time>2026-05-01T14:04:12.658Z</time></trkpt><trkpt lat="43.3527068" lon="10.8962968"><ele>225.25</ele><time>2026-05-01T14:04:13.661Z</time></trkpt><trkpt lat="43.3527823" lon="10.8964548"><ele>224.5</ele><time>2026-05-01T14:04:14.655Z</time></trkpt><trkpt lat="43.3528516" lon="10.8966051"><ele>223.75</ele><time>2026-05-01T14:04:15.663Z</time></trkpt><trkpt lat="43.3529119" lon="10.8967566"><ele>223.0</ele><time>2026-05-01T14:04:16.664Z</time></trkpt><trkpt lat="43.3529686" lon="10.8969085"><ele>222.0</ele><time>2026-05-01T14:04:17.663Z</time></trkpt><trkpt lat="43.3530233" lon="10.8970624"><ele>221.0</ele><time>2026-05-01T14:04:18.658Z</time></trkpt><trkpt lat="43.3530813" lon="10.8972147"><ele>220.0</ele><time>2026-05-01T14:04:19.652Z</time></trkpt><trkpt lat="43.353139" lon="10.8973657"><ele>219.0</ele><time>2026-05-01T14:04:20.71Z</time></trkpt><trkpt lat="43.3531937" lon="10.8975017"><ele>222.25</ele><time>2026-05-01T14:04:21.707Z</time></trkpt><trkpt lat="43.3532491" lon="10.8976335"><ele>225.5</ele><time>2026-05-01T14:04:22.655Z</time></trkpt><trkpt lat="43.3533027" lon="10.8977739"><ele>228.75</ele><time>2026-05-01T14:04:23.653Z</time></trkpt><trkpt lat="43.3533624" lon="10.8979217"><ele>232.0</ele><time>2026-05-01T14:04:24.652Z</time></trkpt><trkpt lat="43.3534195" lon="10.8980733"><ele>232.0</ele><time>2026-05-01T14:04:25.666Z</time></trkpt><trkpt lat="43.3534547" lon="10.8982273"><ele>232.0</ele><time>2026-05-01T14:04:26.662Z</time></trkpt><trkpt lat="43.3534666" lon="10.8983849"><ele>232.0</ele><time>2026-05-01T14:04:27.677Z</time></trkpt><trkpt lat="43.3534596" lon="10.8985608"><ele>232.0</ele><time>2026-05-01T14:04:28.658Z</time></trkpt><trkpt lat="43.3534351" lon="10.898728"><ele>233.25</ele><time>2026-05-01T14:04:29.657Z</time></trkpt><trkpt lat="43.3533952" lon="10.8989014"><ele>234.5</ele><time>2026-05-01T14:04:30.671Z</time></trkpt><trkpt lat="43.3533475" lon="10.8990774"><ele>235.75</ele><time>2026-05-01T14:04:31.664Z</time></trkpt><trkpt lat="43.353298" lon="10.8992571"><ele>237.0</ele><time>2026-05-01T14:04:32.672Z</time></trkpt><trkpt lat="43.3532498" lon="10.8994509"><ele>238.75</ele><time>2026-05-01T14:04:33.658Z</time></trkpt><trkpt lat="43.3532008" lon="10.8996421"><ele>240.5</ele><time>2026-05-01T14:04:34.666Z</time></trkpt><trkpt lat="43.3531611" lon="10.899832"><ele>242.25</ele><time>2026-05-01T14:04:35.666Z</time></trkpt><trkpt lat="43.3531245" lon="10.9000182"><ele>244.0</ele><time>2026-05-01T14:04:36.656Z</time></trkpt><trkpt lat="43.353095" lon="10.9002034"><ele>243.25</ele><time>2026-05-01T14:04:37.745Z</time></trkpt><trkpt lat="43.3530654" lon="10.9003903"><ele>242.5</ele><time>2026-05-01T14:04:38.651Z</time></trkpt><trkpt lat="43.3530453" lon="10.9005851"><ele>241.75</ele><time>2026-05-01T14:04:39.651Z</time></trkpt><trkpt lat="43.3530286" lon="10.9007873"><ele>241.0</ele><time>2026-05-01T14:04:40.664Z</time></trkpt><trkpt lat="43.3530055" lon="10.9009926"><ele>243.25</ele><time>2026-05-01T14:04:41.652Z</time></trkpt><trkpt lat="43.3529847" lon="10.9011998"><ele>245.5</ele><time>2026-05-01T14:04:42.68Z</time></trkpt><trkpt lat="43.3529661" lon="10.9013964"><ele>247.75</ele><time>2026-05-01T14:04:43.663Z</time></trkpt><trkpt lat="43.3529448" lon="10.9015736"><ele>250.0</ele><time>2026-05-01T14:04:44.657Z</time></trkpt><trkpt lat="43.3529168" lon="10.9017463"><ele>251.5</ele><time>2026-05-01T14:04:45.658Z</time></trkpt><trkpt lat="43.3528869" lon="10.9019212"><ele>253.0</ele><time>2026-05-01T14:04:46.659Z</time></trkpt><trkpt lat="43.3528566" lon="10.9021011"><ele>254.5</ele><time>2026-05-01T14:04:47.652Z</time></trkpt><trkpt lat="43.352831" lon="10.9022674"><ele>256.0</ele><time>2026-05-01T14:04:48.665Z</time></trkpt><trkpt lat="43.3528151" lon="10.9024162"><ele>256.0</ele><time>2026-05-01T14:04:49.679Z</time></trkpt><trkpt lat="43.3528158" lon="10.9025254"><ele>256.0</ele><time>2026-05-01T14:04:50.667Z</time></trkpt><trkpt lat="43.3528465" lon="10.9026822"><ele>256.0</ele><time>2026-05-01T14:04:52.655Z</time></trkpt><trkpt lat="43.3529463" lon="10.9027319"><ele>256.0</ele><time>2026-05-01T14:04:54.645Z</time></trkpt><trkpt lat="43.3530418" lon="10.9026815"><ele>256.0</ele><time>2026-05-01T14:04:56.653Z</time></trkpt><trkpt lat="43.3531461" lon="10.9025963"><ele>258.66666666666663</ele><time>2026-05-01T14:04:58.673Z</time></trkpt><trkpt lat="43.353208" lon="10.9025567"><ele>261.3333333333333</ele><time>2026-05-01T14:04:59.656Z</time></trkpt><trkpt lat="43.3532775" lon="10.9025243"><ele>264.0</ele><time>2026-05-01T14:05:00.662Z</time></trkpt><trkpt lat="43.3533509" lon="10.9024933"><ele>266.6666666666667</ele><time>2026-05-01T14:05:01.665Z</time></trkpt><trkpt lat="43.3534302" lon="10.9024684"><ele>269.33333333333337</ele><time>2026-05-01T14:05:02.654Z</time></trkpt><trkpt lat="43.3535203" lon="10.9024569"><ele>272.0</ele><time>2026-05-01T14:05:03.659Z</time></trkpt><trkpt lat="43.3536106" lon="10.9024534"><ele>272.0</ele><time>2026-05-01T14:05:04.656Z</time></trkpt><trkpt lat="43.3536903" lon="10.9024612"><ele>272.0</ele><time>2026-05-01T14:05:05.658Z</time></trkpt><trkpt lat="43.3537656" lon="10.9024825"><ele>272.0</ele><time>2026-05-01T14:05:06.682Z</time></trkpt><trkpt lat="43.353846" lon="10.902526"><ele>272.0</ele><time>2026-05-01T14:05:07.667Z</time></trkpt><trkpt lat="43.3539207" lon="10.9025819"><ele>272.0</ele><time>2026-05-01T14:05:08.68Z</time></trkpt><trkpt lat="43.3539843" lon="10.9026585"><ele>272.0</ele><time>2026-05-01T14:05:09.665Z</time></trkpt><trkpt lat="43.3540348" lon="10.9027144"><ele>273.4285714285714</ele><time>2026-05-01T14:05:10.656Z</time></trkpt><trkpt lat="43.3540849" lon="10.9027768"><ele>274.85714285714283</ele><time>2026-05-01T14:05:11.664Z</time></trkpt><trkpt lat="43.3541349" lon="10.9028476"><ele>276.2857142857143</ele><time>2026-05-01T14:05:12.666Z</time></trkpt><trkpt lat="43.3541851" lon="10.9029181"><ele>277.71428571428567</ele><time>2026-05-01T14:05:13.661Z</time></trkpt><trkpt lat="43.3542433" lon="10.9029861"><ele>279.1428571428571</ele><time>2026-05-01T14:05:14.653Z</time></trkpt><trkpt lat="43.3543004" lon="10.9030517"><ele>280.57142857142856</ele><time>2026-05-01T14:05:15.663Z</time></trkpt><trkpt lat="43.3543575" lon="10.9031187"><ele>282.0</ele><time>2026-05-01T14:05:16.675Z</time></trkpt><trkpt lat="43.3544173" lon="10.9031916"><ele>282.0</ele><time>2026-05-01T14:05:17.661Z</time></trkpt><trkpt lat="43.3544799" lon="10.9032579"><ele>282.0</ele><time>2026-05-01T14:05:18.68Z</time></trkpt><trkpt lat="43.3545472" lon="10.9033226"><ele>282.0</ele><time>2026-05-01T14:05:19.67Z</time></trkpt><trkpt lat="43.3546158" lon="10.9033972"><ele>282.0</ele><time>2026-05-01T14:05:20.654Z</time></trkpt><trkpt lat="43.3546943" lon="10.9034749"><ele>282.0</ele><time>2026-05-01T14:05:21.66Z</time></trkpt><trkpt lat="43.3547692" lon="10.9035637"><ele>282.0</ele><time>2026-05-01T14:05:22.658Z</time></trkpt><trkpt lat="43.3548454" lon="10.903652"><ele>281.4</ele><time>2026-05-01T14:05:23.679Z</time></trkpt><trkpt lat="43.3549176" lon="10.9037307"><ele>280.79999999999995</ele><time>2026-05-01T14:05:24.657Z</time></trkpt><trkpt lat="43.3549865" lon="10.9038013"><ele>280.2</ele><time>2026-05-01T14:05:25.66Z</time></trkpt><trkpt lat="43.3550611" lon="10.9038777"><ele>279.59999999999997</ele><time>2026-05-01T14:05:26.666Z</time></trkpt><trkpt lat="43.3551503" lon="10.9039586"><ele>279.0</ele><time>2026-05-01T14:05:27.665Z</time></trkpt><trkpt lat="43.3552434" lon="10.9040324"><ele>279.0</ele><time>2026-05-01T14:05:28.659Z</time></trkpt><trkpt lat="43.3553318" lon="10.9040901"><ele>279.0</ele><time>2026-05-01T14:05:29.662Z</time></trkpt><trkpt lat="43.3554339" lon="10.9041486"><ele>279.0</ele><time>2026-05-01T14:05:30.668Z</time></trkpt><trkpt lat="43.3555408" lon="10.9041945"><ele>279.0</ele><time>2026-05-01T14:05:31.655Z</time></trkpt><trkpt lat="43.3556532" lon="10.9042478"><ele>279.0</ele><time>2026-05-01T14:05:32.675Z</time></trkpt><trkpt lat="43.3557651" lon="10.9042833"><ele>277.4</ele><time>2026-05-01T14:05:33.65Z</time></trkpt><trkpt lat="43.355877" lon="10.9043196"><ele>275.79999999999995</ele><time>2026-05-01T14:05:34.653Z</time></trkpt><trkpt lat="43.3559833" lon="10.9043441"><ele>274.20000000000005</ele><time>2026-05-01T14:05:35.658Z</time></trkpt><trkpt lat="43.3560896" lon="10.9043779"><ele>272.6</ele><time>2026-05-01T14:05:36.671Z</time></trkpt><trkpt lat="43.3562024" lon="10.9044052"><ele>271.0</ele><time>2026-05-01T14:05:37.665Z</time></trkpt><trkpt lat="43.3563153" lon="10.9044223"><ele>270.5</ele><time>2026-05-01T14:05:38.658Z</time></trkpt><trkpt lat="43.3564331" lon="10.9044333"><ele>270.0</ele><time>2026-05-01T14:05:39.647Z</time></trkpt><trkpt lat="43.3565539" lon="10.9044232"><ele>269.5</ele><time>2026-05-01T14:05:40.658Z</time></trkpt><trkpt lat="43.3566821" lon="10.9044131"><ele>269.0</ele><time>2026-05-01T14:05:41.653Z</time></trkpt><trkpt lat="43.3568218" lon="10.9043992"><ele>269.0</ele><time>2026-05-01T14:05:42.659Z</time></trkpt><trkpt lat="43.3569475" lon="10.9043883"><ele>269.0</ele><time>2026-05-01T14:05:43.656Z</time></trkpt><trkpt lat="43.357059" lon="10.9043793"><ele>269.0</ele><time>2026-05-01T14:05:44.651Z</time></trkpt><trkpt lat="43.3571642" lon="10.9043697"><ele>269.0</ele><time>2026-05-01T14:05:45.659Z</time></trkpt><trkpt lat="43.3572666" lon="10.9043566"><ele>269.0</ele><time>2026-05-01T14:05:46.649Z</time></trkpt><trkpt lat="43.3573595" lon="10.9043492"><ele>269.83333333333337</ele><time>2026-05-01T14:05:47.655Z</time></trkpt><trkpt lat="43.3574452" lon="10.9043597"><ele>270.6666666666667</ele><time>2026-05-01T14:05:48.656Z</time></trkpt><trkpt lat="43.3575294" lon="10.9043907"><ele>271.5</ele><time>2026-05-01T14:05:49.653Z</time></trkpt><trkpt lat="43.3576201" lon="10.9044254"><ele>272.3333333333333</ele><time>2026-05-01T14:05:50.65Z</time></trkpt><trkpt lat="43.3576991" lon="10.9044783"><ele>273.16666666666663</ele><time>2026-05-01T14:05:51.679Z</time></trkpt><trkpt lat="43.357774" lon="10.9045442"><ele>274.0</ele><time>2026-05-01T14:05:52.655Z</time></trkpt><trkpt lat="43.3578507" lon="10.90462"><ele>274.0</ele><time>2026-05-01T14:05:53.661Z</time></trkpt><trkpt lat="43.3579311" lon="10.904693"><ele>274.0</ele><time>2026-05-01T14:05:54.665Z</time></trkpt><trkpt lat="43.3580186" lon="10.9047576"><ele>274.0</ele><time>2026-05-01T14:05:55.666Z</time></trkpt><trkpt lat="43.3581073" lon="10.9048179"><ele>274.0</ele><time>2026-05-01T14:05:56.653Z</time></trkpt><trkpt lat="43.3581974" lon="10.904866"><ele>274.0</ele><time>2026-05-01T14:05:57.663Z</time></trkpt><trkpt lat="43.3582912" lon="10.9049051"><ele>274.0</ele><time>2026-05-01T14:05:58.644Z</time></trkpt><trkpt lat="43.3583839" lon="10.904934"><ele>274.0</ele><time>2026-05-01T14:05:59.665Z</time></trkpt><trkpt lat="43.3584777" lon="10.9049425"><ele>274.0</ele><time>2026-05-01T14:06:00.65Z</time></trkpt><trkpt lat="43.3585693" lon="10.9049399"><ele>274.0</ele><time>2026-05-01T14:06:01.668Z</time></trkpt><trkpt lat="43.3586568" lon="10.9049295"><ele>274.0</ele><time>2026-05-01T14:06:02.65Z</time></trkpt><trkpt lat="43.3587403" lon="10.904916"><ele>274.0</ele><time>2026-05-01T14:06:03.651Z</time></trkpt><trkpt lat="43.3588226" lon="10.9048897"><ele>274.0</ele><time>2026-05-01T14:06:04.663Z</time></trkpt><trkpt lat="43.3589073" lon="10.9048476"><ele>274.0</ele><time>2026-05-01T14:06:05.654Z</time></trkpt><trkpt lat="43.3589841" lon="10.904785"><ele>274.0</ele><time>2026-05-01T14:06:06.655Z</time></trkpt><trkpt lat="43.3590522" lon="10.9047138"><ele>274.0</ele><time>2026-05-01T14:06:07.661Z</time></trkpt><trkpt lat="43.3591254" lon="10.9046196"><ele>274.0</ele><time>2026-05-01T14:06:08.649Z</time></trkpt><trkpt lat="43.3592012" lon="10.9045295"><ele>274.0</ele><time>2026-05-01T14:06:09.653Z</time></trkpt><trkpt lat="43.3592818" lon="10.9044597"><ele>274.0</ele><time>2026-05-01T14:06:10.663Z</time></trkpt><trkpt lat="43.3593732" lon="10.9043996"><ele>274.0</ele><time>2026-05-01T14:06:11.648Z</time></trkpt><trkpt lat="43.3594669" lon="10.9043555"><ele>274.0</ele><time>2026-05-01T14:06:12.666Z</time></trkpt><trkpt lat="43.3595658" lon="10.9043234"><ele>274.0</ele><time>2026-05-01T14:06:13.654Z</time></trkpt><trkpt lat="43.359674" lon="10.9042866"><ele>274.0</ele><time>2026-05-01T14:06:14.667Z</time></trkpt><trkpt lat="43.3597926" lon="10.9042235"><ele>274.0</ele><time>2026-05-01T14:06:15.655Z</time></trkpt><trkpt lat="43.3599179" lon="10.9041613"><ele>274.0</ele><time>2026-05-01T14:06:16.661Z</time></trkpt><trkpt lat="43.3600365" lon="10.9040933"><ele>274.75</ele><time>2026-05-01T14:06:17.674Z</time></trkpt><trkpt lat="43.3601594" lon="10.9040267"><ele>275.5</ele><time>2026-05-01T14:06:18.66Z</time></trkpt><trkpt lat="43.3602857" lon="10.9039649"><ele>276.25</ele><time>2026-05-01T14:06:19.66Z</time></trkpt><trkpt lat="43.3604106" lon="10.9039351"><ele>277.0</ele><time>2026-05-01T14:06:20.653Z</time></trkpt><trkpt lat="43.360516" lon="10.903932"><ele>277.6</ele><time>2026-05-01T14:06:21.661Z</time></trkpt><trkpt lat="43.3605872" lon="10.9039409"><ele>278.2</ele><time>2026-05-01T14:06:22.646Z</time></trkpt><trkpt lat="43.3606573" lon="10.9039681"><ele>278.8</ele><time>2026-05-01T14:06:24.665Z</time></trkpt><trkpt lat="43.3607285" lon="10.903982"><ele>279.4</ele><time>2026-05-01T14:06:26.676Z</time></trkpt><trkpt lat="43.3608442" lon="10.9040087"><ele>280.0</ele><time>2026-05-01T14:06:28.657Z</time></trkpt><trkpt lat="43.360971" lon="10.9040611"><ele>280.0</ele><time>2026-05-01T14:06:30.66Z</time></trkpt><trkpt lat="43.3610444" lon="10.9040877"><ele>280.0</ele><time>2026-05-01T14:06:31.659Z</time></trkpt><trkpt lat="43.3611368" lon="10.9041152"><ele>280.0</ele><time>2026-05-01T14:06:32.661Z</time></trkpt><trkpt lat="43.3612392" lon="10.9041496"><ele>280.0</ele><time>2026-05-01T14:06:33.662Z</time></trkpt><trkpt lat="43.3613565" lon="10.9041872"><ele>280.0</ele><time>2026-05-01T14:06:34.671Z</time></trkpt><trkpt lat="43.3614779" lon="10.9042364"><ele>280.25</ele><time>2026-05-01T14:06:35.663Z</time></trkpt><trkpt lat="43.361597" lon="10.9042859"><ele>280.5</ele><time>2026-05-01T14:06:36.65Z</time></trkpt><trkpt lat="43.3617198" lon="10.9043363"><ele>280.75</ele><time>2026-05-01T14:06:37.661Z</time></trkpt><trkpt lat="43.3618425" lon="10.904387"><ele>281.0</ele><time>2026-05-01T14:06:38.666Z</time></trkpt><trkpt lat="43.3619619" lon="10.9044299"><ele>281.0</ele><time>2026-05-01T14:06:39.651Z</time></trkpt><trkpt lat="43.3620817" lon="10.9044685"><ele>281.0</ele><time>2026-05-01T14:06:40.662Z</time></trkpt><trkpt lat="43.3621961" lon="10.9044872"><ele>281.0</ele><time>2026-05-01T14:06:41.662Z</time></trkpt><trkpt lat="43.3623087" lon="10.9044903"><ele>281.0</ele><time>2026-05-01T14:06:42.672Z</time></trkpt><trkpt lat="43.3624235" lon="10.9045044"><ele>282.75</ele><time>2026-05-01T14:06:43.656Z</time></trkpt><trkpt lat="43.3625346" lon="10.9045247"><ele>284.5</ele><time>2026-05-01T14:06:44.653Z</time></trkpt><trkpt lat="43.3626493" lon="10.9045539"><ele>286.25</ele><time>2026-05-01T14:06:45.658Z</time></trkpt><trkpt lat="43.3627673" lon="10.9045808"><ele>288.0</ele><time>2026-05-01T14:06:46.664Z</time></trkpt><trkpt lat="43.3628867" lon="10.9046187"><ele>288.0</ele><time>2026-05-01T14:06:47.658Z</time></trkpt><trkpt lat="43.3630063" lon="10.9046494"><ele>288.0</ele><time>2026-05-01T14:06:48.657Z</time></trkpt><trkpt lat="43.3631206" lon="10.904676"><ele>288.0</ele><time>2026-05-01T14:06:49.67Z</time></trkpt><trkpt lat="43.3632206" lon="10.9047004"><ele>288.0</ele><time>2026-05-01T14:06:50.666Z</time></trkpt><trkpt lat="43.3633095" lon="10.9047463"><ele>288.0</ele><time>2026-05-01T14:06:51.668Z</time></trkpt><trkpt lat="43.363397" lon="10.904805"><ele>288.0</ele><time>2026-05-01T14:06:52.669Z</time></trkpt><trkpt lat="43.3634883" lon="10.9048699"><ele>288.0</ele><time>2026-05-01T14:06:53.657Z</time></trkpt><trkpt lat="43.3635873" lon="10.9049458"><ele>288.0</ele><time>2026-05-01T14:06:54.661Z</time></trkpt><trkpt lat="43.3636885" lon="10.9050178"><ele>288.0</ele><time>2026-05-01T14:06:55.655Z</time></trkpt><trkpt lat="43.3637956" lon="10.9050897"><ele>288.0</ele><time>2026-05-01T14:06:56.658Z</time></trkpt><trkpt lat="43.3639048" lon="10.9051566"><ele>287.25</ele><time>2026-05-01T14:06:57.662Z</time></trkpt><trkpt lat="43.3640162" lon="10.905227"><ele>286.5</ele><time>2026-05-01T14:06:58.656Z</time></trkpt><trkpt lat="43.3641269" lon="10.9052978"><ele>285.75</ele><time>2026-05-01T14:06:59.672Z</time></trkpt><trkpt lat="43.3642382" lon="10.9053718"><ele>285.0</ele><time>2026-05-01T14:07:00.656Z</time></trkpt><trkpt lat="43.3643461" lon="10.9054458"><ele>285.0</ele><time>2026-05-01T14:07:01.672Z</time></trkpt><trkpt lat="43.364455" lon="10.9055167"><ele>285.0</ele><time>2026-05-01T14:07:02.663Z</time></trkpt><trkpt lat="43.36456" lon="10.9055831"><ele>285.0</ele><time>2026-05-01T14:07:03.66Z</time></trkpt><trkpt lat="43.3646661" lon="10.9056474"><ele>285.0</ele><time>2026-05-01T14:07:04.67Z</time></trkpt><trkpt lat="43.3647698" lon="10.9057059"><ele>283.2</ele><time>2026-05-01T14:07:05.649Z</time></trkpt><trkpt lat="43.3648689" lon="10.9057608"><ele>281.4</ele><time>2026-05-01T14:07:06.673Z</time></trkpt><trkpt lat="43.3649682" lon="10.9057966"><ele>279.6</ele><time>2026-05-01T14:07:07.725Z</time></trkpt><trkpt lat="43.3650744" lon="10.905817"><ele>277.8</ele><time>2026-05-01T14:07:08.653Z</time></trkpt><trkpt lat="43.3651902" lon="10.9058185"><ele>276.0</ele><time>2026-05-01T14:07:09.68Z</time></trkpt><trkpt lat="43.3653037" lon="10.9058179"><ele>276.0</ele><time>2026-05-01T14:07:10.664Z</time></trkpt><trkpt lat="43.3654229" lon="10.9058206"><ele>276.0</ele><time>2026-05-01T14:07:11.674Z</time></trkpt><trkpt lat="43.3655472" lon="10.9058199"><ele>276.0</ele><time>2026-05-01T14:07:12.654Z</time></trkpt><trkpt lat="43.3656694" lon="10.9058184"><ele>276.0</ele><time>2026-05-01T14:07:13.658Z</time></trkpt><trkpt lat="43.36578" lon="10.9058168"><ele>276.2</ele><time>2026-05-01T14:07:14.659Z</time></trkpt><trkpt lat="43.3658881" lon="10.9058173"><ele>276.40000000000003</ele><time>2026-05-01T14:07:15.666Z</time></trkpt><trkpt lat="43.3659936" lon="10.905839"><ele>276.6</ele><time>2026-05-01T14:07:16.661Z</time></trkpt><trkpt lat="43.3660841" lon="10.9058883"><ele>276.8</ele><time>2026-05-01T14:07:17.69Z</time></trkpt><trkpt lat="43.3661704" lon="10.9059575"><ele>277.0</ele><time>2026-05-01T14:07:18.664Z</time></trkpt><trkpt lat="43.3662541" lon="10.9060514"><ele>276.75</ele><time>2026-05-01T14:07:19.658Z</time></trkpt><trkpt lat="43.3663454" lon="10.9061494"><ele>276.5</ele><time>2026-05-01T14:07:20.662Z</time></trkpt><trkpt lat="43.3664434" lon="10.9062365"><ele>276.25</ele><time>2026-05-01T14:07:21.665Z</time></trkpt><trkpt lat="43.3665392" lon="10.9063411"><ele>276.0</ele><time>2026-05-01T14:07:22.663Z</time></trkpt><trkpt lat="43.3666373" lon="10.9064461"><ele>276.0</ele><time>2026-05-01T14:07:23.648Z</time></trkpt><trkpt lat="43.3667358" lon="10.9065496"><ele>276.0</ele><time>2026-05-01T14:07:24.671Z</time></trkpt><trkpt lat="43.3668414" lon="10.9066414"><ele>276.0</ele><time>2026-05-01T14:07:25.669Z</time></trkpt><trkpt lat="43.3669495" lon="10.9067275"><ele>276.0</ele><time>2026-05-01T14:07:26.651Z</time></trkpt><trkpt lat="43.3670587" lon="10.9068033"><ele>276.0</ele><time>2026-05-01T14:07:27.664Z</time></trkpt><trkpt lat="43.3671603" lon="10.9068741"><ele>276.0</ele><time>2026-05-01T14:07:28.658Z</time></trkpt><trkpt lat="43.3672556" lon="10.9069429"><ele>276.0</ele><time>2026-05-01T14:07:29.677Z</time></trkpt><trkpt lat="43.3673483" lon="10.9070072"><ele>276.0</ele><time>2026-05-01T14:07:30.66Z</time></trkpt><trkpt lat="43.3674397" lon="10.9070559"><ele>276.0</ele><time>2026-05-01T14:07:31.659Z</time></trkpt><trkpt lat="43.3675272" lon="10.9070852"><ele>276.0</ele><time>2026-05-01T14:07:32.662Z</time></trkpt><trkpt lat="43.3676187" lon="10.9070979"><ele>276.0</ele><time>2026-05-01T14:07:33.662Z</time></trkpt><trkpt lat="43.3677128" lon="10.9070974"><ele>276.0</ele><time>2026-05-01T14:07:34.674Z</time></trkpt><trkpt lat="43.3678127" lon="10.907093"><ele>276.0</ele><time>2026-05-01T14:07:35.675Z</time></trkpt><trkpt lat="43.3678995" lon="10.9070932"><ele>276.0</ele><time>2026-05-01T14:07:36.652Z</time></trkpt><trkpt lat="43.3679746" lon="10.9071015"><ele>276.0</ele><time>2026-05-01T14:07:37.663Z</time></trkpt><trkpt lat="43.3680513" lon="10.9071236"><ele>277.7142857142857</ele><time>2026-05-01T14:07:38.668Z</time></trkpt><trkpt lat="43.3681206" lon="10.9071497"><ele>279.42857142857144</ele><time>2026-05-01T14:07:39.66Z</time></trkpt><trkpt lat="43.3681859" lon="10.907178"><ele>281.14285714285717</ele><time>2026-05-01T14:07:40.659Z</time></trkpt><trkpt lat="43.3682458" lon="10.907208"><ele>282.8571428571429</ele><time>2026-05-01T14:07:41.663Z</time></trkpt><trkpt lat="43.3683205" lon="10.9072604"><ele>284.57142857142856</ele><time>2026-05-01T14:07:43.647Z</time></trkpt><trkpt lat="43.3683079" lon="10.9073691"><ele>286.28571428571433</ele><time>2026-05-01T14:08:35.654Z</time></trkpt><trkpt lat="43.368248" lon="10.907405"><ele>288.0</ele><time>2026-05-01T14:08:37.671Z</time></trkpt><trkpt lat="43.3681541" lon="10.9074387"><ele>288.0</ele><time>2026-05-01T14:08:39.666Z</time></trkpt><trkpt lat="43.3680618" lon="10.9074864"><ele>288.0</ele><time>2026-05-01T14:08:41.667Z</time></trkpt><trkpt lat="43.3679784" lon="10.9075516"><ele>288.0</ele><time>2026-05-01T14:08:43.671Z</time></trkpt><trkpt lat="43.3679269" lon="10.9076616"><ele>288.0</ele><time>2026-05-01T14:08:45.662Z</time></trkpt><trkpt lat="43.3679419" lon="10.9078049"><ele>288.0</ele><time>2026-05-01T14:08:47.667Z</time></trkpt><trkpt lat="43.3680195" lon="10.907934"><ele>285.6666666666667</ele><time>2026-05-01T14:08:49.656Z</time></trkpt><trkpt lat="43.3681001" lon="10.908052"><ele>283.3333333333333</ele><time>2026-05-01T14:08:51.658Z</time></trkpt><trkpt lat="43.3681528" lon="10.908188"><ele>281.0</ele><time>2026-05-01T14:08:53.663Z</time></trkpt><trkpt lat="43.3681694" lon="10.9082802"><ele>278.66666666666663</ele><time>2026-05-01T14:08:54.656Z</time></trkpt><trkpt lat="43.3681823" lon="10.9083746"><ele>276.3333333333333</ele><time>2026-05-01T14:08:55.663Z</time></trkpt><trkpt lat="43.3682002" lon="10.9084726"><ele>274.0</ele><time>2026-05-01T14:08:56.658Z</time></trkpt><trkpt lat="43.3682168" lon="10.9085738"><ele>272.28571428571433</ele><time>2026-05-01T14:08:57.661Z</time></trkpt><trkpt lat="43.3682389" lon="10.9086626"><ele>270.57142857142856</ele><time>2026-05-01T14:08:58.66Z</time></trkpt><trkpt lat="43.3682603" lon="10.9087555"><ele>268.8571428571429</ele><time>2026-05-01T14:08:59.659Z</time></trkpt><trkpt lat="43.3682779" lon="10.9088499"><ele>267.14285714285717</ele><time>2026-05-01T14:09:00.67Z</time></trkpt><trkpt lat="43.3682858" lon="10.9089468"><ele>265.42857142857144</ele><time>2026-05-01T14:09:01.66Z</time></trkpt><trkpt lat="43.3682816" lon="10.9090515"><ele>263.7142857142857</ele><time>2026-05-01T14:09:02.65Z</time></trkpt><trkpt lat="43.3682805" lon="10.9091492"><ele>262.0</ele><time>2026-05-01T14:09:03.653Z</time></trkpt><trkpt lat="43.368282" lon="10.9092542"><ele>260.3333333333333</ele><time>2026-05-01T14:09:04.658Z</time></trkpt><trkpt lat="43.368293" lon="10.9093518"><ele>258.66666666666663</ele><time>2026-05-01T14:09:05.666Z</time></trkpt><trkpt lat="43.3683025" lon="10.9094526"><ele>257.0</ele><time>2026-05-01T14:09:06.668Z</time></trkpt><trkpt lat="43.3683118" lon="10.9095562"><ele>255.33333333333331</ele><time>2026-05-01T14:09:07.666Z</time></trkpt><trkpt lat="43.3683006" lon="10.9096707"><ele>253.66666666666666</ele><time>2026-05-01T14:09:08.656Z</time></trkpt><trkpt lat="43.368264" lon="10.9097717"><ele>252.0</ele><time>2026-05-01T14:09:09.681Z</time></trkpt><trkpt lat="43.3682281" lon="10.9098733"><ele>252.0</ele><time>2026-05-01T14:09:10.654Z</time></trkpt><trkpt lat="43.3682112" lon="10.9099731"><ele>252.0</ele><time>2026-05-01T14:09:11.654Z</time></trkpt><trkpt lat="43.368202" lon="10.9100677"><ele>252.0</ele><time>2026-05-01T14:09:12.663Z</time></trkpt><trkpt lat="43.3681969" lon="10.9101558"><ele>252.0</ele><time>2026-05-01T14:09:13.659Z</time></trkpt><trkpt lat="43.3681973" lon="10.9102431"><ele>252.0</ele><time>2026-05-01T14:09:14.662Z</time></trkpt><trkpt lat="43.3682092" lon="10.9104041"><ele>252.0</ele><time>2026-05-01T14:09:16.649Z</time></trkpt><trkpt lat="43.3682033" lon="10.9105214"><ele>250.5</ele><time>2026-05-01T14:09:18.658Z</time></trkpt><trkpt lat="43.3681311" lon="10.9106076"><ele>249.0</ele><time>2026-05-01T14:09:20.664Z</time></trkpt><trkpt lat="43.3680496" lon="10.9106623"><ele>247.5</ele><time>2026-05-01T14:09:22.664Z</time></trkpt><trkpt lat="43.3679999" lon="10.9107457"><ele>246.0</ele><time>2026-05-01T14:09:24.653Z</time></trkpt><trkpt lat="43.36799" lon="10.9108895"><ele>244.5</ele><time>2026-05-01T14:09:26.662Z</time></trkpt><trkpt lat="43.3680004" lon="10.9109789"><ele>243.0</ele><time>2026-05-01T14:09:27.666Z</time></trkpt><trkpt lat="43.3680126" lon="10.9110785"><ele>238.0</ele><time>2026-05-01T14:09:28.664Z</time></trkpt><trkpt lat="43.3680219" lon="10.9111705"><ele>233.0</ele><time>2026-05-01T14:09:29.657Z</time></trkpt><trkpt lat="43.3680209" lon="10.9112672"><ele>228.0</ele><time>2026-05-01T14:09:30.651Z</time></trkpt><trkpt lat="43.3679885" lon="10.91143"><ele>223.0</ele><time>2026-05-01T14:09:32.65Z</time></trkpt><trkpt lat="43.3679097" lon="10.9115453"><ele>218.0</ele><time>2026-05-01T14:09:34.662Z</time></trkpt><trkpt lat="43.3677821" lon="10.9115693"><ele>218.0</ele><time>2026-05-01T14:09:36.666Z</time></trkpt><trkpt lat="43.36772" lon="10.9115366"><ele>218.0</ele><time>2026-05-01T14:09:37.659Z</time></trkpt><trkpt lat="43.3676607" lon="10.9114831"><ele>218.0</ele><time>2026-05-01T14:09:38.664Z</time></trkpt><trkpt lat="43.3676144" lon="10.9114132"><ele>218.0</ele><time>2026-05-01T14:09:39.658Z</time></trkpt><trkpt lat="43.3675775" lon="10.9113366"><ele>218.0</ele><time>2026-05-01T14:09:40.658Z</time></trkpt><trkpt lat="43.3675423" lon="10.9112627"><ele>218.0</ele><time>2026-05-01T14:09:41.667Z</time></trkpt><trkpt lat="43.3675096" lon="10.911177"><ele>218.0</ele><time>2026-05-01T14:09:42.664Z</time></trkpt><trkpt lat="43.3674766" lon="10.9110926"><ele>218.0</ele><time>2026-05-01T14:09:43.67Z</time></trkpt><trkpt lat="43.367437" lon="10.9110114"><ele>218.0</ele><time>2026-05-01T14:09:44.664Z</time></trkpt><trkpt lat="43.3673796" lon="10.9109454"><ele>218.0</ele><time>2026-05-01T14:09:45.662Z</time></trkpt><trkpt lat="43.3673097" lon="10.9109107"><ele>218.0</ele><time>2026-05-01T14:09:46.661Z</time></trkpt><trkpt lat="43.3672381" lon="10.9109105"><ele>218.0</ele><time>2026-05-01T14:09:47.669Z</time></trkpt><trkpt lat="43.3671652" lon="10.9109273"><ele>218.0</ele><time>2026-05-01T14:09:48.666Z</time></trkpt><trkpt lat="43.3670983" lon="10.9109363"><ele>218.0</ele><time>2026-05-01T14:09:49.67Z</time></trkpt><trkpt lat="43.3669755" lon="10.9109719"><ele>215.4</ele><time>2026-05-01T14:09:51.664Z</time></trkpt><trkpt lat="43.3669002" lon="10.9110675"><ele>212.8</ele><time>2026-05-01T14:09:53.66Z</time></trkpt><trkpt lat="43.3669236" lon="10.9112241"><ele>210.2</ele><time>2026-05-01T14:09:55.663Z</time></trkpt><trkpt lat="43.3669618" lon="10.9113028"><ele>207.6</ele><time>2026-05-01T14:09:56.667Z</time></trkpt><trkpt lat="43.3669998" lon="10.9113784"><ele>205.0</ele><time>2026-05-01T14:09:57.662Z</time></trkpt><trkpt lat="43.3670302" lon="10.911549"><ele>204.99999999999997</ele><time>2026-05-01T14:09:59.657Z</time></trkpt><trkpt lat="43.3670088" lon="10.9116332"><ele>205.0</ele><time>2026-05-01T14:10:00.656Z</time></trkpt><trkpt lat="43.3669577" lon="10.9117052"><ele>205.0</ele><time>2026-05-01T14:10:01.658Z</time></trkpt><trkpt lat="43.3668937" lon="10.9117642"><ele>205.0</ele><time>2026-05-01T14:10:02.673Z</time></trkpt><trkpt lat="43.3668146" lon="10.9118202"><ele>204.99999999999997</ele><time>2026-05-01T14:10:03.656Z</time></trkpt><trkpt lat="43.3667334" lon="10.911877"><ele>205.0</ele><time>2026-05-01T14:10:04.667Z</time></trkpt><trkpt lat="43.3666586" lon="10.9119398"><ele>203.66666666666666</ele><time>2026-05-01T14:10:05.663Z</time></trkpt><trkpt lat="43.366592" lon="10.9120126"><ele>202.33333333333331</ele><time>2026-05-01T14:10:06.653Z</time></trkpt><trkpt lat="43.3665371" lon="10.912103"><ele>201.0</ele><time>2026-05-01T14:10:07.661Z</time></trkpt><trkpt lat="43.3664915" lon="10.9122003"><ele>199.66666666666669</ele><time>2026-05-01T14:10:08.66Z</time></trkpt><trkpt lat="43.3664492" lon="10.9122997"><ele>198.33333333333334</ele><time>2026-05-01T14:10:09.663Z</time></trkpt><trkpt lat="43.3664076" lon="10.9124009"><ele>197.0</ele><time>2026-05-01T14:10:10.659Z</time></trkpt><trkpt lat="43.3663605" lon="10.9125091"><ele>194.6</ele><time>2026-05-01T14:10:11.656Z</time></trkpt><trkpt lat="43.3663145" lon="10.9126183"><ele>192.2</ele><time>2026-05-01T14:10:12.657Z</time></trkpt><trkpt lat="43.3662618" lon="10.9127359"><ele>189.8</ele><time>2026-05-01T14:10:13.659Z</time></trkpt><trkpt lat="43.3662066" lon="10.9128582"><ele>187.4</ele><time>2026-05-01T14:10:14.666Z</time></trkpt><trkpt lat="43.3661539" lon="10.9129757"><ele>185.0</ele><time>2026-05-01T14:10:15.682Z</time></trkpt><trkpt lat="43.3661051" lon="10.9130929"><ele>185.0</ele><time>2026-05-01T14:10:16.669Z</time></trkpt><trkpt lat="43.3660573" lon="10.9132045"><ele>185.0</ele><time>2026-05-01T14:10:17.66Z</time></trkpt><trkpt lat="43.36601" lon="10.913314"><ele>185.0</ele><time>2026-05-01T14:10:18.657Z</time></trkpt><trkpt lat="43.3659626" lon="10.9134227"><ele>185.0</ele><time>2026-05-01T14:10:19.652Z</time></trkpt><trkpt lat="43.3659166" lon="10.9135342"><ele>185.0</ele><time>2026-05-01T14:10:20.675Z</time></trkpt><trkpt lat="43.3658691" lon="10.9136507"><ele>183.6</ele><time>2026-05-01T14:10:21.663Z</time></trkpt><trkpt lat="43.3658189" lon="10.9137688"><ele>182.2</ele><time>2026-05-01T14:10:22.656Z</time></trkpt><trkpt lat="43.3657625" lon="10.9138906"><ele>180.8</ele><time>2026-05-01T14:10:23.665Z</time></trkpt><trkpt lat="43.365706" lon="10.9140148"><ele>179.4</ele><time>2026-05-01T14:10:24.663Z</time></trkpt><trkpt lat="43.3656487" lon="10.914143"><ele>178.0</ele><time>2026-05-01T14:10:25.687Z</time></trkpt><trkpt lat="43.3655912" lon="10.9142724"><ele>176.4</ele><time>2026-05-01T14:10:26.66Z</time></trkpt><trkpt lat="43.3655344" lon="10.9144008"><ele>174.8</ele><time>2026-05-01T14:10:27.652Z</time></trkpt><trkpt lat="43.3654861" lon="10.9145215"><ele>173.2</ele><time>2026-05-01T14:10:28.668Z</time></trkpt><trkpt lat="43.3654457" lon="10.914635"><ele>171.6</ele><time>2026-05-01T14:10:29.653Z</time></trkpt><trkpt lat="43.3654093" lon="10.914752"><ele>170.0</ele><time>2026-05-01T14:10:30.68Z</time></trkpt><trkpt lat="43.3653809" lon="10.914862"><ele>169.83333333333331</ele><time>2026-05-01T14:10:31.666Z</time></trkpt><trkpt lat="43.3653576" lon="10.9149627"><ele>169.66666666666666</ele><time>2026-05-01T14:10:32.671Z</time></trkpt><trkpt lat="43.3653363" lon="10.91506"><ele>169.5</ele><time>2026-05-01T14:10:33.658Z</time></trkpt><trkpt lat="43.3653168" lon="10.9151591"><ele>169.33333333333334</ele><time>2026-05-01T14:10:34.664Z</time></trkpt><trkpt lat="43.3652954" lon="10.9152565"><ele>169.16666666666669</ele><time>2026-05-01T14:10:35.658Z</time></trkpt><trkpt lat="43.3652757" lon="10.9153592"><ele>169.0</ele><time>2026-05-01T14:10:36.66Z</time></trkpt><trkpt lat="43.3652592" lon="10.915468"><ele>168.0</ele><time>2026-05-01T14:10:37.657Z</time></trkpt><trkpt lat="43.3652418" lon="10.9155667"><ele>167.0</ele><time>2026-05-01T14:10:38.657Z</time></trkpt><trkpt lat="43.365217" lon="10.9156698"><ele>166.0</ele><time>2026-05-01T14:10:39.662Z</time></trkpt><trkpt lat="43.3651861" lon="10.9157673"><ele>165.0</ele><time>2026-05-01T14:10:40.691Z</time></trkpt><trkpt lat="43.3651518" lon="10.9158689"><ele>164.0</ele><time>2026-05-01T14:10:41.665Z</time></trkpt><trkpt lat="43.3651089" lon="10.9159624"><ele>163.0</ele><time>2026-05-01T14:10:42.667Z</time></trkpt><trkpt lat="43.3650618" lon="10.9160455"><ele>162.83333333333334</ele><time>2026-05-01T14:10:43.662Z</time></trkpt><trkpt lat="43.3650138" lon="10.9161163"><ele>162.66666666666669</ele><time>2026-05-01T14:10:44.666Z</time></trkpt><trkpt lat="43.3649197" lon="10.9162237"><ele>162.5</ele><time>2026-05-01T14:10:46.653Z</time></trkpt><trkpt lat="43.3648191" lon="10.9163107"><ele>162.33333333333334</ele><time>2026-05-01T14:10:48.667Z</time></trkpt><trkpt lat="43.3647577" lon="10.9163482"><ele>162.16666666666666</ele><time>2026-05-01T14:10:49.656Z</time></trkpt><trkpt lat="43.3646917" lon="10.9163783"><ele>162.0</ele><time>2026-05-01T14:10:50.662Z</time></trkpt><trkpt lat="43.3646242" lon="10.9164104"><ele>161.4</ele><time>2026-05-01T14:10:51.664Z</time></trkpt><trkpt lat="43.364555" lon="10.9164396"><ele>160.79999999999998</ele><time>2026-05-01T14:10:52.678Z</time></trkpt><trkpt lat="43.3644485" lon="10.9164944"><ele>160.2</ele><time>2026-05-01T14:10:54.66Z</time></trkpt><trkpt lat="43.3643602" lon="10.916544"><ele>159.6</ele><time>2026-05-01T14:10:56.658Z</time></trkpt><trkpt lat="43.3642723" lon="10.9165874"><ele>159.0</ele><time>2026-05-01T14:10:58.654Z</time></trkpt><trkpt lat="43.3641841" lon="10.9166297"><ele>159.0</ele><time>2026-05-01T14:11:00.653Z</time></trkpt><trkpt lat="43.3641065" lon="10.9166577"><ele>159.0</ele><time>2026-05-01T14:11:02.659Z</time></trkpt><trkpt lat="43.3640118" lon="10.9167031"><ele>159.0</ele><time>2026-05-01T14:11:04.658Z</time></trkpt><trkpt lat="43.3639345" lon="10.9167345"><ele>159.0</ele><time>2026-05-01T14:11:06.662Z</time></trkpt><trkpt lat="43.3638659" lon="10.9167686"><ele>159.0</ele><time>2026-05-01T14:12:34.665Z</time></trkpt><trkpt lat="43.3637829" lon="10.9168298"><ele>159.0</ele><time>2026-05-01T14:12:37.662Z</time></trkpt><trkpt lat="43.3636977" lon="10.9169061"><ele>158.5</ele><time>2026-05-01T14:12:39.673Z</time></trkpt><trkpt lat="43.3635958" lon="10.916985"><ele>158.0</ele><time>2026-05-01T14:12:41.656Z</time></trkpt><trkpt lat="43.3635349" lon="10.9170418"><ele>157.5</ele><time>2026-05-01T14:12:42.66Z</time></trkpt><trkpt lat="43.363471" lon="10.9170972"><ele>157.0</ele><time>2026-05-01T14:12:43.674Z</time></trkpt><trkpt lat="43.3634073" lon="10.9171558"><ele>156.5</ele><time>2026-05-01T14:12:44.659Z</time></trkpt><trkpt lat="43.3633384" lon="10.9172012"><ele>156.0</ele><time>2026-05-01T14:12:45.654Z</time></trkpt><trkpt lat="43.3632767" lon="10.9172572"><ele>156.0</ele><time>2026-05-01T14:12:46.658Z</time></trkpt><trkpt lat="43.363212" lon="10.9173182"><ele>156.0</ele><time>2026-05-01T14:12:47.668Z</time></trkpt><trkpt lat="43.3631449" lon="10.9173788"><ele>156.0</ele><time>2026-05-01T14:12:48.665Z</time></trkpt><trkpt lat="43.3630826" lon="10.9174339"><ele>156.0</ele><time>2026-05-01T14:12:49.668Z</time></trkpt><trkpt lat="43.3630125" lon="10.9174896"><ele>156.0</ele><time>2026-05-01T14:12:50.664Z</time></trkpt><trkpt lat="43.3629427" lon="10.9175427"><ele>156.0</ele><time>2026-05-01T14:12:51.661Z</time></trkpt><trkpt lat="43.3628676" lon="10.9175994"><ele>155.33333333333334</ele><time>2026-05-01T14:12:52.657Z</time></trkpt><trkpt lat="43.362796" lon="10.9176592"><ele>154.66666666666666</ele><time>2026-05-01T14:12:53.647Z</time></trkpt><trkpt lat="43.362726" lon="10.9177106"><ele>154.0</ele><time>2026-05-01T14:12:54.654Z</time></trkpt><trkpt lat="43.3626564" lon="10.9177771"><ele>153.33333333333331</ele><time>2026-05-01T14:12:55.663Z</time></trkpt><trkpt lat="43.3625962" lon="10.9178383"><ele>152.66666666666666</ele><time>2026-05-01T14:12:56.657Z</time></trkpt><trkpt lat="43.3625334" lon="10.9179035"><ele>152.0</ele><time>2026-05-01T14:12:57.66Z</time></trkpt><trkpt lat="43.3624719" lon="10.9179828"><ele>152.0</ele><time>2026-05-01T14:12:58.662Z</time></trkpt><trkpt lat="43.3624112" lon="10.9180702"><ele>152.0</ele><time>2026-05-01T14:12:59.652Z</time></trkpt><trkpt lat="43.3623575" lon="10.9181592"><ele>152.0</ele><time>2026-05-01T14:13:00.662Z</time></trkpt><trkpt lat="43.3623103" lon="10.9182429"><ele>152.0</ele><time>2026-05-01T14:13:01.648Z</time></trkpt><trkpt lat="43.3622686" lon="10.918318"><ele>152.0</ele><time>2026-05-01T14:13:02.655Z</time></trkpt><trkpt lat="43.3622348" lon="10.9183929"><ele>152.0</ele><time>2026-05-01T14:13:03.658Z</time></trkpt><trkpt lat="43.3621857" lon="10.9185337"><ele>150.83333333333331</ele><time>2026-05-01T14:13:05.661Z</time></trkpt><trkpt lat="43.3621508" lon="10.9186588"><ele>149.66666666666666</ele><time>2026-05-01T14:13:07.661Z</time></trkpt><trkpt lat="43.3621239" lon="10.9187708"><ele>148.5</ele><time>2026-05-01T14:13:09.661Z</time></trkpt><trkpt lat="43.3620992" lon="10.9188703"><ele>147.33333333333334</ele><time>2026-05-01T14:13:11.666Z</time></trkpt><trkpt lat="43.3620809" lon="10.9189625"><ele>146.16666666666669</ele><time>2026-05-01T14:13:13.654Z</time></trkpt><trkpt lat="43.3620718" lon="10.9190579"><ele>145.0</ele><time>2026-05-01T14:13:15.681Z</time></trkpt><trkpt lat="43.3620697" lon="10.919171"><ele>144.5</ele><time>2026-05-01T14:13:17.666Z</time></trkpt><trkpt lat="43.3620652" lon="10.9193257"><ele>144.0</ele><time>2026-05-01T14:13:19.665Z</time></trkpt><trkpt lat="43.3620746" lon="10.9194876"><ele>143.5</ele><time>2026-05-01T14:13:21.658Z</time></trkpt><trkpt lat="43.3620791" lon="10.9196553"><ele>143.0</ele><time>2026-05-01T14:13:23.658Z</time></trkpt><trkpt lat="43.3620781" lon="10.9198149"><ele>143.0</ele><time>2026-05-01T14:13:25.658Z</time></trkpt><trkpt lat="43.3620756" lon="10.9199561"><ele>143.0</ele><time>2026-05-01T14:13:27.653Z</time></trkpt><trkpt lat="43.3620742" lon="10.9200981"><ele>143.0</ele><time>2026-05-01T14:13:29.666Z</time></trkpt><trkpt lat="43.3620759" lon="10.9202546"><ele>143.0</ele><time>2026-05-01T14:13:31.661Z</time></trkpt><trkpt lat="43.3620751" lon="10.9203984"><ele>143.0</ele><time>2026-05-01T14:13:33.664Z</time></trkpt><trkpt lat="43.3620727" lon="10.9205037"><ele>143.0</ele><time>2026-05-01T14:13:35.664Z</time></trkpt><trkpt lat="43.3620672" lon="10.9206114"><ele>143.0</ele><time>2026-05-01T14:13:38.652Z</time></trkpt><trkpt lat="43.3620514" lon="10.9207454"><ele>143.0</ele><time>2026-05-01T14:14:44.663Z</time></trkpt><trkpt lat="43.3620418" lon="10.9208901"><ele>143.0</ele><time>2026-05-01T14:14:46.667Z</time></trkpt><trkpt lat="43.3620422" lon="10.9209819"><ele>143.0</ele><time>2026-05-01T14:14:47.66Z</time></trkpt><trkpt lat="43.3620374" lon="10.9210843"><ele>143.0</ele><time>2026-05-01T14:14:48.666Z</time></trkpt><trkpt lat="43.3620337" lon="10.9211986"><ele>143.0</ele><time>2026-05-01T14:14:49.657Z</time></trkpt><trkpt lat="43.3620343" lon="10.9213122"><ele>143.0</ele><time>2026-05-01T14:14:50.682Z</time></trkpt><trkpt lat="43.3620379" lon="10.9214361"><ele>143.0</ele><time>2026-05-01T14:14:51.656Z</time></trkpt><trkpt lat="43.3620435" lon="10.9215714"><ele>143.0</ele><time>2026-05-01T14:14:52.654Z</time></trkpt><trkpt lat="43.3620559" lon="10.9217281"><ele>143.0</ele><time>2026-05-01T14:14:53.661Z</time></trkpt><trkpt lat="43.3620713" lon="10.9218895"><ele>143.20000000000002</ele><time>2026-05-01T14:14:54.661Z</time></trkpt><trkpt lat="43.3620898" lon="10.9220393"><ele>143.4</ele><time>2026-05-01T14:14:55.656Z</time></trkpt><trkpt lat="43.3621146" lon="10.9221927"><ele>143.60000000000002</ele><time>2026-05-01T14:14:56.652Z</time></trkpt><trkpt lat="43.3621367" lon="10.9223394"><ele>143.8</ele><time>2026-05-01T14:14:57.653Z</time></trkpt><trkpt lat="43.3621545" lon="10.9224841"><ele>144.0</ele><time>2026-05-01T14:14:58.651Z</time></trkpt><trkpt lat="43.3621687" lon="10.9226428"><ele>144.25</ele><time>2026-05-01T14:14:59.659Z</time></trkpt><trkpt lat="43.3621699" lon="10.9228082"><ele>144.5</ele><time>2026-05-01T14:15:00.656Z</time></trkpt><trkpt lat="43.3621723" lon="10.9229751"><ele>144.75</ele><time>2026-05-01T14:15:01.656Z</time></trkpt><trkpt lat="43.3621783" lon="10.9231442"><ele>145.0</ele><time>2026-05-01T14:15:02.658Z</time></trkpt><trkpt lat="43.3621863" lon="10.9233059"><ele>146.0</ele><time>2026-05-01T14:15:03.654Z</time></trkpt><trkpt lat="43.3622013" lon="10.9234454"><ele>147.0</ele><time>2026-05-01T14:15:04.655Z</time></trkpt><trkpt lat="43.3622156" lon="10.9235781"><ele>148.0</ele><time>2026-05-01T14:15:05.659Z</time></trkpt><trkpt lat="43.3622358" lon="10.9237089"><ele>149.0</ele><time>2026-05-01T14:15:06.653Z</time></trkpt><trkpt lat="43.3622637" lon="10.9238486"><ele>150.0</ele><time>2026-05-01T14:15:07.657Z</time></trkpt><trkpt lat="43.362297" lon="10.9239838"><ele>150.0</ele><time>2026-05-01T14:15:08.668Z</time></trkpt><trkpt lat="43.3623373" lon="10.9241114"><ele>150.0</ele><time>2026-05-01T14:15:09.658Z</time></trkpt><trkpt lat="43.3623855" lon="10.9242115"><ele>150.0</ele><time>2026-05-01T14:15:10.666Z</time></trkpt><trkpt lat="43.3624443" lon="10.9242997"><ele>150.0</ele><time>2026-05-01T14:15:11.668Z</time></trkpt><trkpt lat="43.3625002" lon="10.9243964"><ele>150.0</ele><time>2026-05-01T14:15:12.655Z</time></trkpt><trkpt lat="43.3625502" lon="10.9245141"><ele>149.75</ele><time>2026-05-01T14:15:13.659Z</time></trkpt><trkpt lat="43.3625933" lon="10.9246746"><ele>149.5</ele><time>2026-05-01T14:15:14.657Z</time></trkpt><trkpt lat="43.3626233" lon="10.9248517"><ele>149.25</ele><time>2026-05-01T14:15:15.655Z</time></trkpt><trkpt lat="43.3626445" lon="10.9250184"><ele>149.0</ele><time>2026-05-01T14:15:16.662Z</time></trkpt><trkpt lat="43.3626783" lon="10.9251499"><ele>148.8</ele><time>2026-05-01T14:15:17.656Z</time></trkpt><trkpt lat="43.3627238" lon="10.9252634"><ele>148.60000000000002</ele><time>2026-05-01T14:15:18.662Z</time></trkpt><trkpt lat="43.3627824" lon="10.9253565"><ele>148.4</ele><time>2026-05-01T14:15:19.662Z</time></trkpt><trkpt lat="43.3628628" lon="10.9254323"><ele>148.20000000000002</ele><time>2026-05-01T14:15:20.661Z</time></trkpt><trkpt lat="43.3629531" lon="10.925516"><ele>148.0</ele><time>2026-05-01T14:15:21.665Z</time></trkpt><trkpt lat="43.3630424" lon="10.9255869"><ele>148.4</ele><time>2026-05-01T14:15:22.661Z</time></trkpt><trkpt lat="43.3631259" lon="10.9256406"><ele>148.8</ele><time>2026-05-01T14:15:23.654Z</time></trkpt><trkpt lat="43.3632097" lon="10.9256708"><ele>149.2</ele><time>2026-05-01T14:15:24.662Z</time></trkpt><trkpt lat="43.3632976" lon="10.925682"><ele>149.6</ele><time>2026-05-01T14:15:25.653Z</time></trkpt><trkpt lat="43.3633948" lon="10.9256789"><ele>150.0</ele><time>2026-05-01T14:15:26.653Z</time></trkpt><trkpt lat="43.3634915" lon="10.9256661"><ele>150.0</ele><time>2026-05-01T14:15:27.654Z</time></trkpt><trkpt lat="43.3635987" lon="10.9256472"><ele>150.0</ele><time>2026-05-01T14:15:28.642Z</time></trkpt><trkpt lat="43.3637085" lon="10.925629"><ele>150.0</ele><time>2026-05-01T14:15:29.662Z</time></trkpt><trkpt lat="43.3638195" lon="10.9256104"><ele>150.0</ele><time>2026-05-01T14:15:30.659Z</time></trkpt><trkpt lat="43.3639339" lon="10.9255951"><ele>150.0</ele><time>2026-05-01T14:15:31.665Z</time></trkpt><trkpt lat="43.3640443" lon="10.925597"><ele>149.75</ele><time>2026-05-01T14:15:32.656Z</time></trkpt><trkpt lat="43.3641555" lon="10.9256165"><ele>149.5</ele><time>2026-05-01T14:15:33.665Z</time></trkpt><trkpt lat="43.3642688" lon="10.9256519"><ele>149.25</ele><time>2026-05-01T14:15:34.662Z</time></trkpt><trkpt lat="43.3643831" lon="10.9257182"><ele>149.0</ele><time>2026-05-01T14:15:35.658Z</time></trkpt><trkpt lat="43.3644905" lon="10.9258214"><ele>148.66666666666666</ele><time>2026-05-01T14:15:36.653Z</time></trkpt><trkpt lat="43.3646021" lon="10.9259635"><ele>148.33333333333334</ele><time>2026-05-01T14:15:37.648Z</time></trkpt><trkpt lat="43.3647018" lon="10.926114"><ele>148.0</ele><time>2026-05-01T14:15:38.665Z</time></trkpt><trkpt lat="43.3648045" lon="10.926296"><ele>148.66666666666669</ele><time>2026-05-01T14:15:39.643Z</time></trkpt><trkpt lat="43.3649118" lon="10.9264859"><ele>149.33333333333334</ele><time>2026-05-01T14:15:40.665Z</time></trkpt><trkpt lat="43.3650203" lon="10.9266775"><ele>150.0</ele><time>2026-05-01T14:15:41.653Z</time></trkpt><trkpt lat="43.3651335" lon="10.9268749"><ele>150.0</ele><time>2026-05-01T14:15:42.657Z</time></trkpt><trkpt lat="43.3652475" lon="10.9270766"><ele>150.0</ele><time>2026-05-01T14:15:43.654Z</time></trkpt><trkpt lat="43.3653671" lon="10.9272849"><ele>150.0</ele><time>2026-05-01T14:15:44.661Z</time></trkpt><trkpt lat="43.3654887" lon="10.9275028"><ele>151.33333333333334</ele><time>2026-05-01T14:15:45.658Z</time></trkpt><trkpt lat="43.3656072" lon="10.9277011"><ele>152.66666666666669</ele><time>2026-05-01T14:15:46.658Z</time></trkpt><trkpt lat="43.3657122" lon="10.9278789"><ele>154.0</ele><time>2026-05-01T14:15:47.655Z</time></trkpt><trkpt lat="43.365822" lon="10.9280504"><ele>154.0</ele><time>2026-05-01T14:15:48.655Z</time></trkpt><trkpt lat="43.3659351" lon="10.9281991"><ele>154.0</ele><time>2026-05-01T14:15:49.662Z</time></trkpt><trkpt lat="43.3660469" lon="10.9283371"><ele>154.0</ele><time>2026-05-01T14:15:50.656Z</time></trkpt><trkpt lat="43.3661713" lon="10.9284818"><ele>153.66666666666669</ele><time>2026-05-01T14:15:51.659Z</time></trkpt><trkpt lat="43.3663125" lon="10.9286401"><ele>153.33333333333334</ele><time>2026-05-01T14:15:52.663Z</time></trkpt><trkpt lat="43.3664552" lon="10.928796"><ele>153.0</ele><time>2026-05-01T14:15:53.655Z</time></trkpt><trkpt lat="43.3665838" lon="10.9289345"><ele>153.8</ele><time>2026-05-01T14:15:54.654Z</time></trkpt><trkpt lat="43.3666904" lon="10.9290437"><ele>154.60000000000002</ele><time>2026-05-01T14:15:55.667Z</time></trkpt><trkpt lat="43.366783" lon="10.9291385"><ele>155.39999999999998</ele><time>2026-05-01T14:15:56.667Z</time></trkpt><trkpt lat="43.3668654" lon="10.9292244"><ele>156.2</ele><time>2026-05-01T14:15:57.652Z</time></trkpt><trkpt lat="43.3669373" lon="10.9293073"><ele>157.0</ele><time>2026-05-01T14:15:58.65Z</time></trkpt><trkpt lat="43.3670106" lon="10.9293842"><ele>157.0</ele><time>2026-05-01T14:15:59.664Z</time></trkpt><trkpt lat="43.3670815" lon="10.9294614"><ele>157.0</ele><time>2026-05-01T14:16:00.652Z</time></trkpt><trkpt lat="43.3671451" lon="10.9295324"><ele>157.0</ele><time>2026-05-01T14:16:01.664Z</time></trkpt><trkpt lat="43.3671982" lon="10.929617"><ele>157.0</ele><time>2026-05-01T14:16:02.648Z</time></trkpt><trkpt lat="43.3672351" lon="10.9297178"><ele>157.0</ele><time>2026-05-01T14:16:03.666Z</time></trkpt><trkpt lat="43.3672535" lon="10.9298299"><ele>157.0</ele><time>2026-05-01T14:16:04.653Z</time></trkpt><trkpt lat="43.3672519" lon="10.9299473"><ele>157.16666666666669</ele><time>2026-05-01T14:16:05.655Z</time></trkpt><trkpt lat="43.3672304" lon="10.9300613"><ele>157.33333333333334</ele><time>2026-05-01T14:16:06.664Z</time></trkpt><trkpt lat="43.3672007" lon="10.9301623"><ele>157.5</ele><time>2026-05-01T14:16:07.668Z</time></trkpt><trkpt lat="43.367173" lon="10.9302601"><ele>157.66666666666666</ele><time>2026-05-01T14:16:08.674Z</time></trkpt><trkpt lat="43.3671461" lon="10.9303637"><ele>157.83333333333331</ele><time>2026-05-01T14:16:09.667Z</time></trkpt><trkpt lat="43.3671181" lon="10.930476"><ele>158.0</ele><time>2026-05-01T14:16:10.67Z</time></trkpt><trkpt lat="43.3670921" lon="10.9305998"><ele>158.0</ele><time>2026-05-01T14:16:11.666Z</time></trkpt><trkpt lat="43.3670655" lon="10.9307292"><ele>158.0</ele><time>2026-05-01T14:16:12.65Z</time></trkpt><trkpt lat="43.3670365" lon="10.9308582"><ele>158.0</ele><time>2026-05-01T14:16:13.671Z</time></trkpt><trkpt lat="43.3670075" lon="10.9309925"><ele>158.0</ele><time>2026-05-01T14:16:14.665Z</time></trkpt><trkpt lat="43.3669811" lon="10.9311312"><ele>158.0</ele><time>2026-05-01T14:16:15.666Z</time></trkpt><trkpt lat="43.3669592" lon="10.9312671"><ele>158.0</ele><time>2026-05-01T14:16:16.672Z</time></trkpt><trkpt lat="43.3669322" lon="10.9313929"><ele>158.0</ele><time>2026-05-01T14:16:17.67Z</time></trkpt><trkpt lat="43.3669033" lon="10.9315246"><ele>158.0</ele><time>2026-05-01T14:16:18.663Z</time></trkpt><trkpt lat="43.366876" lon="10.9316619"><ele>158.0</ele><time>2026-05-01T14:16:19.665Z</time></trkpt><trkpt lat="43.3668497" lon="10.9317986"><ele>158.0</ele><time>2026-05-01T14:16:20.661Z</time></trkpt><trkpt lat="43.3668242" lon="10.9319348"><ele>158.0</ele><time>2026-05-01T14:16:21.66Z</time></trkpt><trkpt lat="43.3668017" lon="10.9320752"><ele>158.0</ele><time>2026-05-01T14:16:22.654Z</time></trkpt><trkpt lat="43.3667756" lon="10.9322213"><ele>158.0</ele><time>2026-05-01T14:16:23.654Z</time></trkpt><trkpt lat="43.3667518" lon="10.9323622"><ele>158.0</ele><time>2026-05-01T14:16:24.685Z</time></trkpt><trkpt lat="43.3667263" lon="10.9325036"><ele>158.0</ele><time>2026-05-01T14:16:25.665Z</time></trkpt><trkpt lat="43.3667013" lon="10.932644"><ele>158.20000000000002</ele><time>2026-05-01T14:16:26.658Z</time></trkpt><trkpt lat="43.3666746" lon="10.9327817"><ele>158.4</ele><time>2026-05-01T14:16:27.655Z</time></trkpt><trkpt lat="43.3666448" lon="10.9329249"><ele>158.60000000000002</ele><time>2026-05-01T14:16:28.662Z</time></trkpt><trkpt lat="43.3666152" lon="10.9330694"><ele>158.8</ele><time>2026-05-01T14:16:29.665Z</time></trkpt><trkpt lat="43.366586" lon="10.9332157"><ele>159.0</ele><time>2026-05-01T14:16:30.653Z</time></trkpt><trkpt lat="43.366563" lon="10.9333649"><ele>159.2</ele><time>2026-05-01T14:16:31.65Z</time></trkpt><trkpt lat="43.3665351" lon="10.9335146"><ele>159.4</ele><time>2026-05-01T14:16:32.653Z</time></trkpt><trkpt lat="43.3665076" lon="10.9336588"><ele>159.6</ele><time>2026-05-01T14:16:33.668Z</time></trkpt><trkpt lat="43.3664835" lon="10.9338016"><ele>159.8</ele><time>2026-05-01T14:16:34.658Z</time></trkpt><trkpt lat="43.3664592" lon="10.9339485"><ele>160.0</ele><time>2026-05-01T14:16:35.658Z</time></trkpt><trkpt lat="43.3664345" lon="10.9340857"><ele>159.4</ele><time>2026-05-01T14:16:36.664Z</time></trkpt><trkpt lat="43.3664076" lon="10.9342323"><ele>158.8</ele><time>2026-05-01T14:16:37.667Z</time></trkpt><trkpt lat="43.3663827" lon="10.9343789"><ele>158.2</ele><time>2026-05-01T14:16:38.659Z</time></trkpt><trkpt lat="43.3663538" lon="10.9345259"><ele>157.6</ele><time>2026-05-01T14:16:39.656Z</time></trkpt><trkpt lat="43.3663267" lon="10.9346709"><ele>157.0</ele><time>2026-05-01T14:16:40.657Z</time></trkpt><trkpt lat="43.366296" lon="10.9348067"><ele>157.0</ele><time>2026-05-01T14:16:41.652Z</time></trkpt><trkpt lat="43.3662724" lon="10.9349246"><ele>157.0</ele><time>2026-05-01T14:16:42.665Z</time></trkpt><trkpt lat="43.3662586" lon="10.9350238"><ele>157.0</ele><time>2026-05-01T14:16:43.662Z</time></trkpt><trkpt lat="43.3662567" lon="10.9351186"><ele>157.0</ele><time>2026-05-01T14:16:44.661Z</time></trkpt><trkpt lat="43.3663092" lon="10.9352631"><ele>157.0</ele><time>2026-05-01T14:16:46.665Z</time></trkpt><trkpt lat="43.3664124" lon="10.9353241"><ele>157.0</ele><time>2026-05-01T14:16:48.663Z</time></trkpt><trkpt lat="43.3664839" lon="10.9353383"><ele>157.0</ele><time>2026-05-01T14:16:49.653Z</time></trkpt><trkpt lat="43.3665713" lon="10.9353548"><ele>157.0</ele><time>2026-05-01T14:16:50.665Z</time></trkpt><trkpt lat="43.3666713" lon="10.9353786"><ele>157.0</ele><time>2026-05-01T14:16:51.669Z</time></trkpt><trkpt lat="43.3667828" lon="10.9354009"><ele>157.0</ele><time>2026-05-01T14:16:52.663Z</time></trkpt><trkpt lat="43.3669002" lon="10.9354379"><ele>157.0</ele><time>2026-05-01T14:16:53.663Z</time></trkpt><trkpt lat="43.3670145" lon="10.9354764"><ele>157.0</ele><time>2026-05-01T14:16:54.661Z</time></trkpt><trkpt lat="43.3671227" lon="10.9355076"><ele>157.0</ele><time>2026-05-01T14:16:55.655Z</time></trkpt><trkpt lat="43.3672183" lon="10.9355343"><ele>157.0</ele><time>2026-05-01T14:16:56.646Z</time></trkpt><trkpt lat="43.3672993" lon="10.9355625"><ele>157.0</ele><time>2026-05-01T14:16:57.663Z</time></trkpt><trkpt lat="43.3673627" lon="10.9355941"><ele>157.16666666666669</ele><time>2026-05-01T14:16:58.661Z</time></trkpt><trkpt lat="43.3674312" lon="10.9357035"><ele>157.33333333333334</ele><time>2026-05-01T14:17:00.659Z</time></trkpt><trkpt lat="43.3674295" lon="10.935848"><ele>157.5</ele><time>2026-05-01T14:17:02.659Z</time></trkpt><trkpt lat="43.3673907" lon="10.9359234"><ele>157.66666666666666</ele><time>2026-05-01T14:17:03.654Z</time></trkpt><trkpt lat="43.3673256" lon="10.9359823"><ele>157.83333333333331</ele><time>2026-05-01T14:17:04.662Z</time></trkpt><trkpt lat="43.3672497" lon="10.9360137"><ele>158.0</ele><time>2026-05-01T14:17:05.664Z</time></trkpt><trkpt lat="43.3671783" lon="10.9360465"><ele>158.0</ele><time>2026-05-01T14:17:06.68Z</time></trkpt><trkpt lat="43.3671197" lon="10.9361027"><ele>158.0</ele><time>2026-05-01T14:17:07.67Z</time></trkpt><trkpt lat="43.36708" lon="10.936186"><ele>158.0</ele><time>2026-05-01T14:17:08.658Z</time></trkpt><trkpt lat="43.3670631" lon="10.9362853"><ele>158.0</ele><time>2026-05-01T14:17:09.665Z</time></trkpt><trkpt lat="43.3670602" lon="10.9363873"><ele>158.0</ele><time>2026-05-01T14:17:10.65Z</time></trkpt><trkpt lat="43.367057" lon="10.9365022"><ele>158.0</ele><time>2026-05-01T14:17:11.655Z</time></trkpt><trkpt lat="43.3670543" lon="10.9366227"><ele>158.20000000000002</ele><time>2026-05-01T14:17:12.668Z</time></trkpt><trkpt lat="43.3670524" lon="10.9367479"><ele>158.4</ele><time>2026-05-01T14:17:13.656Z</time></trkpt><trkpt lat="43.3670486" lon="10.9368743"><ele>158.60000000000002</ele><time>2026-05-01T14:17:14.661Z</time></trkpt><trkpt lat="43.3670477" lon="10.9370077"><ele>158.8</ele><time>2026-05-01T14:17:15.659Z</time></trkpt><trkpt lat="43.3670397" lon="10.9371496"><ele>159.0</ele><time>2026-05-01T14:17:16.657Z</time></trkpt><trkpt lat="43.367032" lon="10.9372944"><ele>159.0</ele><time>2026-05-01T14:17:17.659Z</time></trkpt><trkpt lat="43.3670235" lon="10.9374317"><ele>159.0</ele><time>2026-05-01T14:17:18.685Z</time></trkpt><trkpt lat="43.3670145" lon="10.9375754"><ele>159.0</ele><time>2026-05-01T14:17:19.654Z</time></trkpt><trkpt lat="43.3670067" lon="10.9377262"><ele>159.0</ele><time>2026-05-01T14:17:20.657Z</time></trkpt><trkpt lat="43.3669961" lon="10.9378802"><ele>159.0</ele><time>2026-05-01T14:17:21.654Z</time></trkpt><trkpt lat="43.3669805" lon="10.9380239"><ele>159.75</ele><time>2026-05-01T14:17:22.662Z</time></trkpt><trkpt lat="43.3669695" lon="10.938174"><ele>160.5</ele><time>2026-05-01T14:17:23.67Z</time></trkpt><trkpt lat="43.366963" lon="10.9383271"><ele>161.25</ele><time>2026-05-01T14:17:24.685Z</time></trkpt><trkpt lat="43.3669574" lon="10.9384875"><ele>162.0</ele><time>2026-05-01T14:17:25.671Z</time></trkpt><trkpt lat="43.3669445" lon="10.9386458"><ele>162.0</ele><time>2026-05-01T14:17:26.652Z</time></trkpt><trkpt lat="43.3669344" lon="10.9388131"><ele>162.0</ele><time>2026-05-01T14:17:27.66Z</time></trkpt><trkpt lat="43.3669251" lon="10.9389819"><ele>162.0</ele><time>2026-05-01T14:17:28.667Z</time></trkpt><trkpt lat="43.366912" lon="10.9391482"><ele>162.0</ele><time>2026-05-01T14:17:29.664Z</time></trkpt><trkpt lat="43.3668987" lon="10.9393134"><ele>162.25</ele><time>2026-05-01T14:17:30.662Z</time></trkpt><trkpt lat="43.3668835" lon="10.9394812"><ele>162.5</ele><time>2026-05-01T14:17:31.656Z</time></trkpt><trkpt lat="43.3668674" lon="10.9396614"><ele>162.75</ele><time>2026-05-01T14:17:32.664Z</time></trkpt><trkpt lat="43.3668523" lon="10.9398463"><ele>163.0</ele><time>2026-05-01T14:17:33.659Z</time></trkpt><trkpt lat="43.3668341" lon="10.9400479"><ele>163.0</ele><time>2026-05-01T14:17:34.653Z</time></trkpt><trkpt lat="43.3668074" lon="10.9402526"><ele>163.0</ele><time>2026-05-01T14:17:35.668Z</time></trkpt><trkpt lat="43.3667841" lon="10.9404567"><ele>163.0</ele><time>2026-05-01T14:17:36.672Z</time></trkpt><trkpt lat="43.3667564" lon="10.9406619"><ele>163.0</ele><time>2026-05-01T14:17:37.658Z</time></trkpt><trkpt lat="43.3667282" lon="10.9408577"><ele>163.0</ele><time>2026-05-01T14:17:38.672Z</time></trkpt><trkpt lat="43.3667054" lon="10.9410416"><ele>163.0</ele><time>2026-05-01T14:17:39.658Z</time></trkpt><trkpt lat="43.3666829" lon="10.9412101"><ele>163.0</ele><time>2026-05-01T14:17:40.657Z</time></trkpt><trkpt lat="43.3666694" lon="10.9413741"><ele>163.75</ele><time>2026-05-01T14:17:41.666Z</time></trkpt><trkpt lat="43.366656" lon="10.9415346"><ele>164.5</ele><time>2026-05-01T14:17:42.656Z</time></trkpt><trkpt lat="43.366656" lon="10.9416953"><ele>165.25</ele><time>2026-05-01T14:17:43.664Z</time></trkpt><trkpt lat="43.3666744" lon="10.9418644"><ele>166.0</ele><time>2026-05-01T14:17:44.668Z</time></trkpt><trkpt lat="43.3666992" lon="10.9420406"><ele>166.25</ele><time>2026-05-01T14:17:45.657Z</time></trkpt><trkpt lat="43.3667326" lon="10.9422144"><ele>166.5</ele><time>2026-05-01T14:17:46.661Z</time></trkpt><trkpt lat="43.3667708" lon="10.9423937"><ele>166.75</ele><time>2026-05-01T14:17:47.662Z</time></trkpt><trkpt lat="43.3668089" lon="10.9425619"><ele>167.0</ele><time>2026-05-01T14:17:48.676Z</time></trkpt><trkpt lat="43.3668432" lon="10.9427131"><ele>166.5</ele><time>2026-05-01T14:17:49.66Z</time></trkpt><trkpt lat="43.3668743" lon="10.9428475"><ele>166.0</ele><time>2026-05-01T14:17:50.664Z</time></trkpt><trkpt lat="43.3668981" lon="10.9429561"><ele>165.5</ele><time>2026-05-01T14:17:51.655Z</time></trkpt><trkpt lat="43.3669166" lon="10.9430423"><ele>165.0</ele><time>2026-05-01T14:17:52.654Z</time></trkpt><trkpt lat="43.3669416" lon="10.9431692"><ele>164.5</ele><time>2026-05-01T14:17:54.655Z</time></trkpt><trkpt lat="43.3669637" lon="10.9432517"><ele>164.0</ele><time>2026-05-01T14:17:57.661Z</time></trkpt><trkpt lat="43.3670188" lon="10.94332"><ele>163.99999999999997</ele><time>2026-05-01T14:18:03.653Z</time></trkpt><trkpt lat="43.3670787" lon="10.9433652"><ele>164.0</ele><time>2026-05-01T14:18:06.657Z</time></trkpt><trkpt lat="43.3671377" lon="10.9433959"><ele>164.0</ele><time>2026-05-01T14:18:08.661Z</time></trkpt><trkpt lat="43.3672025" lon="10.9434306"><ele>164.0</ele><time>2026-05-01T14:18:10.658Z</time></trkpt><trkpt lat="43.367293" lon="10.9434972"><ele>164.0</ele><time>2026-05-01T14:18:12.658Z</time></trkpt><trkpt lat="43.3673498" lon="10.9435407"><ele>163.99999999999997</ele><time>2026-05-01T14:18:13.647Z</time></trkpt><trkpt lat="43.3674176" lon="10.9436002"><ele>164.0</ele><time>2026-05-01T14:18:14.657Z</time></trkpt><trkpt lat="43.3675013" lon="10.9436699"><ele>163.79999999999998</ele><time>2026-05-01T14:18:15.666Z</time></trkpt><trkpt lat="43.3675932" lon="10.9437522"><ele>163.6</ele><time>2026-05-01T14:18:16.657Z</time></trkpt><trkpt lat="43.3676816" lon="10.9438398"><ele>163.4</ele><time>2026-05-01T14:18:17.66Z</time></trkpt><trkpt lat="43.3677599" lon="10.9439234"><ele>163.2</ele><time>2026-05-01T14:18:18.666Z</time></trkpt><trkpt lat="43.3678365" lon="10.9440011"><ele>163.0</ele><time>2026-05-01T14:18:19.656Z</time></trkpt><trkpt lat="43.3679194" lon="10.944091"><ele>163.0</ele><time>2026-05-01T14:18:20.662Z</time></trkpt><trkpt lat="43.3680195" lon="10.9441813"><ele>163.0</ele><time>2026-05-01T14:18:21.683Z</time></trkpt><trkpt lat="43.3681209" lon="10.9442734"><ele>163.0</ele><time>2026-05-01T14:18:22.663Z</time></trkpt><trkpt lat="43.3682175" lon="10.9443704"><ele>163.0</ele><time>2026-05-01T14:18:23.672Z</time></trkpt><trkpt lat="43.36832" lon="10.9444672"><ele>163.75</ele><time>2026-05-01T14:18:24.658Z</time></trkpt><trkpt lat="43.3684148" lon="10.9445619"><ele>164.5</ele><time>2026-05-01T14:18:25.655Z</time></trkpt><trkpt lat="43.3685165" lon="10.9446466"><ele>165.25</ele><time>2026-05-01T14:18:26.656Z</time></trkpt><trkpt lat="43.3686283" lon="10.9447134"><ele>166.0</ele><time>2026-05-01T14:18:27.655Z</time></trkpt><trkpt lat="43.3687468" lon="10.9447774"><ele>166.5</ele><time>2026-05-01T14:18:28.658Z</time></trkpt><trkpt lat="43.3688664" lon="10.9448556"><ele>167.0</ele><time>2026-05-01T14:18:29.654Z</time></trkpt><trkpt lat="43.368995" lon="10.9449453"><ele>167.5</ele><time>2026-05-01T14:18:30.653Z</time></trkpt><trkpt lat="43.3691227" lon="10.9450458"><ele>168.0</ele><time>2026-05-01T14:18:31.657Z</time></trkpt><trkpt lat="43.3692517" lon="10.9451648"><ele>168.0</ele><time>2026-05-01T14:18:32.654Z</time></trkpt><trkpt lat="43.3693675" lon="10.9452852"><ele>168.0</ele><time>2026-05-01T14:18:33.649Z</time></trkpt><trkpt lat="43.369481" lon="10.9454152"><ele>168.0</ele><time>2026-05-01T14:18:34.656Z</time></trkpt><trkpt lat="43.3695941" lon="10.9455498"><ele>168.0</ele><time>2026-05-01T14:18:35.659Z</time></trkpt><trkpt lat="43.3697084" lon="10.9456682"><ele>168.75</ele><time>2026-05-01T14:18:36.664Z</time></trkpt><trkpt lat="43.3698051" lon="10.9457819"><ele>169.5</ele><time>2026-05-01T14:18:37.654Z</time></trkpt><trkpt lat="43.3698967" lon="10.9458828"><ele>170.25</ele><time>2026-05-01T14:18:38.658Z</time></trkpt><trkpt lat="43.3699811" lon="10.9459776"><ele>171.0</ele><time>2026-05-01T14:18:39.655Z</time></trkpt><trkpt lat="43.3700574" lon="10.9460661"><ele>171.16666666666666</ele><time>2026-05-01T14:18:40.648Z</time></trkpt><trkpt lat="43.3701183" lon="10.9461601"><ele>171.33333333333334</ele><time>2026-05-01T14:18:41.66Z</time></trkpt><trkpt lat="43.3701676" lon="10.9462688"><ele>171.5</ele><time>2026-05-01T14:18:42.651Z</time></trkpt><trkpt lat="43.3701911" lon="10.9463835"><ele>171.66666666666669</ele><time>2026-05-01T14:18:43.649Z</time></trkpt><trkpt lat="43.370177" lon="10.9464965"><ele>171.83333333333334</ele><time>2026-05-01T14:18:44.654Z</time></trkpt><trkpt lat="43.3701487" lon="10.946613"><ele>172.0</ele><time>2026-05-01T14:18:45.654Z</time></trkpt><trkpt lat="43.3701111" lon="10.9467246"><ele>172.0</ele><time>2026-05-01T14:18:46.657Z</time></trkpt><trkpt lat="43.3700798" lon="10.9468434"><ele>172.0</ele><time>2026-05-01T14:18:47.658Z</time></trkpt><trkpt lat="43.3700655" lon="10.9469623"><ele>172.0</ele><time>2026-05-01T14:18:48.668Z</time></trkpt><trkpt lat="43.3700571" lon="10.9470879"><ele>172.0</ele><time>2026-05-01T14:18:49.656Z</time></trkpt><trkpt lat="43.3700602" lon="10.9472227"><ele>172.0</ele><time>2026-05-01T14:18:50.663Z</time></trkpt><trkpt lat="43.3700815" lon="10.9473624"><ele>172.0</ele><time>2026-05-01T14:18:51.658Z</time></trkpt><trkpt lat="43.3701137" lon="10.9474703"><ele>172.0</ele><time>2026-05-01T14:18:52.654Z</time></trkpt><trkpt lat="43.3701592" lon="10.9475662"><ele>172.0</ele><time>2026-05-01T14:18:53.655Z</time></trkpt><trkpt lat="43.3702206" lon="10.9476573"><ele>172.0</ele><time>2026-05-01T14:18:54.661Z</time></trkpt><trkpt lat="43.3702872" lon="10.9477443"><ele>172.0</ele><time>2026-05-01T14:18:55.663Z</time></trkpt><trkpt lat="43.370354" lon="10.9478457"><ele>172.25</ele><time>2026-05-01T14:18:56.657Z</time></trkpt><trkpt lat="43.3704122" lon="10.9479811"><ele>172.5</ele><time>2026-05-01T14:18:57.656Z</time></trkpt><trkpt lat="43.3704706" lon="10.9481146"><ele>172.75</ele><time>2026-05-01T14:18:58.661Z</time></trkpt><trkpt lat="43.3705423" lon="10.9482512"><ele>173.0</ele><time>2026-05-01T14:18:59.658Z</time></trkpt><trkpt lat="43.3706213" lon="10.9483847"><ele>173.0</ele><time>2026-05-01T14:19:00.666Z</time></trkpt><trkpt lat="43.3707027" lon="10.948513"><ele>173.0</ele><time>2026-05-01T14:19:01.666Z</time></trkpt><trkpt lat="43.3707929" lon="10.9486275"><ele>173.0</ele><time>2026-05-01T14:19:02.654Z</time></trkpt><trkpt lat="43.3708901" lon="10.948732"><ele>173.0</ele><time>2026-05-01T14:19:03.674Z</time></trkpt><trkpt lat="43.3709899" lon="10.9488333"><ele>173.0</ele><time>2026-05-01T14:19:04.658Z</time></trkpt><trkpt lat="43.3710856" lon="10.9489474"><ele>173.0</ele><time>2026-05-01T14:19:05.655Z</time></trkpt><trkpt lat="43.3711654" lon="10.9490738"><ele>173.0</ele><time>2026-05-01T14:19:06.658Z</time></trkpt><trkpt lat="43.3712205" lon="10.949202"><ele>173.0</ele><time>2026-05-01T14:19:07.669Z</time></trkpt><trkpt lat="43.3712582" lon="10.9493533"><ele>172.8</ele><time>2026-05-01T14:19:08.666Z</time></trkpt><trkpt lat="43.371294" lon="10.9495034"><ele>172.60000000000002</ele><time>2026-05-01T14:19:09.673Z</time></trkpt><trkpt lat="43.3713351" lon="10.9496493"><ele>172.39999999999998</ele><time>2026-05-01T14:19:10.657Z</time></trkpt><trkpt lat="43.3713818" lon="10.9497741"><ele>172.2</ele><time>2026-05-01T14:19:11.653Z</time></trkpt><trkpt lat="43.3714348" lon="10.949883"><ele>172.0</ele><time>2026-05-01T14:19:12.662Z</time></trkpt><trkpt lat="43.3715051" lon="10.949981"><ele>173.0</ele><time>2026-05-01T14:19:13.647Z</time></trkpt><trkpt lat="43.3715881" lon="10.9500821"><ele>174.0</ele><time>2026-05-01T14:19:14.665Z</time></trkpt><trkpt lat="43.3716825" lon="10.9501889"><ele>175.0</ele><time>2026-05-01T14:19:15.655Z</time></trkpt><trkpt lat="43.3717771" lon="10.9502961"><ele>176.0</ele><time>2026-05-01T14:19:16.679Z</time></trkpt><trkpt lat="43.3718642" lon="10.9503973"><ele>176.0</ele><time>2026-05-01T14:19:17.666Z</time></trkpt><trkpt lat="43.3719361" lon="10.9504845"><ele>176.0</ele><time>2026-05-01T14:19:18.655Z</time></trkpt><trkpt lat="43.3720045" lon="10.9505674"><ele>176.0</ele><time>2026-05-01T14:19:19.656Z</time></trkpt><trkpt lat="43.3720576" lon="10.9506494"><ele>176.0</ele><time>2026-05-01T14:19:20.664Z</time></trkpt><trkpt lat="43.3720945" lon="10.9507329"><ele>176.0</ele><time>2026-05-01T14:19:21.648Z</time></trkpt><trkpt lat="43.3721262" lon="10.9508226"><ele>176.0</ele><time>2026-05-01T14:19:22.653Z</time></trkpt><trkpt lat="43.3721516" lon="10.9509284"><ele>176.4</ele><time>2026-05-01T14:19:23.686Z</time></trkpt><trkpt lat="43.3721541" lon="10.9510322"><ele>176.8</ele><time>2026-05-01T14:19:24.653Z</time></trkpt><trkpt lat="43.3721236" lon="10.9511402"><ele>177.20000000000002</ele><time>2026-05-01T14:19:25.662Z</time></trkpt><trkpt lat="43.3720624" lon="10.9512432"><ele>177.60000000000002</ele><time>2026-05-01T14:19:26.664Z</time></trkpt><trkpt lat="43.3719706" lon="10.9513359"><ele>178.0</ele><time>2026-05-01T14:19:27.661Z</time></trkpt><trkpt lat="43.3718608" lon="10.9514456"><ele>178.0</ele><time>2026-05-01T14:19:28.666Z</time></trkpt><trkpt lat="43.3717539" lon="10.9515539"><ele>178.0</ele><time>2026-05-01T14:19:29.661Z</time></trkpt><trkpt lat="43.3716633" lon="10.9516613"><ele>178.0</ele><time>2026-05-01T14:19:30.657Z</time></trkpt><trkpt lat="43.3715888" lon="10.9517538"><ele>178.0</ele><time>2026-05-01T14:19:31.656Z</time></trkpt><trkpt lat="43.3715328" lon="10.9518257"><ele>178.0</ele><time>2026-05-01T14:19:32.661Z</time></trkpt><trkpt lat="43.3714695" lon="10.9519389"><ele>179.33333333333334</ele><time>2026-05-01T14:19:34.663Z</time></trkpt><trkpt lat="43.3714911" lon="10.9520559"><ele>180.66666666666669</ele><time>2026-05-01T14:19:36.665Z</time></trkpt><trkpt lat="43.3715724" lon="10.9520787"><ele>182.0</ele><time>2026-05-01T14:19:38.663Z</time></trkpt><trkpt lat="43.3716716" lon="10.9519859"><ele>183.33333333333334</ele><time>2026-05-01T14:19:40.651Z</time></trkpt><trkpt lat="43.371739" lon="10.9519526"><ele>184.66666666666666</ele><time>2026-05-01T14:19:41.652Z</time></trkpt><trkpt lat="43.3718181" lon="10.9519724"><ele>186.0</ele><time>2026-05-01T14:19:42.662Z</time></trkpt><trkpt lat="43.3718778" lon="10.952018"><ele>186.0</ele><time>2026-05-01T14:19:43.665Z</time></trkpt><trkpt lat="43.3719064" lon="10.9521338"><ele>186.0</ele><time>2026-05-01T14:19:45.66Z</time></trkpt><trkpt lat="43.371897" lon="10.9522207"><ele>186.0</ele><time>2026-05-01T14:19:46.645Z</time></trkpt><trkpt lat="43.3718772" lon="10.9523119"><ele>186.0</ele><time>2026-05-01T14:19:47.665Z</time></trkpt><trkpt lat="43.371845" lon="10.9524177"><ele>186.0</ele><time>2026-05-01T14:19:48.659Z</time></trkpt><trkpt lat="43.3718092" lon="10.9525351"><ele>186.0</ele><time>2026-05-01T14:19:49.662Z</time></trkpt><trkpt lat="43.3717665" lon="10.9526768"><ele>186.8</ele><time>2026-05-01T14:19:50.661Z</time></trkpt><trkpt lat="43.3717224" lon="10.9528159"><ele>187.60000000000002</ele><time>2026-05-01T14:19:51.662Z</time></trkpt><trkpt lat="43.371677" lon="10.9529678"><ele>188.4</ele><time>2026-05-01T14:19:52.664Z</time></trkpt><trkpt lat="43.3716298" lon="10.9531087"><ele>189.2</ele><time>2026-05-01T14:19:53.656Z</time></trkpt><trkpt lat="43.3716016" lon="10.9532211"><ele>190.0</ele><time>2026-05-01T14:19:54.68Z</time></trkpt><trkpt lat="43.3715802" lon="10.9533282"><ele>191.0</ele><time>2026-05-01T14:19:55.663Z</time></trkpt><trkpt lat="43.3715916" lon="10.9535002"><ele>192.0</ele><time>2026-05-01T14:19:57.665Z</time></trkpt><trkpt lat="43.3716522" lon="10.953624"><ele>193.0</ele><time>2026-05-01T14:19:59.681Z</time></trkpt><trkpt lat="43.3717801" lon="10.9536799"><ele>194.0</ele><time>2026-05-01T14:20:01.656Z</time></trkpt><trkpt lat="43.3718736" lon="10.9536809"><ele>194.0</ele><time>2026-05-01T14:20:02.661Z</time></trkpt><trkpt lat="43.3719692" lon="10.9536779"><ele>194.0</ele><time>2026-05-01T14:20:03.664Z</time></trkpt><trkpt lat="43.3720634" lon="10.9536622"><ele>194.0</ele><time>2026-05-01T14:20:04.657Z</time></trkpt><trkpt lat="43.3721462" lon="10.953611"><ele>194.0</ele><time>2026-05-01T14:20:05.656Z</time></trkpt><trkpt lat="43.3722136" lon="10.9535393"><ele>194.0</ele><time>2026-05-01T14:20:06.663Z</time></trkpt><trkpt lat="43.3722807" lon="10.9534646"><ele>196.00000000000003</ele><time>2026-05-01T14:20:07.672Z</time></trkpt><trkpt lat="43.3723549" lon="10.9534015"><ele>198.0</ele><time>2026-05-01T14:20:08.66Z</time></trkpt><trkpt lat="43.3724212" lon="10.9533778"><ele>200.0</ele><time>2026-05-01T14:20:09.671Z</time></trkpt><trkpt lat="43.3724868" lon="10.9533877"><ele>202.0</ele><time>2026-05-01T14:20:10.662Z</time></trkpt><trkpt lat="43.3725514" lon="10.9534323"><ele>204.00000000000003</ele><time>2026-05-01T14:20:11.66Z</time></trkpt><trkpt lat="43.3726151" lon="10.9535056"><ele>206.0</ele><time>2026-05-01T14:20:12.667Z</time></trkpt><trkpt lat="43.3726859" lon="10.953553"><ele>206.00000000000003</ele><time>2026-05-01T14:20:13.658Z</time></trkpt><trkpt lat="43.372753" lon="10.9535665"><ele>206.0</ele><time>2026-05-01T14:20:14.662Z</time></trkpt><trkpt lat="43.3728251" lon="10.9535553"><ele>206.0</ele><time>2026-05-01T14:20:15.655Z</time></trkpt><trkpt lat="43.3728975" lon="10.9535012"><ele>206.0</ele><time>2026-05-01T14:20:16.66Z</time></trkpt><trkpt lat="43.3729581" lon="10.9534335"><ele>206.00000000000003</ele><time>2026-05-01T14:20:17.658Z</time></trkpt><trkpt lat="43.3730352" lon="10.9533499"><ele>206.0</ele><time>2026-05-01T14:20:18.666Z</time></trkpt><trkpt lat="43.3731264" lon="10.9532901"><ele>206.16666666666669</ele><time>2026-05-01T14:20:19.659Z</time></trkpt><trkpt lat="43.3732025" lon="10.9532603"><ele>206.33333333333334</ele><time>2026-05-01T14:20:20.671Z</time></trkpt><trkpt lat="43.3732745" lon="10.9532751"><ele>206.5</ele><time>2026-05-01T14:20:22.654Z</time></trkpt><trkpt lat="43.3732924" lon="10.9533698"><ele>206.66666666666669</ele><time>2026-05-01T14:20:25.656Z</time></trkpt><trkpt lat="43.3732429" lon="10.9534788"><ele>206.83333333333334</ele><time>2026-05-01T14:20:27.647Z</time></trkpt><trkpt lat="43.3731917" lon="10.9535543"><ele>207.0</ele><time>2026-05-01T14:20:28.662Z</time></trkpt><trkpt lat="43.3731405" lon="10.9536469"><ele>208.33333333333334</ele><time>2026-05-01T14:20:29.654Z</time></trkpt><trkpt lat="43.3731086" lon="10.9537417"><ele>209.66666666666669</ele><time>2026-05-01T14:20:30.672Z</time></trkpt><trkpt lat="43.373085" lon="10.9538415"><ele>211.0</ele><time>2026-05-01T14:20:31.656Z</time></trkpt><trkpt lat="43.373065" lon="10.9539484"><ele>212.33333333333334</ele><time>2026-05-01T14:20:32.653Z</time></trkpt><trkpt lat="43.3730543" lon="10.9540578"><ele>213.66666666666669</ele><time>2026-05-01T14:20:33.661Z</time></trkpt><trkpt lat="43.3730402" lon="10.9541714"><ele>215.0</ele><time>2026-05-01T14:20:34.662Z</time></trkpt><trkpt lat="43.3730347" lon="10.9542871"><ele>215.66666666666669</ele><time>2026-05-01T14:20:35.669Z</time></trkpt><trkpt lat="43.3730398" lon="10.9544063"><ele>216.33333333333334</ele><time>2026-05-01T14:20:36.665Z</time></trkpt><trkpt lat="43.3730537" lon="10.9545026"><ele>217.0</ele><time>2026-05-01T14:20:37.673Z</time></trkpt><trkpt lat="43.3730899" lon="10.9545923"><ele>217.66666666666669</ele><time>2026-05-01T14:20:38.673Z</time></trkpt><trkpt lat="43.3731313" lon="10.9546861"><ele>218.33333333333334</ele><time>2026-05-01T14:20:39.654Z</time></trkpt><trkpt lat="43.3731717" lon="10.9548079"><ele>219.0</ele><time>2026-05-01T14:20:40.646Z</time></trkpt><trkpt lat="43.373183" lon="10.9549409"><ele>220.39999999999998</ele><time>2026-05-01T14:20:41.673Z</time></trkpt><trkpt lat="43.3731777" lon="10.9550868"><ele>221.79999999999998</ele><time>2026-05-01T14:20:42.646Z</time></trkpt><trkpt lat="43.3731575" lon="10.9552275"><ele>223.20000000000002</ele><time>2026-05-01T14:20:43.658Z</time></trkpt><trkpt lat="43.3731164" lon="10.955366"><ele>224.60000000000002</ele><time>2026-05-01T14:20:44.663Z</time></trkpt><trkpt lat="43.3730656" lon="10.9554995"><ele>226.0</ele><time>2026-05-01T14:20:45.659Z</time></trkpt><trkpt lat="43.373028" lon="10.9556349"><ele>224.8</ele><time>2026-05-01T14:20:46.662Z</time></trkpt><trkpt lat="43.3729972" lon="10.9557747"><ele>223.60000000000002</ele><time>2026-05-01T14:20:47.663Z</time></trkpt><trkpt lat="43.3729896" lon="10.9559155"><ele>222.4</ele><time>2026-05-01T14:20:48.677Z</time></trkpt><trkpt lat="43.3730049" lon="10.9560704"><ele>221.2</ele><time>2026-05-01T14:20:49.66Z</time></trkpt><trkpt lat="43.3730259" lon="10.956233"><ele>220.0</ele><time>2026-05-01T14:20:50.662Z</time></trkpt><trkpt lat="43.3730492" lon="10.9563947"><ele>221.6</ele><time>2026-05-01T14:20:51.657Z</time></trkpt><trkpt lat="43.3730687" lon="10.9565489"><ele>223.2</ele><time>2026-05-01T14:20:52.654Z</time></trkpt><trkpt lat="43.3730674" lon="10.9566909"><ele>224.8</ele><time>2026-05-01T14:20:53.663Z</time></trkpt><trkpt lat="43.3730441" lon="10.9568196"><ele>226.4</ele><time>2026-05-01T14:20:54.656Z</time></trkpt><trkpt lat="43.3730063" lon="10.9569434"><ele>228.0</ele><time>2026-05-01T14:20:55.646Z</time></trkpt><trkpt lat="43.3729487" lon="10.9570419"><ele>228.0</ele><time>2026-05-01T14:20:56.649Z</time></trkpt><trkpt lat="43.3728727" lon="10.9570874"><ele>228.0</ele><time>2026-05-01T14:20:57.662Z</time></trkpt><trkpt lat="43.3727938" lon="10.9571076"><ele>228.0</ele><time>2026-05-01T14:20:58.656Z</time></trkpt><trkpt lat="43.3726841" lon="10.9571288"><ele>228.0</ele><time>2026-05-01T14:21:00.661Z</time></trkpt><trkpt lat="43.3726188" lon="10.9571538"><ele>228.0</ele><time>2026-05-01T14:21:03.656Z</time></trkpt><trkpt lat="43.3725667" lon="10.957204"><ele>228.0</ele><time>2026-05-01T14:21:09.647Z</time></trkpt><trkpt lat="43.3725342" lon="10.9572791"><ele>228.0</ele><time>2026-05-01T14:21:58.656Z</time></trkpt><trkpt lat="43.3725942" lon="10.9573376"><ele>228.0</ele><time>2026-05-01T14:36:48.656Z</time></trkpt><trkpt lat="43.3726746" lon="10.9573619"><ele>228.0</ele><time>2026-05-01T14:36:50.648Z</time></trkpt><trkpt lat="43.3727791" lon="10.957352"><ele>228.0</ele><time>2026-05-01T14:36:52.664Z</time></trkpt><trkpt lat="43.3728436" lon="10.9573627"><ele>228.0</ele><time>2026-05-01T14:36:53.653Z</time></trkpt><trkpt lat="43.3729168" lon="10.9573889"><ele>228.0</ele><time>2026-05-01T14:36:54.649Z</time></trkpt><trkpt lat="43.3729842" lon="10.9574178"><ele>229.33333333333334</ele><time>2026-05-01T14:36:55.656Z</time></trkpt><trkpt lat="43.3730518" lon="10.9574365"><ele>230.66666666666669</ele><time>2026-05-01T14:36:56.657Z</time></trkpt><trkpt lat="43.373159" lon="10.9573757"><ele>232.0</ele><time>2026-05-01T14:36:58.667Z</time></trkpt><trkpt lat="43.3732122" lon="10.9573049"><ele>233.33333333333334</ele><time>2026-05-01T14:36:59.669Z</time></trkpt><trkpt lat="43.3732752" lon="10.9572193"><ele>234.66666666666669</ele><time>2026-05-01T14:37:00.658Z</time></trkpt><trkpt lat="43.3733443" lon="10.9571247"><ele>236.0</ele><time>2026-05-01T14:37:01.657Z</time></trkpt><trkpt lat="43.3734197" lon="10.9570415"><ele>236.0</ele><time>2026-05-01T14:37:02.668Z</time></trkpt><trkpt lat="43.3734972" lon="10.9569503"><ele>236.00000000000003</ele><time>2026-05-01T14:37:03.649Z</time></trkpt><trkpt lat="43.3735805" lon="10.9568594"><ele>236.00000000000003</ele><time>2026-05-01T14:37:04.658Z</time></trkpt><trkpt lat="43.3736565" lon="10.9567709"><ele>236.0</ele><time>2026-05-01T14:37:05.657Z</time></trkpt><trkpt lat="43.3737376" lon="10.9566855"><ele>236.0</ele><time>2026-05-01T14:37:06.656Z</time></trkpt><trkpt lat="43.3738224" lon="10.9566075"><ele>238.0</ele><time>2026-05-01T14:37:07.65Z</time></trkpt><trkpt lat="43.3739093" lon="10.9565379"><ele>240.00000000000003</ele><time>2026-05-01T14:37:08.655Z</time></trkpt><trkpt lat="43.3739914" lon="10.9564705"><ele>242.00000000000003</ele><time>2026-05-01T14:37:09.648Z</time></trkpt><trkpt lat="43.3740586" lon="10.9564119"><ele>244.0</ele><time>2026-05-01T14:37:10.65Z</time></trkpt><trkpt lat="43.374121" lon="10.9563751"><ele>246.0</ele><time>2026-05-01T14:37:11.669Z</time></trkpt><trkpt lat="43.3742409" lon="10.9563828"><ele>246.0</ele><time>2026-05-01T14:37:13.653Z</time></trkpt><trkpt lat="43.3743084" lon="10.9564453"><ele>246.00000000000003</ele><time>2026-05-01T14:37:14.664Z</time></trkpt><trkpt lat="43.3743743" lon="10.9565227"><ele>246.00000000000003</ele><time>2026-05-01T14:37:15.659Z</time></trkpt><trkpt lat="43.3744443" lon="10.9566214"><ele>246.0</ele><time>2026-05-01T14:37:16.646Z</time></trkpt><trkpt lat="43.3745264" lon="10.9567516"><ele>246.0</ele><time>2026-05-01T14:37:17.652Z</time></trkpt><trkpt lat="43.3746105" lon="10.9568776"><ele>247.0</ele><time>2026-05-01T14:37:18.66Z</time></trkpt><trkpt lat="43.3746763" lon="10.9569894"><ele>248.00000000000003</ele><time>2026-05-01T14:37:19.659Z</time></trkpt><trkpt lat="43.3747341" lon="10.9570865"><ele>249.00000000000003</ele><time>2026-05-01T14:37:20.65Z</time></trkpt><trkpt lat="43.3748025" lon="10.9571678"><ele>250.0</ele><time>2026-05-01T14:37:21.674Z</time></trkpt><trkpt lat="43.3748838" lon="10.9572272"><ele>251.0</ele><time>2026-05-01T14:37:22.664Z</time></trkpt><trkpt lat="43.3749731" lon="10.9572666"><ele>252.0</ele><time>2026-05-01T14:37:23.65Z</time></trkpt><trkpt lat="43.3750651" lon="10.957295"><ele>253.00000000000003</ele><time>2026-05-01T14:37:24.647Z</time></trkpt><trkpt lat="43.3751712" lon="10.9573096"><ele>254.00000000000003</ele><time>2026-05-01T14:37:25.652Z</time></trkpt><trkpt lat="43.3752892" lon="10.9573232"><ele>255.0</ele><time>2026-05-01T14:37:26.656Z</time></trkpt><trkpt lat="43.3754126" lon="10.9573319"><ele>256.0</ele><time>2026-05-01T14:37:27.656Z</time></trkpt><trkpt lat="43.3755478" lon="10.9573342"><ele>257.40000000000003</ele><time>2026-05-01T14:37:28.659Z</time></trkpt><trkpt lat="43.3756599" lon="10.9573313"><ele>258.8</ele><time>2026-05-01T14:37:29.656Z</time></trkpt><trkpt lat="43.3757684" lon="10.9573227"><ele>260.20000000000005</ele><time>2026-05-01T14:37:30.651Z</time></trkpt><trkpt lat="43.3758714" lon="10.9573356"><ele>261.6</ele><time>2026-05-01T14:37:31.661Z</time></trkpt><trkpt lat="43.3759737" lon="10.9573331"><ele>263.0</ele><time>2026-05-01T14:37:32.65Z</time></trkpt><trkpt lat="43.3760813" lon="10.9573267"><ele>263.0</ele><time>2026-05-01T14:37:33.654Z</time></trkpt><trkpt lat="43.3761791" lon="10.9573226"><ele>263.0</ele><time>2026-05-01T14:37:34.658Z</time></trkpt><trkpt lat="43.3762667" lon="10.9573327"><ele>263.0</ele><time>2026-05-01T14:37:35.66Z</time></trkpt><trkpt lat="43.3763354" lon="10.9573302"><ele>263.0</ele><time>2026-05-01T14:37:36.653Z</time></trkpt><trkpt lat="43.3764235" lon="10.9572919"><ele>263.0</ele><time>2026-05-01T14:37:38.662Z</time></trkpt><trkpt lat="43.3764897" lon="10.9572303"><ele>263.0</ele><time>2026-05-01T14:37:41.667Z</time></trkpt><trkpt lat="43.3765487" lon="10.9571927"><ele>264.33333333333337</ele><time>2026-05-01T14:37:45.669Z</time></trkpt><trkpt lat="43.3766242" lon="10.957142"><ele>265.6666666666667</ele><time>2026-05-01T14:38:01.654Z</time></trkpt><trkpt lat="43.3766979" lon="10.9570991"><ele>267.0</ele><time>2026-05-01T14:38:03.655Z</time></trkpt><trkpt lat="43.3767852" lon="10.9570884"><ele>268.3333333333333</ele><time>2026-05-01T14:38:05.677Z</time></trkpt><trkpt lat="43.3768599" lon="10.9571671"><ele>269.66666666666663</ele><time>2026-05-01T14:38:07.651Z</time></trkpt><trkpt lat="43.3768615" lon="10.9573089"><ele>271.0</ele><time>2026-05-01T14:38:09.649Z</time></trkpt><trkpt lat="43.3768264" lon="10.9573857"><ele>271.0</ele><time>2026-05-01T14:38:10.652Z</time></trkpt><trkpt lat="43.3767778" lon="10.9574515"><ele>271.0</ele><time>2026-05-01T14:38:11.651Z</time></trkpt><trkpt lat="43.3767253" lon="10.9575142"><ele>271.0</ele><time>2026-05-01T14:38:12.652Z</time></trkpt><trkpt lat="43.3766791" lon="10.9575774"><ele>271.0</ele><time>2026-05-01T14:38:13.677Z</time></trkpt><trkpt lat="43.3766342" lon="10.9577022"><ele>271.0</ele><time>2026-05-01T14:38:15.667Z</time></trkpt><trkpt lat="43.3766453" lon="10.9578338"><ele>271.0</ele><time>2026-05-01T14:38:17.654Z</time></trkpt><trkpt lat="43.3766984" lon="10.9579102"><ele>271.5</ele><time>2026-05-01T14:38:19.656Z</time></trkpt><trkpt lat="43.3768005" lon="10.9578884"><ele>272.0</ele><time>2026-05-01T14:38:21.655Z</time></trkpt><trkpt lat="43.3768986" lon="10.9578008"><ele>272.5</ele><time>2026-05-01T14:38:23.676Z</time></trkpt><trkpt lat="43.3769527" lon="10.9577347"><ele>273.0</ele><time>2026-05-01T14:38:24.659Z</time></trkpt><trkpt lat="43.3770011" lon="10.9576674"><ele>273.5</ele><time>2026-05-01T14:38:25.656Z</time></trkpt><trkpt lat="43.3770573" lon="10.9576248"><ele>274.0</ele><time>2026-05-01T14:38:26.657Z</time></trkpt><trkpt lat="43.3771247" lon="10.9575968"><ele>275.8333333333333</ele><time>2026-05-01T14:38:27.656Z</time></trkpt><trkpt lat="43.3771882" lon="10.9576008"><ele>277.66666666666663</ele><time>2026-05-01T14:38:28.656Z</time></trkpt><trkpt lat="43.3773129" lon="10.9576533"><ele>279.5</ele><time>2026-05-01T14:38:30.666Z</time></trkpt><trkpt lat="43.3773775" lon="10.9576928"><ele>281.3333333333333</ele><time>2026-05-01T14:38:31.652Z</time></trkpt><trkpt lat="43.3774409" lon="10.9577384"><ele>283.1666666666667</ele><time>2026-05-01T14:38:32.659Z</time></trkpt><trkpt lat="43.3775088" lon="10.9577885"><ele>285.0</ele><time>2026-05-01T14:38:33.66Z</time></trkpt><trkpt lat="43.3775737" lon="10.9578391"><ele>285.0</ele><time>2026-05-01T14:38:34.652Z</time></trkpt><trkpt lat="43.3776389" lon="10.9578944"><ele>285.0</ele><time>2026-05-01T14:38:35.682Z</time></trkpt><trkpt lat="43.3777035" lon="10.9579457"><ele>285.0</ele><time>2026-05-01T14:38:36.658Z</time></trkpt><trkpt lat="43.3777681" lon="10.9579964"><ele>285.0</ele><time>2026-05-01T14:38:37.654Z</time></trkpt><trkpt lat="43.3778342" lon="10.958045"><ele>285.0</ele><time>2026-05-01T14:38:38.674Z</time></trkpt><trkpt lat="43.3778892" lon="10.9581036"><ele>285.0</ele><time>2026-05-01T14:38:39.66Z</time></trkpt><trkpt lat="43.3779289" lon="10.9581784"><ele>285.0</ele><time>2026-05-01T14:38:40.649Z</time></trkpt><trkpt lat="43.3779529" lon="10.9582743"><ele>285.0</ele><time>2026-05-01T14:38:41.657Z</time></trkpt><trkpt lat="43.3779644" lon="10.9583803"><ele>285.0</ele><time>2026-05-01T14:38:42.65Z</time></trkpt><trkpt lat="43.3779632" lon="10.9585046"><ele>285.0</ele><time>2026-05-01T14:38:43.646Z</time></trkpt><trkpt lat="43.3779575" lon="10.9586212"><ele>285.0</ele><time>2026-05-01T14:38:44.659Z</time></trkpt><trkpt lat="43.3779554" lon="10.9587254"><ele>285.0</ele><time>2026-05-01T14:38:45.647Z</time></trkpt><trkpt lat="43.3779599" lon="10.9588277"><ele>285.0</ele><time>2026-05-01T14:38:46.665Z</time></trkpt><trkpt lat="43.3779691" lon="10.9589319"><ele>285.0</ele><time>2026-05-01T14:38:47.662Z</time></trkpt><trkpt lat="43.3779829" lon="10.9590384"><ele>285.0</ele><time>2026-05-01T14:38:48.654Z</time></trkpt><trkpt lat="43.3780018" lon="10.9591442"><ele>285.0</ele><time>2026-05-01T14:38:49.656Z</time></trkpt><trkpt lat="43.3780259" lon="10.9592526"><ele>285.0</ele><time>2026-05-01T14:38:50.669Z</time></trkpt><trkpt lat="43.3780464" lon="10.9593583"><ele>285.0</ele><time>2026-05-01T14:38:51.661Z</time></trkpt><trkpt lat="43.3780688" lon="10.9594698"><ele>285.0</ele><time>2026-05-01T14:38:52.66Z</time></trkpt><trkpt lat="43.3780903" lon="10.9595757"><ele>287.6666666666667</ele><time>2026-05-01T14:38:53.648Z</time></trkpt><trkpt lat="43.3781135" lon="10.9596787"><ele>290.3333333333333</ele><time>2026-05-01T14:38:54.664Z</time></trkpt><trkpt lat="43.3781409" lon="10.9597856"><ele>293.0</ele><time>2026-05-01T14:38:55.655Z</time></trkpt><trkpt lat="43.3781781" lon="10.9598729"><ele>295.66666666666663</ele><time>2026-05-01T14:38:56.67Z</time></trkpt><trkpt lat="43.378261" lon="10.9599504"><ele>298.3333333333333</ele><time>2026-05-01T14:38:58.662Z</time></trkpt><trkpt lat="43.3783717" lon="10.9599658"><ele>301.0</ele><time>2026-05-01T14:39:00.649Z</time></trkpt><trkpt lat="43.37845" lon="10.9599059"><ele>301.0</ele><time>2026-05-01T14:39:02.667Z</time></trkpt><trkpt lat="43.3784959" lon="10.9598299"><ele>301.0</ele><time>2026-05-01T14:39:04.645Z</time></trkpt><trkpt lat="43.3785549" lon="10.9597442"><ele>301.0</ele><time>2026-05-01T14:39:07.657Z</time></trkpt><trkpt lat="43.3786245" lon="10.9596959"><ele>301.0</ele><time>2026-05-01T14:39:10.658Z</time></trkpt><trkpt lat="43.3787109" lon="10.9596645"><ele>301.0</ele><time>2026-05-01T14:39:13.658Z</time></trkpt><trkpt lat="43.3787827" lon="10.9596501"><ele>301.0</ele><time>2026-05-01T14:39:15.659Z</time></trkpt><trkpt lat="43.3788795" lon="10.959621"><ele>299.6</ele><time>2026-05-01T14:39:17.648Z</time></trkpt><trkpt lat="43.3789886" lon="10.95958"><ele>298.20000000000005</ele><time>2026-05-01T14:39:19.656Z</time></trkpt><trkpt lat="43.3791113" lon="10.9595351"><ele>296.79999999999995</ele><time>2026-05-01T14:39:21.66Z</time></trkpt><trkpt lat="43.3791785" lon="10.9595102"><ele>295.4</ele><time>2026-05-01T14:39:22.659Z</time></trkpt><trkpt lat="43.3792485" lon="10.9594825"><ele>294.0</ele><time>2026-05-01T14:39:23.66Z</time></trkpt><trkpt lat="43.3793257" lon="10.9594624"><ele>294.0</ele><time>2026-05-01T14:39:24.655Z</time></trkpt><trkpt lat="43.3794029" lon="10.9594379"><ele>294.0</ele><time>2026-05-01T14:39:25.661Z</time></trkpt><trkpt lat="43.379479" lon="10.9594009"><ele>294.0</ele><time>2026-05-01T14:39:26.661Z</time></trkpt><trkpt lat="43.3795534" lon="10.9593663"><ele>294.0</ele><time>2026-05-01T14:39:27.658Z</time></trkpt><trkpt lat="43.3796349" lon="10.9593351"><ele>294.0</ele><time>2026-05-01T14:39:28.656Z</time></trkpt><trkpt lat="43.3797237" lon="10.9593008"><ele>294.0</ele><time>2026-05-01T14:39:29.654Z</time></trkpt><trkpt lat="43.3798145" lon="10.9592661"><ele>291.8</ele><time>2026-05-01T14:39:30.671Z</time></trkpt><trkpt lat="43.3799144" lon="10.9592322"><ele>289.59999999999997</ele><time>2026-05-01T14:39:31.661Z</time></trkpt><trkpt lat="43.3800094" lon="10.9592029"><ele>287.4</ele><time>2026-05-01T14:39:32.654Z</time></trkpt><trkpt lat="43.380108" lon="10.9591723"><ele>285.2</ele><time>2026-05-01T14:39:33.658Z</time></trkpt><trkpt lat="43.3802084" lon="10.9591377"><ele>283.0</ele><time>2026-05-01T14:39:34.651Z</time></trkpt><trkpt lat="43.3803067" lon="10.9590978"><ele>283.0</ele><time>2026-05-01T14:39:35.643Z</time></trkpt><trkpt lat="43.3803992" lon="10.9590656"><ele>283.0</ele><time>2026-05-01T14:39:36.669Z</time></trkpt><trkpt lat="43.3804954" lon="10.959029"><ele>283.0</ele><time>2026-05-01T14:39:37.656Z</time></trkpt><trkpt lat="43.3805928" lon="10.95899"><ele>283.0</ele><time>2026-05-01T14:39:38.652Z</time></trkpt><trkpt lat="43.380687" lon="10.958959"><ele>283.0</ele><time>2026-05-01T14:39:39.647Z</time></trkpt><trkpt lat="43.3807862" lon="10.958928"><ele>281.8</ele><time>2026-05-01T14:39:40.654Z</time></trkpt><trkpt lat="43.3808829" lon="10.9588945"><ele>280.6</ele><time>2026-05-01T14:39:41.659Z</time></trkpt><trkpt lat="43.380984" lon="10.958854"><ele>279.4</ele><time>2026-05-01T14:39:42.656Z</time></trkpt><trkpt lat="43.381086" lon="10.9588215"><ele>278.2</ele><time>2026-05-01T14:39:43.652Z</time></trkpt><trkpt lat="43.3811841" lon="10.9587823"><ele>277.0</ele><time>2026-05-01T14:39:44.672Z</time></trkpt><trkpt lat="43.3812831" lon="10.9587487"><ele>276.2</ele><time>2026-05-01T14:39:45.657Z</time></trkpt><trkpt lat="43.3813794" lon="10.9587113"><ele>275.4</ele><time>2026-05-01T14:39:46.644Z</time></trkpt><trkpt lat="43.3814725" lon="10.9586678"><ele>274.6</ele><time>2026-05-01T14:39:47.664Z</time></trkpt><trkpt lat="43.3815639" lon="10.9586211"><ele>273.8</ele><time>2026-05-01T14:39:48.648Z</time></trkpt><trkpt lat="43.3816498" lon="10.9585669"><ele>273.0</ele><time>2026-05-01T14:39:49.652Z</time></trkpt><trkpt lat="43.3817381" lon="10.9585168"><ele>273.0</ele><time>2026-05-01T14:39:50.655Z</time></trkpt><trkpt lat="43.3818225" lon="10.9584565"><ele>273.0</ele><time>2026-05-01T14:39:51.647Z</time></trkpt><trkpt lat="43.3819026" lon="10.9583904"><ele>273.0</ele><time>2026-05-01T14:39:52.656Z</time></trkpt><trkpt lat="43.3819727" lon="10.9583283"><ele>273.0</ele><time>2026-05-01T14:39:53.664Z</time></trkpt><trkpt lat="43.3820459" lon="10.9582596"><ele>273.0</ele><time>2026-05-01T14:39:54.647Z</time></trkpt><trkpt lat="43.3821193" lon="10.9581969"><ele>273.0</ele><time>2026-05-01T14:39:55.652Z</time></trkpt><trkpt lat="43.3821941" lon="10.9581315"><ele>274.6</ele><time>2026-05-01T14:39:56.657Z</time></trkpt><trkpt lat="43.3822755" lon="10.9580742"><ele>276.20000000000005</ele><time>2026-05-01T14:39:57.66Z</time></trkpt><trkpt lat="43.3823666" lon="10.9580327"><ele>277.8</ele><time>2026-05-01T14:39:58.654Z</time></trkpt><trkpt lat="43.3824683" lon="10.9579884"><ele>279.40000000000003</ele><time>2026-05-01T14:39:59.652Z</time></trkpt><trkpt lat="43.3825728" lon="10.9579417"><ele>281.0</ele><time>2026-05-01T14:40:00.665Z</time></trkpt><trkpt lat="43.3826793" lon="10.9578882"><ele>281.0</ele><time>2026-05-01T14:40:01.65Z</time></trkpt><trkpt lat="43.3827875" lon="10.9578205"><ele>281.0</ele><time>2026-05-01T14:40:02.661Z</time></trkpt><trkpt lat="43.3829041" lon="10.9577394"><ele>281.0</ele><time>2026-05-01T14:40:03.659Z</time></trkpt><trkpt lat="43.38302" lon="10.9576588"><ele>281.0</ele><time>2026-05-01T14:40:04.651Z</time></trkpt><trkpt lat="43.3831437" lon="10.9575836"><ele>283.5</ele><time>2026-05-01T14:40:05.651Z</time></trkpt><trkpt lat="43.3832805" lon="10.9575068"><ele>286.0</ele><time>2026-05-01T14:40:06.669Z</time></trkpt><trkpt lat="43.3834185" lon="10.9574267"><ele>288.5</ele><time>2026-05-01T14:40:07.647Z</time></trkpt><trkpt lat="43.3835528" lon="10.9573358"><ele>291.0</ele><time>2026-05-01T14:40:08.637Z</time></trkpt><trkpt lat="43.383685" lon="10.9572411"><ele>291.0</ele><time>2026-05-01T14:40:09.653Z</time></trkpt><trkpt lat="43.3838195" lon="10.9571397"><ele>291.0</ele><time>2026-05-01T14:40:10.645Z</time></trkpt><trkpt lat="43.3839528" lon="10.9570531"><ele>291.0</ele><time>2026-05-01T14:40:11.66Z</time></trkpt><trkpt lat="43.3840883" lon="10.9569898"><ele>291.0</ele><time>2026-05-01T14:40:12.651Z</time></trkpt><trkpt lat="43.3842356" lon="10.9569633"><ele>292.6666666666667</ele><time>2026-05-01T14:40:13.654Z</time></trkpt><trkpt lat="43.3843908" lon="10.9569424"><ele>294.33333333333337</ele><time>2026-05-01T14:40:14.651Z</time></trkpt><trkpt lat="43.3845565" lon="10.9569296"><ele>296.0</ele><time>2026-05-01T14:40:15.65Z</time></trkpt><trkpt lat="43.3847181" lon="10.9569066"><ele>297.0</ele><time>2026-05-01T14:40:16.654Z</time></trkpt><trkpt lat="43.3848742" lon="10.9568634"><ele>298.0</ele><time>2026-05-01T14:40:17.657Z</time></trkpt><trkpt lat="43.3850285" lon="10.9568085"><ele>299.0</ele><time>2026-05-01T14:40:18.658Z</time></trkpt><trkpt lat="43.3851588" lon="10.956752"><ele>302.0</ele><time>2026-05-01T14:40:19.654Z</time></trkpt><trkpt lat="43.3852748" lon="10.9566994"><ele>305.0</ele><time>2026-05-01T14:40:20.649Z</time></trkpt><trkpt lat="43.3853861" lon="10.9566303"><ele>308.0</ele><time>2026-05-01T14:40:21.653Z</time></trkpt><trkpt lat="43.3854909" lon="10.9565507"><ele>311.0</ele><time>2026-05-01T14:40:22.658Z</time></trkpt><trkpt lat="43.3855757" lon="10.9564554"><ele>311.75</ele><time>2026-05-01T14:40:23.662Z</time></trkpt><trkpt lat="43.3856441" lon="10.9563353"><ele>312.5</ele><time>2026-05-01T14:40:24.656Z</time></trkpt><trkpt lat="43.3857074" lon="10.9561968"><ele>313.25</ele><time>2026-05-01T14:40:25.658Z</time></trkpt><trkpt lat="43.3857641" lon="10.9560447"><ele>314.0</ele><time>2026-05-01T14:40:26.648Z</time></trkpt><trkpt lat="43.3858166" lon="10.9558851"><ele>316.75</ele><time>2026-05-01T14:40:27.648Z</time></trkpt><trkpt lat="43.3858731" lon="10.9557146"><ele>319.5</ele><time>2026-05-01T14:40:28.658Z</time></trkpt><trkpt lat="43.3859361" lon="10.955544"><ele>322.25</ele><time>2026-05-01T14:40:29.663Z</time></trkpt><trkpt lat="43.3859982" lon="10.9553632"><ele>325.0</ele><time>2026-05-01T14:40:30.654Z</time></trkpt><trkpt lat="43.3860534" lon="10.9551838"><ele>326.6</ele><time>2026-05-01T14:40:31.653Z</time></trkpt><trkpt lat="43.3861029" lon="10.9550231"><ele>328.2</ele><time>2026-05-01T14:40:32.65Z</time></trkpt><trkpt lat="43.3861535" lon="10.9548905"><ele>329.79999999999995</ele><time>2026-05-01T14:40:33.649Z</time></trkpt><trkpt lat="43.3862093" lon="10.9547968"><ele>331.4</ele><time>2026-05-01T14:40:34.666Z</time></trkpt><trkpt lat="43.3862512" lon="10.9547299"><ele>333.0</ele><time>2026-05-01T14:40:35.662Z</time></trkpt><trkpt lat="43.3862952" lon="10.9546336"><ele>333.0</ele><time>2026-05-01T14:40:37.653Z</time></trkpt><trkpt lat="43.3863405" lon="10.9545368"><ele>333.0</ele><time>2026-05-01T14:40:40.65Z</time></trkpt><trkpt lat="43.3863541" lon="10.9544144"><ele>333.0</ele><time>2026-05-01T14:40:43.649Z</time></trkpt><trkpt lat="43.386353" lon="10.9543269"><ele>333.0</ele><time>2026-05-01T14:40:44.657Z</time></trkpt><trkpt lat="43.3863512" lon="10.9542313"><ele>333.0</ele><time>2026-05-01T14:40:45.644Z</time></trkpt><trkpt lat="43.3863611" lon="10.9541238"><ele>333.0</ele><time>2026-05-01T14:40:46.651Z</time></trkpt><trkpt lat="43.3863828" lon="10.954041"><ele>333.0</ele><time>2026-05-01T14:40:47.655Z</time></trkpt><trkpt lat="43.3864655" lon="10.9539425"><ele>335.79999999999995</ele><time>2026-05-01T14:40:49.662Z</time></trkpt><trkpt lat="43.386598" lon="10.9539227"><ele>338.6</ele><time>2026-05-01T14:40:51.65Z</time></trkpt><trkpt lat="43.3866821" lon="10.9539483"><ele>341.4</ele><time>2026-05-01T14:40:52.656Z</time></trkpt><trkpt lat="43.3867773" lon="10.9539848"><ele>344.20000000000005</ele><time>2026-05-01T14:40:53.644Z</time></trkpt><trkpt lat="43.3868704" lon="10.9540153"><ele>347.0</ele><time>2026-05-01T14:40:54.651Z</time></trkpt><trkpt lat="43.3869511" lon="10.9540711"><ele>347.0</ele><time>2026-05-01T14:40:55.662Z</time></trkpt><trkpt lat="43.3870088" lon="10.954162"><ele>347.0</ele><time>2026-05-01T14:40:56.655Z</time></trkpt><trkpt lat="43.3870522" lon="10.9542583"><ele>347.0</ele><time>2026-05-01T14:40:57.659Z</time></trkpt><trkpt lat="43.3870787" lon="10.9543625"><ele>347.0</ele><time>2026-05-01T14:40:58.66Z</time></trkpt><trkpt lat="43.3871158" lon="10.9544419"><ele>347.0</ele><time>2026-05-01T14:40:59.645Z</time></trkpt><trkpt lat="43.3872015" lon="10.9545444"><ele>347.0</ele><time>2026-05-01T14:41:01.661Z</time></trkpt><trkpt lat="43.387289" lon="10.9545263"><ele>347.1666666666667</ele><time>2026-05-01T14:41:03.649Z</time></trkpt><trkpt lat="43.3873837" lon="10.9544352"><ele>347.33333333333337</ele><time>2026-05-01T14:41:05.661Z</time></trkpt><trkpt lat="43.3874378" lon="10.95436"><ele>347.5</ele><time>2026-05-01T14:41:06.652Z</time></trkpt><trkpt lat="43.3874999" lon="10.9542782"><ele>347.6666666666667</ele><time>2026-05-01T14:41:07.648Z</time></trkpt><trkpt lat="43.3875552" lon="10.9541993"><ele>347.8333333333333</ele><time>2026-05-01T14:41:08.653Z</time></trkpt><trkpt lat="43.3875949" lon="10.9541074"><ele>348.0</ele><time>2026-05-01T14:41:09.65Z</time></trkpt><trkpt lat="43.38761" lon="10.9540166"><ele>350.3333333333333</ele><time>2026-05-01T14:41:10.649Z</time></trkpt><trkpt lat="43.3876103" lon="10.9539177"><ele>352.6666666666667</ele><time>2026-05-01T14:41:11.64Z</time></trkpt><trkpt lat="43.3876049" lon="10.9538156"><ele>355.0</ele><time>2026-05-01T14:41:12.651Z</time></trkpt><trkpt lat="43.3875787" lon="10.9537162"><ele>357.33333333333337</ele><time>2026-05-01T14:41:13.653Z</time></trkpt><trkpt lat="43.3875187" lon="10.95364"><ele>359.6666666666667</ele><time>2026-05-01T14:41:14.651Z</time></trkpt><trkpt lat="43.3874487" lon="10.9535633"><ele>362.0</ele><time>2026-05-01T14:41:15.649Z</time></trkpt><trkpt lat="43.387384" lon="10.9534888"><ele>362.0</ele><time>2026-05-01T14:41:16.652Z</time></trkpt><trkpt lat="43.3873384" lon="10.9534209"><ele>362.0</ele><time>2026-05-01T14:41:17.645Z</time></trkpt><trkpt lat="43.3873075" lon="10.9533261"><ele>362.0</ele><time>2026-05-01T14:41:18.646Z</time></trkpt><trkpt lat="43.3872872" lon="10.9532198"><ele>362.0</ele><time>2026-05-01T14:41:19.66Z</time></trkpt><trkpt lat="43.387291" lon="10.9531087"><ele>362.0</ele><time>2026-05-01T14:41:20.65Z</time></trkpt><trkpt lat="43.3872945" lon="10.9529899"><ele>362.0</ele><time>2026-05-01T14:41:21.665Z</time></trkpt><trkpt lat="43.3873096" lon="10.9528585"><ele>364.8</ele><time>2026-05-01T14:41:22.646Z</time></trkpt><trkpt lat="43.3873266" lon="10.9527122"><ele>367.6</ele><time>2026-05-01T14:41:23.65Z</time></trkpt><trkpt lat="43.387342" lon="10.9525501"><ele>370.40000000000003</ele><time>2026-05-01T14:41:24.643Z</time></trkpt><trkpt lat="43.3873459" lon="10.9524098"><ele>373.20000000000005</ele><time>2026-05-01T14:41:25.655Z</time></trkpt><trkpt lat="43.387335" lon="10.9522739"><ele>376.0</ele><time>2026-05-01T14:41:26.645Z</time></trkpt><trkpt lat="43.3873101" lon="10.9521603"><ele>377.66666666666663</ele><time>2026-05-01T14:41:27.652Z</time></trkpt><trkpt lat="43.3872902" lon="10.952076"><ele>379.3333333333333</ele><time>2026-05-01T14:41:28.647Z</time></trkpt><trkpt lat="43.3872813" lon="10.951986"><ele>381.0</ele><time>2026-05-01T14:41:29.655Z</time></trkpt><trkpt lat="43.3873238" lon="10.9518783"><ele>382.66666666666663</ele><time>2026-05-01T14:41:31.65Z</time></trkpt><trkpt lat="43.3873961" lon="10.9519308"><ele>384.3333333333333</ele><time>2026-05-01T14:41:33.66Z</time></trkpt><trkpt lat="43.3874282" lon="10.9520223"><ele>386.0</ele><time>2026-05-01T14:41:34.648Z</time></trkpt><trkpt lat="43.3874416" lon="10.9521393"><ele>385.99999999999994</ele><time>2026-05-01T14:41:35.65Z</time></trkpt><trkpt lat="43.3874631" lon="10.9522316"><ele>386.0</ele><time>2026-05-01T14:41:36.648Z</time></trkpt><trkpt lat="43.3875274" lon="10.9523294"><ele>386.0</ele><time>2026-05-01T14:41:38.649Z</time></trkpt><trkpt lat="43.3875924" lon="10.9523031"><ele>386.0</ele><time>2026-05-01T14:41:40.653Z</time></trkpt><trkpt lat="43.3875956" lon="10.9521699"><ele>385.99999999999994</ele><time>2026-05-01T14:41:42.646Z</time></trkpt><trkpt lat="43.3875857" lon="10.9520825"><ele>386.0</ele><time>2026-05-01T14:41:43.652Z</time></trkpt><trkpt lat="43.3875665" lon="10.9519755"><ele>385.99999999999994</ele><time>2026-05-01T14:41:44.649Z</time></trkpt><trkpt lat="43.3875956" lon="10.9518513"><ele>386.0</ele><time>2026-05-01T14:41:46.65Z</time></trkpt><trkpt lat="43.3876652" lon="10.9518078"><ele>386.0</ele><time>2026-05-01T14:41:48.633Z</time></trkpt><trkpt lat="43.3877337" lon="10.9519124"><ele>386.0</ele><time>2026-05-01T14:41:50.648Z</time></trkpt><trkpt lat="43.3877662" lon="10.9520067"><ele>385.99999999999994</ele><time>2026-05-01T14:41:51.648Z</time></trkpt><trkpt lat="43.3877897" lon="10.952116"><ele>386.0</ele><time>2026-05-01T14:41:52.649Z</time></trkpt><trkpt lat="43.3878108" lon="10.9522283"><ele>386.0</ele><time>2026-05-01T14:41:53.657Z</time></trkpt><trkpt lat="43.3878284" lon="10.9523926"><ele>386.0</ele><time>2026-05-01T14:41:54.647Z</time></trkpt><trkpt lat="43.3878418" lon="10.9525253"><ele>386.0</ele><time>2026-05-01T14:41:55.646Z</time></trkpt><trkpt lat="43.3878495" lon="10.9526321"><ele>386.0</ele><time>2026-05-01T14:41:56.648Z</time></trkpt><trkpt lat="43.3878649" lon="10.9527323"><ele>386.0</ele><time>2026-05-01T14:41:57.645Z</time></trkpt><trkpt lat="43.3879473" lon="10.9528302"><ele>386.20000000000005</ele><time>2026-05-01T14:41:59.649Z</time></trkpt><trkpt lat="43.3880771" lon="10.9528276"><ele>386.40000000000003</ele><time>2026-05-01T14:42:01.649Z</time></trkpt><trkpt lat="43.388151" lon="10.952786"><ele>386.6</ele><time>2026-05-01T14:42:02.642Z</time></trkpt><trkpt lat="43.3882205" lon="10.9527148"><ele>386.8</ele><time>2026-05-01T14:42:03.651Z</time></trkpt><trkpt lat="43.3882917" lon="10.9526134"><ele>387.0</ele><time>2026-05-01T14:42:04.646Z</time></trkpt><trkpt lat="43.3883611" lon="10.952499"><ele>391.20000000000005</ele><time>2026-05-01T14:42:05.651Z</time></trkpt><trkpt lat="43.3884268" lon="10.952383"><ele>395.4</ele><time>2026-05-01T14:42:06.648Z</time></trkpt><trkpt lat="43.3885082" lon="10.9522774"><ele>399.6</ele><time>2026-05-01T14:42:07.652Z</time></trkpt><trkpt lat="43.3885934" lon="10.9521818"><ele>403.79999999999995</ele><time>2026-05-01T14:42:08.652Z</time></trkpt><trkpt lat="43.3886828" lon="10.9521035"><ele>408.0</ele><time>2026-05-01T14:42:09.646Z</time></trkpt><trkpt lat="43.3887771" lon="10.9520297"><ele>407.0</ele><time>2026-05-01T14:42:10.637Z</time></trkpt><trkpt lat="43.3888656" lon="10.9519575"><ele>406.0</ele><time>2026-05-01T14:42:11.647Z</time></trkpt><trkpt lat="43.3889343" lon="10.9518781"><ele>405.0</ele><time>2026-05-01T14:42:12.659Z</time></trkpt><trkpt lat="43.3889945" lon="10.9517888"><ele>404.0</ele><time>2026-05-01T14:42:13.655Z</time></trkpt><trkpt lat="43.3890648" lon="10.9516904"><ele>403.0</ele><time>2026-05-01T14:42:14.648Z</time></trkpt><trkpt lat="43.3891402" lon="10.9515954"><ele>406.0</ele><time>2026-05-01T14:42:15.651Z</time></trkpt><trkpt lat="43.3892335" lon="10.9514965"><ele>409.0</ele><time>2026-05-01T14:42:16.657Z</time></trkpt><trkpt lat="43.3893197" lon="10.9514085"><ele>412.0</ele><time>2026-05-01T14:42:17.645Z</time></trkpt><trkpt lat="43.3894019" lon="10.9513375"><ele>415.0</ele><time>2026-05-01T14:42:18.648Z</time></trkpt><trkpt lat="43.3894753" lon="10.9512864"><ele>418.0</ele><time>2026-05-01T14:42:19.66Z</time></trkpt><trkpt lat="43.3895883" lon="10.9512853"><ele>418.00000000000006</ele><time>2026-05-01T14:42:21.655Z</time></trkpt><trkpt lat="43.3896421" lon="10.9513477"><ele>418.0</ele><time>2026-05-01T14:42:22.634Z</time></trkpt><trkpt lat="43.3897013" lon="10.9514223"><ele>418.0</ele><time>2026-05-01T14:42:23.645Z</time></trkpt><trkpt lat="43.3897603" lon="10.951488"><ele>418.0</ele><time>2026-05-01T14:42:24.653Z</time></trkpt><trkpt lat="43.389813" lon="10.9515496"><ele>418.00000000000006</ele><time>2026-05-01T14:42:25.653Z</time></trkpt><trkpt lat="43.3899045" lon="10.9516465"><ele>418.0</ele><time>2026-05-01T14:42:27.651Z</time></trkpt><trkpt lat="43.389976" lon="10.9516999"><ele>417.50000000000006</ele><time>2026-05-01T14:42:29.652Z</time></trkpt><trkpt lat="43.3900409" lon="10.9517366"><ele>417.0</ele><time>2026-05-01T14:42:55.654Z</time></trkpt><trkpt lat="43.3901121" lon="10.951789"><ele>416.5</ele><time>2026-05-01T14:42:57.652Z</time></trkpt><trkpt lat="43.3901635" lon="10.9518484"><ele>416.0</ele><time>2026-05-01T14:42:58.654Z</time></trkpt><trkpt lat="43.3902142" lon="10.9519285"><ele>415.50000000000006</ele><time>2026-05-01T14:42:59.656Z</time></trkpt><trkpt lat="43.3902749" lon="10.9520075"><ele>415.0</ele><time>2026-05-01T14:43:00.659Z</time></trkpt><trkpt lat="43.3903446" lon="10.9520966"><ele>415.0</ele><time>2026-05-01T14:43:01.653Z</time></trkpt><trkpt lat="43.3904177" lon="10.9521911"><ele>415.0</ele><time>2026-05-01T14:43:02.652Z</time></trkpt><trkpt lat="43.3904823" lon="10.9522824"><ele>415.0</ele><time>2026-05-01T14:43:03.651Z</time></trkpt><trkpt lat="43.3905467" lon="10.9523682"><ele>415.0</ele><time>2026-05-01T14:43:04.662Z</time></trkpt><trkpt lat="43.3906109" lon="10.9524574"><ele>415.0</ele><time>2026-05-01T14:43:05.65Z</time></trkpt><trkpt lat="43.3906765" lon="10.95255"><ele>417.0</ele><time>2026-05-01T14:43:06.668Z</time></trkpt><trkpt lat="43.3907507" lon="10.9526457"><ele>419.0</ele><time>2026-05-01T14:43:07.657Z</time></trkpt><trkpt lat="43.3908253" lon="10.9527405"><ele>421.0</ele><time>2026-05-01T14:43:08.656Z</time></trkpt><trkpt lat="43.3908946" lon="10.9528319"><ele>423.0</ele><time>2026-05-01T14:43:09.655Z</time></trkpt><trkpt lat="43.3909718" lon="10.9529241"><ele>425.0</ele><time>2026-05-01T14:43:10.658Z</time></trkpt><trkpt lat="43.3910588" lon="10.9530193"><ele>425.0</ele><time>2026-05-01T14:43:11.65Z</time></trkpt><trkpt lat="43.3911453" lon="10.9531209"><ele>425.0</ele><time>2026-05-01T14:43:12.656Z</time></trkpt><trkpt lat="43.3912415" lon="10.953225"><ele>425.0</ele><time>2026-05-01T14:43:13.655Z</time></trkpt><trkpt lat="43.3913453" lon="10.9533282"><ele>425.0</ele><time>2026-05-01T14:43:14.654Z</time></trkpt><trkpt lat="43.3914496" lon="10.9534374"><ele>426.5</ele><time>2026-05-01T14:43:15.671Z</time></trkpt><trkpt lat="43.3915584" lon="10.9535455"><ele>428.0</ele><time>2026-05-01T14:43:16.65Z</time></trkpt><trkpt lat="43.3916734" lon="10.9536548"><ele>429.5</ele><time>2026-05-01T14:43:17.655Z</time></trkpt><trkpt lat="43.3917944" lon="10.953756"><ele>431.0</ele><time>2026-05-01T14:43:18.648Z</time></trkpt><trkpt lat="43.3919204" lon="10.953852"><ele>431.0</ele><time>2026-05-01T14:43:19.668Z</time></trkpt><trkpt lat="43.3920444" lon="10.9539477"><ele>431.0</ele><time>2026-05-01T14:43:20.666Z</time></trkpt><trkpt lat="43.3921711" lon="10.9540391"><ele>431.0</ele><time>2026-05-01T14:43:21.657Z</time></trkpt><trkpt lat="43.3922996" lon="10.9541197"><ele>431.0</ele><time>2026-05-01T14:43:22.651Z</time></trkpt><trkpt lat="43.3924244" lon="10.9542005"><ele>432.75</ele><time>2026-05-01T14:43:23.652Z</time></trkpt><trkpt lat="43.392551" lon="10.9542787"><ele>434.5</ele><time>2026-05-01T14:43:24.658Z</time></trkpt><trkpt lat="43.3926763" lon="10.954359"><ele>436.25</ele><time>2026-05-01T14:43:25.653Z</time></trkpt><trkpt lat="43.3928049" lon="10.9544388"><ele>438.0</ele><time>2026-05-01T14:43:26.642Z</time></trkpt><trkpt lat="43.3929345" lon="10.9545217"><ele>436.5</ele><time>2026-05-01T14:43:27.644Z</time></trkpt><trkpt lat="43.3930732" lon="10.9546089"><ele>435.0</ele><time>2026-05-01T14:43:28.648Z</time></trkpt><trkpt lat="43.3932097" lon="10.954692"><ele>433.5</ele><time>2026-05-01T14:43:29.657Z</time></trkpt><trkpt lat="43.3933429" lon="10.9547624"><ele>432.0</ele><time>2026-05-01T14:43:30.651Z</time></trkpt><trkpt lat="43.3934745" lon="10.9548299"><ele>432.0</ele><time>2026-05-01T14:43:31.645Z</time></trkpt><trkpt lat="43.393607" lon="10.9549148"><ele>432.0</ele><time>2026-05-01T14:43:32.646Z</time></trkpt><trkpt lat="43.39374" lon="10.9550187"><ele>432.0</ele><time>2026-05-01T14:43:33.655Z</time></trkpt><trkpt lat="43.3938741" lon="10.9551377"><ele>431.0</ele><time>2026-05-01T14:43:34.654Z</time></trkpt><trkpt lat="43.3940043" lon="10.955265"><ele>430.0</ele><time>2026-05-01T14:43:35.656Z</time></trkpt><trkpt lat="43.3941307" lon="10.9553969"><ele>429.0</ele><time>2026-05-01T14:43:36.651Z</time></trkpt><trkpt lat="43.3942457" lon="10.9555339"><ele>429.0</ele><time>2026-05-01T14:43:37.647Z</time></trkpt><trkpt lat="43.3943476" lon="10.95568"><ele>429.0</ele><time>2026-05-01T14:43:38.652Z</time></trkpt><trkpt lat="43.3944434" lon="10.9558289"><ele>429.0</ele><time>2026-05-01T14:43:39.649Z</time></trkpt><trkpt lat="43.3945366" lon="10.9559901"><ele>429.0</ele><time>2026-05-01T14:43:40.644Z</time></trkpt><trkpt lat="43.3946231" lon="10.9561643"><ele>426.66666666666663</ele><time>2026-05-01T14:43:41.657Z</time></trkpt><trkpt lat="43.3947102" lon="10.9563384"><ele>424.3333333333333</ele><time>2026-05-01T14:43:42.649Z</time></trkpt><trkpt lat="43.3947891" lon="10.9565316"><ele>422.0</ele><time>2026-05-01T14:43:43.661Z</time></trkpt><trkpt lat="43.3948636" lon="10.9567298"><ele>422.0</ele><time>2026-05-01T14:43:44.657Z</time></trkpt><trkpt lat="43.3949398" lon="10.9569368"><ele>422.0</ele><time>2026-05-01T14:43:45.652Z</time></trkpt><trkpt lat="43.3950169" lon="10.9571511"><ele>422.0</ele><time>2026-05-01T14:43:46.67Z</time></trkpt><trkpt lat="43.3950935" lon="10.9573647"><ele>423.0</ele><time>2026-05-01T14:43:47.648Z</time></trkpt><trkpt lat="43.3951735" lon="10.9575861"><ele>424.0</ele><time>2026-05-01T14:43:48.66Z</time></trkpt><trkpt lat="43.3952522" lon="10.9578087"><ele>425.0</ele><time>2026-05-01T14:43:49.646Z</time></trkpt><trkpt lat="43.395335" lon="10.9580336"><ele>425.0</ele><time>2026-05-01T14:43:50.652Z</time></trkpt><trkpt lat="43.3954199" lon="10.9582645"><ele>425.0</ele><time>2026-05-01T14:43:51.662Z</time></trkpt><trkpt lat="43.3955034" lon="10.9584895"><ele>425.0</ele><time>2026-05-01T14:43:52.647Z</time></trkpt><trkpt lat="43.3955797" lon="10.9587069"><ele>419.3333333333333</ele><time>2026-05-01T14:43:53.648Z</time></trkpt><trkpt lat="43.3956591" lon="10.9589214"><ele>413.66666666666663</ele><time>2026-05-01T14:43:54.653Z</time></trkpt><trkpt lat="43.395739" lon="10.9591331"><ele>408.0</ele><time>2026-05-01T14:43:55.682Z</time></trkpt><trkpt lat="43.395824" lon="10.9593406"><ele>408.0</ele><time>2026-05-01T14:43:56.663Z</time></trkpt><trkpt lat="43.395913" lon="10.959537"><ele>408.0</ele><time>2026-05-01T14:43:57.658Z</time></trkpt><trkpt lat="43.3960063" lon="10.959729"><ele>408.0</ele><time>2026-05-01T14:43:58.648Z</time></trkpt><trkpt lat="43.3961111" lon="10.9599175"><ele>407.66666666666663</ele><time>2026-05-01T14:43:59.662Z</time></trkpt><trkpt lat="43.3962222" lon="10.9601079"><ele>407.3333333333333</ele><time>2026-05-01T14:44:00.651Z</time></trkpt><trkpt lat="43.3963447" lon="10.9602875"><ele>407.0</ele><time>2026-05-01T14:44:01.654Z</time></trkpt><trkpt lat="43.3964704" lon="10.960457"><ele>407.0</ele><time>2026-05-01T14:44:02.692Z</time></trkpt><trkpt lat="43.3965959" lon="10.9606257"><ele>407.0</ele><time>2026-05-01T14:44:03.654Z</time></trkpt><trkpt lat="43.3967248" lon="10.9607878"><ele>407.0</ele><time>2026-05-01T14:44:04.666Z</time></trkpt><trkpt lat="43.3968558" lon="10.9609471"><ele>406.66666666666663</ele><time>2026-05-01T14:44:05.652Z</time></trkpt><trkpt lat="43.3969829" lon="10.9611116"><ele>406.33333333333337</ele><time>2026-05-01T14:44:06.644Z</time></trkpt><trkpt lat="43.3971079" lon="10.9612698"><ele>406.0</ele><time>2026-05-01T14:44:07.658Z</time></trkpt><trkpt lat="43.3972311" lon="10.9614258"><ele>408.0</ele><time>2026-05-01T14:44:08.647Z</time></trkpt><trkpt lat="43.3973574" lon="10.961582"><ele>410.0</ele><time>2026-05-01T14:44:09.655Z</time></trkpt><trkpt lat="43.3974859" lon="10.9617419"><ele>412.0</ele><time>2026-05-01T14:44:10.662Z</time></trkpt><trkpt lat="43.3976162" lon="10.9619007"><ele>413.0</ele><time>2026-05-01T14:44:11.678Z</time></trkpt><trkpt lat="43.3977484" lon="10.9620618"><ele>414.0</ele><time>2026-05-01T14:44:12.659Z</time></trkpt><trkpt lat="43.3978774" lon="10.9622231"><ele>415.0</ele><time>2026-05-01T14:44:13.654Z</time></trkpt><trkpt lat="43.398001" lon="10.9623904"><ele>415.0</ele><time>2026-05-01T14:44:14.647Z</time></trkpt><trkpt lat="43.3981336" lon="10.9625518"><ele>415.0</ele><time>2026-05-01T14:44:15.655Z</time></trkpt><trkpt lat="43.3982675" lon="10.9627094"><ele>415.0</ele><time>2026-05-01T14:44:16.647Z</time></trkpt><trkpt lat="43.3983973" lon="10.9628682"><ele>415.0</ele><time>2026-05-01T14:44:17.659Z</time></trkpt><trkpt lat="43.3985238" lon="10.9630255"><ele>415.0</ele><time>2026-05-01T14:44:18.658Z</time></trkpt><trkpt lat="43.3986492" lon="10.9631816"><ele>415.0</ele><time>2026-05-01T14:44:19.652Z</time></trkpt><trkpt lat="43.3987765" lon="10.9633376"><ele>416.33333333333337</ele><time>2026-05-01T14:44:20.661Z</time></trkpt><trkpt lat="43.3989004" lon="10.9634915"><ele>417.66666666666663</ele><time>2026-05-01T14:44:21.665Z</time></trkpt><trkpt lat="43.3990272" lon="10.9636526"><ele>419.0</ele><time>2026-05-01T14:44:22.653Z</time></trkpt><trkpt lat="43.3991516" lon="10.9638155"><ele>419.0</ele><time>2026-05-01T14:44:23.665Z</time></trkpt><trkpt lat="43.3992738" lon="10.9639847"><ele>419.0</ele><time>2026-05-01T14:44:24.639Z</time></trkpt><trkpt lat="43.3993914" lon="10.9641582"><ele>419.0</ele><time>2026-05-01T14:44:25.65Z</time></trkpt><trkpt lat="43.3995091" lon="10.9643332"><ele>419.0</ele><time>2026-05-01T14:44:26.649Z</time></trkpt><trkpt lat="43.3996208" lon="10.9645156"><ele>419.0</ele><time>2026-05-01T14:44:27.651Z</time></trkpt><trkpt lat="43.399735" lon="10.9646968"><ele>419.0</ele><time>2026-05-01T14:44:28.653Z</time></trkpt><trkpt lat="43.3998368" lon="10.9648825"><ele>420.3333333333333</ele><time>2026-05-01T14:44:29.653Z</time></trkpt><trkpt lat="43.3999359" lon="10.965071"><ele>421.66666666666663</ele><time>2026-05-01T14:44:30.66Z</time></trkpt><trkpt lat="43.4000311" lon="10.9652601"><ele>423.0</ele><time>2026-05-01T14:44:31.654Z</time></trkpt><trkpt lat="43.4001267" lon="10.965461"><ele>423.0</ele><time>2026-05-01T14:44:32.651Z</time></trkpt><trkpt lat="43.400218" lon="10.9656629"><ele>423.0</ele><time>2026-05-01T14:44:33.642Z</time></trkpt><trkpt lat="43.4003107" lon="10.965865"><ele>423.0</ele><time>2026-05-01T14:44:34.663Z</time></trkpt><trkpt lat="43.4004016" lon="10.9660638"><ele>424.0</ele><time>2026-05-01T14:44:35.65Z</time></trkpt><trkpt lat="43.4004941" lon="10.9662655"><ele>425.0</ele><time>2026-05-01T14:44:36.654Z</time></trkpt><trkpt lat="43.4005867" lon="10.9664709"><ele>426.0</ele><time>2026-05-01T14:44:37.658Z</time></trkpt><trkpt lat="43.40068" lon="10.9666732"><ele>427.33333333333337</ele><time>2026-05-01T14:44:38.652Z</time></trkpt><trkpt lat="43.4007667" lon="10.9668707"><ele>428.6666666666667</ele><time>2026-05-01T14:44:39.665Z</time></trkpt><trkpt lat="43.4008444" lon="10.9670766"><ele>430.0</ele><time>2026-05-01T14:44:40.647Z</time></trkpt><trkpt lat="43.400912" lon="10.9672777"><ele>430.0</ele><time>2026-05-01T14:44:41.643Z</time></trkpt><trkpt lat="43.4009804" lon="10.9674859"><ele>430.0</ele><time>2026-05-01T14:44:42.653Z</time></trkpt><trkpt lat="43.4010503" lon="10.9676934"><ele>430.0</ele><time>2026-05-01T14:44:43.677Z</time></trkpt><trkpt lat="43.4011214" lon="10.9679038"><ele>430.33333333333337</ele><time>2026-05-01T14:44:44.651Z</time></trkpt><trkpt lat="43.4011909" lon="10.9681065"><ele>430.66666666666663</ele><time>2026-05-01T14:44:45.646Z</time></trkpt><trkpt lat="43.4012602" lon="10.9683076"><ele>431.0</ele><time>2026-05-01T14:44:46.64Z</time></trkpt><trkpt lat="43.4013318" lon="10.9685017"><ele>434.3333333333333</ele><time>2026-05-01T14:44:47.658Z</time></trkpt><trkpt lat="43.4013989" lon="10.9687006"><ele>437.66666666666663</ele><time>2026-05-01T14:44:48.65Z</time></trkpt><trkpt lat="43.4014678" lon="10.9689053"><ele>441.0</ele><time>2026-05-01T14:44:49.659Z</time></trkpt><trkpt lat="43.4015383" lon="10.9691119"><ele>442.66666666666663</ele><time>2026-05-01T14:44:50.653Z</time></trkpt><trkpt lat="43.4016168" lon="10.9693387"><ele>444.3333333333333</ele><time>2026-05-01T14:44:51.655Z</time></trkpt><trkpt lat="43.4017045" lon="10.9695794"><ele>446.0</ele><time>2026-05-01T14:44:52.655Z</time></trkpt><trkpt lat="43.4017922" lon="10.9698006"><ele>446.0</ele><time>2026-05-01T14:44:53.653Z</time></trkpt><trkpt lat="43.4018895" lon="10.9699978"><ele>446.0</ele><time>2026-05-01T14:44:54.647Z</time></trkpt><trkpt lat="43.401994" lon="10.9701905"><ele>446.0</ele><time>2026-05-01T14:44:55.656Z</time></trkpt><trkpt lat="43.4021004" lon="10.970379"><ele>446.3333333333333</ele><time>2026-05-01T14:44:56.637Z</time></trkpt><trkpt lat="43.4022038" lon="10.9705584"><ele>446.66666666666663</ele><time>2026-05-01T14:44:57.654Z</time></trkpt><trkpt lat="43.4023147" lon="10.9707447"><ele>447.0</ele><time>2026-05-01T14:44:58.654Z</time></trkpt><trkpt lat="43.4024204" lon="10.9709357"><ele>450.33333333333337</ele><time>2026-05-01T14:44:59.653Z</time></trkpt><trkpt lat="43.4025212" lon="10.9711237"><ele>453.6666666666667</ele><time>2026-05-01T14:45:00.655Z</time></trkpt><trkpt lat="43.4026253" lon="10.9713111"><ele>457.0</ele><time>2026-05-01T14:45:01.658Z</time></trkpt><trkpt lat="43.4027312" lon="10.9715058"><ele>457.6666666666667</ele><time>2026-05-01T14:45:02.654Z</time></trkpt><trkpt lat="43.4028328" lon="10.9716994"><ele>458.33333333333337</ele><time>2026-05-01T14:45:03.652Z</time></trkpt><trkpt lat="43.402931" lon="10.9718945"><ele>459.0</ele><time>2026-05-01T14:45:04.665Z</time></trkpt><trkpt lat="43.4030197" lon="10.9720996"><ele>459.0</ele><time>2026-05-01T14:45:05.649Z</time></trkpt><trkpt lat="43.4031116" lon="10.972305"><ele>459.0</ele><time>2026-05-01T14:45:06.654Z</time></trkpt><trkpt lat="43.403201" lon="10.9725028"><ele>459.0</ele><time>2026-05-01T14:45:07.668Z</time></trkpt><trkpt lat="43.4032885" lon="10.9727074"><ele>460.66666666666663</ele><time>2026-05-01T14:45:08.641Z</time></trkpt><trkpt lat="43.4033746" lon="10.972904"><ele>462.3333333333333</ele><time>2026-05-01T14:45:09.642Z</time></trkpt><trkpt lat="43.4034586" lon="10.9730997"><ele>464.0</ele><time>2026-05-01T14:45:10.649Z</time></trkpt><trkpt lat="43.403541" lon="10.9732832"><ele>462.66666666666663</ele><time>2026-05-01T14:45:11.654Z</time></trkpt><trkpt lat="43.4036268" lon="10.9734684"><ele>461.33333333333337</ele><time>2026-05-01T14:45:12.645Z</time></trkpt><trkpt lat="43.403712" lon="10.9736536"><ele>460.0</ele><time>2026-05-01T14:45:13.653Z</time></trkpt><trkpt lat="43.4037955" lon="10.9738414"><ele>461.25</ele><time>2026-05-01T14:45:14.653Z</time></trkpt><trkpt lat="43.4038709" lon="10.9740194"><ele>462.5</ele><time>2026-05-01T14:45:15.651Z</time></trkpt><trkpt lat="43.4039333" lon="10.9741765"><ele>463.75</ele><time>2026-05-01T14:45:16.642Z</time></trkpt><trkpt lat="43.4039862" lon="10.9743061"><ele>465.0</ele><time>2026-05-01T14:45:17.656Z</time></trkpt><trkpt lat="43.4040268" lon="10.974405"><ele>465.8333333333333</ele><time>2026-05-01T14:45:18.644Z</time></trkpt><trkpt lat="43.4040547" lon="10.974495"><ele>466.66666666666663</ele><time>2026-05-01T14:45:19.646Z</time></trkpt><trkpt lat="43.4040989" lon="10.9746191"><ele>467.5</ele><time>2026-05-01T14:45:21.653Z</time></trkpt><trkpt lat="43.4041265" lon="10.9747131"><ele>468.3333333333333</ele><time>2026-05-01T14:45:24.645Z</time></trkpt><trkpt lat="43.4041504" lon="10.9747962"><ele>469.16666666666663</ele><time>2026-05-01T14:45:29.654Z</time></trkpt><trkpt lat="43.4042243" lon="10.9748284"><ele>470.0</ele><time>2026-05-01T14:45:31.664Z</time></trkpt><trkpt lat="43.4042869" lon="10.9748129"><ele>470.0</ele><time>2026-05-01T14:45:32.644Z</time></trkpt><trkpt lat="43.404352" lon="10.9747778"><ele>470.0</ele><time>2026-05-01T14:45:33.654Z</time></trkpt><trkpt lat="43.4044309" lon="10.974754"><ele>470.0</ele><time>2026-05-01T14:45:34.65Z</time></trkpt><trkpt lat="43.4045309" lon="10.9747365"><ele>470.0</ele><time>2026-05-01T14:45:35.646Z</time></trkpt><trkpt lat="43.4046317" lon="10.9747233"><ele>470.0</ele><time>2026-05-01T14:45:36.643Z</time></trkpt><trkpt lat="43.4047356" lon="10.9747046"><ele>472.0</ele><time>2026-05-01T14:45:37.662Z</time></trkpt><trkpt lat="43.4048309" lon="10.974655"><ele>474.0</ele><time>2026-05-01T14:45:38.662Z</time></trkpt><trkpt lat="43.4049275" lon="10.9745865"><ele>476.0</ele><time>2026-05-01T14:45:39.654Z</time></trkpt><trkpt lat="43.405027" lon="10.9745071"><ele>478.0</ele><time>2026-05-01T14:45:40.647Z</time></trkpt><trkpt lat="43.4051322" lon="10.9744469"><ele>480.0</ele><time>2026-05-01T14:45:41.647Z</time></trkpt><trkpt lat="43.4052328" lon="10.974416"><ele>480.0</ele><time>2026-05-01T14:45:42.655Z</time></trkpt><trkpt lat="43.4053416" lon="10.9744341"><ele>480.0</ele><time>2026-05-01T14:45:43.642Z</time></trkpt><trkpt lat="43.4054558" lon="10.9744925"><ele>480.0</ele><time>2026-05-01T14:45:44.645Z</time></trkpt><trkpt lat="43.4055764" lon="10.9745862"><ele>480.0</ele><time>2026-05-01T14:45:45.647Z</time></trkpt><trkpt lat="43.4056994" lon="10.974695"><ele>479.33333333333337</ele><time>2026-05-01T14:45:46.644Z</time></trkpt><trkpt lat="43.4058254" lon="10.9748107"><ele>478.6666666666667</ele><time>2026-05-01T14:45:47.65Z</time></trkpt><trkpt lat="43.4059575" lon="10.9749214"><ele>478.0</ele><time>2026-05-01T14:45:48.654Z</time></trkpt><trkpt lat="43.4060988" lon="10.975025"><ele>479.6666666666667</ele><time>2026-05-01T14:45:49.647Z</time></trkpt><trkpt lat="43.4062454" lon="10.9751126"><ele>481.33333333333337</ele><time>2026-05-01T14:45:50.651Z</time></trkpt><trkpt lat="43.4063938" lon="10.9751989"><ele>483.0</ele><time>2026-05-01T14:45:51.652Z</time></trkpt><trkpt lat="43.4065463" lon="10.9752822"><ele>483.0</ele><time>2026-05-01T14:45:52.648Z</time></trkpt><trkpt lat="43.4066944" lon="10.9753729"><ele>483.0</ele><time>2026-05-01T14:45:53.66Z</time></trkpt><trkpt lat="43.4068376" lon="10.9754726"><ele>483.0</ele><time>2026-05-01T14:45:54.654Z</time></trkpt><trkpt lat="43.4069691" lon="10.9755685"><ele>483.0</ele><time>2026-05-01T14:45:55.651Z</time></trkpt><trkpt lat="43.4070968" lon="10.975656"><ele>483.0</ele><time>2026-05-01T14:45:56.648Z</time></trkpt><trkpt lat="43.4072204" lon="10.975742"><ele>483.0</ele><time>2026-05-01T14:45:57.646Z</time></trkpt><trkpt lat="43.4073392" lon="10.975821"><ele>483.0</ele><time>2026-05-01T14:45:58.668Z</time></trkpt><trkpt lat="43.407457" lon="10.9758947"><ele>485.75</ele><time>2026-05-01T14:45:59.659Z</time></trkpt><trkpt lat="43.4075725" lon="10.9759632"><ele>488.5</ele><time>2026-05-01T14:46:00.672Z</time></trkpt><trkpt lat="43.407687" lon="10.9760285"><ele>491.25</ele><time>2026-05-01T14:46:01.668Z</time></trkpt><trkpt lat="43.4078031" lon="10.9760952"><ele>494.0</ele><time>2026-05-01T14:46:02.655Z</time></trkpt><trkpt lat="43.4079189" lon="10.9761636"><ele>493.0</ele><time>2026-05-01T14:46:03.666Z</time></trkpt><trkpt lat="43.408038" lon="10.976241"><ele>492.0</ele><time>2026-05-01T14:46:04.655Z</time></trkpt><trkpt lat="43.4081447" lon="10.9763402"><ele>491.0</ele><time>2026-05-01T14:46:05.655Z</time></trkpt><trkpt lat="43.408247" lon="10.9764556"><ele>490.0</ele><time>2026-05-01T14:46:06.658Z</time></trkpt><trkpt lat="43.4083428" lon="10.9765858"><ele>492.5</ele><time>2026-05-01T14:46:07.652Z</time></trkpt><trkpt lat="43.4084366" lon="10.9767198"><ele>495.0</ele><time>2026-05-01T14:46:08.663Z</time></trkpt><trkpt lat="43.4085223" lon="10.9768445"><ele>497.5</ele><time>2026-05-01T14:46:09.643Z</time></trkpt><trkpt lat="43.4086141" lon="10.9769518"><ele>500.0</ele><time>2026-05-01T14:46:10.662Z</time></trkpt><trkpt lat="43.4087184" lon="10.9770214"><ele>500.25</ele><time>2026-05-01T14:46:11.645Z</time></trkpt><trkpt lat="43.4088298" lon="10.9770396"><ele>500.5</ele><time>2026-05-01T14:46:12.643Z</time></trkpt><trkpt lat="43.4089452" lon="10.9770197"><ele>500.75</ele><time>2026-05-01T14:46:13.651Z</time></trkpt><trkpt lat="43.4090582" lon="10.9769831"><ele>501.0</ele><time>2026-05-01T14:46:14.644Z</time></trkpt><trkpt lat="43.4091733" lon="10.9769795"><ele>501.0</ele><time>2026-05-01T14:46:15.655Z</time></trkpt><trkpt lat="43.4092981" lon="10.976996"><ele>501.0</ele><time>2026-05-01T14:46:16.649Z</time></trkpt><trkpt lat="43.4094177" lon="10.9770293"><ele>501.0</ele><time>2026-05-01T14:46:17.656Z</time></trkpt><trkpt lat="43.4095302" lon="10.977073"><ele>501.0</ele><time>2026-05-01T14:46:18.65Z</time></trkpt><trkpt lat="43.4096331" lon="10.9771334"><ele>500.4</ele><time>2026-05-01T14:46:19.65Z</time></trkpt><trkpt lat="43.4097292" lon="10.9772038"><ele>499.8</ele><time>2026-05-01T14:46:20.65Z</time></trkpt><trkpt lat="43.4098114" lon="10.9772923"><ele>499.19999999999993</ele><time>2026-05-01T14:46:21.649Z</time></trkpt><trkpt lat="43.4098743" lon="10.9774081"><ele>498.59999999999997</ele><time>2026-05-01T14:46:22.645Z</time></trkpt><trkpt lat="43.4099292" lon="10.9775415"><ele>498.0</ele><time>2026-05-01T14:46:23.664Z</time></trkpt><trkpt lat="43.4099769" lon="10.9776819"><ele>499.5</ele><time>2026-05-01T14:46:24.643Z</time></trkpt><trkpt lat="43.4100303" lon="10.9778223"><ele>501.0</ele><time>2026-05-01T14:46:25.647Z</time></trkpt><trkpt lat="43.4101" lon="10.9779531"><ele>502.5</ele><time>2026-05-01T14:46:26.654Z</time></trkpt><trkpt lat="43.4101846" lon="10.9780708"><ele>504.0</ele><time>2026-05-01T14:46:27.657Z</time></trkpt><trkpt lat="43.4102817" lon="10.9781677"><ele>504.0</ele><time>2026-05-01T14:46:28.649Z</time></trkpt><trkpt lat="43.410387" lon="10.9782286"><ele>504.0</ele><time>2026-05-01T14:46:29.662Z</time></trkpt><trkpt lat="43.4104923" lon="10.9782355"><ele>504.0</ele><time>2026-05-01T14:46:30.645Z</time></trkpt><trkpt lat="43.4105974" lon="10.9782135"><ele>504.0</ele><time>2026-05-01T14:46:31.65Z</time></trkpt><trkpt lat="43.4106967" lon="10.9781506"><ele>504.0</ele><time>2026-05-01T14:46:32.643Z</time></trkpt><trkpt lat="43.4107834" lon="10.9780729"><ele>505.4</ele><time>2026-05-01T14:46:33.664Z</time></trkpt><trkpt lat="43.4108686" lon="10.9779729"><ele>506.79999999999995</ele><time>2026-05-01T14:46:34.666Z</time></trkpt><trkpt lat="43.410945" lon="10.9778666"><ele>508.20000000000005</ele><time>2026-05-01T14:46:35.653Z</time></trkpt><trkpt lat="43.4110207" lon="10.9777751"><ele>509.6</ele><time>2026-05-01T14:46:36.645Z</time></trkpt><trkpt lat="43.4110929" lon="10.9776804"><ele>511.0</ele><time>2026-05-01T14:46:37.657Z</time></trkpt><trkpt lat="43.4111648" lon="10.9775786"><ele>512.2</ele><time>2026-05-01T14:46:38.661Z</time></trkpt><trkpt lat="43.4112428" lon="10.9774746"><ele>513.4000000000001</ele><time>2026-05-01T14:46:39.663Z</time></trkpt><trkpt lat="43.4113222" lon="10.977379"><ele>514.6</ele><time>2026-05-01T14:46:40.644Z</time></trkpt><trkpt lat="43.4114038" lon="10.9773091"><ele>515.8000000000001</ele><time>2026-05-01T14:46:41.643Z</time></trkpt><trkpt lat="43.4114936" lon="10.9772569"><ele>517.0</ele><time>2026-05-01T14:46:42.664Z</time></trkpt><trkpt lat="43.4115947" lon="10.9772389"><ele>517.0</ele><time>2026-05-01T14:46:43.655Z</time></trkpt><trkpt lat="43.4117015" lon="10.9772548"><ele>517.0</ele><time>2026-05-01T14:46:44.642Z</time></trkpt><trkpt lat="43.4118072" lon="10.9772962"><ele>517.0</ele><time>2026-05-01T14:46:45.653Z</time></trkpt><trkpt lat="43.4119114" lon="10.977351"><ele>517.0</ele><time>2026-05-01T14:46:46.646Z</time></trkpt><trkpt lat="43.4120049" lon="10.9774053"><ele>517.0</ele><time>2026-05-01T14:46:47.648Z</time></trkpt><trkpt lat="43.4120916" lon="10.9774434"><ele>518.4</ele><time>2026-05-01T14:46:48.643Z</time></trkpt><trkpt lat="43.412178" lon="10.9774788"><ele>519.8000000000001</ele><time>2026-05-01T14:46:49.643Z</time></trkpt><trkpt lat="43.4122711" lon="10.9774898"><ele>521.2</ele><time>2026-05-01T14:46:50.658Z</time></trkpt><trkpt lat="43.4123692" lon="10.9774873"><ele>522.6</ele><time>2026-05-01T14:46:51.648Z</time></trkpt><trkpt lat="43.4124706" lon="10.9774499"><ele>524.0</ele><time>2026-05-01T14:46:52.652Z</time></trkpt><trkpt lat="43.4125724" lon="10.9774007"><ele>524.0</ele><time>2026-05-01T14:46:53.656Z</time></trkpt><trkpt lat="43.4126741" lon="10.9773463"><ele>524.0</ele><time>2026-05-01T14:46:54.641Z</time></trkpt><trkpt lat="43.4127765" lon="10.9772874"><ele>524.0</ele><time>2026-05-01T14:46:55.65Z</time></trkpt><trkpt lat="43.4128711" lon="10.9772178"><ele>524.0</ele><time>2026-05-01T14:46:56.668Z</time></trkpt><trkpt lat="43.4129672" lon="10.9771546"><ele>524.0</ele><time>2026-05-01T14:46:57.649Z</time></trkpt><trkpt lat="43.4130682" lon="10.9771089"><ele>525.8</ele><time>2026-05-01T14:46:58.645Z</time></trkpt><trkpt lat="43.4131719" lon="10.9770798"><ele>527.5999999999999</ele><time>2026-05-01T14:46:59.657Z</time></trkpt><trkpt lat="43.413281" lon="10.9770784"><ele>529.4</ele><time>2026-05-01T14:47:00.649Z</time></trkpt><trkpt lat="43.4133871" lon="10.9771216"><ele>531.1999999999999</ele><time>2026-05-01T14:47:01.655Z</time></trkpt><trkpt lat="43.413492" lon="10.9771913"><ele>533.0</ele><time>2026-05-01T14:47:02.659Z</time></trkpt><trkpt lat="43.4135983" lon="10.9772592"><ele>533.0</ele><time>2026-05-01T14:47:03.652Z</time></trkpt><trkpt lat="43.41371" lon="10.9773221"><ele>533.0</ele><time>2026-05-01T14:47:04.683Z</time></trkpt><trkpt lat="43.4138298" lon="10.977354"><ele>533.0</ele><time>2026-05-01T14:47:05.649Z</time></trkpt><trkpt lat="43.4139556" lon="10.9773805"><ele>533.0</ele><time>2026-05-01T14:47:06.653Z</time></trkpt><trkpt lat="43.414085" lon="10.9773949"><ele>533.25</ele><time>2026-05-01T14:47:07.653Z</time></trkpt><trkpt lat="43.4142142" lon="10.9773755"><ele>533.5</ele><time>2026-05-01T14:47:08.659Z</time></trkpt><trkpt lat="43.414336" lon="10.9773328"><ele>533.75</ele><time>2026-05-01T14:47:09.666Z</time></trkpt><trkpt lat="43.4144583" lon="10.9772908"><ele>534.0</ele><time>2026-05-01T14:47:10.645Z</time></trkpt><trkpt lat="43.4145806" lon="10.9772504"><ele>533.5</ele><time>2026-05-01T14:47:11.641Z</time></trkpt><trkpt lat="43.4146986" lon="10.9772078"><ele>533.0</ele><time>2026-05-01T14:47:12.664Z</time></trkpt><trkpt lat="43.4148098" lon="10.9771859"><ele>532.5</ele><time>2026-05-01T14:47:13.647Z</time></trkpt><trkpt lat="43.414922" lon="10.9771722"><ele>532.0</ele><time>2026-05-01T14:47:14.659Z</time></trkpt><trkpt lat="43.4150293" lon="10.9771956"><ele>532.0</ele><time>2026-05-01T14:47:15.657Z</time></trkpt><trkpt lat="43.4151226" lon="10.9772621"><ele>532.0</ele><time>2026-05-01T14:47:16.655Z</time></trkpt><trkpt lat="43.4151969" lon="10.9773529"><ele>532.0</ele><time>2026-05-01T14:47:17.674Z</time></trkpt><trkpt lat="43.4152757" lon="10.9774279"><ele>532.0</ele><time>2026-05-01T14:47:18.649Z</time></trkpt><trkpt lat="43.4153665" lon="10.9774739"><ele>532.0</ele><time>2026-05-01T14:47:19.655Z</time></trkpt><trkpt lat="43.4154608" lon="10.9775015"><ele>531.0</ele><time>2026-05-01T14:47:20.652Z</time></trkpt><trkpt lat="43.4155588" lon="10.9775063"><ele>530.0</ele><time>2026-05-01T14:47:21.649Z</time></trkpt><trkpt lat="43.4156584" lon="10.9775089"><ele>529.0</ele><time>2026-05-01T14:47:22.658Z</time></trkpt><trkpt lat="43.4157605" lon="10.9775047"><ele>528.0</ele><time>2026-05-01T14:47:23.65Z</time></trkpt><trkpt lat="43.4158594" lon="10.9774947"><ele>527.0</ele><time>2026-05-01T14:47:24.662Z</time></trkpt><trkpt lat="43.4159485" lon="10.977449"><ele>527.0</ele><time>2026-05-01T14:47:25.659Z</time></trkpt><trkpt lat="43.4160201" lon="10.9773521"><ele>527.0</ele><time>2026-05-01T14:47:26.651Z</time></trkpt><trkpt lat="43.4160809" lon="10.9772338"><ele>527.0</ele><time>2026-05-01T14:47:27.646Z</time></trkpt><trkpt lat="43.4161252" lon="10.9771111"><ele>527.0</ele><time>2026-05-01T14:47:28.651Z</time></trkpt><trkpt lat="43.4161627" lon="10.9769782"><ele>527.0</ele><time>2026-05-01T14:47:29.657Z</time></trkpt><trkpt lat="43.4161999" lon="10.9768487"><ele>527.0</ele><time>2026-05-01T14:47:30.656Z</time></trkpt><trkpt lat="43.4162422" lon="10.9767211"><ele>527.0</ele><time>2026-05-01T14:47:31.656Z</time></trkpt><trkpt lat="43.4162904" lon="10.9765892"><ele>527.0</ele><time>2026-05-01T14:47:32.65Z</time></trkpt><trkpt lat="43.4163599" lon="10.9764754"><ele>527.0</ele><time>2026-05-01T14:47:33.656Z</time></trkpt><trkpt lat="43.4164429" lon="10.976392"><ele>527.0</ele><time>2026-05-01T14:47:34.656Z</time></trkpt><trkpt lat="43.4165312" lon="10.9763265"><ele>526.25</ele><time>2026-05-01T14:47:35.648Z</time></trkpt><trkpt lat="43.4166295" lon="10.9762924"><ele>525.5</ele><time>2026-05-01T14:47:36.652Z</time></trkpt><trkpt lat="43.4167426" lon="10.9762742"><ele>524.75</ele><time>2026-05-01T14:47:37.656Z</time></trkpt><trkpt lat="43.4168537" lon="10.9762864"><ele>524.0</ele><time>2026-05-01T14:47:38.656Z</time></trkpt><trkpt lat="43.4169749" lon="10.9763292"><ele>524.0</ele><time>2026-05-01T14:47:39.661Z</time></trkpt><trkpt lat="43.4170845" lon="10.9763822"><ele>524.0</ele><time>2026-05-01T14:47:40.64Z</time></trkpt><trkpt lat="43.4171884" lon="10.9764076"><ele>524.0</ele><time>2026-05-01T14:47:41.646Z</time></trkpt><trkpt lat="43.4172912" lon="10.9763738"><ele>524.0</ele><time>2026-05-01T14:47:42.673Z</time></trkpt><trkpt lat="43.4173773" lon="10.9763094"><ele>524.0</ele><time>2026-05-01T14:47:43.655Z</time></trkpt><trkpt lat="43.417461" lon="10.9762278"><ele>524.0</ele><time>2026-05-01T14:47:44.666Z</time></trkpt><trkpt lat="43.4175507" lon="10.9761507"><ele>524.0</ele><time>2026-05-01T14:47:45.657Z</time></trkpt><trkpt lat="43.4176598" lon="10.9761124"><ele>524.0</ele><time>2026-05-01T14:47:46.66Z</time></trkpt><trkpt lat="43.417773" lon="10.9761009"><ele>524.0</ele><time>2026-05-01T14:47:47.653Z</time></trkpt><trkpt lat="43.4178879" lon="10.976086"><ele>524.0</ele><time>2026-05-01T14:47:48.654Z</time></trkpt><trkpt lat="43.4179983" lon="10.9760607"><ele>524.0</ele><time>2026-05-01T14:47:49.662Z</time></trkpt><trkpt lat="43.4181058" lon="10.9760365"><ele>524.0</ele><time>2026-05-01T14:47:50.645Z</time></trkpt><trkpt lat="43.418209" lon="10.976024"><ele>524.0</ele><time>2026-05-01T14:47:51.653Z</time></trkpt><trkpt lat="43.4183083" lon="10.9760308"><ele>524.0</ele><time>2026-05-01T14:47:52.653Z</time></trkpt><trkpt lat="43.418409" lon="10.9760607"><ele>524.0</ele><time>2026-05-01T14:47:53.655Z</time></trkpt><trkpt lat="43.4185088" lon="10.9761284"><ele>524.0</ele><time>2026-05-01T14:47:54.654Z</time></trkpt><trkpt lat="43.4185984" lon="10.9762143"><ele>524.0</ele><time>2026-05-01T14:47:55.657Z</time></trkpt><trkpt lat="43.4186801" lon="10.9762834"><ele>524.0</ele><time>2026-05-01T14:47:56.661Z</time></trkpt><trkpt lat="43.4187667" lon="10.9763236"><ele>524.0</ele><time>2026-05-01T14:47:57.666Z</time></trkpt><trkpt lat="43.4188527" lon="10.9763293"><ele>524.0</ele><time>2026-05-01T14:47:58.653Z</time></trkpt><trkpt lat="43.4189462" lon="10.976299"><ele>522.75</ele><time>2026-05-01T14:47:59.646Z</time></trkpt><trkpt lat="43.4190522" lon="10.9762345"><ele>521.5</ele><time>2026-05-01T14:48:00.642Z</time></trkpt><trkpt lat="43.4191628" lon="10.9761692"><ele>520.25</ele><time>2026-05-01T14:48:01.655Z</time></trkpt><trkpt lat="43.4192869" lon="10.97612"><ele>519.0</ele><time>2026-05-01T14:48:02.653Z</time></trkpt><trkpt lat="43.4194052" lon="10.9760711"><ele>519.0</ele><time>2026-05-01T14:48:03.647Z</time></trkpt><trkpt lat="43.4195237" lon="10.9760237"><ele>519.0</ele><time>2026-05-01T14:48:04.649Z</time></trkpt><trkpt lat="43.4196289" lon="10.9759784"><ele>519.0</ele><time>2026-05-01T14:48:05.666Z</time></trkpt><trkpt lat="43.4197284" lon="10.9759238"><ele>519.0</ele><time>2026-05-01T14:48:06.653Z</time></trkpt><trkpt lat="43.4198253" lon="10.9758723"><ele>519.0</ele><time>2026-05-01T14:48:07.648Z</time></trkpt><trkpt lat="43.419934" lon="10.9758285"><ele>518.5</ele><time>2026-05-01T14:48:08.653Z</time></trkpt><trkpt lat="43.4200459" lon="10.9757896"><ele>518.0</ele><time>2026-05-01T14:48:09.651Z</time></trkpt><trkpt lat="43.4201664" lon="10.9757661"><ele>517.5</ele><time>2026-05-01T14:48:10.655Z</time></trkpt><trkpt lat="43.4202947" lon="10.9757416"><ele>517.0</ele><time>2026-05-01T14:48:11.646Z</time></trkpt><trkpt lat="43.4204214" lon="10.9757347"><ele>515.75</ele><time>2026-05-01T14:48:12.669Z</time></trkpt><trkpt lat="43.4205442" lon="10.9757452"><ele>514.5</ele><time>2026-05-01T14:48:13.656Z</time></trkpt><trkpt lat="43.4206613" lon="10.9757626"><ele>513.25</ele><time>2026-05-01T14:48:14.638Z</time></trkpt><trkpt lat="43.4207746" lon="10.9757948"><ele>512.0</ele><time>2026-05-01T14:48:15.652Z</time></trkpt><trkpt lat="43.4208849" lon="10.9758322"><ele>510.75</ele><time>2026-05-01T14:48:16.653Z</time></trkpt><trkpt lat="43.4209934" lon="10.9758669"><ele>509.5</ele><time>2026-05-01T14:48:17.655Z</time></trkpt><trkpt lat="43.4211049" lon="10.9759021"><ele>508.25</ele><time>2026-05-01T14:48:18.666Z</time></trkpt><trkpt lat="43.4212163" lon="10.9759292"><ele>507.0</ele><time>2026-05-01T14:48:19.658Z</time></trkpt><trkpt lat="43.421337" lon="10.9759292"><ele>507.0</ele><time>2026-05-01T14:48:20.654Z</time></trkpt><trkpt lat="43.4214583" lon="10.9758955"><ele>507.0</ele><time>2026-05-01T14:48:21.652Z</time></trkpt><trkpt lat="43.4215795" lon="10.9758671"><ele>507.0</ele><time>2026-05-01T14:48:22.649Z</time></trkpt><trkpt lat="43.4216912" lon="10.9758367"><ele>507.0</ele><time>2026-05-01T14:48:23.646Z</time></trkpt><trkpt lat="43.4218025" lon="10.9758155"><ele>507.0</ele><time>2026-05-01T14:48:24.65Z</time></trkpt><trkpt lat="43.4219062" lon="10.9758212"><ele>507.00000000000006</ele><time>2026-05-01T14:48:25.65Z</time></trkpt><trkpt lat="43.4220104" lon="10.9758702"><ele>507.00000000000006</ele><time>2026-05-01T14:48:26.66Z</time></trkpt><trkpt lat="43.4220951" lon="10.9759438"><ele>507.0</ele><time>2026-05-01T14:48:27.651Z</time></trkpt><trkpt lat="43.4221697" lon="10.9760317"><ele>507.0</ele><time>2026-05-01T14:48:28.647Z</time></trkpt><trkpt lat="43.4222434" lon="10.9761272"><ele>504.8</ele><time>2026-05-01T14:48:29.659Z</time></trkpt><trkpt lat="43.4223253" lon="10.9762098"><ele>502.6</ele><time>2026-05-01T14:48:30.647Z</time></trkpt><trkpt lat="43.4224208" lon="10.9762764"><ele>500.40000000000003</ele><time>2026-05-01T14:48:31.656Z</time></trkpt><trkpt lat="43.4225019" lon="10.9763087"><ele>498.20000000000005</ele><time>2026-05-01T14:48:32.67Z</time></trkpt><trkpt lat="43.4225777" lon="10.97631"><ele>496.0</ele><time>2026-05-01T14:48:33.66Z</time></trkpt><trkpt lat="43.4226785" lon="10.9762988"><ele>496.0</ele><time>2026-05-01T14:48:34.649Z</time></trkpt><trkpt lat="43.4228067" lon="10.9762802"><ele>496.0</ele><time>2026-05-01T14:48:35.645Z</time></trkpt><trkpt lat="43.4229279" lon="10.9762501"><ele>496.0</ele><time>2026-05-01T14:48:36.666Z</time></trkpt><trkpt lat="43.4230479" lon="10.9761827"><ele>496.0</ele><time>2026-05-01T14:48:37.647Z</time></trkpt><trkpt lat="43.4231644" lon="10.9760991"><ele>495.5</ele><time>2026-05-01T14:48:38.652Z</time></trkpt><trkpt lat="43.4232802" lon="10.9760044"><ele>495.0</ele><time>2026-05-01T14:48:39.655Z</time></trkpt><trkpt lat="43.4234071" lon="10.9759067"><ele>494.5</ele><time>2026-05-01T14:48:40.656Z</time></trkpt><trkpt lat="43.4235323" lon="10.9758124"><ele>494.0</ele><time>2026-05-01T14:48:41.654Z</time></trkpt><trkpt lat="43.4236587" lon="10.9757255"><ele>494.0</ele><time>2026-05-01T14:48:42.658Z</time></trkpt><trkpt lat="43.4237878" lon="10.9756327"><ele>494.0</ele><time>2026-05-01T14:48:43.645Z</time></trkpt><trkpt lat="43.4239281" lon="10.9755513"><ele>494.0</ele><time>2026-05-01T14:48:44.65Z</time></trkpt><trkpt lat="43.4240791" lon="10.9754761"><ele>493.66666666666663</ele><time>2026-05-01T14:48:45.659Z</time></trkpt><trkpt lat="43.4242347" lon="10.9754037"><ele>493.33333333333337</ele><time>2026-05-01T14:48:46.65Z</time></trkpt><trkpt lat="43.4243812" lon="10.9753276"><ele>493.0</ele><time>2026-05-01T14:48:47.654Z</time></trkpt><trkpt lat="43.4245142" lon="10.9752457"><ele>493.0</ele><time>2026-05-01T14:48:48.646Z</time></trkpt><trkpt lat="43.4246345" lon="10.9751426"><ele>493.0</ele><time>2026-05-01T14:48:49.66Z</time></trkpt><trkpt lat="43.4247309" lon="10.9750061"><ele>493.0</ele><time>2026-05-01T14:48:50.648Z</time></trkpt><trkpt lat="43.4248142" lon="10.9748417"><ele>493.0</ele><time>2026-05-01T14:48:51.648Z</time></trkpt><trkpt lat="43.4248861" lon="10.9746648"><ele>493.33333333333337</ele><time>2026-05-01T14:48:52.659Z</time></trkpt><trkpt lat="43.4249471" lon="10.9744718"><ele>493.66666666666663</ele><time>2026-05-01T14:48:53.652Z</time></trkpt><trkpt lat="43.4249991" lon="10.9742705"><ele>494.0</ele><time>2026-05-01T14:48:54.651Z</time></trkpt><trkpt lat="43.4250347" lon="10.9740626"><ele>495.0</ele><time>2026-05-01T14:48:55.647Z</time></trkpt><trkpt lat="43.4250512" lon="10.9738621"><ele>496.0</ele><time>2026-05-01T14:48:56.649Z</time></trkpt><trkpt lat="43.4250681" lon="10.9736787"><ele>497.0</ele><time>2026-05-01T14:48:57.636Z</time></trkpt><trkpt lat="43.4251104" lon="10.9735383"><ele>498.0</ele><time>2026-05-01T14:48:58.64Z</time></trkpt><trkpt lat="43.4251734" lon="10.973414"><ele>498.0</ele><time>2026-05-01T14:48:59.65Z</time></trkpt><trkpt lat="43.4252672" lon="10.9733275"><ele>498.0</ele><time>2026-05-01T14:49:00.651Z</time></trkpt><trkpt lat="43.4253895" lon="10.9733049"><ele>498.0</ele><time>2026-05-01T14:49:01.649Z</time></trkpt><trkpt lat="43.4255128" lon="10.9733355"><ele>498.0</ele><time>2026-05-01T14:49:02.658Z</time></trkpt><trkpt lat="43.4256351" lon="10.9733837"><ele>500.5</ele><time>2026-05-01T14:49:03.651Z</time></trkpt><trkpt lat="43.4257548" lon="10.9734761"><ele>503.0</ele><time>2026-05-01T14:49:04.647Z</time></trkpt><trkpt lat="43.425847" lon="10.9736015"><ele>505.5</ele><time>2026-05-01T14:49:05.665Z</time></trkpt><trkpt lat="43.4259324" lon="10.9737212"><ele>508.0</ele><time>2026-05-01T14:49:06.658Z</time></trkpt><trkpt lat="43.4260574" lon="10.9737909"><ele>508.0</ele><time>2026-05-01T14:49:07.669Z</time></trkpt><trkpt lat="43.4261955" lon="10.9738071"><ele>508.0</ele><time>2026-05-01T14:49:08.647Z</time></trkpt><trkpt lat="43.426331" lon="10.9737869"><ele>508.0</ele><time>2026-05-01T14:49:09.652Z</time></trkpt><trkpt lat="43.4264774" lon="10.9737509"><ele>508.0</ele><time>2026-05-01T14:49:10.642Z</time></trkpt><trkpt lat="43.4266263" lon="10.9736856"><ele>508.6666666666667</ele><time>2026-05-01T14:49:11.661Z</time></trkpt><trkpt lat="43.4267671" lon="10.9735854"><ele>509.33333333333337</ele><time>2026-05-01T14:49:12.645Z</time></trkpt><trkpt lat="43.4269187" lon="10.973448"><ele>510.0</ele><time>2026-05-01T14:49:13.655Z</time></trkpt><trkpt lat="43.4270627" lon="10.9732961"><ele>510.66666666666663</ele><time>2026-05-01T14:49:14.649Z</time></trkpt><trkpt lat="43.4271904" lon="10.9731301"><ele>511.3333333333333</ele><time>2026-05-01T14:49:15.667Z</time></trkpt><trkpt lat="43.4273125" lon="10.9729694"><ele>512.0</ele><time>2026-05-01T14:49:16.66Z</time></trkpt><trkpt lat="43.427426" lon="10.9728121"><ele>512.0</ele><time>2026-05-01T14:49:17.655Z</time></trkpt><trkpt lat="43.4275438" lon="10.9726558"><ele>512.0</ele><time>2026-05-01T14:49:18.652Z</time></trkpt><trkpt lat="43.4276493" lon="10.9724956"><ele>512.0</ele><time>2026-05-01T14:49:19.665Z</time></trkpt><trkpt lat="43.4277508" lon="10.9723348"><ele>512.3333333333333</ele><time>2026-05-01T14:49:20.664Z</time></trkpt><trkpt lat="43.4278459" lon="10.9721632"><ele>512.6666666666666</ele><time>2026-05-01T14:49:21.655Z</time></trkpt><trkpt lat="43.4279337" lon="10.9719958"><ele>513.0</ele><time>2026-05-01T14:49:22.655Z</time></trkpt><trkpt lat="43.4280134" lon="10.9718308"><ele>515.75</ele><time>2026-05-01T14:49:23.652Z</time></trkpt><trkpt lat="43.4280672" lon="10.9716692"><ele>518.5</ele><time>2026-05-01T14:49:24.643Z</time></trkpt><trkpt lat="43.4280912" lon="10.971495"><ele>521.25</ele><time>2026-05-01T14:49:25.672Z</time></trkpt><trkpt lat="43.4280972" lon="10.9713042"><ele>524.0</ele><time>2026-05-01T14:49:26.654Z</time></trkpt><trkpt lat="43.4280883" lon="10.971117"><ele>524.0</ele><time>2026-05-01T14:49:27.656Z</time></trkpt><trkpt lat="43.4280771" lon="10.9709395"><ele>524.0</ele><time>2026-05-01T14:49:28.663Z</time></trkpt><trkpt lat="43.4280762" lon="10.9707836"><ele>524.0</ele><time>2026-05-01T14:49:29.649Z</time></trkpt><trkpt lat="43.4280891" lon="10.9706553"><ele>524.0</ele><time>2026-05-01T14:49:30.647Z</time></trkpt><trkpt lat="43.4281195" lon="10.9705461"><ele>524.0</ele><time>2026-05-01T14:49:31.659Z</time></trkpt><trkpt lat="43.428185" lon="10.9704663"><ele>524.75</ele><time>2026-05-01T14:49:32.636Z</time></trkpt><trkpt lat="43.4282748" lon="10.9704064"><ele>525.5</ele><time>2026-05-01T14:49:33.665Z</time></trkpt><trkpt lat="43.4283784" lon="10.9703642"><ele>526.25</ele><time>2026-05-01T14:49:34.656Z</time></trkpt><trkpt lat="43.4285022" lon="10.9703515"><ele>527.0</ele><time>2026-05-01T14:49:35.643Z</time></trkpt><trkpt lat="43.4286377" lon="10.9703334"><ele>527.0</ele><time>2026-05-01T14:49:36.655Z</time></trkpt><trkpt lat="43.4287711" lon="10.9703059"><ele>527.0</ele><time>2026-05-01T14:49:37.65Z</time></trkpt><trkpt lat="43.4288977" lon="10.9702681"><ele>527.0</ele><time>2026-05-01T14:49:38.659Z</time></trkpt><trkpt lat="43.4290038" lon="10.9702143"><ele>527.0</ele><time>2026-05-01T14:49:39.651Z</time></trkpt><trkpt lat="43.4290827" lon="10.9701528"><ele>527.8000000000001</ele><time>2026-05-01T14:49:40.647Z</time></trkpt><trkpt lat="43.4291538" lon="10.9700718"><ele>528.6</ele><time>2026-05-01T14:49:41.65Z</time></trkpt><trkpt lat="43.4292167" lon="10.9699816"><ele>529.4000000000001</ele><time>2026-05-01T14:49:42.646Z</time></trkpt><trkpt lat="43.4292753" lon="10.969869"><ele>530.2</ele><time>2026-05-01T14:49:43.643Z</time></trkpt><trkpt lat="43.429337" lon="10.969747"><ele>531.0</ele><time>2026-05-01T14:49:44.656Z</time></trkpt><trkpt lat="43.4294038" lon="10.9696147"><ele>531.0</ele><time>2026-05-01T14:49:45.646Z</time></trkpt><trkpt lat="43.4294733" lon="10.9694745"><ele>531.0</ele><time>2026-05-01T14:49:46.654Z</time></trkpt><trkpt lat="43.4295463" lon="10.969319"><ele>531.0</ele><time>2026-05-01T14:49:47.668Z</time></trkpt><trkpt lat="43.4296265" lon="10.9691632"><ele>531.0</ele><time>2026-05-01T14:49:48.662Z</time></trkpt><trkpt lat="43.4297112" lon="10.9690101"><ele>532.75</ele><time>2026-05-01T14:49:49.655Z</time></trkpt><trkpt lat="43.4298007" lon="10.9688704"><ele>534.5</ele><time>2026-05-01T14:49:50.666Z</time></trkpt><trkpt lat="43.4299066" lon="10.9687437"><ele>536.25</ele><time>2026-05-01T14:49:51.657Z</time></trkpt><trkpt lat="43.4300174" lon="10.9686203"><ele>538.0</ele><time>2026-05-01T14:49:52.642Z</time></trkpt><trkpt lat="43.430135" lon="10.9684939"><ele>538.0</ele><time>2026-05-01T14:49:53.658Z</time></trkpt><trkpt lat="43.4302571" lon="10.9683765"><ele>538.0</ele><time>2026-05-01T14:49:54.65Z</time></trkpt><trkpt lat="43.4303824" lon="10.968266"><ele>538.0</ele><time>2026-05-01T14:49:55.647Z</time></trkpt><trkpt lat="43.430513" lon="10.9681758"><ele>538.0</ele><time>2026-05-01T14:49:56.662Z</time></trkpt><trkpt lat="43.4306453" lon="10.9681286"><ele>540.5</ele><time>2026-05-01T14:49:57.657Z</time></trkpt><trkpt lat="43.4307797" lon="10.9681318"><ele>543.0</ele><time>2026-05-01T14:49:58.652Z</time></trkpt><trkpt lat="43.4309154" lon="10.9681629"><ele>545.5</ele><time>2026-05-01T14:49:59.645Z</time></trkpt><trkpt lat="43.4310374" lon="10.9682075"><ele>548.0</ele><time>2026-05-01T14:50:00.656Z</time></trkpt><trkpt lat="43.4311679" lon="10.9682557"><ele>548.0</ele><time>2026-05-01T14:50:01.658Z</time></trkpt><trkpt lat="43.4312824" lon="10.9683247"><ele>548.0</ele><time>2026-05-01T14:50:02.648Z</time></trkpt><trkpt lat="43.4313967" lon="10.9683991"><ele>548.0</ele><time>2026-05-01T14:50:03.658Z</time></trkpt><trkpt lat="43.4315199" lon="10.9684577"><ele>548.0</ele><time>2026-05-01T14:50:04.671Z</time></trkpt><trkpt lat="43.4316542" lon="10.9684946"><ele>548.25</ele><time>2026-05-01T14:50:05.667Z</time></trkpt><trkpt lat="43.4317875" lon="10.968534"><ele>548.5</ele><time>2026-05-01T14:50:06.648Z</time></trkpt><trkpt lat="43.431923" lon="10.9685576"><ele>548.75</ele><time>2026-05-01T14:50:07.642Z</time></trkpt><trkpt lat="43.4320496" lon="10.96856"><ele>549.0</ele><time>2026-05-01T14:50:08.65Z</time></trkpt><trkpt lat="43.4321721" lon="10.9685243"><ele>549.0</ele><time>2026-05-01T14:50:09.647Z</time></trkpt><trkpt lat="43.4322766" lon="10.968443"><ele>549.0</ele><time>2026-05-01T14:50:10.655Z</time></trkpt><trkpt lat="43.432367" lon="10.9683225"><ele>549.0</ele><time>2026-05-01T14:50:11.655Z</time></trkpt><trkpt lat="43.4324432" lon="10.9681814"><ele>549.0</ele><time>2026-05-01T14:50:12.647Z</time></trkpt><trkpt lat="43.4325199" lon="10.9680489"><ele>551.75</ele><time>2026-05-01T14:50:13.652Z</time></trkpt><trkpt lat="43.4326083" lon="10.9679537"><ele>554.5</ele><time>2026-05-01T14:50:14.658Z</time></trkpt><trkpt lat="43.4327105" lon="10.9678855"><ele>557.25</ele><time>2026-05-01T14:50:15.662Z</time></trkpt><trkpt lat="43.4328198" lon="10.9678411"><ele>560.0</ele><time>2026-05-01T14:50:16.652Z</time></trkpt><trkpt lat="43.4329464" lon="10.967799"><ele>560.25</ele><time>2026-05-01T14:50:17.654Z</time></trkpt><trkpt lat="43.4330835" lon="10.967748"><ele>560.5</ele><time>2026-05-01T14:50:18.658Z</time></trkpt><trkpt lat="43.4332191" lon="10.9676744"><ele>560.75</ele><time>2026-05-01T14:50:19.66Z</time></trkpt><trkpt lat="43.4333542" lon="10.9675952"><ele>561.0</ele><time>2026-05-01T14:50:20.662Z</time></trkpt><trkpt lat="43.4334846" lon="10.9675054"><ele>561.0</ele><time>2026-05-01T14:50:21.664Z</time></trkpt><trkpt lat="43.4336151" lon="10.9674082"><ele>561.0</ele><time>2026-05-01T14:50:22.656Z</time></trkpt><trkpt lat="43.433738" lon="10.9673144"><ele>561.0</ele><time>2026-05-01T14:50:23.652Z</time></trkpt><trkpt lat="43.4338483" lon="10.9672277"><ele>561.0</ele><time>2026-05-01T14:50:24.658Z</time></trkpt><trkpt lat="43.4339505" lon="10.9671501"><ele>561.5</ele><time>2026-05-01T14:50:25.653Z</time></trkpt><trkpt lat="43.4340437" lon="10.96707"><ele>562.0</ele><time>2026-05-01T14:50:26.65Z</time></trkpt><trkpt lat="43.4341351" lon="10.9669742"><ele>562.5</ele><time>2026-05-01T14:50:27.659Z</time></trkpt><trkpt lat="43.4342306" lon="10.9668593"><ele>563.0</ele><time>2026-05-01T14:50:28.659Z</time></trkpt><trkpt lat="43.4343247" lon="10.9667379"><ele>563.5</ele><time>2026-05-01T14:50:29.651Z</time></trkpt><trkpt lat="43.4344064" lon="10.9665991"><ele>564.0</ele><time>2026-05-01T14:50:30.642Z</time></trkpt><trkpt lat="43.4344865" lon="10.9664477"><ele>564.5</ele><time>2026-05-01T14:50:31.653Z</time></trkpt><trkpt lat="43.4345648" lon="10.9663035"><ele>565.0</ele><time>2026-05-01T14:50:32.649Z</time></trkpt><trkpt lat="43.4346647" lon="10.9661676"><ele>565.0</ele><time>2026-05-01T14:50:33.652Z</time></trkpt><trkpt lat="43.4347656" lon="10.9660411"><ele>565.0</ele><time>2026-05-01T14:50:34.658Z</time></trkpt><trkpt lat="43.4348663" lon="10.96592"><ele>565.0</ele><time>2026-05-01T14:50:35.661Z</time></trkpt><trkpt lat="43.4349561" lon="10.9657899"><ele>565.0</ele><time>2026-05-01T14:50:36.651Z</time></trkpt><trkpt lat="43.4350297" lon="10.9656508"><ele>567.75</ele><time>2026-05-01T14:50:37.648Z</time></trkpt><trkpt lat="43.4350956" lon="10.9655045"><ele>570.5</ele><time>2026-05-01T14:50:38.652Z</time></trkpt><trkpt lat="43.4351531" lon="10.9653566"><ele>573.25</ele><time>2026-05-01T14:50:39.656Z</time></trkpt><trkpt lat="43.4352098" lon="10.9652109"><ele>576.0</ele><time>2026-05-01T14:50:40.658Z</time></trkpt><trkpt lat="43.4352778" lon="10.9650711"><ele>575.5</ele><time>2026-05-01T14:50:41.641Z</time></trkpt><trkpt lat="43.4353543" lon="10.9649329"><ele>575.0</ele><time>2026-05-01T14:50:42.647Z</time></trkpt><trkpt lat="43.4354321" lon="10.9647974"><ele>574.5</ele><time>2026-05-01T14:50:43.667Z</time></trkpt><trkpt lat="43.4355101" lon="10.9646537"><ele>574.0</ele><time>2026-05-01T14:50:44.661Z</time></trkpt><trkpt lat="43.4355851" lon="10.9645002"><ele>574.0</ele><time>2026-05-01T14:50:45.647Z</time></trkpt><trkpt lat="43.4356563" lon="10.9643395"><ele>574.0</ele><time>2026-05-01T14:50:46.654Z</time></trkpt><trkpt lat="43.4357117" lon="10.9641763"><ele>574.0</ele><time>2026-05-01T14:50:47.66Z</time></trkpt><trkpt lat="43.4357623" lon="10.9640119"><ele>574.0</ele><time>2026-05-01T14:50:48.65Z</time></trkpt><trkpt lat="43.4358234" lon="10.9638415"><ele>576.5</ele><time>2026-05-01T14:50:49.656Z</time></trkpt><trkpt lat="43.4358961" lon="10.9636703"><ele>579.0</ele><time>2026-05-01T14:50:50.664Z</time></trkpt><trkpt lat="43.4359822" lon="10.9635107"><ele>581.5</ele><time>2026-05-01T14:50:51.651Z</time></trkpt><trkpt lat="43.4360786" lon="10.9633667"><ele>584.0</ele><time>2026-05-01T14:50:52.653Z</time></trkpt><trkpt lat="43.4361853" lon="10.9632372"><ele>584.0</ele><time>2026-05-01T14:50:53.66Z</time></trkpt><trkpt lat="43.436295" lon="10.9631295"><ele>584.0</ele><time>2026-05-01T14:50:54.656Z</time></trkpt><trkpt lat="43.4364048" lon="10.9630414"><ele>584.0</ele><time>2026-05-01T14:50:55.658Z</time></trkpt><trkpt lat="43.4365032" lon="10.96296"><ele>584.0</ele><time>2026-05-01T14:50:56.657Z</time></trkpt><trkpt lat="43.4365904" lon="10.9628795"><ele>584.4</ele><time>2026-05-01T14:50:57.653Z</time></trkpt><trkpt lat="43.4366672" lon="10.9627929"><ele>584.8</ele><time>2026-05-01T14:50:58.653Z</time></trkpt><trkpt lat="43.4367327" lon="10.9626675"><ele>585.2</ele><time>2026-05-01T14:50:59.648Z</time></trkpt><trkpt lat="43.4367811" lon="10.9625351"><ele>585.6</ele><time>2026-05-01T14:51:00.655Z</time></trkpt><trkpt lat="43.4368132" lon="10.9623999"><ele>586.0</ele><time>2026-05-01T14:51:01.646Z</time></trkpt><trkpt lat="43.4368437" lon="10.9622595"><ele>586.0</ele><time>2026-05-01T14:51:02.645Z</time></trkpt><trkpt lat="43.4368675" lon="10.9621105"><ele>586.0</ele><time>2026-05-01T14:51:03.66Z</time></trkpt><trkpt lat="43.4368905" lon="10.9619413"><ele>586.0</ele><time>2026-05-01T14:51:04.653Z</time></trkpt><trkpt lat="43.436922" lon="10.9617863"><ele>586.0</ele><time>2026-05-01T14:51:05.645Z</time></trkpt><trkpt lat="43.4369774" lon="10.9616277"><ele>585.25</ele><time>2026-05-01T14:51:06.643Z</time></trkpt><trkpt lat="43.4370491" lon="10.9614818"><ele>584.5</ele><time>2026-05-01T14:51:07.662Z</time></trkpt><trkpt lat="43.4371306" lon="10.9613414"><ele>583.75</ele><time>2026-05-01T14:51:08.645Z</time></trkpt><trkpt lat="43.4372313" lon="10.9612122"><ele>583.0</ele><time>2026-05-01T14:51:09.644Z</time></trkpt><trkpt lat="43.4373462" lon="10.9611042"><ele>584.5</ele><time>2026-05-01T14:51:10.649Z</time></trkpt><trkpt lat="43.4374738" lon="10.9610201"><ele>586.0</ele><time>2026-05-01T14:51:11.654Z</time></trkpt><trkpt lat="43.4376106" lon="10.9609443"><ele>587.5</ele><time>2026-05-01T14:51:12.671Z</time></trkpt><trkpt lat="43.4377514" lon="10.9608728"><ele>589.0</ele><time>2026-05-01T14:51:13.644Z</time></trkpt><trkpt lat="43.437894" lon="10.9607858"><ele>589.6666666666667</ele><time>2026-05-01T14:51:14.668Z</time></trkpt><trkpt lat="43.4380372" lon="10.9606708"><ele>590.3333333333334</ele><time>2026-05-01T14:51:15.647Z</time></trkpt><trkpt lat="43.4381885" lon="10.9605464"><ele>591.0</ele><time>2026-05-01T14:51:16.642Z</time></trkpt><trkpt lat="43.4383417" lon="10.9604239"><ele>591.0</ele><time>2026-05-01T14:51:17.663Z</time></trkpt><trkpt lat="43.4385008" lon="10.9602953"><ele>591.0</ele><time>2026-05-01T14:51:18.66Z</time></trkpt><trkpt lat="43.4386564" lon="10.9601649"><ele>591.0</ele><time>2026-05-01T14:51:19.656Z</time></trkpt><trkpt lat="43.4388033" lon="10.960039"><ele>590.6666666666666</ele><time>2026-05-01T14:51:20.663Z</time></trkpt><trkpt lat="43.4389367" lon="10.9599212"><ele>590.3333333333333</ele><time>2026-05-01T14:51:21.662Z</time></trkpt><trkpt lat="43.439058" lon="10.9597987"><ele>590.0</ele><time>2026-05-01T14:51:22.678Z</time></trkpt><trkpt lat="43.439166" lon="10.9596617"><ele>590.0</ele><time>2026-05-01T14:51:23.656Z</time></trkpt><trkpt lat="43.4392547" lon="10.9595079"><ele>590.0</ele><time>2026-05-01T14:51:24.662Z</time></trkpt><trkpt lat="43.439343" lon="10.9593588"><ele>590.0</ele><time>2026-05-01T14:51:25.644Z</time></trkpt><trkpt lat="43.4394357" lon="10.9592001"><ele>590.0</ele><time>2026-05-01T14:51:26.661Z</time></trkpt><trkpt lat="43.4395283" lon="10.959045"><ele>590.3333333333333</ele><time>2026-05-01T14:51:27.657Z</time></trkpt><trkpt lat="43.4396275" lon="10.9588753"><ele>590.6666666666666</ele><time>2026-05-01T14:51:28.654Z</time></trkpt><trkpt lat="43.4397289" lon="10.9587129"><ele>591.0</ele><time>2026-05-01T14:51:29.649Z</time></trkpt><trkpt lat="43.439828" lon="10.9585476"><ele>591.3333333333334</ele><time>2026-05-01T14:51:30.651Z</time></trkpt><trkpt lat="43.4399304" lon="10.9583687"><ele>591.6666666666667</ele><time>2026-05-01T14:51:31.662Z</time></trkpt><trkpt lat="43.4400279" lon="10.9581902"><ele>592.0</ele><time>2026-05-01T14:51:32.648Z</time></trkpt><trkpt lat="43.4401302" lon="10.9580088"><ele>592.0</ele><time>2026-05-01T14:51:33.665Z</time></trkpt><trkpt lat="43.4402358" lon="10.9578221"><ele>592.0</ele><time>2026-05-01T14:51:34.648Z</time></trkpt><trkpt lat="43.4403503" lon="10.9576403"><ele>592.0</ele><time>2026-05-01T14:51:35.65Z</time></trkpt><trkpt lat="43.4404633" lon="10.9574613"><ele>595.3333333333334</ele><time>2026-05-01T14:51:36.651Z</time></trkpt><trkpt lat="43.4405772" lon="10.9572791"><ele>598.6666666666666</ele><time>2026-05-01T14:51:37.659Z</time></trkpt><trkpt lat="43.4406941" lon="10.9571001"><ele>602.0</ele><time>2026-05-01T14:51:38.674Z</time></trkpt><trkpt lat="43.4408109" lon="10.9569268"><ele>602.0</ele><time>2026-05-01T14:51:39.657Z</time></trkpt><trkpt lat="43.4409251" lon="10.956754"><ele>602.0</ele><time>2026-05-01T14:51:40.66Z</time></trkpt><trkpt lat="43.4410329" lon="10.9565954"><ele>602.0</ele><time>2026-05-01T14:51:41.654Z</time></trkpt><trkpt lat="43.4411384" lon="10.9564448"><ele>601.75</ele><time>2026-05-01T14:51:42.652Z</time></trkpt><trkpt lat="43.4412306" lon="10.9562909"><ele>601.5</ele><time>2026-05-01T14:51:43.658Z</time></trkpt><trkpt lat="43.4413119" lon="10.9561322"><ele>601.25</ele><time>2026-05-01T14:51:44.66Z</time></trkpt><trkpt lat="43.4413864" lon="10.9559652"><ele>601.0</ele><time>2026-05-01T14:51:45.656Z</time></trkpt><trkpt lat="43.441452" lon="10.9557845"><ele>601.0</ele><time>2026-05-01T14:51:46.651Z</time></trkpt><trkpt lat="43.4415077" lon="10.9556084"><ele>601.0</ele><time>2026-05-01T14:51:47.665Z</time></trkpt><trkpt lat="43.4415529" lon="10.9554331"><ele>601.0</ele><time>2026-05-01T14:51:48.658Z</time></trkpt><trkpt lat="43.4415881" lon="10.9552579"><ele>601.0</ele><time>2026-05-01T14:51:49.654Z</time></trkpt><trkpt lat="43.4416237" lon="10.9550778"><ele>601.5</ele><time>2026-05-01T14:51:50.645Z</time></trkpt><trkpt lat="43.441657" lon="10.9549055"><ele>602.0</ele><time>2026-05-01T14:51:51.645Z</time></trkpt><trkpt lat="43.4416845" lon="10.9547398"><ele>602.5</ele><time>2026-05-01T14:51:52.643Z</time></trkpt><trkpt lat="43.4417079" lon="10.9545801"><ele>603.0</ele><time>2026-05-01T14:51:53.678Z</time></trkpt><trkpt lat="43.4417314" lon="10.9544117"><ele>603.0</ele><time>2026-05-01T14:51:54.658Z</time></trkpt><trkpt lat="43.4417456" lon="10.9542393"><ele>603.0</ele><time>2026-05-01T14:51:55.654Z</time></trkpt><trkpt lat="43.4417426" lon="10.9540503"><ele>603.0</ele><time>2026-05-01T14:51:56.665Z</time></trkpt><trkpt lat="43.4417329" lon="10.9538551"><ele>603.0</ele><time>2026-05-01T14:51:57.655Z</time></trkpt><trkpt lat="43.4417185" lon="10.9536504"><ele>603.25</ele><time>2026-05-01T14:51:58.675Z</time></trkpt><trkpt lat="43.4417002" lon="10.9534443"><ele>603.5</ele><time>2026-05-01T14:51:59.652Z</time></trkpt><trkpt lat="43.4416848" lon="10.9532464"><ele>603.75</ele><time>2026-05-01T14:52:00.666Z</time></trkpt><trkpt lat="43.4416722" lon="10.953064"><ele>604.0</ele><time>2026-05-01T14:52:01.647Z</time></trkpt><trkpt lat="43.4416721" lon="10.9528987"><ele>604.0</ele><time>2026-05-01T14:52:02.655Z</time></trkpt><trkpt lat="43.441697" lon="10.9527444"><ele>604.0</ele><time>2026-05-01T14:52:03.662Z</time></trkpt><trkpt lat="43.4417374" lon="10.9526105"><ele>604.0</ele><time>2026-05-01T14:52:04.655Z</time></trkpt><trkpt lat="43.4417998" lon="10.9525073"><ele>604.0</ele><time>2026-05-01T14:52:05.659Z</time></trkpt><trkpt lat="43.4418904" lon="10.952432"><ele>604.0</ele><time>2026-05-01T14:52:06.66Z</time></trkpt><trkpt lat="43.4419969" lon="10.9523965"><ele>603.25</ele><time>2026-05-01T14:52:07.654Z</time></trkpt><trkpt lat="43.4421115" lon="10.9523758"><ele>602.5</ele><time>2026-05-01T14:52:08.645Z</time></trkpt><trkpt lat="43.4422313" lon="10.9523602"><ele>601.75</ele><time>2026-05-01T14:52:09.653Z</time></trkpt><trkpt lat="43.4423587" lon="10.9523436"><ele>601.0</ele><time>2026-05-01T14:52:10.649Z</time></trkpt><trkpt lat="43.442491" lon="10.9523175"><ele>601.0</ele><time>2026-05-01T14:52:11.656Z</time></trkpt><trkpt lat="43.4426327" lon="10.9522818"><ele>601.0</ele><time>2026-05-01T14:52:12.657Z</time></trkpt><trkpt lat="43.4427654" lon="10.9522402"><ele>601.0</ele><time>2026-05-01T14:52:13.654Z</time></trkpt><trkpt lat="43.4428986" lon="10.9521999"><ele>601.0</ele><time>2026-05-01T14:52:14.642Z</time></trkpt><trkpt lat="43.443029" lon="10.9521608"><ele>599.5</ele><time>2026-05-01T14:52:15.665Z</time></trkpt><trkpt lat="43.4431563" lon="10.952135"><ele>598.0</ele><time>2026-05-01T14:52:16.652Z</time></trkpt><trkpt lat="43.4432795" lon="10.9521203"><ele>596.5</ele><time>2026-05-01T14:52:17.649Z</time></trkpt><trkpt lat="43.4434184" lon="10.9521285"><ele>595.0</ele><time>2026-05-01T14:52:18.668Z</time></trkpt><trkpt lat="43.4435553" lon="10.9521543"><ele>595.0</ele><time>2026-05-01T14:52:19.652Z</time></trkpt><trkpt lat="43.4437017" lon="10.952158"><ele>595.0</ele><time>2026-05-01T14:52:20.662Z</time></trkpt><trkpt lat="43.4438454" lon="10.9521477"><ele>595.0</ele><time>2026-05-01T14:52:21.654Z</time></trkpt><trkpt lat="43.4439964" lon="10.9521155"><ele>595.0</ele><time>2026-05-01T14:52:22.665Z</time></trkpt><trkpt lat="43.4441476" lon="10.9520792"><ele>594.3333333333334</ele><time>2026-05-01T14:52:23.671Z</time></trkpt><trkpt lat="43.4443016" lon="10.9520556"><ele>593.6666666666666</ele><time>2026-05-01T14:52:24.658Z</time></trkpt><trkpt lat="43.4444648" lon="10.9520529"><ele>593.0</ele><time>2026-05-01T14:52:25.658Z</time></trkpt><trkpt lat="43.4446348" lon="10.9520901"><ele>592.6666666666666</ele><time>2026-05-01T14:52:26.675Z</time></trkpt><trkpt lat="43.4447955" lon="10.9521243"><ele>592.3333333333334</ele><time>2026-05-01T14:52:27.65Z</time></trkpt><trkpt lat="43.4449519" lon="10.9521585"><ele>592.0</ele><time>2026-05-01T14:52:28.654Z</time></trkpt><trkpt lat="43.4451018" lon="10.9521922"><ele>592.0</ele><time>2026-05-01T14:52:29.661Z</time></trkpt><trkpt lat="43.4452352" lon="10.9522252"><ele>592.0</ele><time>2026-05-01T14:52:30.655Z</time></trkpt><trkpt lat="43.4453625" lon="10.9522593"><ele>592.0</ele><time>2026-05-01T14:52:31.652Z</time></trkpt><trkpt lat="43.4454901" lon="10.952303"><ele>592.0</ele><time>2026-05-01T14:52:32.679Z</time></trkpt><trkpt lat="43.445622" lon="10.9523644"><ele>591.75</ele><time>2026-05-01T14:52:33.653Z</time></trkpt><trkpt lat="43.4457525" lon="10.9524368"><ele>591.5</ele><time>2026-05-01T14:52:34.654Z</time></trkpt><trkpt lat="43.445889" lon="10.9525106"><ele>591.25</ele><time>2026-05-01T14:52:35.656Z</time></trkpt><trkpt lat="43.4460301" lon="10.9525801"><ele>591.0</ele><time>2026-05-01T14:52:36.664Z</time></trkpt><trkpt lat="43.4461723" lon="10.9526408"><ele>589.0</ele><time>2026-05-01T14:52:37.664Z</time></trkpt><trkpt lat="43.4463233" lon="10.9526834"><ele>587.0</ele><time>2026-05-01T14:52:38.67Z</time></trkpt><trkpt lat="43.4464766" lon="10.9526869"><ele>585.0</ele><time>2026-05-01T14:52:39.645Z</time></trkpt><trkpt lat="43.446627" lon="10.9526733"><ele>585.0</ele><time>2026-05-01T14:52:40.652Z</time></trkpt><trkpt lat="43.4467786" lon="10.9526388"><ele>585.0</ele><time>2026-05-01T14:52:41.666Z</time></trkpt><trkpt lat="43.4469312" lon="10.9526031"><ele>585.0</ele><time>2026-05-01T14:52:42.657Z</time></trkpt><trkpt lat="43.4470807" lon="10.9525694"><ele>587.5</ele><time>2026-05-01T14:52:43.661Z</time></trkpt><trkpt lat="43.4472151" lon="10.9525251"><ele>590.0</ele><time>2026-05-01T14:52:44.647Z</time></trkpt><trkpt lat="43.447331" lon="10.9524636"><ele>592.5</ele><time>2026-05-01T14:52:45.637Z</time></trkpt><trkpt lat="43.4474347" lon="10.9523858"><ele>595.0</ele><time>2026-05-01T14:52:46.648Z</time></trkpt><trkpt lat="43.4475106" lon="10.9522651"><ele>595.0</ele><time>2026-05-01T14:52:47.651Z</time></trkpt><trkpt lat="43.4475697" lon="10.9521295"><ele>595.0</ele><time>2026-05-01T14:52:48.651Z</time></trkpt><trkpt lat="43.4476334" lon="10.9519793"><ele>595.0</ele><time>2026-05-01T14:52:49.652Z</time></trkpt><trkpt lat="43.4477087" lon="10.9518208"><ele>595.0</ele><time>2026-05-01T14:52:50.658Z</time></trkpt><trkpt lat="43.4477856" lon="10.9516462"><ele>596.0</ele><time>2026-05-01T14:52:51.655Z</time></trkpt><trkpt lat="43.4478598" lon="10.9514839"><ele>597.0</ele><time>2026-05-01T14:52:52.649Z</time></trkpt><trkpt lat="43.4479378" lon="10.9513238"><ele>598.0</ele><time>2026-05-01T14:52:53.652Z</time></trkpt><trkpt lat="43.4480274" lon="10.9511579"><ele>599.0</ele><time>2026-05-01T14:52:54.649Z</time></trkpt><trkpt lat="43.4481237" lon="10.9509919"><ele>600.6666666666666</ele><time>2026-05-01T14:52:55.643Z</time></trkpt><trkpt lat="43.4482192" lon="10.9508348"><ele>602.3333333333334</ele><time>2026-05-01T14:52:56.655Z</time></trkpt><trkpt lat="43.4483164" lon="10.9506765"><ele>604.0</ele><time>2026-05-01T14:52:57.659Z</time></trkpt><trkpt lat="43.4484197" lon="10.9505166"><ele>604.0</ele><time>2026-05-01T14:52:58.647Z</time></trkpt><trkpt lat="43.4485181" lon="10.9503569"><ele>604.0</ele><time>2026-05-01T14:52:59.657Z</time></trkpt><trkpt lat="43.44862" lon="10.950214"><ele>604.0</ele><time>2026-05-01T14:53:00.647Z</time></trkpt><trkpt lat="43.4487242" lon="10.950111"><ele>604.0</ele><time>2026-05-01T14:53:01.671Z</time></trkpt><trkpt lat="43.4488374" lon="10.9500515"><ele>606.0</ele><time>2026-05-01T14:53:02.65Z</time></trkpt><trkpt lat="43.448953" lon="10.9500577"><ele>608.0</ele><time>2026-05-01T14:53:03.651Z</time></trkpt><trkpt lat="43.4490704" lon="10.9500872"><ele>610.0</ele><time>2026-05-01T14:53:04.653Z</time></trkpt><trkpt lat="43.4491845" lon="10.9501384"><ele>612.0</ele><time>2026-05-01T14:53:05.663Z</time></trkpt><trkpt lat="43.4492907" lon="10.9501861"><ele>612.0</ele><time>2026-05-01T14:53:06.657Z</time></trkpt><trkpt lat="43.4493979" lon="10.950203"><ele>612.0</ele><time>2026-05-01T14:53:07.658Z</time></trkpt><trkpt lat="43.4494979" lon="10.9501741"><ele>612.0</ele><time>2026-05-01T14:53:08.663Z</time></trkpt><trkpt lat="43.449584" lon="10.9501277"><ele>612.0</ele><time>2026-05-01T14:53:09.673Z</time></trkpt><trkpt lat="43.4496518" lon="10.9500833"><ele>612.0</ele><time>2026-05-01T14:53:10.653Z</time></trkpt><trkpt lat="43.4497651" lon="10.9500076"><ele>612.0</ele><time>2026-05-01T14:53:12.663Z</time></trkpt><trkpt lat="43.4498326" lon="10.9499649"><ele>612.0</ele><time>2026-05-01T14:53:13.653Z</time></trkpt><trkpt lat="43.4498992" lon="10.9499236"><ele>612.0</ele><time>2026-05-01T14:53:14.663Z</time></trkpt><trkpt lat="43.4499665" lon="10.9498821"><ele>612.0</ele><time>2026-05-01T14:53:15.658Z</time></trkpt><trkpt lat="43.4500419" lon="10.9498528"><ele>612.0</ele><time>2026-05-01T14:53:16.653Z</time></trkpt><trkpt lat="43.4501276" lon="10.9498487"><ele>612.0</ele><time>2026-05-01T14:53:17.659Z</time></trkpt><trkpt lat="43.4502178" lon="10.9499043"><ele>612.0</ele><time>2026-05-01T14:53:18.652Z</time></trkpt><trkpt lat="43.4503022" lon="10.9499916"><ele>612.0</ele><time>2026-05-01T14:53:19.658Z</time></trkpt><trkpt lat="43.4503911" lon="10.9500839"><ele>612.0</ele><time>2026-05-01T14:53:20.641Z</time></trkpt><trkpt lat="43.4504881" lon="10.9501621"><ele>612.0</ele><time>2026-05-01T14:53:21.64Z</time></trkpt><trkpt lat="43.4505871" lon="10.9501969"><ele>612.0</ele><time>2026-05-01T14:53:22.651Z</time></trkpt><trkpt lat="43.450683" lon="10.9501771"><ele>611.0</ele><time>2026-05-01T14:53:23.651Z</time></trkpt><trkpt lat="43.450781" lon="10.950131"><ele>610.0</ele><time>2026-05-01T14:53:24.646Z</time></trkpt><trkpt lat="43.450879" lon="10.9500644"><ele>609.0</ele><time>2026-05-01T14:53:25.645Z</time></trkpt><trkpt lat="43.4509876" lon="10.9500013"><ele>608.0</ele><time>2026-05-01T14:53:26.645Z</time></trkpt><trkpt lat="43.4511054" lon="10.9499417"><ele>608.0</ele><time>2026-05-01T14:53:27.649Z</time></trkpt><trkpt lat="43.4512415" lon="10.9498699"><ele>608.0</ele><time>2026-05-01T14:53:28.65Z</time></trkpt><trkpt lat="43.4513735" lon="10.9497736"><ele>608.0</ele><time>2026-05-01T14:53:29.649Z</time></trkpt><trkpt lat="43.4514962" lon="10.9496668"><ele>608.0</ele><time>2026-05-01T14:53:30.647Z</time></trkpt><trkpt lat="43.4516116" lon="10.9495628"><ele>608.25</ele><time>2026-05-01T14:53:31.648Z</time></trkpt><trkpt lat="43.4517231" lon="10.9494654"><ele>608.5</ele><time>2026-05-01T14:53:32.657Z</time></trkpt><trkpt lat="43.4518379" lon="10.9493758"><ele>608.75</ele><time>2026-05-01T14:53:33.651Z</time></trkpt><trkpt lat="43.4519528" lon="10.9493091"><ele>609.0</ele><time>2026-05-01T14:53:34.648Z</time></trkpt><trkpt lat="43.4520706" lon="10.94927"><ele>608.75</ele><time>2026-05-01T14:53:35.65Z</time></trkpt><trkpt lat="43.4521889" lon="10.9492478"><ele>608.5</ele><time>2026-05-01T14:53:36.656Z</time></trkpt><trkpt lat="43.4523079" lon="10.9492204"><ele>608.25</ele><time>2026-05-01T14:53:37.657Z</time></trkpt><trkpt lat="43.4524181" lon="10.9491609"><ele>608.0</ele><time>2026-05-01T14:53:38.639Z</time></trkpt><trkpt lat="43.4524952" lon="10.9490739"><ele>604.6</ele><time>2026-05-01T14:53:39.649Z</time></trkpt><trkpt lat="43.4525702" lon="10.9489619"><ele>601.1999999999999</ele><time>2026-05-01T14:53:40.659Z</time></trkpt><trkpt lat="43.4526373" lon="10.9488557"><ele>597.8</ele><time>2026-05-01T14:53:41.651Z</time></trkpt><trkpt lat="43.452713" lon="10.9487553"><ele>594.4</ele><time>2026-05-01T14:53:42.656Z</time></trkpt><trkpt lat="43.4527966" lon="10.9486543"><ele>591.0</ele><time>2026-05-01T14:53:43.649Z</time></trkpt><trkpt lat="43.4528797" lon="10.9485537"><ele>590.0</ele><time>2026-05-01T14:53:44.643Z</time></trkpt><trkpt lat="43.4529624" lon="10.9484945"><ele>589.0</ele><time>2026-05-01T14:53:45.658Z</time></trkpt><trkpt lat="43.4530336" lon="10.9484843"><ele>588.0</ele><time>2026-05-01T14:53:46.65Z</time></trkpt><trkpt lat="43.4531118" lon="10.9485396"><ele>587.0</ele><time>2026-05-01T14:53:47.647Z</time></trkpt><trkpt lat="43.4531668" lon="10.94862"><ele>586.0</ele><time>2026-05-01T14:53:48.638Z</time></trkpt><trkpt lat="43.4532009" lon="10.9487329"><ele>585.0</ele><time>2026-05-01T14:53:49.648Z</time></trkpt><trkpt lat="43.4532472" lon="10.9488469"><ele>585.0</ele><time>2026-05-01T14:53:50.651Z</time></trkpt><trkpt lat="43.4533447" lon="10.9489243"><ele>585.0</ele><time>2026-05-01T14:53:51.654Z</time></trkpt><trkpt lat="43.4534542" lon="10.9489851"><ele>585.0</ele><time>2026-05-01T14:53:52.667Z</time></trkpt><trkpt lat="43.4535768" lon="10.9490349"><ele>585.0</ele><time>2026-05-01T14:53:53.656Z</time></trkpt><trkpt lat="43.4536938" lon="10.9490857"><ele>583.0</ele><time>2026-05-01T14:53:54.651Z</time></trkpt><trkpt lat="43.4537965" lon="10.949138"><ele>581.0</ele><time>2026-05-01T14:53:55.647Z</time></trkpt><trkpt lat="43.4538978" lon="10.949194"><ele>579.0</ele><time>2026-05-01T14:53:56.653Z</time></trkpt><trkpt lat="43.4539919" lon="10.9492591"><ele>577.0</ele><time>2026-05-01T14:53:57.642Z</time></trkpt><trkpt lat="43.4540864" lon="10.9493229"><ele>575.0</ele><time>2026-05-01T14:53:58.655Z</time></trkpt><trkpt lat="43.4541856" lon="10.9493842"><ele>575.0</ele><time>2026-05-01T14:53:59.653Z</time></trkpt><trkpt lat="43.4542833" lon="10.9494403"><ele>575.0</ele><time>2026-05-01T14:54:00.657Z</time></trkpt><trkpt lat="43.4543771" lon="10.9494797"><ele>575.0</ele><time>2026-05-01T14:54:01.656Z</time></trkpt><trkpt lat="43.4544566" lon="10.9495202"><ele>575.0</ele><time>2026-05-01T14:54:02.644Z</time></trkpt><trkpt lat="43.4545221" lon="10.9495758"><ele>575.0</ele><time>2026-05-01T14:54:03.665Z</time></trkpt><trkpt lat="43.4545695" lon="10.94965"><ele>575.0</ele><time>2026-05-01T14:54:04.655Z</time></trkpt><trkpt lat="43.4546005" lon="10.9497415"><ele>575.0</ele><time>2026-05-01T14:54:05.646Z</time></trkpt><trkpt lat="43.4546181" lon="10.9498516"><ele>575.0</ele><time>2026-05-01T14:54:06.647Z</time></trkpt><trkpt lat="43.4546203" lon="10.9499748"><ele>575.0</ele><time>2026-05-01T14:54:07.653Z</time></trkpt><trkpt lat="43.4546139" lon="10.9501037"><ele>575.0</ele><time>2026-05-01T14:54:08.66Z</time></trkpt><trkpt lat="43.4546047" lon="10.9502437"><ele>575.0</ele><time>2026-05-01T14:54:09.661Z</time></trkpt><trkpt lat="43.4545946" lon="10.9503818"><ele>575.1666666666666</ele><time>2026-05-01T14:54:10.652Z</time></trkpt><trkpt lat="43.4545921" lon="10.9504952"><ele>575.3333333333333</ele><time>2026-05-01T14:54:11.64Z</time></trkpt><trkpt lat="43.4546002" lon="10.9505945"><ele>575.5</ele><time>2026-05-01T14:54:12.642Z</time></trkpt><trkpt lat="43.4546574" lon="10.9507364"><ele>575.6666666666666</ele><time>2026-05-01T14:54:14.66Z</time></trkpt><trkpt lat="43.4547139" lon="10.9507835"><ele>575.8333333333334</ele><time>2026-05-01T14:54:15.65Z</time></trkpt><trkpt lat="43.454786" lon="10.9507775"><ele>576.0</ele><time>2026-05-01T14:54:16.659Z</time></trkpt><trkpt lat="43.4548546" lon="10.950733"><ele>572.3333333333334</ele><time>2026-05-01T14:54:17.656Z</time></trkpt><trkpt lat="43.4549215" lon="10.9506535"><ele>568.6666666666666</ele><time>2026-05-01T14:54:18.653Z</time></trkpt><trkpt lat="43.4549632" lon="10.950572"><ele>565.0</ele><time>2026-05-01T14:54:19.636Z</time></trkpt><trkpt lat="43.4550117" lon="10.9504756"><ele>561.3333333333333</ele><time>2026-05-01T14:54:20.652Z</time></trkpt><trkpt lat="43.4550727" lon="10.9504351"><ele>557.6666666666666</ele><time>2026-05-01T14:54:21.655Z</time></trkpt><trkpt lat="43.455153" lon="10.9504652"><ele>554.0</ele><time>2026-05-01T14:54:22.667Z</time></trkpt><trkpt lat="43.4552243" lon="10.9505496"><ele>554.0</ele><time>2026-05-01T14:54:23.65Z</time></trkpt><trkpt lat="43.455304" lon="10.9506258"><ele>554.0</ele><time>2026-05-01T14:54:24.662Z</time></trkpt><trkpt lat="43.4553921" lon="10.9506532"><ele>554.0</ele><time>2026-05-01T14:54:25.656Z</time></trkpt><trkpt lat="43.455489" lon="10.9506428"><ele>554.0</ele><time>2026-05-01T14:54:26.651Z</time></trkpt><trkpt lat="43.4555833" lon="10.9505909"><ele>554.0</ele><time>2026-05-01T14:54:27.653Z</time></trkpt><trkpt lat="43.4556861" lon="10.9505264"><ele>550.75</ele><time>2026-05-01T14:54:28.653Z</time></trkpt><trkpt lat="43.4557878" lon="10.9504627"><ele>547.5</ele><time>2026-05-01T14:54:29.65Z</time></trkpt><trkpt lat="43.4558992" lon="10.9504025"><ele>544.25</ele><time>2026-05-01T14:54:30.643Z</time></trkpt><trkpt lat="43.4560156" lon="10.9503529"><ele>541.0</ele><time>2026-05-01T14:54:31.654Z</time></trkpt><trkpt lat="43.4561455" lon="10.9503138"><ele>541.0</ele><time>2026-05-01T14:54:32.663Z</time></trkpt><trkpt lat="43.4562826" lon="10.9502942"><ele>541.0</ele><time>2026-05-01T14:54:33.643Z</time></trkpt><trkpt lat="43.4564283" lon="10.9502823"><ele>541.0</ele><time>2026-05-01T14:54:34.661Z</time></trkpt><trkpt lat="43.4565791" lon="10.9502781"><ele>541.0</ele><time>2026-05-01T14:54:35.658Z</time></trkpt><trkpt lat="43.456735" lon="10.9502752"><ele>539.3333333333334</ele><time>2026-05-01T14:54:36.647Z</time></trkpt><trkpt lat="43.456894" lon="10.9502648"><ele>537.6666666666666</ele><time>2026-05-01T14:54:37.653Z</time></trkpt><trkpt lat="43.4570435" lon="10.9502559"><ele>536.0</ele><time>2026-05-01T14:54:38.657Z</time></trkpt><trkpt lat="43.4571853" lon="10.9502491"><ele>535.75</ele><time>2026-05-01T14:54:39.66Z</time></trkpt><trkpt lat="43.4573241" lon="10.9502404"><ele>535.5</ele><time>2026-05-01T14:54:40.674Z</time></trkpt><trkpt lat="43.4574623" lon="10.9502296"><ele>535.25</ele><time>2026-05-01T14:54:41.66Z</time></trkpt><trkpt lat="43.4576012" lon="10.9502242"><ele>535.0</ele><time>2026-05-01T14:54:42.65Z</time></trkpt><trkpt lat="43.4577461" lon="10.9502191"><ele>535.0</ele><time>2026-05-01T14:54:43.646Z</time></trkpt><trkpt lat="43.4578941" lon="10.9502182"><ele>535.0</ele><time>2026-05-01T14:54:44.654Z</time></trkpt><trkpt lat="43.4580415" lon="10.9502119"><ele>535.0</ele><time>2026-05-01T14:54:45.659Z</time></trkpt><trkpt lat="43.4581901" lon="10.9502025"><ele>535.0</ele><time>2026-05-01T14:54:46.654Z</time></trkpt><trkpt lat="43.458344" lon="10.9501924"><ele>535.6666666666667</ele><time>2026-05-01T14:54:47.654Z</time></trkpt><trkpt lat="43.4584999" lon="10.9502036"><ele>536.3333333333334</ele><time>2026-05-01T14:54:48.651Z</time></trkpt><trkpt lat="43.4586571" lon="10.9502352"><ele>537.0</ele><time>2026-05-01T14:54:49.658Z</time></trkpt><trkpt lat="43.4588125" lon="10.9502744"><ele>537.0</ele><time>2026-05-01T14:54:50.659Z</time></trkpt><trkpt lat="43.4589736" lon="10.9503011"><ele>537.0</ele><time>2026-05-01T14:54:51.666Z</time></trkpt><trkpt lat="43.4591373" lon="10.9503281"><ele>537.0</ele><time>2026-05-01T14:54:52.647Z</time></trkpt><trkpt lat="43.4592989" lon="10.9503428"><ele>537.0</ele><time>2026-05-01T14:54:53.637Z</time></trkpt><trkpt lat="43.4594562" lon="10.9503524"><ele>537.0</ele><time>2026-05-01T14:54:54.642Z</time></trkpt><trkpt lat="43.4596096" lon="10.9503549"><ele>537.0</ele><time>2026-05-01T14:54:55.642Z</time></trkpt><trkpt lat="43.4597623" lon="10.9503605"><ele>537.0</ele><time>2026-05-01T14:54:56.658Z</time></trkpt><trkpt lat="43.4599121" lon="10.9503655"><ele>537.0</ele><time>2026-05-01T14:54:57.655Z</time></trkpt><trkpt lat="43.4600629" lon="10.9503804"><ele>537.0</ele><time>2026-05-01T14:54:58.65Z</time></trkpt><trkpt lat="43.4602055" lon="10.9504097"><ele>537.0</ele><time>2026-05-01T14:54:59.647Z</time></trkpt><trkpt lat="43.4603477" lon="10.9504491"><ele>535.5</ele><time>2026-05-01T14:55:00.643Z</time></trkpt><trkpt lat="43.4604844" lon="10.9504953"><ele>534.0</ele><time>2026-05-01T14:55:01.637Z</time></trkpt><trkpt lat="43.4606205" lon="10.950549"><ele>532.5</ele><time>2026-05-01T14:55:02.654Z</time></trkpt><trkpt lat="43.4607579" lon="10.9505947"><ele>531.0</ele><time>2026-05-01T14:55:03.638Z</time></trkpt><trkpt lat="43.4609014" lon="10.9506154"><ele>531.0</ele><time>2026-05-01T14:55:04.665Z</time></trkpt><trkpt lat="43.46104" lon="10.9506065"><ele>531.0</ele><time>2026-05-01T14:55:05.656Z</time></trkpt><trkpt lat="43.4611679" lon="10.9505714"><ele>531.0</ele><time>2026-05-01T14:55:06.638Z</time></trkpt><trkpt lat="43.461288" lon="10.9505252"><ele>531.0</ele><time>2026-05-01T14:55:07.649Z</time></trkpt><trkpt lat="43.4614066" lon="10.9504983"><ele>530.0</ele><time>2026-05-01T14:55:08.651Z</time></trkpt><trkpt lat="43.461522" lon="10.9504941"><ele>529.0</ele><time>2026-05-01T14:55:09.653Z</time></trkpt><trkpt lat="43.461625" lon="10.9505303"><ele>528.0</ele><time>2026-05-01T14:55:10.661Z</time></trkpt><trkpt lat="43.4617277" lon="10.9505962"><ele>527.0</ele><time>2026-05-01T14:55:11.651Z</time></trkpt><trkpt lat="43.4618195" lon="10.9507027"><ele>527.0</ele><time>2026-05-01T14:55:12.66Z</time></trkpt><trkpt lat="43.4619024" lon="10.9508151"><ele>527.0</ele><time>2026-05-01T14:55:13.663Z</time></trkpt><trkpt lat="43.4619974" lon="10.9509225"><ele>527.0</ele><time>2026-05-01T14:55:14.65Z</time></trkpt><trkpt lat="43.4620965" lon="10.9510123"><ele>527.0</ele><time>2026-05-01T14:55:15.677Z</time></trkpt><trkpt lat="43.4622127" lon="10.9510807"><ele>524.5</ele><time>2026-05-01T14:55:16.649Z</time></trkpt><trkpt lat="43.4623296" lon="10.9511248"><ele>522.0</ele><time>2026-05-01T14:55:17.64Z</time></trkpt><trkpt lat="43.4624503" lon="10.951164"><ele>519.5</ele><time>2026-05-01T14:55:18.644Z</time></trkpt><trkpt lat="43.4625642" lon="10.9512203"><ele>517.0</ele><time>2026-05-01T14:55:19.641Z</time></trkpt><trkpt lat="43.4626686" lon="10.9512802"><ele>517.0</ele><time>2026-05-01T14:55:20.643Z</time></trkpt><trkpt lat="43.4627609" lon="10.9513341"><ele>517.0</ele><time>2026-05-01T14:55:21.651Z</time></trkpt><trkpt lat="43.4628507" lon="10.9513779"><ele>517.0</ele><time>2026-05-01T14:55:22.661Z</time></trkpt><trkpt lat="43.4629338" lon="10.95144"><ele>517.0</ele><time>2026-05-01T14:55:23.65Z</time></trkpt><trkpt lat="43.4630037" lon="10.9515219"><ele>517.0</ele><time>2026-05-01T14:55:24.653Z</time></trkpt><trkpt lat="43.4630527" lon="10.9516245"><ele>515.0</ele><time>2026-05-01T14:55:25.657Z</time></trkpt><trkpt lat="43.4630998" lon="10.9517483"><ele>513.0</ele><time>2026-05-01T14:55:26.649Z</time></trkpt><trkpt lat="43.4631589" lon="10.9518775"><ele>511.00000000000006</ele><time>2026-05-01T14:55:27.649Z</time></trkpt><trkpt lat="43.4632372" lon="10.9519912"><ele>509.0</ele><time>2026-05-01T14:55:28.651Z</time></trkpt><trkpt lat="43.4633313" lon="10.9520777"><ele>507.0</ele><time>2026-05-01T14:55:29.669Z</time></trkpt><trkpt lat="43.463454" lon="10.9521342"><ele>507.0</ele><time>2026-05-01T14:55:30.65Z</time></trkpt><trkpt lat="43.4635737" lon="10.9521621"><ele>507.0</ele><time>2026-05-01T14:55:31.662Z</time></trkpt><trkpt lat="43.4637064" lon="10.952157"><ele>507.0</ele><time>2026-05-01T14:55:32.65Z</time></trkpt><trkpt lat="43.4638397" lon="10.9521216"><ele>507.0</ele><time>2026-05-01T14:55:33.648Z</time></trkpt><trkpt lat="43.4639727" lon="10.95207"><ele>505.0</ele><time>2026-05-01T14:55:34.639Z</time></trkpt><trkpt lat="43.4641063" lon="10.9520234"><ele>503.0</ele><time>2026-05-01T14:55:35.659Z</time></trkpt><trkpt lat="43.4642459" lon="10.9519819"><ele>501.0</ele><time>2026-05-01T14:55:36.653Z</time></trkpt><trkpt lat="43.4643941" lon="10.9519393"><ele>499.0</ele><time>2026-05-01T14:55:37.661Z</time></trkpt><trkpt lat="43.4645416" lon="10.9518929"><ele>497.33333333333337</ele><time>2026-05-01T14:55:38.648Z</time></trkpt><trkpt lat="43.4646998" lon="10.9518433"><ele>495.66666666666663</ele><time>2026-05-01T14:55:39.645Z</time></trkpt><trkpt lat="43.464863" lon="10.9517933"><ele>494.0</ele><time>2026-05-01T14:55:40.643Z</time></trkpt><trkpt lat="43.4650222" lon="10.9517374"><ele>495.0</ele><time>2026-05-01T14:55:41.656Z</time></trkpt><trkpt lat="43.4651846" lon="10.951681"><ele>496.0</ele><time>2026-05-01T14:55:42.656Z</time></trkpt><trkpt lat="43.4653422" lon="10.9516259"><ele>497.0</ele><time>2026-05-01T14:55:43.656Z</time></trkpt><trkpt lat="43.4654964" lon="10.9515782"><ele>497.0</ele><time>2026-05-01T14:55:44.651Z</time></trkpt><trkpt lat="43.4656419" lon="10.9515312"><ele>497.0</ele><time>2026-05-01T14:55:45.647Z</time></trkpt><trkpt lat="43.4657735" lon="10.9514949"><ele>497.0</ele><time>2026-05-01T14:55:46.647Z</time></trkpt><trkpt lat="43.465906" lon="10.9514554"><ele>497.0</ele><time>2026-05-01T14:55:47.645Z</time></trkpt><trkpt lat="43.4660324" lon="10.9514"><ele>497.0</ele><time>2026-05-01T14:55:48.652Z</time></trkpt><trkpt lat="43.4661571" lon="10.9513355"><ele>497.0</ele><time>2026-05-01T14:55:49.657Z</time></trkpt><trkpt lat="43.4662776" lon="10.9512467"><ele>497.0</ele><time>2026-05-01T14:55:50.664Z</time></trkpt><trkpt lat="43.4663985" lon="10.9511374"><ele>497.0</ele><time>2026-05-01T14:55:51.65Z</time></trkpt><trkpt lat="43.466514" lon="10.9510273"><ele>497.5</ele><time>2026-05-01T14:55:52.653Z</time></trkpt><trkpt lat="43.4666288" lon="10.9509158"><ele>498.0</ele><time>2026-05-01T14:55:53.656Z</time></trkpt><trkpt lat="43.4667477" lon="10.950797"><ele>498.5</ele><time>2026-05-01T14:55:54.656Z</time></trkpt><trkpt lat="43.4668655" lon="10.9506794"><ele>499.0</ele><time>2026-05-01T14:55:55.654Z</time></trkpt><trkpt lat="43.4669842" lon="10.9505589"><ele>499.0</ele><time>2026-05-01T14:55:56.65Z</time></trkpt><trkpt lat="43.4671091" lon="10.9504363"><ele>499.0</ele><time>2026-05-01T14:55:57.648Z</time></trkpt><trkpt lat="43.4672414" lon="10.9503186"><ele>499.0</ele><time>2026-05-01T14:55:58.65Z</time></trkpt><trkpt lat="43.467375" lon="10.9502045"><ele>496.0</ele><time>2026-05-01T14:55:59.65Z</time></trkpt><trkpt lat="43.4675209" lon="10.9500948"><ele>493.0</ele><time>2026-05-01T14:56:00.674Z</time></trkpt><trkpt lat="43.4676643" lon="10.9500042"><ele>490.0</ele><time>2026-05-01T14:56:01.652Z</time></trkpt><trkpt lat="43.4677952" lon="10.9499356"><ele>490.0</ele><time>2026-05-01T14:56:02.648Z</time></trkpt><trkpt lat="43.4679233" lon="10.9498772"><ele>490.0</ele><time>2026-05-01T14:56:03.657Z</time></trkpt><trkpt lat="43.4680474" lon="10.9498451"><ele>490.0</ele><time>2026-05-01T14:56:04.662Z</time></trkpt><trkpt lat="43.4681897" lon="10.9498443"><ele>490.0</ele><time>2026-05-01T14:56:05.664Z</time></trkpt><trkpt lat="43.4683239" lon="10.9498653"><ele>488.75</ele><time>2026-05-01T14:56:06.654Z</time></trkpt><trkpt lat="43.468459" lon="10.9498979"><ele>487.5</ele><time>2026-05-01T14:56:07.661Z</time></trkpt><trkpt lat="43.4685834" lon="10.9499721"><ele>486.25</ele><time>2026-05-01T14:56:08.647Z</time></trkpt><trkpt lat="43.4686832" lon="10.9500553"><ele>485.0</ele><time>2026-05-01T14:56:09.654Z</time></trkpt><trkpt lat="43.468755" lon="10.9501744"><ele>483.5</ele><time>2026-05-01T14:56:10.644Z</time></trkpt><trkpt lat="43.4688283" lon="10.9503164"><ele>482.0</ele><time>2026-05-01T14:56:11.652Z</time></trkpt><trkpt lat="43.4689021" lon="10.9504605"><ele>480.5</ele><time>2026-05-01T14:56:12.669Z</time></trkpt><trkpt lat="43.4689746" lon="10.9505904"><ele>479.0</ele><time>2026-05-01T14:56:13.657Z</time></trkpt><trkpt lat="43.4690502" lon="10.9507148"><ele>479.0</ele><time>2026-05-01T14:56:14.657Z</time></trkpt><trkpt lat="43.469137" lon="10.950824"><ele>479.0</ele><time>2026-05-01T14:56:15.652Z</time></trkpt><trkpt lat="43.4692221" lon="10.9508997"><ele>479.0</ele><time>2026-05-01T14:56:16.664Z</time></trkpt><trkpt lat="43.4693229" lon="10.9509645"><ele>479.0</ele><time>2026-05-01T14:56:17.644Z</time></trkpt><trkpt lat="43.4694292" lon="10.9510035"><ele>479.0</ele><time>2026-05-01T14:56:18.654Z</time></trkpt><trkpt lat="43.4695414" lon="10.9510302"><ele>475.75</ele><time>2026-05-01T14:56:19.648Z</time></trkpt><trkpt lat="43.4696601" lon="10.9510584"><ele>472.5</ele><time>2026-05-01T14:56:20.652Z</time></trkpt><trkpt lat="43.4697905" lon="10.9510821"><ele>469.25</ele><time>2026-05-01T14:56:21.657Z</time></trkpt><trkpt lat="43.4699222" lon="10.9510929"><ele>466.0</ele><time>2026-05-01T14:56:22.654Z</time></trkpt><trkpt lat="43.470064" lon="10.9511035"><ele>466.0</ele><time>2026-05-01T14:56:23.661Z</time></trkpt><trkpt lat="43.4702095" lon="10.9511243"><ele>466.0</ele><time>2026-05-01T14:56:24.642Z</time></trkpt><trkpt lat="43.470356" lon="10.9511578"><ele>466.0</ele><time>2026-05-01T14:56:25.66Z</time></trkpt><trkpt lat="43.4704914" lon="10.9512"><ele>466.0</ele><time>2026-05-01T14:56:26.649Z</time></trkpt><trkpt lat="43.4706225" lon="10.9512441"><ele>464.5</ele><time>2026-05-01T14:56:27.654Z</time></trkpt><trkpt lat="43.4707514" lon="10.9512925"><ele>463.0</ele><time>2026-05-01T14:56:28.649Z</time></trkpt><trkpt lat="43.4708824" lon="10.9513385"><ele>461.5</ele><time>2026-05-01T14:56:29.651Z</time></trkpt><trkpt lat="43.4710163" lon="10.9513853"><ele>460.0</ele><time>2026-05-01T14:56:30.649Z</time></trkpt><trkpt lat="43.4711364" lon="10.9514089"><ele>460.0</ele><time>2026-05-01T14:56:31.671Z</time></trkpt><trkpt lat="43.4712616" lon="10.9514068"><ele>460.0</ele><time>2026-05-01T14:56:32.651Z</time></trkpt><trkpt lat="43.4713811" lon="10.9513846"><ele>460.0</ele><time>2026-05-01T14:56:33.65Z</time></trkpt><trkpt lat="43.4715128" lon="10.9513489"><ele>460.0</ele><time>2026-05-01T14:56:34.658Z</time></trkpt><trkpt lat="43.4716491" lon="10.9513097"><ele>460.0</ele><time>2026-05-01T14:56:35.656Z</time></trkpt><trkpt lat="43.4717863" lon="10.9512629"><ele>460.0</ele><time>2026-05-01T14:56:36.657Z</time></trkpt><trkpt lat="43.4719172" lon="10.9512257"><ele>460.0</ele><time>2026-05-01T14:56:37.654Z</time></trkpt><trkpt lat="43.4720432" lon="10.9512001"><ele>460.0</ele><time>2026-05-01T14:56:38.655Z</time></trkpt><trkpt lat="43.4721672" lon="10.9512184"><ele>460.5</ele><time>2026-05-01T14:56:39.656Z</time></trkpt><trkpt lat="43.4722982" lon="10.9512585"><ele>461.0</ele><time>2026-05-01T14:56:40.667Z</time></trkpt><trkpt lat="43.4724214" lon="10.951326"><ele>461.5</ele><time>2026-05-01T14:56:41.661Z</time></trkpt><trkpt lat="43.4725535" lon="10.9514053"><ele>462.0</ele><time>2026-05-01T14:56:42.648Z</time></trkpt><trkpt lat="43.4726835" lon="10.9514794"><ele>462.0</ele><time>2026-05-01T14:56:43.663Z</time></trkpt><trkpt lat="43.4728132" lon="10.9515336"><ele>462.0</ele><time>2026-05-01T14:56:44.656Z</time></trkpt><trkpt lat="43.4729413" lon="10.9515602"><ele>462.0</ele><time>2026-05-01T14:56:45.657Z</time></trkpt><trkpt lat="43.47307" lon="10.9515669"><ele>462.0</ele><time>2026-05-01T14:56:46.647Z</time></trkpt><trkpt lat="43.4731933" lon="10.9515885"><ele>463.5</ele><time>2026-05-01T14:56:47.646Z</time></trkpt><trkpt lat="43.473315" lon="10.9516311"><ele>465.0</ele><time>2026-05-01T14:56:48.653Z</time></trkpt><trkpt lat="43.4734309" lon="10.951708"><ele>466.5</ele><time>2026-05-01T14:56:49.656Z</time></trkpt><trkpt lat="43.4735416" lon="10.9518127"><ele>468.0</ele><time>2026-05-01T14:56:50.648Z</time></trkpt><trkpt lat="43.4736287" lon="10.9519217"><ele>466.79999999999995</ele><time>2026-05-01T14:56:51.653Z</time></trkpt><trkpt lat="43.4737092" lon="10.9520326"><ele>465.59999999999997</ele><time>2026-05-01T14:56:52.663Z</time></trkpt><trkpt lat="43.4737919" lon="10.95213"><ele>464.40000000000003</ele><time>2026-05-01T14:56:53.657Z</time></trkpt><trkpt lat="43.4738736" lon="10.9522141"><ele>463.20000000000005</ele><time>2026-05-01T14:56:54.651Z</time></trkpt><trkpt lat="43.4739643" lon="10.952273"><ele>462.0</ele><time>2026-05-01T14:56:55.662Z</time></trkpt><trkpt lat="43.4740664" lon="10.9523067"><ele>462.0</ele><time>2026-05-01T14:56:56.658Z</time></trkpt><trkpt lat="43.4741722" lon="10.9523108"><ele>462.00000000000006</ele><time>2026-05-01T14:56:57.639Z</time></trkpt><trkpt lat="43.4742877" lon="10.9523048"><ele>462.00000000000006</ele><time>2026-05-01T14:56:58.647Z</time></trkpt><trkpt lat="43.4743945" lon="10.9522995"><ele>462.0</ele><time>2026-05-01T14:56:59.654Z</time></trkpt><trkpt lat="43.4745085" lon="10.9523149"><ele>462.0</ele><time>2026-05-01T14:57:00.653Z</time></trkpt><trkpt lat="43.4746251" lon="10.952357"><ele>462.5</ele><time>2026-05-01T14:57:01.661Z</time></trkpt><trkpt lat="43.4747488" lon="10.9524227"><ele>463.0</ele><time>2026-05-01T14:57:02.647Z</time></trkpt><trkpt lat="43.4748729" lon="10.9524914"><ele>463.5</ele><time>2026-05-01T14:57:03.651Z</time></trkpt><trkpt lat="43.4749938" lon="10.9525565"><ele>464.0</ele><time>2026-05-01T14:57:04.658Z</time></trkpt><trkpt lat="43.4751191" lon="10.9526161"><ele>462.25</ele><time>2026-05-01T14:57:05.653Z</time></trkpt><trkpt lat="43.4752466" lon="10.9526766"><ele>460.5</ele><time>2026-05-01T14:57:06.65Z</time></trkpt><trkpt lat="43.4753804" lon="10.9527469"><ele>458.75</ele><time>2026-05-01T14:57:07.657Z</time></trkpt><trkpt lat="43.4755259" lon="10.9528136"><ele>457.0</ele><time>2026-05-01T14:57:08.647Z</time></trkpt><trkpt lat="43.4756801" lon="10.9528874"><ele>457.0</ele><time>2026-05-01T14:57:09.657Z</time></trkpt><trkpt lat="43.4758407" lon="10.9529667"><ele>457.0</ele><time>2026-05-01T14:57:10.664Z</time></trkpt><trkpt lat="43.4760004" lon="10.9530486"><ele>457.0</ele><time>2026-05-01T14:57:11.646Z</time></trkpt><trkpt lat="43.4761569" lon="10.9531522"><ele>459.0</ele><time>2026-05-01T14:57:12.65Z</time></trkpt><trkpt lat="43.476306" lon="10.9532711"><ele>461.0</ele><time>2026-05-01T14:57:13.649Z</time></trkpt><trkpt lat="43.4764461" lon="10.9533851"><ele>463.0</ele><time>2026-05-01T14:57:14.64Z</time></trkpt><trkpt lat="43.4765845" lon="10.9535001"><ele>463.0</ele><time>2026-05-01T14:57:15.652Z</time></trkpt><trkpt lat="43.4767242" lon="10.9536108"><ele>463.0</ele><time>2026-05-01T14:57:16.645Z</time></trkpt><trkpt lat="43.4768603" lon="10.9537191"><ele>463.0</ele><time>2026-05-01T14:57:17.65Z</time></trkpt><trkpt lat="43.476996" lon="10.9538286"><ele>464.0</ele><time>2026-05-01T14:57:18.648Z</time></trkpt><trkpt lat="43.4771358" lon="10.9539446"><ele>465.0</ele><time>2026-05-01T14:57:19.659Z</time></trkpt><trkpt lat="43.4772769" lon="10.9540596"><ele>466.0</ele><time>2026-05-01T14:57:20.649Z</time></trkpt><trkpt lat="43.4774115" lon="10.9541763"><ele>464.75</ele><time>2026-05-01T14:57:21.645Z</time></trkpt><trkpt lat="43.4775415" lon="10.9542883"><ele>463.5</ele><time>2026-05-01T14:57:22.648Z</time></trkpt><trkpt lat="43.4776673" lon="10.9543823"><ele>462.25</ele><time>2026-05-01T14:57:23.649Z</time></trkpt><trkpt lat="43.4777861" lon="10.9544478"><ele>461.0</ele><time>2026-05-01T14:57:24.648Z</time></trkpt><trkpt lat="43.4779015" lon="10.9544611"><ele>463.8</ele><time>2026-05-01T14:57:25.657Z</time></trkpt><trkpt lat="43.4780105" lon="10.9544533"><ele>466.6</ele><time>2026-05-01T14:57:26.659Z</time></trkpt><trkpt lat="43.4781231" lon="10.9544372"><ele>469.4</ele><time>2026-05-01T14:57:27.64Z</time></trkpt><trkpt lat="43.4782327" lon="10.9544386"><ele>472.2</ele><time>2026-05-01T14:57:28.651Z</time></trkpt><trkpt lat="43.4783461" lon="10.9544508"><ele>475.0</ele><time>2026-05-01T14:57:29.652Z</time></trkpt><trkpt lat="43.4784581" lon="10.9544699"><ele>475.0</ele><time>2026-05-01T14:57:30.656Z</time></trkpt><trkpt lat="43.4785834" lon="10.9544835"><ele>475.0</ele><time>2026-05-01T14:57:31.665Z</time></trkpt><trkpt lat="43.4787116" lon="10.9544782"><ele>475.0</ele><time>2026-05-01T14:57:32.644Z</time></trkpt><trkpt lat="43.4788396" lon="10.9544577"><ele>475.0</ele><time>2026-05-01T14:57:33.649Z</time></trkpt><trkpt lat="43.478973" lon="10.9544367"><ele>474.75</ele><time>2026-05-01T14:57:34.649Z</time></trkpt><trkpt lat="43.4791022" lon="10.9544135"><ele>474.5</ele><time>2026-05-01T14:57:35.646Z</time></trkpt><trkpt lat="43.4792395" lon="10.9543808"><ele>474.25</ele><time>2026-05-01T14:57:36.656Z</time></trkpt><trkpt lat="43.4793709" lon="10.9543372"><ele>474.0</ele><time>2026-05-01T14:57:37.653Z</time></trkpt><trkpt lat="43.4795047" lon="10.9542768"><ele>472.75</ele><time>2026-05-01T14:57:38.644Z</time></trkpt><trkpt lat="43.479639" lon="10.9542094"><ele>471.5</ele><time>2026-05-01T14:57:39.655Z</time></trkpt><trkpt lat="43.4797637" lon="10.954157"><ele>470.25</ele><time>2026-05-01T14:57:40.643Z</time></trkpt><trkpt lat="43.4798821" lon="10.9540989"><ele>469.0</ele><time>2026-05-01T14:57:41.648Z</time></trkpt><trkpt lat="43.48" lon="10.9540373"><ele>469.0</ele><time>2026-05-01T14:57:42.648Z</time></trkpt><trkpt lat="43.4801097" lon="10.953978"><ele>469.0</ele><time>2026-05-01T14:57:43.639Z</time></trkpt><trkpt lat="43.4802124" lon="10.9539264"><ele>469.0</ele><time>2026-05-01T14:57:44.657Z</time></trkpt><trkpt lat="43.4803099" lon="10.9538815"><ele>469.0</ele><time>2026-05-01T14:57:45.642Z</time></trkpt><trkpt lat="43.4804036" lon="10.9538447"><ele>469.0</ele><time>2026-05-01T14:57:46.64Z</time></trkpt><trkpt lat="43.4804882" lon="10.9538068"><ele>469.00000000000006</ele><time>2026-05-01T14:57:47.652Z</time></trkpt><trkpt lat="43.4805535" lon="10.9537929"><ele>469.0</ele><time>2026-05-01T14:57:48.645Z</time></trkpt><trkpt lat="43.4806246" lon="10.9537798"><ele>469.0</ele><time>2026-05-01T14:57:50.643Z</time></trkpt><trkpt lat="43.4807038" lon="10.9538423"><ele>469.0</ele><time>2026-05-01T14:57:53.659Z</time></trkpt><trkpt lat="43.480708" lon="10.9540136"><ele>469.00000000000006</ele><time>2026-05-01T14:57:55.652Z</time></trkpt><trkpt lat="43.4806907" lon="10.9541275"><ele>469.0</ele><time>2026-05-01T14:57:56.66Z</time></trkpt><trkpt lat="43.4806818" lon="10.9542523"><ele>468.75</ele><time>2026-05-01T14:57:57.655Z</time></trkpt><trkpt lat="43.4806702" lon="10.9543966"><ele>468.5</ele><time>2026-05-01T14:57:58.656Z</time></trkpt><trkpt lat="43.4806646" lon="10.9545728"><ele>468.25</ele><time>2026-05-01T14:57:59.658Z</time></trkpt><trkpt lat="43.4806555" lon="10.9547439"><ele>468.0</ele><time>2026-05-01T14:58:00.654Z</time></trkpt><trkpt lat="43.4806596" lon="10.9549272"><ele>466.33333333333337</ele><time>2026-05-01T14:58:01.656Z</time></trkpt><trkpt lat="43.480655" lon="10.9551345"><ele>464.6666666666667</ele><time>2026-05-01T14:58:02.667Z</time></trkpt><trkpt lat="43.4806516" lon="10.9553536"><ele>463.0</ele><time>2026-05-01T14:58:03.653Z</time></trkpt><trkpt lat="43.4806474" lon="10.9555644"><ele>463.0</ele><time>2026-05-01T14:58:04.649Z</time></trkpt><trkpt lat="43.4806386" lon="10.9557746"><ele>463.0</ele><time>2026-05-01T14:58:05.648Z</time></trkpt><trkpt lat="43.4806284" lon="10.9559818"><ele>463.0</ele><time>2026-05-01T14:58:06.65Z</time></trkpt><trkpt lat="43.4806245" lon="10.9561834"><ele>462.33333333333337</ele><time>2026-05-01T14:58:07.646Z</time></trkpt><trkpt lat="43.4806406" lon="10.9563919"><ele>461.66666666666663</ele><time>2026-05-01T14:58:08.658Z</time></trkpt><trkpt lat="43.4806677" lon="10.9566058"><ele>461.0</ele><time>2026-05-01T14:58:09.645Z</time></trkpt><trkpt lat="43.4806969" lon="10.9568241"><ele>459.0</ele><time>2026-05-01T14:58:10.648Z</time></trkpt><trkpt lat="43.4807235" lon="10.9570438"><ele>457.0</ele><time>2026-05-01T14:58:11.647Z</time></trkpt><trkpt lat="43.4807553" lon="10.9572753"><ele>455.0</ele><time>2026-05-01T14:58:12.653Z</time></trkpt><trkpt lat="43.4807895" lon="10.9575029"><ele>454.0</ele><time>2026-05-01T14:58:13.651Z</time></trkpt><trkpt lat="43.4808197" lon="10.9577283"><ele>453.0</ele><time>2026-05-01T14:58:14.653Z</time></trkpt><trkpt lat="43.4808564" lon="10.9579547"><ele>452.0</ele><time>2026-05-01T14:58:15.651Z</time></trkpt><trkpt lat="43.4808927" lon="10.9581792"><ele>452.3333333333333</ele><time>2026-05-01T14:58:16.65Z</time></trkpt><trkpt lat="43.4809295" lon="10.9584119"><ele>452.66666666666663</ele><time>2026-05-01T14:58:17.649Z</time></trkpt><trkpt lat="43.4809714" lon="10.9586449"><ele>453.0</ele><time>2026-05-01T14:58:18.652Z</time></trkpt><trkpt lat="43.4810208" lon="10.9588823"><ele>453.0</ele><time>2026-05-01T14:58:19.652Z</time></trkpt><trkpt lat="43.4810734" lon="10.9591217"><ele>453.0</ele><time>2026-05-01T14:58:20.649Z</time></trkpt><trkpt lat="43.4811264" lon="10.9593655"><ele>453.0</ele><time>2026-05-01T14:58:21.654Z</time></trkpt><trkpt lat="43.4811854" lon="10.9596151"><ele>452.66666666666663</ele><time>2026-05-01T14:58:22.652Z</time></trkpt><trkpt lat="43.4812469" lon="10.9598563"><ele>452.3333333333333</ele><time>2026-05-01T14:58:23.654Z</time></trkpt><trkpt lat="43.4813099" lon="10.9600824"><ele>452.0</ele><time>2026-05-01T14:58:24.64Z</time></trkpt><trkpt lat="43.4813784" lon="10.9602819"><ele>452.75</ele><time>2026-05-01T14:58:25.649Z</time></trkpt><trkpt lat="43.4814573" lon="10.9604656"><ele>453.5</ele><time>2026-05-01T14:58:26.654Z</time></trkpt><trkpt lat="43.481551" lon="10.9606125"><ele>454.25</ele><time>2026-05-01T14:58:27.652Z</time></trkpt><trkpt lat="43.4816555" lon="10.9607432"><ele>455.0</ele><time>2026-05-01T14:58:28.642Z</time></trkpt><trkpt lat="43.4817592" lon="10.9608609"><ele>455.5</ele><time>2026-05-01T14:58:29.644Z</time></trkpt><trkpt lat="43.4818737" lon="10.9609755"><ele>456.0</ele><time>2026-05-01T14:58:30.653Z</time></trkpt><trkpt lat="43.4819883" lon="10.9610857"><ele>456.5</ele><time>2026-05-01T14:58:31.654Z</time></trkpt><trkpt lat="43.4821068" lon="10.9612062"><ele>457.0</ele><time>2026-05-01T14:58:32.658Z</time></trkpt><trkpt lat="43.48222" lon="10.961344"><ele>457.0</ele><time>2026-05-01T14:58:33.647Z</time></trkpt><trkpt lat="43.4823374" lon="10.9614889"><ele>457.0</ele><time>2026-05-01T14:58:34.661Z</time></trkpt><trkpt lat="43.4824548" lon="10.96163"><ele>457.0</ele><time>2026-05-01T14:58:35.651Z</time></trkpt><trkpt lat="43.4825678" lon="10.9617774"><ele>456.5</ele><time>2026-05-01T14:58:36.652Z</time></trkpt><trkpt lat="43.482678" lon="10.9619131"><ele>456.0</ele><time>2026-05-01T14:58:37.647Z</time></trkpt><trkpt lat="43.4827819" lon="10.9620458"><ele>455.5</ele><time>2026-05-01T14:58:38.649Z</time></trkpt><trkpt lat="43.4828851" lon="10.9621719"><ele>455.0</ele><time>2026-05-01T14:58:39.648Z</time></trkpt><trkpt lat="43.4829847" lon="10.9622923"><ele>454.0</ele><time>2026-05-01T14:58:40.655Z</time></trkpt><trkpt lat="43.4830855" lon="10.9624089"><ele>453.0</ele><time>2026-05-01T14:58:41.649Z</time></trkpt><trkpt lat="43.4831885" lon="10.9625295"><ele>452.0</ele><time>2026-05-01T14:58:42.65Z</time></trkpt><trkpt lat="43.4832918" lon="10.9626538"><ele>451.0</ele><time>2026-05-01T14:58:43.644Z</time></trkpt><trkpt lat="43.4833952" lon="10.9627807"><ele>449.5</ele><time>2026-05-01T14:58:44.658Z</time></trkpt><trkpt lat="43.4835034" lon="10.9629126"><ele>448.0</ele><time>2026-05-01T14:58:45.658Z</time></trkpt><trkpt lat="43.4836135" lon="10.9630454"><ele>446.5</ele><time>2026-05-01T14:58:46.649Z</time></trkpt><trkpt lat="43.4837169" lon="10.9631799"><ele>445.0</ele><time>2026-05-01T14:58:47.652Z</time></trkpt><trkpt lat="43.4838062" lon="10.963318"><ele>444.25</ele><time>2026-05-01T14:58:48.676Z</time></trkpt><trkpt lat="43.4838832" lon="10.9634486"><ele>443.5</ele><time>2026-05-01T14:58:49.645Z</time></trkpt><trkpt lat="43.4839542" lon="10.9635806"><ele>442.75</ele><time>2026-05-01T14:58:50.648Z</time></trkpt><trkpt lat="43.4840169" lon="10.9637093"><ele>442.0</ele><time>2026-05-01T14:58:51.648Z</time></trkpt><trkpt lat="43.4840824" lon="10.963835"><ele>442.0</ele><time>2026-05-01T14:58:52.657Z</time></trkpt><trkpt lat="43.4841502" lon="10.9639659"><ele>442.0</ele><time>2026-05-01T14:58:53.672Z</time></trkpt><trkpt lat="43.4842183" lon="10.964091"><ele>442.0</ele><time>2026-05-01T14:58:54.653Z</time></trkpt><trkpt lat="43.4842816" lon="10.9642212"><ele>442.0</ele><time>2026-05-01T14:58:55.651Z</time></trkpt><trkpt lat="43.4843419" lon="10.9643474"><ele>441.0</ele><time>2026-05-01T14:58:56.643Z</time></trkpt><trkpt lat="43.4844059" lon="10.9644795"><ele>440.0</ele><time>2026-05-01T14:58:57.647Z</time></trkpt><trkpt lat="43.4844755" lon="10.9646154"><ele>439.0</ele><time>2026-05-01T14:58:58.651Z</time></trkpt><trkpt lat="43.4845423" lon="10.9647581"><ele>438.0</ele><time>2026-05-01T14:58:59.65Z</time></trkpt><trkpt lat="43.4846127" lon="10.9649079"><ele>436.75</ele><time>2026-05-01T14:59:00.676Z</time></trkpt><trkpt lat="43.4846847" lon="10.9650476"><ele>435.5</ele><time>2026-05-01T14:59:01.653Z</time></trkpt><trkpt lat="43.4847537" lon="10.9651779"><ele>434.25</ele><time>2026-05-01T14:59:02.646Z</time></trkpt><trkpt lat="43.4848207" lon="10.9653094"><ele>433.0</ele><time>2026-05-01T14:59:03.653Z</time></trkpt><trkpt lat="43.4848798" lon="10.9654415"><ele>433.0</ele><time>2026-05-01T14:59:04.65Z</time></trkpt><trkpt lat="43.4849353" lon="10.9655747"><ele>433.0</ele><time>2026-05-01T14:59:05.65Z</time></trkpt><trkpt lat="43.4849777" lon="10.9657199"><ele>433.0</ele><time>2026-05-01T14:59:06.653Z</time></trkpt><trkpt lat="43.4849994" lon="10.9658723"><ele>433.0</ele><time>2026-05-01T14:59:07.65Z</time></trkpt><trkpt lat="43.4850035" lon="10.9660452"><ele>431.5</ele><time>2026-05-01T14:59:08.654Z</time></trkpt><trkpt lat="43.4849902" lon="10.9662151"><ele>430.0</ele><time>2026-05-01T14:59:09.65Z</time></trkpt><trkpt lat="43.4849594" lon="10.9664003"><ele>428.5</ele><time>2026-05-01T14:59:10.664Z</time></trkpt><trkpt lat="43.4849228" lon="10.9665729"><ele>427.0</ele><time>2026-05-01T14:59:11.664Z</time></trkpt><trkpt lat="43.4848876" lon="10.9667512"><ele>426.25</ele><time>2026-05-01T14:59:12.661Z</time></trkpt><trkpt lat="43.4848576" lon="10.9669317"><ele>425.5</ele><time>2026-05-01T14:59:13.658Z</time></trkpt><trkpt lat="43.48482" lon="10.9671036"><ele>424.75</ele><time>2026-05-01T14:59:14.645Z</time></trkpt><trkpt lat="43.4847902" lon="10.9672803"><ele>424.0</ele><time>2026-05-01T14:59:15.635Z</time></trkpt><trkpt lat="43.4847709" lon="10.96746"><ele>423.5</ele><time>2026-05-01T14:59:16.65Z</time></trkpt><trkpt lat="43.4847736" lon="10.9676472"><ele>423.0</ele><time>2026-05-01T14:59:17.655Z</time></trkpt><trkpt lat="43.4847909" lon="10.9678361"><ele>422.5</ele><time>2026-05-01T14:59:18.651Z</time></trkpt><trkpt lat="43.4848224" lon="10.9680186"><ele>422.0</ele><time>2026-05-01T14:59:19.654Z</time></trkpt><trkpt lat="43.4848681" lon="10.9682051"><ele>421.75</ele><time>2026-05-01T14:59:20.648Z</time></trkpt><trkpt lat="43.4849084" lon="10.968387"><ele>421.5</ele><time>2026-05-01T14:59:21.66Z</time></trkpt><trkpt lat="43.4849525" lon="10.9685707"><ele>421.25</ele><time>2026-05-01T14:59:22.657Z</time></trkpt><trkpt lat="43.4850004" lon="10.9687592"><ele>421.0</ele><time>2026-05-01T14:59:23.642Z</time></trkpt><trkpt lat="43.4850468" lon="10.9689486"><ele>421.0</ele><time>2026-05-01T14:59:24.665Z</time></trkpt><trkpt lat="43.4850918" lon="10.9691394"><ele>421.0</ele><time>2026-05-01T14:59:25.648Z</time></trkpt><trkpt lat="43.4851455" lon="10.9693368"><ele>421.0</ele><time>2026-05-01T14:59:26.647Z</time></trkpt><trkpt lat="43.4851977" lon="10.9695383"><ele>420.33333333333337</ele><time>2026-05-01T14:59:27.65Z</time></trkpt><trkpt lat="43.4852528" lon="10.9697456"><ele>419.66666666666663</ele><time>2026-05-01T14:59:28.654Z</time></trkpt><trkpt lat="43.4853068" lon="10.9699513"><ele>419.0</ele><time>2026-05-01T14:59:29.661Z</time></trkpt><trkpt lat="43.4853642" lon="10.9701659"><ele>420.66666666666663</ele><time>2026-05-01T14:59:30.65Z</time></trkpt><trkpt lat="43.4854295" lon="10.970369"><ele>422.33333333333337</ele><time>2026-05-01T14:59:31.643Z</time></trkpt><trkpt lat="43.4854926" lon="10.9705719"><ele>424.0</ele><time>2026-05-01T14:59:32.648Z</time></trkpt><trkpt lat="43.4855595" lon="10.9707723"><ele>422.0</ele><time>2026-05-01T14:59:33.651Z</time></trkpt><trkpt lat="43.4856244" lon="10.9709775"><ele>420.0</ele><time>2026-05-01T14:59:34.657Z</time></trkpt><trkpt lat="43.4856944" lon="10.971185"><ele>418.0</ele><time>2026-05-01T14:59:35.664Z</time></trkpt><trkpt lat="43.4857595" lon="10.9714002"><ele>418.0</ele><time>2026-05-01T14:59:36.657Z</time></trkpt><trkpt lat="43.4858323" lon="10.9716134"><ele>418.0</ele><time>2026-05-01T14:59:37.645Z</time></trkpt><trkpt lat="43.4859041" lon="10.9718305"><ele>418.0</ele><time>2026-05-01T14:59:38.668Z</time></trkpt><trkpt lat="43.4859729" lon="10.9720435"><ele>417.0</ele><time>2026-05-01T14:59:39.645Z</time></trkpt><trkpt lat="43.4860386" lon="10.9722436"><ele>416.0</ele><time>2026-05-01T14:59:40.648Z</time></trkpt><trkpt lat="43.4860987" lon="10.9724401"><ele>415.0</ele><time>2026-05-01T14:59:41.655Z</time></trkpt><trkpt lat="43.4861599" lon="10.9726357"><ele>415.0</ele><time>2026-05-01T14:59:42.653Z</time></trkpt><trkpt lat="43.4862261" lon="10.9728224"><ele>415.0</ele><time>2026-05-01T14:59:43.666Z</time></trkpt><trkpt lat="43.4862795" lon="10.9730152"><ele>415.0</ele><time>2026-05-01T14:59:44.651Z</time></trkpt><trkpt lat="43.4863098" lon="10.9731808"><ele>415.0</ele><time>2026-05-01T14:59:45.668Z</time></trkpt><trkpt lat="43.4863272" lon="10.9733764"><ele>417.5</ele><time>2026-05-01T14:59:46.655Z</time></trkpt><trkpt lat="43.4863254" lon="10.9735703"><ele>420.0</ele><time>2026-05-01T14:59:47.662Z</time></trkpt><trkpt lat="43.4863026" lon="10.9737603"><ele>422.5</ele><time>2026-05-01T14:59:48.66Z</time></trkpt><trkpt lat="43.4862771" lon="10.9739578"><ele>425.0</ele><time>2026-05-01T14:59:49.654Z</time></trkpt><trkpt lat="43.4862528" lon="10.9741576"><ele>426.25</ele><time>2026-05-01T14:59:50.67Z</time></trkpt><trkpt lat="43.4862381" lon="10.9743511"><ele>427.5</ele><time>2026-05-01T14:59:51.654Z</time></trkpt><trkpt lat="43.4862217" lon="10.9745413"><ele>428.75</ele><time>2026-05-01T14:59:52.643Z</time></trkpt><trkpt lat="43.4862038" lon="10.9747145"><ele>430.0</ele><time>2026-05-01T14:59:53.651Z</time></trkpt><trkpt lat="43.4861951" lon="10.9748878"><ele>430.25</ele><time>2026-05-01T14:59:54.646Z</time></trkpt><trkpt lat="43.4861978" lon="10.9750634"><ele>430.5</ele><time>2026-05-01T14:59:55.671Z</time></trkpt><trkpt lat="43.486206" lon="10.9752508"><ele>430.75</ele><time>2026-05-01T14:59:56.656Z</time></trkpt><trkpt lat="43.4862203" lon="10.975435"><ele>431.0</ele><time>2026-05-01T14:59:57.655Z</time></trkpt><trkpt lat="43.486248" lon="10.9756142"><ele>435.75</ele><time>2026-05-01T14:59:58.647Z</time></trkpt><trkpt lat="43.4862756" lon="10.975788"><ele>440.5</ele><time>2026-05-01T14:59:59.655Z</time></trkpt><trkpt lat="43.4863106" lon="10.9759611"><ele>445.25</ele><time>2026-05-01T15:00:00.648Z</time></trkpt><trkpt lat="43.4863444" lon="10.9761066"><ele>450.0</ele><time>2026-05-01T15:00:01.656Z</time></trkpt><trkpt lat="43.4863754" lon="10.9762528"><ele>450.0</ele><time>2026-05-01T15:00:02.65Z</time></trkpt><trkpt lat="43.4864105" lon="10.976401"><ele>450.0</ele><time>2026-05-01T15:00:03.651Z</time></trkpt><trkpt lat="43.4864495" lon="10.9765472"><ele>450.0</ele><time>2026-05-01T15:00:04.651Z</time></trkpt><trkpt lat="43.4864988" lon="10.9766891"><ele>450.0</ele><time>2026-05-01T15:00:05.653Z</time></trkpt><trkpt lat="43.4865567" lon="10.9768327"><ele>448.25</ele><time>2026-05-01T15:00:06.66Z</time></trkpt><trkpt lat="43.4866263" lon="10.9769679"><ele>446.5</ele><time>2026-05-01T15:00:07.651Z</time></trkpt><trkpt lat="43.4866963" lon="10.9771034"><ele>444.75</ele><time>2026-05-01T15:00:08.649Z</time></trkpt><trkpt lat="43.4867619" lon="10.977243"><ele>443.0</ele><time>2026-05-01T15:00:09.657Z</time></trkpt><trkpt lat="43.4868267" lon="10.9773891"><ele>442.75</ele><time>2026-05-01T15:00:10.663Z</time></trkpt><trkpt lat="43.4868891" lon="10.9775403"><ele>442.5</ele><time>2026-05-01T15:00:11.649Z</time></trkpt><trkpt lat="43.4869558" lon="10.9776768"><ele>442.25</ele><time>2026-05-01T15:00:12.655Z</time></trkpt><trkpt lat="43.487014" lon="10.9778139"><ele>442.0</ele><time>2026-05-01T15:00:13.648Z</time></trkpt><trkpt lat="43.4870856" lon="10.9779586"><ele>442.0</ele><time>2026-05-01T15:00:14.647Z</time></trkpt><trkpt lat="43.4871494" lon="10.9781093"><ele>442.0</ele><time>2026-05-01T15:00:15.645Z</time></trkpt><trkpt lat="43.4871889" lon="10.9782869"><ele>442.0</ele><time>2026-05-01T15:00:16.665Z</time></trkpt><trkpt lat="43.4871826" lon="10.9784568"><ele>442.0</ele><time>2026-05-01T15:00:17.661Z</time></trkpt><trkpt lat="43.4871327" lon="10.9786516"><ele>443.25</ele><time>2026-05-01T15:00:18.648Z</time></trkpt><trkpt lat="43.4870782" lon="10.9788248"><ele>444.5</ele><time>2026-05-01T15:00:19.673Z</time></trkpt><trkpt lat="43.4870141" lon="10.9789814"><ele>445.75</ele><time>2026-05-01T15:00:20.641Z</time></trkpt><trkpt lat="43.4869473" lon="10.9791308"><ele>447.0</ele><time>2026-05-01T15:00:21.647Z</time></trkpt><trkpt lat="43.4868871" lon="10.9792898"><ele>448.0</ele><time>2026-05-01T15:00:22.65Z</time></trkpt><trkpt lat="43.4868232" lon="10.9794491"><ele>449.0</ele><time>2026-05-01T15:00:23.666Z</time></trkpt><trkpt lat="43.4867618" lon="10.9796099"><ele>450.0</ele><time>2026-05-01T15:00:24.645Z</time></trkpt><trkpt lat="43.4867022" lon="10.9797778"><ele>451.0</ele><time>2026-05-01T15:00:25.656Z</time></trkpt><trkpt lat="43.4866575" lon="10.9799477"><ele>451.5</ele><time>2026-05-01T15:00:26.64Z</time></trkpt><trkpt lat="43.4866344" lon="10.9801272"><ele>452.0</ele><time>2026-05-01T15:00:27.655Z</time></trkpt><trkpt lat="43.4866403" lon="10.980318"><ele>452.5</ele><time>2026-05-01T15:00:28.64Z</time></trkpt><trkpt lat="43.4866653" lon="10.9805056"><ele>453.0</ele><time>2026-05-01T15:00:29.65Z</time></trkpt><trkpt lat="43.4867151" lon="10.9806773"><ele>454.0</ele><time>2026-05-01T15:00:30.65Z</time></trkpt><trkpt lat="43.4867711" lon="10.9808585"><ele>455.0</ele><time>2026-05-01T15:00:31.65Z</time></trkpt><trkpt lat="43.4868177" lon="10.9810423"><ele>456.0</ele><time>2026-05-01T15:00:32.649Z</time></trkpt><trkpt lat="43.4868572" lon="10.9812158"><ele>457.0</ele><time>2026-05-01T15:00:33.652Z</time></trkpt><trkpt lat="43.4868974" lon="10.9813829"><ele>457.0</ele><time>2026-05-01T15:00:34.644Z</time></trkpt><trkpt lat="43.4869396" lon="10.9815488"><ele>457.0</ele><time>2026-05-01T15:00:35.648Z</time></trkpt><trkpt lat="43.4869799" lon="10.9817136"><ele>457.0</ele><time>2026-05-01T15:00:36.642Z</time></trkpt><trkpt lat="43.4870168" lon="10.9818847"><ele>457.0</ele><time>2026-05-01T15:00:37.651Z</time></trkpt><trkpt lat="43.4870423" lon="10.982054"><ele>457.75</ele><time>2026-05-01T15:00:38.66Z</time></trkpt><trkpt lat="43.4870532" lon="10.9822367"><ele>458.5</ele><time>2026-05-01T15:00:39.656Z</time></trkpt><trkpt lat="43.4870479" lon="10.9824229"><ele>459.25</ele><time>2026-05-01T15:00:40.646Z</time></trkpt><trkpt lat="43.4870386" lon="10.9826109"><ele>460.0</ele><time>2026-05-01T15:00:41.648Z</time></trkpt><trkpt lat="43.4870326" lon="10.9828129"><ele>460.0</ele><time>2026-05-01T15:00:42.659Z</time></trkpt><trkpt lat="43.4870301" lon="10.9830095"><ele>460.0</ele><time>2026-05-01T15:00:43.65Z</time></trkpt><trkpt lat="43.4870241" lon="10.9832073"><ele>460.0</ele><time>2026-05-01T15:00:44.659Z</time></trkpt><trkpt lat="43.4870216" lon="10.9834049"><ele>460.0</ele><time>2026-05-01T15:00:45.659Z</time></trkpt><trkpt lat="43.4870289" lon="10.9835954"><ele>458.0</ele><time>2026-05-01T15:00:46.66Z</time></trkpt><trkpt lat="43.4870545" lon="10.9837687"><ele>456.0</ele><time>2026-05-01T15:00:47.647Z</time></trkpt><trkpt lat="43.4870915" lon="10.9839362"><ele>454.0</ele><time>2026-05-01T15:00:48.652Z</time></trkpt><trkpt lat="43.4871452" lon="10.984098"><ele>452.0</ele><time>2026-05-01T15:00:49.651Z</time></trkpt><trkpt lat="43.4872096" lon="10.9842663"><ele>451.3333333333333</ele><time>2026-05-01T15:00:50.668Z</time></trkpt><trkpt lat="43.4872839" lon="10.9844386"><ele>450.66666666666663</ele><time>2026-05-01T15:00:51.662Z</time></trkpt><trkpt lat="43.4873544" lon="10.9846227"><ele>450.0</ele><time>2026-05-01T15:00:52.652Z</time></trkpt><trkpt lat="43.4874243" lon="10.9848129"><ele>450.0</ele><time>2026-05-01T15:00:53.656Z</time></trkpt><trkpt lat="43.487494" lon="10.985006"><ele>450.0</ele><time>2026-05-01T15:00:54.644Z</time></trkpt><trkpt lat="43.4875644" lon="10.9851982"><ele>450.0</ele><time>2026-05-01T15:00:55.653Z</time></trkpt><trkpt lat="43.4876387" lon="10.9853873"><ele>449.75</ele><time>2026-05-01T15:00:56.671Z</time></trkpt><trkpt lat="43.4877147" lon="10.9855733"><ele>449.5</ele><time>2026-05-01T15:00:57.656Z</time></trkpt><trkpt lat="43.4877839" lon="10.9857582"><ele>449.25</ele><time>2026-05-01T15:00:58.663Z</time></trkpt><trkpt lat="43.4878437" lon="10.9859328"><ele>449.0</ele><time>2026-05-01T15:00:59.65Z</time></trkpt><trkpt lat="43.4878949" lon="10.9861025"><ele>448.5</ele><time>2026-05-01T15:01:00.644Z</time></trkpt><trkpt lat="43.4879283" lon="10.9862857"><ele>448.0</ele><time>2026-05-01T15:01:01.641Z</time></trkpt><trkpt lat="43.487956" lon="10.9864862"><ele>447.5</ele><time>2026-05-01T15:01:02.65Z</time></trkpt><trkpt lat="43.4879742" lon="10.9866775"><ele>447.0</ele><time>2026-05-01T15:01:03.648Z</time></trkpt><trkpt lat="43.4879904" lon="10.9868591"><ele>446.0</ele><time>2026-05-01T15:01:04.664Z</time></trkpt><trkpt lat="43.4880008" lon="10.9870478"><ele>445.0</ele><time>2026-05-01T15:01:05.652Z</time></trkpt><trkpt lat="43.4880103" lon="10.9872283"><ele>444.0</ele><time>2026-05-01T15:01:06.651Z</time></trkpt><trkpt lat="43.4880203" lon="10.9874022"><ele>443.0</ele><time>2026-05-01T15:01:07.663Z</time></trkpt><trkpt lat="43.4880185" lon="10.9875728"><ele>441.79999999999995</ele><time>2026-05-01T15:01:08.657Z</time></trkpt><trkpt lat="43.4879898" lon="10.9877387"><ele>440.59999999999997</ele><time>2026-05-01T15:01:09.647Z</time></trkpt><trkpt lat="43.4879411" lon="10.9878889"><ele>439.40000000000003</ele><time>2026-05-01T15:01:10.645Z</time></trkpt><trkpt lat="43.487903" lon="10.9880083"><ele>438.20000000000005</ele><time>2026-05-01T15:01:11.653Z</time></trkpt><trkpt lat="43.4878698" lon="10.9880951"><ele>437.0</ele><time>2026-05-01T15:01:12.647Z</time></trkpt><trkpt lat="43.487842" lon="10.9881812"><ele>436.49999999999994</ele><time>2026-05-01T15:01:13.65Z</time></trkpt><trkpt lat="43.4878106" lon="10.9882655"><ele>436.0</ele><time>2026-05-01T15:01:14.648Z</time></trkpt><trkpt lat="43.4877847" lon="10.9883595"><ele>435.5</ele><time>2026-05-01T15:01:15.649Z</time></trkpt><trkpt lat="43.4877618" lon="10.9884552"><ele>435.0</ele><time>2026-05-01T15:01:16.665Z</time></trkpt><trkpt lat="43.4877366" lon="10.9885565"><ele>434.49999999999994</ele><time>2026-05-01T15:01:17.649Z</time></trkpt><trkpt lat="43.4876971" lon="10.9886664"><ele>434.0</ele><time>2026-05-01T15:01:18.653Z</time></trkpt><trkpt lat="43.4876601" lon="10.9887864"><ele>433.6</ele><time>2026-05-01T15:01:19.661Z</time></trkpt><trkpt lat="43.4876271" lon="10.98891"><ele>433.2</ele><time>2026-05-01T15:01:20.663Z</time></trkpt><trkpt lat="43.4875929" lon="10.9890315"><ele>432.80000000000007</ele><time>2026-05-01T15:01:21.662Z</time></trkpt><trkpt lat="43.4875591" lon="10.989144"><ele>432.40000000000003</ele><time>2026-05-01T15:01:22.646Z</time></trkpt><trkpt lat="43.4875243" lon="10.9892601"><ele>432.0</ele><time>2026-05-01T15:01:23.651Z</time></trkpt><trkpt lat="43.487489" lon="10.9893824"><ele>430.40000000000003</ele><time>2026-05-01T15:01:24.646Z</time></trkpt><trkpt lat="43.4874504" lon="10.9895064"><ele>428.80000000000007</ele><time>2026-05-01T15:01:25.646Z</time></trkpt><trkpt lat="43.4874115" lon="10.9896291"><ele>427.2</ele><time>2026-05-01T15:01:26.648Z</time></trkpt><trkpt lat="43.487372" lon="10.9897531"><ele>425.6</ele><time>2026-05-01T15:01:27.656Z</time></trkpt><trkpt lat="43.4873306" lon="10.9898893"><ele>424.0</ele><time>2026-05-01T15:01:28.652Z</time></trkpt><trkpt lat="43.4872827" lon="10.9900393"><ele>421.5</ele><time>2026-05-01T15:01:29.651Z</time></trkpt><trkpt lat="43.4872349" lon="10.9902046"><ele>419.0</ele><time>2026-05-01T15:01:30.654Z</time></trkpt><trkpt lat="43.4871892" lon="10.9903771"><ele>416.5</ele><time>2026-05-01T15:01:31.647Z</time></trkpt><trkpt lat="43.4871407" lon="10.9905629"><ele>414.0</ele><time>2026-05-01T15:01:32.647Z</time></trkpt><trkpt lat="43.4871006" lon="10.9907643"><ele>413.0</ele><time>2026-05-01T15:01:33.643Z</time></trkpt><trkpt lat="43.4870552" lon="10.9909776"><ele>412.0</ele><time>2026-05-01T15:01:34.658Z</time></trkpt><trkpt lat="43.4870037" lon="10.9911904"><ele>411.0</ele><time>2026-05-01T15:01:35.652Z</time></trkpt><trkpt lat="43.4869523" lon="10.9914043"><ele>411.0</ele><time>2026-05-01T15:01:36.651Z</time></trkpt><trkpt lat="43.4869033" lon="10.9916164"><ele>411.0</ele><time>2026-05-01T15:01:37.652Z</time></trkpt><trkpt lat="43.4868591" lon="10.9918163"><ele>411.0</ele><time>2026-05-01T15:01:38.654Z</time></trkpt><trkpt lat="43.4868144" lon="10.9920137"><ele>410.75</ele><time>2026-05-01T15:01:39.659Z</time></trkpt><trkpt lat="43.4867734" lon="10.9922107"><ele>410.5</ele><time>2026-05-01T15:01:40.645Z</time></trkpt><trkpt lat="43.4867378" lon="10.9924012"><ele>410.25</ele><time>2026-05-01T15:01:41.654Z</time></trkpt><trkpt lat="43.4867063" lon="10.9925902"><ele>410.0</ele><time>2026-05-01T15:01:42.648Z</time></trkpt><trkpt lat="43.4866815" lon="10.9927863"><ele>409.75</ele><time>2026-05-01T15:01:43.652Z</time></trkpt><trkpt lat="43.4866658" lon="10.9929756"><ele>409.5</ele><time>2026-05-01T15:01:44.652Z</time></trkpt><trkpt lat="43.4866594" lon="10.9931757"><ele>409.25</ele><time>2026-05-01T15:01:45.649Z</time></trkpt><trkpt lat="43.4866501" lon="10.9933727"><ele>409.0</ele><time>2026-05-01T15:01:46.651Z</time></trkpt><trkpt lat="43.4866294" lon="10.993576"><ele>407.6666666666667</ele><time>2026-05-01T15:01:47.645Z</time></trkpt><trkpt lat="43.4866097" lon="10.9937847"><ele>406.33333333333337</ele><time>2026-05-01T15:01:48.657Z</time></trkpt><trkpt lat="43.4865996" lon="10.9939982"><ele>405.0</ele><time>2026-05-01T15:01:49.643Z</time></trkpt><trkpt lat="43.4865912" lon="10.9942137"><ele>403.75</ele><time>2026-05-01T15:01:50.65Z</time></trkpt><trkpt lat="43.4865779" lon="10.9944248"><ele>402.5</ele><time>2026-05-01T15:01:51.661Z</time></trkpt><trkpt lat="43.4865723" lon="10.9946277"><ele>401.25</ele><time>2026-05-01T15:01:52.65Z</time></trkpt><trkpt lat="43.4865755" lon="10.994815"><ele>400.0</ele><time>2026-05-01T15:01:53.657Z</time></trkpt><trkpt lat="43.4865975" lon="10.9949961"><ele>401.25</ele><time>2026-05-01T15:01:54.645Z</time></trkpt><trkpt lat="43.4866229" lon="10.9951708"><ele>402.5</ele><time>2026-05-01T15:01:55.644Z</time></trkpt><trkpt lat="43.4866578" lon="10.9953594"><ele>403.75</ele><time>2026-05-01T15:01:56.654Z</time></trkpt><trkpt lat="43.4867036" lon="10.9955382"><ele>405.0</ele><time>2026-05-01T15:01:57.645Z</time></trkpt><trkpt lat="43.486751" lon="10.9957128"><ele>404.5</ele><time>2026-05-01T15:01:58.661Z</time></trkpt><trkpt lat="43.4867905" lon="10.9958838"><ele>404.0</ele><time>2026-05-01T15:01:59.651Z</time></trkpt><trkpt lat="43.4868366" lon="10.996065"><ele>403.5</ele><time>2026-05-01T15:02:00.637Z</time></trkpt><trkpt lat="43.4868806" lon="10.996252"><ele>403.0</ele><time>2026-05-01T15:02:01.656Z</time></trkpt><trkpt lat="43.4869164" lon="10.9964499"><ele>403.0</ele><time>2026-05-01T15:02:02.643Z</time></trkpt><trkpt lat="43.4869322" lon="10.9966535"><ele>403.0</ele><time>2026-05-01T15:02:03.643Z</time></trkpt><trkpt lat="43.4869287" lon="10.9968641"><ele>403.0</ele><time>2026-05-01T15:02:04.658Z</time></trkpt><trkpt lat="43.4869083" lon="10.9970684"><ele>400.75</ele><time>2026-05-01T15:02:05.65Z</time></trkpt><trkpt lat="43.4868881" lon="10.9972567"><ele>398.5</ele><time>2026-05-01T15:02:06.645Z</time></trkpt><trkpt lat="43.4868685" lon="10.9974433"><ele>396.25</ele><time>2026-05-01T15:02:07.646Z</time></trkpt><trkpt lat="43.4868385" lon="10.9976187"><ele>394.0</ele><time>2026-05-01T15:02:08.647Z</time></trkpt><trkpt lat="43.4867962" lon="10.9977763"><ele>390.75</ele><time>2026-05-01T15:02:09.643Z</time></trkpt><trkpt lat="43.4867403" lon="10.9979254"><ele>387.5</ele><time>2026-05-01T15:02:10.651Z</time></trkpt><trkpt lat="43.4866752" lon="10.9980676"><ele>384.25</ele><time>2026-05-01T15:02:11.674Z</time></trkpt><trkpt lat="43.4866046" lon="10.9982011"><ele>381.0</ele><time>2026-05-01T15:02:12.649Z</time></trkpt><trkpt lat="43.4865276" lon="10.9983484"><ele>379.5</ele><time>2026-05-01T15:02:13.652Z</time></trkpt><trkpt lat="43.4864465" lon="10.9985076"><ele>378.0</ele><time>2026-05-01T15:02:14.65Z</time></trkpt><trkpt lat="43.4863629" lon="10.9986717"><ele>376.5</ele><time>2026-05-01T15:02:15.656Z</time></trkpt><trkpt lat="43.4862736" lon="10.9988428"><ele>375.0</ele><time>2026-05-01T15:02:16.646Z</time></trkpt><trkpt lat="43.4861783" lon="10.9990187"><ele>375.6666666666667</ele><time>2026-05-01T15:02:17.644Z</time></trkpt><trkpt lat="43.4860802" lon="10.9991904"><ele>376.33333333333337</ele><time>2026-05-01T15:02:18.654Z</time></trkpt><trkpt lat="43.4859861" lon="10.9993636"><ele>377.0</ele><time>2026-05-01T15:02:19.658Z</time></trkpt><trkpt lat="43.4858928" lon="10.9995347"><ele>377.0</ele><time>2026-05-01T15:02:20.646Z</time></trkpt><trkpt lat="43.4857938" lon="10.9997043"><ele>377.0</ele><time>2026-05-01T15:02:21.651Z</time></trkpt><trkpt lat="43.48569" lon="10.9998695"><ele>377.0</ele><time>2026-05-01T15:02:22.645Z</time></trkpt><trkpt lat="43.4855896" lon="11.0000268"><ele>377.0</ele><time>2026-05-01T15:02:23.647Z</time></trkpt><trkpt lat="43.4854768" lon="11.0001719"><ele>377.0</ele><time>2026-05-01T15:02:24.651Z</time></trkpt><trkpt lat="43.4853709" lon="11.0003211"><ele>377.0</ele><time>2026-05-01T15:02:25.649Z</time></trkpt><trkpt lat="43.4852665" lon="11.0004712"><ele>376.5</ele><time>2026-05-01T15:02:26.653Z</time></trkpt><trkpt lat="43.4851662" lon="11.0006168"><ele>376.0</ele><time>2026-05-01T15:02:27.646Z</time></trkpt><trkpt lat="43.4850707" lon="11.0007659"><ele>375.5</ele><time>2026-05-01T15:02:28.659Z</time></trkpt><trkpt lat="43.4849778" lon="11.000932"><ele>375.0</ele><time>2026-05-01T15:02:29.636Z</time></trkpt><trkpt lat="43.484892" lon="11.0011124"><ele>375.0</ele><time>2026-05-01T15:02:30.641Z</time></trkpt><trkpt lat="43.48482" lon="11.0012971"><ele>375.0</ele><time>2026-05-01T15:02:31.658Z</time></trkpt><trkpt lat="43.4847488" lon="11.0014817"><ele>375.0</ele><time>2026-05-01T15:02:32.653Z</time></trkpt><trkpt lat="43.4846765" lon="11.0016563"><ele>376.3333333333333</ele><time>2026-05-01T15:02:33.652Z</time></trkpt><trkpt lat="43.4846015" lon="11.0018373"><ele>377.66666666666663</ele><time>2026-05-01T15:02:34.655Z</time></trkpt><trkpt lat="43.4845256" lon="11.0020203"><ele>379.0</ele><time>2026-05-01T15:02:35.648Z</time></trkpt><trkpt lat="43.4844483" lon="11.0022066"><ele>375.0</ele><time>2026-05-01T15:02:36.64Z</time></trkpt><trkpt lat="43.4843704" lon="11.0023903"><ele>371.0</ele><time>2026-05-01T15:02:37.646Z</time></trkpt><trkpt lat="43.4842981" lon="11.0025738"><ele>367.0</ele><time>2026-05-01T15:02:38.657Z</time></trkpt><trkpt lat="43.4842259" lon="11.0027501"><ele>367.0</ele><time>2026-05-01T15:02:39.655Z</time></trkpt><trkpt lat="43.4841561" lon="11.0029207"><ele>367.0</ele><time>2026-05-01T15:02:40.659Z</time></trkpt><trkpt lat="43.4840915" lon="11.0030798"><ele>367.0</ele><time>2026-05-01T15:02:41.641Z</time></trkpt><trkpt lat="43.4840321" lon="11.0032359"><ele>367.0</ele><time>2026-05-01T15:02:42.64Z</time></trkpt><trkpt lat="43.4839742" lon="11.0033788"><ele>367.8</ele><time>2026-05-01T15:02:43.644Z</time></trkpt><trkpt lat="43.4839193" lon="11.003511"><ele>368.6</ele><time>2026-05-01T15:02:44.64Z</time></trkpt><trkpt lat="43.4838682" lon="11.0036333"><ele>369.40000000000003</ele><time>2026-05-01T15:02:45.641Z</time></trkpt><trkpt lat="43.4838213" lon="11.0037512"><ele>370.20000000000005</ele><time>2026-05-01T15:02:46.638Z</time></trkpt><trkpt lat="43.4837759" lon="11.0038694"><ele>371.0</ele><time>2026-05-01T15:02:47.645Z</time></trkpt><trkpt lat="43.4837313" lon="11.003989"><ele>366.75</ele><time>2026-05-01T15:02:48.642Z</time></trkpt><trkpt lat="43.4836822" lon="11.0041154"><ele>362.5</ele><time>2026-05-01T15:02:49.643Z</time></trkpt><trkpt lat="43.4836348" lon="11.0042548"><ele>358.25</ele><time>2026-05-01T15:02:50.642Z</time></trkpt><trkpt lat="43.4835784" lon="11.0044233"><ele>354.0</ele><time>2026-05-01T15:02:51.645Z</time></trkpt><trkpt lat="43.4835281" lon="11.0046085"><ele>354.0</ele><time>2026-05-01T15:02:52.645Z</time></trkpt><trkpt lat="43.4834803" lon="11.0048132"><ele>354.0</ele><time>2026-05-01T15:02:53.646Z</time></trkpt><trkpt lat="43.4834372" lon="11.0050326"><ele>354.0</ele><time>2026-05-01T15:02:54.65Z</time></trkpt><trkpt lat="43.4833935" lon="11.005252"><ele>355.3333333333333</ele><time>2026-05-01T15:02:55.669Z</time></trkpt><trkpt lat="43.4833528" lon="11.0054747"><ele>356.66666666666663</ele><time>2026-05-01T15:02:56.642Z</time></trkpt><trkpt lat="43.4833037" lon="11.0056965"><ele>358.0</ele><time>2026-05-01T15:02:57.646Z</time></trkpt><trkpt lat="43.483257" lon="11.0059146"><ele>358.3333333333333</ele><time>2026-05-01T15:02:58.65Z</time></trkpt><trkpt lat="43.4832118" lon="11.0061335"><ele>358.6666666666667</ele><time>2026-05-01T15:02:59.652Z</time></trkpt><trkpt lat="43.4831684" lon="11.0063491"><ele>359.0</ele><time>2026-05-01T15:03:00.65Z</time></trkpt><trkpt lat="43.4831253" lon="11.0065679"><ele>359.6666666666667</ele><time>2026-05-01T15:03:01.652Z</time></trkpt><trkpt lat="43.4830763" lon="11.0067783"><ele>360.3333333333333</ele><time>2026-05-01T15:03:02.664Z</time></trkpt><trkpt lat="43.4830123" lon="11.0069811"><ele>361.0</ele><time>2026-05-01T15:03:03.646Z</time></trkpt><trkpt lat="43.4829315" lon="11.007178"><ele>358.3333333333333</ele><time>2026-05-01T15:03:04.642Z</time></trkpt><trkpt lat="43.4828312" lon="11.0073628"><ele>355.6666666666667</ele><time>2026-05-01T15:03:05.665Z</time></trkpt><trkpt lat="43.4827179" lon="11.0075315"><ele>353.0</ele><time>2026-05-01T15:03:06.649Z</time></trkpt><trkpt lat="43.4825942" lon="11.0076731"><ele>353.0</ele><time>2026-05-01T15:03:07.668Z</time></trkpt><trkpt lat="43.482468" lon="11.0078132"><ele>353.0</ele><time>2026-05-01T15:03:08.646Z</time></trkpt><trkpt lat="43.4823515" lon="11.0079548"><ele>353.0</ele><time>2026-05-01T15:03:09.652Z</time></trkpt><trkpt lat="43.48224" lon="11.0081067"><ele>353.0</ele><time>2026-05-01T15:03:10.647Z</time></trkpt><trkpt lat="43.4821359" lon="11.0082736"><ele>353.0</ele><time>2026-05-01T15:03:11.659Z</time></trkpt><trkpt lat="43.4820343" lon="11.0084488"><ele>353.0</ele><time>2026-05-01T15:03:12.654Z</time></trkpt><trkpt lat="43.4819336" lon="11.0086262"><ele>350.0</ele><time>2026-05-01T15:03:13.645Z</time></trkpt><trkpt lat="43.4818373" lon="11.008796"><ele>347.0</ele><time>2026-05-01T15:03:14.645Z</time></trkpt><trkpt lat="43.4816537" lon="11.0091338"><ele>349.0</ele><time>2026-05-01T15:03:16.659Z</time></trkpt><trkpt lat="43.4815577" lon="11.0093068"><ele>351.0</ele><time>2026-05-01T15:03:17.664Z</time></trkpt><trkpt lat="43.4814664" lon="11.0094907"><ele>353.0</ele><time>2026-05-01T15:03:18.664Z</time></trkpt><trkpt lat="43.4813946" lon="11.0096869"><ele>353.0</ele><time>2026-05-01T15:03:19.645Z</time></trkpt><trkpt lat="43.4813332" lon="11.0098895"><ele>353.0</ele><time>2026-05-01T15:03:20.649Z</time></trkpt><trkpt lat="43.4812819" lon="11.010109"><ele>353.0</ele><time>2026-05-01T15:03:21.652Z</time></trkpt><trkpt lat="43.4812272" lon="11.0103221"><ele>349.6666666666667</ele><time>2026-05-01T15:03:22.667Z</time></trkpt><trkpt lat="43.4811698" lon="11.010532"><ele>346.3333333333333</ele><time>2026-05-01T15:03:23.648Z</time></trkpt><trkpt lat="43.4811165" lon="11.0107307"><ele>343.0</ele><time>2026-05-01T15:03:24.659Z</time></trkpt><trkpt lat="43.4810678" lon="11.0109163"><ele>342.5</ele><time>2026-05-01T15:03:25.657Z</time></trkpt><trkpt lat="43.4810204" lon="11.0110924"><ele>342.0</ele><time>2026-05-01T15:03:26.659Z</time></trkpt><trkpt lat="43.4809731" lon="11.011258"><ele>341.5</ele><time>2026-05-01T15:03:27.653Z</time></trkpt><trkpt lat="43.4809292" lon="11.0114198"><ele>341.0</ele><time>2026-05-01T15:03:28.661Z</time></trkpt><trkpt lat="43.480885" lon="11.0115758"><ele>340.4</ele><time>2026-05-01T15:03:29.651Z</time></trkpt><trkpt lat="43.480847" lon="11.0117236"><ele>339.8</ele><time>2026-05-01T15:03:30.657Z</time></trkpt><trkpt lat="43.4808096" lon="11.0118665"><ele>339.2</ele><time>2026-05-01T15:03:31.665Z</time></trkpt><trkpt lat="43.4807694" lon="11.0120015"><ele>338.59999999999997</ele><time>2026-05-01T15:03:32.659Z</time></trkpt><trkpt lat="43.480733" lon="11.0121256"><ele>338.0</ele><time>2026-05-01T15:03:33.65Z</time></trkpt><trkpt lat="43.4806992" lon="11.0122488"><ele>338.0</ele><time>2026-05-01T15:03:34.669Z</time></trkpt><trkpt lat="43.4806699" lon="11.012359"><ele>338.0</ele><time>2026-05-01T15:03:35.647Z</time></trkpt><trkpt lat="43.4806463" lon="11.0124574"><ele>338.0</ele><time>2026-05-01T15:03:36.65Z</time></trkpt><trkpt lat="43.4806226" lon="11.012553"><ele>338.0</ele><time>2026-05-01T15:03:37.659Z</time></trkpt><trkpt lat="43.4805982" lon="11.0126377"><ele>338.0</ele><time>2026-05-01T15:03:38.668Z</time></trkpt><trkpt lat="43.4805759" lon="11.0127196"><ele>338.0</ele><time>2026-05-01T15:03:39.642Z</time></trkpt><trkpt lat="43.4805317" lon="11.0128794"><ele>338.4</ele><time>2026-05-01T15:03:41.633Z</time></trkpt><trkpt lat="43.4804928" lon="11.0130231"><ele>338.79999999999995</ele><time>2026-05-01T15:03:43.651Z</time></trkpt><trkpt lat="43.4804668" lon="11.0131685"><ele>339.2</ele><time>2026-05-01T15:03:45.653Z</time></trkpt><trkpt lat="43.4804383" lon="11.0133073"><ele>339.6</ele><time>2026-05-01T15:03:47.658Z</time></trkpt><trkpt lat="43.4804219" lon="11.0133986"><ele>340.0</ele><time>2026-05-01T15:03:49.646Z</time></trkpt><trkpt lat="43.4804008" lon="11.0135021"><ele>324.0</ele><time>2026-05-01T15:03:52.654Z</time></trkpt><trkpt lat="43.4798125" lon="11.0133371"><ele>324.0</ele><time>2026-05-01T15:07:54.314Z</time></trkpt><trkpt lat="43.4797714" lon="11.0134871"><ele>324.0</ele><time>2026-05-01T15:08:00.4Z</time></trkpt><trkpt lat="43.4804506" lon="11.0135669"><ele>324.0</ele><time>2026-05-01T15:14:35.608Z</time></trkpt><trkpt lat="43.4803953" lon="11.0135155"><ele>324.0</ele><time>2026-05-01T15:15:23.614Z</time></trkpt><trkpt lat="43.4802113" lon="11.0135517"><ele>324.0</ele><time>2026-05-01T15:19:06.625Z</time></trkpt><trkpt lat="43.4804086" lon="11.0135679"><ele>324.0</ele><time>2026-05-01T15:19:09.595Z</time></trkpt><trkpt lat="43.4804176" lon="11.01367"><ele>324.0</ele><time>2026-05-01T15:19:42.631Z</time></trkpt><trkpt lat="43.4804286" lon="11.0137565"><ele>324.0</ele><time>2026-05-01T15:19:43.616Z</time></trkpt><trkpt lat="43.4804403" lon="11.0138597"><ele>324.0</ele><time>2026-05-01T15:19:44.625Z</time></trkpt><trkpt lat="43.4804409" lon="11.0139742"><ele>324.0</ele><time>2026-05-01T15:19:45.633Z</time></trkpt><trkpt lat="43.4804452" lon="11.0141021"><ele>324.0</ele><time>2026-05-01T15:19:46.621Z</time></trkpt><trkpt lat="43.4804515" lon="11.0142284"><ele>325.4</ele><time>2026-05-01T15:19:47.622Z</time></trkpt><trkpt lat="43.4804576" lon="11.0143662"><ele>326.79999999999995</ele><time>2026-05-01T15:19:48.626Z</time></trkpt><trkpt lat="43.4804591" lon="11.0145114"><ele>328.20000000000005</ele><time>2026-05-01T15:19:49.611Z</time></trkpt><trkpt lat="43.4804615" lon="11.0146635"><ele>329.6</ele><time>2026-05-01T15:19:50.621Z</time></trkpt><trkpt lat="43.4804641" lon="11.0148133"><ele>331.0</ele><time>2026-05-01T15:19:51.619Z</time></trkpt><trkpt lat="43.4804684" lon="11.0149421"><ele>329.8333333333333</ele><time>2026-05-01T15:19:52.621Z</time></trkpt><trkpt lat="43.4804727" lon="11.0150638"><ele>328.66666666666663</ele><time>2026-05-01T15:19:53.615Z</time></trkpt><trkpt lat="43.4804734" lon="11.0151725"><ele>327.5</ele><time>2026-05-01T15:19:54.613Z</time></trkpt><trkpt lat="43.4804622" lon="11.0152739"><ele>326.3333333333333</ele><time>2026-05-01T15:19:55.614Z</time></trkpt><trkpt lat="43.4804412" lon="11.0153741"><ele>325.1666666666667</ele><time>2026-05-01T15:19:56.608Z</time></trkpt><trkpt lat="43.4804187" lon="11.0154699"><ele>324.0</ele><time>2026-05-01T15:19:57.626Z</time></trkpt><trkpt lat="43.480386" lon="11.0155733"><ele>322.0</ele><time>2026-05-01T15:19:58.613Z</time></trkpt><trkpt lat="43.4803447" lon="11.0156812"><ele>320.0</ele><time>2026-05-01T15:19:59.611Z</time></trkpt><trkpt lat="43.4802862" lon="11.0158079"><ele>318.0</ele><time>2026-05-01T15:20:00.627Z</time></trkpt><trkpt lat="43.4802219" lon="11.0159383"><ele>316.0</ele><time>2026-05-01T15:20:01.628Z</time></trkpt><trkpt lat="43.4801487" lon="11.0160701"><ele>314.0</ele><time>2026-05-01T15:20:02.62Z</time></trkpt><trkpt lat="43.4800746" lon="11.016197"><ele>313.25</ele><time>2026-05-01T15:20:03.612Z</time></trkpt><trkpt lat="43.4800055" lon="11.0163244"><ele>312.5</ele><time>2026-05-01T15:20:04.616Z</time></trkpt><trkpt lat="43.4799322" lon="11.0164438"><ele>311.75</ele><time>2026-05-01T15:20:05.617Z</time></trkpt><trkpt lat="43.4798583" lon="11.0165684"><ele>311.0</ele><time>2026-05-01T15:20:06.615Z</time></trkpt><trkpt lat="43.4797795" lon="11.0166872"><ele>310.0</ele><time>2026-05-01T15:20:07.615Z</time></trkpt><trkpt lat="43.4797025" lon="11.0168061"><ele>309.0</ele><time>2026-05-01T15:20:08.623Z</time></trkpt><trkpt lat="43.4796202" lon="11.016924"><ele>308.0</ele><time>2026-05-01T15:20:09.617Z</time></trkpt><trkpt lat="43.4795319" lon="11.0170382"><ele>307.0</ele><time>2026-05-01T15:20:10.635Z</time></trkpt><trkpt lat="43.4794354" lon="11.0171611"><ele>306.5</ele><time>2026-05-01T15:20:11.63Z</time></trkpt><trkpt lat="43.4793441" lon="11.0172848"><ele>306.0</ele><time>2026-05-01T15:20:12.619Z</time></trkpt><trkpt lat="43.4792501" lon="11.01741"><ele>305.5</ele><time>2026-05-01T15:20:13.613Z</time></trkpt><trkpt lat="43.4791548" lon="11.0175287"><ele>305.0</ele><time>2026-05-01T15:20:14.621Z</time></trkpt><trkpt lat="43.4790561" lon="11.0176505"><ele>305.0</ele><time>2026-05-01T15:20:15.62Z</time></trkpt><trkpt lat="43.478956" lon="11.017784"><ele>305.0</ele><time>2026-05-01T15:20:16.612Z</time></trkpt><trkpt lat="43.4788598" lon="11.0179275"><ele>305.0</ele><time>2026-05-01T15:20:17.603Z</time></trkpt><trkpt lat="43.4787664" lon="11.0180743"><ele>305.0</ele><time>2026-05-01T15:20:18.617Z</time></trkpt><trkpt lat="43.4786815" lon="11.0182404"><ele>304.6666666666667</ele><time>2026-05-01T15:20:19.619Z</time></trkpt><trkpt lat="43.4785995" lon="11.0184191"><ele>304.3333333333333</ele><time>2026-05-01T15:20:20.612Z</time></trkpt><trkpt lat="43.4785244" lon="11.0186042"><ele>304.0</ele><time>2026-05-01T15:20:21.615Z</time></trkpt><trkpt lat="43.4784454" lon="11.0187927"><ele>304.0</ele><time>2026-05-01T15:20:22.614Z</time></trkpt><trkpt lat="43.4783695" lon="11.0189671"><ele>304.0</ele><time>2026-05-01T15:20:23.621Z</time></trkpt><trkpt lat="43.4782977" lon="11.0191434"><ele>304.0</ele><time>2026-05-01T15:20:24.618Z</time></trkpt><trkpt lat="43.4782303" lon="11.0193054"><ele>304.0</ele><time>2026-05-01T15:20:25.616Z</time></trkpt><trkpt lat="43.4781682" lon="11.019461"><ele>303.75</ele><time>2026-05-01T15:20:26.625Z</time></trkpt><trkpt lat="43.4781108" lon="11.0196086"><ele>303.5</ele><time>2026-05-01T15:20:27.605Z</time></trkpt><trkpt lat="43.4780613" lon="11.0197558"><ele>303.25</ele><time>2026-05-01T15:20:28.613Z</time></trkpt><trkpt lat="43.478036" lon="11.0199142"><ele>303.0</ele><time>2026-05-01T15:20:29.613Z</time></trkpt><trkpt lat="43.4780199" lon="11.0200675"><ele>302.0</ele><time>2026-05-01T15:20:30.626Z</time></trkpt><trkpt lat="43.4780074" lon="11.0202188"><ele>301.0</ele><time>2026-05-01T15:20:31.61Z</time></trkpt><trkpt lat="43.4779996" lon="11.0203628"><ele>300.0</ele><time>2026-05-01T15:20:32.62Z</time></trkpt><trkpt lat="43.4779925" lon="11.0205042"><ele>299.0</ele><time>2026-05-01T15:20:33.613Z</time></trkpt><trkpt lat="43.4779869" lon="11.0206543"><ele>298.0</ele><time>2026-05-01T15:20:34.605Z</time></trkpt><trkpt lat="43.4779854" lon="11.0208238"><ele>296.25</ele><time>2026-05-01T15:20:35.624Z</time></trkpt><trkpt lat="43.4779916" lon="11.0210089"><ele>294.5</ele><time>2026-05-01T15:20:36.625Z</time></trkpt><trkpt lat="43.4779973" lon="11.0212132"><ele>292.75</ele><time>2026-05-01T15:20:37.632Z</time></trkpt><trkpt lat="43.478011" lon="11.0214264"><ele>291.0</ele><time>2026-05-01T15:20:38.618Z</time></trkpt><trkpt lat="43.4780128" lon="11.0216483"><ele>290.0</ele><time>2026-05-01T15:20:39.63Z</time></trkpt><trkpt lat="43.4780048" lon="11.0218808"><ele>289.0</ele><time>2026-05-01T15:20:40.621Z</time></trkpt><trkpt lat="43.4779913" lon="11.0221237"><ele>288.0</ele><time>2026-05-01T15:20:41.62Z</time></trkpt><trkpt lat="43.4779718" lon="11.0223741"><ele>288.0</ele><time>2026-05-01T15:20:42.606Z</time></trkpt><trkpt lat="43.4779459" lon="11.0226304"><ele>288.0</ele><time>2026-05-01T15:20:43.623Z</time></trkpt><trkpt lat="43.477924" lon="11.0228752"><ele>288.0</ele><time>2026-05-01T15:20:44.625Z</time></trkpt><trkpt lat="43.4778809" lon="11.0231025"><ele>286.0</ele><time>2026-05-01T15:20:45.612Z</time></trkpt><trkpt lat="43.4778077" lon="11.0233238"><ele>284.0</ele><time>2026-05-01T15:20:46.626Z</time></trkpt><trkpt lat="43.4777288" lon="11.0235442"><ele>282.0</ele><time>2026-05-01T15:20:47.623Z</time></trkpt><trkpt lat="43.4776528" lon="11.0237598"><ele>282.0</ele><time>2026-05-01T15:20:48.63Z</time></trkpt><trkpt lat="43.4775763" lon="11.0239731"><ele>282.0</ele><time>2026-05-01T15:20:49.614Z</time></trkpt><trkpt lat="43.4775013" lon="11.024188"><ele>282.0</ele><time>2026-05-01T15:20:50.632Z</time></trkpt><trkpt lat="43.4774281" lon="11.0243951"><ele>282.6666666666667</ele><time>2026-05-01T15:20:51.625Z</time></trkpt><trkpt lat="43.4773547" lon="11.0246014"><ele>283.33333333333337</ele><time>2026-05-01T15:20:52.613Z</time></trkpt><trkpt lat="43.4772857" lon="11.0248032"><ele>284.0</ele><time>2026-05-01T15:20:53.623Z</time></trkpt><trkpt lat="43.4772178" lon="11.0249938"><ele>285.33333333333337</ele><time>2026-05-01T15:20:54.618Z</time></trkpt><trkpt lat="43.4771466" lon="11.0251811"><ele>286.6666666666667</ele><time>2026-05-01T15:20:55.635Z</time></trkpt><trkpt lat="43.4770767" lon="11.0253733"><ele>288.0</ele><time>2026-05-01T15:20:56.619Z</time></trkpt><trkpt lat="43.4770119" lon="11.025569"><ele>285.6666666666667</ele><time>2026-05-01T15:20:57.628Z</time></trkpt><trkpt lat="43.4769551" lon="11.0257782"><ele>283.33333333333337</ele><time>2026-05-01T15:20:58.625Z</time></trkpt><trkpt lat="43.4769172" lon="11.0260065"><ele>281.0</ele><time>2026-05-01T15:20:59.62Z</time></trkpt><trkpt lat="43.4768849" lon="11.0262534"><ele>281.0</ele><time>2026-05-01T15:21:00.624Z</time></trkpt><trkpt lat="43.4768626" lon="11.0265034"><ele>281.0</ele><time>2026-05-01T15:21:01.619Z</time></trkpt><trkpt lat="43.4768378" lon="11.0267405"><ele>281.0</ele><time>2026-05-01T15:21:02.606Z</time></trkpt><trkpt lat="43.4768187" lon="11.0269689"><ele>279.33333333333337</ele><time>2026-05-01T15:21:03.613Z</time></trkpt><trkpt lat="43.4767897" lon="11.0271852"><ele>277.6666666666667</ele><time>2026-05-01T15:21:04.617Z</time></trkpt><trkpt lat="43.4767577" lon="11.027396"><ele>276.0</ele><time>2026-05-01T15:21:05.612Z</time></trkpt><trkpt lat="43.4767259" lon="11.0275984"><ele>274.5</ele><time>2026-05-01T15:21:06.613Z</time></trkpt><trkpt lat="43.4766981" lon="11.0277948"><ele>273.0</ele><time>2026-05-01T15:21:07.609Z</time></trkpt><trkpt lat="43.4766761" lon="11.0279849"><ele>271.5</ele><time>2026-05-01T15:21:08.611Z</time></trkpt><trkpt lat="43.4766523" lon="11.0281626"><ele>270.0</ele><time>2026-05-01T15:21:09.621Z</time></trkpt><trkpt lat="43.4766313" lon="11.0283366"><ele>269.0</ele><time>2026-05-01T15:21:10.614Z</time></trkpt><trkpt lat="43.4766028" lon="11.0284888"><ele>268.0</ele><time>2026-05-01T15:21:11.622Z</time></trkpt><trkpt lat="43.4765669" lon="11.0286167"><ele>267.0</ele><time>2026-05-01T15:21:12.615Z</time></trkpt><trkpt lat="43.476515" lon="11.0287343"><ele>266.0</ele><time>2026-05-01T15:21:13.617Z</time></trkpt><trkpt lat="43.4764487" lon="11.0288231"><ele>265.0</ele><time>2026-05-01T15:21:14.611Z</time></trkpt><trkpt lat="43.4763863" lon="11.0289256"><ele>265.0</ele><time>2026-05-01T15:21:15.619Z</time></trkpt><trkpt lat="43.4763437" lon="11.0290661"><ele>265.0</ele><time>2026-05-01T15:21:16.626Z</time></trkpt><trkpt lat="43.476301" lon="11.0292203"><ele>265.0</ele><time>2026-05-01T15:21:17.619Z</time></trkpt><trkpt lat="43.4762302" lon="11.0293878"><ele>265.0</ele><time>2026-05-01T15:21:18.611Z</time></trkpt><trkpt lat="43.4761145" lon="11.029556"><ele>263.3333333333333</ele><time>2026-05-01T15:21:19.612Z</time></trkpt><trkpt lat="43.475982" lon="11.0296889"><ele>261.6666666666667</ele><time>2026-05-01T15:21:20.623Z</time></trkpt><trkpt lat="43.4758461" lon="11.0297995"><ele>260.0</ele><time>2026-05-01T15:21:21.612Z</time></trkpt><trkpt lat="43.4757142" lon="11.0299229"><ele>260.75</ele><time>2026-05-01T15:21:22.618Z</time></trkpt><trkpt lat="43.4755862" lon="11.030039"><ele>261.5</ele><time>2026-05-01T15:21:23.619Z</time></trkpt><trkpt lat="43.4754658" lon="11.0301539"><ele>262.25</ele><time>2026-05-01T15:21:24.614Z</time></trkpt><trkpt lat="43.4753565" lon="11.0302582"><ele>263.0</ele><time>2026-05-01T15:21:25.619Z</time></trkpt><trkpt lat="43.4752539" lon="11.0303562"><ele>264.25</ele><time>2026-05-01T15:21:26.623Z</time></trkpt><trkpt lat="43.4751567" lon="11.0304518"><ele>265.5</ele><time>2026-05-01T15:21:27.623Z</time></trkpt><trkpt lat="43.4750537" lon="11.0305448"><ele>266.75</ele><time>2026-05-01T15:21:28.614Z</time></trkpt><trkpt lat="43.4749489" lon="11.0306374"><ele>268.0</ele><time>2026-05-01T15:21:29.61Z</time></trkpt><trkpt lat="43.4748441" lon="11.0307364"><ele>267.0</ele><time>2026-05-01T15:21:30.629Z</time></trkpt><trkpt lat="43.4747348" lon="11.0308298"><ele>266.0</ele><time>2026-05-01T15:21:31.6Z</time></trkpt><trkpt lat="43.4746193" lon="11.0309236"><ele>265.0</ele><time>2026-05-01T15:21:32.617Z</time></trkpt><trkpt lat="43.4745" lon="11.0310065"><ele>264.0</ele><time>2026-05-01T15:21:33.63Z</time></trkpt><trkpt lat="43.4743752" lon="11.0310877"><ele>264.0</ele><time>2026-05-01T15:21:34.627Z</time></trkpt><trkpt lat="43.4742559" lon="11.0311579"><ele>264.0</ele><time>2026-05-01T15:21:35.636Z</time></trkpt><trkpt lat="43.4741431" lon="11.0312324"><ele>264.0</ele><time>2026-05-01T15:21:36.625Z</time></trkpt><trkpt lat="43.4740405" lon="11.0313027"><ele>264.0</ele><time>2026-05-01T15:21:37.628Z</time></trkpt><trkpt lat="43.4739347" lon="11.0313561"><ele>264.0</ele><time>2026-05-01T15:21:38.613Z</time></trkpt><trkpt lat="43.4738377" lon="11.0314192"><ele>264.0</ele><time>2026-05-01T15:21:39.616Z</time></trkpt><trkpt lat="43.4737341" lon="11.0314832"><ele>264.0</ele><time>2026-05-01T15:21:40.613Z</time></trkpt><trkpt lat="43.4736245" lon="11.0315478"><ele>264.0</ele><time>2026-05-01T15:21:41.619Z</time></trkpt><trkpt lat="43.4735176" lon="11.031616"><ele>263.4</ele><time>2026-05-01T15:21:42.615Z</time></trkpt><trkpt lat="43.4734138" lon="11.0316748"><ele>262.79999999999995</ele><time>2026-05-01T15:21:43.625Z</time></trkpt><trkpt lat="43.4733266" lon="11.0317219"><ele>262.20000000000005</ele><time>2026-05-01T15:21:44.621Z</time></trkpt><trkpt lat="43.4732415" lon="11.0317764"><ele>261.6</ele><time>2026-05-01T15:21:45.614Z</time></trkpt><trkpt lat="43.4731558" lon="11.0318229"><ele>261.0</ele><time>2026-05-01T15:21:46.614Z</time></trkpt><trkpt lat="43.4730743" lon="11.0318714"><ele>261.0</ele><time>2026-05-01T15:21:47.603Z</time></trkpt><trkpt lat="43.4730057" lon="11.03192"><ele>261.0</ele><time>2026-05-01T15:21:48.633Z</time></trkpt><trkpt lat="43.4729439" lon="11.0319657"><ele>261.0</ele><time>2026-05-01T15:21:49.621Z</time></trkpt><trkpt lat="43.4728415" lon="11.0320241"><ele>261.0</ele><time>2026-05-01T15:21:51.618Z</time></trkpt><trkpt lat="43.4727512" lon="11.0320889"><ele>261.0</ele><time>2026-05-01T15:21:53.625Z</time></trkpt><trkpt lat="43.4726945" lon="11.0321278"><ele>261.0</ele><time>2026-05-01T15:21:54.622Z</time></trkpt><trkpt lat="43.472636" lon="11.0321688"><ele>260.3333333333333</ele><time>2026-05-01T15:21:55.619Z</time></trkpt><trkpt lat="43.4725758" lon="11.0322001"><ele>259.6666666666667</ele><time>2026-05-01T15:21:56.619Z</time></trkpt><trkpt lat="43.4725149" lon="11.032231"><ele>259.0</ele><time>2026-05-01T15:21:57.623Z</time></trkpt><trkpt lat="43.4724149" lon="11.0322858"><ele>258.33333333333337</ele><time>2026-05-01T15:21:59.62Z</time></trkpt><trkpt lat="43.4723429" lon="11.032322"><ele>257.6666666666667</ele><time>2026-05-01T15:22:01.621Z</time></trkpt><trkpt lat="43.4722632" lon="11.0323623"><ele>257.0</ele><time>2026-05-01T15:22:04.62Z</time></trkpt><trkpt lat="43.4721839" lon="11.0324107"><ele>258.5</ele><time>2026-05-01T15:22:14.615Z</time></trkpt><trkpt lat="43.4720814" lon="11.0324758"><ele>260.0</ele><time>2026-05-01T15:22:16.618Z</time></trkpt><trkpt lat="43.4719783" lon="11.0325464"><ele>261.5</ele><time>2026-05-01T15:22:18.62Z</time></trkpt><trkpt lat="43.4719191" lon="11.0325903"><ele>263.0</ele><time>2026-05-01T15:22:19.614Z</time></trkpt><trkpt lat="43.471861" lon="11.0326391"><ele>264.5</ele><time>2026-05-01T15:22:20.614Z</time></trkpt><trkpt lat="43.4718058" lon="11.0326852"><ele>266.0</ele><time>2026-05-01T15:22:21.614Z</time></trkpt><trkpt lat="43.4717515" lon="11.0327469"><ele>266.0</ele><time>2026-05-01T15:22:22.606Z</time></trkpt><trkpt lat="43.4716935" lon="11.0328033"><ele>266.0</ele><time>2026-05-01T15:22:23.613Z</time></trkpt><trkpt lat="43.4716353" lon="11.0328818"><ele>266.0</ele><time>2026-05-01T15:22:24.607Z</time></trkpt><trkpt lat="43.4715762" lon="11.0329639"><ele>266.0</ele><time>2026-05-01T15:22:25.618Z</time></trkpt><trkpt lat="43.4715127" lon="11.0330519"><ele>266.0</ele><time>2026-05-01T15:22:26.619Z</time></trkpt><trkpt lat="43.4714561" lon="11.0331423"><ele>266.0</ele><time>2026-05-01T15:22:27.615Z</time></trkpt><trkpt lat="43.4714068" lon="11.033247"><ele>265.33333333333337</ele><time>2026-05-01T15:22:28.621Z</time></trkpt><trkpt lat="43.4713674" lon="11.0333612"><ele>264.6666666666667</ele><time>2026-05-01T15:22:29.62Z</time></trkpt><trkpt lat="43.4713284" lon="11.0334801"><ele>264.0</ele><time>2026-05-01T15:22:30.617Z</time></trkpt><trkpt lat="43.4712991" lon="11.0336058"><ele>263.3333333333333</ele><time>2026-05-01T15:22:31.618Z</time></trkpt><trkpt lat="43.4712756" lon="11.0337162"><ele>262.66666666666663</ele><time>2026-05-01T15:22:32.618Z</time></trkpt><trkpt lat="43.4712533" lon="11.0338202"><ele>262.0</ele><time>2026-05-01T15:22:33.62Z</time></trkpt><trkpt lat="43.4712334" lon="11.0339243"><ele>263.0</ele><time>2026-05-01T15:22:34.611Z</time></trkpt><trkpt lat="43.4712161" lon="11.0340461"><ele>264.0</ele><time>2026-05-01T15:22:35.612Z</time></trkpt><trkpt lat="43.4711948" lon="11.034191"><ele>265.0</ele><time>2026-05-01T15:22:36.613Z</time></trkpt><trkpt lat="43.4711778" lon="11.0343698"><ele>266.0</ele><time>2026-05-01T15:22:37.618Z</time></trkpt><trkpt lat="43.471171" lon="11.0345309"><ele>267.0</ele><time>2026-05-01T15:22:38.61Z</time></trkpt><trkpt lat="43.4711633" lon="11.0346864"><ele>267.0</ele><time>2026-05-01T15:22:39.613Z</time></trkpt><trkpt lat="43.4711606" lon="11.0348379"><ele>267.0</ele><time>2026-05-01T15:22:40.606Z</time></trkpt><trkpt lat="43.4711593" lon="11.0349833"><ele>267.0</ele><time>2026-05-01T15:22:41.617Z</time></trkpt><trkpt lat="43.4711615" lon="11.0351164"><ele>267.0</ele><time>2026-05-01T15:22:42.615Z</time></trkpt><trkpt lat="43.4711655" lon="11.0352455"><ele>267.0</ele><time>2026-05-01T15:22:43.611Z</time></trkpt><trkpt lat="43.4711694" lon="11.0353736"><ele>267.1666666666667</ele><time>2026-05-01T15:22:44.616Z</time></trkpt><trkpt lat="43.4711728" lon="11.035504"><ele>267.3333333333333</ele><time>2026-05-01T15:22:45.611Z</time></trkpt><trkpt lat="43.471174" lon="11.0356323"><ele>267.5</ele><time>2026-05-01T15:22:46.619Z</time></trkpt><trkpt lat="43.4711752" lon="11.0357532"><ele>267.66666666666663</ele><time>2026-05-01T15:22:47.632Z</time></trkpt><trkpt lat="43.4711793" lon="11.0358662"><ele>267.8333333333333</ele><time>2026-05-01T15:22:48.624Z</time></trkpt><trkpt lat="43.4711835" lon="11.0359728"><ele>268.0</ele><time>2026-05-01T15:22:49.612Z</time></trkpt><trkpt lat="43.4711852" lon="11.0360648"><ele>268.66666666666663</ele><time>2026-05-01T15:22:50.622Z</time></trkpt><trkpt lat="43.4711826" lon="11.0362226"><ele>269.3333333333333</ele><time>2026-05-01T15:22:52.621Z</time></trkpt><trkpt lat="43.4711772" lon="11.0363403"><ele>270.0</ele><time>2026-05-01T15:22:54.596Z</time></trkpt><trkpt lat="43.4711771" lon="11.0364283"><ele>270.6666666666667</ele><time>2026-05-01T15:22:56.605Z</time></trkpt><trkpt lat="43.4711775" lon="11.0365423"><ele>271.33333333333337</ele><time>2026-05-01T15:22:58.617Z</time></trkpt><trkpt lat="43.4711728" lon="11.0366438"><ele>272.0</ele><time>2026-05-01T15:22:59.608Z</time></trkpt><trkpt lat="43.4711573" lon="11.0367362"><ele>272.1666666666667</ele><time>2026-05-01T15:23:00.607Z</time></trkpt><trkpt lat="43.4711624" lon="11.0368342"><ele>272.33333333333337</ele><time>2026-05-01T15:23:01.617Z</time></trkpt><trkpt lat="43.4711601" lon="11.0369573"><ele>272.5</ele><time>2026-05-01T15:23:02.613Z</time></trkpt><trkpt lat="43.4711575" lon="11.0370764"><ele>272.6666666666667</ele><time>2026-05-01T15:23:03.611Z</time></trkpt><trkpt lat="43.4711479" lon="11.0371796"><ele>272.8333333333333</ele><time>2026-05-01T15:23:04.614Z</time></trkpt><trkpt lat="43.4711476" lon="11.0372789"><ele>273.0</ele><time>2026-05-01T15:23:05.609Z</time></trkpt><trkpt lat="43.4711548" lon="11.0373794"><ele>273.0</ele><time>2026-05-01T15:23:06.619Z</time></trkpt><trkpt lat="43.4711628" lon="11.0374764"><ele>273.0</ele><time>2026-05-01T15:23:07.612Z</time></trkpt><trkpt lat="43.4711698" lon="11.0375722"><ele>273.0</ele><time>2026-05-01T15:23:08.624Z</time></trkpt><trkpt lat="43.4711679" lon="11.0376699"><ele>273.0</ele><time>2026-05-01T15:23:09.617Z</time></trkpt><trkpt lat="43.4711697" lon="11.0377746"><ele>273.0</ele><time>2026-05-01T15:23:10.615Z</time></trkpt><trkpt lat="43.4711746" lon="11.0378834"><ele>273.0</ele><time>2026-05-01T15:23:11.627Z</time></trkpt><trkpt lat="43.4711833" lon="11.0379923"><ele>273.0</ele><time>2026-05-01T15:23:12.618Z</time></trkpt><trkpt lat="43.4711879" lon="11.0380867"><ele>273.0</ele><time>2026-05-01T15:23:13.619Z</time></trkpt><trkpt lat="43.4711975" lon="11.0381798"><ele>273.0</ele><time>2026-05-01T15:23:14.619Z</time></trkpt><trkpt lat="43.4712111" lon="11.0382713"><ele>273.0</ele><time>2026-05-01T15:23:15.626Z</time></trkpt><trkpt lat="43.471229" lon="11.0383643"><ele>273.0</ele><time>2026-05-01T15:23:16.622Z</time></trkpt><trkpt lat="43.4712453" lon="11.0384658"><ele>273.0</ele><time>2026-05-01T15:23:17.62Z</time></trkpt><trkpt lat="43.4712654" lon="11.0385776"><ele>273.0</ele><time>2026-05-01T15:23:18.611Z</time></trkpt><trkpt lat="43.4712855" lon="11.0386957"><ele>272.75</ele><time>2026-05-01T15:23:19.614Z</time></trkpt><trkpt lat="43.4713134" lon="11.0388322"><ele>272.5</ele><time>2026-05-01T15:23:20.612Z</time></trkpt><trkpt lat="43.4713569" lon="11.0389887"><ele>272.25</ele><time>2026-05-01T15:23:21.605Z</time></trkpt><trkpt lat="43.4714061" lon="11.0391596"><ele>272.0</ele><time>2026-05-01T15:23:22.613Z</time></trkpt><trkpt lat="43.4714574" lon="11.0393486"><ele>274.0</ele><time>2026-05-01T15:23:23.613Z</time></trkpt><trkpt lat="43.4715077" lon="11.0395561"><ele>276.0</ele><time>2026-05-01T15:23:24.609Z</time></trkpt><trkpt lat="43.4715639" lon="11.0397708"><ele>278.0</ele><time>2026-05-01T15:23:25.607Z</time></trkpt><trkpt lat="43.4716312" lon="11.0400014"><ele>281.0</ele><time>2026-05-01T15:23:26.613Z</time></trkpt><trkpt lat="43.4717066" lon="11.0402314"><ele>284.0</ele><time>2026-05-01T15:23:27.614Z</time></trkpt><trkpt lat="43.4717856" lon="11.0404561"><ele>287.0</ele><time>2026-05-01T15:23:28.617Z</time></trkpt><trkpt lat="43.4718597" lon="11.0406654"><ele>289.75</ele><time>2026-05-01T15:23:29.616Z</time></trkpt><trkpt lat="43.4719137" lon="11.0408532"><ele>292.5</ele><time>2026-05-01T15:23:30.611Z</time></trkpt><trkpt lat="43.4719516" lon="11.0410189"><ele>295.25</ele><time>2026-05-01T15:23:31.622Z</time></trkpt><trkpt lat="43.4719768" lon="11.0411632"><ele>298.0</ele><time>2026-05-01T15:23:32.603Z</time></trkpt><trkpt lat="43.4719695" lon="11.0412837"><ele>298.0</ele><time>2026-05-01T15:23:33.621Z</time></trkpt><trkpt lat="43.4719239" lon="11.0413665"><ele>298.0</ele><time>2026-05-01T15:23:34.615Z</time></trkpt><trkpt lat="43.4718453" lon="11.0414331"><ele>298.0</ele><time>2026-05-01T15:23:36.619Z</time></trkpt><trkpt lat="43.4717709" lon="11.0414567"><ele>298.0</ele><time>2026-05-01T15:23:44.611Z</time></trkpt><trkpt lat="43.4717451" lon="11.0415579"><ele>298.0</ele><time>2026-05-01T15:23:54.621Z</time></trkpt><trkpt lat="43.4718048" lon="11.0416023"><ele>298.0</ele><time>2026-05-01T15:23:56.612Z</time></trkpt><trkpt lat="43.4718976" lon="11.0415997"><ele>298.0</ele><time>2026-05-01T15:23:58.629Z</time></trkpt><trkpt lat="43.4719991" lon="11.041495"><ele>298.0</ele><time>2026-05-01T15:24:00.617Z</time></trkpt><trkpt lat="43.4720283" lon="11.041398"><ele>298.0</ele><time>2026-05-01T15:24:01.616Z</time></trkpt><trkpt lat="43.4720381" lon="11.0413087"><ele>298.0</ele><time>2026-05-01T15:24:02.626Z</time></trkpt><trkpt lat="43.4720307" lon="11.0412003"><ele>298.0</ele><time>2026-05-01T15:24:03.611Z</time></trkpt><trkpt lat="43.4720132" lon="11.0410939"><ele>298.0</ele><time>2026-05-01T15:24:04.616Z</time></trkpt><trkpt lat="43.4719868" lon="11.0409881"><ele>298.0</ele><time>2026-05-01T15:24:05.614Z</time></trkpt><trkpt lat="43.4719578" lon="11.0408947"><ele>298.0</ele><time>2026-05-01T15:24:06.608Z</time></trkpt><trkpt lat="43.4719286" lon="11.0408135"><ele>298.0</ele><time>2026-05-01T15:24:07.624Z</time></trkpt><trkpt lat="43.4718756" lon="11.0406601"><ele>298.0</ele><time>2026-05-01T15:24:09.626Z</time></trkpt><trkpt lat="43.4718307" lon="11.0405253"><ele>298.0</ele><time>2026-05-01T15:24:11.619Z</time></trkpt><trkpt lat="43.4717955" lon="11.0404076"><ele>296.16666666666663</ele><time>2026-05-01T15:24:13.621Z</time></trkpt><trkpt lat="43.4717654" lon="11.0402984"><ele>294.3333333333333</ele><time>2026-05-01T15:24:15.621Z</time></trkpt><trkpt lat="43.471829" lon="11.0402339"><ele>292.5</ele><time>2026-05-01T15:24:17.621Z</time></trkpt><trkpt lat="43.4719413" lon="11.0402717"><ele>290.6666666666667</ele><time>2026-05-01T15:24:19.615Z</time></trkpt><trkpt lat="43.4720177" lon="11.0403074"><ele>288.83333333333337</ele><time>2026-05-01T15:24:20.621Z</time></trkpt><trkpt lat="43.4721046" lon="11.0403321"><ele>287.0</ele><time>2026-05-01T15:24:21.604Z</time></trkpt><trkpt lat="43.4722003" lon="11.0403675"><ele>283.8</ele><time>2026-05-01T15:24:22.622Z</time></trkpt><trkpt lat="43.4723022" lon="11.0403994"><ele>280.6</ele><time>2026-05-01T15:24:23.622Z</time></trkpt><trkpt lat="43.4724054" lon="11.0404412"><ele>277.40000000000003</ele><time>2026-05-01T15:24:24.623Z</time></trkpt><trkpt lat="43.4725153" lon="11.0404911"><ele>274.2</ele><time>2026-05-01T15:24:25.605Z</time></trkpt><trkpt lat="43.4726278" lon="11.0405439"><ele>271.0</ele><time>2026-05-01T15:24:26.612Z</time></trkpt><trkpt lat="43.4727449" lon="11.0406104"><ele>271.0</ele><time>2026-05-01T15:24:27.608Z</time></trkpt><trkpt lat="43.4728616" lon="11.0406799"><ele>271.0</ele><time>2026-05-01T15:24:28.613Z</time></trkpt><trkpt lat="43.4729784" lon="11.0407447"><ele>271.0</ele><time>2026-05-01T15:24:29.613Z</time></trkpt><trkpt lat="43.4730896" lon="11.0408143"><ele>271.0</ele><time>2026-05-01T15:24:30.612Z</time></trkpt><trkpt lat="43.4732011" lon="11.0408773"><ele>270.75</ele><time>2026-05-01T15:24:31.624Z</time></trkpt><trkpt lat="43.4733184" lon="11.0409496"><ele>270.5</ele><time>2026-05-01T15:24:32.614Z</time></trkpt><trkpt lat="43.4734308" lon="11.0410494"><ele>270.25</ele><time>2026-05-01T15:24:33.625Z</time></trkpt><trkpt lat="43.4735421" lon="11.0411508"><ele>270.0</ele><time>2026-05-01T15:24:34.613Z</time></trkpt><trkpt lat="43.4736593" lon="11.0412433"><ele>267.25</ele><time>2026-05-01T15:24:35.632Z</time></trkpt><trkpt lat="43.4737823" lon="11.0413209"><ele>264.5</ele><time>2026-05-01T15:24:36.615Z</time></trkpt><trkpt lat="43.4739131" lon="11.041399"><ele>261.75</ele><time>2026-05-01T15:24:37.615Z</time></trkpt><trkpt lat="43.4740572" lon="11.0414705"><ele>259.0</ele><time>2026-05-01T15:24:38.623Z</time></trkpt><trkpt lat="43.4742088" lon="11.0415392"><ele>259.0</ele><time>2026-05-01T15:24:39.606Z</time></trkpt><trkpt lat="43.4743622" lon="11.04161"><ele>259.0</ele><time>2026-05-01T15:24:40.613Z</time></trkpt><trkpt lat="43.4745282" lon="11.0416804"><ele>259.0</ele><time>2026-05-01T15:24:41.616Z</time></trkpt><trkpt lat="43.4746908" lon="11.041752"><ele>257.66666666666663</ele><time>2026-05-01T15:24:42.622Z</time></trkpt><trkpt lat="43.4748495" lon="11.0418203"><ele>256.3333333333333</ele><time>2026-05-01T15:24:43.608Z</time></trkpt><trkpt lat="43.4750032" lon="11.0418878"><ele>255.0</ele><time>2026-05-01T15:24:44.617Z</time></trkpt><trkpt lat="43.4751563" lon="11.0419551"><ele>255.0</ele><time>2026-05-01T15:24:45.631Z</time></trkpt><trkpt lat="43.4753116" lon="11.042032"><ele>255.0</ele><time>2026-05-01T15:24:46.626Z</time></trkpt><trkpt lat="43.4754676" lon="11.0421133"><ele>255.0</ele><time>2026-05-01T15:24:47.615Z</time></trkpt><trkpt lat="43.4756246" lon="11.0422031"><ele>255.66666666666669</ele><time>2026-05-01T15:24:48.621Z</time></trkpt><trkpt lat="43.4757794" lon="11.0422978"><ele>256.33333333333337</ele><time>2026-05-01T15:24:49.621Z</time></trkpt><trkpt lat="43.4759372" lon="11.0423933"><ele>257.0</ele><time>2026-05-01T15:24:50.616Z</time></trkpt><trkpt lat="43.4760939" lon="11.0424917"><ele>254.66666666666669</ele><time>2026-05-01T15:24:51.603Z</time></trkpt><trkpt lat="43.4762519" lon="11.0425949"><ele>252.33333333333331</ele><time>2026-05-01T15:24:52.621Z</time></trkpt><trkpt lat="43.4763997" lon="11.0427043"><ele>250.0</ele><time>2026-05-01T15:24:53.614Z</time></trkpt><trkpt lat="43.4765401" lon="11.0428211"><ele>249.75</ele><time>2026-05-01T15:24:54.62Z</time></trkpt><trkpt lat="43.4766719" lon="11.042936"><ele>249.5</ele><time>2026-05-01T15:24:55.627Z</time></trkpt><trkpt lat="43.4767986" lon="11.043041"><ele>249.25</ele><time>2026-05-01T15:24:56.616Z</time></trkpt><trkpt lat="43.4769231" lon="11.0431445"><ele>249.0</ele><time>2026-05-01T15:24:57.621Z</time></trkpt><trkpt lat="43.4770409" lon="11.0432649"><ele>244.66666666666669</ele><time>2026-05-01T15:24:58.615Z</time></trkpt><trkpt lat="43.4771403" lon="11.0434082"><ele>240.33333333333334</ele><time>2026-05-01T15:24:59.617Z</time></trkpt><trkpt lat="43.4772375" lon="11.0435722"><ele>236.0</ele><time>2026-05-01T15:25:00.616Z</time></trkpt><trkpt lat="43.4773359" lon="11.0437436"><ele>236.0</ele><time>2026-05-01T15:25:01.615Z</time></trkpt><trkpt lat="43.4774398" lon="11.0439188"><ele>236.0</ele><time>2026-05-01T15:25:02.613Z</time></trkpt><trkpt lat="43.4775534" lon="11.0440867"><ele>236.0</ele><time>2026-05-01T15:25:03.616Z</time></trkpt><trkpt lat="43.4776646" lon="11.0442504"><ele>234.66666666666669</ele><time>2026-05-01T15:25:04.617Z</time></trkpt><trkpt lat="43.4777786" lon="11.0444072"><ele>233.33333333333331</ele><time>2026-05-01T15:25:05.614Z</time></trkpt><trkpt lat="43.477895" lon="11.0445566"><ele>232.0</ele><time>2026-05-01T15:25:06.617Z</time></trkpt><trkpt lat="43.4780204" lon="11.0447041"><ele>232.0</ele><time>2026-05-01T15:25:07.606Z</time></trkpt><trkpt lat="43.4781535" lon="11.0448367"><ele>232.0</ele><time>2026-05-01T15:25:08.62Z</time></trkpt><trkpt lat="43.4782913" lon="11.0449605"><ele>232.0</ele><time>2026-05-01T15:25:09.613Z</time></trkpt><trkpt lat="43.4784219" lon="11.0450755"><ele>234.6</ele><time>2026-05-01T15:25:10.61Z</time></trkpt><trkpt lat="43.4785359" lon="11.0451746"><ele>237.2</ele><time>2026-05-01T15:25:11.61Z</time></trkpt><trkpt lat="43.4786423" lon="11.0452463"><ele>239.8</ele><time>2026-05-01T15:25:12.615Z</time></trkpt><trkpt lat="43.4787276" lon="11.0453109"><ele>242.4</ele><time>2026-05-01T15:25:13.608Z</time></trkpt><trkpt lat="43.4788135" lon="11.045368"><ele>245.0</ele><time>2026-05-01T15:25:15.618Z</time></trkpt><trkpt lat="43.4788784" lon="11.0454483"><ele>245.50000000000003</ele><time>2026-05-01T15:25:18.629Z</time></trkpt><trkpt lat="43.4788848" lon="11.0455468"><ele>246.0</ele><time>2026-05-01T15:25:21.617Z</time></trkpt><trkpt lat="43.4788663" lon="11.0456311"><ele>246.5</ele><time>2026-05-01T15:25:43.619Z</time></trkpt><trkpt lat="43.4788445" lon="11.0457811"><ele>247.0</ele><time>2026-05-01T15:25:46.639Z</time></trkpt><trkpt lat="43.4788297" lon="11.0458894"><ele>247.50000000000003</ele><time>2026-05-01T15:25:47.618Z</time></trkpt><trkpt lat="43.4788182" lon="11.0460208"><ele>248.0</ele><time>2026-05-01T15:25:48.617Z</time></trkpt><trkpt lat="43.4788076" lon="11.0461527"><ele>249.25</ele><time>2026-05-01T15:25:49.609Z</time></trkpt><trkpt lat="43.4787927" lon="11.0462933"><ele>250.5</ele><time>2026-05-01T15:25:50.618Z</time></trkpt><trkpt lat="43.478773" lon="11.0464495"><ele>251.75</ele><time>2026-05-01T15:25:51.619Z</time></trkpt><trkpt lat="43.4787501" lon="11.0466133"><ele>253.0</ele><time>2026-05-01T15:25:52.62Z</time></trkpt><trkpt lat="43.4787237" lon="11.0467903"><ele>249.25</ele><time>2026-05-01T15:25:53.622Z</time></trkpt><trkpt lat="43.4786935" lon="11.0469702"><ele>245.5</ele><time>2026-05-01T15:25:54.615Z</time></trkpt><trkpt lat="43.4786641" lon="11.0471606"><ele>241.75</ele><time>2026-05-01T15:25:55.626Z</time></trkpt><trkpt lat="43.4786285" lon="11.0473481"><ele>238.0</ele><time>2026-05-01T15:25:56.62Z</time></trkpt><trkpt lat="43.4785962" lon="11.0475397"><ele>238.0</ele><time>2026-05-01T15:25:57.616Z</time></trkpt><trkpt lat="43.4785666" lon="11.0477197"><ele>238.0</ele><time>2026-05-01T15:25:58.628Z</time></trkpt><trkpt lat="43.4785508" lon="11.0478771"><ele>238.0</ele><time>2026-05-01T15:25:59.629Z</time></trkpt><trkpt lat="43.4785387" lon="11.0480173"><ele>238.0</ele><time>2026-05-01T15:26:00.607Z</time></trkpt><trkpt lat="43.4785412" lon="11.0481556"><ele>239.2</ele><time>2026-05-01T15:26:01.618Z</time></trkpt><trkpt lat="43.4785539" lon="11.0483052"><ele>240.4</ele><time>2026-05-01T15:26:02.625Z</time></trkpt><trkpt lat="43.4785697" lon="11.0484476"><ele>241.59999999999997</ele><time>2026-05-01T15:26:03.623Z</time></trkpt><trkpt lat="43.47859" lon="11.0485814"><ele>242.79999999999998</ele><time>2026-05-01T15:26:04.627Z</time></trkpt><trkpt lat="43.4786119" lon="11.0487076"><ele>244.0</ele><time>2026-05-01T15:26:05.608Z</time></trkpt><trkpt lat="43.4786368" lon="11.0488368"><ele>244.0</ele><time>2026-05-01T15:26:06.609Z</time></trkpt><trkpt lat="43.4786609" lon="11.0489717"><ele>243.99999999999997</ele><time>2026-05-01T15:26:07.62Z</time></trkpt><trkpt lat="43.4786768" lon="11.0491015"><ele>243.99999999999997</ele><time>2026-05-01T15:26:08.626Z</time></trkpt><trkpt lat="43.4786835" lon="11.0492344"><ele>244.0</ele><time>2026-05-01T15:26:09.608Z</time></trkpt><trkpt lat="43.4786665" lon="11.0493752"><ele>244.0</ele><time>2026-05-01T15:26:10.615Z</time></trkpt><trkpt lat="43.4786307" lon="11.0495213"><ele>243.5</ele><time>2026-05-01T15:26:11.61Z</time></trkpt><trkpt lat="43.4785711" lon="11.0496485"><ele>243.0</ele><time>2026-05-01T15:26:12.622Z</time></trkpt><trkpt lat="43.4784811" lon="11.0497635"><ele>242.5</ele><time>2026-05-01T15:26:13.609Z</time></trkpt><trkpt lat="43.4783961" lon="11.0498854"><ele>242.0</ele><time>2026-05-01T15:26:14.629Z</time></trkpt><trkpt lat="43.4783023" lon="11.0500142"><ele>241.5</ele><time>2026-05-01T15:26:15.619Z</time></trkpt><trkpt lat="43.478211" lon="11.0501441"><ele>241.0</ele><time>2026-05-01T15:26:16.618Z</time></trkpt><trkpt lat="43.478119" lon="11.0502673"><ele>240.5</ele><time>2026-05-01T15:26:17.62Z</time></trkpt><trkpt lat="43.4780414" lon="11.0503799"><ele>240.0</ele><time>2026-05-01T15:26:18.621Z</time></trkpt><trkpt lat="43.4779704" lon="11.050476"><ele>239.8</ele><time>2026-05-01T15:26:19.618Z</time></trkpt><trkpt lat="43.4779004" lon="11.0505734"><ele>239.6</ele><time>2026-05-01T15:26:20.618Z</time></trkpt><trkpt lat="43.477826" lon="11.0506682"><ele>239.39999999999998</ele><time>2026-05-01T15:26:21.617Z</time></trkpt><trkpt lat="43.4777484" lon="11.0507639"><ele>239.2</ele><time>2026-05-01T15:26:22.619Z</time></trkpt><trkpt lat="43.4776616" lon="11.0508646"><ele>239.0</ele><time>2026-05-01T15:26:23.62Z</time></trkpt><trkpt lat="43.4775746" lon="11.050968"><ele>239.0</ele><time>2026-05-01T15:26:24.64Z</time></trkpt><trkpt lat="43.4774847" lon="11.0510802"><ele>239.0</ele><time>2026-05-01T15:26:25.618Z</time></trkpt><trkpt lat="43.4773936" lon="11.0511965"><ele>239.0</ele><time>2026-05-01T15:26:26.616Z</time></trkpt><trkpt lat="43.4772987" lon="11.0513201"><ele>239.0</ele><time>2026-05-01T15:26:27.626Z</time></trkpt><trkpt lat="43.4772051" lon="11.0514413"><ele>239.0</ele><time>2026-05-01T15:26:28.621Z</time></trkpt><trkpt lat="43.477113" lon="11.0515637"><ele>239.0</ele><time>2026-05-01T15:26:29.609Z</time></trkpt><trkpt lat="43.4770218" lon="11.0516815"><ele>239.0</ele><time>2026-05-01T15:26:30.646Z</time></trkpt><trkpt lat="43.4769327" lon="11.0518"><ele>239.0</ele><time>2026-05-01T15:26:31.612Z</time></trkpt><trkpt lat="43.4768455" lon="11.0519091"><ele>237.5</ele><time>2026-05-01T15:26:32.619Z</time></trkpt><trkpt lat="43.4767572" lon="11.0520277"><ele>236.0</ele><time>2026-05-01T15:26:33.616Z</time></trkpt><trkpt lat="43.4766727" lon="11.0521381"><ele>234.5</ele><time>2026-05-01T15:26:34.618Z</time></trkpt><trkpt lat="43.4765829" lon="11.0522477"><ele>233.0</ele><time>2026-05-01T15:26:35.606Z</time></trkpt><trkpt lat="43.4764943" lon="11.052362"><ele>233.25</ele><time>2026-05-01T15:26:36.626Z</time></trkpt><trkpt lat="43.4764107" lon="11.0524805"><ele>233.5</ele><time>2026-05-01T15:26:37.623Z</time></trkpt><trkpt lat="43.476329" lon="11.0526016"><ele>233.75</ele><time>2026-05-01T15:26:38.617Z</time></trkpt><trkpt lat="43.4762525" lon="11.0527251"><ele>234.0</ele><time>2026-05-01T15:26:39.613Z</time></trkpt><trkpt lat="43.4761759" lon="11.0528549"><ele>231.0</ele><time>2026-05-01T15:26:40.628Z</time></trkpt><trkpt lat="43.4760993" lon="11.0529964"><ele>228.0</ele><time>2026-05-01T15:26:41.614Z</time></trkpt><trkpt lat="43.4760223" lon="11.0531429"><ele>225.0</ele><time>2026-05-01T15:26:42.612Z</time></trkpt><trkpt lat="43.4759554" lon="11.0532746"><ele>222.0</ele><time>2026-05-01T15:26:43.626Z</time></trkpt><trkpt lat="43.4759018" lon="11.053404"><ele>221.75</ele><time>2026-05-01T15:26:44.609Z</time></trkpt><trkpt lat="43.4758502" lon="11.0535329"><ele>221.5</ele><time>2026-05-01T15:26:45.617Z</time></trkpt><trkpt lat="43.4758037" lon="11.0536708"><ele>221.25</ele><time>2026-05-01T15:26:46.623Z</time></trkpt><trkpt lat="43.4757511" lon="11.053831"><ele>221.0</ele><time>2026-05-01T15:26:47.627Z</time></trkpt><trkpt lat="43.4756969" lon="11.0540061"><ele>220.33333333333334</ele><time>2026-05-01T15:26:48.611Z</time></trkpt><trkpt lat="43.4756398" lon="11.0541909"><ele>219.66666666666669</ele><time>2026-05-01T15:26:49.619Z</time></trkpt><trkpt lat="43.4755717" lon="11.054375"><ele>219.0</ele><time>2026-05-01T15:26:50.629Z</time></trkpt><trkpt lat="43.4754948" lon="11.0545683"><ele>220.75</ele><time>2026-05-01T15:26:51.613Z</time></trkpt><trkpt lat="43.4754127" lon="11.0547474"><ele>222.5</ele><time>2026-05-01T15:26:52.622Z</time></trkpt><trkpt lat="43.4753374" lon="11.0549159"><ele>224.25</ele><time>2026-05-01T15:26:53.621Z</time></trkpt><trkpt lat="43.4752644" lon="11.055083"><ele>226.0</ele><time>2026-05-01T15:26:54.615Z</time></trkpt><trkpt lat="43.4751914" lon="11.0552447"><ele>227.5</ele><time>2026-05-01T15:26:55.613Z</time></trkpt><trkpt lat="43.4751196" lon="11.0554005"><ele>229.0</ele><time>2026-05-01T15:26:56.618Z</time></trkpt><trkpt lat="43.4750524" lon="11.0555542"><ele>230.5</ele><time>2026-05-01T15:26:57.61Z</time></trkpt><trkpt lat="43.474994" lon="11.0556911"><ele>232.0</ele><time>2026-05-01T15:26:58.616Z</time></trkpt><trkpt lat="43.4749401" lon="11.0558028"><ele>232.2</ele><time>2026-05-01T15:26:59.614Z</time></trkpt><trkpt lat="43.4748876" lon="11.0558982"><ele>232.39999999999998</ele><time>2026-05-01T15:27:00.619Z</time></trkpt><trkpt lat="43.474828" lon="11.0559818"><ele>232.60000000000002</ele><time>2026-05-01T15:27:01.608Z</time></trkpt><trkpt lat="43.474754" lon="11.056055"><ele>232.8</ele><time>2026-05-01T15:27:02.612Z</time></trkpt><trkpt lat="43.4746559" lon="11.0561214"><ele>233.0</ele><time>2026-05-01T15:27:03.619Z</time></trkpt><trkpt lat="43.4745531" lon="11.0561793"><ele>231.75</ele><time>2026-05-01T15:27:04.61Z</time></trkpt><trkpt lat="43.4744396" lon="11.0562368"><ele>230.5</ele><time>2026-05-01T15:27:05.629Z</time></trkpt><trkpt lat="43.474328" lon="11.0562912"><ele>229.25</ele><time>2026-05-01T15:27:06.613Z</time></trkpt><trkpt lat="43.474213" lon="11.056357"><ele>228.0</ele><time>2026-05-01T15:27:07.612Z</time></trkpt><trkpt lat="43.4740904" lon="11.0564158"><ele>228.0</ele><time>2026-05-01T15:27:08.619Z</time></trkpt><trkpt lat="43.4739729" lon="11.0564769"><ele>228.0</ele><time>2026-05-01T15:27:09.612Z</time></trkpt><trkpt lat="43.4738625" lon="11.0565294"><ele>228.0</ele><time>2026-05-01T15:27:10.614Z</time></trkpt><trkpt lat="43.4737674" lon="11.0565825"><ele>228.0</ele><time>2026-05-01T15:27:11.619Z</time></trkpt><trkpt lat="43.4736754" lon="11.0566333"><ele>228.0</ele><time>2026-05-01T15:27:12.615Z</time></trkpt><trkpt lat="43.4735898" lon="11.0566887"><ele>227.4</ele><time>2026-05-01T15:27:13.611Z</time></trkpt><trkpt lat="43.4734976" lon="11.0567555"><ele>226.8</ele><time>2026-05-01T15:27:14.62Z</time></trkpt><trkpt lat="43.4734102" lon="11.0568298"><ele>226.2</ele><time>2026-05-01T15:27:15.614Z</time></trkpt><trkpt lat="43.473325" lon="11.0569136"><ele>225.6</ele><time>2026-05-01T15:27:16.626Z</time></trkpt><trkpt lat="43.4732502" lon="11.057015"><ele>225.0</ele><time>2026-05-01T15:27:17.621Z</time></trkpt><trkpt lat="43.4731687" lon="11.0571246"><ele>225.0</ele><time>2026-05-01T15:27:18.626Z</time></trkpt><trkpt lat="43.4730816" lon="11.0572388"><ele>225.0</ele><time>2026-05-01T15:27:19.621Z</time></trkpt><trkpt lat="43.4729968" lon="11.0573553"><ele>225.0</ele><time>2026-05-01T15:27:20.618Z</time></trkpt><trkpt lat="43.4729015" lon="11.0574814"><ele>225.0</ele><time>2026-05-01T15:27:21.612Z</time></trkpt><trkpt lat="43.4728001" lon="11.0576142"><ele>225.25</ele><time>2026-05-01T15:27:22.617Z</time></trkpt><trkpt lat="43.4726991" lon="11.0577595"><ele>225.5</ele><time>2026-05-01T15:27:23.614Z</time></trkpt><trkpt lat="43.4725979" lon="11.0578882"><ele>225.75</ele><time>2026-05-01T15:27:24.627Z</time></trkpt><trkpt lat="43.4725044" lon="11.0580083"><ele>226.0</ele><time>2026-05-01T15:27:25.611Z</time></trkpt><trkpt lat="43.4724201" lon="11.058111"><ele>226.0</ele><time>2026-05-01T15:27:26.623Z</time></trkpt><trkpt lat="43.4723339" lon="11.0582153"><ele>226.0</ele><time>2026-05-01T15:27:27.617Z</time></trkpt><trkpt lat="43.4722452" lon="11.0583235"><ele>226.0</ele><time>2026-05-01T15:27:28.616Z</time></trkpt><trkpt lat="43.4721444" lon="11.0584366"><ele>226.0</ele><time>2026-05-01T15:27:29.612Z</time></trkpt><trkpt lat="43.4720425" lon="11.0585484"><ele>224.5</ele><time>2026-05-01T15:27:30.607Z</time></trkpt><trkpt lat="43.4719362" lon="11.058665"><ele>223.0</ele><time>2026-05-01T15:27:31.622Z</time></trkpt><trkpt lat="43.4718227" lon="11.058796"><ele>221.5</ele><time>2026-05-01T15:27:32.613Z</time></trkpt><trkpt lat="43.471701" lon="11.0589288"><ele>220.0</ele><time>2026-05-01T15:27:33.615Z</time></trkpt><trkpt lat="43.4715802" lon="11.0590587"><ele>219.75</ele><time>2026-05-01T15:27:34.611Z</time></trkpt><trkpt lat="43.4714686" lon="11.0591934"><ele>219.5</ele><time>2026-05-01T15:27:35.61Z</time></trkpt><trkpt lat="43.4713582" lon="11.0593289"><ele>219.25</ele><time>2026-05-01T15:27:36.638Z</time></trkpt><trkpt lat="43.4712546" lon="11.0594487"><ele>219.0</ele><time>2026-05-01T15:27:37.621Z</time></trkpt><trkpt lat="43.4711545" lon="11.0595645"><ele>219.0</ele><time>2026-05-01T15:27:38.624Z</time></trkpt><trkpt lat="43.4710546" lon="11.0596745"><ele>219.0</ele><time>2026-05-01T15:27:39.61Z</time></trkpt><trkpt lat="43.4709578" lon="11.05978"><ele>219.0</ele><time>2026-05-01T15:27:40.617Z</time></trkpt><trkpt lat="43.4708749" lon="11.0598739"><ele>219.0</ele><time>2026-05-01T15:27:41.611Z</time></trkpt><trkpt lat="43.4708043" lon="11.0599683"><ele>220.39999999999998</ele><time>2026-05-01T15:27:42.614Z</time></trkpt><trkpt lat="43.4707447" lon="11.0600587"><ele>221.79999999999998</ele><time>2026-05-01T15:27:43.621Z</time></trkpt><trkpt lat="43.4706933" lon="11.0601663"><ele>223.20000000000002</ele><time>2026-05-01T15:27:44.633Z</time></trkpt><trkpt lat="43.4706553" lon="11.0602907"><ele>224.60000000000002</ele><time>2026-05-01T15:27:45.616Z</time></trkpt><trkpt lat="43.4706036" lon="11.0604396"><ele>226.0</ele><time>2026-05-01T15:27:46.625Z</time></trkpt><trkpt lat="43.4705434" lon="11.0605809"><ele>226.0</ele><time>2026-05-01T15:27:47.613Z</time></trkpt><trkpt lat="43.4704755" lon="11.0607168"><ele>226.0</ele><time>2026-05-01T15:27:48.611Z</time></trkpt><trkpt lat="43.4703996" lon="11.0608403"><ele>226.0</ele><time>2026-05-01T15:27:49.615Z</time></trkpt><trkpt lat="43.4703054" lon="11.0609496"><ele>226.0</ele><time>2026-05-01T15:27:50.624Z</time></trkpt><trkpt lat="43.4702107" lon="11.0610572"><ele>227.5</ele><time>2026-05-01T15:27:51.613Z</time></trkpt><trkpt lat="43.470116" lon="11.0611653"><ele>229.0</ele><time>2026-05-01T15:27:52.621Z</time></trkpt><trkpt lat="43.4700297" lon="11.06127"><ele>230.5</ele><time>2026-05-01T15:27:53.617Z</time></trkpt><trkpt lat="43.4699432" lon="11.0613661"><ele>232.0</ele><time>2026-05-01T15:27:54.618Z</time></trkpt><trkpt lat="43.4698619" lon="11.061472"><ele>232.0</ele><time>2026-05-01T15:27:55.616Z</time></trkpt><trkpt lat="43.4697767" lon="11.0615805"><ele>232.0</ele><time>2026-05-01T15:27:56.621Z</time></trkpt><trkpt lat="43.4696948" lon="11.0616783"><ele>232.0</ele><time>2026-05-01T15:27:57.621Z</time></trkpt><trkpt lat="43.4696219" lon="11.0617767"><ele>232.0</ele><time>2026-05-01T15:27:58.604Z</time></trkpt><trkpt lat="43.4695565" lon="11.0618722"><ele>232.0</ele><time>2026-05-01T15:27:59.611Z</time></trkpt><trkpt lat="43.4694965" lon="11.0619691"><ele>229.39999999999998</ele><time>2026-05-01T15:28:00.615Z</time></trkpt><trkpt lat="43.4694439" lon="11.0620678"><ele>226.79999999999998</ele><time>2026-05-01T15:28:01.615Z</time></trkpt><trkpt lat="43.4693862" lon="11.0621692"><ele>224.2</ele><time>2026-05-01T15:28:02.625Z</time></trkpt><trkpt lat="43.4693209" lon="11.0622771"><ele>221.6</ele><time>2026-05-01T15:28:03.621Z</time></trkpt><trkpt lat="43.4692575" lon="11.0623937"><ele>219.0</ele><time>2026-05-01T15:28:04.61Z</time></trkpt><trkpt lat="43.4691905" lon="11.0625148"><ele>218.6</ele><time>2026-05-01T15:28:05.61Z</time></trkpt><trkpt lat="43.4691334" lon="11.0626322"><ele>218.2</ele><time>2026-05-01T15:28:06.615Z</time></trkpt><trkpt lat="43.4690768" lon="11.0627376"><ele>217.79999999999998</ele><time>2026-05-01T15:28:07.609Z</time></trkpt><trkpt lat="43.4690206" lon="11.0628453"><ele>217.39999999999998</ele><time>2026-05-01T15:28:08.626Z</time></trkpt><trkpt lat="43.4689625" lon="11.0629543"><ele>217.0</ele><time>2026-05-01T15:28:09.614Z</time></trkpt><trkpt lat="43.4689006" lon="11.0630644"><ele>217.0</ele><time>2026-05-01T15:28:10.629Z</time></trkpt><trkpt lat="43.4688432" lon="11.0631776"><ele>217.0</ele><time>2026-05-01T15:28:11.612Z</time></trkpt><trkpt lat="43.4687783" lon="11.0632967"><ele>217.0</ele><time>2026-05-01T15:28:12.616Z</time></trkpt><trkpt lat="43.4687064" lon="11.0634228"><ele>217.0</ele><time>2026-05-01T15:28:13.62Z</time></trkpt><trkpt lat="43.4686257" lon="11.0635486"><ele>217.0</ele><time>2026-05-01T15:28:14.607Z</time></trkpt><trkpt lat="43.4685356" lon="11.0636824"><ele>213.75</ele><time>2026-05-01T15:28:15.61Z</time></trkpt><trkpt lat="43.4684402" lon="11.0638267"><ele>210.5</ele><time>2026-05-01T15:28:16.608Z</time></trkpt><trkpt lat="43.4683454" lon="11.0639719"><ele>207.25</ele><time>2026-05-01T15:28:17.634Z</time></trkpt><trkpt lat="43.4682468" lon="11.0641093"><ele>204.0</ele><time>2026-05-01T15:28:18.613Z</time></trkpt><trkpt lat="43.4681481" lon="11.0642414"><ele>202.75</ele><time>2026-05-01T15:28:19.633Z</time></trkpt><trkpt lat="43.4680506" lon="11.0643567"><ele>201.5</ele><time>2026-05-01T15:28:20.617Z</time></trkpt><trkpt lat="43.4679584" lon="11.0644526"><ele>200.25</ele><time>2026-05-01T15:28:21.61Z</time></trkpt><trkpt lat="43.4678645" lon="11.0645217"><ele>199.0</ele><time>2026-05-01T15:28:22.624Z</time></trkpt><trkpt lat="43.4677672" lon="11.0645618"><ele>198.5</ele><time>2026-05-01T15:28:23.622Z</time></trkpt><trkpt lat="43.4676505" lon="11.0645672"><ele>198.0</ele><time>2026-05-01T15:28:24.633Z</time></trkpt><trkpt lat="43.4675256" lon="11.0645341"><ele>197.5</ele><time>2026-05-01T15:28:25.611Z</time></trkpt><trkpt lat="43.4674" lon="11.0644927"><ele>197.0</ele><time>2026-05-01T15:28:26.613Z</time></trkpt><trkpt lat="43.4672887" lon="11.064455"><ele>197.0</ele><time>2026-05-01T15:28:27.611Z</time></trkpt><trkpt lat="43.4671748" lon="11.0644201"><ele>197.0</ele><time>2026-05-01T15:28:28.605Z</time></trkpt><trkpt lat="43.4670665" lon="11.064403"><ele>197.0</ele><time>2026-05-01T15:28:29.623Z</time></trkpt><trkpt lat="43.4669791" lon="11.0643981"><ele>197.0</ele><time>2026-05-01T15:28:30.613Z</time></trkpt><trkpt lat="43.4669102" lon="11.0644232"><ele>197.0</ele><time>2026-05-01T15:28:31.614Z</time></trkpt><trkpt lat="43.4668497" lon="11.0644828"><ele>197.6</ele><time>2026-05-01T15:28:32.612Z</time></trkpt><trkpt lat="43.4668037" lon="11.0645781"><ele>198.2</ele><time>2026-05-01T15:28:33.621Z</time></trkpt><trkpt lat="43.4667757" lon="11.0646971"><ele>198.8</ele><time>2026-05-01T15:28:34.622Z</time></trkpt><trkpt lat="43.4667573" lon="11.0648261"><ele>199.4</ele><time>2026-05-01T15:28:35.616Z</time></trkpt><trkpt lat="43.466736" lon="11.0649955"><ele>200.0</ele><time>2026-05-01T15:28:36.619Z</time></trkpt><trkpt lat="43.4667101" lon="11.0651906"><ele>200.0</ele><time>2026-05-01T15:28:37.614Z</time></trkpt><trkpt lat="43.4666532" lon="11.0653981"><ele>200.0</ele><time>2026-05-01T15:28:38.616Z</time></trkpt><trkpt lat="43.4665995" lon="11.0655907"><ele>200.0</ele><time>2026-05-01T15:28:39.615Z</time></trkpt><trkpt lat="43.4665589" lon="11.0657493"><ele>200.0</ele><time>2026-05-01T15:28:40.618Z</time></trkpt><trkpt lat="43.4665296" lon="11.0658868"><ele>201.4</ele><time>2026-05-01T15:28:41.61Z</time></trkpt><trkpt lat="43.4665036" lon="11.0660013"><ele>202.8</ele><time>2026-05-01T15:28:42.61Z</time></trkpt><trkpt lat="43.4664731" lon="11.0661152"><ele>204.2</ele><time>2026-05-01T15:28:43.619Z</time></trkpt><trkpt lat="43.4664323" lon="11.0662409"><ele>205.6</ele><time>2026-05-01T15:28:44.622Z</time></trkpt><trkpt lat="43.4663891" lon="11.066369"><ele>207.0</ele><time>2026-05-01T15:28:45.62Z</time></trkpt><trkpt lat="43.466337" lon="11.0664922"><ele>207.0</ele><time>2026-05-01T15:28:46.613Z</time></trkpt><trkpt lat="43.4662889" lon="11.0666097"><ele>207.0</ele><time>2026-05-01T15:28:47.612Z</time></trkpt><trkpt lat="43.4662354" lon="11.066727"><ele>207.0</ele><time>2026-05-01T15:28:48.617Z</time></trkpt><trkpt lat="43.4661846" lon="11.0668409"><ele>207.0</ele><time>2026-05-01T15:28:49.62Z</time></trkpt><trkpt lat="43.4661348" lon="11.0669383"><ele>207.0</ele><time>2026-05-01T15:28:50.63Z</time></trkpt><trkpt lat="43.4660909" lon="11.0670309"><ele>207.33333333333334</ele><time>2026-05-01T15:28:51.621Z</time></trkpt><trkpt lat="43.4660463" lon="11.067112"><ele>207.66666666666669</ele><time>2026-05-01T15:28:52.622Z</time></trkpt><trkpt lat="43.4659983" lon="11.0671953"><ele>208.0</ele><time>2026-05-01T15:28:53.61Z</time></trkpt><trkpt lat="43.4659455" lon="11.0672831"><ele>208.33333333333334</ele><time>2026-05-01T15:28:54.617Z</time></trkpt><trkpt lat="43.4658865" lon="11.0673747"><ele>208.66666666666669</ele><time>2026-05-01T15:28:55.615Z</time></trkpt><trkpt lat="43.4658262" lon="11.06747"><ele>209.0</ele><time>2026-05-01T15:28:56.615Z</time></trkpt><trkpt lat="43.4657619" lon="11.0675642"><ele>207.5</ele><time>2026-05-01T15:28:57.616Z</time></trkpt><trkpt lat="43.4656884" lon="11.0676705"><ele>206.0</ele><time>2026-05-01T15:28:58.616Z</time></trkpt><trkpt lat="43.465598" lon="11.0677835"><ele>204.5</ele><time>2026-05-01T15:28:59.605Z</time></trkpt><trkpt lat="43.4654975" lon="11.0678985"><ele>203.0</ele><time>2026-05-01T15:29:00.618Z</time></trkpt><trkpt lat="43.4653801" lon="11.0680011"><ele>203.0</ele><time>2026-05-01T15:29:01.614Z</time></trkpt><trkpt lat="43.4652584" lon="11.0680995"><ele>203.0</ele><time>2026-05-01T15:29:02.626Z</time></trkpt><trkpt lat="43.4651575" lon="11.0681663"><ele>203.0</ele><time>2026-05-01T15:29:03.622Z</time></trkpt><trkpt lat="43.4650616" lon="11.0682326"><ele>203.0</ele><time>2026-05-01T15:29:04.616Z</time></trkpt><trkpt lat="43.4649618" lon="11.0682999"><ele>200.75</ele><time>2026-05-01T15:29:05.613Z</time></trkpt><trkpt lat="43.4648476" lon="11.068361"><ele>198.5</ele><time>2026-05-01T15:29:06.61Z</time></trkpt><trkpt lat="43.4647235" lon="11.0684041"><ele>196.25</ele><time>2026-05-01T15:29:07.619Z</time></trkpt><trkpt lat="43.464594" lon="11.06844"><ele>194.0</ele><time>2026-05-01T15:29:08.611Z</time></trkpt><trkpt lat="43.4644654" lon="11.0684599"><ele>194.0</ele><time>2026-05-01T15:29:09.61Z</time></trkpt><trkpt lat="43.4643528" lon="11.0684721"><ele>194.0</ele><time>2026-05-01T15:29:10.612Z</time></trkpt><trkpt lat="43.4642456" lon="11.0684906"><ele>194.0</ele><time>2026-05-01T15:29:11.614Z</time></trkpt><trkpt lat="43.4641443" lon="11.0685331"><ele>194.0</ele><time>2026-05-01T15:29:12.609Z</time></trkpt><trkpt lat="43.4640563" lon="11.0686191"><ele>194.0</ele><time>2026-05-01T15:29:13.606Z</time></trkpt><trkpt lat="43.4639642" lon="11.0687306"><ele>194.0</ele><time>2026-05-01T15:29:14.618Z</time></trkpt><trkpt lat="43.4638826" lon="11.0688352"><ele>194.0</ele><time>2026-05-01T15:29:15.612Z</time></trkpt><trkpt lat="43.4638061" lon="11.0689501"><ele>194.0</ele><time>2026-05-01T15:29:16.629Z</time></trkpt><trkpt lat="43.4637303" lon="11.0690827"><ele>194.0</ele><time>2026-05-01T15:29:17.61Z</time></trkpt><trkpt lat="43.4636556" lon="11.069212"><ele>193.75</ele><time>2026-05-01T15:29:18.622Z</time></trkpt><trkpt lat="43.4635732" lon="11.0693494"><ele>193.5</ele><time>2026-05-01T15:29:19.609Z</time></trkpt><trkpt lat="43.4634913" lon="11.0694966"><ele>193.25</ele><time>2026-05-01T15:29:20.607Z</time></trkpt><trkpt lat="43.4634142" lon="11.0696497"><ele>193.0</ele><time>2026-05-01T15:29:21.612Z</time></trkpt><trkpt lat="43.4633433" lon="11.0698079"><ele>193.75</ele><time>2026-05-01T15:29:22.618Z</time></trkpt><trkpt lat="43.4632879" lon="11.0699612"><ele>194.5</ele><time>2026-05-01T15:29:23.618Z</time></trkpt><trkpt lat="43.4632327" lon="11.0701124"><ele>195.25</ele><time>2026-05-01T15:29:24.612Z</time></trkpt><trkpt lat="43.4631866" lon="11.0702797"><ele>196.0</ele><time>2026-05-01T15:29:25.61Z</time></trkpt><trkpt lat="43.4631435" lon="11.070458"><ele>196.0</ele><time>2026-05-01T15:29:26.626Z</time></trkpt><trkpt lat="43.4630979" lon="11.0706513"><ele>196.0</ele><time>2026-05-01T15:29:27.605Z</time></trkpt><trkpt lat="43.463056" lon="11.0708626"><ele>196.0</ele><time>2026-05-01T15:29:28.617Z</time></trkpt><trkpt lat="43.4630201" lon="11.0710651"><ele>196.0</ele><time>2026-05-01T15:29:29.602Z</time></trkpt><trkpt lat="43.4630001" lon="11.0712455"><ele>196.0</ele><time>2026-05-01T15:29:30.614Z</time></trkpt><trkpt lat="43.4629907" lon="11.0714284"><ele>196.0</ele><time>2026-05-01T15:29:31.614Z</time></trkpt><trkpt lat="43.4629876" lon="11.0716093"><ele>196.0</ele><time>2026-05-01T15:29:32.61Z</time></trkpt><trkpt lat="43.4629874" lon="11.0717846"><ele>197.0</ele><time>2026-05-01T15:29:33.617Z</time></trkpt><trkpt lat="43.4629715" lon="11.0719454"><ele>198.0</ele><time>2026-05-01T15:29:34.607Z</time></trkpt><trkpt lat="43.4629486" lon="11.0721055"><ele>199.0</ele><time>2026-05-01T15:29:35.617Z</time></trkpt><trkpt lat="43.4629038" lon="11.0722657"><ele>200.0</ele><time>2026-05-01T15:29:36.615Z</time></trkpt><trkpt lat="43.4628579" lon="11.0724091"><ele>206.0</ele><time>2026-05-01T15:29:37.612Z</time></trkpt><trkpt lat="43.4628047" lon="11.0725599"><ele>212.0</ele><time>2026-05-01T15:29:38.618Z</time></trkpt><trkpt lat="43.462744" lon="11.0727128"><ele>218.0</ele><time>2026-05-01T15:29:39.611Z</time></trkpt><trkpt lat="43.4626938" lon="11.0728619"><ele>224.0</ele><time>2026-05-01T15:29:40.618Z</time></trkpt><trkpt lat="43.4626453" lon="11.0729938"><ele>224.0</ele><time>2026-05-01T15:29:41.617Z</time></trkpt><trkpt lat="43.4625917" lon="11.0731065"><ele>223.99999999999997</ele><time>2026-05-01T15:29:42.618Z</time></trkpt><trkpt lat="43.4625296" lon="11.0732136"><ele>223.99999999999997</ele><time>2026-05-01T15:29:43.622Z</time></trkpt><trkpt lat="43.4624476" lon="11.0733108"><ele>224.0</ele><time>2026-05-01T15:29:44.598Z</time></trkpt><trkpt lat="43.462368" lon="11.0734281"><ele>224.0</ele><time>2026-05-01T15:29:45.606Z</time></trkpt><trkpt lat="43.4622848" lon="11.0735757"><ele>222.5</ele><time>2026-05-01T15:29:46.613Z</time></trkpt><trkpt lat="43.4622159" lon="11.0737249"><ele>221.0</ele><time>2026-05-01T15:29:47.614Z</time></trkpt><trkpt lat="43.4621575" lon="11.0738846"><ele>219.5</ele><time>2026-05-01T15:29:48.62Z</time></trkpt><trkpt lat="43.4621027" lon="11.0740311"><ele>218.0</ele><time>2026-05-01T15:29:49.612Z</time></trkpt><trkpt lat="43.46205" lon="11.0741783"><ele>221.2</ele><time>2026-05-01T15:29:50.606Z</time></trkpt><trkpt lat="43.4619924" lon="11.0743286"><ele>224.4</ele><time>2026-05-01T15:29:51.617Z</time></trkpt><trkpt lat="43.4619353" lon="11.0744652"><ele>227.59999999999997</ele><time>2026-05-01T15:29:52.617Z</time></trkpt><trkpt lat="43.4618797" lon="11.0745851"><ele>230.79999999999998</ele><time>2026-05-01T15:29:53.621Z</time></trkpt><trkpt lat="43.4618199" lon="11.0747026"><ele>234.0</ele><time>2026-05-01T15:29:54.619Z</time></trkpt><trkpt lat="43.4617504" lon="11.0747987"><ele>234.0</ele><time>2026-05-01T15:29:55.616Z</time></trkpt><trkpt lat="43.4616831" lon="11.0748784"><ele>233.99999999999997</ele><time>2026-05-01T15:29:56.615Z</time></trkpt><trkpt lat="43.4615984" lon="11.0749342"><ele>233.99999999999997</ele><time>2026-05-01T15:29:57.62Z</time></trkpt><trkpt lat="43.461503" lon="11.0749642"><ele>234.0</ele><time>2026-05-01T15:29:58.623Z</time></trkpt><trkpt lat="43.4614094" lon="11.0749766"><ele>234.0</ele><time>2026-05-01T15:29:59.618Z</time></trkpt><trkpt lat="43.4612952" lon="11.0749948"><ele>233.25</ele><time>2026-05-01T15:30:00.615Z</time></trkpt><trkpt lat="43.4611743" lon="11.0750261"><ele>232.5</ele><time>2026-05-01T15:30:01.614Z</time></trkpt><trkpt lat="43.4610543" lon="11.0750636"><ele>231.75</ele><time>2026-05-01T15:30:02.62Z</time></trkpt><trkpt lat="43.4609294" lon="11.075103"><ele>231.0</ele><time>2026-05-01T15:30:03.622Z</time></trkpt><trkpt lat="43.4608141" lon="11.075141"><ele>231.0</ele><time>2026-05-01T15:30:04.626Z</time></trkpt><trkpt lat="43.4607056" lon="11.0751714"><ele>231.00000000000003</ele><time>2026-05-01T15:30:05.622Z</time></trkpt><trkpt lat="43.4606069" lon="11.0751985"><ele>231.00000000000003</ele><time>2026-05-01T15:30:06.606Z</time></trkpt><trkpt lat="43.460511" lon="11.0752263"><ele>231.0</ele><time>2026-05-01T15:30:07.612Z</time></trkpt><trkpt lat="43.4604122" lon="11.0752516"><ele>231.0</ele><time>2026-05-01T15:30:08.619Z</time></trkpt><trkpt lat="43.4603016" lon="11.0752903"><ele>229.25</ele><time>2026-05-01T15:30:09.616Z</time></trkpt><trkpt lat="43.4601848" lon="11.0753411"><ele>227.5</ele><time>2026-05-01T15:30:10.625Z</time></trkpt><trkpt lat="43.4600713" lon="11.0754198"><ele>225.75</ele><time>2026-05-01T15:30:11.62Z</time></trkpt><trkpt lat="43.459962" lon="11.0755205"><ele>224.0</ele><time>2026-05-01T15:30:12.626Z</time></trkpt><trkpt lat="43.4598473" lon="11.0756545"><ele>221.75</ele><time>2026-05-01T15:30:13.607Z</time></trkpt><trkpt lat="43.4597558" lon="11.0758131"><ele>219.5</ele><time>2026-05-01T15:30:14.623Z</time></trkpt><trkpt lat="43.4596626" lon="11.0759588"><ele>217.25</ele><time>2026-05-01T15:30:15.622Z</time></trkpt><trkpt lat="43.4595675" lon="11.0760786"><ele>215.0</ele><time>2026-05-01T15:30:16.607Z</time></trkpt><trkpt lat="43.4594769" lon="11.0761811"><ele>214.8</ele><time>2026-05-01T15:30:17.614Z</time></trkpt><trkpt lat="43.4593943" lon="11.0762701"><ele>214.6</ele><time>2026-05-01T15:30:18.622Z</time></trkpt><trkpt lat="43.4593201" lon="11.0763474"><ele>214.39999999999998</ele><time>2026-05-01T15:30:19.622Z</time></trkpt><trkpt lat="43.4592565" lon="11.0764473"><ele>214.2</ele><time>2026-05-01T15:30:20.612Z</time></trkpt><trkpt lat="43.4592033" lon="11.0765613"><ele>214.0</ele><time>2026-05-01T15:30:21.614Z</time></trkpt><trkpt lat="43.4591674" lon="11.0767012"><ele>215.5</ele><time>2026-05-01T15:30:22.613Z</time></trkpt><trkpt lat="43.4591383" lon="11.0768442"><ele>217.0</ele><time>2026-05-01T15:30:23.645Z</time></trkpt><trkpt lat="43.4591334" lon="11.0770017"><ele>218.5</ele><time>2026-05-01T15:30:24.616Z</time></trkpt><trkpt lat="43.4591555" lon="11.0771715"><ele>220.0</ele><time>2026-05-01T15:30:25.617Z</time></trkpt><trkpt lat="43.459203" lon="11.0773351"><ele>220.8</ele><time>2026-05-01T15:30:26.615Z</time></trkpt><trkpt lat="43.4592508" lon="11.0774936"><ele>221.6</ele><time>2026-05-01T15:30:27.624Z</time></trkpt><trkpt lat="43.4592887" lon="11.0776193"><ele>222.39999999999998</ele><time>2026-05-01T15:30:28.615Z</time></trkpt><trkpt lat="43.4593215" lon="11.0777274"><ele>223.2</ele><time>2026-05-01T15:30:29.609Z</time></trkpt><trkpt lat="43.4593532" lon="11.0778316"><ele>224.0</ele><time>2026-05-01T15:30:30.611Z</time></trkpt><trkpt lat="43.4593909" lon="11.0779542"><ele>224.0</ele><time>2026-05-01T15:30:31.616Z</time></trkpt><trkpt lat="43.4594261" lon="11.0780777"><ele>223.99999999999997</ele><time>2026-05-01T15:30:32.622Z</time></trkpt><trkpt lat="43.4594664" lon="11.0782072"><ele>223.99999999999997</ele><time>2026-05-01T15:30:33.618Z</time></trkpt><trkpt lat="43.4595001" lon="11.0783324"><ele>224.0</ele><time>2026-05-01T15:30:34.617Z</time></trkpt><trkpt lat="43.4595198" lon="11.0784566"><ele>224.0</ele><time>2026-05-01T15:30:35.614Z</time></trkpt><trkpt lat="43.4595413" lon="11.0785752"><ele>224.6</ele><time>2026-05-01T15:30:36.619Z</time></trkpt><trkpt lat="43.4595613" lon="11.0787006"><ele>225.2</ele><time>2026-05-01T15:30:37.619Z</time></trkpt><trkpt lat="43.4595826" lon="11.0788277"><ele>225.79999999999998</ele><time>2026-05-01T15:30:38.605Z</time></trkpt><trkpt lat="43.4596101" lon="11.0789598"><ele>226.39999999999998</ele><time>2026-05-01T15:30:39.594Z</time></trkpt><trkpt lat="43.4596409" lon="11.0790973"><ele>227.0</ele><time>2026-05-01T15:30:40.598Z</time></trkpt><trkpt lat="43.4596766" lon="11.0792397"><ele>224.39999999999998</ele><time>2026-05-01T15:30:41.611Z</time></trkpt><trkpt lat="43.459711" lon="11.0793836"><ele>221.79999999999998</ele><time>2026-05-01T15:30:42.615Z</time></trkpt><trkpt lat="43.4597348" lon="11.0795341"><ele>219.2</ele><time>2026-05-01T15:30:43.617Z</time></trkpt><trkpt lat="43.4597556" lon="11.0796885"><ele>216.6</ele><time>2026-05-01T15:30:44.6Z</time></trkpt><trkpt lat="43.4597647" lon="11.0798318"><ele>214.0</ele><time>2026-05-01T15:30:45.622Z</time></trkpt><trkpt lat="43.4597823" lon="11.0799644"><ele>214.0</ele><time>2026-05-01T15:30:46.609Z</time></trkpt><trkpt lat="43.4598171" lon="11.0800913"><ele>213.99999999999997</ele><time>2026-05-01T15:30:47.607Z</time></trkpt><trkpt lat="43.4598635" lon="11.0802038"><ele>213.99999999999997</ele><time>2026-05-01T15:30:48.611Z</time></trkpt><trkpt lat="43.4599189" lon="11.0803183"><ele>214.0</ele><time>2026-05-01T15:30:49.607Z</time></trkpt><trkpt lat="43.4599732" lon="11.0804305"><ele>214.0</ele><time>2026-05-01T15:30:50.617Z</time></trkpt><trkpt lat="43.4600372" lon="11.0805463"><ele>214.0</ele><time>2026-05-01T15:30:51.609Z</time></trkpt><trkpt lat="43.4600995" lon="11.0806731"><ele>213.99999999999997</ele><time>2026-05-01T15:30:52.61Z</time></trkpt><trkpt lat="43.4601651" lon="11.0807944"><ele>213.99999999999997</ele><time>2026-05-01T15:30:53.619Z</time></trkpt><trkpt lat="43.4602222" lon="11.0809019"><ele>214.0</ele><time>2026-05-01T15:30:54.619Z</time></trkpt><trkpt lat="43.4602634" lon="11.0810007"><ele>214.0</ele><time>2026-05-01T15:30:55.612Z</time></trkpt><trkpt lat="43.4602896" lon="11.0810878"><ele>213.99999999999997</ele><time>2026-05-01T15:30:56.613Z</time></trkpt><trkpt lat="43.4603023" lon="11.081173"><ele>214.0</ele><time>2026-05-01T15:30:57.615Z</time></trkpt><trkpt lat="43.4602907" lon="11.0812804"><ele>214.0</ele><time>2026-05-01T15:30:58.604Z</time></trkpt><trkpt lat="43.4602562" lon="11.0813998"><ele>214.0</ele><time>2026-05-01T15:30:59.604Z</time></trkpt><trkpt lat="43.460222" lon="11.0815215"><ele>213.99999999999997</ele><time>2026-05-01T15:31:00.611Z</time></trkpt><trkpt lat="43.4601694" lon="11.0816672"><ele>214.0</ele><time>2026-05-01T15:31:01.621Z</time></trkpt><trkpt lat="43.4600951" lon="11.081834"><ele>214.0</ele><time>2026-05-01T15:31:02.609Z</time></trkpt><trkpt lat="43.4600078" lon="11.0820076"><ele>214.0</ele><time>2026-05-01T15:31:03.611Z</time></trkpt><trkpt lat="43.4599281" lon="11.0821597"><ele>214.0</ele><time>2026-05-01T15:31:04.609Z</time></trkpt><trkpt lat="43.4598565" lon="11.0822871"><ele>214.0</ele><time>2026-05-01T15:31:05.626Z</time></trkpt><trkpt lat="43.4597939" lon="11.0824044"><ele>213.66666666666666</ele><time>2026-05-01T15:31:06.619Z</time></trkpt><trkpt lat="43.4597371" lon="11.0825069"><ele>213.33333333333331</ele><time>2026-05-01T15:31:07.621Z</time></trkpt><trkpt lat="43.4596841" lon="11.0826093"><ele>213.0</ele><time>2026-05-01T15:31:08.622Z</time></trkpt><trkpt lat="43.4596348" lon="11.0826912"><ele>212.66666666666669</ele><time>2026-05-01T15:31:09.61Z</time></trkpt><trkpt lat="43.4595889" lon="11.0827776"><ele>212.33333333333334</ele><time>2026-05-01T15:31:10.624Z</time></trkpt><trkpt lat="43.4595405" lon="11.0828761"><ele>212.0</ele><time>2026-05-01T15:31:11.618Z</time></trkpt><trkpt lat="43.459489" lon="11.0830102"><ele>212.0</ele><time>2026-05-01T15:31:12.614Z</time></trkpt><trkpt lat="43.4594443" lon="11.0831601"><ele>212.0</ele><time>2026-05-01T15:31:13.611Z</time></trkpt><trkpt lat="43.4594031" lon="11.0833269"><ele>212.0</ele><time>2026-05-01T15:31:14.613Z</time></trkpt><trkpt lat="43.4593696" lon="11.0835096"><ele>212.0</ele><time>2026-05-01T15:31:15.62Z</time></trkpt><trkpt lat="43.4593459" lon="11.0836946"><ele>209.75</ele><time>2026-05-01T15:31:16.615Z</time></trkpt><trkpt lat="43.4593268" lon="11.0838747"><ele>207.5</ele><time>2026-05-01T15:31:17.609Z</time></trkpt><trkpt lat="43.4593126" lon="11.0840326"><ele>205.25</ele><time>2026-05-01T15:31:18.609Z</time></trkpt><trkpt lat="43.459307" lon="11.0841824"><ele>203.0</ele><time>2026-05-01T15:31:19.621Z</time></trkpt><trkpt lat="43.4593023" lon="11.0843308"><ele>202.0</ele><time>2026-05-01T15:31:20.619Z</time></trkpt><trkpt lat="43.4592955" lon="11.0844686"><ele>201.0</ele><time>2026-05-01T15:31:21.614Z</time></trkpt><trkpt lat="43.4592898" lon="11.0846024"><ele>200.0</ele><time>2026-05-01T15:31:22.617Z</time></trkpt><trkpt lat="43.4592912" lon="11.0847387"><ele>199.0</ele><time>2026-05-01T15:31:23.623Z</time></trkpt><trkpt lat="43.4592935" lon="11.084862"><ele>198.0</ele><time>2026-05-01T15:31:24.613Z</time></trkpt><trkpt lat="43.4592997" lon="11.0849827"><ele>197.16666666666666</ele><time>2026-05-01T15:31:25.618Z</time></trkpt><trkpt lat="43.4593086" lon="11.0850968"><ele>196.33333333333331</ele><time>2026-05-01T15:31:26.614Z</time></trkpt><trkpt lat="43.459323" lon="11.0852076"><ele>195.5</ele><time>2026-05-01T15:31:27.608Z</time></trkpt><trkpt lat="43.4593336" lon="11.0853155"><ele>194.66666666666666</ele><time>2026-05-01T15:31:28.622Z</time></trkpt><trkpt lat="43.4593274" lon="11.0854275"><ele>193.83333333333331</ele><time>2026-05-01T15:31:29.611Z</time></trkpt><trkpt lat="43.4593039" lon="11.0855277"><ele>193.0</ele><time>2026-05-01T15:31:30.626Z</time></trkpt><trkpt lat="43.4592693" lon="11.0856146"><ele>192.99999999999997</ele><time>2026-05-01T15:31:31.617Z</time></trkpt><trkpt lat="43.459222" lon="11.0856808"><ele>193.0</ele><time>2026-05-01T15:31:32.605Z</time></trkpt><trkpt lat="43.4591561" lon="11.0857768"><ele>193.0</ele><time>2026-05-01T15:31:34.621Z</time></trkpt><trkpt lat="43.4591319" lon="11.0858642"><ele>193.0</ele><time>2026-05-01T15:31:36.612Z</time></trkpt><trkpt lat="43.4592009" lon="11.0859232"><ele>192.99999999999997</ele><time>2026-05-01T15:31:39.616Z</time></trkpt><trkpt lat="43.4593068" lon="11.0858895"><ele>193.0</ele><time>2026-05-01T15:31:41.614Z</time></trkpt><trkpt lat="43.4593534" lon="11.0858276"><ele>193.0</ele><time>2026-05-01T15:31:42.614Z</time></trkpt><trkpt lat="43.4594442" lon="11.0857383"><ele>193.0</ele><time>2026-05-01T15:31:44.62Z</time></trkpt><trkpt lat="43.4595801" lon="11.0858165"><ele>193.0</ele><time>2026-05-01T15:31:46.607Z</time></trkpt><trkpt lat="43.4596646" lon="11.0858559"><ele>193.0</ele><time>2026-05-01T15:31:47.612Z</time></trkpt><trkpt lat="43.4597704" lon="11.0858651"><ele>189.8</ele><time>2026-05-01T15:31:48.618Z</time></trkpt><trkpt lat="43.4598944" lon="11.0858512"><ele>186.60000000000002</ele><time>2026-05-01T15:31:49.614Z</time></trkpt><trkpt lat="43.4600006" lon="11.0858581"><ele>183.39999999999998</ele><time>2026-05-01T15:31:50.617Z</time></trkpt><trkpt lat="43.4600893" lon="11.0858772"><ele>180.2</ele><time>2026-05-01T15:31:51.612Z</time></trkpt><trkpt lat="43.4601739" lon="11.0859243"><ele>177.0</ele><time>2026-05-01T15:31:52.614Z</time></trkpt><trkpt lat="43.4602469" lon="11.0860088"><ele>177.0</ele><time>2026-05-01T15:31:53.614Z</time></trkpt><trkpt lat="43.4603021" lon="11.0861197"><ele>177.0</ele><time>2026-05-01T15:31:54.615Z</time></trkpt><trkpt lat="43.4603607" lon="11.0862428"><ele>177.0</ele><time>2026-05-01T15:31:55.605Z</time></trkpt><trkpt lat="43.460398" lon="11.0863619"><ele>177.0</ele><time>2026-05-01T15:31:56.617Z</time></trkpt><trkpt lat="43.4604256" lon="11.0864693"><ele>177.0</ele><time>2026-05-01T15:31:57.618Z</time></trkpt><trkpt lat="43.4604482" lon="11.0865774"><ele>175.33333333333334</ele><time>2026-05-01T15:31:58.618Z</time></trkpt><trkpt lat="43.4604592" lon="11.0866675"><ele>173.66666666666666</ele><time>2026-05-01T15:31:59.614Z</time></trkpt><trkpt lat="43.4604135" lon="11.0868175"><ele>172.0</ele><time>2026-05-01T15:32:01.618Z</time></trkpt><trkpt lat="43.4603645" lon="11.0868737"><ele>170.33333333333331</ele><time>2026-05-01T15:32:02.609Z</time></trkpt><trkpt lat="43.4602984" lon="11.0868944"><ele>168.66666666666666</ele><time>2026-05-01T15:32:03.624Z</time></trkpt><trkpt lat="43.4602272" lon="11.0868851"><ele>167.0</ele><time>2026-05-01T15:32:04.632Z</time></trkpt><trkpt lat="43.4601418" lon="11.0868547"><ele>167.0</ele><time>2026-05-01T15:32:05.614Z</time></trkpt><trkpt lat="43.4600551" lon="11.0868061"><ele>167.0</ele><time>2026-05-01T15:32:06.617Z</time></trkpt><trkpt lat="43.4599731" lon="11.0867542"><ele>167.0</ele><time>2026-05-01T15:32:07.611Z</time></trkpt><trkpt lat="43.4599004" lon="11.0867213"><ele>167.0</ele><time>2026-05-01T15:32:08.62Z</time></trkpt><trkpt lat="43.4598281" lon="11.086709"><ele>167.0</ele><time>2026-05-01T15:32:09.62Z</time></trkpt><trkpt lat="43.4597574" lon="11.0867185"><ele>167.0</ele><time>2026-05-01T15:32:10.612Z</time></trkpt><trkpt lat="43.4596417" lon="11.0868074"><ele>167.0</ele><time>2026-05-01T15:32:12.613Z</time></trkpt><trkpt lat="43.4596083" lon="11.0868918"><ele>167.0</ele><time>2026-05-01T15:32:13.625Z</time></trkpt><trkpt lat="43.4595684" lon="11.0869737"><ele>167.0</ele><time>2026-05-01T15:32:14.615Z</time></trkpt><trkpt lat="43.459525" lon="11.0870634"><ele>167.0</ele><time>2026-05-01T15:32:15.605Z</time></trkpt><trkpt lat="43.4594818" lon="11.0871635"><ele>167.0</ele><time>2026-05-01T15:32:16.616Z</time></trkpt><trkpt lat="43.4594487" lon="11.0872737"><ele>167.0</ele><time>2026-05-01T15:32:17.622Z</time></trkpt><trkpt lat="43.4594142" lon="11.0873872"><ele>164.6</ele><time>2026-05-01T15:32:18.608Z</time></trkpt><trkpt lat="43.4593987" lon="11.0875197"><ele>162.2</ele><time>2026-05-01T15:32:19.613Z</time></trkpt><trkpt lat="43.4593936" lon="11.0876682"><ele>159.8</ele><time>2026-05-01T15:32:20.614Z</time></trkpt><trkpt lat="43.4593883" lon="11.0878246"><ele>157.4</ele><time>2026-05-01T15:32:21.594Z</time></trkpt><trkpt lat="43.4593878" lon="11.0879814"><ele>155.0</ele><time>2026-05-01T15:32:22.613Z</time></trkpt><trkpt lat="43.4593802" lon="11.0881384"><ele>153.0</ele><time>2026-05-01T15:32:23.619Z</time></trkpt><trkpt lat="43.4593725" lon="11.0882974"><ele>151.0</ele><time>2026-05-01T15:32:24.61Z</time></trkpt><trkpt lat="43.4593535" lon="11.0884563"><ele>149.0</ele><time>2026-05-01T15:32:25.604Z</time></trkpt><trkpt lat="43.4593273" lon="11.0885923"><ele>147.0</ele><time>2026-05-01T15:32:26.61Z</time></trkpt><trkpt lat="43.4592903" lon="11.0887294"><ele>145.0</ele><time>2026-05-01T15:32:27.614Z</time></trkpt><trkpt lat="43.459259" lon="11.0888645"><ele>145.0</ele><time>2026-05-01T15:32:28.614Z</time></trkpt><trkpt lat="43.4592222" lon="11.0890038"><ele>145.0</ele><time>2026-05-01T15:32:29.623Z</time></trkpt><trkpt lat="43.4591809" lon="11.0891465"><ele>145.0</ele><time>2026-05-01T15:32:30.619Z</time></trkpt><trkpt lat="43.4591373" lon="11.0892954"><ele>145.0</ele><time>2026-05-01T15:32:31.613Z</time></trkpt><trkpt lat="43.4590954" lon="11.089453"><ele>144.5</ele><time>2026-05-01T15:32:32.614Z</time></trkpt><trkpt lat="43.459046" lon="11.0896003"><ele>144.0</ele><time>2026-05-01T15:32:33.615Z</time></trkpt><trkpt lat="43.459004" lon="11.0897565"><ele>143.5</ele><time>2026-05-01T15:32:34.619Z</time></trkpt><trkpt lat="43.4589599" lon="11.089916"><ele>143.0</ele><time>2026-05-01T15:32:35.612Z</time></trkpt><trkpt lat="43.4589166" lon="11.0900623"><ele>142.83333333333331</ele><time>2026-05-01T15:32:36.615Z</time></trkpt><trkpt lat="43.4588818" lon="11.0901852"><ele>142.66666666666666</ele><time>2026-05-01T15:32:37.623Z</time></trkpt><trkpt lat="43.4588439" lon="11.090305"><ele>142.5</ele><time>2026-05-01T15:32:38.611Z</time></trkpt><trkpt lat="43.4588127" lon="11.0904171"><ele>142.33333333333334</ele><time>2026-05-01T15:32:39.62Z</time></trkpt><trkpt lat="43.4587851" lon="11.0905277"><ele>142.16666666666669</ele><time>2026-05-01T15:32:40.607Z</time></trkpt><trkpt lat="43.4587686" lon="11.0906367"><ele>142.0</ele><time>2026-05-01T15:32:41.608Z</time></trkpt><trkpt lat="43.458764" lon="11.0907475"><ele>139.2</ele><time>2026-05-01T15:32:42.608Z</time></trkpt><trkpt lat="43.458759" lon="11.0908723"><ele>136.39999999999998</ele><time>2026-05-01T15:32:43.609Z</time></trkpt><trkpt lat="43.4587563" lon="11.0909928"><ele>133.60000000000002</ele><time>2026-05-01T15:32:44.617Z</time></trkpt><trkpt lat="43.4587554" lon="11.0911161"><ele>130.8</ele><time>2026-05-01T15:32:45.613Z</time></trkpt><trkpt lat="43.4587568" lon="11.0912422"><ele>128.0</ele><time>2026-05-01T15:32:46.613Z</time></trkpt><trkpt lat="43.4587555" lon="11.0913695"><ele>128.0</ele><time>2026-05-01T15:32:47.627Z</time></trkpt><trkpt lat="43.4587609" lon="11.0915027"><ele>128.0</ele><time>2026-05-01T15:32:48.616Z</time></trkpt><trkpt lat="43.4587604" lon="11.0916358"><ele>128.0</ele><time>2026-05-01T15:32:49.611Z</time></trkpt><trkpt lat="43.4587652" lon="11.0917672"><ele>128.0</ele><time>2026-05-01T15:32:50.618Z</time></trkpt><trkpt lat="43.4587693" lon="11.0919043"><ele>128.0</ele><time>2026-05-01T15:32:51.614Z</time></trkpt><trkpt lat="43.4587711" lon="11.0920276"><ele>128.33333333333331</ele><time>2026-05-01T15:32:52.617Z</time></trkpt><trkpt lat="43.4587757" lon="11.0921467"><ele>128.66666666666666</ele><time>2026-05-01T15:32:53.622Z</time></trkpt><trkpt lat="43.4587839" lon="11.0922717"><ele>129.0</ele><time>2026-05-01T15:32:54.625Z</time></trkpt><trkpt lat="43.4587929" lon="11.092391"><ele>129.33333333333334</ele><time>2026-05-01T15:32:55.62Z</time></trkpt><trkpt lat="43.458796" lon="11.0924965"><ele>129.66666666666669</ele><time>2026-05-01T15:32:56.623Z</time></trkpt><trkpt lat="43.4588061" lon="11.0925998"><ele>130.0</ele><time>2026-05-01T15:32:57.623Z</time></trkpt><trkpt lat="43.4588162" lon="11.0926917"><ele>127.83333333333334</ele><time>2026-05-01T15:32:58.618Z</time></trkpt><trkpt lat="43.458827" lon="11.0928209"><ele>125.66666666666667</ele><time>2026-05-01T15:33:00.624Z</time></trkpt><trkpt lat="43.4588287" lon="11.0929111"><ele>123.5</ele><time>2026-05-01T15:33:05.615Z</time></trkpt><trkpt lat="43.4587909" lon="11.0929949"><ele>121.33333333333334</ele><time>2026-05-01T15:33:13.618Z</time></trkpt><trkpt lat="43.4587789" lon="11.0930876"><ele>119.16666666666667</ele><time>2026-05-01T15:33:15.617Z</time></trkpt><trkpt lat="43.4587944" lon="11.0932005"><ele>117.0</ele><time>2026-05-01T15:33:16.609Z</time></trkpt><trkpt lat="43.4588296" lon="11.0933042"><ele>115.0</ele><time>2026-05-01T15:33:17.611Z</time></trkpt><trkpt lat="43.4588682" lon="11.0934066"><ele>113.0</ele><time>2026-05-01T15:33:18.611Z</time></trkpt><trkpt lat="43.4589159" lon="11.0935635"><ele>111.0</ele><time>2026-05-01T15:33:19.613Z</time></trkpt><trkpt lat="43.4589739" lon="11.0937893"><ele>109.0</ele><time>2026-05-01T15:33:20.623Z</time></trkpt><trkpt lat="43.4590057" lon="11.0940276"><ele>108.33333333333334</ele><time>2026-05-01T15:33:21.629Z</time></trkpt><trkpt lat="43.4590311" lon="11.0942599"><ele>107.66666666666666</ele><time>2026-05-01T15:33:22.613Z</time></trkpt><trkpt lat="43.4590598" lon="11.0944849"><ele>107.0</ele><time>2026-05-01T15:33:23.631Z</time></trkpt><trkpt lat="43.4590844" lon="11.0947129"><ele>107.0</ele><time>2026-05-01T15:33:24.607Z</time></trkpt><trkpt lat="43.4591169" lon="11.0949583"><ele>107.0</ele><time>2026-05-01T15:33:25.615Z</time></trkpt><trkpt lat="43.459152" lon="11.0952147"><ele>107.0</ele><time>2026-05-01T15:33:26.623Z</time></trkpt><trkpt lat="43.45919" lon="11.0954877"><ele>107.0</ele><time>2026-05-01T15:33:27.611Z</time></trkpt><trkpt lat="43.4592218" lon="11.0957711"><ele>107.0</ele><time>2026-05-01T15:33:28.613Z</time></trkpt><trkpt lat="43.4592569" lon="11.0960679"><ele>107.0</ele><time>2026-05-01T15:33:29.62Z</time></trkpt><trkpt lat="43.4592863" lon="11.0963808"><ele>106.5</ele><time>2026-05-01T15:33:30.622Z</time></trkpt><trkpt lat="43.4593142" lon="11.0967076"><ele>106.0</ele><time>2026-05-01T15:33:31.61Z</time></trkpt><trkpt lat="43.4593356" lon="11.0970158"><ele>106.0</ele><time>2026-05-01T15:33:32.622Z</time></trkpt><trkpt lat="43.4593613" lon="11.0973059"><ele>106.0</ele><time>2026-05-01T15:33:33.614Z</time></trkpt><trkpt lat="43.4593785" lon="11.0975908"><ele>106.0</ele><time>2026-05-01T15:33:34.622Z</time></trkpt><trkpt lat="43.4593889" lon="11.0978741"><ele>105.66666666666667</ele><time>2026-05-01T15:33:35.627Z</time></trkpt><trkpt lat="43.4593941" lon="11.0981645"><ele>105.33333333333334</ele><time>2026-05-01T15:33:36.612Z</time></trkpt><trkpt lat="43.4593958" lon="11.098456"><ele>105.0</ele><time>2026-05-01T15:33:37.625Z</time></trkpt><trkpt lat="43.4593963" lon="11.0987491"><ele>104.66666666666666</ele><time>2026-05-01T15:33:38.622Z</time></trkpt><trkpt lat="43.4594004" lon="11.0990376"><ele>104.33333333333333</ele><time>2026-05-01T15:33:39.635Z</time></trkpt><trkpt lat="43.4594102" lon="11.0993314"><ele>104.0</ele><time>2026-05-01T15:33:40.614Z</time></trkpt><trkpt lat="43.4594294" lon="11.0996302"><ele>103.66666666666666</ele><time>2026-05-01T15:33:41.621Z</time></trkpt><trkpt lat="43.4594585" lon="11.099928"><ele>103.33333333333334</ele><time>2026-05-01T15:33:42.617Z</time></trkpt><trkpt lat="43.459491" lon="11.1002327"><ele>103.0</ele><time>2026-05-01T15:33:43.625Z</time></trkpt><trkpt lat="43.4595165" lon="11.1005413"><ele>103.0</ele><time>2026-05-01T15:33:44.617Z</time></trkpt><trkpt lat="43.459531" lon="11.1008605"><ele>103.0</ele><time>2026-05-01T15:33:45.613Z</time></trkpt><trkpt lat="43.4595311" lon="11.1011837"><ele>103.0</ele><time>2026-05-01T15:33:46.613Z</time></trkpt><trkpt lat="43.4595213" lon="11.1015102"><ele>103.0</ele><time>2026-05-01T15:33:47.615Z</time></trkpt><trkpt lat="43.4594972" lon="11.1018463"><ele>103.0</ele><time>2026-05-01T15:33:48.609Z</time></trkpt><trkpt lat="43.4594616" lon="11.1021911"><ele>103.0</ele><time>2026-05-01T15:33:49.619Z</time></trkpt><trkpt lat="43.4594223" lon="11.1025246"><ele>103.0</ele><time>2026-05-01T15:33:50.626Z</time></trkpt><trkpt lat="43.4593875" lon="11.1028508"><ele>103.0</ele><time>2026-05-01T15:33:51.622Z</time></trkpt><trkpt lat="43.4593508" lon="11.1031731"><ele>102.33333333333334</ele><time>2026-05-01T15:33:52.615Z</time></trkpt><trkpt lat="43.4593177" lon="11.1034792"><ele>101.66666666666666</ele><time>2026-05-01T15:33:53.627Z</time></trkpt><trkpt lat="43.4592871" lon="11.1037738"><ele>101.0</ele><time>2026-05-01T15:33:54.617Z</time></trkpt><trkpt lat="43.4592522" lon="11.1040601"><ele>100.33333333333333</ele><time>2026-05-01T15:33:55.614Z</time></trkpt><trkpt lat="43.4592196" lon="11.1043536"><ele>99.66666666666666</ele><time>2026-05-01T15:33:56.626Z</time></trkpt><trkpt lat="43.4591853" lon="11.1046412"><ele>99.0</ele><time>2026-05-01T15:33:57.619Z</time></trkpt><trkpt lat="43.4591513" lon="11.1049371"><ele>99.0</ele><time>2026-05-01T15:33:58.626Z</time></trkpt><trkpt lat="43.4591211" lon="11.105237"><ele>99.0</ele><time>2026-05-01T15:33:59.625Z</time></trkpt><trkpt lat="43.4590941" lon="11.1055411"><ele>99.0</ele><time>2026-05-01T15:34:00.621Z</time></trkpt><trkpt lat="43.4590689" lon="11.1058443"><ele>98.0</ele><time>2026-05-01T15:34:01.614Z</time></trkpt><trkpt lat="43.4590577" lon="11.1061551"><ele>97.0</ele><time>2026-05-01T15:34:02.621Z</time></trkpt><trkpt lat="43.4590666" lon="11.1064738"><ele>97.5</ele><time>2026-05-01T15:34:03.617Z</time></trkpt><trkpt lat="43.4590965" lon="11.1067817"><ele>98.0</ele><time>2026-05-01T15:34:04.624Z</time></trkpt><trkpt lat="43.4591381" lon="11.1070856"><ele>98.0</ele><time>2026-05-01T15:34:05.621Z</time></trkpt><trkpt lat="43.4591832" lon="11.107375"><ele>98.0</ele><time>2026-05-01T15:34:06.62Z</time></trkpt><trkpt lat="43.4592306" lon="11.1076516"><ele>98.0</ele><time>2026-05-01T15:34:07.614Z</time></trkpt><trkpt lat="43.459274" lon="11.1079135"><ele>98.33333333333333</ele><time>2026-05-01T15:34:08.62Z</time></trkpt><trkpt lat="43.4593126" lon="11.1081615"><ele>98.66666666666666</ele><time>2026-05-01T15:34:09.621Z</time></trkpt><trkpt lat="43.4593528" lon="11.1083939"><ele>99.0</ele><time>2026-05-01T15:34:10.615Z</time></trkpt><trkpt lat="43.459394" lon="11.1085973"><ele>99.0</ele><time>2026-05-01T15:34:11.61Z</time></trkpt><trkpt lat="43.4594343" lon="11.1087921"><ele>99.0</ele><time>2026-05-01T15:34:12.621Z</time></trkpt><trkpt lat="43.459471" lon="11.1089752"><ele>99.0</ele><time>2026-05-01T15:34:13.616Z</time></trkpt><trkpt lat="43.4595038" lon="11.1091462"><ele>99.0</ele><time>2026-05-01T15:34:14.617Z</time></trkpt><trkpt lat="43.4595339" lon="11.1093074"><ele>99.2</ele><time>2026-05-01T15:34:15.614Z</time></trkpt><trkpt lat="43.4595574" lon="11.1094559"><ele>99.4</ele><time>2026-05-01T15:34:16.624Z</time></trkpt><trkpt lat="43.4595841" lon="11.1095874"><ele>99.6</ele><time>2026-05-01T15:34:17.619Z</time></trkpt><trkpt lat="43.4595959" lon="11.1097128"><ele>99.8</ele><time>2026-05-01T15:34:18.612Z</time></trkpt><trkpt lat="43.4595976" lon="11.1098394"><ele>100.0</ele><time>2026-05-01T15:34:19.613Z</time></trkpt><trkpt lat="43.459583" lon="11.1099583"><ele>99.50000000000001</ele><time>2026-05-01T15:34:20.611Z</time></trkpt><trkpt lat="43.4595493" lon="11.1100523"><ele>99.0</ele><time>2026-05-01T15:34:21.619Z</time></trkpt><trkpt lat="43.4595129" lon="11.1101358"><ele>98.5</ele><time>2026-05-01T15:34:22.618Z</time></trkpt><trkpt lat="43.4594616" lon="11.1102131"><ele>98.0</ele><time>2026-05-01T15:34:23.627Z</time></trkpt><trkpt lat="43.4593903" lon="11.1102689"><ele>97.50000000000001</ele><time>2026-05-01T15:34:24.606Z</time></trkpt><trkpt lat="43.4592953" lon="11.1103156"><ele>97.0</ele><time>2026-05-01T15:34:25.61Z</time></trkpt><trkpt lat="43.459184" lon="11.1103453"><ele>97.0</ele><time>2026-05-01T15:34:26.619Z</time></trkpt><trkpt lat="43.4590438" lon="11.1103826"><ele>97.0</ele><time>2026-05-01T15:34:27.616Z</time></trkpt><trkpt lat="43.4588816" lon="11.1104333"><ele>97.0</ele><time>2026-05-01T15:34:28.63Z</time></trkpt><trkpt lat="43.4587089" lon="11.1104797"><ele>97.0</ele><time>2026-05-01T15:34:29.628Z</time></trkpt><trkpt lat="43.4585485" lon="11.1105242"><ele>97.0</ele><time>2026-05-01T15:34:30.614Z</time></trkpt><trkpt lat="43.4583889" lon="11.1105729"><ele>97.0</ele><time>2026-05-01T15:34:31.61Z</time></trkpt><trkpt lat="43.4582236" lon="11.1106249"><ele>97.0</ele><time>2026-05-01T15:34:32.615Z</time></trkpt><trkpt lat="43.4580457" lon="11.1106869"><ele>97.0</ele><time>2026-05-01T15:34:33.617Z</time></trkpt><trkpt lat="43.4578708" lon="11.1107667"><ele>97.0</ele><time>2026-05-01T15:34:34.611Z</time></trkpt><trkpt lat="43.4577002" lon="11.1108585"><ele>97.75</ele><time>2026-05-01T15:34:35.616Z</time></trkpt><trkpt lat="43.4575464" lon="11.1109467"><ele>98.5</ele><time>2026-05-01T15:34:36.622Z</time></trkpt><trkpt lat="43.4574152" lon="11.1110228"><ele>99.25</ele><time>2026-05-01T15:34:37.631Z</time></trkpt><trkpt lat="43.4573095" lon="11.1110959"><ele>100.0</ele><time>2026-05-01T15:34:38.623Z</time></trkpt><trkpt lat="43.4572264" lon="11.1111636"><ele>100.00000000000001</ele><time>2026-05-01T15:34:39.622Z</time></trkpt><trkpt lat="43.4571637" lon="11.1112257"><ele>100.0</ele><time>2026-05-01T15:34:40.62Z</time></trkpt><trkpt lat="43.4571113" lon="11.1112896"><ele>100.0</ele><time>2026-05-01T15:34:41.626Z</time></trkpt><trkpt lat="43.4570578" lon="11.1113573"><ele>100.0</ele><time>2026-05-01T15:34:42.623Z</time></trkpt><trkpt lat="43.4569968" lon="11.1114261"><ele>100.00000000000001</ele><time>2026-05-01T15:34:43.621Z</time></trkpt><trkpt lat="43.4569304" lon="11.1114893"><ele>100.0</ele><time>2026-05-01T15:34:44.619Z</time></trkpt><trkpt lat="43.4568595" lon="11.1115409"><ele>101.0</ele><time>2026-05-01T15:34:45.613Z</time></trkpt><trkpt lat="43.4567802" lon="11.1115859"><ele>102.0</ele><time>2026-05-01T15:34:46.625Z</time></trkpt><trkpt lat="43.4566869" lon="11.1116204"><ele>103.0</ele><time>2026-05-01T15:34:47.629Z</time></trkpt><trkpt lat="43.4565879" lon="11.1116595"><ele>104.0</ele><time>2026-05-01T15:34:48.63Z</time></trkpt><trkpt lat="43.4564797" lon="11.1117077"><ele>105.0</ele><time>2026-05-01T15:34:49.621Z</time></trkpt><trkpt lat="43.4563666" lon="11.1117579"><ele>106.25</ele><time>2026-05-01T15:34:50.62Z</time></trkpt><trkpt lat="43.4562507" lon="11.1118101"><ele>107.5</ele><time>2026-05-01T15:34:51.616Z</time></trkpt><trkpt lat="43.4561321" lon="11.1118599"><ele>108.75</ele><time>2026-05-01T15:34:52.613Z</time></trkpt><trkpt lat="43.4560119" lon="11.1119051"><ele>110.0</ele><time>2026-05-01T15:34:53.605Z</time></trkpt><trkpt lat="43.4558925" lon="11.1119397"><ele>110.0</ele><time>2026-05-01T15:34:54.61Z</time></trkpt><trkpt lat="43.4557757" lon="11.1119708"><ele>110.0</ele><time>2026-05-01T15:34:55.613Z</time></trkpt><trkpt lat="43.4556605" lon="11.1119915"><ele>110.0</ele><time>2026-05-01T15:34:56.617Z</time></trkpt><trkpt lat="43.4555488" lon="11.1119982"><ele>110.0</ele><time>2026-05-01T15:34:57.612Z</time></trkpt><trkpt lat="43.4554429" lon="11.1119952"><ele>112.0</ele><time>2026-05-01T15:34:58.609Z</time></trkpt><trkpt lat="43.4553405" lon="11.1119865"><ele>114.0</ele><time>2026-05-01T15:34:59.615Z</time></trkpt><trkpt lat="43.4552359" lon="11.1119806"><ele>116.0</ele><time>2026-05-01T15:35:00.606Z</time></trkpt><trkpt lat="43.4551331" lon="11.1119871"><ele>118.0</ele><time>2026-05-01T15:35:01.601Z</time></trkpt><trkpt lat="43.4550365" lon="11.1120102"><ele>120.0</ele><time>2026-05-01T15:35:02.601Z</time></trkpt><trkpt lat="43.454947" lon="11.1120573"><ele>120.0</ele><time>2026-05-01T15:35:03.617Z</time></trkpt><trkpt lat="43.4548657" lon="11.112116"><ele>120.0</ele><time>2026-05-01T15:35:04.609Z</time></trkpt><trkpt lat="43.454781" lon="11.112192"><ele>120.0</ele><time>2026-05-01T15:35:05.608Z</time></trkpt><trkpt lat="43.4546883" lon="11.1122776"><ele>120.0</ele><time>2026-05-01T15:35:06.619Z</time></trkpt><trkpt lat="43.4545993" lon="11.1123414"><ele>120.0</ele><time>2026-05-01T15:35:07.614Z</time></trkpt><trkpt lat="43.4544967" lon="11.1124044"><ele>121.75</ele><time>2026-05-01T15:35:08.623Z</time></trkpt><trkpt lat="43.4543831" lon="11.1124293"><ele>123.5</ele><time>2026-05-01T15:35:09.622Z</time></trkpt><trkpt lat="43.4542646" lon="11.1124437"><ele>125.25</ele><time>2026-05-01T15:35:10.603Z</time></trkpt><trkpt lat="43.4541431" lon="11.1124348"><ele>127.0</ele><time>2026-05-01T15:35:11.613Z</time></trkpt><trkpt lat="43.4540186" lon="11.1124096"><ele>126.5</ele><time>2026-05-01T15:35:12.62Z</time></trkpt><trkpt lat="43.4538896" lon="11.1123741"><ele>126.0</ele><time>2026-05-01T15:35:13.614Z</time></trkpt><trkpt lat="43.4537666" lon="11.1123249"><ele>125.5</ele><time>2026-05-01T15:35:14.632Z</time></trkpt><trkpt lat="43.4536417" lon="11.1122624"><ele>125.0</ele><time>2026-05-01T15:35:15.617Z</time></trkpt><trkpt lat="43.453519" lon="11.1121868"><ele>127.75</ele><time>2026-05-01T15:35:16.617Z</time></trkpt><trkpt lat="43.4534051" lon="11.1120941"><ele>130.5</ele><time>2026-05-01T15:35:17.606Z</time></trkpt><trkpt lat="43.4533014" lon="11.1119945"><ele>133.25</ele><time>2026-05-01T15:35:18.62Z</time></trkpt><trkpt lat="43.4532121" lon="11.1118814"><ele>136.0</ele><time>2026-05-01T15:35:19.62Z</time></trkpt><trkpt lat="43.4531284" lon="11.1117735"><ele>136.0</ele><time>2026-05-01T15:35:20.618Z</time></trkpt><trkpt lat="43.4530482" lon="11.1116749"><ele>136.0</ele><time>2026-05-01T15:35:21.609Z</time></trkpt><trkpt lat="43.4529796" lon="11.1115901"><ele>136.0</ele><time>2026-05-01T15:35:22.611Z</time></trkpt><trkpt lat="43.4529075" lon="11.1115085"><ele>136.0</ele><time>2026-05-01T15:35:23.609Z</time></trkpt><trkpt lat="43.4528343" lon="11.1114226"><ele>136.0</ele><time>2026-05-01T15:35:24.609Z</time></trkpt><trkpt lat="43.4527638" lon="11.1113318"><ele>140.0</ele><time>2026-05-01T15:35:25.611Z</time></trkpt><trkpt lat="43.4526907" lon="11.1112554"><ele>144.0</ele><time>2026-05-01T15:35:26.605Z</time></trkpt><trkpt lat="43.4526133" lon="11.111199"><ele>148.0</ele><time>2026-05-01T15:35:27.618Z</time></trkpt><trkpt lat="43.4525271" lon="11.1111593"><ele>152.0</ele><time>2026-05-01T15:35:28.623Z</time></trkpt><trkpt lat="43.4524412" lon="11.1111067"><ele>156.0</ele><time>2026-05-01T15:35:29.608Z</time></trkpt><trkpt lat="43.4523591" lon="11.1110328"><ele>156.0</ele><time>2026-05-01T15:35:30.603Z</time></trkpt><trkpt lat="43.4522672" lon="11.1109487"><ele>156.0</ele><time>2026-05-01T15:35:31.621Z</time></trkpt><trkpt lat="43.452184" lon="11.1108613"><ele>156.0</ele><time>2026-05-01T15:35:32.615Z</time></trkpt><trkpt lat="43.4520976" lon="11.1107714"><ele>156.0</ele><time>2026-05-01T15:35:33.611Z</time></trkpt><trkpt lat="43.4520078" lon="11.1106744"><ele>156.0</ele><time>2026-05-01T15:35:34.614Z</time></trkpt><trkpt lat="43.451924" lon="11.1105732"><ele>159.0</ele><time>2026-05-01T15:35:35.607Z</time></trkpt><trkpt lat="43.4518431" lon="11.1104727"><ele>162.0</ele><time>2026-05-01T15:35:36.601Z</time></trkpt><trkpt lat="43.4517642" lon="11.1103733"><ele>165.0</ele><time>2026-05-01T15:35:37.613Z</time></trkpt><trkpt lat="43.451693" lon="11.110278"><ele>168.0</ele><time>2026-05-01T15:35:38.617Z</time></trkpt><trkpt lat="43.4516327" lon="11.1101947"><ele>171.0</ele><time>2026-05-01T15:35:39.615Z</time></trkpt><trkpt lat="43.4515962" lon="11.1101074"><ele>171.0</ele><time>2026-05-01T15:35:40.609Z</time></trkpt><trkpt lat="43.4515663" lon="11.1100303"><ele>171.0</ele><time>2026-05-01T15:35:41.612Z</time></trkpt><trkpt lat="43.4515019" lon="11.1099457"><ele>171.0</ele><time>2026-05-01T15:35:43.619Z</time></trkpt><trkpt lat="43.4514558" lon="11.1100425"><ele>171.0</ele><time>2026-05-01T15:35:46.618Z</time></trkpt><trkpt lat="43.4514727" lon="11.1101303"><ele>171.0</ele><time>2026-05-01T15:35:47.612Z</time></trkpt><trkpt lat="43.4514893" lon="11.110235"><ele>171.0</ele><time>2026-05-01T15:35:48.616Z</time></trkpt><trkpt lat="43.4515198" lon="11.110348"><ele>171.0</ele><time>2026-05-01T15:35:49.61Z</time></trkpt><trkpt lat="43.4515424" lon="11.1104796"><ele>171.0</ele><time>2026-05-01T15:35:50.61Z</time></trkpt><trkpt lat="43.4515575" lon="11.1105954"><ele>171.0</ele><time>2026-05-01T15:35:51.613Z</time></trkpt><trkpt lat="43.4515705" lon="11.1107669"><ele>171.0</ele><time>2026-05-01T15:35:53.614Z</time></trkpt><trkpt lat="43.4515299" lon="11.1108617"><ele>171.0</ele><time>2026-05-01T15:35:54.6Z</time></trkpt><trkpt lat="43.4514652" lon="11.1109341"><ele>171.66666666666666</ele><time>2026-05-01T15:35:55.596Z</time></trkpt><trkpt lat="43.4513934" lon="11.1109733"><ele>172.33333333333334</ele><time>2026-05-01T15:35:56.608Z</time></trkpt><trkpt lat="43.4513225" lon="11.1109891"><ele>173.0</ele><time>2026-05-01T15:35:57.613Z</time></trkpt><trkpt lat="43.4512415" lon="11.1109999"><ele>173.66666666666669</ele><time>2026-05-01T15:35:58.614Z</time></trkpt><trkpt lat="43.4511539" lon="11.11102"><ele>174.33333333333334</ele><time>2026-05-01T15:35:59.606Z</time></trkpt><trkpt lat="43.4510608" lon="11.1110495"><ele>175.0</ele><time>2026-05-01T15:36:00.611Z</time></trkpt><trkpt lat="43.450974" lon="11.1110866"><ele>176.85714285714286</ele><time>2026-05-01T15:36:01.614Z</time></trkpt><trkpt lat="43.4509065" lon="11.1111232"><ele>178.71428571428572</ele><time>2026-05-01T15:36:02.611Z</time></trkpt><trkpt lat="43.4508435" lon="11.1111454"><ele>180.57142857142856</ele><time>2026-05-01T15:36:03.619Z</time></trkpt><trkpt lat="43.4507829" lon="11.1111832"><ele>182.42857142857144</ele><time>2026-05-01T15:36:04.615Z</time></trkpt><trkpt lat="43.4507189" lon="11.1112153"><ele>184.28571428571428</ele><time>2026-05-01T15:36:05.618Z</time></trkpt><trkpt lat="43.4506526" lon="11.1112537"><ele>186.14285714285714</ele><time>2026-05-01T15:36:06.629Z</time></trkpt><trkpt lat="43.4505871" lon="11.111286"><ele>188.0</ele><time>2026-05-01T15:36:07.609Z</time></trkpt><trkpt lat="43.4505219" lon="11.1113153"><ele>188.16666666666666</ele><time>2026-05-01T15:36:08.612Z</time></trkpt><trkpt lat="43.4504508" lon="11.111343"><ele>188.33333333333331</ele><time>2026-05-01T15:36:09.61Z</time></trkpt><trkpt lat="43.4503755" lon="11.1113667"><ele>188.5</ele><time>2026-05-01T15:36:10.615Z</time></trkpt><trkpt lat="43.4503014" lon="11.1113854"><ele>188.66666666666666</ele><time>2026-05-01T15:36:11.618Z</time></trkpt><trkpt lat="43.4502325" lon="11.1113897"><ele>188.83333333333334</ele><time>2026-05-01T15:36:12.614Z</time></trkpt><trkpt lat="43.450125" lon="11.1113939"><ele>189.0</ele><time>2026-05-01T15:36:14.626Z</time></trkpt><trkpt lat="43.4500585" lon="11.1114041"><ele>189.0</ele><time>2026-05-01T15:36:16.612Z</time></trkpt><trkpt lat="43.4499768" lon="11.1114741"><ele>189.0</ele><time>2026-05-01T15:36:26.61Z</time></trkpt><trkpt lat="43.4498652" lon="11.1115173"><ele>189.0</ele><time>2026-05-01T15:36:28.618Z</time></trkpt><trkpt lat="43.4498021" lon="11.1115497"><ele>189.0</ele><time>2026-05-01T15:36:29.613Z</time></trkpt><trkpt lat="43.4496918" lon="11.1115834"><ele>189.0</ele><time>2026-05-01T15:36:31.609Z</time></trkpt><trkpt lat="43.4495664" lon="11.1116073"><ele>189.33333333333334</ele><time>2026-05-01T15:36:33.615Z</time></trkpt><trkpt lat="43.4494941" lon="11.1116134"><ele>189.66666666666666</ele><time>2026-05-01T15:36:34.612Z</time></trkpt><trkpt lat="43.4494142" lon="11.1116149"><ele>190.0</ele><time>2026-05-01T15:36:35.615Z</time></trkpt><trkpt lat="43.4493294" lon="11.1116111"><ele>190.33333333333331</ele><time>2026-05-01T15:36:36.624Z</time></trkpt><trkpt lat="43.449242" lon="11.1116095"><ele>190.66666666666666</ele><time>2026-05-01T15:36:37.622Z</time></trkpt><trkpt lat="43.449147" lon="11.1115988"><ele>191.0</ele><time>2026-05-01T15:36:38.618Z</time></trkpt><trkpt lat="43.4490493" lon="11.1115883"><ele>191.0</ele><time>2026-05-01T15:36:39.616Z</time></trkpt><trkpt lat="43.4489465" lon="11.1115817"><ele>191.0</ele><time>2026-05-01T15:36:40.613Z</time></trkpt><trkpt lat="43.448855" lon="11.1115757"><ele>191.0</ele><time>2026-05-01T15:36:41.621Z</time></trkpt><trkpt lat="43.4487743" lon="11.1115692"><ele>191.0</ele><time>2026-05-01T15:36:42.61Z</time></trkpt><trkpt lat="43.4486907" lon="11.1115599"><ele>191.0</ele><time>2026-05-01T15:36:43.63Z</time></trkpt><trkpt lat="43.4486011" lon="11.111532"><ele>191.60000000000002</ele><time>2026-05-01T15:36:44.615Z</time></trkpt><trkpt lat="43.4484997" lon="11.1114933"><ele>192.2</ele><time>2026-05-01T15:36:45.615Z</time></trkpt><trkpt lat="43.4483935" lon="11.1114404"><ele>192.8</ele><time>2026-05-01T15:36:46.616Z</time></trkpt><trkpt lat="43.4483045" lon="11.1113886"><ele>193.39999999999998</ele><time>2026-05-01T15:36:47.61Z</time></trkpt><trkpt lat="43.4482257" lon="11.1113417"><ele>194.0</ele><time>2026-05-01T15:36:48.619Z</time></trkpt><trkpt lat="43.4481478" lon="11.1113031"><ele>194.00000000000003</ele><time>2026-05-01T15:36:49.617Z</time></trkpt><trkpt lat="43.4480698" lon="11.1112649"><ele>194.0</ele><time>2026-05-01T15:36:50.61Z</time></trkpt><trkpt lat="43.4479939" lon="11.1112293"><ele>194.0</ele><time>2026-05-01T15:36:51.613Z</time></trkpt><trkpt lat="43.4479131" lon="11.1111883"><ele>194.0</ele><time>2026-05-01T15:36:52.615Z</time></trkpt><trkpt lat="43.4478463" lon="11.1111284"><ele>194.00000000000003</ele><time>2026-05-01T15:36:53.621Z</time></trkpt><trkpt lat="43.4477893" lon="11.1110597"><ele>194.0</ele><time>2026-05-01T15:36:54.623Z</time></trkpt><trkpt lat="43.4477446" lon="11.1109828"><ele>197.2</ele><time>2026-05-01T15:36:55.618Z</time></trkpt><trkpt lat="43.4477023" lon="11.1108902"><ele>200.39999999999998</ele><time>2026-05-01T15:36:56.619Z</time></trkpt><trkpt lat="43.447661" lon="11.1108051"><ele>203.6</ele><time>2026-05-01T15:36:57.61Z</time></trkpt><trkpt lat="43.4476101" lon="11.1107325"><ele>206.8</ele><time>2026-05-01T15:36:58.622Z</time></trkpt><trkpt lat="43.4475062" lon="11.1106645"><ele>210.0</ele><time>2026-05-01T15:37:00.607Z</time></trkpt><trkpt lat="43.4473895" lon="11.1106934"><ele>210.0</ele><time>2026-05-01T15:37:02.612Z</time></trkpt><trkpt lat="43.4473122" lon="11.1107396"><ele>210.0</ele><time>2026-05-01T15:37:03.618Z</time></trkpt><trkpt lat="43.4472348" lon="11.1107801"><ele>210.0</ele><time>2026-05-01T15:37:04.616Z</time></trkpt><trkpt lat="43.4471609" lon="11.1107966"><ele>210.0</ele><time>2026-05-01T15:37:05.615Z</time></trkpt><trkpt lat="43.4470912" lon="11.1107683"><ele>210.0</ele><time>2026-05-01T15:37:06.614Z</time></trkpt><trkpt lat="43.4470229" lon="11.1107141"><ele>210.0</ele><time>2026-05-01T15:37:07.618Z</time></trkpt><trkpt lat="43.4469463" lon="11.1106516"><ele>211.4</ele><time>2026-05-01T15:37:08.622Z</time></trkpt><trkpt lat="43.4468465" lon="11.1105744"><ele>212.8</ele><time>2026-05-01T15:37:09.616Z</time></trkpt><trkpt lat="43.4467426" lon="11.1104851"><ele>214.2</ele><time>2026-05-01T15:37:10.625Z</time></trkpt><trkpt lat="43.446645" lon="11.1104055"><ele>215.6</ele><time>2026-05-01T15:37:11.629Z</time></trkpt><trkpt lat="43.4465613" lon="11.1103413"><ele>217.0</ele><time>2026-05-01T15:37:12.612Z</time></trkpt><trkpt lat="43.446487" lon="11.1102956"><ele>216.99999999999997</ele><time>2026-05-01T15:37:13.615Z</time></trkpt><trkpt lat="43.4464171" lon="11.1102722"><ele>217.0</ele><time>2026-05-01T15:37:14.617Z</time></trkpt><trkpt lat="43.4463464" lon="11.1102774"><ele>217.0</ele><time>2026-05-01T15:37:15.607Z</time></trkpt><trkpt lat="43.4462735" lon="11.1102856"><ele>217.0</ele><time>2026-05-01T15:37:16.626Z</time></trkpt><trkpt lat="43.4461952" lon="11.1102867"><ele>216.99999999999997</ele><time>2026-05-01T15:37:17.622Z</time></trkpt><trkpt lat="43.4461123" lon="11.1102983"><ele>217.0</ele><time>2026-05-01T15:37:18.62Z</time></trkpt><trkpt lat="43.4460427" lon="11.1103253"><ele>217.6</ele><time>2026-05-01T15:37:19.617Z</time></trkpt><trkpt lat="43.4459827" lon="11.1103728"><ele>218.2</ele><time>2026-05-01T15:37:20.619Z</time></trkpt><trkpt lat="43.4458904" lon="11.1104829"><ele>218.8</ele><time>2026-05-01T15:37:22.611Z</time></trkpt><trkpt lat="43.4458397" lon="11.1105717"><ele>219.4</ele><time>2026-05-01T15:37:23.614Z</time></trkpt><trkpt lat="43.4457921" lon="11.1106654"><ele>220.0</ele><time>2026-05-01T15:37:24.623Z</time></trkpt><trkpt lat="43.4457325" lon="11.1107643"><ele>219.99999999999997</ele><time>2026-05-01T15:37:25.621Z</time></trkpt><trkpt lat="43.4456599" lon="11.110858"><ele>220.0</ele><time>2026-05-01T15:37:26.615Z</time></trkpt><trkpt lat="43.4455955" lon="11.1109452"><ele>220.0</ele><time>2026-05-01T15:37:27.608Z</time></trkpt><trkpt lat="43.4455409" lon="11.1110332"><ele>220.0</ele><time>2026-05-01T15:37:28.615Z</time></trkpt><trkpt lat="43.4454921" lon="11.1111219"><ele>219.99999999999997</ele><time>2026-05-01T15:37:29.612Z</time></trkpt><trkpt lat="43.4454482" lon="11.1112253"><ele>220.0</ele><time>2026-05-01T15:37:30.617Z</time></trkpt><trkpt lat="43.4454005" lon="11.1113314"><ele>220.4</ele><time>2026-05-01T15:37:31.617Z</time></trkpt><trkpt lat="43.4453644" lon="11.1114543"><ele>220.8</ele><time>2026-05-01T15:37:32.619Z</time></trkpt><trkpt lat="43.4453251" lon="11.1115959"><ele>221.2</ele><time>2026-05-01T15:37:33.621Z</time></trkpt><trkpt lat="43.4452804" lon="11.1117488"><ele>221.6</ele><time>2026-05-01T15:37:34.629Z</time></trkpt><trkpt lat="43.4452416" lon="11.1119076"><ele>222.0</ele><time>2026-05-01T15:37:35.619Z</time></trkpt><trkpt lat="43.4452023" lon="11.1120614"><ele>222.0</ele><time>2026-05-01T15:37:36.618Z</time></trkpt><trkpt lat="43.4451546" lon="11.1122205"><ele>222.0</ele><time>2026-05-01T15:37:37.613Z</time></trkpt><trkpt lat="43.4451038" lon="11.1123809"><ele>222.0</ele><time>2026-05-01T15:37:38.611Z</time></trkpt><trkpt lat="43.4450536" lon="11.1125391"><ele>222.0</ele><time>2026-05-01T15:37:39.623Z</time></trkpt><trkpt lat="43.4449856" lon="11.1126963"><ele>221.25</ele><time>2026-05-01T15:37:40.62Z</time></trkpt><trkpt lat="43.4449117" lon="11.1128405"><ele>220.5</ele><time>2026-05-01T15:37:41.608Z</time></trkpt><trkpt lat="43.444841" lon="11.1129861"><ele>219.75</ele><time>2026-05-01T15:37:42.617Z</time></trkpt><trkpt lat="43.4447751" lon="11.1131206"><ele>219.0</ele><time>2026-05-01T15:37:43.606Z</time></trkpt><trkpt lat="43.4447255" lon="11.1132545"><ele>219.0</ele><time>2026-05-01T15:37:44.63Z</time></trkpt><trkpt lat="43.444687" lon="11.1133746"><ele>218.99999999999997</ele><time>2026-05-01T15:37:45.618Z</time></trkpt><trkpt lat="43.4446565" lon="11.1134908"><ele>218.99999999999997</ele><time>2026-05-01T15:37:46.608Z</time></trkpt><trkpt lat="43.4446303" lon="11.1136093"><ele>219.0</ele><time>2026-05-01T15:37:47.62Z</time></trkpt><trkpt lat="43.4446175" lon="11.1137346"><ele>219.0</ele><time>2026-05-01T15:37:48.613Z</time></trkpt><trkpt lat="43.444615" lon="11.1138713"><ele>219.0</ele><time>2026-05-01T15:37:49.611Z</time></trkpt><trkpt lat="43.4446368" lon="11.1140153"><ele>218.99999999999997</ele><time>2026-05-01T15:37:50.618Z</time></trkpt><trkpt lat="43.4446721" lon="11.1141503"><ele>218.99999999999997</ele><time>2026-05-01T15:37:51.609Z</time></trkpt><trkpt lat="43.4447132" lon="11.1142702"><ele>219.0</ele><time>2026-05-01T15:37:52.611Z</time></trkpt><trkpt lat="43.4447658" lon="11.1143936"><ele>219.0</ele><time>2026-05-01T15:37:53.608Z</time></trkpt><trkpt lat="43.4448191" lon="11.1145154"><ele>219.39999999999998</ele><time>2026-05-01T15:37:54.625Z</time></trkpt><trkpt lat="43.4448678" lon="11.1146306"><ele>219.79999999999998</ele><time>2026-05-01T15:37:55.623Z</time></trkpt><trkpt lat="43.4449192" lon="11.1147255"><ele>220.20000000000002</ele><time>2026-05-01T15:37:56.62Z</time></trkpt><trkpt lat="43.4449763" lon="11.1148208"><ele>220.60000000000002</ele><time>2026-05-01T15:37:57.621Z</time></trkpt><trkpt lat="43.4450404" lon="11.1149122"><ele>221.0</ele><time>2026-05-01T15:37:58.621Z</time></trkpt><trkpt lat="43.4451034" lon="11.1150072"><ele>221.00000000000003</ele><time>2026-05-01T15:37:59.614Z</time></trkpt><trkpt lat="43.4451652" lon="11.1151031"><ele>221.0</ele><time>2026-05-01T15:38:00.628Z</time></trkpt><trkpt lat="43.4452219" lon="11.1152002"><ele>221.0</ele><time>2026-05-01T15:38:01.613Z</time></trkpt><trkpt lat="43.4452747" lon="11.1152958"><ele>221.0</ele><time>2026-05-01T15:38:02.615Z</time></trkpt><trkpt lat="43.4453279" lon="11.1153877"><ele>221.00000000000003</ele><time>2026-05-01T15:38:03.606Z</time></trkpt><trkpt lat="43.4453831" lon="11.1154754"><ele>221.0</ele><time>2026-05-01T15:38:04.608Z</time></trkpt><trkpt lat="43.4454367" lon="11.115557"><ele>219.4</ele><time>2026-05-01T15:38:05.613Z</time></trkpt><trkpt lat="43.4455025" lon="11.1156319"><ele>217.8</ele><time>2026-05-01T15:38:06.616Z</time></trkpt><trkpt lat="43.4455746" lon="11.1157077"><ele>216.20000000000002</ele><time>2026-05-01T15:38:07.597Z</time></trkpt><trkpt lat="43.4456538" lon="11.1157871"><ele>214.60000000000002</ele><time>2026-05-01T15:38:08.616Z</time></trkpt><trkpt lat="43.4457386" lon="11.1158718"><ele>213.0</ele><time>2026-05-01T15:38:09.62Z</time></trkpt><trkpt lat="43.4458237" lon="11.1159633"><ele>213.0</ele><time>2026-05-01T15:38:10.622Z</time></trkpt><trkpt lat="43.4459092" lon="11.1160651"><ele>213.0</ele><time>2026-05-01T15:38:11.618Z</time></trkpt><trkpt lat="43.4459839" lon="11.1161668"><ele>213.0</ele><time>2026-05-01T15:38:12.609Z</time></trkpt><trkpt lat="43.4460438" lon="11.1162566"><ele>213.0</ele><time>2026-05-01T15:38:13.605Z</time></trkpt><trkpt lat="43.4460937" lon="11.1163473"><ele>213.0</ele><time>2026-05-01T15:38:14.612Z</time></trkpt><trkpt lat="43.4461264" lon="11.1164291"><ele>213.0</ele><time>2026-05-01T15:38:15.617Z</time></trkpt><trkpt lat="43.4461562" lon="11.116506"><ele>213.0</ele><time>2026-05-01T15:38:16.61Z</time></trkpt><trkpt lat="43.4461943" lon="11.1166477"><ele>213.0</ele><time>2026-05-01T15:38:18.61Z</time></trkpt><trkpt lat="43.4461944" lon="11.1167387"><ele>213.0</ele><time>2026-05-01T15:38:19.613Z</time></trkpt><trkpt lat="43.4461878" lon="11.1168265"><ele>213.0</ele><time>2026-05-01T15:38:20.621Z</time></trkpt><trkpt lat="43.4461424" lon="11.1169868"><ele>213.0</ele><time>2026-05-01T15:38:22.615Z</time></trkpt><trkpt lat="43.4461008" lon="11.1170583"><ele>212.99999999999997</ele><time>2026-05-01T15:38:23.625Z</time></trkpt><trkpt lat="43.44605" lon="11.117111"><ele>213.0</ele><time>2026-05-01T15:38:24.613Z</time></trkpt><trkpt lat="43.4459901" lon="11.1171581"><ele>213.0</ele><time>2026-05-01T15:38:25.606Z</time></trkpt><trkpt lat="43.4459199" lon="11.1171871"><ele>213.0</ele><time>2026-05-01T15:38:26.615Z</time></trkpt><trkpt lat="43.4458486" lon="11.1172141"><ele>213.0</ele><time>2026-05-01T15:38:27.616Z</time></trkpt><trkpt lat="43.4457761" lon="11.1172512"><ele>212.99999999999997</ele><time>2026-05-01T15:38:28.619Z</time></trkpt><trkpt lat="43.4457095" lon="11.1173092"><ele>213.0</ele><time>2026-05-01T15:38:29.619Z</time></trkpt><trkpt lat="43.4456632" lon="11.1173829"><ele>213.83333333333334</ele><time>2026-05-01T15:38:30.606Z</time></trkpt><trkpt lat="43.445632" lon="11.1174721"><ele>214.66666666666669</ele><time>2026-05-01T15:38:31.61Z</time></trkpt><trkpt lat="43.4456154" lon="11.1175669"><ele>215.5</ele><time>2026-05-01T15:38:32.611Z</time></trkpt><trkpt lat="43.4456126" lon="11.1176681"><ele>216.33333333333334</ele><time>2026-05-01T15:38:33.619Z</time></trkpt><trkpt lat="43.4456322" lon="11.1177886"><ele>217.16666666666669</ele><time>2026-05-01T15:38:34.611Z</time></trkpt><trkpt lat="43.4456566" lon="11.1179299"><ele>218.0</ele><time>2026-05-01T15:38:35.619Z</time></trkpt><trkpt lat="43.4456895" lon="11.1181028"><ele>218.4</ele><time>2026-05-01T15:38:36.619Z</time></trkpt><trkpt lat="43.445715" lon="11.118253"><ele>218.8</ele><time>2026-05-01T15:38:37.617Z</time></trkpt><trkpt lat="43.4457283" lon="11.1183906"><ele>219.2</ele><time>2026-05-01T15:38:38.623Z</time></trkpt><trkpt lat="43.4457415" lon="11.1185238"><ele>219.6</ele><time>2026-05-01T15:38:39.618Z</time></trkpt><trkpt lat="43.4457331" lon="11.11866"><ele>220.0</ele><time>2026-05-01T15:38:40.624Z</time></trkpt><trkpt lat="43.445711" lon="11.1187911"><ele>220.0</ele><time>2026-05-01T15:38:41.622Z</time></trkpt><trkpt lat="43.4456757" lon="11.1189169"><ele>220.0</ele><time>2026-05-01T15:38:42.632Z</time></trkpt><trkpt lat="43.4456309" lon="11.1190371"><ele>220.0</ele><time>2026-05-01T15:38:43.627Z</time></trkpt><trkpt lat="43.4455872" lon="11.1191541"><ele>220.0</ele><time>2026-05-01T15:38:44.607Z</time></trkpt><trkpt lat="43.4455411" lon="11.1192559"><ele>220.0</ele><time>2026-05-01T15:38:45.61Z</time></trkpt><trkpt lat="43.4455007" lon="11.1193367"><ele>219.6</ele><time>2026-05-01T15:38:46.615Z</time></trkpt><trkpt lat="43.445443" lon="11.1194031"><ele>219.2</ele><time>2026-05-01T15:38:47.612Z</time></trkpt><trkpt lat="43.4453669" lon="11.1194606"><ele>218.8</ele><time>2026-05-01T15:38:48.621Z</time></trkpt><trkpt lat="43.4452832" lon="11.119514"><ele>218.4</ele><time>2026-05-01T15:38:49.607Z</time></trkpt><trkpt lat="43.44519" lon="11.1195912"><ele>218.0</ele><time>2026-05-01T15:38:50.614Z</time></trkpt><trkpt lat="43.4450879" lon="11.1196835"><ele>218.0</ele><time>2026-05-01T15:38:51.611Z</time></trkpt><trkpt lat="43.4449886" lon="11.1197896"><ele>218.0</ele><time>2026-05-01T15:38:52.6Z</time></trkpt><trkpt lat="43.4449008" lon="11.119886"><ele>218.0</ele><time>2026-05-01T15:38:53.611Z</time></trkpt><trkpt lat="43.4448324" lon="11.1199783"><ele>218.0</ele><time>2026-05-01T15:38:54.605Z</time></trkpt><trkpt lat="43.4447714" lon="11.1200834"><ele>218.0</ele><time>2026-05-01T15:38:55.613Z</time></trkpt><trkpt lat="43.4447087" lon="11.1201989"><ele>217.0</ele><time>2026-05-01T15:38:56.612Z</time></trkpt><trkpt lat="43.4446401" lon="11.1203225"><ele>216.0</ele><time>2026-05-01T15:38:57.613Z</time></trkpt><trkpt lat="43.444568" lon="11.1204449"><ele>215.0</ele><time>2026-05-01T15:38:58.6Z</time></trkpt><trkpt lat="43.4444924" lon="11.1205627"><ele>214.0</ele><time>2026-05-01T15:38:59.611Z</time></trkpt><trkpt lat="43.4444056" lon="11.1206749"><ele>214.6</ele><time>2026-05-01T15:39:00.61Z</time></trkpt><trkpt lat="43.4443189" lon="11.1207664"><ele>215.2</ele><time>2026-05-01T15:39:01.595Z</time></trkpt><trkpt lat="43.444229" lon="11.1208583"><ele>215.79999999999998</ele><time>2026-05-01T15:39:02.599Z</time></trkpt><trkpt lat="43.4441306" lon="11.120952"><ele>216.39999999999998</ele><time>2026-05-01T15:39:03.607Z</time></trkpt><trkpt lat="43.4440443" lon="11.1210323"><ele>217.0</ele><time>2026-05-01T15:39:04.613Z</time></trkpt><trkpt lat="43.4439813" lon="11.1210923"><ele>216.99999999999997</ele><time>2026-05-01T15:39:05.614Z</time></trkpt><trkpt lat="43.4439197" lon="11.1211599"><ele>217.0</ele><time>2026-05-01T15:39:06.601Z</time></trkpt><trkpt lat="43.4438573" lon="11.1212407"><ele>217.0</ele><time>2026-05-01T15:39:07.602Z</time></trkpt><trkpt lat="43.4438013" lon="11.1213263"><ele>217.0</ele><time>2026-05-01T15:39:08.606Z</time></trkpt><trkpt lat="43.4437436" lon="11.1214012"><ele>216.99999999999997</ele><time>2026-05-01T15:39:09.617Z</time></trkpt><trkpt lat="43.4436874" lon="11.1214827"><ele>217.0</ele><time>2026-05-01T15:39:10.613Z</time></trkpt><trkpt lat="43.4436318" lon="11.1215533"><ele>215.66666666666666</ele><time>2026-05-01T15:39:11.603Z</time></trkpt><trkpt lat="43.4435763" lon="11.1216234"><ele>214.33333333333331</ele><time>2026-05-01T15:39:12.606Z</time></trkpt><trkpt lat="43.4435229" lon="11.1216976"><ele>213.0</ele><time>2026-05-01T15:39:13.605Z</time></trkpt><trkpt lat="43.4434893" lon="11.1217747"><ele>211.66666666666669</ele><time>2026-05-01T15:39:14.603Z</time></trkpt><trkpt lat="43.4434631" lon="11.1218568"><ele>210.33333333333334</ele><time>2026-05-01T15:39:15.604Z</time></trkpt><trkpt lat="43.4434533" lon="11.1220181"><ele>209.0</ele><time>2026-05-01T15:39:17.61Z</time></trkpt><trkpt lat="43.4435279" lon="11.1221497"><ele>209.0</ele><time>2026-05-01T15:39:19.61Z</time></trkpt><trkpt lat="43.443649" lon="11.1222338"><ele>209.0</ele><time>2026-05-01T15:39:21.617Z</time></trkpt><trkpt lat="43.4437267" lon="11.1222685"><ele>209.0</ele><time>2026-05-01T15:39:22.619Z</time></trkpt><trkpt lat="43.4438096" lon="11.1223055"><ele>209.0</ele><time>2026-05-01T15:39:23.598Z</time></trkpt><trkpt lat="43.4439009" lon="11.1223505"><ele>209.0</ele><time>2026-05-01T15:39:24.618Z</time></trkpt><trkpt lat="43.4440015" lon="11.1224028"><ele>208.0</ele><time>2026-05-01T15:39:25.617Z</time></trkpt><trkpt lat="43.4440993" lon="11.1224594"><ele>207.0</ele><time>2026-05-01T15:39:26.621Z</time></trkpt><trkpt lat="43.4441944" lon="11.1225159"><ele>206.0</ele><time>2026-05-01T15:39:27.603Z</time></trkpt><trkpt lat="43.4442818" lon="11.1225675"><ele>205.0</ele><time>2026-05-01T15:39:28.61Z</time></trkpt><trkpt lat="43.4443725" lon="11.1226259"><ele>204.0</ele><time>2026-05-01T15:39:29.605Z</time></trkpt><trkpt lat="43.4444615" lon="11.1226885"><ele>204.0</ele><time>2026-05-01T15:39:30.618Z</time></trkpt><trkpt lat="43.4445458" lon="11.1227599"><ele>204.0</ele><time>2026-05-01T15:39:31.607Z</time></trkpt><trkpt lat="43.4446245" lon="11.1228558"><ele>204.0</ele><time>2026-05-01T15:39:32.612Z</time></trkpt><trkpt lat="43.4446874" lon="11.1229701"><ele>204.0</ele><time>2026-05-01T15:39:33.616Z</time></trkpt><trkpt lat="43.4447406" lon="11.1230934"><ele>204.0</ele><time>2026-05-01T15:39:34.607Z</time></trkpt><trkpt lat="43.4447829" lon="11.1232308"><ele>203.5</ele><time>2026-05-01T15:39:35.611Z</time></trkpt><trkpt lat="43.4448264" lon="11.1233736"><ele>203.0</ele><time>2026-05-01T15:39:36.618Z</time></trkpt><trkpt lat="43.4448757" lon="11.1235224"><ele>202.5</ele><time>2026-05-01T15:39:37.616Z</time></trkpt><trkpt lat="43.4449256" lon="11.1236757"><ele>202.0</ele><time>2026-05-01T15:39:38.62Z</time></trkpt><trkpt lat="43.4449787" lon="11.12384"><ele>202.0</ele><time>2026-05-01T15:39:39.64Z</time></trkpt><trkpt lat="43.4450349" lon="11.1240142"><ele>202.0</ele><time>2026-05-01T15:39:40.622Z</time></trkpt><trkpt lat="43.4450899" lon="11.1241906"><ele>202.0</ele><time>2026-05-01T15:39:41.611Z</time></trkpt><trkpt lat="43.4451403" lon="11.1243513"><ele>202.0</ele><time>2026-05-01T15:39:42.62Z</time></trkpt><trkpt lat="43.4451809" lon="11.1244871"><ele>201.16666666666666</ele><time>2026-05-01T15:39:43.614Z</time></trkpt><trkpt lat="43.4452206" lon="11.1246139"><ele>200.33333333333331</ele><time>2026-05-01T15:39:44.618Z</time></trkpt><trkpt lat="43.4452604" lon="11.1247232"><ele>199.5</ele><time>2026-05-01T15:39:45.603Z</time></trkpt><trkpt lat="43.445293" lon="11.1248286"><ele>198.66666666666669</ele><time>2026-05-01T15:39:46.611Z</time></trkpt><trkpt lat="43.4453234" lon="11.1249359"><ele>197.83333333333334</ele><time>2026-05-01T15:39:47.611Z</time></trkpt><trkpt lat="43.4453582" lon="11.1250393"><ele>197.0</ele><time>2026-05-01T15:39:48.612Z</time></trkpt><trkpt lat="43.4453907" lon="11.1251381"><ele>196.66666666666669</ele><time>2026-05-01T15:39:49.615Z</time></trkpt><trkpt lat="43.4454272" lon="11.125237"><ele>196.33333333333334</ele><time>2026-05-01T15:39:50.608Z</time></trkpt><trkpt lat="43.4454663" lon="11.1253225"><ele>196.0</ele><time>2026-05-01T15:39:51.609Z</time></trkpt><trkpt lat="43.4455163" lon="11.1253981"><ele>195.66666666666669</ele><time>2026-05-01T15:39:52.608Z</time></trkpt><trkpt lat="43.4455816" lon="11.1254505"><ele>195.33333333333334</ele><time>2026-05-01T15:39:53.605Z</time></trkpt><trkpt lat="43.4456625" lon="11.1254965"><ele>195.0</ele><time>2026-05-01T15:39:54.614Z</time></trkpt><trkpt lat="43.4457355" lon="11.1255413"><ele>195.0</ele><time>2026-05-01T15:39:55.611Z</time></trkpt><trkpt lat="43.4458188" lon="11.1255981"><ele>195.0</ele><time>2026-05-01T15:39:56.609Z</time></trkpt><trkpt lat="43.4459115" lon="11.1256641"><ele>195.0</ele><time>2026-05-01T15:39:57.61Z</time></trkpt><trkpt lat="43.4460121" lon="11.1257389"><ele>195.0</ele><time>2026-05-01T15:39:58.605Z</time></trkpt><trkpt lat="43.4461081" lon="11.1258097"><ele>195.0</ele><time>2026-05-01T15:39:59.612Z</time></trkpt><trkpt lat="43.4462027" lon="11.1258937"><ele>191.25</ele><time>2026-05-01T15:40:00.601Z</time></trkpt><trkpt lat="43.4462988" lon="11.1259778"><ele>187.5</ele><time>2026-05-01T15:40:01.611Z</time></trkpt><trkpt lat="43.4464012" lon="11.1260614"><ele>183.75</ele><time>2026-05-01T15:40:02.615Z</time></trkpt><trkpt lat="43.4465092" lon="11.1261399"><ele>180.0</ele><time>2026-05-01T15:40:03.624Z</time></trkpt><trkpt lat="43.4466176" lon="11.126209"><ele>180.0</ele><time>2026-05-01T15:40:04.628Z</time></trkpt><trkpt lat="43.4467322" lon="11.1262812"><ele>180.0</ele><time>2026-05-01T15:40:05.614Z</time></trkpt><trkpt lat="43.4468415" lon="11.1263539"><ele>180.0</ele><time>2026-05-01T15:40:06.61Z</time></trkpt><trkpt lat="43.4469501" lon="11.1264134"><ele>180.0</ele><time>2026-05-01T15:40:07.616Z</time></trkpt><trkpt lat="43.4470639" lon="11.126455"><ele>177.75</ele><time>2026-05-01T15:40:08.608Z</time></trkpt><trkpt lat="43.4471827" lon="11.1264714"><ele>175.5</ele><time>2026-05-01T15:40:09.606Z</time></trkpt><trkpt lat="43.447298" lon="11.1264719"><ele>173.25</ele><time>2026-05-01T15:40:10.611Z</time></trkpt><trkpt lat="43.4474085" lon="11.1264536"><ele>171.0</ele><time>2026-05-01T15:40:11.612Z</time></trkpt><trkpt lat="43.4475132" lon="11.1264247"><ele>171.0</ele><time>2026-05-01T15:40:12.603Z</time></trkpt><trkpt lat="43.4476017" lon="11.1263992"><ele>171.0</ele><time>2026-05-01T15:40:13.613Z</time></trkpt><trkpt lat="43.4476862" lon="11.1264035"><ele>171.0</ele><time>2026-05-01T15:40:14.606Z</time></trkpt><trkpt lat="43.4477822" lon="11.126422"><ele>171.0</ele><time>2026-05-01T15:40:15.619Z</time></trkpt><trkpt lat="43.4478804" lon="11.1264517"><ele>171.0</ele><time>2026-05-01T15:40:16.611Z</time></trkpt><trkpt lat="43.4479782" lon="11.1264652"><ele>171.83333333333334</ele><time>2026-05-01T15:40:17.613Z</time></trkpt><trkpt lat="43.4480625" lon="11.1264883"><ele>172.66666666666666</ele><time>2026-05-01T15:40:18.612Z</time></trkpt><trkpt lat="43.4481459" lon="11.1265145"><ele>173.5</ele><time>2026-05-01T15:40:19.616Z</time></trkpt><trkpt lat="43.4482262" lon="11.126546"><ele>174.33333333333331</ele><time>2026-05-01T15:40:20.624Z</time></trkpt><trkpt lat="43.448309" lon="11.1265723"><ele>175.16666666666666</ele><time>2026-05-01T15:40:21.618Z</time></trkpt><trkpt lat="43.4483966" lon="11.1265946"><ele>176.0</ele><time>2026-05-01T15:40:22.622Z</time></trkpt><trkpt lat="43.4484826" lon="11.1266168"><ele>179.20000000000002</ele><time>2026-05-01T15:40:23.608Z</time></trkpt><trkpt lat="43.4485728" lon="11.1266472"><ele>182.4</ele><time>2026-05-01T15:40:24.613Z</time></trkpt><trkpt lat="43.448673" lon="11.1266739"><ele>185.6</ele><time>2026-05-01T15:40:25.61Z</time></trkpt><trkpt lat="43.4487808" lon="11.1267011"><ele>188.8</ele><time>2026-05-01T15:40:26.613Z</time></trkpt><trkpt lat="43.4488949" lon="11.1267219"><ele>192.0</ele><time>2026-05-01T15:40:27.6Z</time></trkpt><trkpt lat="43.449002" lon="11.1267377"><ele>192.0</ele><time>2026-05-01T15:40:28.616Z</time></trkpt><trkpt lat="43.4491049" lon="11.1267575"><ele>192.0</ele><time>2026-05-01T15:40:29.614Z</time></trkpt><trkpt lat="43.4491906" lon="11.1267854"><ele>192.0</ele><time>2026-05-01T15:40:30.608Z</time></trkpt><trkpt lat="43.4492682" lon="11.1268068"><ele>192.0</ele><time>2026-05-01T15:40:31.617Z</time></trkpt><trkpt lat="43.4493493" lon="11.126848"><ele>192.0</ele><time>2026-05-01T15:40:32.617Z</time></trkpt><trkpt lat="43.4494388" lon="11.1269092"><ele>192.0</ele><time>2026-05-01T15:40:33.619Z</time></trkpt><trkpt lat="43.4495248" lon="11.1269945"><ele>192.0</ele><time>2026-05-01T15:40:34.611Z</time></trkpt><trkpt lat="43.4496005" lon="11.1270755"><ele>192.0</ele><time>2026-05-01T15:40:35.611Z</time></trkpt><trkpt lat="43.4496921" lon="11.1271353"><ele>192.0</ele><time>2026-05-01T15:40:36.63Z</time></trkpt><trkpt lat="43.4497931" lon="11.1271691"><ele>192.0</ele><time>2026-05-01T15:40:37.606Z</time></trkpt><trkpt lat="43.4498896" lon="11.1271871"><ele>193.6</ele><time>2026-05-01T15:40:38.613Z</time></trkpt><trkpt lat="43.449977" lon="11.1271827"><ele>195.2</ele><time>2026-05-01T15:40:39.613Z</time></trkpt><trkpt lat="43.4500734" lon="11.127166"><ele>196.8</ele><time>2026-05-01T15:40:40.619Z</time></trkpt><trkpt lat="43.4501817" lon="11.1271442"><ele>198.4</ele><time>2026-05-01T15:40:41.614Z</time></trkpt><trkpt lat="43.4503002" lon="11.127119"><ele>200.0</ele><time>2026-05-01T15:40:42.62Z</time></trkpt><trkpt lat="43.4504271" lon="11.1270897"><ele>199.33333333333334</ele><time>2026-05-01T15:40:43.599Z</time></trkpt><trkpt lat="43.450566" lon="11.1270522"><ele>198.66666666666669</ele><time>2026-05-01T15:40:44.615Z</time></trkpt><trkpt lat="43.4507239" lon="11.127019"><ele>198.0</ele><time>2026-05-01T15:40:45.608Z</time></trkpt><trkpt lat="43.4508816" lon="11.1269825"><ele>198.0</ele><time>2026-05-01T15:40:46.615Z</time></trkpt><trkpt lat="43.4510405" lon="11.1269444"><ele>198.0</ele><time>2026-05-01T15:40:47.613Z</time></trkpt><trkpt lat="43.451199" lon="11.1269193"><ele>198.0</ele><time>2026-05-01T15:40:48.61Z</time></trkpt><trkpt lat="43.45134" lon="11.1268967"><ele>195.75</ele><time>2026-05-01T15:40:49.616Z</time></trkpt><trkpt lat="43.4514607" lon="11.1268745"><ele>193.5</ele><time>2026-05-01T15:40:50.622Z</time></trkpt><trkpt lat="43.4515792" lon="11.1268502"><ele>191.25</ele><time>2026-05-01T15:40:51.611Z</time></trkpt><trkpt lat="43.4517039" lon="11.1268278"><ele>189.0</ele><time>2026-05-01T15:40:52.616Z</time></trkpt><trkpt lat="43.4518289" lon="11.126797"><ele>189.0</ele><time>2026-05-01T15:40:53.617Z</time></trkpt><trkpt lat="43.4519497" lon="11.1267728"><ele>189.0</ele><time>2026-05-01T15:40:54.618Z</time></trkpt><trkpt lat="43.452078" lon="11.1267664"><ele>189.0</ele><time>2026-05-01T15:40:55.617Z</time></trkpt><trkpt lat="43.4522089" lon="11.1267602"><ele>189.0</ele><time>2026-05-01T15:40:56.616Z</time></trkpt><trkpt lat="43.452356" lon="11.1267621"><ele>189.33333333333334</ele><time>2026-05-01T15:40:57.619Z</time></trkpt><trkpt lat="43.4525135" lon="11.1267755"><ele>189.66666666666669</ele><time>2026-05-01T15:40:58.611Z</time></trkpt><trkpt lat="43.4526787" lon="11.1268171"><ele>190.0</ele><time>2026-05-01T15:40:59.62Z</time></trkpt><trkpt lat="43.4528268" lon="11.1268528"><ele>190.25</ele><time>2026-05-01T15:41:00.616Z</time></trkpt><trkpt lat="43.4529564" lon="11.1268803"><ele>190.5</ele><time>2026-05-01T15:41:01.619Z</time></trkpt><trkpt lat="43.4530789" lon="11.1268984"><ele>190.75</ele><time>2026-05-01T15:41:02.613Z</time></trkpt><trkpt lat="43.4531934" lon="11.1269048"><ele>191.0</ele><time>2026-05-01T15:41:03.62Z</time></trkpt><trkpt lat="43.4533047" lon="11.1269042"><ele>191.0</ele><time>2026-05-01T15:41:04.62Z</time></trkpt><trkpt lat="43.4534214" lon="11.1269015"><ele>191.0</ele><time>2026-05-01T15:41:05.622Z</time></trkpt><trkpt lat="43.4535341" lon="11.1269128"><ele>191.0</ele><time>2026-05-01T15:41:06.615Z</time></trkpt><trkpt lat="43.4536508" lon="11.1269497"><ele>191.0</ele><time>2026-05-01T15:41:07.613Z</time></trkpt><trkpt lat="43.4537776" lon="11.1270164"><ele>192.5</ele><time>2026-05-01T15:41:08.621Z</time></trkpt><trkpt lat="43.4539045" lon="11.1270786"><ele>194.0</ele><time>2026-05-01T15:41:09.617Z</time></trkpt><trkpt lat="43.4540321" lon="11.127126"><ele>195.5</ele><time>2026-05-01T15:41:10.612Z</time></trkpt><trkpt lat="43.4541611" lon="11.1271637"><ele>197.0</ele><time>2026-05-01T15:41:11.618Z</time></trkpt><trkpt lat="43.4542929" lon="11.1272043"><ele>197.0</ele><time>2026-05-01T15:41:12.606Z</time></trkpt><trkpt lat="43.4544276" lon="11.127243"><ele>197.0</ele><time>2026-05-01T15:41:13.613Z</time></trkpt><trkpt lat="43.4545576" lon="11.1272821"><ele>197.0</ele><time>2026-05-01T15:41:14.61Z</time></trkpt><trkpt lat="43.4546869" lon="11.1273289"><ele>197.0</ele><time>2026-05-01T15:41:15.612Z</time></trkpt><trkpt lat="43.4548096" lon="11.1273648"><ele>197.25</ele><time>2026-05-01T15:41:16.622Z</time></trkpt><trkpt lat="43.4549324" lon="11.1273979"><ele>197.5</ele><time>2026-05-01T15:41:17.612Z</time></trkpt><trkpt lat="43.45506" lon="11.1274187"><ele>197.75</ele><time>2026-05-01T15:41:18.622Z</time></trkpt><trkpt lat="43.4551887" lon="11.1274457"><ele>198.0</ele><time>2026-05-01T15:41:19.615Z</time></trkpt><trkpt lat="43.4553189" lon="11.1274746"><ele>198.0</ele><time>2026-05-01T15:41:20.624Z</time></trkpt><trkpt lat="43.4554271" lon="11.1275175"><ele>198.0</ele><time>2026-05-01T15:41:21.617Z</time></trkpt><trkpt lat="43.4555189" lon="11.1275601"><ele>198.0</ele><time>2026-05-01T15:41:22.614Z</time></trkpt><trkpt lat="43.4556015" lon="11.1275805"><ele>198.0</ele><time>2026-05-01T15:41:23.626Z</time></trkpt><trkpt lat="43.4556768" lon="11.1276008"><ele>198.0</ele><time>2026-05-01T15:41:24.612Z</time></trkpt><trkpt lat="43.4557499" lon="11.1276245"><ele>198.0</ele><time>2026-05-01T15:41:25.624Z</time></trkpt><trkpt lat="43.4558257" lon="11.1276509"><ele>198.66666666666666</ele><time>2026-05-01T15:41:26.615Z</time></trkpt><trkpt lat="43.4559201" lon="11.1277024"><ele>199.33333333333331</ele><time>2026-05-01T15:41:28.61Z</time></trkpt><trkpt lat="43.4559513" lon="11.1277892"><ele>200.0</ele><time>2026-05-01T15:41:30.609Z</time></trkpt><trkpt lat="43.4559628" lon="11.1278955"><ele>200.66666666666666</ele><time>2026-05-01T15:41:49.612Z</time></trkpt><trkpt lat="43.4559594" lon="11.1280045"><ele>201.33333333333331</ele><time>2026-05-01T15:44:06.616Z</time></trkpt><trkpt lat="43.4559679" lon="11.1281405"><ele>202.0</ele><time>2026-05-01T15:44:09.625Z</time></trkpt><trkpt lat="43.4559852" lon="11.1282946"><ele>202.0</ele><time>2026-05-01T15:44:11.615Z</time></trkpt><trkpt lat="43.4560024" lon="11.1284562"><ele>202.0</ele><time>2026-05-01T15:44:13.603Z</time></trkpt><trkpt lat="43.456013" lon="11.1286378"><ele>202.0</ele><time>2026-05-01T15:44:15.613Z</time></trkpt><trkpt lat="43.4560343" lon="11.1287434"><ele>202.0</ele><time>2026-05-01T15:44:16.608Z</time></trkpt><trkpt lat="43.4560688" lon="11.1288596"><ele>202.0</ele><time>2026-05-01T15:44:17.617Z</time></trkpt><trkpt lat="43.4561275" lon="11.1289931"><ele>201.2</ele><time>2026-05-01T15:44:18.606Z</time></trkpt><trkpt lat="43.4561893" lon="11.1291224"><ele>200.39999999999998</ele><time>2026-05-01T15:44:19.616Z</time></trkpt><trkpt lat="43.4562502" lon="11.1292331"><ele>199.60000000000002</ele><time>2026-05-01T15:44:20.642Z</time></trkpt><trkpt lat="43.4563151" lon="11.1293285"><ele>198.8</ele><time>2026-05-01T15:44:21.621Z</time></trkpt><trkpt lat="43.4563916" lon="11.1294342"><ele>198.0</ele><time>2026-05-01T15:44:22.615Z</time></trkpt><trkpt lat="43.4564776" lon="11.1295357"><ele>198.0</ele><time>2026-05-01T15:44:23.616Z</time></trkpt><trkpt lat="43.4565649" lon="11.1296494"><ele>198.0</ele><time>2026-05-01T15:44:24.62Z</time></trkpt><trkpt lat="43.4566575" lon="11.129764"><ele>198.0</ele><time>2026-05-01T15:44:25.615Z</time></trkpt><trkpt lat="43.4567545" lon="11.1298951"><ele>198.0</ele><time>2026-05-01T15:44:26.605Z</time></trkpt><trkpt lat="43.4568602" lon="11.1300276"><ele>198.75</ele><time>2026-05-01T15:44:27.623Z</time></trkpt><trkpt lat="43.4569699" lon="11.1301695"><ele>199.5</ele><time>2026-05-01T15:44:28.606Z</time></trkpt><trkpt lat="43.4570723" lon="11.1303055"><ele>200.25</ele><time>2026-05-01T15:44:29.598Z</time></trkpt><trkpt lat="43.4571696" lon="11.1304296"><ele>201.0</ele><time>2026-05-01T15:44:30.618Z</time></trkpt><trkpt lat="43.4572638" lon="11.1305498"><ele>198.75</ele><time>2026-05-01T15:44:31.618Z</time></trkpt><trkpt lat="43.4573499" lon="11.1306607"><ele>196.5</ele><time>2026-05-01T15:44:32.612Z</time></trkpt><trkpt lat="43.4574418" lon="11.1307731"><ele>194.25</ele><time>2026-05-01T15:44:33.613Z</time></trkpt><trkpt lat="43.4575266" lon="11.1308818"><ele>192.0</ele><time>2026-05-01T15:44:34.616Z</time></trkpt><trkpt lat="43.4575999" lon="11.1309897"><ele>191.6</ele><time>2026-05-01T15:44:35.601Z</time></trkpt><trkpt lat="43.4576588" lon="11.1310954"><ele>191.2</ele><time>2026-05-01T15:44:36.602Z</time></trkpt><trkpt lat="43.4577048" lon="11.1312212"><ele>190.8</ele><time>2026-05-01T15:44:37.608Z</time></trkpt><trkpt lat="43.4577359" lon="11.1313294"><ele>190.4</ele><time>2026-05-01T15:44:38.609Z</time></trkpt><trkpt lat="43.4577647" lon="11.1314533"><ele>190.0</ele><time>2026-05-01T15:44:39.614Z</time></trkpt><trkpt lat="43.4578002" lon="11.1315825"><ele>189.25</ele><time>2026-05-01T15:44:40.624Z</time></trkpt><trkpt lat="43.4578626" lon="11.1317223"><ele>188.5</ele><time>2026-05-01T15:44:41.63Z</time></trkpt><trkpt lat="43.4579264" lon="11.1318981"><ele>187.75</ele><time>2026-05-01T15:44:42.624Z</time></trkpt><trkpt lat="43.4579982" lon="11.132111"><ele>187.0</ele><time>2026-05-01T15:44:43.62Z</time></trkpt><trkpt lat="43.4580584" lon="11.1323407"><ele>183.0</ele><time>2026-05-01T15:44:44.62Z</time></trkpt><trkpt lat="43.4581168" lon="11.1325584"><ele>179.0</ele><time>2026-05-01T15:44:45.616Z</time></trkpt><trkpt lat="43.4581842" lon="11.1327508"><ele>175.0</ele><time>2026-05-01T15:44:46.617Z</time></trkpt><trkpt lat="43.4582533" lon="11.1329398"><ele>175.0</ele><time>2026-05-01T15:44:47.627Z</time></trkpt><trkpt lat="43.4583214" lon="11.1331215"><ele>175.0</ele><time>2026-05-01T15:44:48.605Z</time></trkpt><trkpt lat="43.4583909" lon="11.1332928"><ele>175.0</ele><time>2026-05-01T15:44:49.612Z</time></trkpt><trkpt lat="43.4584676" lon="11.1334437"><ele>175.0</ele><time>2026-05-01T15:44:50.611Z</time></trkpt><trkpt lat="43.4585445" lon="11.1335775"><ele>168.25</ele><time>2026-05-01T15:44:51.625Z</time></trkpt><trkpt lat="43.4586235" lon="11.1337043"><ele>161.5</ele><time>2026-05-01T15:44:52.609Z</time></trkpt><trkpt lat="43.4586926" lon="11.1338319"><ele>154.75</ele><time>2026-05-01T15:44:53.603Z</time></trkpt><trkpt lat="43.4587446" lon="11.1339738"><ele>148.0</ele><time>2026-05-01T15:44:54.604Z</time></trkpt><trkpt lat="43.4587872" lon="11.1341368"><ele>147.25</ele><time>2026-05-01T15:44:55.603Z</time></trkpt><trkpt lat="43.4588341" lon="11.1342922"><ele>146.5</ele><time>2026-05-01T15:44:56.612Z</time></trkpt><trkpt lat="43.4588791" lon="11.1344457"><ele>145.75</ele><time>2026-05-01T15:44:57.619Z</time></trkpt><trkpt lat="43.4589221" lon="11.1345878"><ele>145.0</ele><time>2026-05-01T15:44:58.608Z</time></trkpt><trkpt lat="43.4589665" lon="11.1347265"><ele>145.0</ele><time>2026-05-01T15:44:59.606Z</time></trkpt><trkpt lat="43.4590239" lon="11.1348715"><ele>145.0</ele><time>2026-05-01T15:45:00.611Z</time></trkpt><trkpt lat="43.4590981" lon="11.134999"><ele>145.0</ele><time>2026-05-01T15:45:01.61Z</time></trkpt><trkpt lat="43.4591902" lon="11.1351078"><ele>145.0</ele><time>2026-05-01T15:45:02.609Z</time></trkpt><trkpt lat="43.4592892" lon="11.1352127"><ele>140.75</ele><time>2026-05-01T15:45:03.616Z</time></trkpt><trkpt lat="43.4593846" lon="11.1353385"><ele>136.5</ele><time>2026-05-01T15:45:04.605Z</time></trkpt><trkpt lat="43.4594824" lon="11.1354874"><ele>132.25</ele><time>2026-05-01T15:45:05.611Z</time></trkpt><trkpt lat="43.4595736" lon="11.1356541"><ele>128.0</ele><time>2026-05-01T15:45:06.618Z</time></trkpt><trkpt lat="43.4596585" lon="11.1358081"><ele>125.75</ele><time>2026-05-01T15:45:07.613Z</time></trkpt><trkpt lat="43.4597369" lon="11.1359411"><ele>123.5</ele><time>2026-05-01T15:45:08.611Z</time></trkpt><trkpt lat="43.459807" lon="11.1360712"><ele>121.25</ele><time>2026-05-01T15:45:09.619Z</time></trkpt><trkpt lat="43.459876" lon="11.1361907"><ele>119.0</ele><time>2026-05-01T15:45:10.609Z</time></trkpt><trkpt lat="43.4599485" lon="11.1362937"><ele>119.0</ele><time>2026-05-01T15:45:11.63Z</time></trkpt><trkpt lat="43.4600465" lon="11.1363576"><ele>119.0</ele><time>2026-05-01T15:45:12.617Z</time></trkpt><trkpt lat="43.4601573" lon="11.1364001"><ele>119.0</ele><time>2026-05-01T15:45:13.619Z</time></trkpt><trkpt lat="43.4602705" lon="11.1364349"><ele>119.0</ele><time>2026-05-01T15:45:14.614Z</time></trkpt><trkpt lat="43.4603878" lon="11.1364706"><ele>120.0</ele><time>2026-05-01T15:45:15.615Z</time></trkpt><trkpt lat="43.4605107" lon="11.1365181"><ele>121.0</ele><time>2026-05-01T15:45:16.615Z</time></trkpt><trkpt lat="43.4606261" lon="11.1365543"><ele>122.0</ele><time>2026-05-01T15:45:17.61Z</time></trkpt><trkpt lat="43.4607343" lon="11.1365717"><ele>123.0</ele><time>2026-05-01T15:45:18.612Z</time></trkpt><trkpt lat="43.4608473" lon="11.1365516"><ele>123.0</ele><time>2026-05-01T15:45:19.621Z</time></trkpt><trkpt lat="43.4609653" lon="11.1365084"><ele>123.0</ele><time>2026-05-01T15:45:20.623Z</time></trkpt><trkpt lat="43.4611103" lon="11.1364708"><ele>123.0</ele><time>2026-05-01T15:45:21.607Z</time></trkpt><trkpt lat="43.4612496" lon="11.1364421"><ele>123.0</ele><time>2026-05-01T15:45:22.614Z</time></trkpt><trkpt lat="43.461376" lon="11.1364224"><ele>127.0</ele><time>2026-05-01T15:45:23.618Z</time></trkpt><trkpt lat="43.4615064" lon="11.1364163"><ele>131.0</ele><time>2026-05-01T15:45:24.611Z</time></trkpt><trkpt lat="43.4616371" lon="11.1364325"><ele>135.0</ele><time>2026-05-01T15:45:25.622Z</time></trkpt><trkpt lat="43.4617581" lon="11.1364597"><ele>139.0</ele><time>2026-05-01T15:45:26.62Z</time></trkpt><trkpt lat="43.4618715" lon="11.1365022"><ele>137.25</ele><time>2026-05-01T15:45:27.605Z</time></trkpt><trkpt lat="43.4619929" lon="11.1365666"><ele>135.5</ele><time>2026-05-01T15:45:28.617Z</time></trkpt><trkpt lat="43.4621208" lon="11.1366567"><ele>133.75</ele><time>2026-05-01T15:45:29.605Z</time></trkpt><trkpt lat="43.4622437" lon="11.1367792"><ele>132.0</ele><time>2026-05-01T15:45:30.617Z</time></trkpt><trkpt lat="43.4623797" lon="11.1369113"><ele>132.0</ele><time>2026-05-01T15:45:31.608Z</time></trkpt><trkpt lat="43.4625072" lon="11.1370365"><ele>132.0</ele><time>2026-05-01T15:45:32.61Z</time></trkpt><trkpt lat="43.4626226" lon="11.1371452"><ele>132.0</ele><time>2026-05-01T15:45:33.61Z</time></trkpt><trkpt lat="43.4627112" lon="11.137252"><ele>132.0</ele><time>2026-05-01T15:45:34.615Z</time></trkpt><trkpt lat="43.4627932" lon="11.1373435"><ele>131.4</ele><time>2026-05-01T15:45:35.614Z</time></trkpt><trkpt lat="43.4628682" lon="11.1374309"><ele>130.79999999999998</ele><time>2026-05-01T15:45:36.612Z</time></trkpt><trkpt lat="43.4629422" lon="11.1375185"><ele>130.2</ele><time>2026-05-01T15:45:37.626Z</time></trkpt><trkpt lat="43.4630167" lon="11.1376051"><ele>129.6</ele><time>2026-05-01T15:45:38.623Z</time></trkpt><trkpt lat="43.4630901" lon="11.1376804"><ele>129.0</ele><time>2026-05-01T15:45:39.615Z</time></trkpt><trkpt lat="43.4631659" lon="11.1377544"><ele>129.0</ele><time>2026-05-01T15:45:40.613Z</time></trkpt><trkpt lat="43.4632405" lon="11.1378464"><ele>129.0</ele><time>2026-05-01T15:45:41.612Z</time></trkpt><trkpt lat="43.4632962" lon="11.137962"><ele>129.0</ele><time>2026-05-01T15:45:42.623Z</time></trkpt><trkpt lat="43.4633355" lon="11.1380986"><ele>129.0</ele><time>2026-05-01T15:45:43.607Z</time></trkpt><trkpt lat="43.463361" lon="11.1382479"><ele>129.0</ele><time>2026-05-01T15:45:44.613Z</time></trkpt><trkpt lat="43.4633734" lon="11.1383974"><ele>125.25</ele><time>2026-05-01T15:45:45.62Z</time></trkpt><trkpt lat="43.4633507" lon="11.1385497"><ele>121.5</ele><time>2026-05-01T15:45:46.616Z</time></trkpt><trkpt lat="43.4633541" lon="11.1387033"><ele>117.75</ele><time>2026-05-01T15:45:47.622Z</time></trkpt><trkpt lat="43.4633902" lon="11.1388708"><ele>114.0</ele><time>2026-05-01T15:45:48.609Z</time></trkpt><trkpt lat="43.4634402" lon="11.139039"><ele>112.80000000000001</ele><time>2026-05-01T15:45:49.603Z</time></trkpt><trkpt lat="43.4634775" lon="11.1391965"><ele>111.60000000000001</ele><time>2026-05-01T15:45:50.604Z</time></trkpt><trkpt lat="43.4634917" lon="11.1393413"><ele>110.4</ele><time>2026-05-01T15:45:51.601Z</time></trkpt><trkpt lat="43.4634996" lon="11.1394748"><ele>109.2</ele><time>2026-05-01T15:45:52.604Z</time></trkpt><trkpt lat="43.4634908" lon="11.1396022"><ele>108.0</ele><time>2026-05-01T15:45:53.624Z</time></trkpt><trkpt lat="43.4634661" lon="11.1397156"><ele>108.0</ele><time>2026-05-01T15:45:54.615Z</time></trkpt><trkpt lat="43.4634812" lon="11.1398323"><ele>108.0</ele><time>2026-05-01T15:45:55.599Z</time></trkpt><trkpt lat="43.4635534" lon="11.1399431"><ele>108.0</ele><time>2026-05-01T15:45:56.616Z</time></trkpt><trkpt lat="43.4636594" lon="11.1400537"><ele>108.0</ele><time>2026-05-01T15:45:57.605Z</time></trkpt><trkpt lat="43.463768" lon="11.1401692"><ele>107.75</ele><time>2026-05-01T15:45:58.608Z</time></trkpt><trkpt lat="43.4638749" lon="11.1402692"><ele>107.5</ele><time>2026-05-01T15:45:59.609Z</time></trkpt><trkpt lat="43.463977" lon="11.1403515"><ele>107.25</ele><time>2026-05-01T15:46:00.603Z</time></trkpt><trkpt lat="43.4640747" lon="11.1404325"><ele>107.0</ele><time>2026-05-01T15:46:01.608Z</time></trkpt><trkpt lat="43.4641853" lon="11.1405213"><ele>107.0</ele><time>2026-05-01T15:46:02.606Z</time></trkpt><trkpt lat="43.4642958" lon="11.1406165"><ele>107.0</ele><time>2026-05-01T15:46:03.614Z</time></trkpt><trkpt lat="43.4643988" lon="11.1407021"><ele>107.0</ele><time>2026-05-01T15:46:04.609Z</time></trkpt><trkpt lat="43.4644915" lon="11.1407947"><ele>107.0</ele><time>2026-05-01T15:46:05.606Z</time></trkpt><trkpt lat="43.4645775" lon="11.1408983"><ele>105.8</ele><time>2026-05-01T15:46:06.61Z</time></trkpt><trkpt lat="43.4646444" lon="11.1409976"><ele>104.6</ele><time>2026-05-01T15:46:07.61Z</time></trkpt><trkpt lat="43.4647127" lon="11.1410664"><ele>103.39999999999999</ele><time>2026-05-01T15:46:08.61Z</time></trkpt><trkpt lat="43.4647919" lon="11.1411089"><ele>102.19999999999999</ele><time>2026-05-01T15:46:09.617Z</time></trkpt><trkpt lat="43.464885" lon="11.1411071"><ele>101.0</ele><time>2026-05-01T15:46:10.601Z</time></trkpt><trkpt lat="43.4649764" lon="11.1410564"><ele>101.0</ele><time>2026-05-01T15:46:11.604Z</time></trkpt><trkpt lat="43.4650446" lon="11.1410339"><ele>101.0</ele><time>2026-05-01T15:46:12.608Z</time></trkpt><trkpt lat="43.4651256" lon="11.1409965"><ele>101.0</ele><time>2026-05-01T15:46:14.605Z</time></trkpt><trkpt lat="43.46521" lon="11.1409364"><ele>101.0</ele><time>2026-05-01T15:46:16.641Z</time></trkpt><trkpt lat="43.4653386" lon="11.1408561"><ele>101.0</ele><time>2026-05-01T15:46:18.599Z</time></trkpt><trkpt lat="43.465417" lon="11.1408084"><ele>101.0</ele><time>2026-05-01T15:46:19.609Z</time></trkpt><trkpt lat="43.4654938" lon="11.1407458"><ele>101.0</ele><time>2026-05-01T15:46:20.605Z</time></trkpt><trkpt lat="43.4655508" lon="11.1406507"><ele>101.0</ele><time>2026-05-01T15:46:21.608Z</time></trkpt><trkpt lat="43.4656011" lon="11.1405327"><ele>101.0</ele><time>2026-05-01T15:46:22.608Z</time></trkpt><trkpt lat="43.4656573" lon="11.1404136"><ele>101.0</ele><time>2026-05-01T15:46:23.617Z</time></trkpt><trkpt lat="43.4657132" lon="11.1402903"><ele>101.0</ele><time>2026-05-01T15:46:24.613Z</time></trkpt><trkpt lat="43.4657742" lon="11.1401489"><ele>101.0</ele><time>2026-05-01T15:46:25.611Z</time></trkpt><trkpt lat="43.4658384" lon="11.1400113"><ele>101.0</ele><time>2026-05-01T15:46:26.602Z</time></trkpt><trkpt lat="43.4659139" lon="11.1398691"><ele>101.0</ele><time>2026-05-01T15:46:27.609Z</time></trkpt><trkpt lat="43.465995" lon="11.1397477"><ele>100.19999999999999</ele><time>2026-05-01T15:46:28.612Z</time></trkpt><trkpt lat="43.4660883" lon="11.1396569"><ele>99.39999999999999</ele><time>2026-05-01T15:46:29.618Z</time></trkpt><trkpt lat="43.4661977" lon="11.1395956"><ele>98.6</ele><time>2026-05-01T15:46:30.614Z</time></trkpt><trkpt lat="43.4662899" lon="11.1396172"><ele>97.8</ele><time>2026-05-01T15:46:31.613Z</time></trkpt><trkpt lat="43.4663733" lon="11.139688"><ele>97.0</ele><time>2026-05-01T15:46:32.61Z</time></trkpt><trkpt lat="43.4664503" lon="11.1397712"><ele>97.25</ele><time>2026-05-01T15:46:33.609Z</time></trkpt><trkpt lat="43.4665269" lon="11.1398894"><ele>97.5</ele><time>2026-05-01T15:46:34.607Z</time></trkpt><trkpt lat="43.4665989" lon="11.1400242"><ele>97.75</ele><time>2026-05-01T15:46:35.609Z</time></trkpt><trkpt lat="43.4666693" lon="11.1401609"><ele>98.0</ele><time>2026-05-01T15:46:36.625Z</time></trkpt><trkpt lat="43.4667269" lon="11.1402913"><ele>97.99999999999999</ele><time>2026-05-01T15:46:37.612Z</time></trkpt><trkpt lat="43.4667714" lon="11.1403935"><ele>98.0</ele><time>2026-05-01T15:46:38.617Z</time></trkpt><trkpt lat="43.466808" lon="11.1404798"><ele>98.0</ele><time>2026-05-01T15:46:39.615Z</time></trkpt><trkpt lat="43.4668419" lon="11.140564"><ele>98.0</ele><time>2026-05-01T15:46:40.613Z</time></trkpt><trkpt lat="43.4668991" lon="11.1406851"><ele>97.99999999999999</ele><time>2026-05-01T15:46:42.618Z</time></trkpt><trkpt lat="43.4669416" lon="11.1407633"><ele>98.0</ele><time>2026-05-01T15:46:44.609Z</time></trkpt><trkpt lat="43.4670098" lon="11.1408872"><ele>97.66666666666666</ele><time>2026-05-01T15:46:46.613Z</time></trkpt><trkpt lat="43.4670512" lon="11.1409625"><ele>97.33333333333333</ele><time>2026-05-01T15:46:47.626Z</time></trkpt><trkpt lat="43.4670919" lon="11.1410431"><ele>97.0</ele><time>2026-05-01T15:46:48.63Z</time></trkpt><trkpt lat="43.4671362" lon="11.1411267"><ele>96.66666666666666</ele><time>2026-05-01T15:46:49.624Z</time></trkpt><trkpt lat="43.4671831" lon="11.141218"><ele>96.33333333333333</ele><time>2026-05-01T15:46:50.618Z</time></trkpt><trkpt lat="43.4672302" lon="11.1413137"><ele>96.0</ele><time>2026-05-01T15:46:51.64Z</time></trkpt><trkpt lat="43.467281" lon="11.1414064"><ele>96.0</ele><time>2026-05-01T15:46:52.617Z</time></trkpt><trkpt lat="43.4673256" lon="11.1415049"><ele>96.0</ele><time>2026-05-01T15:46:53.615Z</time></trkpt><trkpt lat="43.4673676" lon="11.1416062"><ele>96.0</ele><time>2026-05-01T15:46:54.619Z</time></trkpt><trkpt lat="43.4674091" lon="11.1417125"><ele>96.0</ele><time>2026-05-01T15:46:55.629Z</time></trkpt><trkpt lat="43.4674535" lon="11.1418263"><ele>96.0</ele><time>2026-05-01T15:46:56.621Z</time></trkpt><trkpt lat="43.4674884" lon="11.1419459"><ele>96.0</ele><time>2026-05-01T15:46:57.608Z</time></trkpt><trkpt lat="43.46752" lon="11.1420641"><ele>96.0</ele><time>2026-05-01T15:46:58.613Z</time></trkpt><trkpt lat="43.4675475" lon="11.142189"><ele>96.0</ele><time>2026-05-01T15:46:59.61Z</time></trkpt><trkpt lat="43.4675793" lon="11.1423168"><ele>96.0</ele><time>2026-05-01T15:47:00.619Z</time></trkpt><trkpt lat="43.4676112" lon="11.1424367"><ele>96.0</ele><time>2026-05-01T15:47:01.624Z</time></trkpt><trkpt lat="43.4676434" lon="11.1425524"><ele>96.0</ele><time>2026-05-01T15:47:02.617Z</time></trkpt><trkpt lat="43.4676734" lon="11.142654"><ele>96.0</ele><time>2026-05-01T15:47:03.605Z</time></trkpt><trkpt lat="43.4676959" lon="11.1427358"><ele>96.0</ele><time>2026-05-01T15:47:04.628Z</time></trkpt><trkpt lat="43.4677349" lon="11.1428947"><ele>96.0</ele><time>2026-05-01T15:47:06.611Z</time></trkpt><trkpt lat="43.4677819" lon="11.1430642"><ele>96.0</ele><time>2026-05-01T15:47:08.614Z</time></trkpt><trkpt lat="43.467812" lon="11.1431634"><ele>96.0</ele><time>2026-05-01T15:47:09.62Z</time></trkpt><trkpt lat="43.4678443" lon="11.1432629"><ele>96.66666666666667</ele><time>2026-05-01T15:47:10.61Z</time></trkpt><trkpt lat="43.4678723" lon="11.1433632"><ele>97.33333333333334</ele><time>2026-05-01T15:47:11.61Z</time></trkpt><trkpt lat="43.4678992" lon="11.1434699"><ele>98.0</ele><time>2026-05-01T15:47:12.619Z</time></trkpt><trkpt lat="43.4679334" lon="11.1435761"><ele>98.66666666666667</ele><time>2026-05-01T15:47:13.62Z</time></trkpt><trkpt lat="43.4679684" lon="11.1436937"><ele>99.33333333333334</ele><time>2026-05-01T15:47:14.611Z</time></trkpt><trkpt lat="43.4679994" lon="11.1438166"><ele>100.0</ele><time>2026-05-01T15:47:15.618Z</time></trkpt><trkpt lat="43.4680344" lon="11.1439408"><ele>101.16666666666667</ele><time>2026-05-01T15:47:16.62Z</time></trkpt><trkpt lat="43.468062" lon="11.1440646"><ele>102.33333333333334</ele><time>2026-05-01T15:47:17.616Z</time></trkpt><trkpt lat="43.4680874" lon="11.1441796"><ele>103.5</ele><time>2026-05-01T15:47:18.61Z</time></trkpt><trkpt lat="43.4681146" lon="11.144296"><ele>104.66666666666666</ele><time>2026-05-01T15:47:19.621Z</time></trkpt><trkpt lat="43.4681336" lon="11.1443975"><ele>105.83333333333333</ele><time>2026-05-01T15:47:20.622Z</time></trkpt><trkpt lat="43.4681557" lon="11.144503"><ele>107.0</ele><time>2026-05-01T15:47:21.612Z</time></trkpt><trkpt lat="43.4681809" lon="11.1446172"><ele>106.99999999999999</ele><time>2026-05-01T15:47:22.611Z</time></trkpt><trkpt lat="43.4682041" lon="11.1447211"><ele>107.0</ele><time>2026-05-01T15:47:23.615Z</time></trkpt><trkpt lat="43.4682321" lon="11.144807"><ele>107.0</ele><time>2026-05-01T15:47:24.608Z</time></trkpt><trkpt lat="43.4683002" lon="11.1449335"><ele>107.0</ele><time>2026-05-01T15:47:26.605Z</time></trkpt><trkpt lat="43.4683559" lon="11.1449832"><ele>106.99999999999999</ele><time>2026-05-01T15:47:27.617Z</time></trkpt><trkpt lat="43.4684379" lon="11.145008"><ele>107.0</ele><time>2026-05-01T15:47:28.603Z</time></trkpt><trkpt lat="43.4685429" lon="11.1450242"><ele>107.6</ele><time>2026-05-01T15:47:29.621Z</time></trkpt><trkpt lat="43.468643" lon="11.1450688"><ele>108.19999999999999</ele><time>2026-05-01T15:47:30.605Z</time></trkpt><trkpt lat="43.4687414" lon="11.1451075"><ele>108.8</ele><time>2026-05-01T15:47:31.605Z</time></trkpt><trkpt lat="43.46884" lon="11.1451484"><ele>109.4</ele><time>2026-05-01T15:47:32.608Z</time></trkpt><trkpt lat="43.468942" lon="11.1451937"><ele>110.0</ele><time>2026-05-01T15:47:33.603Z</time></trkpt><trkpt lat="43.4690419" lon="11.1452432"><ele>110.0</ele><time>2026-05-01T15:47:34.605Z</time></trkpt><trkpt lat="43.4691427" lon="11.1452866"><ele>110.0</ele><time>2026-05-01T15:47:35.608Z</time></trkpt><trkpt lat="43.4692398" lon="11.1453291"><ele>110.0</ele><time>2026-05-01T15:47:36.607Z</time></trkpt><trkpt lat="43.4693363" lon="11.1453712"><ele>110.0</ele><time>2026-05-01T15:47:37.617Z</time></trkpt><trkpt lat="43.469424" lon="11.1454138"><ele>110.0</ele><time>2026-05-01T15:47:38.597Z</time></trkpt><trkpt lat="43.4695012" lon="11.1454517"><ele>109.99999999999999</ele><time>2026-05-01T15:47:39.615Z</time></trkpt><trkpt lat="43.4695726" lon="11.1454822"><ele>110.0</ele><time>2026-05-01T15:47:40.609Z</time></trkpt><trkpt lat="43.4696463" lon="11.1455105"><ele>110.0</ele><time>2026-05-01T15:47:41.607Z</time></trkpt><trkpt lat="43.4697133" lon="11.1455333"><ele>110.0</ele><time>2026-05-01T15:47:42.606Z</time></trkpt><trkpt lat="43.469777" lon="11.1455514"><ele>110.0</ele><time>2026-05-01T15:47:43.608Z</time></trkpt><trkpt lat="43.4698398" lon="11.145582"><ele>109.99999999999999</ele><time>2026-05-01T15:47:44.605Z</time></trkpt><trkpt lat="43.4699018" lon="11.1456259"><ele>110.0</ele><time>2026-05-01T15:47:45.614Z</time></trkpt><trkpt lat="43.4699534" lon="11.1457049"><ele>108.83333333333333</ele><time>2026-05-01T15:47:46.61Z</time></trkpt><trkpt lat="43.4699841" lon="11.1458073"><ele>107.66666666666666</ele><time>2026-05-01T15:47:47.609Z</time></trkpt><trkpt lat="43.4699885" lon="11.1459382"><ele>106.5</ele><time>2026-05-01T15:47:48.615Z</time></trkpt><trkpt lat="43.4699727" lon="11.1460735"><ele>105.33333333333334</ele><time>2026-05-01T15:47:49.616Z</time></trkpt><trkpt lat="43.4699518" lon="11.1461735"><ele>104.16666666666667</ele><time>2026-05-01T15:47:50.612Z</time></trkpt><trkpt lat="43.4699177" lon="11.1462623"><ele>103.0</ele><time>2026-05-01T15:47:51.612Z</time></trkpt><trkpt lat="43.4698739" lon="11.1463579"><ele>103.00000000000001</ele><time>2026-05-01T15:47:52.624Z</time></trkpt><trkpt lat="43.4698197" lon="11.1464502"><ele>103.0</ele><time>2026-05-01T15:47:53.617Z</time></trkpt><trkpt lat="43.4697605" lon="11.1465403"><ele>103.0</ele><time>2026-05-01T15:47:54.611Z</time></trkpt><trkpt lat="43.4696886" lon="11.1466282"><ele>103.0</ele><time>2026-05-01T15:47:55.617Z</time></trkpt><trkpt lat="43.4696233" lon="11.146711"><ele>103.00000000000001</ele><time>2026-05-01T15:47:56.613Z</time></trkpt><trkpt lat="43.4695657" lon="11.1468057"><ele>103.0</ele><time>2026-05-01T15:47:57.61Z</time></trkpt><trkpt lat="43.4695052" lon="11.1469058"><ele>103.16666666666667</ele><time>2026-05-01T15:47:58.605Z</time></trkpt><trkpt lat="43.4694448" lon="11.1469949"><ele>103.33333333333334</ele><time>2026-05-01T15:47:59.613Z</time></trkpt><trkpt lat="43.4693891" lon="11.1470663"><ele>103.5</ele><time>2026-05-01T15:48:00.611Z</time></trkpt><trkpt lat="43.4693324" lon="11.1471407"><ele>103.66666666666666</ele><time>2026-05-01T15:48:01.611Z</time></trkpt><trkpt lat="43.4692657" lon="11.1472111"><ele>103.83333333333333</ele><time>2026-05-01T15:48:02.626Z</time></trkpt><trkpt lat="43.4691895" lon="11.1472732"><ele>104.0</ele><time>2026-05-01T15:48:03.613Z</time></trkpt><trkpt lat="43.4690923" lon="11.1473232"><ele>104.0</ele><time>2026-05-01T15:48:04.61Z</time></trkpt><trkpt lat="43.4689954" lon="11.1473696"><ele>104.0</ele><time>2026-05-01T15:48:05.616Z</time></trkpt><trkpt lat="43.468896" lon="11.147411"><ele>104.0</ele><time>2026-05-01T15:48:06.616Z</time></trkpt><trkpt lat="43.4687965" lon="11.1474659"><ele>104.0</ele><time>2026-05-01T15:48:07.618Z</time></trkpt><trkpt lat="43.4687011" lon="11.1475022"><ele>104.0</ele><time>2026-05-01T15:48:08.629Z</time></trkpt><trkpt lat="43.4686072" lon="11.1475378"><ele>104.4</ele><time>2026-05-01T15:48:09.613Z</time></trkpt><trkpt lat="43.4685087" lon="11.1475659"><ele>104.80000000000001</ele><time>2026-05-01T15:48:10.61Z</time></trkpt><trkpt lat="43.4684021" lon="11.1475886"><ele>105.19999999999999</ele><time>2026-05-01T15:48:11.612Z</time></trkpt><trkpt lat="43.4682968" lon="11.1476196"><ele>105.6</ele><time>2026-05-01T15:48:12.616Z</time></trkpt><trkpt lat="43.4681924" lon="11.1476559"><ele>106.0</ele><time>2026-05-01T15:48:13.616Z</time></trkpt><trkpt lat="43.46809" lon="11.1476979"><ele>106.0</ele><time>2026-05-01T15:48:14.632Z</time></trkpt><trkpt lat="43.4679873" lon="11.1477291"><ele>106.0</ele><time>2026-05-01T15:48:15.614Z</time></trkpt><trkpt lat="43.4678852" lon="11.1477648"><ele>106.0</ele><time>2026-05-01T15:48:16.63Z</time></trkpt><trkpt lat="43.4677809" lon="11.1477948"><ele>106.0</ele><time>2026-05-01T15:48:17.62Z</time></trkpt><trkpt lat="43.4676743" lon="11.1478176"><ele>106.0</ele><time>2026-05-01T15:48:18.616Z</time></trkpt><trkpt lat="43.4675667" lon="11.1478456"><ele>106.6</ele><time>2026-05-01T15:48:19.613Z</time></trkpt><trkpt lat="43.4674689" lon="11.1478845"><ele>107.19999999999999</ele><time>2026-05-01T15:48:20.619Z</time></trkpt><trkpt lat="43.4673668" lon="11.1479129"><ele>107.80000000000001</ele><time>2026-05-01T15:48:21.616Z</time></trkpt><trkpt lat="43.467264" lon="11.1479442"><ele>108.4</ele><time>2026-05-01T15:48:22.609Z</time></trkpt><trkpt lat="43.4671682" lon="11.1479621"><ele>109.0</ele><time>2026-05-01T15:48:23.607Z</time></trkpt><trkpt lat="43.4670641" lon="11.1479845"><ele>110.6</ele><time>2026-05-01T15:48:24.606Z</time></trkpt><trkpt lat="43.4669582" lon="11.1479977"><ele>112.2</ele><time>2026-05-01T15:48:25.606Z</time></trkpt><trkpt lat="43.4668542" lon="11.148015"><ele>113.79999999999998</ele><time>2026-05-01T15:48:26.606Z</time></trkpt><trkpt lat="43.4667535" lon="11.1480424"><ele>115.39999999999999</ele><time>2026-05-01T15:48:27.6Z</time></trkpt><trkpt lat="43.4666501" lon="11.1480875"><ele>117.0</ele><time>2026-05-01T15:48:28.61Z</time></trkpt><trkpt lat="43.4665368" lon="11.148144"><ele>117.0</ele><time>2026-05-01T15:48:29.599Z</time></trkpt><trkpt lat="43.46642" lon="11.148209"><ele>117.0</ele><time>2026-05-01T15:48:30.614Z</time></trkpt><trkpt lat="43.4663016" lon="11.1482771"><ele>117.0</ele><time>2026-05-01T15:48:31.614Z</time></trkpt><trkpt lat="43.4661836" lon="11.1483458"><ele>117.0</ele><time>2026-05-01T15:48:32.61Z</time></trkpt><trkpt lat="43.4660682" lon="11.1484081"><ele>117.19999999999999</ele><time>2026-05-01T15:48:33.61Z</time></trkpt><trkpt lat="43.4659661" lon="11.1484699"><ele>117.39999999999999</ele><time>2026-05-01T15:48:34.609Z</time></trkpt><trkpt lat="43.4658748" lon="11.1485314"><ele>117.60000000000001</ele><time>2026-05-01T15:48:35.615Z</time></trkpt><trkpt lat="43.4657984" lon="11.1486107"><ele>117.80000000000001</ele><time>2026-05-01T15:48:36.605Z</time></trkpt><trkpt lat="43.4657379" lon="11.1487091"><ele>118.0</ele><time>2026-05-01T15:48:37.599Z</time></trkpt><trkpt lat="43.4656879" lon="11.1488478"><ele>118.0</ele><time>2026-05-01T15:48:38.611Z</time></trkpt><trkpt lat="43.465651" lon="11.149008"><ele>118.0</ele><time>2026-05-01T15:48:39.605Z</time></trkpt><trkpt lat="43.4656056" lon="11.1491644"><ele>118.0</ele><time>2026-05-01T15:48:40.615Z</time></trkpt><trkpt lat="43.46556" lon="11.1493301"><ele>118.0</ele><time>2026-05-01T15:48:41.595Z</time></trkpt><trkpt lat="43.4655129" lon="11.1495096"><ele>118.0</ele><time>2026-05-01T15:48:42.601Z</time></trkpt><trkpt lat="43.4654619" lon="11.1496915"><ele>118.0</ele><time>2026-05-01T15:48:43.607Z</time></trkpt><trkpt lat="43.4654136" lon="11.1498621"><ele>118.0</ele><time>2026-05-01T15:48:44.607Z</time></trkpt><trkpt lat="43.4653702" lon="11.1500153"><ele>118.0</ele><time>2026-05-01T15:48:45.608Z</time></trkpt><trkpt lat="43.4653321" lon="11.1501598"><ele>118.0</ele><time>2026-05-01T15:48:46.61Z</time></trkpt><trkpt lat="43.465296" lon="11.1503173"><ele>118.0</ele><time>2026-05-01T15:48:47.603Z</time></trkpt><trkpt lat="43.465256" lon="11.1504728"><ele>118.0</ele><time>2026-05-01T15:48:48.609Z</time></trkpt><trkpt lat="43.4652133" lon="11.1506242"><ele>118.0</ele><time>2026-05-01T15:48:49.625Z</time></trkpt><trkpt lat="43.4651684" lon="11.1507865"><ele>116.25</ele><time>2026-05-01T15:48:50.612Z</time></trkpt><trkpt lat="43.4651164" lon="11.1509496"><ele>114.5</ele><time>2026-05-01T15:48:51.642Z</time></trkpt><trkpt lat="43.4650634" lon="11.1511204"><ele>112.75</ele><time>2026-05-01T15:48:52.61Z</time></trkpt><trkpt lat="43.4650126" lon="11.1512887"><ele>111.0</ele><time>2026-05-01T15:48:53.619Z</time></trkpt><trkpt lat="43.4649585" lon="11.1514714"><ele>110.25</ele><time>2026-05-01T15:48:54.604Z</time></trkpt><trkpt lat="43.4649025" lon="11.1516551"><ele>109.5</ele><time>2026-05-01T15:48:55.609Z</time></trkpt><trkpt lat="43.4648461" lon="11.1518296"><ele>108.75</ele><time>2026-05-01T15:48:56.613Z</time></trkpt><trkpt lat="43.4647811" lon="11.15201"><ele>108.0</ele><time>2026-05-01T15:48:57.61Z</time></trkpt><trkpt lat="43.4647217" lon="11.1521991"><ele>107.75</ele><time>2026-05-01T15:48:58.608Z</time></trkpt><trkpt lat="43.4646625" lon="11.1523803"><ele>107.5</ele><time>2026-05-01T15:48:59.618Z</time></trkpt><trkpt lat="43.4646094" lon="11.1525694"><ele>107.25</ele><time>2026-05-01T15:49:00.614Z</time></trkpt><trkpt lat="43.4645526" lon="11.1527647"><ele>107.0</ele><time>2026-05-01T15:49:01.608Z</time></trkpt><trkpt lat="43.4644863" lon="11.1529597"><ele>108.0</ele><time>2026-05-01T15:49:02.62Z</time></trkpt><trkpt lat="43.4644163" lon="11.1531573"><ele>109.0</ele><time>2026-05-01T15:49:03.615Z</time></trkpt><trkpt lat="43.4643467" lon="11.1533453"><ele>110.0</ele><time>2026-05-01T15:49:04.621Z</time></trkpt><trkpt lat="43.4642817" lon="11.1535378"><ele>110.0</ele><time>2026-05-01T15:49:05.621Z</time></trkpt><trkpt lat="43.464216" lon="11.1537348"><ele>110.0</ele><time>2026-05-01T15:49:06.607Z</time></trkpt><trkpt lat="43.4641514" lon="11.1539298"><ele>110.0</ele><time>2026-05-01T15:49:07.616Z</time></trkpt><trkpt lat="43.4640866" lon="11.1541161"><ele>109.5</ele><time>2026-05-01T15:49:08.625Z</time></trkpt><trkpt lat="43.4640241" lon="11.1542898"><ele>109.0</ele><time>2026-05-01T15:49:09.615Z</time></trkpt><trkpt lat="43.4639699" lon="11.1544517"><ele>108.5</ele><time>2026-05-01T15:49:10.619Z</time></trkpt><trkpt lat="43.463917" lon="11.1546161"><ele>108.0</ele><time>2026-05-01T15:49:11.612Z</time></trkpt><trkpt lat="43.4638633" lon="11.1547797"><ele>108.5</ele><time>2026-05-01T15:49:12.616Z</time></trkpt><trkpt lat="43.4638068" lon="11.154949"><ele>109.0</ele><time>2026-05-01T15:49:13.611Z</time></trkpt><trkpt lat="43.4637538" lon="11.1551147"><ele>109.5</ele><time>2026-05-01T15:49:14.609Z</time></trkpt><trkpt lat="43.4636897" lon="11.1552834"><ele>110.0</ele><time>2026-05-01T15:49:15.614Z</time></trkpt><trkpt lat="43.463629" lon="11.1554584"><ele>110.33333333333333</ele><time>2026-05-01T15:49:16.609Z</time></trkpt><trkpt lat="43.4635669" lon="11.1556425"><ele>110.66666666666666</ele><time>2026-05-01T15:49:17.614Z</time></trkpt><trkpt lat="43.4635027" lon="11.1558364"><ele>111.0</ele><time>2026-05-01T15:49:18.613Z</time></trkpt><trkpt lat="43.4634411" lon="11.156023"><ele>111.0</ele><time>2026-05-01T15:49:19.606Z</time></trkpt><trkpt lat="43.4633842" lon="11.1561912"><ele>111.0</ele><time>2026-05-01T15:49:20.613Z</time></trkpt><trkpt lat="43.4633314" lon="11.1563399"><ele>111.0</ele><time>2026-05-01T15:49:21.609Z</time></trkpt><trkpt lat="43.4632796" lon="11.1564691"><ele>111.0</ele><time>2026-05-01T15:49:22.609Z</time></trkpt><trkpt lat="43.4632328" lon="11.1565683"><ele>111.0</ele><time>2026-05-01T15:49:23.599Z</time></trkpt><trkpt lat="43.4631991" lon="11.1566593"><ele>110.6</ele><time>2026-05-01T15:49:24.605Z</time></trkpt><trkpt lat="43.4631706" lon="11.156746"><ele>110.19999999999999</ele><time>2026-05-01T15:49:25.592Z</time></trkpt><trkpt lat="43.4631592" lon="11.1568348"><ele>109.80000000000001</ele><time>2026-05-01T15:49:26.614Z</time></trkpt><trkpt lat="43.4632076" lon="11.1569418"><ele>109.4</ele><time>2026-05-01T15:49:28.612Z</time></trkpt><trkpt lat="43.463358" lon="11.1569721"><ele>109.0</ele><time>2026-05-01T15:49:30.609Z</time></trkpt><trkpt lat="43.4634612" lon="11.1570193"><ele>109.0</ele><time>2026-05-01T15:49:31.606Z</time></trkpt><trkpt lat="43.4635811" lon="11.1570729"><ele>109.0</ele><time>2026-05-01T15:49:32.614Z</time></trkpt><trkpt lat="43.4636898" lon="11.1571313"><ele>109.0</ele><time>2026-05-01T15:49:33.609Z</time></trkpt><trkpt lat="43.4637989" lon="11.1571856"><ele>109.0</ele><time>2026-05-01T15:49:34.618Z</time></trkpt><trkpt lat="43.4639165" lon="11.1572451"><ele>107.75</ele><time>2026-05-01T15:49:35.604Z</time></trkpt><trkpt lat="43.4640343" lon="11.1573055"><ele>106.5</ele><time>2026-05-01T15:49:36.614Z</time></trkpt><trkpt lat="43.4641606" lon="11.1573713"><ele>105.25</ele><time>2026-05-01T15:49:37.603Z</time></trkpt><trkpt lat="43.464282" lon="11.1574319"><ele>104.0</ele><time>2026-05-01T15:49:38.615Z</time></trkpt><trkpt lat="43.4643975" lon="11.1574821"><ele>103.6</ele><time>2026-05-01T15:49:39.606Z</time></trkpt><trkpt lat="43.464503" lon="11.1575335"><ele>103.2</ele><time>2026-05-01T15:49:40.603Z</time></trkpt><trkpt lat="43.4645998" lon="11.1575816"><ele>102.8</ele><time>2026-05-01T15:49:41.6Z</time></trkpt><trkpt lat="43.4646891" lon="11.1576209"><ele>102.39999999999999</ele><time>2026-05-01T15:49:42.613Z</time></trkpt><trkpt lat="43.4647724" lon="11.1576689"><ele>102.0</ele><time>2026-05-01T15:49:43.609Z</time></trkpt><trkpt lat="43.464853" lon="11.1577168"><ele>101.83333333333333</ele><time>2026-05-01T15:49:44.609Z</time></trkpt><trkpt lat="43.4649308" lon="11.1577645"><ele>101.66666666666666</ele><time>2026-05-01T15:49:45.599Z</time></trkpt><trkpt lat="43.4649926" lon="11.1578037"><ele>101.5</ele><time>2026-05-01T15:49:46.603Z</time></trkpt><trkpt lat="43.4650639" lon="11.1578392"><ele>101.33333333333333</ele><time>2026-05-01T15:49:48.601Z</time></trkpt><trkpt lat="43.4651789" lon="11.1577539"><ele>101.16666666666666</ele><time>2026-05-01T15:49:51.618Z</time></trkpt><trkpt lat="43.4652162" lon="11.1576492"><ele>101.0</ele><time>2026-05-01T15:49:52.604Z</time></trkpt><trkpt lat="43.46524" lon="11.1575258"><ele>101.0</ele><time>2026-05-01T15:49:53.62Z</time></trkpt><trkpt lat="43.4652675" lon="11.1573718"><ele>101.0</ele><time>2026-05-01T15:49:54.613Z</time></trkpt><trkpt lat="43.4653081" lon="11.1572039"><ele>101.0</ele><time>2026-05-01T15:49:55.61Z</time></trkpt><trkpt lat="43.4653431" lon="11.1570318"><ele>101.0</ele><time>2026-05-01T15:49:56.608Z</time></trkpt><trkpt lat="43.4653849" lon="11.1568599"><ele>102.0</ele><time>2026-05-01T15:49:57.617Z</time></trkpt><trkpt lat="43.4654265" lon="11.1566725"><ele>103.0</ele><time>2026-05-01T15:49:58.613Z</time></trkpt><trkpt lat="43.4654738" lon="11.1564764"><ele>104.0</ele><time>2026-05-01T15:49:59.61Z</time></trkpt><trkpt lat="43.4655182" lon="11.1562798"><ele>105.0</ele><time>2026-05-01T15:50:00.622Z</time></trkpt><trkpt lat="43.465561" lon="11.1560907"><ele>105.0</ele><time>2026-05-01T15:50:01.614Z</time></trkpt><trkpt lat="43.4656031" lon="11.155919"><ele>105.0</ele><time>2026-05-01T15:50:02.611Z</time></trkpt><trkpt lat="43.46564" lon="11.1557524"><ele>105.0</ele><time>2026-05-01T15:50:03.623Z</time></trkpt><trkpt lat="43.465675" lon="11.1555937"><ele>105.0</ele><time>2026-05-01T15:50:04.612Z</time></trkpt><trkpt lat="43.4657137" lon="11.1554432"><ele>105.0</ele><time>2026-05-01T15:50:05.628Z</time></trkpt><trkpt lat="43.4657579" lon="11.1552899"><ele>105.0</ele><time>2026-05-01T15:50:06.597Z</time></trkpt><trkpt lat="43.4658006" lon="11.155135"><ele>105.0</ele><time>2026-05-01T15:50:07.606Z</time></trkpt><trkpt lat="43.4658472" lon="11.15498"><ele>105.0</ele><time>2026-05-01T15:50:08.611Z</time></trkpt><trkpt lat="43.4658964" lon="11.1548184"><ele>105.0</ele><time>2026-05-01T15:50:09.622Z</time></trkpt><trkpt lat="43.4659528" lon="11.1546584"><ele>105.0</ele><time>2026-05-01T15:50:10.609Z</time></trkpt><trkpt lat="43.4660083" lon="11.1544989"><ele>105.0</ele><time>2026-05-01T15:50:11.613Z</time></trkpt><trkpt lat="43.4660657" lon="11.1543352"><ele>105.0</ele><time>2026-05-01T15:50:12.621Z</time></trkpt><trkpt lat="43.4661317" lon="11.1541798"><ele>105.0</ele><time>2026-05-01T15:50:13.618Z</time></trkpt><trkpt lat="43.4662061" lon="11.1540405"><ele>105.0</ele><time>2026-05-01T15:50:14.621Z</time></trkpt><trkpt lat="43.4662835" lon="11.153901"><ele>105.0</ele><time>2026-05-01T15:50:15.609Z</time></trkpt><trkpt lat="43.4663625" lon="11.15376"><ele>105.0</ele><time>2026-05-01T15:50:16.606Z</time></trkpt><trkpt lat="43.4664478" lon="11.1536204"><ele>105.0</ele><time>2026-05-01T15:50:17.618Z</time></trkpt><trkpt lat="43.466531" lon="11.1534863"><ele>105.0</ele><time>2026-05-01T15:50:18.609Z</time></trkpt><trkpt lat="43.4666156" lon="11.1533536"><ele>105.0</ele><time>2026-05-01T15:50:19.597Z</time></trkpt><trkpt lat="43.4666932" lon="11.1532255"><ele>105.0</ele><time>2026-05-01T15:50:20.618Z</time></trkpt><trkpt lat="43.466768" lon="11.1531168"><ele>105.0</ele><time>2026-05-01T15:50:21.604Z</time></trkpt><trkpt lat="43.4668343" lon="11.1530182"><ele>105.0</ele><time>2026-05-01T15:50:22.608Z</time></trkpt><trkpt lat="43.4669016" lon="11.1529371"><ele>105.0</ele><time>2026-05-01T15:50:23.603Z</time></trkpt><trkpt lat="43.4669773" lon="11.1528841"><ele>105.0</ele><time>2026-05-01T15:50:24.621Z</time></trkpt><trkpt lat="43.4670628" lon="11.1528501"><ele>105.0</ele><time>2026-05-01T15:50:25.606Z</time></trkpt><trkpt lat="43.4671446" lon="11.1528537"><ele>105.0</ele><time>2026-05-01T15:50:26.617Z</time></trkpt><trkpt lat="43.4672457" lon="11.1528989"><ele>104.2</ele><time>2026-05-01T15:50:27.607Z</time></trkpt><trkpt lat="43.4673298" lon="11.1529779"><ele>103.4</ele><time>2026-05-01T15:50:28.624Z</time></trkpt><trkpt lat="43.4674038" lon="11.1530649"><ele>102.6</ele><time>2026-05-01T15:50:29.619Z</time></trkpt><trkpt lat="43.4674684" lon="11.1531486"><ele>101.8</ele><time>2026-05-01T15:50:30.607Z</time></trkpt><trkpt lat="43.4675231" lon="11.1532427"><ele>101.0</ele><time>2026-05-01T15:50:31.626Z</time></trkpt><trkpt lat="43.4675796" lon="11.1533357"><ele>100.99999999999999</ele><time>2026-05-01T15:50:32.612Z</time></trkpt><trkpt lat="43.4676381" lon="11.1534327"><ele>101.0</ele><time>2026-05-01T15:50:33.607Z</time></trkpt><trkpt lat="43.4676846" lon="11.1535236"><ele>101.0</ele><time>2026-05-01T15:50:34.611Z</time></trkpt><trkpt lat="43.4677211" lon="11.1536077"><ele>101.0</ele><time>2026-05-01T15:50:35.63Z</time></trkpt><trkpt lat="43.4677521" lon="11.153697"><ele>100.99999999999999</ele><time>2026-05-01T15:50:36.62Z</time></trkpt><trkpt lat="43.4677674" lon="11.1537842"><ele>101.0</ele><time>2026-05-01T15:50:37.62Z</time></trkpt><trkpt lat="43.467797" lon="11.1539459"><ele>100.99999999999999</ele><time>2026-05-01T15:50:39.613Z</time></trkpt><trkpt lat="43.4678349" lon="11.1540154"><ele>101.0</ele><time>2026-05-01T15:50:40.611Z</time></trkpt><trkpt lat="43.4679422" lon="11.1540547"><ele>101.0</ele><time>2026-05-01T15:50:42.618Z</time></trkpt><trkpt lat="43.4680124" lon="11.1540065"><ele>101.0</ele><time>2026-05-01T15:50:43.614Z</time></trkpt><trkpt lat="43.4680634" lon="11.1539219"><ele>100.99999999999999</ele><time>2026-05-01T15:50:44.613Z</time></trkpt><trkpt lat="43.4681072" lon="11.1538213"><ele>101.0</ele><time>2026-05-01T15:50:45.609Z</time></trkpt><trkpt lat="43.4681579" lon="11.153697"><ele>101.25</ele><time>2026-05-01T15:50:46.602Z</time></trkpt><trkpt lat="43.4682205" lon="11.1535842"><ele>101.5</ele><time>2026-05-01T15:50:47.629Z</time></trkpt><trkpt lat="43.4683039" lon="11.1534843"><ele>101.75</ele><time>2026-05-01T15:50:48.617Z</time></trkpt><trkpt lat="43.4683996" lon="11.1533971"><ele>102.0</ele><time>2026-05-01T15:50:49.604Z</time></trkpt><trkpt lat="43.4685043" lon="11.1533015"><ele>102.0</ele><time>2026-05-01T15:50:50.615Z</time></trkpt><trkpt lat="43.4686168" lon="11.153214"><ele>102.0</ele><time>2026-05-01T15:50:51.613Z</time></trkpt><trkpt lat="43.4687443" lon="11.1531381"><ele>102.0</ele><time>2026-05-01T15:50:52.622Z</time></trkpt><trkpt lat="43.4688692" lon="11.1530612"><ele>102.0</ele><time>2026-05-01T15:50:53.604Z</time></trkpt><trkpt lat="43.4690088" lon="11.1529867"><ele>102.0</ele><time>2026-05-01T15:50:54.608Z</time></trkpt><trkpt lat="43.4691641" lon="11.1529136"><ele>102.0</ele><time>2026-05-01T15:50:55.615Z</time></trkpt><trkpt lat="43.4693099" lon="11.1528488"><ele>102.0</ele><time>2026-05-01T15:50:56.628Z</time></trkpt><trkpt lat="43.469457" lon="11.1527839"><ele>102.0</ele><time>2026-05-01T15:50:57.601Z</time></trkpt><trkpt lat="43.4695984" lon="11.1527207"><ele>102.0</ele><time>2026-05-01T15:50:58.62Z</time></trkpt><trkpt lat="43.4697427" lon="11.1526569"><ele>102.0</ele><time>2026-05-01T15:50:59.609Z</time></trkpt><trkpt lat="43.4698951" lon="11.1525926"><ele>102.25</ele><time>2026-05-01T15:51:00.616Z</time></trkpt><trkpt lat="43.4700459" lon="11.1525222"><ele>102.5</ele><time>2026-05-01T15:51:01.609Z</time></trkpt><trkpt lat="43.4701828" lon="11.152464"><ele>102.75</ele><time>2026-05-01T15:51:02.615Z</time></trkpt><trkpt lat="43.470306" lon="11.1524165"><ele>103.0</ele><time>2026-05-01T15:51:03.607Z</time></trkpt><trkpt lat="43.4704152" lon="11.152374"><ele>102.80000000000001</ele><time>2026-05-01T15:51:04.605Z</time></trkpt><trkpt lat="43.470518" lon="11.1523509"><ele>102.6</ele><time>2026-05-01T15:51:05.607Z</time></trkpt><trkpt lat="43.4706254" lon="11.1523553"><ele>102.4</ele><time>2026-05-01T15:51:06.602Z</time></trkpt><trkpt lat="43.4707345" lon="11.1523933"><ele>102.19999999999999</ele><time>2026-05-01T15:51:07.603Z</time></trkpt><trkpt lat="43.4708416" lon="11.1524708"><ele>102.0</ele><time>2026-05-01T15:51:08.605Z</time></trkpt><trkpt lat="43.4709255" lon="11.15259"><ele>101.75</ele><time>2026-05-01T15:51:09.606Z</time></trkpt><trkpt lat="43.4709959" lon="11.1527476"><ele>101.5</ele><time>2026-05-01T15:51:10.602Z</time></trkpt><trkpt lat="43.4710469" lon="11.1529048"><ele>101.25</ele><time>2026-05-01T15:51:11.609Z</time></trkpt><trkpt lat="43.4710934" lon="11.1530369"><ele>101.0</ele><time>2026-05-01T15:51:12.606Z</time></trkpt><trkpt lat="43.4711241" lon="11.1531592"><ele>101.16666666666666</ele><time>2026-05-01T15:51:13.604Z</time></trkpt><trkpt lat="43.4711461" lon="11.1532653"><ele>101.33333333333333</ele><time>2026-05-01T15:51:14.614Z</time></trkpt><trkpt lat="43.471159" lon="11.1533567"><ele>101.5</ele><time>2026-05-01T15:51:15.619Z</time></trkpt><trkpt lat="43.4711839" lon="11.1534371"><ele>101.66666666666666</ele><time>2026-05-01T15:51:16.61Z</time></trkpt><trkpt lat="43.4712818" lon="11.1534945"><ele>101.83333333333333</ele><time>2026-05-01T15:51:18.61Z</time></trkpt><trkpt lat="43.4713637" lon="11.1533913"><ele>102.0</ele><time>2026-05-01T15:51:20.606Z</time></trkpt><trkpt lat="43.4714158" lon="11.153313"><ele>102.19999999999999</ele><time>2026-05-01T15:51:21.616Z</time></trkpt><trkpt lat="43.4714748" lon="11.1532243"><ele>102.4</ele><time>2026-05-01T15:51:22.609Z</time></trkpt><trkpt lat="43.4715659" lon="11.1531729"><ele>102.6</ele><time>2026-05-01T15:51:23.612Z</time></trkpt><trkpt lat="43.4716768" lon="11.15313"><ele>102.80000000000001</ele><time>2026-05-01T15:51:24.602Z</time></trkpt><trkpt lat="43.4717854" lon="11.1530729"><ele>103.0</ele><time>2026-05-01T15:51:25.611Z</time></trkpt><trkpt lat="43.4719023" lon="11.1530102"><ele>103.0</ele><time>2026-05-01T15:51:26.598Z</time></trkpt><trkpt lat="43.4720236" lon="11.1529523"><ele>103.0</ele><time>2026-05-01T15:51:27.607Z</time></trkpt><trkpt lat="43.4721443" lon="11.1528697"><ele>103.0</ele><time>2026-05-01T15:51:28.631Z</time></trkpt><trkpt lat="43.4722626" lon="11.1527693"><ele>103.0</ele><time>2026-05-01T15:51:29.592Z</time></trkpt><trkpt lat="43.472359" lon="11.1526646"><ele>103.25</ele><time>2026-05-01T15:51:30.627Z</time></trkpt><trkpt lat="43.4724438" lon="11.15256"><ele>103.5</ele><time>2026-05-01T15:51:31.61Z</time></trkpt><trkpt lat="43.4725284" lon="11.1524589"><ele>103.75</ele><time>2026-05-01T15:51:32.607Z</time></trkpt><trkpt lat="43.4726043" lon="11.1523435"><ele>104.0</ele><time>2026-05-01T15:51:33.594Z</time></trkpt><trkpt lat="43.4726926" lon="11.1522329"><ele>103.75</ele><time>2026-05-01T15:51:34.605Z</time></trkpt><trkpt lat="43.4727784" lon="11.1521133"><ele>103.5</ele><time>2026-05-01T15:51:35.616Z</time></trkpt><trkpt lat="43.4728645" lon="11.1519886"><ele>103.25</ele><time>2026-05-01T15:51:36.613Z</time></trkpt><trkpt lat="43.4729634" lon="11.1518603"><ele>103.0</ele><time>2026-05-01T15:51:37.61Z</time></trkpt><trkpt lat="43.4730604" lon="11.1517326"><ele>103.0</ele><time>2026-05-01T15:51:38.618Z</time></trkpt><trkpt lat="43.473146" lon="11.1515998"><ele>103.0</ele><time>2026-05-01T15:51:39.603Z</time></trkpt><trkpt lat="43.4732259" lon="11.1514717"><ele>103.0</ele><time>2026-05-01T15:51:40.616Z</time></trkpt><trkpt lat="43.4732979" lon="11.151354"><ele>103.0</ele><time>2026-05-01T15:51:41.607Z</time></trkpt><trkpt lat="43.4733686" lon="11.1512445"><ele>102.60000000000001</ele><time>2026-05-01T15:51:42.621Z</time></trkpt><trkpt lat="43.4734293" lon="11.151152"><ele>102.2</ele><time>2026-05-01T15:51:43.615Z</time></trkpt><trkpt lat="43.4734861" lon="11.1510684"><ele>101.8</ele><time>2026-05-01T15:51:44.618Z</time></trkpt><trkpt lat="43.4735425" lon="11.1509706"><ele>101.4</ele><time>2026-05-01T15:51:45.614Z</time></trkpt><trkpt lat="43.4735999" lon="11.1508708"><ele>101.0</ele><time>2026-05-01T15:51:46.612Z</time></trkpt><trkpt lat="43.4736724" lon="11.150765"><ele>101.0</ele><time>2026-05-01T15:51:47.616Z</time></trkpt><trkpt lat="43.4737456" lon="11.1506516"><ele>101.0</ele><time>2026-05-01T15:51:48.603Z</time></trkpt><trkpt lat="43.4738249" lon="11.1505501"><ele>101.0</ele><time>2026-05-01T15:51:49.611Z</time></trkpt><trkpt lat="43.4738963" lon="11.1504465"><ele>101.0</ele><time>2026-05-01T15:51:50.618Z</time></trkpt><trkpt lat="43.4739703" lon="11.1503304"><ele>101.0</ele><time>2026-05-01T15:51:51.624Z</time></trkpt><trkpt lat="43.4740522" lon="11.1502156"><ele>101.0</ele><time>2026-05-01T15:51:52.618Z</time></trkpt><trkpt lat="43.4741293" lon="11.1500996"><ele>101.0</ele><time>2026-05-01T15:51:53.615Z</time></trkpt><trkpt lat="43.4742084" lon="11.1499842"><ele>101.0</ele><time>2026-05-01T15:51:54.619Z</time></trkpt><trkpt lat="43.474286" lon="11.1498622"><ele>101.0</ele><time>2026-05-01T15:51:55.614Z</time></trkpt><trkpt lat="43.4743708" lon="11.1497369"><ele>100.75</ele><time>2026-05-01T15:51:56.605Z</time></trkpt><trkpt lat="43.4744604" lon="11.1496075"><ele>100.5</ele><time>2026-05-01T15:51:57.616Z</time></trkpt><trkpt lat="43.4745487" lon="11.1494799"><ele>100.25</ele><time>2026-05-01T15:51:58.614Z</time></trkpt><trkpt lat="43.4746297" lon="11.1493466"><ele>100.0</ele><time>2026-05-01T15:51:59.623Z</time></trkpt><trkpt lat="43.4747165" lon="11.1492131"><ele>100.0</ele><time>2026-05-01T15:52:00.611Z</time></trkpt><trkpt lat="43.4747968" lon="11.1490939"><ele>100.0</ele><time>2026-05-01T15:52:01.605Z</time></trkpt><trkpt lat="43.4748741" lon="11.1489795"><ele>100.0</ele><time>2026-05-01T15:52:02.602Z</time></trkpt><trkpt lat="43.4749504" lon="11.1488614"><ele>100.0</ele><time>2026-05-01T15:52:03.6Z</time></trkpt><trkpt lat="43.4750314" lon="11.1487334"><ele>100.0</ele><time>2026-05-01T15:52:04.615Z</time></trkpt><trkpt lat="43.4751207" lon="11.1486048"><ele>100.0</ele><time>2026-05-01T15:52:05.618Z</time></trkpt><trkpt lat="43.4752081" lon="11.148478"><ele>100.0</ele><time>2026-05-01T15:52:06.618Z</time></trkpt><trkpt lat="43.4752907" lon="11.1483512"><ele>100.0</ele><time>2026-05-01T15:52:07.605Z</time></trkpt><trkpt lat="43.4753753" lon="11.1482345"><ele>100.8</ele><time>2026-05-01T15:52:08.605Z</time></trkpt><trkpt lat="43.4754498" lon="11.1481176"><ele>101.6</ele><time>2026-05-01T15:52:09.613Z</time></trkpt><trkpt lat="43.4755238" lon="11.148008"><ele>102.4</ele><time>2026-05-01T15:52:10.614Z</time></trkpt><trkpt lat="43.4755903" lon="11.1478997"><ele>103.2</ele><time>2026-05-01T15:52:11.609Z</time></trkpt><trkpt lat="43.4756488" lon="11.147785"><ele>104.0</ele><time>2026-05-01T15:52:12.613Z</time></trkpt><trkpt lat="43.4757043" lon="11.1476656"><ele>103.99999999999999</ele><time>2026-05-01T15:52:13.613Z</time></trkpt><trkpt lat="43.4757478" lon="11.1475505"><ele>104.0</ele><time>2026-05-01T15:52:14.604Z</time></trkpt><trkpt lat="43.4757801" lon="11.1474427"><ele>104.0</ele><time>2026-05-01T15:52:15.604Z</time></trkpt><trkpt lat="43.4758052" lon="11.1473497"><ele>104.0</ele><time>2026-05-01T15:52:16.617Z</time></trkpt><trkpt lat="43.4758191" lon="11.1472491"><ele>103.99999999999999</ele><time>2026-05-01T15:52:17.614Z</time></trkpt><trkpt lat="43.4758398" lon="11.1471619"><ele>104.0</ele><time>2026-05-01T15:52:18.608Z</time></trkpt><trkpt lat="43.4758908" lon="11.1470196"><ele>103.6</ele><time>2026-05-01T15:52:20.614Z</time></trkpt><trkpt lat="43.475944" lon="11.1469719"><ele>103.2</ele><time>2026-05-01T15:52:21.61Z</time></trkpt><trkpt lat="43.4760242" lon="11.1469653"><ele>102.8</ele><time>2026-05-01T15:52:22.599Z</time></trkpt><trkpt lat="43.4761254" lon="11.1469785"><ele>102.39999999999999</ele><time>2026-05-01T15:52:23.602Z</time></trkpt><trkpt lat="43.476233" lon="11.1469938"><ele>102.0</ele><time>2026-05-01T15:52:24.608Z</time></trkpt><trkpt lat="43.47633" lon="11.1470007"><ele>102.0</ele><time>2026-05-01T15:52:25.614Z</time></trkpt><trkpt lat="43.4764237" lon="11.1470185"><ele>102.0</ele><time>2026-05-01T15:52:26.618Z</time></trkpt><trkpt lat="43.4765264" lon="11.1470265"><ele>102.0</ele><time>2026-05-01T15:52:27.644Z</time></trkpt><trkpt lat="43.4766382" lon="11.1470496"><ele>102.0</ele><time>2026-05-01T15:52:28.614Z</time></trkpt><trkpt lat="43.4767579" lon="11.1470855"><ele>102.0</ele><time>2026-05-01T15:52:29.61Z</time></trkpt><trkpt lat="43.4768791" lon="11.1471237"><ele>102.0</ele><time>2026-05-01T15:52:30.607Z</time></trkpt><trkpt lat="43.4770106" lon="11.1471566"><ele>102.0</ele><time>2026-05-01T15:52:31.603Z</time></trkpt><trkpt lat="43.4771434" lon="11.147186"><ele>102.0</ele><time>2026-05-01T15:52:32.616Z</time></trkpt><trkpt lat="43.4772837" lon="11.1472125"><ele>102.0</ele><time>2026-05-01T15:52:33.615Z</time></trkpt><trkpt lat="43.4774278" lon="11.1472476"><ele>102.0</ele><time>2026-05-01T15:52:34.603Z</time></trkpt><trkpt lat="43.4775707" lon="11.1472777"><ele>102.0</ele><time>2026-05-01T15:52:35.61Z</time></trkpt><trkpt lat="43.4776847" lon="11.147302"><ele>102.0</ele><time>2026-05-01T15:52:36.602Z</time></trkpt><trkpt lat="43.477783" lon="11.1473214"><ele>102.0</ele><time>2026-05-01T15:52:37.617Z</time></trkpt><trkpt lat="43.4778732" lon="11.1473404"><ele>103.33333333333333</ele><time>2026-05-01T15:52:38.613Z</time></trkpt><trkpt lat="43.4779486" lon="11.1473544"><ele>104.66666666666666</ele><time>2026-05-01T15:52:39.619Z</time></trkpt><trkpt lat="43.4780677" lon="11.1473944"><ele>106.0</ele><time>2026-05-01T15:52:41.632Z</time></trkpt><trkpt lat="43.4781328" lon="11.1474326"><ele>107.33333333333333</ele><time>2026-05-01T15:52:42.601Z</time></trkpt><trkpt lat="43.4782128" lon="11.1474493"><ele>108.66666666666666</ele><time>2026-05-01T15:52:43.62Z</time></trkpt><trkpt lat="43.4783093" lon="11.1474377"><ele>110.0</ele><time>2026-05-01T15:52:44.622Z</time></trkpt><trkpt lat="43.4784222" lon="11.1474338"><ele>110.0</ele><time>2026-05-01T15:52:45.611Z</time></trkpt><trkpt lat="43.4785589" lon="11.1474371"><ele>110.0</ele><time>2026-05-01T15:52:46.608Z</time></trkpt><trkpt lat="43.478704" lon="11.1474597"><ele>110.0</ele><time>2026-05-01T15:52:47.6Z</time></trkpt><trkpt lat="43.4788538" lon="11.1474864"><ele>110.0</ele><time>2026-05-01T15:52:48.611Z</time></trkpt><trkpt lat="43.4790019" lon="11.1475021"><ele>111.75</ele><time>2026-05-01T15:52:49.611Z</time></trkpt><trkpt lat="43.4791351" lon="11.147513"><ele>113.5</ele><time>2026-05-01T15:52:50.612Z</time></trkpt><trkpt lat="43.479245" lon="11.1475198"><ele>115.25</ele><time>2026-05-01T15:52:51.612Z</time></trkpt><trkpt lat="43.4793504" lon="11.1475224"><ele>117.0</ele><time>2026-05-01T15:52:52.61Z</time></trkpt><trkpt lat="43.4794532" lon="11.1475241"><ele>117.0</ele><time>2026-05-01T15:52:53.613Z</time></trkpt><trkpt lat="43.4795555" lon="11.1475256"><ele>116.99999999999999</ele><time>2026-05-01T15:52:54.611Z</time></trkpt><trkpt lat="43.4796531" lon="11.1475287"><ele>116.99999999999999</ele><time>2026-05-01T15:52:55.618Z</time></trkpt><trkpt lat="43.4797571" lon="11.1475406"><ele>117.0</ele><time>2026-05-01T15:52:56.607Z</time></trkpt><trkpt lat="43.4798668" lon="11.1475564"><ele>117.0</ele><time>2026-05-01T15:52:57.602Z</time></trkpt><trkpt lat="43.4799674" lon="11.147572"><ele>118.75</ele><time>2026-05-01T15:52:58.608Z</time></trkpt><trkpt lat="43.4800797" lon="11.147582"><ele>120.5</ele><time>2026-05-01T15:52:59.616Z</time></trkpt><trkpt lat="43.4801895" lon="11.147596"><ele>122.25</ele><time>2026-05-01T15:53:00.612Z</time></trkpt><trkpt lat="43.4803031" lon="11.1476226"><ele>124.0</ele><time>2026-05-01T15:53:01.603Z</time></trkpt><trkpt lat="43.4804226" lon="11.1476676"><ele>123.0</ele><time>2026-05-01T15:53:02.595Z</time></trkpt><trkpt lat="43.4805542" lon="11.1477207"><ele>122.0</ele><time>2026-05-01T15:53:03.61Z</time></trkpt><trkpt lat="43.4806992" lon="11.1477871"><ele>121.0</ele><time>2026-05-01T15:53:04.61Z</time></trkpt><trkpt lat="43.4808502" lon="11.1478509"><ele>120.0</ele><time>2026-05-01T15:53:05.624Z</time></trkpt><trkpt lat="43.4809983" lon="11.1479173"><ele>120.0</ele><time>2026-05-01T15:53:06.618Z</time></trkpt><trkpt lat="43.4811574" lon="11.1479868"><ele>120.0</ele><time>2026-05-01T15:53:07.613Z</time></trkpt><trkpt lat="43.4813144" lon="11.148059"><ele>120.0</ele><time>2026-05-01T15:53:08.614Z</time></trkpt><trkpt lat="43.4814746" lon="11.1481419"><ele>120.33333333333334</ele><time>2026-05-01T15:53:09.609Z</time></trkpt><trkpt lat="43.4816344" lon="11.1482241"><ele>120.66666666666667</ele><time>2026-05-01T15:53:10.611Z</time></trkpt><trkpt lat="43.4817975" lon="11.1483154"><ele>121.0</ele><time>2026-05-01T15:53:11.613Z</time></trkpt><trkpt lat="43.4819636" lon="11.1484097"><ele>118.66666666666667</ele><time>2026-05-01T15:53:12.616Z</time></trkpt><trkpt lat="43.482129" lon="11.1485072"><ele>116.33333333333334</ele><time>2026-05-01T15:53:13.616Z</time></trkpt><trkpt lat="43.4822999" lon="11.1486008"><ele>114.0</ele><time>2026-05-01T15:53:14.632Z</time></trkpt><trkpt lat="43.4824692" lon="11.1486939"><ele>114.0</ele><time>2026-05-01T15:53:15.62Z</time></trkpt><trkpt lat="43.4826431" lon="11.1487816"><ele>114.0</ele><time>2026-05-01T15:53:16.62Z</time></trkpt><trkpt lat="43.482809" lon="11.148865"><ele>114.0</ele><time>2026-05-01T15:53:17.616Z</time></trkpt><trkpt lat="43.4829748" lon="11.1489489"><ele>112.66666666666666</ele><time>2026-05-01T15:53:18.615Z</time></trkpt><trkpt lat="43.4831433" lon="11.149027"><ele>111.33333333333333</ele><time>2026-05-01T15:53:19.624Z</time></trkpt><trkpt lat="43.4833043" lon="11.1491116"><ele>110.0</ele><time>2026-05-01T15:53:20.626Z</time></trkpt><trkpt lat="43.4834585" lon="11.1491902"><ele>110.0</ele><time>2026-05-01T15:53:21.616Z</time></trkpt><trkpt lat="43.4836074" lon="11.1492701"><ele>110.0</ele><time>2026-05-01T15:53:22.616Z</time></trkpt><trkpt lat="43.4837461" lon="11.14937"><ele>110.0</ele><time>2026-05-01T15:53:23.615Z</time></trkpt><trkpt lat="43.4838744" lon="11.1494941"><ele>110.0</ele><time>2026-05-01T15:53:24.621Z</time></trkpt><trkpt lat="43.4839813" lon="11.1496277"><ele>110.0</ele><time>2026-05-01T15:53:25.617Z</time></trkpt><trkpt lat="43.4840768" lon="11.1497653"><ele>110.0</ele><time>2026-05-01T15:53:26.61Z</time></trkpt><trkpt lat="43.4841782" lon="11.1498976"><ele>110.0</ele><time>2026-05-01T15:53:27.608Z</time></trkpt><trkpt lat="43.4842844" lon="11.1500177"><ele>110.5</ele><time>2026-05-01T15:53:28.617Z</time></trkpt><trkpt lat="43.484406" lon="11.1501097"><ele>111.0</ele><time>2026-05-01T15:53:29.606Z</time></trkpt><trkpt lat="43.4845475" lon="11.1501628"><ele>111.5</ele><time>2026-05-01T15:53:30.633Z</time></trkpt><trkpt lat="43.4847012" lon="11.1501942"><ele>112.0</ele><time>2026-05-01T15:53:31.61Z</time></trkpt><trkpt lat="43.4848583" lon="11.1502247"><ele>110.75</ele><time>2026-05-01T15:53:32.614Z</time></trkpt><trkpt lat="43.4850143" lon="11.150252"><ele>109.5</ele><time>2026-05-01T15:53:33.613Z</time></trkpt><trkpt lat="43.4851685" lon="11.1502925"><ele>108.25</ele><time>2026-05-01T15:53:34.615Z</time></trkpt><trkpt lat="43.4853007" lon="11.1503314"><ele>107.0</ele><time>2026-05-01T15:53:35.616Z</time></trkpt><trkpt lat="43.4854112" lon="11.1503554"><ele>107.0</ele><time>2026-05-01T15:53:36.613Z</time></trkpt><trkpt lat="43.4855124" lon="11.1503735"><ele>106.99999999999999</ele><time>2026-05-01T15:53:37.631Z</time></trkpt><trkpt lat="43.4856079" lon="11.1503904"><ele>106.99999999999999</ele><time>2026-05-01T15:53:38.613Z</time></trkpt><trkpt lat="43.4856962" lon="11.1504104"><ele>107.0</ele><time>2026-05-01T15:53:39.612Z</time></trkpt><trkpt lat="43.4857797" lon="11.1504415"><ele>107.0</ele><time>2026-05-01T15:53:40.602Z</time></trkpt><trkpt lat="43.4858584" lon="11.1504819"><ele>106.99999999999999</ele><time>2026-05-01T15:53:41.612Z</time></trkpt><trkpt lat="43.4859152" lon="11.1505258"><ele>107.0</ele><time>2026-05-01T15:53:42.61Z</time></trkpt><trkpt lat="43.4859813" lon="11.150608"><ele>107.0</ele><time>2026-05-01T15:53:44.611Z</time></trkpt><trkpt lat="43.4860245" lon="11.1506765"><ele>107.0</ele><time>2026-05-01T15:53:48.61Z</time></trkpt><trkpt lat="43.4860757" lon="11.1507718"><ele>106.99999999999999</ele><time>2026-05-01T15:53:50.612Z</time></trkpt><trkpt lat="43.486121" lon="11.1508505"><ele>107.0</ele><time>2026-05-01T15:53:51.613Z</time></trkpt><trkpt lat="43.4861693" lon="11.1509318"><ele>107.0</ele><time>2026-05-01T15:53:52.615Z</time></trkpt><trkpt lat="43.4862277" lon="11.1509946"><ele>106.99999999999999</ele><time>2026-05-01T15:53:53.608Z</time></trkpt><trkpt lat="43.4863099" lon="11.1510371"><ele>106.99999999999999</ele><time>2026-05-01T15:53:54.612Z</time></trkpt><trkpt lat="43.4864108" lon="11.151049"><ele>107.0</ele><time>2026-05-01T15:53:55.615Z</time></trkpt><trkpt lat="43.4865254" lon="11.1510341"><ele>107.0</ele><time>2026-05-01T15:53:56.594Z</time></trkpt><trkpt lat="43.4866197" lon="11.1509599"><ele>107.0</ele><time>2026-05-01T15:53:57.611Z</time></trkpt><trkpt lat="43.4867055" lon="11.1508686"><ele>107.0</ele><time>2026-05-01T15:53:58.61Z</time></trkpt><trkpt lat="43.4868009" lon="11.150753"><ele>107.0</ele><time>2026-05-01T15:53:59.607Z</time></trkpt><trkpt lat="43.4869041" lon="11.1506578"><ele>107.0</ele><time>2026-05-01T15:54:00.603Z</time></trkpt><trkpt lat="43.4870157" lon="11.1506027"><ele>107.25</ele><time>2026-05-01T15:54:01.597Z</time></trkpt><trkpt lat="43.4871302" lon="11.1505833"><ele>107.5</ele><time>2026-05-01T15:54:02.604Z</time></trkpt><trkpt lat="43.4872515" lon="11.1505698"><ele>107.75</ele><time>2026-05-01T15:54:03.606Z</time></trkpt><trkpt lat="43.4873678" lon="11.1505566"><ele>108.0</ele><time>2026-05-01T15:54:04.609Z</time></trkpt><trkpt lat="43.4874811" lon="11.1505455"><ele>108.0</ele><time>2026-05-01T15:54:05.603Z</time></trkpt><trkpt lat="43.4875864" lon="11.1505372"><ele>108.0</ele><time>2026-05-01T15:54:06.61Z</time></trkpt><trkpt lat="43.4876717" lon="11.1505282"><ele>108.0</ele><time>2026-05-01T15:54:07.608Z</time></trkpt><trkpt lat="43.4877483" lon="11.1505508"><ele>108.0</ele><time>2026-05-01T15:54:08.609Z</time></trkpt><trkpt lat="43.4877957" lon="11.1506214"><ele>108.0</ele><time>2026-05-01T15:54:09.612Z</time></trkpt><trkpt lat="43.4878071" lon="11.1507626"><ele>108.0</ele><time>2026-05-01T15:54:11.611Z</time></trkpt><trkpt lat="43.4876833" lon="11.1507941"><ele>108.0</ele><time>2026-05-01T15:54:13.612Z</time></trkpt><trkpt lat="43.4875999" lon="11.1507596"><ele>108.00000000000001</ele><time>2026-05-01T15:54:14.614Z</time></trkpt><trkpt lat="43.4875059" lon="11.1507665"><ele>108.00000000000001</ele><time>2026-05-01T15:54:15.623Z</time></trkpt><trkpt lat="43.4873893" lon="11.1507816"><ele>108.0</ele><time>2026-05-01T15:54:16.613Z</time></trkpt><trkpt lat="43.4872685" lon="11.1507991"><ele>108.0</ele><time>2026-05-01T15:54:17.608Z</time></trkpt><trkpt lat="43.4871506" lon="11.1508298"><ele>107.75</ele><time>2026-05-01T15:54:18.607Z</time></trkpt><trkpt lat="43.4870284" lon="11.1508756"><ele>107.5</ele><time>2026-05-01T15:54:19.607Z</time></trkpt><trkpt lat="43.4869071" lon="11.1509591"><ele>107.25</ele><time>2026-05-01T15:54:20.612Z</time></trkpt><trkpt lat="43.4867864" lon="11.1510635"><ele>107.0</ele><time>2026-05-01T15:54:21.608Z</time></trkpt><trkpt lat="43.4866774" lon="11.1511928"><ele>107.0</ele><time>2026-05-01T15:54:22.615Z</time></trkpt><trkpt lat="43.4865836" lon="11.1513397"><ele>107.0</ele><time>2026-05-01T15:54:23.607Z</time></trkpt><trkpt lat="43.4864908" lon="11.1515053"><ele>107.0</ele><time>2026-05-01T15:54:24.609Z</time></trkpt><trkpt lat="43.4864019" lon="11.1516792"><ele>107.0</ele><time>2026-05-01T15:54:25.603Z</time></trkpt><trkpt lat="43.4863152" lon="11.1518502"><ele>107.0</ele><time>2026-05-01T15:54:26.625Z</time></trkpt><trkpt lat="43.4862362" lon="11.1520185"><ele>107.0</ele><time>2026-05-01T15:54:27.609Z</time></trkpt><trkpt lat="43.4861681" lon="11.1521959"><ele>107.0</ele><time>2026-05-01T15:54:28.629Z</time></trkpt><trkpt lat="43.4861268" lon="11.1523807"><ele>107.0</ele><time>2026-05-01T15:54:29.605Z</time></trkpt><trkpt lat="43.4861161" lon="11.1525852"><ele>107.5</ele><time>2026-05-01T15:54:30.638Z</time></trkpt><trkpt lat="43.4861402" lon="11.1527708"><ele>108.0</ele><time>2026-05-01T15:54:31.606Z</time></trkpt><trkpt lat="43.4861817" lon="11.1529471"><ele>108.5</ele><time>2026-05-01T15:54:32.614Z</time></trkpt><trkpt lat="43.4862534" lon="11.1531215"><ele>109.0</ele><time>2026-05-01T15:54:33.606Z</time></trkpt><trkpt lat="43.4863391" lon="11.1532849"><ele>110.33333333333334</ele><time>2026-05-01T15:54:34.609Z</time></trkpt><trkpt lat="43.486447" lon="11.1534433"><ele>111.66666666666666</ele><time>2026-05-01T15:54:35.625Z</time></trkpt><trkpt lat="43.4865583" lon="11.1536079"><ele>113.0</ele><time>2026-05-01T15:54:36.611Z</time></trkpt><trkpt lat="43.4866728" lon="11.1537706"><ele>113.0</ele><time>2026-05-01T15:54:37.604Z</time></trkpt><trkpt lat="43.4867804" lon="11.1539362"><ele>113.0</ele><time>2026-05-01T15:54:38.613Z</time></trkpt><trkpt lat="43.4868799" lon="11.1541121"><ele>113.0</ele><time>2026-05-01T15:54:39.614Z</time></trkpt><trkpt lat="43.4869675" lon="11.1542984"><ele>113.66666666666666</ele><time>2026-05-01T15:54:40.609Z</time></trkpt><trkpt lat="43.4870397" lon="11.1544967"><ele>114.33333333333334</ele><time>2026-05-01T15:54:41.614Z</time></trkpt><trkpt lat="43.487095" lon="11.1547128"><ele>115.0</ele><time>2026-05-01T15:54:42.625Z</time></trkpt><trkpt lat="43.4871493" lon="11.1549282"><ele>116.33333333333334</ele><time>2026-05-01T15:54:43.611Z</time></trkpt><trkpt lat="43.487203" lon="11.1551314"><ele>117.66666666666666</ele><time>2026-05-01T15:54:44.606Z</time></trkpt><trkpt lat="43.4872679" lon="11.1553391"><ele>119.0</ele><time>2026-05-01T15:54:45.608Z</time></trkpt><trkpt lat="43.4873567" lon="11.1555428"><ele>120.66666666666666</ele><time>2026-05-01T15:54:46.604Z</time></trkpt><trkpt lat="43.4874616" lon="11.1557395"><ele>122.33333333333334</ele><time>2026-05-01T15:54:47.61Z</time></trkpt><trkpt lat="43.4875754" lon="11.1559558"><ele>124.0</ele><time>2026-05-01T15:54:48.611Z</time></trkpt><trkpt lat="43.4876893" lon="11.1561793"><ele>124.0</ele><time>2026-05-01T15:54:49.611Z</time></trkpt><trkpt lat="43.4877886" lon="11.1563896"><ele>124.0</ele><time>2026-05-01T15:54:50.602Z</time></trkpt><trkpt lat="43.4878729" lon="11.1565731"><ele>124.0</ele><time>2026-05-01T15:54:51.611Z</time></trkpt><trkpt lat="43.4879481" lon="11.1567387"><ele>124.6</ele><time>2026-05-01T15:54:52.613Z</time></trkpt><trkpt lat="43.4880075" lon="11.1568963"><ele>125.2</ele><time>2026-05-01T15:54:53.604Z</time></trkpt><trkpt lat="43.4880542" lon="11.1570201"><ele>125.79999999999998</ele><time>2026-05-01T15:54:54.61Z</time></trkpt><trkpt lat="43.4880982" lon="11.1571216"><ele>126.39999999999999</ele><time>2026-05-01T15:54:55.608Z</time></trkpt><trkpt lat="43.488137" lon="11.1572205"><ele>127.0</ele><time>2026-05-01T15:54:56.614Z</time></trkpt><trkpt lat="43.4881704" lon="11.1573021"><ele>128.6</ele><time>2026-05-01T15:54:57.604Z</time></trkpt><trkpt lat="43.4882156" lon="11.1574003"><ele>130.2</ele><time>2026-05-01T15:54:59.609Z</time></trkpt><trkpt lat="43.4882491" lon="11.1574946"><ele>131.8</ele><time>2026-05-01T15:55:01.613Z</time></trkpt><trkpt lat="43.4882672" lon="11.1576543"><ele>133.4</ele><time>2026-05-01T15:55:03.611Z</time></trkpt><trkpt lat="43.4882665" lon="11.1577754"><ele>135.0</ele><time>2026-05-01T15:55:04.617Z</time></trkpt><trkpt lat="43.4882395" lon="11.1579064"><ele>135.0</ele><time>2026-05-01T15:55:05.624Z</time></trkpt><trkpt lat="43.4881915" lon="11.1580459"><ele>135.0</ele><time>2026-05-01T15:55:06.632Z</time></trkpt><trkpt lat="43.4881343" lon="11.1581805"><ele>135.0</ele><time>2026-05-01T15:55:07.6Z</time></trkpt><trkpt lat="43.4880786" lon="11.1583394"><ele>135.0</ele><time>2026-05-01T15:55:08.607Z</time></trkpt><trkpt lat="43.4880279" lon="11.1585077"><ele>135.25</ele><time>2026-05-01T15:55:09.616Z</time></trkpt><trkpt lat="43.4879794" lon="11.1586859"><ele>135.5</ele><time>2026-05-01T15:55:10.613Z</time></trkpt><trkpt lat="43.4879331" lon="11.1588751"><ele>135.75</ele><time>2026-05-01T15:55:11.617Z</time></trkpt><trkpt lat="43.4878961" lon="11.1590825"><ele>136.0</ele><time>2026-05-01T15:55:12.607Z</time></trkpt><trkpt lat="43.4878628" lon="11.1592869"><ele>133.5</ele><time>2026-05-01T15:55:13.616Z</time></trkpt><trkpt lat="43.4878383" lon="11.1594919"><ele>131.0</ele><time>2026-05-01T15:55:14.614Z</time></trkpt><trkpt lat="43.4878175" lon="11.1596982"><ele>128.5</ele><time>2026-05-01T15:55:15.613Z</time></trkpt><trkpt lat="43.4877974" lon="11.1598969"><ele>126.0</ele><time>2026-05-01T15:55:16.615Z</time></trkpt><trkpt lat="43.4877658" lon="11.1600832"><ele>126.0</ele><time>2026-05-01T15:55:17.6Z</time></trkpt><trkpt lat="43.4877358" lon="11.1602536"><ele>126.0</ele><time>2026-05-01T15:55:18.605Z</time></trkpt><trkpt lat="43.4877162" lon="11.1604101"><ele>126.0</ele><time>2026-05-01T15:55:19.614Z</time></trkpt><trkpt lat="43.4877154" lon="11.160547"><ele>126.0</ele><time>2026-05-01T15:55:20.606Z</time></trkpt><trkpt lat="43.4877155" lon="11.1606831"><ele>126.0</ele><time>2026-05-01T15:55:21.604Z</time></trkpt><trkpt lat="43.4877165" lon="11.1608183"><ele>126.25</ele><time>2026-05-01T15:55:22.617Z</time></trkpt><trkpt lat="43.4877343" lon="11.1609678"><ele>126.5</ele><time>2026-05-01T15:55:23.603Z</time></trkpt><trkpt lat="43.4877484" lon="11.1611229"><ele>126.75</ele><time>2026-05-01T15:55:24.61Z</time></trkpt><trkpt lat="43.4877684" lon="11.1612869"><ele>127.0</ele><time>2026-05-01T15:55:25.612Z</time></trkpt><trkpt lat="43.487789" lon="11.1614644"><ele>126.33333333333334</ele><time>2026-05-01T15:55:26.612Z</time></trkpt><trkpt lat="43.4878144" lon="11.1616607"><ele>125.66666666666666</ele><time>2026-05-01T15:55:27.606Z</time></trkpt><trkpt lat="43.4878435" lon="11.1618681"><ele>125.0</ele><time>2026-05-01T15:55:28.623Z</time></trkpt><trkpt lat="43.4878782" lon="11.1620821"><ele>125.0</ele><time>2026-05-01T15:55:29.61Z</time></trkpt><trkpt lat="43.487916" lon="11.1623109"><ele>125.0</ele><time>2026-05-01T15:55:30.609Z</time></trkpt><trkpt lat="43.4879479" lon="11.1625224"><ele>125.0</ele><time>2026-05-01T15:55:31.607Z</time></trkpt><trkpt lat="43.4879747" lon="11.1627296"><ele>127.33333333333333</ele><time>2026-05-01T15:55:32.618Z</time></trkpt><trkpt lat="43.4880043" lon="11.1629359"><ele>129.66666666666666</ele><time>2026-05-01T15:55:33.607Z</time></trkpt><trkpt lat="43.4880401" lon="11.1631358"><ele>132.0</ele><time>2026-05-01T15:55:34.617Z</time></trkpt><trkpt lat="43.4880844" lon="11.1633452"><ele>132.0</ele><time>2026-05-01T15:55:35.614Z</time></trkpt><trkpt lat="43.4881269" lon="11.1635472"><ele>132.0</ele><time>2026-05-01T15:55:36.609Z</time></trkpt><trkpt lat="43.4881707" lon="11.1637421"><ele>132.0</ele><time>2026-05-01T15:55:37.613Z</time></trkpt><trkpt lat="43.4882094" lon="11.1639358"><ele>132.0</ele><time>2026-05-01T15:55:38.615Z</time></trkpt><trkpt lat="43.4882519" lon="11.1641182"><ele>132.0</ele><time>2026-05-01T15:55:39.611Z</time></trkpt><trkpt lat="43.4883016" lon="11.1642875"><ele>132.0</ele><time>2026-05-01T15:55:40.613Z</time></trkpt><trkpt lat="43.4883739" lon="11.1644369"><ele>132.0</ele><time>2026-05-01T15:55:41.61Z</time></trkpt><trkpt lat="43.4884689" lon="11.1645716"><ele>132.0</ele><time>2026-05-01T15:55:42.623Z</time></trkpt><trkpt lat="43.488565" lon="11.1646975"><ele>132.0</ele><time>2026-05-01T15:55:43.606Z</time></trkpt><trkpt lat="43.4886406" lon="11.1648314"><ele>132.0</ele><time>2026-05-01T15:55:44.607Z</time></trkpt><trkpt lat="43.4886845" lon="11.1650018"><ele>132.0</ele><time>2026-05-01T15:55:45.607Z</time></trkpt><trkpt lat="43.4887064" lon="11.1651735"><ele>132.0</ele><time>2026-05-01T15:55:46.609Z</time></trkpt><trkpt lat="43.4887074" lon="11.1653682"><ele>131.25</ele><time>2026-05-01T15:55:47.607Z</time></trkpt><trkpt lat="43.488703" lon="11.165552"><ele>130.5</ele><time>2026-05-01T15:55:48.611Z</time></trkpt><trkpt lat="43.4886982" lon="11.1657454"><ele>129.75</ele><time>2026-05-01T15:55:49.609Z</time></trkpt><trkpt lat="43.4887031" lon="11.1659347"><ele>129.0</ele><time>2026-05-01T15:55:50.599Z</time></trkpt><trkpt lat="43.48873" lon="11.1661205"><ele>130.5</ele><time>2026-05-01T15:55:51.613Z</time></trkpt><trkpt lat="43.4887744" lon="11.1662991"><ele>132.0</ele><time>2026-05-01T15:55:52.605Z</time></trkpt><trkpt lat="43.4888317" lon="11.1664535"><ele>133.5</ele><time>2026-05-01T15:55:53.615Z</time></trkpt><trkpt lat="43.4888905" lon="11.1666044"><ele>135.0</ele><time>2026-05-01T15:55:54.614Z</time></trkpt><trkpt lat="43.4889544" lon="11.1667506"><ele>135.8</ele><time>2026-05-01T15:55:55.608Z</time></trkpt><trkpt lat="43.4890124" lon="11.1668778"><ele>136.6</ele><time>2026-05-01T15:55:56.611Z</time></trkpt><trkpt lat="43.4890568" lon="11.1669773"><ele>137.4</ele><time>2026-05-01T15:55:57.605Z</time></trkpt><trkpt lat="43.4890978" lon="11.1670591"><ele>138.2</ele><time>2026-05-01T15:55:58.612Z</time></trkpt><trkpt lat="43.4891686" lon="11.1672109"><ele>139.0</ele><time>2026-05-01T15:56:00.632Z</time></trkpt><trkpt lat="43.4892311" lon="11.16728"><ele>139.0</ele><time>2026-05-01T15:56:01.608Z</time></trkpt><trkpt lat="43.4893086" lon="11.1673443"><ele>139.0</ele><time>2026-05-01T15:56:02.616Z</time></trkpt><trkpt lat="43.4894069" lon="11.1673891"><ele>139.0</ele><time>2026-05-01T15:56:03.606Z</time></trkpt><trkpt lat="43.4895089" lon="11.16741"><ele>139.0</ele><time>2026-05-01T15:56:04.617Z</time></trkpt><trkpt lat="43.4896128" lon="11.1674108"><ele>139.0</ele><time>2026-05-01T15:56:05.605Z</time></trkpt><trkpt lat="43.4897113" lon="11.1674093"><ele>141.2</ele><time>2026-05-01T15:56:06.61Z</time></trkpt><trkpt lat="43.4898098" lon="11.1674314"><ele>143.4</ele><time>2026-05-01T15:56:07.613Z</time></trkpt><trkpt lat="43.4898996" lon="11.1674765"><ele>145.6</ele><time>2026-05-01T15:56:08.616Z</time></trkpt><trkpt lat="43.4899819" lon="11.1675498"><ele>147.8</ele><time>2026-05-01T15:56:09.633Z</time></trkpt><trkpt lat="43.4900625" lon="11.1676381"><ele>150.0</ele><time>2026-05-01T15:56:10.614Z</time></trkpt><trkpt lat="43.4901449" lon="11.1677387"><ele>150.0</ele><time>2026-05-01T15:56:11.619Z</time></trkpt><trkpt lat="43.4902349" lon="11.1678307"><ele>150.0</ele><time>2026-05-01T15:56:12.613Z</time></trkpt><trkpt lat="43.4903223" lon="11.1679278"><ele>150.0</ele><time>2026-05-01T15:56:13.611Z</time></trkpt><trkpt lat="43.4904065" lon="11.1680248"><ele>150.0</ele><time>2026-05-01T15:56:14.618Z</time></trkpt><trkpt lat="43.4904916" lon="11.1681129"><ele>150.0</ele><time>2026-05-01T15:56:15.614Z</time></trkpt><trkpt lat="43.4905727" lon="11.1681949"><ele>152.6</ele><time>2026-05-01T15:56:16.604Z</time></trkpt><trkpt lat="43.4906466" lon="11.1682779"><ele>155.2</ele><time>2026-05-01T15:56:17.62Z</time></trkpt><trkpt lat="43.4907261" lon="11.1683588"><ele>157.8</ele><time>2026-05-01T15:56:18.616Z</time></trkpt><trkpt lat="43.4908079" lon="11.1684431"><ele>160.4</ele><time>2026-05-01T15:56:19.616Z</time></trkpt><trkpt lat="43.4908916" lon="11.1685328"><ele>163.0</ele><time>2026-05-01T15:56:20.616Z</time></trkpt><trkpt lat="43.4909803" lon="11.1686244"><ele>163.0</ele><time>2026-05-01T15:56:21.614Z</time></trkpt><trkpt lat="43.4910773" lon="11.1687279"><ele>163.0</ele><time>2026-05-01T15:56:22.601Z</time></trkpt><trkpt lat="43.4911728" lon="11.1688392"><ele>163.0</ele><time>2026-05-01T15:56:23.639Z</time></trkpt><trkpt lat="43.4912708" lon="11.16894"><ele>163.0</ele><time>2026-05-01T15:56:24.6Z</time></trkpt><trkpt lat="43.4913674" lon="11.1690238"><ele>165.5</ele><time>2026-05-01T15:56:25.616Z</time></trkpt><trkpt lat="43.4914738" lon="11.1690942"><ele>168.0</ele><time>2026-05-01T15:56:26.607Z</time></trkpt><trkpt lat="43.491588" lon="11.169149"><ele>170.5</ele><time>2026-05-01T15:56:27.61Z</time></trkpt><trkpt lat="43.4917047" lon="11.1692001"><ele>173.0</ele><time>2026-05-01T15:56:28.613Z</time></trkpt><trkpt lat="43.4918294" lon="11.1692384"><ele>173.0</ele><time>2026-05-01T15:56:29.615Z</time></trkpt><trkpt lat="43.4919596" lon="11.1692715"><ele>173.0</ele><time>2026-05-01T15:56:30.611Z</time></trkpt><trkpt lat="43.4920877" lon="11.1693084"><ele>173.0</ele><time>2026-05-01T15:56:31.613Z</time></trkpt><trkpt lat="43.492214" lon="11.1693407"><ele>173.0</ele><time>2026-05-01T15:56:32.633Z</time></trkpt><trkpt lat="43.4923421" lon="11.1693772"><ele>174.5</ele><time>2026-05-01T15:56:33.621Z</time></trkpt><trkpt lat="43.4924659" lon="11.1694165"><ele>176.0</ele><time>2026-05-01T15:56:34.613Z</time></trkpt><trkpt lat="43.4925839" lon="11.1694482"><ele>177.5</ele><time>2026-05-01T15:56:35.607Z</time></trkpt><trkpt lat="43.4927031" lon="11.1694839"><ele>179.0</ele><time>2026-05-01T15:56:36.608Z</time></trkpt><trkpt lat="43.4928136" lon="11.1695228"><ele>180.0</ele><time>2026-05-01T15:56:37.615Z</time></trkpt><trkpt lat="43.4929262" lon="11.1695564"><ele>181.0</ele><time>2026-05-01T15:56:38.609Z</time></trkpt><trkpt lat="43.4930306" lon="11.1695769"><ele>182.0</ele><time>2026-05-01T15:56:39.601Z</time></trkpt><trkpt lat="43.4931371" lon="11.1696051"><ele>183.0</ele><time>2026-05-01T15:56:40.609Z</time></trkpt><trkpt lat="43.4932339" lon="11.1696294"><ele>184.0</ele><time>2026-05-01T15:56:41.613Z</time></trkpt><trkpt lat="43.493315" lon="11.1696543"><ele>184.0</ele><time>2026-05-01T15:56:42.61Z</time></trkpt><trkpt lat="43.493387" lon="11.1696838"><ele>184.0</ele><time>2026-05-01T15:56:43.607Z</time></trkpt><trkpt lat="43.4934594" lon="11.1697235"><ele>184.0</ele><time>2026-05-01T15:56:44.609Z</time></trkpt><trkpt lat="43.4935367" lon="11.1697799"><ele>184.0</ele><time>2026-05-01T15:56:45.627Z</time></trkpt><trkpt lat="43.4936226" lon="11.1698522"><ele>184.0</ele><time>2026-05-01T15:56:46.604Z</time></trkpt><trkpt lat="43.4937067" lon="11.169927"><ele>184.0</ele><time>2026-05-01T15:56:47.605Z</time></trkpt><trkpt lat="43.4937914" lon="11.1700104"><ele>185.79999999999998</ele><time>2026-05-01T15:56:48.625Z</time></trkpt><trkpt lat="43.4938766" lon="11.170104"><ele>187.6</ele><time>2026-05-01T15:56:49.623Z</time></trkpt><trkpt lat="43.4939549" lon="11.1701822"><ele>189.4</ele><time>2026-05-01T15:56:50.625Z</time></trkpt><trkpt lat="43.4940351" lon="11.1702591"><ele>191.2</ele><time>2026-05-01T15:56:51.614Z</time></trkpt><trkpt lat="43.4941097" lon="11.1703298"><ele>193.0</ele><time>2026-05-01T15:56:52.597Z</time></trkpt><trkpt lat="43.4941779" lon="11.1703988"><ele>193.0</ele><time>2026-05-01T15:56:53.629Z</time></trkpt><trkpt lat="43.4942506" lon="11.1704769"><ele>193.0</ele><time>2026-05-01T15:56:54.605Z</time></trkpt><trkpt lat="43.4943224" lon="11.1705651"><ele>193.0</ele><time>2026-05-01T15:56:55.611Z</time></trkpt><trkpt lat="43.4943895" lon="11.170664"><ele>193.0</ele><time>2026-05-01T15:56:56.619Z</time></trkpt><trkpt lat="43.494453" lon="11.1707735"><ele>193.0</ele><time>2026-05-01T15:56:57.613Z</time></trkpt><trkpt lat="43.4945217" lon="11.1708752"><ele>195.2</ele><time>2026-05-01T15:56:58.618Z</time></trkpt><trkpt lat="43.494596" lon="11.1709571"><ele>197.4</ele><time>2026-05-01T15:56:59.609Z</time></trkpt><trkpt lat="43.4946783" lon="11.1710359"><ele>199.6</ele><time>2026-05-01T15:57:00.623Z</time></trkpt><trkpt lat="43.4947649" lon="11.1711121"><ele>201.79999999999998</ele><time>2026-05-01T15:57:01.602Z</time></trkpt><trkpt lat="43.4948649" lon="11.171183"><ele>204.0</ele><time>2026-05-01T15:57:02.59Z</time></trkpt><trkpt lat="43.4949726" lon="11.1712492"><ele>204.0</ele><time>2026-05-01T15:57:03.604Z</time></trkpt><trkpt lat="43.4950769" lon="11.17131"><ele>204.0</ele><time>2026-05-01T15:57:04.607Z</time></trkpt><trkpt lat="43.4951818" lon="11.1713707"><ele>204.0</ele><time>2026-05-01T15:57:05.61Z</time></trkpt><trkpt lat="43.4952843" lon="11.1714208"><ele>204.0</ele><time>2026-05-01T15:57:06.613Z</time></trkpt><trkpt lat="43.4953673" lon="11.1714704"><ele>204.0</ele><time>2026-05-01T15:57:07.605Z</time></trkpt><trkpt lat="43.4954425" lon="11.1715171"><ele>207.0</ele><time>2026-05-01T15:57:08.611Z</time></trkpt><trkpt lat="43.4955187" lon="11.1715608"><ele>210.0</ele><time>2026-05-01T15:57:09.614Z</time></trkpt><trkpt lat="43.4955913" lon="11.171614"><ele>213.0</ele><time>2026-05-01T15:57:10.613Z</time></trkpt><trkpt lat="43.4956696" lon="11.171666"><ele>216.0</ele><time>2026-05-01T15:57:11.601Z</time></trkpt><trkpt lat="43.4957446" lon="11.1717323"><ele>219.0</ele><time>2026-05-01T15:57:12.606Z</time></trkpt><trkpt lat="43.495821" lon="11.1718041"><ele>222.0</ele><time>2026-05-01T15:57:13.622Z</time></trkpt><trkpt lat="43.4958986" lon="11.1718918"><ele>222.0</ele><time>2026-05-01T15:57:14.605Z</time></trkpt><trkpt lat="43.4959686" lon="11.1719819"><ele>222.0</ele><time>2026-05-01T15:57:15.604Z</time></trkpt><trkpt lat="43.4960266" lon="11.1720764"><ele>222.0</ele><time>2026-05-01T15:57:16.61Z</time></trkpt><trkpt lat="43.4960784" lon="11.1721503"><ele>222.0</ele><time>2026-05-01T15:57:17.601Z</time></trkpt><trkpt lat="43.4961258" lon="11.1722132"><ele>222.0</ele><time>2026-05-01T15:57:18.614Z</time></trkpt><trkpt lat="43.4961956" lon="11.1722697"><ele>222.0</ele><time>2026-05-01T15:57:20.613Z</time></trkpt><trkpt lat="43.4962678" lon="11.1722267"><ele>224.2</ele><time>2026-05-01T15:57:23.608Z</time></trkpt><trkpt lat="43.4962875" lon="11.1721079"><ele>226.39999999999998</ele><time>2026-05-01T15:57:25.603Z</time></trkpt><trkpt lat="43.4962836" lon="11.1719547"><ele>228.60000000000002</ele><time>2026-05-01T15:57:27.618Z</time></trkpt><trkpt lat="43.4962817" lon="11.171816"><ele>230.8</ele><time>2026-05-01T15:57:29.609Z</time></trkpt><trkpt lat="43.4963131" lon="11.1717334"><ele>233.0</ele><time>2026-05-01T15:57:31.6Z</time></trkpt><trkpt lat="43.4964039" lon="11.1717379"><ele>233.00000000000003</ele><time>2026-05-01T15:57:33.616Z</time></trkpt><trkpt lat="43.4964747" lon="11.1717689"><ele>233.0</ele><time>2026-05-01T15:57:34.607Z</time></trkpt><trkpt lat="43.496554" lon="11.1717722"><ele>233.0</ele><time>2026-05-01T15:57:35.621Z</time></trkpt><trkpt lat="43.4966383" lon="11.1717645"><ele>233.0</ele><time>2026-05-01T15:57:36.605Z</time></trkpt><trkpt lat="43.4967156" lon="11.1717238"><ele>233.00000000000003</ele><time>2026-05-01T15:57:37.604Z</time></trkpt><trkpt lat="43.4967877" lon="11.171629"><ele>233.0</ele><time>2026-05-01T15:57:38.611Z</time></trkpt><trkpt lat="43.4968571" lon="11.1715326"><ele>233.33333333333334</ele><time>2026-05-01T15:57:39.621Z</time></trkpt><trkpt lat="43.4969229" lon="11.1714384"><ele>233.66666666666669</ele><time>2026-05-01T15:57:40.625Z</time></trkpt><trkpt lat="43.4969844" lon="11.1713755"><ele>234.0</ele><time>2026-05-01T15:57:41.617Z</time></trkpt><trkpt lat="43.4970537" lon="11.1713378"><ele>234.33333333333331</ele><time>2026-05-01T15:57:42.625Z</time></trkpt><trkpt lat="43.4971365" lon="11.1713113"><ele>234.66666666666666</ele><time>2026-05-01T15:57:43.621Z</time></trkpt><trkpt lat="43.497235" lon="11.1713034"><ele>235.0</ele><time>2026-05-01T15:57:44.626Z</time></trkpt><trkpt lat="43.4973357" lon="11.1713332"><ele>235.0</ele><time>2026-05-01T15:57:45.608Z</time></trkpt><trkpt lat="43.4974367" lon="11.1713606"><ele>235.0</ele><time>2026-05-01T15:57:46.6Z</time></trkpt><trkpt lat="43.4975443" lon="11.1713805"><ele>235.0</ele><time>2026-05-01T15:57:47.61Z</time></trkpt><trkpt lat="43.4976617" lon="11.1714004"><ele>235.0</ele><time>2026-05-01T15:57:48.621Z</time></trkpt><trkpt lat="43.4977703" lon="11.1714233"><ele>235.0</ele><time>2026-05-01T15:57:49.613Z</time></trkpt><trkpt lat="43.497877" lon="11.1714435"><ele>234.83333333333331</ele><time>2026-05-01T15:57:50.599Z</time></trkpt><trkpt lat="43.4979751" lon="11.17145"><ele>234.66666666666666</ele><time>2026-05-01T15:57:51.614Z</time></trkpt><trkpt lat="43.4980679" lon="11.171454"><ele>234.5</ele><time>2026-05-01T15:57:52.627Z</time></trkpt><trkpt lat="43.4981389" lon="11.1714423"><ele>234.33333333333331</ele><time>2026-05-01T15:57:53.61Z</time></trkpt><trkpt lat="43.4982037" lon="11.1714362"><ele>234.16666666666666</ele><time>2026-05-01T15:57:54.61Z</time></trkpt><trkpt lat="43.498312" lon="11.1714331"><ele>234.0</ele><time>2026-05-01T15:57:56.609Z</time></trkpt><trkpt lat="43.4983823" lon="11.1714567"><ele>234.0</ele><time>2026-05-01T15:57:57.61Z</time></trkpt><trkpt lat="43.4984791" lon="11.1715069"><ele>234.0</ele><time>2026-05-01T15:57:58.612Z</time></trkpt><trkpt lat="43.4985894" lon="11.1715718"><ele>234.0</ele><time>2026-05-01T15:57:59.617Z</time></trkpt><trkpt lat="43.4987091" lon="11.1716569"><ele>234.0</ele><time>2026-05-01T15:58:00.616Z</time></trkpt><trkpt lat="43.4988427" lon="11.1717343"><ele>233.0</ele><time>2026-05-01T15:58:01.604Z</time></trkpt><trkpt lat="43.4989823" lon="11.1718115"><ele>232.0</ele><time>2026-05-01T15:58:02.618Z</time></trkpt><trkpt lat="43.4991173" lon="11.1718923"><ele>231.0</ele><time>2026-05-01T15:58:03.608Z</time></trkpt><trkpt lat="43.4992588" lon="11.1719636"><ele>230.0</ele><time>2026-05-01T15:58:04.609Z</time></trkpt><trkpt lat="43.4993906" lon="11.1720384"><ele>230.0</ele><time>2026-05-01T15:58:05.609Z</time></trkpt><trkpt lat="43.4995217" lon="11.1721066"><ele>230.0</ele><time>2026-05-01T15:58:06.598Z</time></trkpt><trkpt lat="43.4996493" lon="11.172175"><ele>230.0</ele><time>2026-05-01T15:58:07.606Z</time></trkpt><trkpt lat="43.4997671" lon="11.1722355"><ele>230.0</ele><time>2026-05-01T15:58:08.61Z</time></trkpt><trkpt lat="43.4998883" lon="11.1722891"><ele>227.5</ele><time>2026-05-01T15:58:09.609Z</time></trkpt><trkpt lat="43.5000104" lon="11.17234"><ele>225.0</ele><time>2026-05-01T15:58:10.612Z</time></trkpt><trkpt lat="43.5001394" lon="11.172391"><ele>222.5</ele><time>2026-05-01T15:58:11.617Z</time></trkpt><trkpt lat="43.5002746" lon="11.1724454"><ele>220.0</ele><time>2026-05-01T15:58:12.599Z</time></trkpt><trkpt lat="43.5004147" lon="11.1725016"><ele>219.0</ele><time>2026-05-01T15:58:13.608Z</time></trkpt><trkpt lat="43.5005535" lon="11.1725612"><ele>218.0</ele><time>2026-05-01T15:58:14.611Z</time></trkpt><trkpt lat="43.5006833" lon="11.1726276"><ele>217.0</ele><time>2026-05-01T15:58:15.599Z</time></trkpt><trkpt lat="43.5008023" lon="11.1727078"><ele>216.0</ele><time>2026-05-01T15:58:16.607Z</time></trkpt><trkpt lat="43.5009141" lon="11.1727995"><ele>216.0</ele><time>2026-05-01T15:58:17.612Z</time></trkpt><trkpt lat="43.5009976" lon="11.1729296"><ele>216.0</ele><time>2026-05-01T15:58:18.607Z</time></trkpt><trkpt lat="43.5010568" lon="11.1730945"><ele>216.0</ele><time>2026-05-01T15:58:19.626Z</time></trkpt><trkpt lat="43.5011068" lon="11.1732694"><ele>216.0</ele><time>2026-05-01T15:58:20.611Z</time></trkpt><trkpt lat="43.5011428" lon="11.1734279"><ele>216.4</ele><time>2026-05-01T15:58:21.614Z</time></trkpt><trkpt lat="43.5011829" lon="11.1735714"><ele>216.8</ele><time>2026-05-01T15:58:22.673Z</time></trkpt><trkpt lat="43.5012376" lon="11.1736752"><ele>217.20000000000002</ele><time>2026-05-01T15:58:23.614Z</time></trkpt><trkpt lat="43.5013013" lon="11.1737644"><ele>217.60000000000002</ele><time>2026-05-01T15:58:24.606Z</time></trkpt><trkpt lat="43.5013633" lon="11.1738419"><ele>218.0</ele><time>2026-05-01T15:58:25.602Z</time></trkpt><trkpt lat="43.5014117" lon="11.1739289"><ele>220.2</ele><time>2026-05-01T15:58:26.61Z</time></trkpt><trkpt lat="43.5014588" lon="11.1740275"><ele>222.4</ele><time>2026-05-01T15:58:27.604Z</time></trkpt><trkpt lat="43.5015007" lon="11.1741434"><ele>224.59999999999997</ele><time>2026-05-01T15:58:28.607Z</time></trkpt><trkpt lat="43.5015348" lon="11.1742724"><ele>226.79999999999998</ele><time>2026-05-01T15:58:29.607Z</time></trkpt><trkpt lat="43.5015865" lon="11.174405"><ele>229.0</ele><time>2026-05-01T15:58:30.609Z</time></trkpt><trkpt lat="43.5016404" lon="11.1745268"><ele>229.0</ele><time>2026-05-01T15:58:31.602Z</time></trkpt><trkpt lat="43.5017137" lon="11.1746357"><ele>229.0</ele><time>2026-05-01T15:58:32.609Z</time></trkpt><trkpt lat="43.501802" lon="11.1747307"><ele>229.0</ele><time>2026-05-01T15:58:33.614Z</time></trkpt><trkpt lat="43.5019005" lon="11.1748158"><ele>229.0</ele><time>2026-05-01T15:58:34.601Z</time></trkpt><trkpt lat="43.5020047" lon="11.1748986"><ele>232.75</ele><time>2026-05-01T15:58:35.613Z</time></trkpt><trkpt lat="43.502108" lon="11.1749821"><ele>236.5</ele><time>2026-05-01T15:58:36.61Z</time></trkpt><trkpt lat="43.5022088" lon="11.175068"><ele>240.25</ele><time>2026-05-01T15:58:37.613Z</time></trkpt><trkpt lat="43.5023007" lon="11.1751589"><ele>244.0</ele><time>2026-05-01T15:58:38.608Z</time></trkpt><trkpt lat="43.5023976" lon="11.1752657"><ele>244.0</ele><time>2026-05-01T15:58:39.602Z</time></trkpt><trkpt lat="43.5024893" lon="11.1753685"><ele>243.99999999999997</ele><time>2026-05-01T15:58:40.608Z</time></trkpt><trkpt lat="43.5025758" lon="11.1754463"><ele>243.99999999999997</ele><time>2026-05-01T15:58:41.608Z</time></trkpt><trkpt lat="43.5026625" lon="11.1754966"><ele>244.0</ele><time>2026-05-01T15:58:42.606Z</time></trkpt><trkpt lat="43.5027447" lon="11.1755029"><ele>244.0</ele><time>2026-05-01T15:58:43.604Z</time></trkpt><trkpt lat="43.5028243" lon="11.1754823"><ele>243.99999999999997</ele><time>2026-05-01T15:58:44.631Z</time></trkpt><trkpt lat="43.5029021" lon="11.1754233"><ele>244.0</ele><time>2026-05-01T15:58:45.607Z</time></trkpt><trkpt lat="43.5029649" lon="11.1753381"><ele>244.0</ele><time>2026-05-01T15:58:46.606Z</time></trkpt><trkpt lat="43.5030347" lon="11.1752628"><ele>244.0</ele><time>2026-05-01T15:58:47.606Z</time></trkpt><trkpt lat="43.5031078" lon="11.1751842"><ele>243.99999999999997</ele><time>2026-05-01T15:58:48.625Z</time></trkpt><trkpt lat="43.5031788" lon="11.1751225"><ele>244.0</ele><time>2026-05-01T15:58:49.614Z</time></trkpt><trkpt lat="43.5032544" lon="11.1751012"><ele>245.0</ele><time>2026-05-01T15:58:50.6Z</time></trkpt><trkpt lat="43.5033428" lon="11.1751184"><ele>245.99999999999997</ele><time>2026-05-01T15:58:51.607Z</time></trkpt><trkpt lat="43.5034379" lon="11.1751554"><ele>246.99999999999997</ele><time>2026-05-01T15:58:52.61Z</time></trkpt><trkpt lat="43.5035377" lon="11.1752014"><ele>248.0</ele><time>2026-05-01T15:58:53.608Z</time></trkpt><trkpt lat="43.5036452" lon="11.1752648"><ele>249.0</ele><time>2026-05-01T15:58:54.601Z</time></trkpt><trkpt lat="43.5037594" lon="11.1753307"><ele>250.5</ele><time>2026-05-01T15:58:55.619Z</time></trkpt><trkpt lat="43.5038784" lon="11.1753957"><ele>252.0</ele><time>2026-05-01T15:58:56.615Z</time></trkpt><trkpt lat="43.5040107" lon="11.1754655"><ele>253.5</ele><time>2026-05-01T15:58:57.612Z</time></trkpt><trkpt lat="43.5041465" lon="11.1755363"><ele>255.0</ele><time>2026-05-01T15:58:58.602Z</time></trkpt><trkpt lat="43.504285" lon="11.17561"><ele>255.0</ele><time>2026-05-01T15:58:59.612Z</time></trkpt><trkpt lat="43.5044269" lon="11.1756868"><ele>255.0</ele><time>2026-05-01T15:59:00.612Z</time></trkpt><trkpt lat="43.5045515" lon="11.1757469"><ele>255.0</ele><time>2026-05-01T15:59:01.608Z</time></trkpt><trkpt lat="43.5046713" lon="11.1757813"><ele>255.0</ele><time>2026-05-01T15:59:02.603Z</time></trkpt><trkpt lat="43.5047809" lon="11.175766"><ele>257.6666666666667</ele><time>2026-05-01T15:59:03.602Z</time></trkpt><trkpt lat="43.5048753" lon="11.1757129"><ele>260.3333333333333</ele><time>2026-05-01T15:59:04.601Z</time></trkpt><trkpt lat="43.5049362" lon="11.1756208"><ele>263.0</ele><time>2026-05-01T15:59:05.611Z</time></trkpt><trkpt lat="43.5049759" lon="11.1755153"><ele>265.66666666666663</ele><time>2026-05-01T15:59:06.602Z</time></trkpt><trkpt lat="43.5049948" lon="11.1754026"><ele>268.3333333333333</ele><time>2026-05-01T15:59:07.604Z</time></trkpt><trkpt lat="43.5050058" lon="11.1752869"><ele>271.0</ele><time>2026-05-01T15:59:08.612Z</time></trkpt><trkpt lat="43.5050267" lon="11.1751904"><ele>271.0</ele><time>2026-05-01T15:59:09.609Z</time></trkpt><trkpt lat="43.5051006" lon="11.1750434"><ele>271.0</ele><time>2026-05-01T15:59:11.611Z</time></trkpt><trkpt lat="43.5051606" lon="11.1749753"><ele>271.0</ele><time>2026-05-01T15:59:12.59Z</time></trkpt><trkpt lat="43.5052402" lon="11.17491"><ele>271.0</ele><time>2026-05-01T15:59:13.614Z</time></trkpt><trkpt lat="43.5053324" lon="11.1748458"><ele>271.0</ele><time>2026-05-01T15:59:14.614Z</time></trkpt><trkpt lat="43.5054307" lon="11.1747878"><ele>270.40000000000003</ele><time>2026-05-01T15:59:15.617Z</time></trkpt><trkpt lat="43.5055306" lon="11.174734"><ele>269.8</ele><time>2026-05-01T15:59:16.605Z</time></trkpt><trkpt lat="43.5056373" lon="11.1746788"><ele>269.20000000000005</ele><time>2026-05-01T15:59:17.601Z</time></trkpt><trkpt lat="43.5057469" lon="11.1746381"><ele>268.6</ele><time>2026-05-01T15:59:18.606Z</time></trkpt><trkpt lat="43.5058365" lon="11.174608"><ele>268.0</ele><time>2026-05-01T15:59:19.61Z</time></trkpt><trkpt lat="43.5059177" lon="11.1745998"><ele>268.0</ele><time>2026-05-01T15:59:20.608Z</time></trkpt><trkpt lat="43.5059992" lon="11.1746112"><ele>268.0</ele><time>2026-05-01T15:59:21.603Z</time></trkpt><trkpt lat="43.5060784" lon="11.1746473"><ele>268.0</ele><time>2026-05-01T15:59:22.609Z</time></trkpt><trkpt lat="43.506151" lon="11.1747076"><ele>268.0</ele><time>2026-05-01T15:59:23.618Z</time></trkpt><trkpt lat="43.5062211" lon="11.1747782"><ele>268.0</ele><time>2026-05-01T15:59:24.617Z</time></trkpt><trkpt lat="43.5062708" lon="11.1748639"><ele>268.0</ele><time>2026-05-01T15:59:25.606Z</time></trkpt><trkpt lat="43.5063069" lon="11.1749552"><ele>269.3333333333333</ele><time>2026-05-01T15:59:26.611Z</time></trkpt><trkpt lat="43.5063449" lon="11.1750618"><ele>270.66666666666663</ele><time>2026-05-01T15:59:27.611Z</time></trkpt><trkpt lat="43.5063491" lon="11.1751704"><ele>272.0</ele><time>2026-05-01T15:59:28.607Z</time></trkpt><trkpt lat="43.5063383" lon="11.1752804"><ele>273.3333333333333</ele><time>2026-05-01T15:59:29.606Z</time></trkpt><trkpt lat="43.5063167" lon="11.1753795"><ele>274.6666666666667</ele><time>2026-05-01T15:59:30.619Z</time></trkpt><trkpt lat="43.5062977" lon="11.1754753"><ele>276.0</ele><time>2026-05-01T15:59:31.606Z</time></trkpt><trkpt lat="43.5062744" lon="11.1755896"><ele>277.8</ele><time>2026-05-01T15:59:32.626Z</time></trkpt><trkpt lat="43.5062553" lon="11.1757104"><ele>279.6</ele><time>2026-05-01T15:59:33.613Z</time></trkpt><trkpt lat="43.5062298" lon="11.1758457"><ele>281.4</ele><time>2026-05-01T15:59:34.607Z</time></trkpt><trkpt lat="43.506202" lon="11.1759941"><ele>283.2</ele><time>2026-05-01T15:59:35.607Z</time></trkpt><trkpt lat="43.5061879" lon="11.1761525"><ele>285.0</ele><time>2026-05-01T15:59:36.605Z</time></trkpt><trkpt lat="43.5061838" lon="11.1763092"><ele>285.8</ele><time>2026-05-01T15:59:37.611Z</time></trkpt><trkpt lat="43.5061865" lon="11.1764687"><ele>286.6</ele><time>2026-05-01T15:59:38.606Z</time></trkpt><trkpt lat="43.5061985" lon="11.1766223"><ele>287.4</ele><time>2026-05-01T15:59:39.61Z</time></trkpt><trkpt lat="43.5062221" lon="11.176757"><ele>288.2</ele><time>2026-05-01T15:59:40.606Z</time></trkpt><trkpt lat="43.5062605" lon="11.17688"><ele>289.0</ele><time>2026-05-01T15:59:41.612Z</time></trkpt><trkpt lat="43.5063094" lon="11.1769956"><ele>290.3333333333333</ele><time>2026-05-01T15:59:42.613Z</time></trkpt><trkpt lat="43.5063596" lon="11.1770876"><ele>291.66666666666663</ele><time>2026-05-01T15:59:43.613Z</time></trkpt><trkpt lat="43.5064328" lon="11.1771594"><ele>293.0</ele><time>2026-05-01T15:59:44.612Z</time></trkpt><trkpt lat="43.50652" lon="11.1772128"><ele>294.3333333333333</ele><time>2026-05-01T15:59:45.616Z</time></trkpt><trkpt lat="43.506608" lon="11.1772452"><ele>295.6666666666667</ele><time>2026-05-01T15:59:46.619Z</time></trkpt><trkpt lat="43.5066899" lon="11.1772585"><ele>297.0</ele><time>2026-05-01T15:59:47.61Z</time></trkpt><trkpt lat="43.5067752" lon="11.1772483"><ele>297.0</ele><time>2026-05-01T15:59:48.603Z</time></trkpt><trkpt lat="43.5068616" lon="11.1772164"><ele>297.0</ele><time>2026-05-01T15:59:49.602Z</time></trkpt><trkpt lat="43.5069446" lon="11.1771967"><ele>297.0</ele><time>2026-05-01T15:59:50.607Z</time></trkpt><trkpt lat="43.5070289" lon="11.1771839"><ele>297.0</ele><time>2026-05-01T15:59:51.609Z</time></trkpt><trkpt lat="43.5071113" lon="11.177182"><ele>297.0</ele><time>2026-05-01T15:59:52.612Z</time></trkpt><trkpt lat="43.5072121" lon="11.1771789"><ele>297.0</ele><time>2026-05-01T15:59:53.623Z</time></trkpt><trkpt lat="43.5073112" lon="11.1771674"><ele>298.4</ele><time>2026-05-01T15:59:54.614Z</time></trkpt><trkpt lat="43.5074102" lon="11.1771535"><ele>299.79999999999995</ele><time>2026-05-01T15:59:55.615Z</time></trkpt><trkpt lat="43.5075093" lon="11.1771518"><ele>301.2</ele><time>2026-05-01T15:59:56.599Z</time></trkpt><trkpt lat="43.5075948" lon="11.1771803"><ele>302.59999999999997</ele><time>2026-05-01T15:59:57.601Z</time></trkpt><trkpt lat="43.5076972" lon="11.1772199"><ele>304.0</ele><time>2026-05-01T15:59:58.619Z</time></trkpt><trkpt lat="43.507803" lon="11.1772623"><ele>306.5</ele><time>2026-05-01T15:59:59.611Z</time></trkpt><trkpt lat="43.5079161" lon="11.1772989"><ele>309.0</ele><time>2026-05-01T16:00:00.61Z</time></trkpt><trkpt lat="43.5080375" lon="11.1773431"><ele>311.5</ele><time>2026-05-01T16:00:01.612Z</time></trkpt><trkpt lat="43.5081769" lon="11.1773921"><ele>314.0</ele><time>2026-05-01T16:00:02.611Z</time></trkpt><trkpt lat="43.5083176" lon="11.1774429"><ele>316.75</ele><time>2026-05-01T16:00:03.614Z</time></trkpt><trkpt lat="43.5084387" lon="11.1774825"><ele>319.5</ele><time>2026-05-01T16:00:04.607Z</time></trkpt><trkpt lat="43.5085557" lon="11.1775007"><ele>322.25</ele><time>2026-05-01T16:00:05.597Z</time></trkpt><trkpt lat="43.5086697" lon="11.177503"><ele>325.0</ele><time>2026-05-01T16:00:06.609Z</time></trkpt><trkpt lat="43.5087849" lon="11.1775086"><ele>326.8</ele><time>2026-05-01T16:00:07.609Z</time></trkpt><trkpt lat="43.5088942" lon="11.1775244"><ele>328.6</ele><time>2026-05-01T16:00:08.609Z</time></trkpt><trkpt lat="43.5090094" lon="11.1775392"><ele>330.4</ele><time>2026-05-01T16:00:09.615Z</time></trkpt><trkpt lat="43.5091265" lon="11.1775577"><ele>332.2</ele><time>2026-05-01T16:00:10.607Z</time></trkpt><trkpt lat="43.5092292" lon="11.1775812"><ele>334.0</ele><time>2026-05-01T16:00:11.604Z</time></trkpt><trkpt lat="43.509317" lon="11.177626"><ele>334.0</ele><time>2026-05-01T16:00:12.602Z</time></trkpt><trkpt lat="43.5094025" lon="11.1776674"><ele>334.0</ele><time>2026-05-01T16:00:13.619Z</time></trkpt><trkpt lat="43.5094882" lon="11.177726"><ele>334.0</ele><time>2026-05-01T16:00:14.607Z</time></trkpt><trkpt lat="43.5095685" lon="11.1777909"><ele>334.0</ele><time>2026-05-01T16:00:15.61Z</time></trkpt><trkpt lat="43.5096425" lon="11.1778642"><ele>334.0</ele><time>2026-05-01T16:00:16.603Z</time></trkpt><trkpt lat="43.5097112" lon="11.1779496"><ele>333.5</ele><time>2026-05-01T16:00:17.618Z</time></trkpt><trkpt lat="43.5097815" lon="11.1780243"><ele>333.0</ele><time>2026-05-01T16:00:18.608Z</time></trkpt><trkpt lat="43.509842" lon="11.1780905"><ele>332.5</ele><time>2026-05-01T16:00:19.601Z</time></trkpt><trkpt lat="43.5098935" lon="11.1781528"><ele>332.0</ele><time>2026-05-01T16:00:20.609Z</time></trkpt><trkpt lat="43.5099301" lon="11.1782497"><ele>331.5</ele><time>2026-05-01T16:00:21.617Z</time></trkpt><trkpt lat="43.5099736" lon="11.1783591"><ele>331.0</ele><time>2026-05-01T16:00:22.599Z</time></trkpt><trkpt lat="43.5100234" lon="11.1784694"><ele>332.16666666666663</ele><time>2026-05-01T16:00:23.609Z</time></trkpt><trkpt lat="43.5100696" lon="11.1785534"><ele>333.3333333333333</ele><time>2026-05-01T16:00:24.606Z</time></trkpt><trkpt lat="43.5101595" lon="11.1786467"><ele>334.5</ele><time>2026-05-01T16:00:26.606Z</time></trkpt><trkpt lat="43.5102252" lon="11.1786545"><ele>335.6666666666667</ele><time>2026-05-01T16:00:27.602Z</time></trkpt><trkpt lat="43.510295" lon="11.1786667"><ele>336.83333333333337</ele><time>2026-05-01T16:00:28.604Z</time></trkpt><trkpt lat="43.5103782" lon="11.1786651"><ele>338.0</ele><time>2026-05-01T16:00:29.611Z</time></trkpt><trkpt lat="43.510484" lon="11.1786633"><ele>338.0</ele><time>2026-05-01T16:00:30.607Z</time></trkpt><trkpt lat="43.5106023" lon="11.1786601"><ele>338.0</ele><time>2026-05-01T16:00:31.613Z</time></trkpt><trkpt lat="43.5107362" lon="11.1786664"><ele>338.0</ele><time>2026-05-01T16:00:32.61Z</time></trkpt><trkpt lat="43.5108756" lon="11.1786874"><ele>338.0</ele><time>2026-05-01T16:00:33.605Z</time></trkpt><trkpt lat="43.5110158" lon="11.1787107"><ele>338.0</ele><time>2026-05-01T16:00:34.604Z</time></trkpt><trkpt lat="43.5111453" lon="11.1787346"><ele>338.0</ele><time>2026-05-01T16:00:35.603Z</time></trkpt><trkpt lat="43.5112755" lon="11.1787712"><ele>338.0</ele><time>2026-05-01T16:00:36.608Z</time></trkpt><trkpt lat="43.5113908" lon="11.1788076"><ele>338.0</ele><time>2026-05-01T16:00:37.607Z</time></trkpt><trkpt lat="43.5115079" lon="11.1788585"><ele>337.59999999999997</ele><time>2026-05-01T16:00:38.609Z</time></trkpt><trkpt lat="43.5116312" lon="11.1789075"><ele>337.2</ele><time>2026-05-01T16:00:39.603Z</time></trkpt><trkpt lat="43.5117387" lon="11.1789575"><ele>336.8</ele><time>2026-05-01T16:00:40.601Z</time></trkpt><trkpt lat="43.5118323" lon="11.1789994"><ele>336.4</ele><time>2026-05-01T16:00:41.603Z</time></trkpt><trkpt lat="43.511916" lon="11.1790459"><ele>336.0</ele><time>2026-05-01T16:00:42.604Z</time></trkpt><trkpt lat="43.5119899" lon="11.179087"><ele>336.3333333333333</ele><time>2026-05-01T16:00:43.602Z</time></trkpt><trkpt lat="43.512058" lon="11.1791307"><ele>336.6666666666667</ele><time>2026-05-01T16:00:44.603Z</time></trkpt><trkpt lat="43.512126" lon="11.1791863"><ele>337.0</ele><time>2026-05-01T16:00:45.603Z</time></trkpt><trkpt lat="43.5121837" lon="11.179271"><ele>337.33333333333337</ele><time>2026-05-01T16:00:46.604Z</time></trkpt><trkpt lat="43.5122406" lon="11.1793682"><ele>337.6666666666667</ele><time>2026-05-01T16:00:47.607Z</time></trkpt><trkpt lat="43.5122955" lon="11.1794748"><ele>338.0</ele><time>2026-05-01T16:00:48.603Z</time></trkpt><trkpt lat="43.5123412" lon="11.1795903"><ele>338.0</ele><time>2026-05-01T16:00:49.607Z</time></trkpt><trkpt lat="43.5123831" lon="11.1797096"><ele>338.0</ele><time>2026-05-01T16:00:50.604Z</time></trkpt><trkpt lat="43.5124287" lon="11.1798348"><ele>338.0</ele><time>2026-05-01T16:00:51.603Z</time></trkpt><trkpt lat="43.5124808" lon="11.1799381"><ele>338.0</ele><time>2026-05-01T16:00:52.608Z</time></trkpt><trkpt lat="43.5125363" lon="11.1800392"><ele>338.0</ele><time>2026-05-01T16:00:53.602Z</time></trkpt><trkpt lat="43.5125993" lon="11.1801265"><ele>338.79999999999995</ele><time>2026-05-01T16:00:54.61Z</time></trkpt><trkpt lat="43.5126625" lon="11.1802167"><ele>339.6</ele><time>2026-05-01T16:00:55.605Z</time></trkpt><trkpt lat="43.5127467" lon="11.1802994"><ele>340.4</ele><time>2026-05-01T16:00:56.613Z</time></trkpt><trkpt lat="43.5128181" lon="11.1803868"><ele>341.20000000000005</ele><time>2026-05-01T16:00:57.602Z</time></trkpt><trkpt lat="43.5128922" lon="11.1804736"><ele>342.0</ele><time>2026-05-01T16:00:58.615Z</time></trkpt><trkpt lat="43.51297" lon="11.1805514"><ele>338.5</ele><time>2026-05-01T16:00:59.604Z</time></trkpt><trkpt lat="43.5130506" lon="11.1806114"><ele>335.0</ele><time>2026-05-01T16:01:00.614Z</time></trkpt><trkpt lat="43.5131298" lon="11.1806663"><ele>331.5</ele><time>2026-05-01T16:01:01.607Z</time></trkpt><trkpt lat="43.5132095" lon="11.1807236"><ele>328.0</ele><time>2026-05-01T16:01:02.611Z</time></trkpt><trkpt lat="43.5132789" lon="11.1807879"><ele>324.5</ele><time>2026-05-01T16:01:03.614Z</time></trkpt><trkpt lat="43.5133532" lon="11.1808666"><ele>321.0</ele><time>2026-05-01T16:01:04.609Z</time></trkpt><trkpt lat="43.5134348" lon="11.1809503"><ele>321.0</ele><time>2026-05-01T16:01:05.607Z</time></trkpt><trkpt lat="43.5135125" lon="11.1810304"><ele>321.0</ele><time>2026-05-01T16:01:06.613Z</time></trkpt><trkpt lat="43.5135892" lon="11.1811217"><ele>321.0</ele><time>2026-05-01T16:01:07.612Z</time></trkpt><trkpt lat="43.5136644" lon="11.1812064"><ele>321.0</ele><time>2026-05-01T16:01:08.607Z</time></trkpt><trkpt lat="43.5137415" lon="11.1812858"><ele>321.0</ele><time>2026-05-01T16:01:09.61Z</time></trkpt><trkpt lat="43.5138208" lon="11.1813688"><ele>318.0</ele><time>2026-05-01T16:01:10.603Z</time></trkpt><trkpt lat="43.51389" lon="11.181462"><ele>315.0</ele><time>2026-05-01T16:01:11.615Z</time></trkpt><trkpt lat="43.5139566" lon="11.1815771"><ele>312.0</ele><time>2026-05-01T16:01:12.611Z</time></trkpt><trkpt lat="43.5140192" lon="11.1816986"><ele>309.0</ele><time>2026-05-01T16:01:13.623Z</time></trkpt><trkpt lat="43.5140802" lon="11.1818261"><ele>306.0</ele><time>2026-05-01T16:01:14.602Z</time></trkpt><trkpt lat="43.5141456" lon="11.1819638"><ele>306.0</ele><time>2026-05-01T16:01:15.616Z</time></trkpt><trkpt lat="43.5142086" lon="11.1821007"><ele>306.0</ele><time>2026-05-01T16:01:16.611Z</time></trkpt><trkpt lat="43.5142681" lon="11.1822236"><ele>306.0</ele><time>2026-05-01T16:01:17.603Z</time></trkpt><trkpt lat="43.51433" lon="11.1823509"><ele>306.0</ele><time>2026-05-01T16:01:18.611Z</time></trkpt><trkpt lat="43.5143928" lon="11.1824706"><ele>306.0</ele><time>2026-05-01T16:01:19.608Z</time></trkpt><trkpt lat="43.5144583" lon="11.1825944"><ele>305.5</ele><time>2026-05-01T16:01:20.61Z</time></trkpt><trkpt lat="43.5145326" lon="11.1827253"><ele>305.0</ele><time>2026-05-01T16:01:21.601Z</time></trkpt><trkpt lat="43.5146151" lon="11.1828493"><ele>304.5</ele><time>2026-05-01T16:01:22.594Z</time></trkpt><trkpt lat="43.5146985" lon="11.1829729"><ele>304.0</ele><time>2026-05-01T16:01:23.588Z</time></trkpt><trkpt lat="43.5147916" lon="11.1830896"><ele>302.4</ele><time>2026-05-01T16:01:24.605Z</time></trkpt><trkpt lat="43.5148923" lon="11.1831894"><ele>300.79999999999995</ele><time>2026-05-01T16:01:25.605Z</time></trkpt><trkpt lat="43.5149878" lon="11.1832738"><ele>299.20000000000005</ele><time>2026-05-01T16:01:26.613Z</time></trkpt><trkpt lat="43.5150822" lon="11.1833438"><ele>297.6</ele><time>2026-05-01T16:01:27.601Z</time></trkpt><trkpt lat="43.5151731" lon="11.1834158"><ele>296.0</ele><time>2026-05-01T16:01:28.601Z</time></trkpt><trkpt lat="43.5152663" lon="11.1834969"><ele>296.0</ele><time>2026-05-01T16:01:29.611Z</time></trkpt><trkpt lat="43.5153556" lon="11.1835973"><ele>296.0</ele><time>2026-05-01T16:01:30.603Z</time></trkpt><trkpt lat="43.5154388" lon="11.1837092"><ele>296.0</ele><time>2026-05-01T16:01:31.613Z</time></trkpt><trkpt lat="43.515509" lon="11.1838186"><ele>296.0</ele><time>2026-05-01T16:01:32.61Z</time></trkpt><trkpt lat="43.5155701" lon="11.1839246"><ele>296.0</ele><time>2026-05-01T16:01:33.614Z</time></trkpt><trkpt lat="43.5156207" lon="11.1840326"><ele>295.6</ele><time>2026-05-01T16:01:34.605Z</time></trkpt><trkpt lat="43.5156496" lon="11.1841457"><ele>295.20000000000005</ele><time>2026-05-01T16:01:35.611Z</time></trkpt><trkpt lat="43.5156476" lon="11.1842721"><ele>294.79999999999995</ele><time>2026-05-01T16:01:36.61Z</time></trkpt><trkpt lat="43.5156369" lon="11.1844138"><ele>294.4</ele><time>2026-05-01T16:01:37.606Z</time></trkpt><trkpt lat="43.5156252" lon="11.1845613"><ele>294.0</ele><time>2026-05-01T16:01:38.601Z</time></trkpt><trkpt lat="43.5156176" lon="11.1847147"><ele>292.0</ele><time>2026-05-01T16:01:39.607Z</time></trkpt><trkpt lat="43.5156136" lon="11.1848693"><ele>290.0</ele><time>2026-05-01T16:01:40.605Z</time></trkpt><trkpt lat="43.5156156" lon="11.1850062"><ele>288.0</ele><time>2026-05-01T16:01:41.602Z</time></trkpt><trkpt lat="43.5156107" lon="11.1851502"><ele>286.0</ele><time>2026-05-01T16:01:42.612Z</time></trkpt><trkpt lat="43.5155984" lon="11.185311"><ele>284.0</ele><time>2026-05-01T16:01:43.603Z</time></trkpt><trkpt lat="43.515572" lon="11.1854912"><ele>284.0</ele><time>2026-05-01T16:01:44.608Z</time></trkpt><trkpt lat="43.5155341" lon="11.1856779"><ele>284.0</ele><time>2026-05-01T16:01:45.61Z</time></trkpt><trkpt lat="43.5154972" lon="11.18585"><ele>284.0</ele><time>2026-05-01T16:01:46.602Z</time></trkpt><trkpt lat="43.5154616" lon="11.1860491"><ele>284.0</ele><time>2026-05-01T16:01:47.605Z</time></trkpt><trkpt lat="43.5154239" lon="11.1862753"><ele>281.25</ele><time>2026-05-01T16:01:48.61Z</time></trkpt><trkpt lat="43.5153921" lon="11.1864938"><ele>278.5</ele><time>2026-05-01T16:01:49.598Z</time></trkpt><trkpt lat="43.5153582" lon="11.1866826"><ele>275.75</ele><time>2026-05-01T16:01:50.608Z</time></trkpt><trkpt lat="43.5153282" lon="11.1868521"><ele>273.0</ele><time>2026-05-01T16:01:51.604Z</time></trkpt><trkpt lat="43.5152945" lon="11.187018"><ele>272.75</ele><time>2026-05-01T16:01:52.602Z</time></trkpt><trkpt lat="43.5152658" lon="11.1871853"><ele>272.5</ele><time>2026-05-01T16:01:53.607Z</time></trkpt><trkpt lat="43.5152498" lon="11.1873438"><ele>272.25</ele><time>2026-05-01T16:01:54.601Z</time></trkpt><trkpt lat="43.5152376" lon="11.1875131"><ele>272.0</ele><time>2026-05-01T16:01:55.607Z</time></trkpt><trkpt lat="43.5152431" lon="11.1876873"><ele>272.0</ele><time>2026-05-01T16:01:56.607Z</time></trkpt><trkpt lat="43.5152679" lon="11.1878608"><ele>272.0</ele><time>2026-05-01T16:01:57.608Z</time></trkpt><trkpt lat="43.5153118" lon="11.1880417"><ele>272.0</ele><time>2026-05-01T16:01:58.609Z</time></trkpt><trkpt lat="43.5153616" lon="11.188222"><ele>272.0</ele><time>2026-05-01T16:01:59.598Z</time></trkpt><trkpt lat="43.5154153" lon="11.1884009"><ele>271.25</ele><time>2026-05-01T16:02:00.611Z</time></trkpt><trkpt lat="43.5154929" lon="11.1885653"><ele>270.5</ele><time>2026-05-01T16:02:01.611Z</time></trkpt><trkpt lat="43.5155963" lon="11.1887176"><ele>269.75</ele><time>2026-05-01T16:02:02.604Z</time></trkpt><trkpt lat="43.515701" lon="11.1888547"><ele>269.0</ele><time>2026-05-01T16:02:03.606Z</time></trkpt><trkpt lat="43.5158133" lon="11.1889866"><ele>269.59999999999997</ele><time>2026-05-01T16:02:04.611Z</time></trkpt><trkpt lat="43.5159152" lon="11.1891039"><ele>270.2</ele><time>2026-05-01T16:02:05.599Z</time></trkpt><trkpt lat="43.5160023" lon="11.1892078"><ele>270.79999999999995</ele><time>2026-05-01T16:02:06.623Z</time></trkpt><trkpt lat="43.5160709" lon="11.1892967"><ele>271.4</ele><time>2026-05-01T16:02:07.607Z</time></trkpt><trkpt lat="43.5161291" lon="11.1893773"><ele>272.0</ele><time>2026-05-01T16:02:08.608Z</time></trkpt><trkpt lat="43.5161549" lon="11.1894753"><ele>272.0</ele><time>2026-05-01T16:02:09.618Z</time></trkpt><trkpt lat="43.5161723" lon="11.1896031"><ele>272.0</ele><time>2026-05-01T16:02:10.61Z</time></trkpt><trkpt lat="43.5161887" lon="11.1897526"><ele>272.0</ele><time>2026-05-01T16:02:11.615Z</time></trkpt><trkpt lat="43.5162099" lon="11.1898908"><ele>272.0</ele><time>2026-05-01T16:02:12.603Z</time></trkpt><trkpt lat="43.5162417" lon="11.1900281"><ele>272.0</ele><time>2026-05-01T16:02:13.605Z</time></trkpt><trkpt lat="43.5162793" lon="11.1901559"><ele>270.8</ele><time>2026-05-01T16:02:14.607Z</time></trkpt><trkpt lat="43.5163158" lon="11.190274"><ele>269.6</ele><time>2026-05-01T16:02:15.605Z</time></trkpt><trkpt lat="43.5163515" lon="11.1903909"><ele>268.40000000000003</ele><time>2026-05-01T16:02:16.608Z</time></trkpt><trkpt lat="43.5163954" lon="11.1905"><ele>267.2</ele><time>2026-05-01T16:02:17.6Z</time></trkpt><trkpt lat="43.5164333" lon="11.1905776"><ele>266.0</ele><time>2026-05-01T16:02:18.606Z</time></trkpt><trkpt lat="43.5165088" lon="11.1906923"><ele>266.0</ele><time>2026-05-01T16:02:20.614Z</time></trkpt><trkpt lat="43.5165366" lon="11.1907799"><ele>266.0</ele><time>2026-05-01T16:02:24.618Z</time></trkpt><trkpt lat="43.5165638" lon="11.1908585"><ele>266.0</ele><time>2026-05-01T16:02:43.611Z</time></trkpt><trkpt lat="43.5166212" lon="11.1909489"><ele>266.0</ele><time>2026-05-01T16:02:45.611Z</time></trkpt><trkpt lat="43.5166996" lon="11.1910889"><ele>266.0</ele><time>2026-05-01T16:02:47.613Z</time></trkpt><trkpt lat="43.5167445" lon="11.1911709"><ele>266.0</ele><time>2026-05-01T16:02:48.603Z</time></trkpt><trkpt lat="43.5167911" lon="11.1912503"><ele>266.0</ele><time>2026-05-01T16:02:49.623Z</time></trkpt><trkpt lat="43.5168346" lon="11.1913198"><ele>266.0</ele><time>2026-05-01T16:02:50.607Z</time></trkpt><trkpt lat="43.5168867" lon="11.1914033"><ele>266.0</ele><time>2026-05-01T16:02:51.609Z</time></trkpt><trkpt lat="43.5169415" lon="11.1914956"><ele>266.0</ele><time>2026-05-01T16:02:52.609Z</time></trkpt><trkpt lat="43.517003" lon="11.1915976"><ele>266.0</ele><time>2026-05-01T16:02:53.613Z</time></trkpt><trkpt lat="43.5170607" lon="11.1917034"><ele>266.0</ele><time>2026-05-01T16:02:54.611Z</time></trkpt><trkpt lat="43.5171265" lon="11.1918079"><ele>267.0</ele><time>2026-05-01T16:02:55.606Z</time></trkpt><trkpt lat="43.5171974" lon="11.1919205"><ele>268.0</ele><time>2026-05-01T16:02:56.601Z</time></trkpt><trkpt lat="43.5172603" lon="11.1920427"><ele>269.0</ele><time>2026-05-01T16:02:57.605Z</time></trkpt><trkpt lat="43.5173229" lon="11.1921637"><ele>270.0</ele><time>2026-05-01T16:02:58.615Z</time></trkpt><trkpt lat="43.5173858" lon="11.1922778"><ele>271.0</ele><time>2026-05-01T16:02:59.603Z</time></trkpt><trkpt lat="43.517442" lon="11.1923803"><ele>272.0</ele><time>2026-05-01T16:03:00.615Z</time></trkpt><trkpt lat="43.5175015" lon="11.1924833"><ele>273.0</ele><time>2026-05-01T16:03:01.606Z</time></trkpt><trkpt lat="43.5175596" lon="11.1925891"><ele>274.0</ele><time>2026-05-01T16:03:02.618Z</time></trkpt><trkpt lat="43.5176181" lon="11.192687"><ele>275.0</ele><time>2026-05-01T16:03:03.59Z</time></trkpt><trkpt lat="43.5176728" lon="11.1927858"><ele>276.0</ele><time>2026-05-01T16:03:04.614Z</time></trkpt><trkpt lat="43.5177273" lon="11.1928925"><ele>276.0</ele><time>2026-05-01T16:03:05.607Z</time></trkpt><trkpt lat="43.5177861" lon="11.192981"><ele>276.0</ele><time>2026-05-01T16:03:06.614Z</time></trkpt><trkpt lat="43.5178435" lon="11.1930592"><ele>276.0</ele><time>2026-05-01T16:03:07.603Z</time></trkpt><trkpt lat="43.5179133" lon="11.1931285"><ele>276.0</ele><time>2026-05-01T16:03:08.609Z</time></trkpt><trkpt lat="43.5179913" lon="11.1931911"><ele>276.0</ele><time>2026-05-01T16:03:09.603Z</time></trkpt><trkpt lat="43.5180729" lon="11.1932586"><ele>276.0</ele><time>2026-05-01T16:03:10.59Z</time></trkpt><trkpt lat="43.5181522" lon="11.1933391"><ele>279.0</ele><time>2026-05-01T16:03:11.606Z</time></trkpt><trkpt lat="43.518223" lon="11.1934267"><ele>282.0</ele><time>2026-05-01T16:03:12.601Z</time></trkpt><trkpt lat="43.5182898" lon="11.193531"><ele>285.0</ele><time>2026-05-01T16:03:13.611Z</time></trkpt><trkpt lat="43.5183514" lon="11.1936397"><ele>288.0</ele><time>2026-05-01T16:03:14.622Z</time></trkpt><trkpt lat="43.5183941" lon="11.1937264"><ele>291.0</ele><time>2026-05-01T16:03:15.615Z</time></trkpt><trkpt lat="43.5184637" lon="11.1937762"><ele>291.0</ele><time>2026-05-01T16:03:16.615Z</time></trkpt><trkpt lat="43.5185326" lon="11.1938309"><ele>291.0</ele><time>2026-05-01T16:03:17.605Z</time></trkpt><trkpt lat="43.5185909" lon="11.1938899"><ele>291.0</ele><time>2026-05-01T16:03:18.61Z</time></trkpt><trkpt lat="43.5186689" lon="11.1940189"><ele>291.0</ele><time>2026-05-01T16:03:20.617Z</time></trkpt><trkpt lat="43.5186908" lon="11.1941629"><ele>291.0</ele><time>2026-05-01T16:03:22.617Z</time></trkpt><trkpt lat="43.5187486" lon="11.1942824"><ele>290.0</ele><time>2026-05-01T16:03:24.622Z</time></trkpt><trkpt lat="43.5188265" lon="11.1943947"><ele>289.0</ele><time>2026-05-01T16:03:26.596Z</time></trkpt><trkpt lat="43.5189229" lon="11.1945017"><ele>288.0</ele><time>2026-05-01T16:03:28.607Z</time></trkpt><trkpt lat="43.5189711" lon="11.1945581"><ele>287.0</ele><time>2026-05-01T16:03:29.61Z</time></trkpt><trkpt lat="43.5190644" lon="11.1946424"><ele>286.0</ele><time>2026-05-01T16:03:31.61Z</time></trkpt><trkpt lat="43.519177" lon="11.1946839"><ele>286.0</ele><time>2026-05-01T16:03:33.606Z</time></trkpt><trkpt lat="43.5192439" lon="11.1946947"><ele>286.0</ele><time>2026-05-01T16:03:34.612Z</time></trkpt><trkpt lat="43.5193123" lon="11.1946929"><ele>286.0</ele><time>2026-05-01T16:03:35.608Z</time></trkpt><trkpt lat="43.519388" lon="11.1947017"><ele>286.0</ele><time>2026-05-01T16:03:36.608Z</time></trkpt><trkpt lat="43.5194749" lon="11.1947099"><ele>286.0</ele><time>2026-05-01T16:03:37.608Z</time></trkpt><trkpt lat="43.5195687" lon="11.1947089"><ele>286.0</ele><time>2026-05-01T16:03:38.623Z</time></trkpt><trkpt lat="43.5196565" lon="11.1946899"><ele>283.0</ele><time>2026-05-01T16:03:39.622Z</time></trkpt><trkpt lat="43.5197543" lon="11.1946799"><ele>280.0</ele><time>2026-05-01T16:03:40.617Z</time></trkpt><trkpt lat="43.5198499" lon="11.1946807"><ele>277.0</ele><time>2026-05-01T16:03:41.617Z</time></trkpt><trkpt lat="43.5199432" lon="11.1946872"><ele>274.0</ele><time>2026-05-01T16:03:42.619Z</time></trkpt><trkpt lat="43.5200389" lon="11.1946961"><ele>271.0</ele><time>2026-05-01T16:03:43.61Z</time></trkpt><trkpt lat="43.5201398" lon="11.1947079"><ele>271.0</ele><time>2026-05-01T16:03:44.604Z</time></trkpt><trkpt lat="43.5202449" lon="11.1947173"><ele>271.0</ele><time>2026-05-01T16:03:45.603Z</time></trkpt><trkpt lat="43.520366" lon="11.1947458"><ele>271.0</ele><time>2026-05-01T16:03:46.607Z</time></trkpt><trkpt lat="43.5204923" lon="11.1947903"><ele>271.0</ele><time>2026-05-01T16:03:47.602Z</time></trkpt><trkpt lat="43.5206148" lon="11.1948353"><ele>270.75</ele><time>2026-05-01T16:03:48.599Z</time></trkpt><trkpt lat="43.5207375" lon="11.1948892"><ele>270.5</ele><time>2026-05-01T16:03:49.619Z</time></trkpt><trkpt lat="43.5208543" lon="11.1949355"><ele>270.25</ele><time>2026-05-01T16:03:50.614Z</time></trkpt><trkpt lat="43.5209668" lon="11.1949824"><ele>270.0</ele><time>2026-05-01T16:03:51.61Z</time></trkpt><trkpt lat="43.5210817" lon="11.1950273"><ele>270.0</ele><time>2026-05-01T16:03:52.611Z</time></trkpt><trkpt lat="43.5212009" lon="11.1950749"><ele>270.0</ele><time>2026-05-01T16:03:53.611Z</time></trkpt><trkpt lat="43.5213179" lon="11.1951171"><ele>270.0</ele><time>2026-05-01T16:03:54.609Z</time></trkpt><trkpt lat="43.5214407" lon="11.1951625"><ele>270.0</ele><time>2026-05-01T16:03:55.614Z</time></trkpt><trkpt lat="43.5215682" lon="11.1952105"><ele>270.3333333333333</ele><time>2026-05-01T16:03:56.609Z</time></trkpt><trkpt lat="43.5217059" lon="11.1952595"><ele>270.66666666666663</ele><time>2026-05-01T16:03:57.609Z</time></trkpt><trkpt lat="43.5218572" lon="11.195318"><ele>271.0</ele><time>2026-05-01T16:03:58.616Z</time></trkpt><trkpt lat="43.5220169" lon="11.1953782"><ele>273.0</ele><time>2026-05-01T16:03:59.608Z</time></trkpt><trkpt lat="43.522175" lon="11.1954372"><ele>275.0</ele><time>2026-05-01T16:04:00.594Z</time></trkpt><trkpt lat="43.5223314" lon="11.1954944"><ele>277.0</ele><time>2026-05-01T16:04:01.611Z</time></trkpt><trkpt lat="43.5224863" lon="11.1955652"><ele>277.0</ele><time>2026-05-01T16:04:02.615Z</time></trkpt><trkpt lat="43.5226369" lon="11.1956506"><ele>277.0</ele><time>2026-05-01T16:04:03.6Z</time></trkpt><trkpt lat="43.522778" lon="11.1957485"><ele>277.0</ele><time>2026-05-01T16:04:04.609Z</time></trkpt><trkpt lat="43.5229178" lon="11.195846"><ele>278.3333333333333</ele><time>2026-05-01T16:04:05.606Z</time></trkpt><trkpt lat="43.523045" lon="11.1959533"><ele>279.6666666666667</ele><time>2026-05-01T16:04:06.604Z</time></trkpt><trkpt lat="43.5231685" lon="11.1960792"><ele>281.0</ele><time>2026-05-01T16:04:07.611Z</time></trkpt><trkpt lat="43.5232986" lon="11.1962166"><ele>281.0</ele><time>2026-05-01T16:04:08.603Z</time></trkpt><trkpt lat="43.5234271" lon="11.1963634"><ele>281.0</ele><time>2026-05-01T16:04:09.614Z</time></trkpt><trkpt lat="43.523561" lon="11.1965062"><ele>281.0</ele><time>2026-05-01T16:04:10.606Z</time></trkpt><trkpt lat="43.5236932" lon="11.196638"><ele>282.25</ele><time>2026-05-01T16:04:11.615Z</time></trkpt><trkpt lat="43.5238215" lon="11.1967576"><ele>283.5</ele><time>2026-05-01T16:04:12.603Z</time></trkpt><trkpt lat="43.5239274" lon="11.1968693"><ele>284.75</ele><time>2026-05-01T16:04:13.607Z</time></trkpt><trkpt lat="43.5240225" lon="11.196988"><ele>286.0</ele><time>2026-05-01T16:04:14.604Z</time></trkpt><trkpt lat="43.5241124" lon="11.1971182"><ele>286.0</ele><time>2026-05-01T16:04:15.591Z</time></trkpt><trkpt lat="43.5241986" lon="11.1972712"><ele>286.0</ele><time>2026-05-01T16:04:16.614Z</time></trkpt><trkpt lat="43.5242851" lon="11.1974278"><ele>286.0</ele><time>2026-05-01T16:04:17.605Z</time></trkpt><trkpt lat="43.5243756" lon="11.1975912"><ele>286.0</ele><time>2026-05-01T16:04:18.601Z</time></trkpt><trkpt lat="43.5244663" lon="11.1977544"><ele>286.5</ele><time>2026-05-01T16:04:19.611Z</time></trkpt><trkpt lat="43.5245629" lon="11.1979114"><ele>287.0</ele><time>2026-05-01T16:04:20.613Z</time></trkpt><trkpt lat="43.5246644" lon="11.1980515"><ele>287.5</ele><time>2026-05-01T16:04:21.625Z</time></trkpt><trkpt lat="43.5247687" lon="11.1981819"><ele>288.0</ele><time>2026-05-01T16:04:22.619Z</time></trkpt><trkpt lat="43.5248697" lon="11.1983138"><ele>288.0</ele><time>2026-05-01T16:04:23.604Z</time></trkpt><trkpt lat="43.5249593" lon="11.1984547"><ele>288.0</ele><time>2026-05-01T16:04:24.609Z</time></trkpt><trkpt lat="43.525034" lon="11.1985983"><ele>288.0</ele><time>2026-05-01T16:04:25.609Z</time></trkpt><trkpt lat="43.5250981" lon="11.1987331"><ele>288.0</ele><time>2026-05-01T16:04:26.614Z</time></trkpt><trkpt lat="43.5251615" lon="11.1988272"><ele>288.0</ele><time>2026-05-01T16:04:27.637Z</time></trkpt><trkpt lat="43.5252192" lon="11.1989001"><ele>288.0</ele><time>2026-05-01T16:04:28.61Z</time></trkpt><trkpt lat="43.5252893" lon="11.1989539"><ele>288.0</ele><time>2026-05-01T16:04:29.607Z</time></trkpt><trkpt lat="43.525366" lon="11.1989986"><ele>288.0</ele><time>2026-05-01T16:04:30.611Z</time></trkpt><trkpt lat="43.5254428" lon="11.1990477"><ele>288.0</ele><time>2026-05-01T16:04:31.609Z</time></trkpt><trkpt lat="43.5255194" lon="11.1991086"><ele>288.0</ele><time>2026-05-01T16:04:32.607Z</time></trkpt><trkpt lat="43.5255957" lon="11.1991907"><ele>290.0</ele><time>2026-05-01T16:04:33.608Z</time></trkpt><trkpt lat="43.5256586" lon="11.1992938"><ele>292.0</ele><time>2026-05-01T16:04:34.601Z</time></trkpt><trkpt lat="43.5257411" lon="11.199407"><ele>294.0</ele><time>2026-05-01T16:04:35.608Z</time></trkpt><trkpt lat="43.5258263" lon="11.1995336"><ele>296.0</ele><time>2026-05-01T16:04:36.61Z</time></trkpt><trkpt lat="43.5259109" lon="11.1996531"><ele>296.0</ele><time>2026-05-01T16:04:37.61Z</time></trkpt><trkpt lat="43.5259989" lon="11.1997555"><ele>296.0</ele><time>2026-05-01T16:04:38.611Z</time></trkpt><trkpt lat="43.5260811" lon="11.1998339"><ele>296.0</ele><time>2026-05-01T16:04:39.608Z</time></trkpt><trkpt lat="43.5261613" lon="11.1998744"><ele>296.0</ele><time>2026-05-01T16:04:40.609Z</time></trkpt><trkpt lat="43.5262412" lon="11.199918"><ele>296.0</ele><time>2026-05-01T16:04:41.603Z</time></trkpt><trkpt lat="43.5263072" lon="11.1999709"><ele>296.8</ele><time>2026-05-01T16:04:42.608Z</time></trkpt><trkpt lat="43.5263533" lon="11.2000392"><ele>297.6</ele><time>2026-05-01T16:04:43.604Z</time></trkpt><trkpt lat="43.5263898" lon="11.2001236"><ele>298.4</ele><time>2026-05-01T16:04:44.608Z</time></trkpt><trkpt lat="43.5264244" lon="11.2002324"><ele>299.2</ele><time>2026-05-01T16:04:45.611Z</time></trkpt><trkpt lat="43.5264374" lon="11.2003811"><ele>300.0</ele><time>2026-05-01T16:04:46.618Z</time></trkpt><trkpt lat="43.5264555" lon="11.2005434"><ele>300.25</ele><time>2026-05-01T16:04:47.616Z</time></trkpt><trkpt lat="43.5264798" lon="11.2006998"><ele>300.5</ele><time>2026-05-01T16:04:48.611Z</time></trkpt><trkpt lat="43.5265126" lon="11.2008566"><ele>300.75</ele><time>2026-05-01T16:04:49.59Z</time></trkpt><trkpt lat="43.5265499" lon="11.2010179"><ele>301.0</ele><time>2026-05-01T16:04:50.607Z</time></trkpt><trkpt lat="43.5265867" lon="11.2011846"><ele>301.0</ele><time>2026-05-01T16:04:51.614Z</time></trkpt><trkpt lat="43.5266173" lon="11.201353"><ele>301.0</ele><time>2026-05-01T16:04:52.61Z</time></trkpt><trkpt lat="43.5266399" lon="11.2015105"><ele>301.0</ele><time>2026-05-01T16:04:53.606Z</time></trkpt><trkpt lat="43.526644" lon="11.2016731"><ele>301.0</ele><time>2026-05-01T16:04:54.604Z</time></trkpt><trkpt lat="43.5266357" lon="11.2018321"><ele>301.0</ele><time>2026-05-01T16:04:55.611Z</time></trkpt><trkpt lat="43.5266306" lon="11.2019965"><ele>301.0</ele><time>2026-05-01T16:04:56.603Z</time></trkpt><trkpt lat="43.5266255" lon="11.2021478"><ele>301.0</ele><time>2026-05-01T16:04:57.607Z</time></trkpt><trkpt lat="43.5266327" lon="11.2022944"><ele>301.0</ele><time>2026-05-01T16:04:58.609Z</time></trkpt><trkpt lat="43.5266517" lon="11.2024435"><ele>301.0</ele><time>2026-05-01T16:04:59.601Z</time></trkpt><trkpt lat="43.5266673" lon="11.2025946"><ele>300.0</ele><time>2026-05-01T16:05:00.603Z</time></trkpt><trkpt lat="43.5266814" lon="11.2027287"><ele>299.0</ele><time>2026-05-01T16:05:01.605Z</time></trkpt><trkpt lat="43.526686" lon="11.2028597"><ele>298.0</ele><time>2026-05-01T16:05:02.605Z</time></trkpt><trkpt lat="43.5267034" lon="11.2029686"><ele>297.0</ele><time>2026-05-01T16:05:03.601Z</time></trkpt><trkpt lat="43.526725" lon="11.2030675"><ele>296.0</ele><time>2026-05-01T16:05:04.609Z</time></trkpt><trkpt lat="43.5267432" lon="11.2031549"><ele>295.0</ele><time>2026-05-01T16:05:05.605Z</time></trkpt><trkpt lat="43.5267706" lon="11.2032804"><ele>295.0</ele><time>2026-05-01T16:05:07.6Z</time></trkpt><trkpt lat="43.5268446" lon="11.203316"><ele>295.0</ele><time>2026-05-01T16:05:10.61Z</time></trkpt><trkpt lat="43.5268907" lon="11.2032458"><ele>295.0</ele><time>2026-05-01T16:05:17.612Z</time></trkpt><trkpt lat="43.5269474" lon="11.2031238"><ele>295.0</ele><time>2026-05-01T16:05:20.608Z</time></trkpt><trkpt lat="43.5269998" lon="11.2030294"><ele>295.0</ele><time>2026-05-01T16:05:21.614Z</time></trkpt><trkpt lat="43.527048" lon="11.2029195"><ele>295.0</ele><time>2026-05-01T16:05:22.603Z</time></trkpt><trkpt lat="43.5270848" lon="11.2028033"><ele>292.2</ele><time>2026-05-01T16:05:23.611Z</time></trkpt><trkpt lat="43.5271178" lon="11.2026901"><ele>289.4</ele><time>2026-05-01T16:05:24.621Z</time></trkpt><trkpt lat="43.5271546" lon="11.2025706"><ele>286.6</ele><time>2026-05-01T16:05:25.621Z</time></trkpt><trkpt lat="43.5271999" lon="11.202458"><ele>283.8</ele><time>2026-05-01T16:05:26.603Z</time></trkpt><trkpt lat="43.5272623" lon="11.2023489"><ele>281.0</ele><time>2026-05-01T16:05:27.62Z</time></trkpt><trkpt lat="43.5273149" lon="11.2022473"><ele>281.0</ele><time>2026-05-01T16:05:28.607Z</time></trkpt><trkpt lat="43.5273723" lon="11.2021426"><ele>281.0</ele><time>2026-05-01T16:05:29.61Z</time></trkpt><trkpt lat="43.5274326" lon="11.2020238"><ele>281.0</ele><time>2026-05-01T16:05:30.62Z</time></trkpt><trkpt lat="43.5274824" lon="11.201899"><ele>281.0</ele><time>2026-05-01T16:05:31.62Z</time></trkpt><trkpt lat="43.5275078" lon="11.2017549"><ele>281.0</ele><time>2026-05-01T16:05:32.611Z</time></trkpt><trkpt lat="43.5275124" lon="11.2015856"><ele>281.0</ele><time>2026-05-01T16:05:33.615Z</time></trkpt><trkpt lat="43.5275109" lon="11.201418"><ele>281.0</ele><time>2026-05-01T16:05:34.612Z</time></trkpt><trkpt lat="43.527515" lon="11.2012489"><ele>281.0</ele><time>2026-05-01T16:05:35.607Z</time></trkpt><trkpt lat="43.5275269" lon="11.2010766"><ele>281.0</ele><time>2026-05-01T16:05:36.604Z</time></trkpt><trkpt lat="43.5275392" lon="11.2009095"><ele>281.0</ele><time>2026-05-01T16:05:37.607Z</time></trkpt><trkpt lat="43.5275695" lon="11.2007475"><ele>281.0</ele><time>2026-05-01T16:05:38.607Z</time></trkpt><trkpt lat="43.5276032" lon="11.2005938"><ele>281.0</ele><time>2026-05-01T16:05:39.605Z</time></trkpt><trkpt lat="43.5276502" lon="11.200477"><ele>281.0</ele><time>2026-05-01T16:05:40.603Z</time></trkpt><trkpt lat="43.527719" lon="11.2003889"><ele>281.0</ele><time>2026-05-01T16:05:41.602Z</time></trkpt><trkpt lat="43.5278106" lon="11.2003534"><ele>277.5</ele><time>2026-05-01T16:05:42.61Z</time></trkpt><trkpt lat="43.527912" lon="11.2003832"><ele>274.0</ele><time>2026-05-01T16:05:43.603Z</time></trkpt><trkpt lat="43.5279959" lon="11.2004211"><ele>270.5</ele><time>2026-05-01T16:05:44.607Z</time></trkpt><trkpt lat="43.5280792" lon="11.200435"><ele>267.0</ele><time>2026-05-01T16:05:45.606Z</time></trkpt><trkpt lat="43.5281631" lon="11.2004379"><ele>263.5</ele><time>2026-05-01T16:05:46.61Z</time></trkpt><trkpt lat="43.5282377" lon="11.2004303"><ele>260.0</ele><time>2026-05-01T16:05:47.605Z</time></trkpt><trkpt lat="43.5283125" lon="11.2003902"><ele>260.0</ele><time>2026-05-01T16:05:48.606Z</time></trkpt><trkpt lat="43.5283982" lon="11.2003054"><ele>260.0</ele><time>2026-05-01T16:05:49.603Z</time></trkpt><trkpt lat="43.5284777" lon="11.2001761"><ele>260.0</ele><time>2026-05-01T16:05:50.603Z</time></trkpt><trkpt lat="43.5285601" lon="11.2000126"><ele>260.0</ele><time>2026-05-01T16:05:51.607Z</time></trkpt><trkpt lat="43.5286573" lon="11.1998335"><ele>256.75</ele><time>2026-05-01T16:05:52.602Z</time></trkpt><trkpt lat="43.528753" lon="11.1996607"><ele>253.5</ele><time>2026-05-01T16:05:53.602Z</time></trkpt><trkpt lat="43.5288347" lon="11.1995114"><ele>250.25</ele><time>2026-05-01T16:05:54.602Z</time></trkpt><trkpt lat="43.5289109" lon="11.1993825"><ele>247.0</ele><time>2026-05-01T16:05:55.603Z</time></trkpt><trkpt lat="43.5289839" lon="11.1992644"><ele>247.0</ele><time>2026-05-01T16:05:56.605Z</time></trkpt><trkpt lat="43.5290645" lon="11.1991602"><ele>247.0</ele><time>2026-05-01T16:05:57.611Z</time></trkpt><trkpt lat="43.5291472" lon="11.1990649"><ele>247.0</ele><time>2026-05-01T16:05:58.6Z</time></trkpt><trkpt lat="43.529254" lon="11.1989841"><ele>247.0</ele><time>2026-05-01T16:05:59.601Z</time></trkpt><trkpt lat="43.5293585" lon="11.1989101"><ele>246.2</ele><time>2026-05-01T16:06:00.607Z</time></trkpt><trkpt lat="43.5294551" lon="11.1988392"><ele>245.39999999999998</ele><time>2026-05-01T16:06:01.602Z</time></trkpt><trkpt lat="43.529551" lon="11.1988149"><ele>244.60000000000002</ele><time>2026-05-01T16:06:02.614Z</time></trkpt><trkpt lat="43.5296447" lon="11.1988372"><ele>243.8</ele><time>2026-05-01T16:06:03.614Z</time></trkpt><trkpt lat="43.5297312" lon="11.1989105"><ele>243.0</ele><time>2026-05-01T16:06:04.609Z</time></trkpt><trkpt lat="43.5297874" lon="11.1990154"><ele>240.0</ele><time>2026-05-01T16:06:05.596Z</time></trkpt><trkpt lat="43.5298364" lon="11.1991296"><ele>237.0</ele><time>2026-05-01T16:06:06.598Z</time></trkpt><trkpt lat="43.5298892" lon="11.1992353"><ele>234.0</ele><time>2026-05-01T16:06:07.612Z</time></trkpt><trkpt lat="43.5299426" lon="11.1993109"><ele>231.0</ele><time>2026-05-01T16:06:08.606Z</time></trkpt><trkpt lat="43.5300202" lon="11.199343"><ele>228.0</ele><time>2026-05-01T16:06:09.611Z</time></trkpt><trkpt lat="43.5301259" lon="11.1993207"><ele>228.0</ele><time>2026-05-01T16:06:10.61Z</time></trkpt><trkpt lat="43.5302402" lon="11.1992705"><ele>228.0</ele><time>2026-05-01T16:06:11.612Z</time></trkpt><trkpt lat="43.5303604" lon="11.1992257"><ele>228.0</ele><time>2026-05-01T16:06:12.61Z</time></trkpt><trkpt lat="43.5304582" lon="11.1991766"><ele>228.0</ele><time>2026-05-01T16:06:13.599Z</time></trkpt><trkpt lat="43.530545" lon="11.1991234"><ele>228.0</ele><time>2026-05-01T16:06:14.613Z</time></trkpt><trkpt lat="43.5306173" lon="11.1990778"><ele>227.0</ele><time>2026-05-01T16:06:15.607Z</time></trkpt><trkpt lat="43.5306737" lon="11.1990305"><ele>226.0</ele><time>2026-05-01T16:06:16.605Z</time></trkpt><trkpt lat="43.5307214" lon="11.1989601"><ele>225.0</ele><time>2026-05-01T16:06:18.619Z</time></trkpt><trkpt lat="43.5308009" lon="11.1989945"><ele>224.0</ele><time>2026-05-01T16:06:21.607Z</time></trkpt><trkpt lat="43.5308736" lon="11.1991107"><ele>223.0</ele><time>2026-05-01T16:06:23.616Z</time></trkpt><trkpt lat="43.5309011" lon="11.1992098"><ele>222.0</ele><time>2026-05-01T16:06:24.61Z</time></trkpt><trkpt lat="43.5309211" lon="11.1993157"><ele>222.0</ele><time>2026-05-01T16:06:25.601Z</time></trkpt><trkpt lat="43.5309333" lon="11.1994291"><ele>222.0</ele><time>2026-05-01T16:06:26.609Z</time></trkpt><trkpt lat="43.5309397" lon="11.1995512"><ele>222.0</ele><time>2026-05-01T16:06:27.612Z</time></trkpt><trkpt lat="43.5309361" lon="11.1996757"><ele>222.0</ele><time>2026-05-01T16:06:28.61Z</time></trkpt><trkpt lat="43.5309353" lon="11.1997835"><ele>222.0</ele><time>2026-05-01T16:06:29.609Z</time></trkpt><trkpt lat="43.5309383" lon="11.1998841"><ele>222.0</ele><time>2026-05-01T16:06:30.614Z</time></trkpt><trkpt lat="43.530935" lon="11.1999839"><ele>222.6</ele><time>2026-05-01T16:06:31.613Z</time></trkpt><trkpt lat="43.5309512" lon="11.2001353"><ele>223.2</ele><time>2026-05-01T16:06:33.594Z</time></trkpt><trkpt lat="43.5310371" lon="11.2002244"><ele>223.8</ele><time>2026-05-01T16:06:35.615Z</time></trkpt><trkpt lat="43.5311552" lon="11.2002301"><ele>224.4</ele><time>2026-05-01T16:06:37.602Z</time></trkpt><trkpt lat="43.5312399" lon="11.2002078"><ele>225.0</ele><time>2026-05-01T16:06:38.607Z</time></trkpt><trkpt lat="43.5313358" lon="11.200189"><ele>227.0</ele><time>2026-05-01T16:06:39.612Z</time></trkpt><trkpt lat="43.5314487" lon="11.2001442"><ele>229.0</ele><time>2026-05-01T16:06:40.606Z</time></trkpt><trkpt lat="43.5315614" lon="11.2001033"><ele>231.0</ele><time>2026-05-01T16:06:41.607Z</time></trkpt><trkpt lat="43.5316711" lon="11.2000734"><ele>233.0</ele><time>2026-05-01T16:06:42.616Z</time></trkpt><trkpt lat="43.5317624" lon="11.2000553"><ele>235.0</ele><time>2026-05-01T16:06:43.624Z</time></trkpt><trkpt lat="43.531827" lon="11.2000606"><ele>235.0</ele><time>2026-05-01T16:06:44.611Z</time></trkpt><trkpt lat="43.5319255" lon="11.2001305"><ele>235.0</ele><time>2026-05-01T16:06:46.613Z</time></trkpt><trkpt lat="43.5319794" lon="11.2001928"><ele>235.0</ele><time>2026-05-01T16:06:47.607Z</time></trkpt><trkpt lat="43.5321016" lon="11.2001919"><ele>235.0</ele><time>2026-05-01T16:06:49.616Z</time></trkpt><trkpt lat="43.5322242" lon="11.2001371"><ele>235.0</ele><time>2026-05-01T16:06:51.614Z</time></trkpt><trkpt lat="43.5322964" lon="11.2000967"><ele>236.99999999999997</ele><time>2026-05-01T16:06:52.617Z</time></trkpt><trkpt lat="43.5323758" lon="11.2000657"><ele>239.0</ele><time>2026-05-01T16:06:53.608Z</time></trkpt><trkpt lat="43.5324652" lon="11.2000278"><ele>241.0</ele><time>2026-05-01T16:06:54.61Z</time></trkpt><trkpt lat="43.5325574" lon="11.1999936"><ele>243.0</ele><time>2026-05-01T16:06:55.606Z</time></trkpt><trkpt lat="43.5326433" lon="11.1999652"><ele>244.99999999999997</ele><time>2026-05-01T16:06:56.611Z</time></trkpt><trkpt lat="43.5327096" lon="11.1999336"><ele>247.0</ele><time>2026-05-01T16:06:57.611Z</time></trkpt><trkpt lat="43.5327761" lon="11.1998964"><ele>247.0</ele><time>2026-05-01T16:06:58.607Z</time></trkpt><trkpt lat="43.5328847" lon="11.1998788"><ele>247.0</ele><time>2026-05-01T16:07:00.609Z</time></trkpt><trkpt lat="43.5329671" lon="11.1999849"><ele>247.0</ele><time>2026-05-01T16:07:02.62Z</time></trkpt><trkpt lat="43.533044" lon="11.2001031"><ele>247.0</ele><time>2026-05-01T16:07:04.605Z</time></trkpt><trkpt lat="43.5330837" lon="11.200177"><ele>247.0</ele><time>2026-05-01T16:07:05.605Z</time></trkpt><trkpt lat="43.5331327" lon="11.2002475"><ele>248.39999999999998</ele><time>2026-05-01T16:07:06.61Z</time></trkpt><trkpt lat="43.5331884" lon="11.2003227"><ele>249.79999999999998</ele><time>2026-05-01T16:07:07.611Z</time></trkpt><trkpt lat="43.5332663" lon="11.2004364"><ele>251.2</ele><time>2026-05-01T16:07:09.604Z</time></trkpt><trkpt lat="43.5333513" lon="11.2005465"><ele>252.6</ele><time>2026-05-01T16:07:11.607Z</time></trkpt><trkpt lat="43.5334422" lon="11.2006691"><ele>254.0</ele><time>2026-05-01T16:07:13.612Z</time></trkpt><trkpt lat="43.5334915" lon="11.2007365"><ele>255.6</ele><time>2026-05-01T16:07:14.609Z</time></trkpt><trkpt lat="43.5335376" lon="11.2008023"><ele>257.2</ele><time>2026-05-01T16:07:15.606Z</time></trkpt><trkpt lat="43.5336207" lon="11.2009163"><ele>258.79999999999995</ele><time>2026-05-01T16:07:17.608Z</time></trkpt><trkpt lat="43.5336803" lon="11.2009985"><ele>260.4</ele><time>2026-05-01T16:07:18.606Z</time></trkpt><trkpt lat="43.5337656" lon="11.2011186"><ele>262.0</ele><time>2026-05-01T16:07:19.613Z</time></trkpt><trkpt lat="43.5338646" lon="11.2012568"><ele>263.5</ele><time>2026-05-01T16:07:20.615Z</time></trkpt><trkpt lat="43.5339522" lon="11.2013848"><ele>265.0</ele><time>2026-05-01T16:07:21.626Z</time></trkpt><trkpt lat="43.5340289" lon="11.2014894"><ele>266.5</ele><time>2026-05-01T16:07:22.606Z</time></trkpt><trkpt lat="43.5341034" lon="11.2016051"><ele>268.0</ele><time>2026-05-01T16:07:23.612Z</time></trkpt><trkpt lat="43.5341776" lon="11.2017176"><ele>270.4</ele><time>2026-05-01T16:07:24.61Z</time></trkpt><trkpt lat="43.5342516" lon="11.2018235"><ele>272.8</ele><time>2026-05-01T16:07:25.614Z</time></trkpt><trkpt lat="43.5343246" lon="11.2019155"><ele>275.2</ele><time>2026-05-01T16:07:26.618Z</time></trkpt><trkpt lat="43.5343946" lon="11.2020045"><ele>277.6</ele><time>2026-05-01T16:07:27.611Z</time></trkpt><trkpt lat="43.5344644" lon="11.2020899"><ele>280.0</ele><time>2026-05-01T16:07:28.618Z</time></trkpt><trkpt lat="43.5345373" lon="11.2021853"><ele>279.75</ele><time>2026-05-01T16:07:29.606Z</time></trkpt><trkpt lat="43.5346261" lon="11.20229"><ele>279.5</ele><time>2026-05-01T16:07:30.621Z</time></trkpt><trkpt lat="43.534719" lon="11.2023946"><ele>279.25</ele><time>2026-05-01T16:07:31.619Z</time></trkpt><trkpt lat="43.5348129" lon="11.2025064"><ele>279.0</ele><time>2026-05-01T16:07:32.61Z</time></trkpt><trkpt lat="43.5348924" lon="11.202601"><ele>280.71428571428567</ele><time>2026-05-01T16:07:33.612Z</time></trkpt><trkpt lat="43.5349448" lon="11.202682"><ele>282.42857142857144</ele><time>2026-05-01T16:07:34.612Z</time></trkpt><trkpt lat="43.5349719" lon="11.2027659"><ele>284.1428571428571</ele><time>2026-05-01T16:07:35.612Z</time></trkpt><trkpt lat="43.5349866" lon="11.2028593"><ele>285.85714285714283</ele><time>2026-05-01T16:07:36.604Z</time></trkpt><trkpt lat="43.5349758" lon="11.2029608"><ele>287.57142857142856</ele><time>2026-05-01T16:07:37.606Z</time></trkpt><trkpt lat="43.5349725" lon="11.2030664"><ele>289.2857142857143</ele><time>2026-05-01T16:07:38.614Z</time></trkpt><trkpt lat="43.5349699" lon="11.2031598"><ele>291.0</ele><time>2026-05-01T16:07:39.601Z</time></trkpt><trkpt lat="43.5349642" lon="11.2032928"><ele>293.6</ele><time>2026-05-01T16:07:41.609Z</time></trkpt><trkpt lat="43.5349725" lon="11.2034429"><ele>296.20000000000005</ele><time>2026-05-01T16:07:43.601Z</time></trkpt><trkpt lat="43.5349828" lon="11.2035815"><ele>298.79999999999995</ele><time>2026-05-01T16:07:45.606Z</time></trkpt><trkpt lat="43.5350013" lon="11.2037342"><ele>301.4</ele><time>2026-05-01T16:07:47.6Z</time></trkpt><trkpt lat="43.535027" lon="11.2038352"><ele>304.0</ele><time>2026-05-01T16:07:49.608Z</time></trkpt><trkpt lat="43.5350715" lon="11.2039029"><ele>305.3333333333333</ele><time>2026-05-01T16:07:56.613Z</time></trkpt><trkpt lat="43.535105" lon="11.2040268"><ele>306.66666666666663</ele><time>2026-05-01T16:07:58.619Z</time></trkpt><trkpt lat="43.5350846" lon="11.2042011"><ele>308.0</ele><time>2026-05-01T16:08:00.606Z</time></trkpt><trkpt lat="43.5350586" lon="11.2043022"><ele>309.3333333333333</ele><time>2026-05-01T16:08:01.603Z</time></trkpt><trkpt lat="43.5350319" lon="11.2043905"><ele>310.6666666666667</ele><time>2026-05-01T16:08:02.605Z</time></trkpt><trkpt lat="43.5350195" lon="11.2044906"><ele>312.0</ele><time>2026-05-01T16:08:03.604Z</time></trkpt><trkpt lat="43.534994" lon="11.2045899"><ele>312.0</ele><time>2026-05-01T16:08:04.599Z</time></trkpt><trkpt lat="43.5349703" lon="11.2046888"><ele>312.0</ele><time>2026-05-01T16:08:05.609Z</time></trkpt><trkpt lat="43.5349438" lon="11.20479"><ele>312.0</ele><time>2026-05-01T16:08:06.607Z</time></trkpt><trkpt lat="43.5349181" lon="11.2048785"><ele>312.0</ele><time>2026-05-01T16:08:07.604Z</time></trkpt><trkpt lat="43.5349031" lon="11.2050158"><ele>312.0</ele><time>2026-05-01T16:08:09.6Z</time></trkpt><trkpt lat="43.5349586" lon="11.2050706"><ele>312.0</ele><time>2026-05-01T16:08:12.604Z</time></trkpt><trkpt lat="43.5350449" lon="11.205051"><ele>313.3333333333333</ele><time>2026-05-01T16:08:14.607Z</time></trkpt><trkpt lat="43.5351078" lon="11.2050385"><ele>314.6666666666667</ele><time>2026-05-01T16:08:15.606Z</time></trkpt><trkpt lat="43.535173" lon="11.2050229"><ele>316.0</ele><time>2026-05-01T16:08:16.605Z</time></trkpt><trkpt lat="43.5352476" lon="11.2050046"><ele>317.33333333333337</ele><time>2026-05-01T16:08:17.605Z</time></trkpt><trkpt lat="43.5353295" lon="11.2049867"><ele>318.6666666666667</ele><time>2026-05-01T16:08:18.615Z</time></trkpt><trkpt lat="43.5354104" lon="11.2049668"><ele>320.0</ele><time>2026-05-01T16:08:19.605Z</time></trkpt><trkpt lat="43.5354888" lon="11.2049465"><ele>321.8</ele><time>2026-05-01T16:08:20.604Z</time></trkpt><trkpt lat="43.5355663" lon="11.204929"><ele>323.6</ele><time>2026-05-01T16:08:21.61Z</time></trkpt><trkpt lat="43.5356368" lon="11.204919"><ele>325.4</ele><time>2026-05-01T16:08:22.604Z</time></trkpt><trkpt lat="43.5357284" lon="11.2049375"><ele>327.2</ele><time>2026-05-01T16:08:24.612Z</time></trkpt><trkpt lat="43.5358222" lon="11.2050738"><ele>329.0</ele><time>2026-05-01T16:08:26.615Z</time></trkpt><trkpt lat="43.5358664" lon="11.2051712"><ele>329.0</ele><time>2026-05-01T16:08:27.613Z</time></trkpt><trkpt lat="43.5359196" lon="11.2052649"><ele>329.0</ele><time>2026-05-01T16:08:28.618Z</time></trkpt><trkpt lat="43.5359724" lon="11.2053525"><ele>329.0</ele><time>2026-05-01T16:08:29.609Z</time></trkpt><trkpt lat="43.5360429" lon="11.2054482"><ele>329.0</ele><time>2026-05-01T16:08:30.606Z</time></trkpt><trkpt lat="43.5361299" lon="11.2055449"><ele>329.0</ele><time>2026-05-01T16:08:31.62Z</time></trkpt><trkpt lat="43.5362061" lon="11.2056402"><ele>330.4</ele><time>2026-05-01T16:08:32.616Z</time></trkpt><trkpt lat="43.5362797" lon="11.2057317"><ele>331.79999999999995</ele><time>2026-05-01T16:08:33.602Z</time></trkpt><trkpt lat="43.5363529" lon="11.2058214"><ele>333.20000000000005</ele><time>2026-05-01T16:08:34.621Z</time></trkpt><trkpt lat="43.5364249" lon="11.2059188"><ele>334.6</ele><time>2026-05-01T16:08:35.605Z</time></trkpt><trkpt lat="43.5365036" lon="11.2060343"><ele>336.0</ele><time>2026-05-01T16:08:36.605Z</time></trkpt><trkpt lat="43.536581" lon="11.2061514"><ele>336.0</ele><time>2026-05-01T16:08:37.607Z</time></trkpt><trkpt lat="43.5366468" lon="11.2062668"><ele>336.0</ele><time>2026-05-01T16:08:38.61Z</time></trkpt><trkpt lat="43.5366922" lon="11.2063777"><ele>336.0</ele><time>2026-05-01T16:08:39.602Z</time></trkpt><trkpt lat="43.5367243" lon="11.2064918"><ele>336.0</ele><time>2026-05-01T16:08:40.603Z</time></trkpt><trkpt lat="43.5367614" lon="11.2065937"><ele>336.0</ele><time>2026-05-01T16:08:41.605Z</time></trkpt><trkpt lat="43.5367966" lon="11.2067072"><ele>336.0</ele><time>2026-05-01T16:08:42.603Z</time></trkpt><trkpt lat="43.5368313" lon="11.2068271"><ele>336.0</ele><time>2026-05-01T16:08:43.609Z</time></trkpt><trkpt lat="43.5368669" lon="11.2069547"><ele>336.0</ele><time>2026-05-01T16:08:44.61Z</time></trkpt><trkpt lat="43.5368968" lon="11.2070583"><ele>336.0</ele><time>2026-05-01T16:08:45.603Z</time></trkpt><trkpt lat="43.5369166" lon="11.2071456"><ele>336.0</ele><time>2026-05-01T16:08:46.609Z</time></trkpt><trkpt lat="43.5369417" lon="11.2072587"><ele>336.0</ele><time>2026-05-01T16:08:47.608Z</time></trkpt><trkpt lat="43.5369575" lon="11.2073997"><ele>336.0</ele><time>2026-05-01T16:08:48.61Z</time></trkpt><trkpt lat="43.5369696" lon="11.2075375"><ele>336.0</ele><time>2026-05-01T16:08:49.605Z</time></trkpt><trkpt lat="43.5369833" lon="11.2076749"><ele>336.0</ele><time>2026-05-01T16:08:50.608Z</time></trkpt><trkpt lat="43.5369914" lon="11.2078053"><ele>336.0</ele><time>2026-05-01T16:08:51.604Z</time></trkpt><trkpt lat="43.5370172" lon="11.2079259"><ele>336.0</ele><time>2026-05-01T16:08:52.61Z</time></trkpt><trkpt lat="43.5370551" lon="11.2080324"><ele>336.5</ele><time>2026-05-01T16:08:53.611Z</time></trkpt><trkpt lat="43.5370991" lon="11.208112"><ele>337.0</ele><time>2026-05-01T16:08:54.613Z</time></trkpt><trkpt lat="43.537148" lon="11.2081884"><ele>337.5</ele><time>2026-05-01T16:08:55.606Z</time></trkpt><trkpt lat="43.5371902" lon="11.2082872"><ele>338.0</ele><time>2026-05-01T16:08:56.616Z</time></trkpt><trkpt lat="43.5372245" lon="11.2083912"><ele>338.5</ele><time>2026-05-01T16:08:57.611Z</time></trkpt><trkpt lat="43.53727" lon="11.2085163"><ele>339.0</ele><time>2026-05-01T16:08:58.612Z</time></trkpt><trkpt lat="43.5373172" lon="11.2086472"><ele>339.79999999999995</ele><time>2026-05-01T16:08:59.605Z</time></trkpt><trkpt lat="43.5373603" lon="11.2087843"><ele>340.59999999999997</ele><time>2026-05-01T16:09:00.611Z</time></trkpt><trkpt lat="43.5374007" lon="11.2089253"><ele>341.4</ele><time>2026-05-01T16:09:01.6Z</time></trkpt><trkpt lat="43.5374444" lon="11.2090596"><ele>342.2</ele><time>2026-05-01T16:09:02.616Z</time></trkpt><trkpt lat="43.5374819" lon="11.2091829"><ele>343.0</ele><time>2026-05-01T16:09:03.61Z</time></trkpt><trkpt lat="43.5375103" lon="11.2093117"><ele>343.0</ele><time>2026-05-01T16:09:04.611Z</time></trkpt><trkpt lat="43.5375235" lon="11.2094416"><ele>343.0</ele><time>2026-05-01T16:09:05.608Z</time></trkpt><trkpt lat="43.5375222" lon="11.209563"><ele>343.0</ele><time>2026-05-01T16:09:06.604Z</time></trkpt><trkpt lat="43.5375185" lon="11.2096958"><ele>343.0</ele><time>2026-05-01T16:09:07.611Z</time></trkpt><trkpt lat="43.5375256" lon="11.2098076"><ele>343.0</ele><time>2026-05-01T16:09:08.6Z</time></trkpt><trkpt lat="43.5375415" lon="11.2099235"><ele>343.0</ele><time>2026-05-01T16:09:09.606Z</time></trkpt><trkpt lat="43.5375846" lon="11.210018"><ele>343.3333333333333</ele><time>2026-05-01T16:09:10.597Z</time></trkpt><trkpt lat="43.5376197" lon="11.2100985"><ele>343.66666666666663</ele><time>2026-05-01T16:09:11.604Z</time></trkpt><trkpt lat="43.5376556" lon="11.210203"><ele>344.0</ele><time>2026-05-01T16:09:13.613Z</time></trkpt><trkpt lat="43.5377095" lon="11.2102829"><ele>344.3333333333333</ele><time>2026-05-01T16:09:16.618Z</time></trkpt><trkpt lat="43.5377739" lon="11.2103409"><ele>344.6666666666667</ele><time>2026-05-01T16:09:19.613Z</time></trkpt><trkpt lat="43.5378119" lon="11.2104559"><ele>345.0</ele><time>2026-05-01T16:10:12.615Z</time></trkpt><trkpt lat="43.5378401" lon="11.2106"><ele>344.8</ele><time>2026-05-01T16:10:14.612Z</time></trkpt><trkpt lat="43.5378643" lon="11.2106808"><ele>344.6</ele><time>2026-05-01T16:10:15.609Z</time></trkpt><trkpt lat="43.5379349" lon="11.2108216"><ele>344.4</ele><time>2026-05-01T16:10:17.604Z</time></trkpt><trkpt lat="43.5379505" lon="11.2109614"><ele>344.2</ele><time>2026-05-01T16:10:19.607Z</time></trkpt><trkpt lat="43.5378805" lon="11.2110811"><ele>344.0</ele><time>2026-05-01T16:10:21.605Z</time></trkpt><trkpt lat="43.5378137" lon="11.2111351"><ele>343.4</ele><time>2026-05-01T16:10:22.612Z</time></trkpt><trkpt lat="43.5377368" lon="11.2111783"><ele>342.79999999999995</ele><time>2026-05-01T16:10:23.618Z</time></trkpt><trkpt lat="43.5376741" lon="11.2112096"><ele>342.20000000000005</ele><time>2026-05-01T16:10:24.607Z</time></trkpt><trkpt lat="43.5375948" lon="11.2112643"><ele>341.6</ele><time>2026-05-01T16:10:26.612Z</time></trkpt><trkpt lat="43.5375112" lon="11.2114012"><ele>341.0</ele><time>2026-05-01T16:10:28.612Z</time></trkpt><trkpt lat="43.5374692" lon="11.2115464"><ele>339.0</ele><time>2026-05-01T16:10:29.607Z</time></trkpt><trkpt lat="43.5374243" lon="11.2117158"><ele>337.0</ele><time>2026-05-01T16:10:30.61Z</time></trkpt><trkpt lat="43.5373811" lon="11.2118887"><ele>335.0</ele><time>2026-05-01T16:10:31.618Z</time></trkpt><trkpt lat="43.5373426" lon="11.2120318"><ele>333.0</ele><time>2026-05-01T16:10:32.607Z</time></trkpt><trkpt lat="43.5373121" lon="11.212155"><ele>333.0</ele><time>2026-05-01T16:10:33.604Z</time></trkpt><trkpt lat="43.5372602" lon="11.2122678"><ele>333.0</ele><time>2026-05-01T16:10:34.601Z</time></trkpt><trkpt lat="43.5372013" lon="11.2123938"><ele>333.0</ele><time>2026-05-01T16:10:35.615Z</time></trkpt><trkpt lat="43.5371336" lon="11.2125127"><ele>333.0</ele><time>2026-05-01T16:10:36.616Z</time></trkpt><trkpt lat="43.5370616" lon="11.2126401"><ele>333.0</ele><time>2026-05-01T16:10:37.613Z</time></trkpt><trkpt lat="43.5369863" lon="11.2127584"><ele>331.75</ele><time>2026-05-01T16:10:38.608Z</time></trkpt><trkpt lat="43.5369061" lon="11.212874"><ele>330.5</ele><time>2026-05-01T16:10:39.603Z</time></trkpt><trkpt lat="43.5368117" lon="11.2129791"><ele>329.25</ele><time>2026-05-01T16:10:40.603Z</time></trkpt><trkpt lat="43.5367131" lon="11.2131058"><ele>328.0</ele><time>2026-05-01T16:10:41.62Z</time></trkpt><trkpt lat="43.536609" lon="11.213264"><ele>328.0</ele><time>2026-05-01T16:10:42.607Z</time></trkpt><trkpt lat="43.5365173" lon="11.2134359"><ele>328.0</ele><time>2026-05-01T16:10:43.611Z</time></trkpt><trkpt lat="43.536449" lon="11.2135697"><ele>328.0</ele><time>2026-05-01T16:10:44.6Z</time></trkpt><trkpt lat="43.5364012" lon="11.2137168"><ele>328.0</ele><time>2026-05-01T16:10:45.606Z</time></trkpt><trkpt lat="43.5363622" lon="11.2138968"><ele>329.0</ele><time>2026-05-01T16:10:46.614Z</time></trkpt><trkpt lat="43.5363397" lon="11.2140839"><ele>330.0</ele><time>2026-05-01T16:10:47.612Z</time></trkpt><trkpt lat="43.5363222" lon="11.2142928"><ele>331.0</ele><time>2026-05-01T16:10:48.608Z</time></trkpt><trkpt lat="43.5363083" lon="11.2145356"><ele>331.0</ele><time>2026-05-01T16:10:49.615Z</time></trkpt><trkpt lat="43.5362952" lon="11.2147873"><ele>331.0</ele><time>2026-05-01T16:10:50.613Z</time></trkpt><trkpt lat="43.5362805" lon="11.2150093"><ele>331.0</ele><time>2026-05-01T16:10:51.612Z</time></trkpt><trkpt lat="43.5362794" lon="11.2151541"><ele>331.0</ele><time>2026-05-01T16:10:52.61Z</time></trkpt><trkpt lat="43.5362708" lon="11.2152791"><ele>331.6</ele><time>2026-05-01T16:10:53.604Z</time></trkpt><trkpt lat="43.5362785" lon="11.2154004"><ele>332.20000000000005</ele><time>2026-05-01T16:10:54.615Z</time></trkpt><trkpt lat="43.5363004" lon="11.2155321"><ele>332.79999999999995</ele><time>2026-05-01T16:10:55.611Z</time></trkpt><trkpt lat="43.5363491" lon="11.2156778"><ele>333.4</ele><time>2026-05-01T16:10:56.613Z</time></trkpt><trkpt lat="43.5363998" lon="11.2158159"><ele>334.0</ele><time>2026-05-01T16:10:57.613Z</time></trkpt><trkpt lat="43.5364592" lon="11.2159686"><ele>334.2</ele><time>2026-05-01T16:10:58.634Z</time></trkpt><trkpt lat="43.5365135" lon="11.2161136"><ele>334.4</ele><time>2026-05-01T16:10:59.614Z</time></trkpt><trkpt lat="43.5365511" lon="11.2162501"><ele>334.6</ele><time>2026-05-01T16:11:00.611Z</time></trkpt><trkpt lat="43.5365527" lon="11.2163829"><ele>334.8</ele><time>2026-05-01T16:11:01.607Z</time></trkpt><trkpt lat="43.5365336" lon="11.2165194"><ele>335.0</ele><time>2026-05-01T16:11:02.616Z</time></trkpt><trkpt lat="43.5365142" lon="11.2166603"><ele>336.0</ele><time>2026-05-01T16:11:03.599Z</time></trkpt><trkpt lat="43.5365078" lon="11.2168028"><ele>337.0</ele><time>2026-05-01T16:11:04.612Z</time></trkpt><trkpt lat="43.536513" lon="11.2169532"><ele>338.0</ele><time>2026-05-01T16:11:05.606Z</time></trkpt><trkpt lat="43.5365127" lon="11.2171219"><ele>339.0</ele><time>2026-05-01T16:11:06.603Z</time></trkpt><trkpt lat="43.5365044" lon="11.2172919"><ele>338.79999999999995</ele><time>2026-05-01T16:11:07.599Z</time></trkpt><trkpt lat="43.5364802" lon="11.2174528"><ele>338.59999999999997</ele><time>2026-05-01T16:11:08.601Z</time></trkpt><trkpt lat="43.536479" lon="11.2175863"><ele>338.4</ele><time>2026-05-01T16:11:09.6Z</time></trkpt><trkpt lat="43.5365109" lon="11.2177045"><ele>338.2</ele><time>2026-05-01T16:11:10.606Z</time></trkpt><trkpt lat="43.5365572" lon="11.21783"><ele>338.0</ele><time>2026-05-01T16:11:11.609Z</time></trkpt><trkpt lat="43.5365709" lon="11.2180063"><ele>335.6666666666667</ele><time>2026-05-01T16:11:12.595Z</time></trkpt><trkpt lat="43.5365713" lon="11.2182051"><ele>333.3333333333333</ele><time>2026-05-01T16:11:13.599Z</time></trkpt><trkpt lat="43.536563" lon="11.2184122"><ele>331.0</ele><time>2026-05-01T16:11:14.604Z</time></trkpt><trkpt lat="43.536556" lon="11.2186322"><ele>331.0</ele><time>2026-05-01T16:11:15.611Z</time></trkpt><trkpt lat="43.5365522" lon="11.2188586"><ele>331.0</ele><time>2026-05-01T16:11:16.605Z</time></trkpt><trkpt lat="43.5365481" lon="11.219065"><ele>331.0</ele><time>2026-05-01T16:11:17.6Z</time></trkpt><trkpt lat="43.5365492" lon="11.2192496"><ele>331.0</ele><time>2026-05-01T16:11:18.613Z</time></trkpt><trkpt lat="43.5365636" lon="11.2194263"><ele>330.8</ele><time>2026-05-01T16:11:19.608Z</time></trkpt><trkpt lat="43.5365923" lon="11.219582"><ele>330.6</ele><time>2026-05-01T16:11:20.612Z</time></trkpt><trkpt lat="43.5366319" lon="11.2197179"><ele>330.4</ele><time>2026-05-01T16:11:21.599Z</time></trkpt><trkpt lat="43.5366935" lon="11.2198251"><ele>330.2</ele><time>2026-05-01T16:11:22.607Z</time></trkpt><trkpt lat="43.5367781" lon="11.2198915"><ele>330.0</ele><time>2026-05-01T16:11:23.609Z</time></trkpt><trkpt lat="43.5368704" lon="11.2199184"><ele>328.0</ele><time>2026-05-01T16:11:24.615Z</time></trkpt><trkpt lat="43.536971" lon="11.2199074"><ele>326.0</ele><time>2026-05-01T16:11:25.608Z</time></trkpt><trkpt lat="43.5370839" lon="11.2198785"><ele>324.0</ele><time>2026-05-01T16:11:26.606Z</time></trkpt><trkpt lat="43.5372131" lon="11.2198362"><ele>322.0</ele><time>2026-05-01T16:11:27.603Z</time></trkpt><trkpt lat="43.5373426" lon="11.2197893"><ele>321.0</ele><time>2026-05-01T16:11:28.6Z</time></trkpt><trkpt lat="43.5374709" lon="11.2197476"><ele>320.0</ele><time>2026-05-01T16:11:29.611Z</time></trkpt><trkpt lat="43.5375812" lon="11.2197177"><ele>319.0</ele><time>2026-05-01T16:11:30.603Z</time></trkpt><trkpt lat="43.5376902" lon="11.2197228"><ele>318.0</ele><time>2026-05-01T16:11:31.614Z</time></trkpt><trkpt lat="43.5377939" lon="11.2197672"><ele>316.8</ele><time>2026-05-01T16:11:32.606Z</time></trkpt><trkpt lat="43.5378873" lon="11.2198566"><ele>315.6</ele><time>2026-05-01T16:11:33.603Z</time></trkpt><trkpt lat="43.5379608" lon="11.2199807"><ele>314.4</ele><time>2026-05-01T16:11:34.603Z</time></trkpt><trkpt lat="43.5380085" lon="11.2201025"><ele>313.2</ele><time>2026-05-01T16:11:35.608Z</time></trkpt><trkpt lat="43.5380345" lon="11.2202476"><ele>312.0</ele><time>2026-05-01T16:11:36.607Z</time></trkpt><trkpt lat="43.5380534" lon="11.2204047"><ele>312.0</ele><time>2026-05-01T16:11:37.598Z</time></trkpt><trkpt lat="43.538062" lon="11.2205768"><ele>312.0</ele><time>2026-05-01T16:11:38.598Z</time></trkpt><trkpt lat="43.538068" lon="11.2207549"><ele>312.0</ele><time>2026-05-01T16:11:39.605Z</time></trkpt><trkpt lat="43.5380679" lon="11.2209446"><ele>312.0</ele><time>2026-05-01T16:11:40.604Z</time></trkpt><trkpt lat="43.5380479" lon="11.2211141"><ele>312.0</ele><time>2026-05-01T16:11:41.605Z</time></trkpt><trkpt lat="43.5380057" lon="11.2212645"><ele>312.0</ele><time>2026-05-01T16:11:42.618Z</time></trkpt><trkpt lat="43.5379487" lon="11.2214044"><ele>312.0</ele><time>2026-05-01T16:11:43.599Z</time></trkpt><trkpt lat="43.5378844" lon="11.2215554"><ele>312.0</ele><time>2026-05-01T16:11:44.61Z</time></trkpt><trkpt lat="43.5378197" lon="11.2217121"><ele>316.25</ele><time>2026-05-01T16:11:45.6Z</time></trkpt><trkpt lat="43.5377505" lon="11.2218574"><ele>320.5</ele><time>2026-05-01T16:11:46.612Z</time></trkpt><trkpt lat="43.5376619" lon="11.2220169"><ele>324.75</ele><time>2026-05-01T16:11:47.608Z</time></trkpt><trkpt lat="43.5375622" lon="11.2221929"><ele>329.0</ele><time>2026-05-01T16:11:48.616Z</time></trkpt><trkpt lat="43.5374558" lon="11.2223552"><ele>329.25</ele><time>2026-05-01T16:11:49.612Z</time></trkpt><trkpt lat="43.5373529" lon="11.2224907"><ele>329.5</ele><time>2026-05-01T16:11:50.614Z</time></trkpt><trkpt lat="43.5372635" lon="11.2226085"><ele>329.75</ele><time>2026-05-01T16:11:51.619Z</time></trkpt><trkpt lat="43.5371835" lon="11.2227175"><ele>330.0</ele><time>2026-05-01T16:11:52.606Z</time></trkpt><trkpt lat="43.5371039" lon="11.2228263"><ele>331.4</ele><time>2026-05-01T16:11:53.627Z</time></trkpt><trkpt lat="43.537032" lon="11.2229311"><ele>332.8</ele><time>2026-05-01T16:11:54.607Z</time></trkpt><trkpt lat="43.5369687" lon="11.2230372"><ele>334.20000000000005</ele><time>2026-05-01T16:11:55.606Z</time></trkpt><trkpt lat="43.536916" lon="11.2231575"><ele>335.6</ele><time>2026-05-01T16:11:56.613Z</time></trkpt><trkpt lat="43.5368748" lon="11.2232894"><ele>337.0</ele><time>2026-05-01T16:11:57.618Z</time></trkpt><trkpt lat="43.5368409" lon="11.2234486"><ele>337.5</ele><time>2026-05-01T16:11:58.616Z</time></trkpt><trkpt lat="43.5368142" lon="11.2236153"><ele>338.0</ele><time>2026-05-01T16:11:59.606Z</time></trkpt><trkpt lat="43.5367876" lon="11.2237959"><ele>338.5</ele><time>2026-05-01T16:12:00.616Z</time></trkpt><trkpt lat="43.5367617" lon="11.2239951"><ele>339.0</ele><time>2026-05-01T16:12:01.601Z</time></trkpt><trkpt lat="43.5367287" lon="11.2241966"><ele>339.25</ele><time>2026-05-01T16:12:02.606Z</time></trkpt><trkpt lat="43.5366984" lon="11.2243984"><ele>339.5</ele><time>2026-05-01T16:12:03.614Z</time></trkpt><trkpt lat="43.5366689" lon="11.2245877"><ele>339.75</ele><time>2026-05-01T16:12:04.611Z</time></trkpt><trkpt lat="43.5366431" lon="11.2247641"><ele>340.0</ele><time>2026-05-01T16:12:05.611Z</time></trkpt><trkpt lat="43.5366242" lon="11.2249472"><ele>341.0</ele><time>2026-05-01T16:12:06.612Z</time></trkpt><trkpt lat="43.5366139" lon="11.2251338"><ele>342.0</ele><time>2026-05-01T16:12:07.603Z</time></trkpt><trkpt lat="43.5366146" lon="11.2253093"><ele>343.0</ele><time>2026-05-01T16:12:08.612Z</time></trkpt><trkpt lat="43.5366159" lon="11.225472"><ele>344.0</ele><time>2026-05-01T16:12:09.6Z</time></trkpt><trkpt lat="43.5366021" lon="11.2256461"><ele>344.75</ele><time>2026-05-01T16:12:10.607Z</time></trkpt><trkpt lat="43.5365682" lon="11.2258274"><ele>345.5</ele><time>2026-05-01T16:12:11.608Z</time></trkpt><trkpt lat="43.5365375" lon="11.2260032"><ele>346.25</ele><time>2026-05-01T16:12:12.607Z</time></trkpt><trkpt lat="43.536513" lon="11.2261523"><ele>347.0</ele><time>2026-05-01T16:12:13.616Z</time></trkpt><trkpt lat="43.5364909" lon="11.2262782"><ele>347.0</ele><time>2026-05-01T16:12:14.614Z</time></trkpt><trkpt lat="43.5364742" lon="11.2264058"><ele>347.0</ele><time>2026-05-01T16:12:15.614Z</time></trkpt><trkpt lat="43.5364682" lon="11.226552"><ele>347.0</ele><time>2026-05-01T16:12:16.622Z</time></trkpt><trkpt lat="43.5364808" lon="11.2267126"><ele>347.0</ele><time>2026-05-01T16:12:17.602Z</time></trkpt><trkpt lat="43.5365038" lon="11.2268805"><ele>347.0</ele><time>2026-05-01T16:12:18.601Z</time></trkpt><trkpt lat="43.5365278" lon="11.2270548"><ele>348.0</ele><time>2026-05-01T16:12:19.619Z</time></trkpt><trkpt lat="43.5365562" lon="11.2272292"><ele>349.0</ele><time>2026-05-01T16:12:20.622Z</time></trkpt><trkpt lat="43.5365834" lon="11.2273918"><ele>350.0</ele><time>2026-05-01T16:12:21.601Z</time></trkpt><trkpt lat="43.5366115" lon="11.2275545"><ele>351.0</ele><time>2026-05-01T16:12:22.604Z</time></trkpt><trkpt lat="43.53665" lon="11.2277312"><ele>352.0</ele><time>2026-05-01T16:12:23.606Z</time></trkpt><trkpt lat="43.5367043" lon="11.2279043"><ele>353.0</ele><time>2026-05-01T16:12:24.614Z</time></trkpt><trkpt lat="43.5367657" lon="11.2280722"><ele>354.0</ele><time>2026-05-01T16:12:25.603Z</time></trkpt><trkpt lat="43.5368222" lon="11.2282241"><ele>355.0</ele><time>2026-05-01T16:12:26.61Z</time></trkpt><trkpt lat="43.5368633" lon="11.2283857"><ele>355.0</ele><time>2026-05-01T16:12:27.616Z</time></trkpt><trkpt lat="43.5368619" lon="11.2285649"><ele>355.0</ele><time>2026-05-01T16:12:28.615Z</time></trkpt><trkpt lat="43.5368118" lon="11.2287468"><ele>355.0</ele><time>2026-05-01T16:12:29.619Z</time></trkpt><trkpt lat="43.5367367" lon="11.2289234"><ele>355.0</ele><time>2026-05-01T16:12:30.607Z</time></trkpt><trkpt lat="43.5366707" lon="11.2291187"><ele>356.0</ele><time>2026-05-01T16:12:31.613Z</time></trkpt><trkpt lat="43.536607" lon="11.2293343"><ele>357.0</ele><time>2026-05-01T16:12:32.611Z</time></trkpt><trkpt lat="43.5365089" lon="11.229533"><ele>358.0</ele><time>2026-05-01T16:12:33.601Z</time></trkpt><trkpt lat="43.5363881" lon="11.2296949"><ele>359.5</ele><time>2026-05-01T16:12:34.607Z</time></trkpt><trkpt lat="43.5362691" lon="11.2298362"><ele>361.0</ele><time>2026-05-01T16:12:35.602Z</time></trkpt><trkpt lat="43.5361641" lon="11.2299585"><ele>362.5</ele><time>2026-05-01T16:12:36.612Z</time></trkpt><trkpt lat="43.5360816" lon="11.2300785"><ele>364.0</ele><time>2026-05-01T16:12:37.606Z</time></trkpt><trkpt lat="43.536018" lon="11.2301944"><ele>364.75</ele><time>2026-05-01T16:12:38.609Z</time></trkpt><trkpt lat="43.5359679" lon="11.2303243"><ele>365.5</ele><time>2026-05-01T16:12:39.603Z</time></trkpt><trkpt lat="43.5359341" lon="11.2304682"><ele>366.25</ele><time>2026-05-01T16:12:40.599Z</time></trkpt><trkpt lat="43.5359122" lon="11.2306369"><ele>367.0</ele><time>2026-05-01T16:12:41.612Z</time></trkpt><trkpt lat="43.5358932" lon="11.2308081"><ele>368.16666666666663</ele><time>2026-05-01T16:12:42.604Z</time></trkpt><trkpt lat="43.5358762" lon="11.2309541"><ele>369.3333333333333</ele><time>2026-05-01T16:12:43.612Z</time></trkpt><trkpt lat="43.5358652" lon="11.231053"><ele>370.5</ele><time>2026-05-01T16:12:44.608Z</time></trkpt><trkpt lat="43.5358347" lon="11.2311568"><ele>371.6666666666667</ele><time>2026-05-01T16:12:46.603Z</time></trkpt><trkpt lat="43.5358174" lon="11.2312655"><ele>372.83333333333337</ele><time>2026-05-01T16:12:51.613Z</time></trkpt><trkpt lat="43.5358949" lon="11.2313364"><ele>374.0</ele><time>2026-05-01T16:12:53.603Z</time></trkpt><trkpt lat="43.5359841" lon="11.2313719"><ele>374.0</ele><time>2026-05-01T16:12:54.621Z</time></trkpt><trkpt lat="43.5360776" lon="11.2314054"><ele>374.0</ele><time>2026-05-01T16:12:55.609Z</time></trkpt><trkpt lat="43.5361789" lon="11.2314535"><ele>374.0</ele><time>2026-05-01T16:12:56.617Z</time></trkpt><trkpt lat="43.5362988" lon="11.2315116"><ele>374.0</ele><time>2026-05-01T16:12:57.604Z</time></trkpt><trkpt lat="43.5364209" lon="11.2315986"><ele>374.0</ele><time>2026-05-01T16:12:58.608Z</time></trkpt><trkpt lat="43.5365389" lon="11.2317157"><ele>374.0</ele><time>2026-05-01T16:12:59.611Z</time></trkpt><trkpt lat="43.5366532" lon="11.2318533"><ele>374.0</ele><time>2026-05-01T16:13:00.619Z</time></trkpt><trkpt lat="43.5367501" lon="11.231988"><ele>374.0</ele><time>2026-05-01T16:13:01.601Z</time></trkpt><trkpt lat="43.5368476" lon="11.2321208"><ele>374.0</ele><time>2026-05-01T16:13:02.61Z</time></trkpt><trkpt lat="43.5369576" lon="11.2322452"><ele>374.0</ele><time>2026-05-01T16:13:03.606Z</time></trkpt><trkpt lat="43.5370658" lon="11.2323533"><ele>374.0</ele><time>2026-05-01T16:13:04.608Z</time></trkpt><trkpt lat="43.5371694" lon="11.2324413"><ele>374.0</ele><time>2026-05-01T16:13:05.614Z</time></trkpt><trkpt lat="43.53727" lon="11.2325059"><ele>374.6666666666667</ele><time>2026-05-01T16:13:06.606Z</time></trkpt><trkpt lat="43.5373472" lon="11.2325554"><ele>375.33333333333337</ele><time>2026-05-01T16:13:07.607Z</time></trkpt><trkpt lat="43.537415" lon="11.2325967"><ele>376.0</ele><time>2026-05-01T16:13:08.606Z</time></trkpt><trkpt lat="43.5374876" lon="11.2326635"><ele>376.6666666666667</ele><time>2026-05-01T16:13:10.609Z</time></trkpt><trkpt lat="43.5375372" lon="11.2327201"><ele>377.3333333333333</ele><time>2026-05-01T16:13:13.609Z</time></trkpt><trkpt lat="43.537623" lon="11.2327"><ele>378.0</ele><time>2026-05-01T16:13:15.606Z</time></trkpt><trkpt lat="43.5376983" lon="11.2326331"><ele>378.0</ele><time>2026-05-01T16:13:16.601Z</time></trkpt><trkpt lat="43.537772" lon="11.2325526"><ele>378.0</ele><time>2026-05-01T16:13:17.606Z</time></trkpt><trkpt lat="43.5378558" lon="11.2324614"><ele>378.0</ele><time>2026-05-01T16:13:18.602Z</time></trkpt><trkpt lat="43.537939" lon="11.2323667"><ele>378.0</ele><time>2026-05-01T16:13:19.608Z</time></trkpt><trkpt lat="43.538022" lon="11.2322775"><ele>378.0</ele><time>2026-05-01T16:13:20.603Z</time></trkpt><trkpt lat="43.5380973" lon="11.2322024"><ele>378.0</ele><time>2026-05-01T16:13:21.607Z</time></trkpt><trkpt lat="43.5381594" lon="11.2321441"><ele>378.0</ele><time>2026-05-01T16:13:22.605Z</time></trkpt><trkpt lat="43.5382182" lon="11.2320922"><ele>378.0</ele><time>2026-05-01T16:13:23.605Z</time></trkpt><trkpt lat="43.5382815" lon="11.2320534"><ele>378.0</ele><time>2026-05-01T16:13:24.615Z</time></trkpt><trkpt lat="43.5383411" lon="11.2320162"><ele>378.0</ele><time>2026-05-01T16:13:25.611Z</time></trkpt><trkpt lat="43.5384615" lon="11.2320222"><ele>378.0</ele><time>2026-05-01T16:13:27.609Z</time></trkpt><trkpt lat="43.5385169" lon="11.2321402"><ele>377.75</ele><time>2026-05-01T16:13:29.6Z</time></trkpt><trkpt lat="43.5384669" lon="11.2323315"><ele>377.5</ele><time>2026-05-01T16:13:31.606Z</time></trkpt><trkpt lat="43.5384389" lon="11.2324657"><ele>377.25</ele><time>2026-05-01T16:13:32.613Z</time></trkpt><trkpt lat="43.5384106" lon="11.2326376"><ele>377.0</ele><time>2026-05-01T16:13:33.624Z</time></trkpt><trkpt lat="43.5383913" lon="11.2328432"><ele>377.0</ele><time>2026-05-01T16:13:34.61Z</time></trkpt><trkpt lat="43.538383" lon="11.2330553"><ele>377.0</ele><time>2026-05-01T16:13:35.609Z</time></trkpt><trkpt lat="43.538379" lon="11.2332716"><ele>377.0</ele><time>2026-05-01T16:13:36.607Z</time></trkpt><trkpt lat="43.5383731" lon="11.2334866"><ele>377.33333333333337</ele><time>2026-05-01T16:13:37.61Z</time></trkpt><trkpt lat="43.5383627" lon="11.2336997"><ele>377.6666666666667</ele><time>2026-05-01T16:13:38.604Z</time></trkpt><trkpt lat="43.5383522" lon="11.2339049"><ele>378.0</ele><time>2026-05-01T16:13:39.615Z</time></trkpt><trkpt lat="43.5383454" lon="11.2341061"><ele>379.75</ele><time>2026-05-01T16:13:40.613Z</time></trkpt><trkpt lat="43.5383347" lon="11.2343055"><ele>381.5</ele><time>2026-05-01T16:13:41.601Z</time></trkpt><trkpt lat="43.5383263" lon="11.2344937"><ele>383.25</ele><time>2026-05-01T16:13:42.606Z</time></trkpt><trkpt lat="43.5383208" lon="11.2346646"><ele>385.0</ele><time>2026-05-01T16:13:43.608Z</time></trkpt><trkpt lat="43.5383133" lon="11.2348293"><ele>386.75</ele><time>2026-05-01T16:13:44.619Z</time></trkpt><trkpt lat="43.5383089" lon="11.234995"><ele>388.5</ele><time>2026-05-01T16:13:45.614Z</time></trkpt><trkpt lat="43.5383046" lon="11.2351584"><ele>390.25</ele><time>2026-05-01T16:13:46.614Z</time></trkpt><trkpt lat="43.5382967" lon="11.2353196"><ele>392.0</ele><time>2026-05-01T16:13:47.601Z</time></trkpt><trkpt lat="43.5382882" lon="11.2354761"><ele>392.0</ele><time>2026-05-01T16:13:48.615Z</time></trkpt><trkpt lat="43.5382675" lon="11.2355975"><ele>392.0</ele><time>2026-05-01T16:13:49.616Z</time></trkpt><trkpt lat="43.5382463" lon="11.2357182"><ele>392.0</ele><time>2026-05-01T16:13:50.618Z</time></trkpt><trkpt lat="43.5382139" lon="11.2358526"><ele>392.0</ele><time>2026-05-01T16:13:51.605Z</time></trkpt><trkpt lat="43.5381696" lon="11.235987"><ele>392.0</ele><time>2026-05-01T16:13:52.614Z</time></trkpt><trkpt lat="43.53811" lon="11.2361091"><ele>392.75</ele><time>2026-05-01T16:13:53.605Z</time></trkpt><trkpt lat="43.5380398" lon="11.2362208"><ele>393.5</ele><time>2026-05-01T16:13:54.605Z</time></trkpt><trkpt lat="43.5379489" lon="11.2363359"><ele>394.25</ele><time>2026-05-01T16:13:55.62Z</time></trkpt><trkpt lat="43.5378373" lon="11.2364529"><ele>395.0</ele><time>2026-05-01T16:13:56.609Z</time></trkpt><trkpt lat="43.5377175" lon="11.2365583"><ele>395.0</ele><time>2026-05-01T16:13:57.621Z</time></trkpt><trkpt lat="43.5375944" lon="11.2366613"><ele>395.0</ele><time>2026-05-01T16:13:58.603Z</time></trkpt><trkpt lat="43.5374791" lon="11.2367652"><ele>395.0</ele><time>2026-05-01T16:13:59.607Z</time></trkpt><trkpt lat="43.5373641" lon="11.2368676"><ele>395.0</ele><time>2026-05-01T16:14:00.606Z</time></trkpt><trkpt lat="43.5372512" lon="11.2369692"><ele>395.0</ele><time>2026-05-01T16:14:01.615Z</time></trkpt><trkpt lat="43.5371376" lon="11.2370779"><ele>395.0</ele><time>2026-05-01T16:14:02.607Z</time></trkpt><trkpt lat="43.5370239" lon="11.2371932"><ele>395.0</ele><time>2026-05-01T16:14:03.606Z</time></trkpt><trkpt lat="43.5369191" lon="11.2373129"><ele>395.0</ele><time>2026-05-01T16:14:04.598Z</time></trkpt><trkpt lat="43.536817" lon="11.2374509"><ele>396.66666666666663</ele><time>2026-05-01T16:14:05.605Z</time></trkpt><trkpt lat="43.5367228" lon="11.2376225"><ele>398.33333333333337</ele><time>2026-05-01T16:14:06.6Z</time></trkpt><trkpt lat="43.5366321" lon="11.2378057"><ele>400.0</ele><time>2026-05-01T16:14:07.604Z</time></trkpt><trkpt lat="43.5365623" lon="11.2380033"><ele>399.33333333333337</ele><time>2026-05-01T16:14:08.634Z</time></trkpt><trkpt lat="43.5364982" lon="11.2382049"><ele>398.66666666666663</ele><time>2026-05-01T16:14:09.616Z</time></trkpt><trkpt lat="43.536433" lon="11.2384199"><ele>398.0</ele><time>2026-05-01T16:14:10.598Z</time></trkpt><trkpt lat="43.5363719" lon="11.2386429"><ele>398.0</ele><time>2026-05-01T16:14:11.61Z</time></trkpt><trkpt lat="43.5363084" lon="11.2388473"><ele>398.0</ele><time>2026-05-01T16:14:12.615Z</time></trkpt><trkpt lat="43.5362496" lon="11.2390386"><ele>398.0</ele><time>2026-05-01T16:14:13.612Z</time></trkpt><trkpt lat="43.5361842" lon="11.2392297"><ele>399.0</ele><time>2026-05-01T16:14:14.613Z</time></trkpt><trkpt lat="43.5361056" lon="11.2394233"><ele>400.0</ele><time>2026-05-01T16:14:15.621Z</time></trkpt><trkpt lat="43.5360193" lon="11.2396061"><ele>401.0</ele><time>2026-05-01T16:14:16.606Z</time></trkpt><trkpt lat="43.535933" lon="11.2397854"><ele>399.3333333333333</ele><time>2026-05-01T16:14:17.606Z</time></trkpt><trkpt lat="43.5358408" lon="11.23996"><ele>397.66666666666663</ele><time>2026-05-01T16:14:18.63Z</time></trkpt><trkpt lat="43.5357389" lon="11.2401407"><ele>396.0</ele><time>2026-05-01T16:14:19.606Z</time></trkpt><trkpt lat="43.5356314" lon="11.2403192"><ele>396.0</ele><time>2026-05-01T16:14:20.602Z</time></trkpt><trkpt lat="43.5355181" lon="11.240479"><ele>396.0</ele><time>2026-05-01T16:14:21.609Z</time></trkpt><trkpt lat="43.5354034" lon="11.2406224"><ele>396.0</ele><time>2026-05-01T16:14:22.608Z</time></trkpt><trkpt lat="43.5352879" lon="11.2407427"><ele>394.5</ele><time>2026-05-01T16:14:23.621Z</time></trkpt><trkpt lat="43.5351777" lon="11.2408521"><ele>393.0</ele><time>2026-05-01T16:14:24.606Z</time></trkpt><trkpt lat="43.5350698" lon="11.2409598"><ele>391.5</ele><time>2026-05-01T16:14:25.606Z</time></trkpt><trkpt lat="43.5349671" lon="11.241054"><ele>390.0</ele><time>2026-05-01T16:14:26.601Z</time></trkpt><trkpt lat="43.5348581" lon="11.2411501"><ele>390.0</ele><time>2026-05-01T16:14:27.614Z</time></trkpt><trkpt lat="43.5347368" lon="11.2412462"><ele>390.0</ele><time>2026-05-01T16:14:28.603Z</time></trkpt><trkpt lat="43.5346179" lon="11.2413381"><ele>390.0</ele><time>2026-05-01T16:14:29.616Z</time></trkpt><trkpt lat="43.5344937" lon="11.241429"><ele>390.0</ele><time>2026-05-01T16:14:30.612Z</time></trkpt><trkpt lat="43.5343622" lon="11.2415088"><ele>389.5</ele><time>2026-05-01T16:14:31.602Z</time></trkpt><trkpt lat="43.5342262" lon="11.2415768"><ele>389.0</ele><time>2026-05-01T16:14:32.619Z</time></trkpt><trkpt lat="43.5340851" lon="11.2416454"><ele>388.5</ele><time>2026-05-01T16:14:33.603Z</time></trkpt><trkpt lat="43.5339448" lon="11.2417032"><ele>388.0</ele><time>2026-05-01T16:14:34.61Z</time></trkpt><trkpt lat="43.5338104" lon="11.2417546"><ele>387.6666666666667</ele><time>2026-05-01T16:14:35.614Z</time></trkpt><trkpt lat="43.5337029" lon="11.2417971"><ele>387.33333333333337</ele><time>2026-05-01T16:14:36.604Z</time></trkpt><trkpt lat="43.5336144" lon="11.241821"><ele>387.0</ele><time>2026-05-01T16:14:37.623Z</time></trkpt><trkpt lat="43.5335512" lon="11.241846"><ele>386.66666666666663</ele><time>2026-05-01T16:14:38.608Z</time></trkpt><trkpt lat="43.5334542" lon="11.2418881"><ele>386.3333333333333</ele><time>2026-05-01T16:14:40.596Z</time></trkpt><trkpt lat="43.5333817" lon="11.2419027"><ele>386.0</ele><time>2026-05-01T16:14:43.61Z</time></trkpt><trkpt lat="43.5332923" lon="11.2419712"><ele>386.0</ele><time>2026-05-01T16:15:45.601Z</time></trkpt><trkpt lat="43.5331766" lon="11.2420338"><ele>386.0</ele><time>2026-05-01T16:15:47.61Z</time></trkpt><trkpt lat="43.5330829" lon="11.2420439"><ele>386.0</ele><time>2026-05-01T16:15:48.596Z</time></trkpt><trkpt lat="43.5329644" lon="11.2420508"><ele>386.0</ele><time>2026-05-01T16:15:49.622Z</time></trkpt><trkpt lat="43.5328286" lon="11.2420606"><ele>386.5</ele><time>2026-05-01T16:15:50.6Z</time></trkpt><trkpt lat="43.5326941" lon="11.24207"><ele>387.0</ele><time>2026-05-01T16:15:51.616Z</time></trkpt><trkpt lat="43.5325741" lon="11.2420623"><ele>387.5</ele><time>2026-05-01T16:15:52.611Z</time></trkpt><trkpt lat="43.532472" lon="11.2420529"><ele>388.0</ele><time>2026-05-01T16:15:53.609Z</time></trkpt><trkpt lat="43.5323624" lon="11.2420475"><ele>388.0</ele><time>2026-05-01T16:15:54.609Z</time></trkpt><trkpt lat="43.532249" lon="11.2420489"><ele>388.0</ele><time>2026-05-01T16:15:55.609Z</time></trkpt><trkpt lat="43.5321347" lon="11.2420585"><ele>388.0</ele><time>2026-05-01T16:15:56.609Z</time></trkpt><trkpt lat="43.5320132" lon="11.2420501"><ele>388.0</ele><time>2026-05-01T16:15:57.611Z</time></trkpt><trkpt lat="43.5318887" lon="11.2419864"><ele>389.6666666666667</ele><time>2026-05-01T16:15:58.609Z</time></trkpt><trkpt lat="43.5317595" lon="11.2419083"><ele>391.33333333333337</ele><time>2026-05-01T16:15:59.61Z</time></trkpt><trkpt lat="43.5316245" lon="11.2418167"><ele>393.0</ele><time>2026-05-01T16:16:00.605Z</time></trkpt><trkpt lat="43.5314845" lon="11.2417142"><ele>393.0</ele><time>2026-05-01T16:16:01.604Z</time></trkpt><trkpt lat="43.5313444" lon="11.2416106"><ele>393.0</ele><time>2026-05-01T16:16:02.61Z</time></trkpt><trkpt lat="43.5312127" lon="11.2414955"><ele>393.0</ele><time>2026-05-01T16:16:03.609Z</time></trkpt><trkpt lat="43.5310763" lon="11.241382"><ele>394.25</ele><time>2026-05-01T16:16:04.617Z</time></trkpt><trkpt lat="43.53094" lon="11.2412785"><ele>395.5</ele><time>2026-05-01T16:16:05.606Z</time></trkpt><trkpt lat="43.5308144" lon="11.2411872"><ele>396.75</ele><time>2026-05-01T16:16:06.6Z</time></trkpt><trkpt lat="43.5306858" lon="11.2410989"><ele>398.0</ele><time>2026-05-01T16:16:07.611Z</time></trkpt><trkpt lat="43.5305533" lon="11.2410057"><ele>398.0</ele><time>2026-05-01T16:16:08.62Z</time></trkpt><trkpt lat="43.5304066" lon="11.2409197"><ele>398.0</ele><time>2026-05-01T16:16:09.621Z</time></trkpt><trkpt lat="43.5302469" lon="11.2408472"><ele>398.0</ele><time>2026-05-01T16:16:10.605Z</time></trkpt><trkpt lat="43.5300783" lon="11.240786"><ele>398.66666666666663</ele><time>2026-05-01T16:16:11.604Z</time></trkpt><trkpt lat="43.5299123" lon="11.2407305"><ele>399.33333333333337</ele><time>2026-05-01T16:16:12.614Z</time></trkpt><trkpt lat="43.5297489" lon="11.2406838"><ele>400.0</ele><time>2026-05-01T16:16:13.611Z</time></trkpt><trkpt lat="43.5295888" lon="11.2406335"><ele>397.33333333333337</ele><time>2026-05-01T16:16:14.618Z</time></trkpt><trkpt lat="43.5294226" lon="11.2405785"><ele>394.66666666666663</ele><time>2026-05-01T16:16:15.615Z</time></trkpt><trkpt lat="43.5292542" lon="11.2405129"><ele>392.0</ele><time>2026-05-01T16:16:16.606Z</time></trkpt><trkpt lat="43.5290885" lon="11.2404283"><ele>392.0</ele><time>2026-05-01T16:16:17.613Z</time></trkpt><trkpt lat="43.5289411" lon="11.2403237"><ele>392.0</ele><time>2026-05-01T16:16:18.615Z</time></trkpt><trkpt lat="43.5287784" lon="11.2402052"><ele>392.0</ele><time>2026-05-01T16:16:19.62Z</time></trkpt><trkpt lat="43.5286035" lon="11.2400784"><ele>394.0</ele><time>2026-05-01T16:16:20.613Z</time></trkpt><trkpt lat="43.5284284" lon="11.2399554"><ele>396.0</ele><time>2026-05-01T16:16:21.608Z</time></trkpt><trkpt lat="43.5282499" lon="11.2398259"><ele>398.0</ele><time>2026-05-01T16:16:22.608Z</time></trkpt><trkpt lat="43.5280619" lon="11.2396923"><ele>399.0</ele><time>2026-05-01T16:16:23.61Z</time></trkpt><trkpt lat="43.5278752" lon="11.2395583"><ele>400.0</ele><time>2026-05-01T16:16:24.606Z</time></trkpt><trkpt lat="43.5276897" lon="11.2394419"><ele>401.0</ele><time>2026-05-01T16:16:25.625Z</time></trkpt><trkpt lat="43.5275035" lon="11.2393379"><ele>401.0</ele><time>2026-05-01T16:16:26.624Z</time></trkpt><trkpt lat="43.5273146" lon="11.2392488"><ele>401.0</ele><time>2026-05-01T16:16:27.616Z</time></trkpt><trkpt lat="43.5271207" lon="11.2391756"><ele>401.0</ele><time>2026-05-01T16:16:28.615Z</time></trkpt><trkpt lat="43.5269271" lon="11.2391098"><ele>401.3333333333333</ele><time>2026-05-01T16:16:29.611Z</time></trkpt><trkpt lat="43.5267371" lon="11.2390464"><ele>401.66666666666663</ele><time>2026-05-01T16:16:30.598Z</time></trkpt><trkpt lat="43.526545" lon="11.2389785"><ele>402.0</ele><time>2026-05-01T16:16:31.611Z</time></trkpt><trkpt lat="43.5263516" lon="11.2389059"><ele>403.33333333333337</ele><time>2026-05-01T16:16:32.611Z</time></trkpt><trkpt lat="43.5261523" lon="11.2388346"><ele>404.6666666666667</ele><time>2026-05-01T16:16:33.604Z</time></trkpt><trkpt lat="43.5259507" lon="11.2387602"><ele>406.0</ele><time>2026-05-01T16:16:34.596Z</time></trkpt><trkpt lat="43.525753" lon="11.2386838"><ele>406.0</ele><time>2026-05-01T16:16:35.603Z</time></trkpt><trkpt lat="43.5255736" lon="11.2386085"><ele>406.0</ele><time>2026-05-01T16:16:36.608Z</time></trkpt><trkpt lat="43.5254182" lon="11.2385492"><ele>406.0</ele><time>2026-05-01T16:16:37.602Z</time></trkpt><trkpt lat="43.525285" lon="11.2384885"><ele>406.0</ele><time>2026-05-01T16:16:38.605Z</time></trkpt><trkpt lat="43.5251636" lon="11.2384699"><ele>406.0</ele><time>2026-05-01T16:16:39.6Z</time></trkpt><trkpt lat="43.5250406" lon="11.238485"><ele>406.0</ele><time>2026-05-01T16:16:40.608Z</time></trkpt><trkpt lat="43.5249047" lon="11.2385484"><ele>406.0</ele><time>2026-05-01T16:16:41.592Z</time></trkpt><trkpt lat="43.5247813" lon="11.2386615"><ele>406.0</ele><time>2026-05-01T16:16:42.597Z</time></trkpt><trkpt lat="43.5246605" lon="11.23881"><ele>406.0</ele><time>2026-05-01T16:16:43.61Z</time></trkpt><trkpt lat="43.5245375" lon="11.2389818"><ele>406.0</ele><time>2026-05-01T16:16:44.605Z</time></trkpt><trkpt lat="43.5244353" lon="11.2391743"><ele>407.33333333333337</ele><time>2026-05-01T16:16:45.606Z</time></trkpt><trkpt lat="43.5243565" lon="11.2393981"><ele>408.66666666666663</ele><time>2026-05-01T16:16:46.604Z</time></trkpt><trkpt lat="43.5242951" lon="11.2396263"><ele>410.0</ele><time>2026-05-01T16:16:47.602Z</time></trkpt><trkpt lat="43.5242223" lon="11.2398464"><ele>411.3333333333333</ele><time>2026-05-01T16:16:48.619Z</time></trkpt><trkpt lat="43.5241295" lon="11.2400538"><ele>412.66666666666663</ele><time>2026-05-01T16:16:49.615Z</time></trkpt><trkpt lat="43.5240266" lon="11.2402456"><ele>414.0</ele><time>2026-05-01T16:16:50.612Z</time></trkpt><trkpt lat="43.5239207" lon="11.2404019"><ele>414.0</ele><time>2026-05-01T16:16:51.615Z</time></trkpt><trkpt lat="43.5238138" lon="11.2405351"><ele>414.0</ele><time>2026-05-01T16:16:52.612Z</time></trkpt><trkpt lat="43.5236916" lon="11.2406548"><ele>414.0</ele><time>2026-05-01T16:16:53.601Z</time></trkpt><trkpt lat="43.5235529" lon="11.2407424"><ele>414.0</ele><time>2026-05-01T16:16:54.609Z</time></trkpt><trkpt lat="43.5233974" lon="11.2408099"><ele>415.0</ele><time>2026-05-01T16:16:55.609Z</time></trkpt><trkpt lat="43.5232317" lon="11.2408744"><ele>416.0</ele><time>2026-05-01T16:16:56.61Z</time></trkpt><trkpt lat="43.523055" lon="11.2409744"><ele>417.0</ele><time>2026-05-01T16:16:57.61Z</time></trkpt><trkpt lat="43.5228792" lon="11.2411233"><ele>417.0</ele><time>2026-05-01T16:16:58.62Z</time></trkpt><trkpt lat="43.52273" lon="11.2412951"><ele>417.0</ele><time>2026-05-01T16:16:59.612Z</time></trkpt><trkpt lat="43.522589" lon="11.2414928"><ele>417.0</ele><time>2026-05-01T16:17:00.621Z</time></trkpt><trkpt lat="43.5224621" lon="11.241718"><ele>417.66666666666663</ele><time>2026-05-01T16:17:01.602Z</time></trkpt><trkpt lat="43.5223484" lon="11.2419369"><ele>418.3333333333333</ele><time>2026-05-01T16:17:02.604Z</time></trkpt><trkpt lat="43.5222403" lon="11.2421613"><ele>419.0</ele><time>2026-05-01T16:17:03.612Z</time></trkpt><trkpt lat="43.5221615" lon="11.2424092"><ele>420.66666666666663</ele><time>2026-05-01T16:17:04.61Z</time></trkpt><trkpt lat="43.522097" lon="11.242667"><ele>422.33333333333337</ele><time>2026-05-01T16:17:05.602Z</time></trkpt><trkpt lat="43.5220339" lon="11.2429188"><ele>424.0</ele><time>2026-05-01T16:17:06.616Z</time></trkpt><trkpt lat="43.5219591" lon="11.2431761"><ele>425.6666666666667</ele><time>2026-05-01T16:17:07.618Z</time></trkpt><trkpt lat="43.5218892" lon="11.2434366"><ele>427.33333333333337</ele><time>2026-05-01T16:17:08.597Z</time></trkpt><trkpt lat="43.5218235" lon="11.2437003"><ele>429.0</ele><time>2026-05-01T16:17:09.615Z</time></trkpt><trkpt lat="43.5217601" lon="11.2439544"><ele>429.0</ele><time>2026-05-01T16:17:10.603Z</time></trkpt><trkpt lat="43.5217028" lon="11.2442208"><ele>429.0</ele><time>2026-05-01T16:17:11.601Z</time></trkpt><trkpt lat="43.5216446" lon="11.2444869"><ele>429.0</ele><time>2026-05-01T16:17:12.604Z</time></trkpt><trkpt lat="43.5215854" lon="11.2447413"><ele>429.33333333333337</ele><time>2026-05-01T16:17:13.61Z</time></trkpt><trkpt lat="43.5215168" lon="11.2449825"><ele>429.6666666666667</ele><time>2026-05-01T16:17:14.61Z</time></trkpt><trkpt lat="43.5214289" lon="11.2452073"><ele>430.0</ele><time>2026-05-01T16:17:15.608Z</time></trkpt><trkpt lat="43.5213221" lon="11.2454077"><ele>429.0</ele><time>2026-05-01T16:17:16.607Z</time></trkpt><trkpt lat="43.5211915" lon="11.245589"><ele>428.0</ele><time>2026-05-01T16:17:17.604Z</time></trkpt><trkpt lat="43.52104" lon="11.2457303"><ele>427.0</ele><time>2026-05-01T16:17:18.606Z</time></trkpt><trkpt lat="43.5208777" lon="11.2458391"><ele>427.0</ele><time>2026-05-01T16:17:19.61Z</time></trkpt><trkpt lat="43.5207066" lon="11.2459344"><ele>427.0</ele><time>2026-05-01T16:17:20.613Z</time></trkpt><trkpt lat="43.5205381" lon="11.2460318"><ele>427.0</ele><time>2026-05-01T16:17:21.61Z</time></trkpt><trkpt lat="43.5203839" lon="11.2461192"><ele>426.33333333333337</ele><time>2026-05-01T16:17:22.61Z</time></trkpt><trkpt lat="43.5202314" lon="11.2462117"><ele>425.66666666666663</ele><time>2026-05-01T16:17:23.631Z</time></trkpt><trkpt lat="43.5200779" lon="11.2463138"><ele>425.0</ele><time>2026-05-01T16:17:24.601Z</time></trkpt><trkpt lat="43.5199239" lon="11.2464557"><ele>425.3333333333333</ele><time>2026-05-01T16:17:25.603Z</time></trkpt><trkpt lat="43.5197763" lon="11.2466303"><ele>425.66666666666663</ele><time>2026-05-01T16:17:26.613Z</time></trkpt><trkpt lat="43.5196199" lon="11.2468176"><ele>426.0</ele><time>2026-05-01T16:17:27.606Z</time></trkpt><trkpt lat="43.5194645" lon="11.2470135"><ele>424.0</ele><time>2026-05-01T16:17:28.608Z</time></trkpt><trkpt lat="43.51931" lon="11.2471942"><ele>422.0</ele><time>2026-05-01T16:17:29.602Z</time></trkpt><trkpt lat="43.5191536" lon="11.2473583"><ele>420.0</ele><time>2026-05-01T16:17:30.611Z</time></trkpt><trkpt lat="43.519003" lon="11.2475133"><ele>419.0</ele><time>2026-05-01T16:17:31.606Z</time></trkpt><trkpt lat="43.5188424" lon="11.2476515"><ele>418.0</ele><time>2026-05-01T16:17:32.622Z</time></trkpt><trkpt lat="43.5186731" lon="11.2477814"><ele>417.0</ele><time>2026-05-01T16:17:33.619Z</time></trkpt><trkpt lat="43.5184983" lon="11.2478981"><ele>415.66666666666663</ele><time>2026-05-01T16:17:34.605Z</time></trkpt><trkpt lat="43.5183187" lon="11.2479987"><ele>414.3333333333333</ele><time>2026-05-01T16:17:35.61Z</time></trkpt><trkpt lat="43.5181382" lon="11.2480736"><ele>413.0</ele><time>2026-05-01T16:17:36.62Z</time></trkpt><trkpt lat="43.5179658" lon="11.2481162"><ele>415.0</ele><time>2026-05-01T16:17:37.604Z</time></trkpt><trkpt lat="43.5178094" lon="11.2481435"><ele>417.0</ele><time>2026-05-01T16:17:38.618Z</time></trkpt><trkpt lat="43.5176515" lon="11.2481574"><ele>419.0</ele><time>2026-05-01T16:17:39.616Z</time></trkpt><trkpt lat="43.5174998" lon="11.2481593"><ele>419.0</ele><time>2026-05-01T16:17:40.616Z</time></trkpt><trkpt lat="43.5173525" lon="11.2481474"><ele>419.0</ele><time>2026-05-01T16:17:41.619Z</time></trkpt><trkpt lat="43.5172164" lon="11.2481153"><ele>419.0</ele><time>2026-05-01T16:17:42.621Z</time></trkpt><trkpt lat="43.5170929" lon="11.2480776"><ele>419.0</ele><time>2026-05-01T16:17:43.61Z</time></trkpt><trkpt lat="43.5169889" lon="11.2480308"><ele>418.79999999999995</ele><time>2026-05-01T16:17:44.612Z</time></trkpt><trkpt lat="43.5169098" lon="11.2479975"><ele>418.59999999999997</ele><time>2026-05-01T16:17:45.609Z</time></trkpt><trkpt lat="43.5168052" lon="11.2479674"><ele>418.4</ele><time>2026-05-01T16:17:47.609Z</time></trkpt><trkpt lat="43.5167054" lon="11.2479427"><ele>418.2</ele><time>2026-05-01T16:17:49.6Z</time></trkpt><trkpt lat="43.516632" lon="11.2479146"><ele>418.0</ele><time>2026-05-01T16:17:50.608Z</time></trkpt><trkpt lat="43.5165487" lon="11.2478723"><ele>418.0</ele><time>2026-05-01T16:17:51.607Z</time></trkpt><trkpt lat="43.5164652" lon="11.2478144"><ele>418.0</ele><time>2026-05-01T16:17:52.609Z</time></trkpt><trkpt lat="43.5163755" lon="11.2477291"><ele>418.0</ele><time>2026-05-01T16:17:53.619Z</time></trkpt><trkpt lat="43.5162778" lon="11.2476307"><ele>418.0</ele><time>2026-05-01T16:17:54.601Z</time></trkpt><trkpt lat="43.5161702" lon="11.2475138"><ele>420.0</ele><time>2026-05-01T16:17:55.615Z</time></trkpt><trkpt lat="43.5160504" lon="11.2473874"><ele>422.0</ele><time>2026-05-01T16:17:56.608Z</time></trkpt><trkpt lat="43.5159016" lon="11.2472667"><ele>424.0</ele><time>2026-05-01T16:17:57.609Z</time></trkpt><trkpt lat="43.5157259" lon="11.2471547"><ele>424.6666666666667</ele><time>2026-05-01T16:17:58.614Z</time></trkpt><trkpt lat="43.5155352" lon="11.2470552"><ele>425.33333333333337</ele><time>2026-05-01T16:17:59.604Z</time></trkpt><trkpt lat="43.5153572" lon="11.246977"><ele>426.0</ele><time>2026-05-01T16:18:00.611Z</time></trkpt><trkpt lat="43.5151877" lon="11.2469218"><ele>428.66666666666663</ele><time>2026-05-01T16:18:01.616Z</time></trkpt><trkpt lat="43.5150499" lon="11.2469123"><ele>431.3333333333333</ele><time>2026-05-01T16:18:02.606Z</time></trkpt><trkpt lat="43.5148806" lon="11.2469145"><ele>434.0</ele><time>2026-05-01T16:18:03.61Z</time></trkpt><trkpt lat="43.5147021" lon="11.2469101"><ele>439.0</ele><time>2026-05-01T16:18:04.612Z</time></trkpt><trkpt lat="43.51455" lon="11.2468782"><ele>444.0</ele><time>2026-05-01T16:18:05.604Z</time></trkpt><trkpt lat="43.5144092" lon="11.2467928"><ele>449.0</ele><time>2026-05-01T16:18:06.602Z</time></trkpt><trkpt lat="43.5142814" lon="11.2466783"><ele>449.0</ele><time>2026-05-01T16:18:07.61Z</time></trkpt><trkpt lat="43.51415" lon="11.246556"><ele>449.0</ele><time>2026-05-01T16:18:08.605Z</time></trkpt><trkpt lat="43.5140226" lon="11.246437"><ele>449.0</ele><time>2026-05-01T16:18:09.62Z</time></trkpt><trkpt lat="43.5139197" lon="11.2463074"><ele>448.5</ele><time>2026-05-01T16:18:10.604Z</time></trkpt><trkpt lat="43.5138377" lon="11.2461779"><ele>448.0</ele><time>2026-05-01T16:18:11.602Z</time></trkpt><trkpt lat="43.5137929" lon="11.2460211"><ele>447.5</ele><time>2026-05-01T16:18:12.597Z</time></trkpt><trkpt lat="43.5137837" lon="11.2458707"><ele>447.0</ele><time>2026-05-01T16:18:13.612Z</time></trkpt><trkpt lat="43.5138103" lon="11.2457179"><ele>447.8</ele><time>2026-05-01T16:18:14.608Z</time></trkpt><trkpt lat="43.5138473" lon="11.2455697"><ele>448.6</ele><time>2026-05-01T16:18:15.614Z</time></trkpt><trkpt lat="43.5138819" lon="11.2454277"><ele>449.40000000000003</ele><time>2026-05-01T16:18:16.613Z</time></trkpt><trkpt lat="43.5139081" lon="11.2452884"><ele>450.20000000000005</ele><time>2026-05-01T16:18:17.607Z</time></trkpt><trkpt lat="43.5139148" lon="11.24516"><ele>451.0</ele><time>2026-05-01T16:18:18.609Z</time></trkpt><trkpt lat="43.5138952" lon="11.2450251"><ele>451.0</ele><time>2026-05-01T16:18:19.604Z</time></trkpt><trkpt lat="43.5138402" lon="11.244916"><ele>451.0</ele><time>2026-05-01T16:18:20.609Z</time></trkpt><trkpt lat="43.5137441" lon="11.2448125"><ele>451.0</ele><time>2026-05-01T16:18:21.614Z</time></trkpt><trkpt lat="43.5136304" lon="11.2447223"><ele>451.0</ele><time>2026-05-01T16:18:22.611Z</time></trkpt><trkpt lat="43.5135022" lon="11.2446353"><ele>454.0</ele><time>2026-05-01T16:18:23.603Z</time></trkpt><trkpt lat="43.513371" lon="11.2445302"><ele>457.0</ele><time>2026-05-01T16:18:24.611Z</time></trkpt><trkpt lat="43.5132483" lon="11.2444231"><ele>460.0</ele><time>2026-05-01T16:18:25.609Z</time></trkpt><trkpt lat="43.513144" lon="11.2443192"><ele>463.0</ele><time>2026-05-01T16:18:26.614Z</time></trkpt><trkpt lat="43.5130544" lon="11.244223"><ele>463.0</ele><time>2026-05-01T16:18:27.599Z</time></trkpt><trkpt lat="43.5129688" lon="11.2441364"><ele>462.99999999999994</ele><time>2026-05-01T16:18:28.604Z</time></trkpt><trkpt lat="43.5128804" lon="11.2440486"><ele>462.99999999999994</ele><time>2026-05-01T16:18:29.607Z</time></trkpt><trkpt lat="43.5127929" lon="11.2439689"><ele>463.0</ele><time>2026-05-01T16:18:30.611Z</time></trkpt><trkpt lat="43.5127084" lon="11.2438869"><ele>463.0</ele><time>2026-05-01T16:18:31.599Z</time></trkpt><trkpt lat="43.5126266" lon="11.2438131"><ele>464.75</ele><time>2026-05-01T16:18:32.6Z</time></trkpt><trkpt lat="43.512539" lon="11.2437727"><ele>466.5</ele><time>2026-05-01T16:18:33.603Z</time></trkpt><trkpt lat="43.5124359" lon="11.2437806"><ele>468.25</ele><time>2026-05-01T16:18:34.607Z</time></trkpt><trkpt lat="43.5123187" lon="11.2438238"><ele>470.0</ele><time>2026-05-01T16:18:35.61Z</time></trkpt><trkpt lat="43.5121913" lon="11.243894"><ele>474.66666666666663</ele><time>2026-05-01T16:18:36.607Z</time></trkpt><trkpt lat="43.5120386" lon="11.2439675"><ele>479.33333333333337</ele><time>2026-05-01T16:18:37.607Z</time></trkpt><trkpt lat="43.5118634" lon="11.2440056"><ele>484.0</ele><time>2026-05-01T16:18:38.605Z</time></trkpt><trkpt lat="43.5116786" lon="11.2440619"><ele>484.0</ele><time>2026-05-01T16:18:39.604Z</time></trkpt><trkpt lat="43.5114765" lon="11.244137"><ele>484.0</ele><time>2026-05-01T16:18:40.613Z</time></trkpt><trkpt lat="43.5112608" lon="11.2442126"><ele>484.0</ele><time>2026-05-01T16:18:41.606Z</time></trkpt><trkpt lat="43.5110725" lon="11.2442588"><ele>484.6666666666667</ele><time>2026-05-01T16:18:42.627Z</time></trkpt><trkpt lat="43.5108938" lon="11.244283"><ele>485.33333333333337</ele><time>2026-05-01T16:18:43.604Z</time></trkpt><trkpt lat="43.5107358" lon="11.2442754"><ele>486.0</ele><time>2026-05-01T16:18:44.599Z</time></trkpt><trkpt lat="43.510556" lon="11.2442157"><ele>488.0</ele><time>2026-05-01T16:18:45.606Z</time></trkpt><trkpt lat="43.5103735" lon="11.2441313"><ele>490.0</ele><time>2026-05-01T16:18:46.593Z</time></trkpt><trkpt lat="43.5102181" lon="11.244022"><ele>492.0</ele><time>2026-05-01T16:18:47.613Z</time></trkpt><trkpt lat="43.5100942" lon="11.2438691"><ele>492.0</ele><time>2026-05-01T16:18:48.605Z</time></trkpt><trkpt lat="43.5099883" lon="11.2436643"><ele>492.0</ele><time>2026-05-01T16:18:49.608Z</time></trkpt><trkpt lat="43.5099008" lon="11.2434483"><ele>492.0</ele><time>2026-05-01T16:18:50.603Z</time></trkpt><trkpt lat="43.5098015" lon="11.243261"><ele>489.33333333333337</ele><time>2026-05-01T16:18:51.61Z</time></trkpt><trkpt lat="43.5096863" lon="11.243122"><ele>486.6666666666667</ele><time>2026-05-01T16:18:52.605Z</time></trkpt><trkpt lat="43.5095421" lon="11.2430282"><ele>484.0</ele><time>2026-05-01T16:18:53.603Z</time></trkpt><trkpt lat="43.5093893" lon="11.2429469"><ele>488.0</ele><time>2026-05-01T16:18:54.6Z</time></trkpt><trkpt lat="43.5092412" lon="11.2428736"><ele>492.0</ele><time>2026-05-01T16:18:55.605Z</time></trkpt><trkpt lat="43.5091043" lon="11.242831"><ele>496.0</ele><time>2026-05-01T16:18:56.607Z</time></trkpt><trkpt lat="43.5089623" lon="11.2428471"><ele>500.0</ele><time>2026-05-01T16:18:57.603Z</time></trkpt><trkpt lat="43.5088301" lon="11.2429077"><ele>500.0</ele><time>2026-05-01T16:18:58.602Z</time></trkpt><trkpt lat="43.5086832" lon="11.2430079"><ele>500.0</ele><time>2026-05-01T16:18:59.607Z</time></trkpt><trkpt lat="43.5085321" lon="11.2431268"><ele>500.0</ele><time>2026-05-01T16:19:00.608Z</time></trkpt><trkpt lat="43.5083831" lon="11.2431942"><ele>500.0</ele><time>2026-05-01T16:19:01.61Z</time></trkpt><trkpt lat="43.5082274" lon="11.2432112"><ele>500.0</ele><time>2026-05-01T16:19:02.605Z</time></trkpt><trkpt lat="43.5080466" lon="11.2432166"><ele>500.0</ele><time>2026-05-01T16:19:03.611Z</time></trkpt><trkpt lat="43.5078617" lon="11.2432113"><ele>500.0</ele><time>2026-05-01T16:19:04.612Z</time></trkpt><trkpt lat="43.5076621" lon="11.2432086"><ele>500.0</ele><time>2026-05-01T16:19:05.598Z</time></trkpt><trkpt lat="43.507464" lon="11.2432337"><ele>500.0</ele><time>2026-05-01T16:19:06.601Z</time></trkpt><trkpt lat="43.5072685" lon="11.2432941"><ele>502.66666666666663</ele><time>2026-05-01T16:19:07.607Z</time></trkpt><trkpt lat="43.507075" lon="11.2433827"><ele>505.33333333333337</ele><time>2026-05-01T16:19:08.596Z</time></trkpt><trkpt lat="43.5069008" lon="11.2434909"><ele>508.0</ele><time>2026-05-01T16:19:09.599Z</time></trkpt><trkpt lat="43.5067489" lon="11.2435993"><ele>508.0</ele><time>2026-05-01T16:19:10.61Z</time></trkpt><trkpt lat="43.506612" lon="11.2436795"><ele>508.0</ele><time>2026-05-01T16:19:11.605Z</time></trkpt><trkpt lat="43.506477" lon="11.2436979"><ele>508.0</ele><time>2026-05-01T16:19:12.605Z</time></trkpt><trkpt lat="43.5063376" lon="11.2436419"><ele>508.0</ele><time>2026-05-01T16:19:13.604Z</time></trkpt><trkpt lat="43.5061956" lon="11.2435623"><ele>511.33333333333337</ele><time>2026-05-01T16:19:14.611Z</time></trkpt><trkpt lat="43.5060377" lon="11.2434698"><ele>514.6666666666666</ele><time>2026-05-01T16:19:15.608Z</time></trkpt><trkpt lat="43.5058809" lon="11.2433947"><ele>518.0</ele><time>2026-05-01T16:19:16.608Z</time></trkpt><trkpt lat="43.5057184" lon="11.2433408"><ele>518.0</ele><time>2026-05-01T16:19:17.608Z</time></trkpt><trkpt lat="43.5055432" lon="11.2433112"><ele>518.0</ele><time>2026-05-01T16:19:18.611Z</time></trkpt><trkpt lat="43.5053638" lon="11.2433538"><ele>518.0</ele><time>2026-05-01T16:19:19.601Z</time></trkpt><trkpt lat="43.5051863" lon="11.2434494"><ele>519.6666666666666</ele><time>2026-05-01T16:19:20.599Z</time></trkpt><trkpt lat="43.5050148" lon="11.2435409"><ele>521.3333333333334</ele><time>2026-05-01T16:19:21.605Z</time></trkpt><trkpt lat="43.504853" lon="11.2436559"><ele>523.0</ele><time>2026-05-01T16:19:22.607Z</time></trkpt><trkpt lat="43.5047041" lon="11.2437944"><ele>523.6666666666667</ele><time>2026-05-01T16:19:23.605Z</time></trkpt><trkpt lat="43.5045512" lon="11.2439615"><ele>524.3333333333334</ele><time>2026-05-01T16:19:24.61Z</time></trkpt><trkpt lat="43.5044032" lon="11.2441252"><ele>525.0</ele><time>2026-05-01T16:19:25.612Z</time></trkpt><trkpt lat="43.504246" lon="11.2442864"><ele>525.0</ele><time>2026-05-01T16:19:26.605Z</time></trkpt><trkpt lat="43.5040886" lon="11.2444576"><ele>525.0</ele><time>2026-05-01T16:19:27.606Z</time></trkpt><trkpt lat="43.5039276" lon="11.2446456"><ele>525.0</ele><time>2026-05-01T16:19:28.601Z</time></trkpt><trkpt lat="43.5037852" lon="11.2448606"><ele>527.0</ele><time>2026-05-01T16:19:29.601Z</time></trkpt><trkpt lat="43.503674" lon="11.245078"><ele>529.0</ele><time>2026-05-01T16:19:30.606Z</time></trkpt><trkpt lat="43.5035699" lon="11.2452848"><ele>531.0</ele><time>2026-05-01T16:19:31.602Z</time></trkpt><trkpt lat="43.503472" lon="11.2454797"><ele>530.0</ele><time>2026-05-01T16:19:32.61Z</time></trkpt><trkpt lat="43.503365" lon="11.2456387"><ele>529.0</ele><time>2026-05-01T16:19:33.602Z</time></trkpt><trkpt lat="43.5032469" lon="11.2457849"><ele>528.0</ele><time>2026-05-01T16:19:34.607Z</time></trkpt><trkpt lat="43.5031122" lon="11.2459116"><ele>528.0</ele><time>2026-05-01T16:19:35.615Z</time></trkpt><trkpt lat="43.5029682" lon="11.2460532"><ele>528.0</ele><time>2026-05-01T16:19:36.606Z</time></trkpt><trkpt lat="43.5028323" lon="11.2462141"><ele>528.0</ele><time>2026-05-01T16:19:37.611Z</time></trkpt><trkpt lat="43.5027058" lon="11.2463988"><ele>526.6666666666666</ele><time>2026-05-01T16:19:38.61Z</time></trkpt><trkpt lat="43.5026188" lon="11.2466061"><ele>525.3333333333333</ele><time>2026-05-01T16:19:39.602Z</time></trkpt><trkpt lat="43.5025453" lon="11.2468355"><ele>524.0</ele><time>2026-05-01T16:19:40.604Z</time></trkpt><trkpt lat="43.5024905" lon="11.2470813"><ele>525.3333333333333</ele><time>2026-05-01T16:19:41.602Z</time></trkpt><trkpt lat="43.5024425" lon="11.2473234"><ele>526.6666666666666</ele><time>2026-05-01T16:19:42.601Z</time></trkpt><trkpt lat="43.5023881" lon="11.2475634"><ele>528.0</ele><time>2026-05-01T16:19:43.591Z</time></trkpt><trkpt lat="43.5023427" lon="11.2477943"><ele>528.0</ele><time>2026-05-01T16:19:44.606Z</time></trkpt><trkpt lat="43.5022894" lon="11.2480307"><ele>528.0</ele><time>2026-05-01T16:19:45.605Z</time></trkpt><trkpt lat="43.502245" lon="11.2482655"><ele>528.0</ele><time>2026-05-01T16:19:46.607Z</time></trkpt><trkpt lat="43.5022206" lon="11.2485136"><ele>528.3333333333334</ele><time>2026-05-01T16:19:47.605Z</time></trkpt><trkpt lat="43.5022135" lon="11.2487664"><ele>528.6666666666667</ele><time>2026-05-01T16:19:48.606Z</time></trkpt><trkpt lat="43.5022073" lon="11.2490096"><ele>529.0</ele><time>2026-05-01T16:19:49.606Z</time></trkpt><trkpt lat="43.5021917" lon="11.2492051"><ele>530.25</ele><time>2026-05-01T16:19:50.611Z</time></trkpt><trkpt lat="43.5021405" lon="11.2493683"><ele>531.5</ele><time>2026-05-01T16:19:51.606Z</time></trkpt><trkpt lat="43.5020649" lon="11.2495047"><ele>532.75</ele><time>2026-05-01T16:19:52.606Z</time></trkpt><trkpt lat="43.5019538" lon="11.2496058"><ele>534.0</ele><time>2026-05-01T16:19:53.616Z</time></trkpt><trkpt lat="43.5018234" lon="11.2496826"><ele>539.6666666666666</ele><time>2026-05-01T16:19:54.608Z</time></trkpt><trkpt lat="43.5016652" lon="11.2497017"><ele>545.3333333333333</ele><time>2026-05-01T16:19:55.605Z</time></trkpt><trkpt lat="43.5014932" lon="11.2497093"><ele>551.0</ele><time>2026-05-01T16:19:56.602Z</time></trkpt><trkpt lat="43.5013041" lon="11.2497254"><ele>549.3333333333333</ele><time>2026-05-01T16:19:57.6Z</time></trkpt><trkpt lat="43.5010952" lon="11.2497417"><ele>547.6666666666666</ele><time>2026-05-01T16:19:58.614Z</time></trkpt><trkpt lat="43.5008815" lon="11.2497661"><ele>546.0</ele><time>2026-05-01T16:19:59.608Z</time></trkpt><trkpt lat="43.5006507" lon="11.2498037"><ele>548.5</ele><time>2026-05-01T16:20:00.603Z</time></trkpt><trkpt lat="43.5004059" lon="11.2498381"><ele>551.0</ele><time>2026-05-01T16:20:01.602Z</time></trkpt><trkpt lat="43.5001609" lon="11.2498678"><ele>551.0</ele><time>2026-05-01T16:20:02.607Z</time></trkpt><trkpt lat="43.4999117" lon="11.2498955"><ele>551.0</ele><time>2026-05-01T16:20:03.606Z</time></trkpt><trkpt lat="43.499677" lon="11.2499188"><ele>551.3333333333333</ele><time>2026-05-01T16:20:04.603Z</time></trkpt><trkpt lat="43.4994547" lon="11.2499375"><ele>551.6666666666666</ele><time>2026-05-01T16:20:05.604Z</time></trkpt><trkpt lat="43.4992476" lon="11.2499549"><ele>552.0</ele><time>2026-05-01T16:20:06.614Z</time></trkpt><trkpt lat="43.4990453" lon="11.2499769"><ele>552.0</ele><time>2026-05-01T16:20:07.606Z</time></trkpt><trkpt lat="43.4988468" lon="11.2500159"><ele>552.0</ele><time>2026-05-01T16:20:08.614Z</time></trkpt><trkpt lat="43.4986489" lon="11.2500769"><ele>552.0</ele><time>2026-05-01T16:20:09.609Z</time></trkpt><trkpt lat="43.4984637" lon="11.2501628"><ele>553.0</ele><time>2026-05-01T16:20:10.618Z</time></trkpt><trkpt lat="43.498304" lon="11.2502888"><ele>554.0</ele><time>2026-05-01T16:20:11.61Z</time></trkpt><trkpt lat="43.498168" lon="11.2504293"><ele>555.0</ele><time>2026-05-01T16:20:12.612Z</time></trkpt><trkpt lat="43.4980482" lon="11.2505857"><ele>554.3333333333334</ele><time>2026-05-01T16:20:13.595Z</time></trkpt><trkpt lat="43.4979315" lon="11.2507426"><ele>553.6666666666667</ele><time>2026-05-01T16:20:14.603Z</time></trkpt><trkpt lat="43.4978049" lon="11.2508632"><ele>553.0</ele><time>2026-05-01T16:20:15.621Z</time></trkpt><trkpt lat="43.4976617" lon="11.2509613"><ele>557.3333333333334</ele><time>2026-05-01T16:20:16.601Z</time></trkpt><trkpt lat="43.4975084" lon="11.2510072"><ele>561.6666666666666</ele><time>2026-05-01T16:20:17.599Z</time></trkpt><trkpt lat="43.4973416" lon="11.251014"><ele>566.0</ele><time>2026-05-01T16:20:18.601Z</time></trkpt><trkpt lat="43.4971835" lon="11.2509746"><ele>565.0</ele><time>2026-05-01T16:20:19.607Z</time></trkpt><trkpt lat="43.4970246" lon="11.2509027"><ele>564.0</ele><time>2026-05-01T16:20:20.604Z</time></trkpt><trkpt lat="43.4968532" lon="11.2508147"><ele>563.0</ele><time>2026-05-01T16:20:21.616Z</time></trkpt><trkpt lat="43.4966953" lon="11.2507255"><ele>563.0</ele><time>2026-05-01T16:20:22.614Z</time></trkpt><trkpt lat="43.496556" lon="11.2506353"><ele>563.0</ele><time>2026-05-01T16:20:23.611Z</time></trkpt><trkpt lat="43.4964221" lon="11.250558"><ele>563.0</ele><time>2026-05-01T16:20:24.614Z</time></trkpt><trkpt lat="43.4962935" lon="11.2505043"><ele>563.0</ele><time>2026-05-01T16:20:25.609Z</time></trkpt><trkpt lat="43.4961666" lon="11.2504834"><ele>563.25</ele><time>2026-05-01T16:20:26.613Z</time></trkpt><trkpt lat="43.4960438" lon="11.2505143"><ele>563.5</ele><time>2026-05-01T16:20:27.612Z</time></trkpt><trkpt lat="43.495936" lon="11.2505912"><ele>563.75</ele><time>2026-05-01T16:20:28.607Z</time></trkpt><trkpt lat="43.4958427" lon="11.2507104"><ele>564.0</ele><time>2026-05-01T16:20:29.603Z</time></trkpt><trkpt lat="43.4957545" lon="11.2508488"><ele>564.0</ele><time>2026-05-01T16:20:30.602Z</time></trkpt><trkpt lat="43.4956645" lon="11.2509788"><ele>564.0</ele><time>2026-05-01T16:20:31.62Z</time></trkpt><trkpt lat="43.4955957" lon="11.2511183"><ele>564.0</ele><time>2026-05-01T16:20:32.607Z</time></trkpt><trkpt lat="43.4955358" lon="11.2512652"><ele>564.0</ele><time>2026-05-01T16:20:33.622Z</time></trkpt><trkpt lat="43.4954888" lon="11.251419"><ele>563.75</ele><time>2026-05-01T16:20:34.616Z</time></trkpt><trkpt lat="43.4954523" lon="11.2515822"><ele>563.5</ele><time>2026-05-01T16:20:35.609Z</time></trkpt><trkpt lat="43.495418" lon="11.2517636"><ele>563.25</ele><time>2026-05-01T16:20:36.608Z</time></trkpt><trkpt lat="43.4953881" lon="11.2519392"><ele>563.0</ele><time>2026-05-01T16:20:37.602Z</time></trkpt><trkpt lat="43.4953566" lon="11.2521117"><ele>563.0</ele><time>2026-05-01T16:20:38.608Z</time></trkpt><trkpt lat="43.4953141" lon="11.2522821"><ele>563.0</ele><time>2026-05-01T16:20:39.613Z</time></trkpt><trkpt lat="43.4952601" lon="11.2524447"><ele>563.0</ele><time>2026-05-01T16:20:40.603Z</time></trkpt><trkpt lat="43.4951999" lon="11.2525977"><ele>563.0</ele><time>2026-05-01T16:20:41.604Z</time></trkpt><trkpt lat="43.4951235" lon="11.2527346"><ele>563.75</ele><time>2026-05-01T16:20:42.612Z</time></trkpt><trkpt lat="43.4950401" lon="11.2528577"><ele>564.5</ele><time>2026-05-01T16:20:43.601Z</time></trkpt><trkpt lat="43.4949547" lon="11.2529692"><ele>565.25</ele><time>2026-05-01T16:20:44.611Z</time></trkpt><trkpt lat="43.4948681" lon="11.2530766"><ele>566.0</ele><time>2026-05-01T16:20:45.62Z</time></trkpt><trkpt lat="43.4947935" lon="11.2531992"><ele>567.75</ele><time>2026-05-01T16:20:46.624Z</time></trkpt><trkpt lat="43.4947463" lon="11.2533396"><ele>569.5</ele><time>2026-05-01T16:20:47.608Z</time></trkpt><trkpt lat="43.4947151" lon="11.2535145"><ele>571.25</ele><time>2026-05-01T16:20:48.614Z</time></trkpt><trkpt lat="43.4946956" lon="11.2537076"><ele>573.0</ele><time>2026-05-01T16:20:49.603Z</time></trkpt><trkpt lat="43.4946832" lon="11.2539066"><ele>574.6666666666666</ele><time>2026-05-01T16:20:50.614Z</time></trkpt><trkpt lat="43.4946735" lon="11.2541186"><ele>576.3333333333333</ele><time>2026-05-01T16:20:51.605Z</time></trkpt><trkpt lat="43.4946711" lon="11.2543417"><ele>578.0</ele><time>2026-05-01T16:20:52.617Z</time></trkpt><trkpt lat="43.4946635" lon="11.25457"><ele>578.0</ele><time>2026-05-01T16:20:53.61Z</time></trkpt><trkpt lat="43.494646" lon="11.2547817"><ele>578.0</ele><time>2026-05-01T16:20:54.63Z</time></trkpt><trkpt lat="43.4946119" lon="11.2549856"><ele>578.0</ele><time>2026-05-01T16:20:55.598Z</time></trkpt><trkpt lat="43.4945503" lon="11.2551778"><ele>576.5</ele><time>2026-05-01T16:20:56.6Z</time></trkpt><trkpt lat="43.4944813" lon="11.2553493"><ele>575.0</ele><time>2026-05-01T16:20:57.602Z</time></trkpt><trkpt lat="43.494421" lon="11.2554918"><ele>573.5</ele><time>2026-05-01T16:20:58.614Z</time></trkpt><trkpt lat="43.4943633" lon="11.2556275"><ele>572.0</ele><time>2026-05-01T16:20:59.604Z</time></trkpt><trkpt lat="43.4942797" lon="11.2557363"><ele>575.0</ele><time>2026-05-01T16:21:00.596Z</time></trkpt><trkpt lat="43.4941742" lon="11.2558103"><ele>578.0</ele><time>2026-05-01T16:21:01.606Z</time></trkpt><trkpt lat="43.4940561" lon="11.2558295"><ele>581.0</ele><time>2026-05-01T16:21:02.61Z</time></trkpt><trkpt lat="43.4939287" lon="11.2558072"><ele>584.0</ele><time>2026-05-01T16:21:03.601Z</time></trkpt><trkpt lat="43.4937978" lon="11.2557559"><ele>584.0</ele><time>2026-05-01T16:21:04.615Z</time></trkpt><trkpt lat="43.493684" lon="11.2557035"><ele>584.0</ele><time>2026-05-01T16:21:05.609Z</time></trkpt><trkpt lat="43.4935744" lon="11.2556698"><ele>584.0</ele><time>2026-05-01T16:21:06.61Z</time></trkpt><trkpt lat="43.4934725" lon="11.2556747"><ele>584.0</ele><time>2026-05-01T16:21:07.599Z</time></trkpt><trkpt lat="43.4933789" lon="11.2557279"><ele>584.0</ele><time>2026-05-01T16:21:08.607Z</time></trkpt><trkpt lat="43.4933009" lon="11.2558606"><ele>584.0</ele><time>2026-05-01T16:21:09.613Z</time></trkpt><trkpt lat="43.493239" lon="11.2560218"><ele>584.0</ele><time>2026-05-01T16:21:10.596Z</time></trkpt><trkpt lat="43.4931906" lon="11.2561871"><ele>584.0</ele><time>2026-05-01T16:21:11.604Z</time></trkpt><trkpt lat="43.4931618" lon="11.2563754"><ele>584.0</ele><time>2026-05-01T16:21:12.6Z</time></trkpt><trkpt lat="43.4931329" lon="11.2565817"><ele>585.0</ele><time>2026-05-01T16:21:13.604Z</time></trkpt><trkpt lat="43.4931037" lon="11.2567898"><ele>586.0</ele><time>2026-05-01T16:21:14.604Z</time></trkpt><trkpt lat="43.4930732" lon="11.2569882"><ele>587.0</ele><time>2026-05-01T16:21:15.625Z</time></trkpt><trkpt lat="43.4930274" lon="11.2571575"><ele>588.0</ele><time>2026-05-01T16:21:16.612Z</time></trkpt><trkpt lat="43.4929689" lon="11.2572918"><ele>588.25</ele><time>2026-05-01T16:21:17.601Z</time></trkpt><trkpt lat="43.492895" lon="11.2574131"><ele>588.5</ele><time>2026-05-01T16:21:18.615Z</time></trkpt><trkpt lat="43.4928005" lon="11.2575207"><ele>588.75</ele><time>2026-05-01T16:21:19.597Z</time></trkpt><trkpt lat="43.4926866" lon="11.257604"><ele>589.0</ele><time>2026-05-01T16:21:20.611Z</time></trkpt><trkpt lat="43.4925723" lon="11.2576844"><ele>589.0</ele><time>2026-05-01T16:21:21.609Z</time></trkpt><trkpt lat="43.4924586" lon="11.2577683"><ele>589.0</ele><time>2026-05-01T16:21:22.615Z</time></trkpt><trkpt lat="43.4923471" lon="11.2578875"><ele>589.0</ele><time>2026-05-01T16:21:23.602Z</time></trkpt><trkpt lat="43.4922446" lon="11.2580293"><ele>589.0</ele><time>2026-05-01T16:21:24.606Z</time></trkpt><trkpt lat="43.4921453" lon="11.2581928"><ele>588.0</ele><time>2026-05-01T16:21:25.601Z</time></trkpt><trkpt lat="43.4920463" lon="11.2583512"><ele>587.0</ele><time>2026-05-01T16:21:26.605Z</time></trkpt><trkpt lat="43.4919495" lon="11.2585"><ele>586.0</ele><time>2026-05-01T16:21:27.601Z</time></trkpt><trkpt lat="43.4918481" lon="11.258633"><ele>585.0</ele><time>2026-05-01T16:21:28.605Z</time></trkpt><trkpt lat="43.4917392" lon="11.2587649"><ele>585.0</ele><time>2026-05-01T16:21:29.602Z</time></trkpt><trkpt lat="43.4915935" lon="11.2589183"><ele>585.0</ele><time>2026-05-01T16:21:30.609Z</time></trkpt><trkpt lat="43.4914232" lon="11.2590521"><ele>585.0</ele><time>2026-05-01T16:21:31.616Z</time></trkpt><trkpt lat="43.4912392" lon="11.2591654"><ele>589.3333333333334</ele><time>2026-05-01T16:21:32.598Z</time></trkpt><trkpt lat="43.4910623" lon="11.259266"><ele>593.6666666666667</ele><time>2026-05-01T16:21:33.6Z</time></trkpt><trkpt lat="43.4908993" lon="11.2593576"><ele>598.0</ele><time>2026-05-01T16:21:34.604Z</time></trkpt><trkpt lat="43.4907507" lon="11.2594508"><ele>598.0</ele><time>2026-05-01T16:21:35.604Z</time></trkpt><trkpt lat="43.4906199" lon="11.2595389"><ele>598.0</ele><time>2026-05-01T16:21:36.607Z</time></trkpt><trkpt lat="43.4904953" lon="11.2596393"><ele>598.0</ele><time>2026-05-01T16:21:37.604Z</time></trkpt><trkpt lat="43.4904034" lon="11.2597702"><ele>598.0</ele><time>2026-05-01T16:21:38.604Z</time></trkpt><trkpt lat="43.490337" lon="11.2599183"><ele>596.0</ele><time>2026-05-01T16:21:39.605Z</time></trkpt><trkpt lat="43.4902848" lon="11.2600672"><ele>594.0</ele><time>2026-05-01T16:21:40.607Z</time></trkpt><trkpt lat="43.4902306" lon="11.2602274"><ele>592.0</ele><time>2026-05-01T16:21:41.598Z</time></trkpt><trkpt lat="43.4901621" lon="11.2603818"><ele>590.0</ele><time>2026-05-01T16:21:42.613Z</time></trkpt><trkpt lat="43.490072" lon="11.2605154"><ele>590.0</ele><time>2026-05-01T16:21:43.603Z</time></trkpt><trkpt lat="43.4899519" lon="11.2606148"><ele>590.0</ele><time>2026-05-01T16:21:44.606Z</time></trkpt><trkpt lat="43.4898162" lon="11.2606795"><ele>590.0</ele><time>2026-05-01T16:21:45.599Z</time></trkpt><trkpt lat="43.4896714" lon="11.2607044"><ele>590.0</ele><time>2026-05-01T16:21:46.598Z</time></trkpt><trkpt lat="43.4895261" lon="11.2607164"><ele>591.25</ele><time>2026-05-01T16:21:47.611Z</time></trkpt><trkpt lat="43.4893908" lon="11.2607394"><ele>592.5</ele><time>2026-05-01T16:21:48.602Z</time></trkpt><trkpt lat="43.489262" lon="11.2607852"><ele>593.75</ele><time>2026-05-01T16:21:49.6Z</time></trkpt><trkpt lat="43.4891319" lon="11.2608584"><ele>595.0</ele><time>2026-05-01T16:21:50.61Z</time></trkpt><trkpt lat="43.4890047" lon="11.2609658"><ele>595.0</ele><time>2026-05-01T16:21:51.615Z</time></trkpt><trkpt lat="43.4888706" lon="11.2610782"><ele>595.0</ele><time>2026-05-01T16:21:52.61Z</time></trkpt><trkpt lat="43.4887472" lon="11.2611766"><ele>595.0</ele><time>2026-05-01T16:21:53.604Z</time></trkpt><trkpt lat="43.4886305" lon="11.2612666"><ele>595.0</ele><time>2026-05-01T16:21:54.603Z</time></trkpt><trkpt lat="43.4885139" lon="11.2613604"><ele>595.6666666666667</ele><time>2026-05-01T16:21:55.598Z</time></trkpt><trkpt lat="43.4883883" lon="11.2614549"><ele>596.3333333333334</ele><time>2026-05-01T16:21:56.599Z</time></trkpt><trkpt lat="43.4882471" lon="11.2615498"><ele>597.0</ele><time>2026-05-01T16:21:57.606Z</time></trkpt><trkpt lat="43.4881034" lon="11.2616319"><ele>597.0</ele><time>2026-05-01T16:21:58.601Z</time></trkpt><trkpt lat="43.487968" lon="11.2617138"><ele>597.0</ele><time>2026-05-01T16:21:59.605Z</time></trkpt><trkpt lat="43.4878437" lon="11.2617973"><ele>597.0</ele><time>2026-05-01T16:22:00.607Z</time></trkpt><trkpt lat="43.4877389" lon="11.2618959"><ele>597.0</ele><time>2026-05-01T16:22:01.604Z</time></trkpt><trkpt lat="43.4876511" lon="11.2620191"><ele>596.5</ele><time>2026-05-01T16:22:02.607Z</time></trkpt><trkpt lat="43.4875699" lon="11.262164"><ele>596.0</ele><time>2026-05-01T16:22:03.607Z</time></trkpt><trkpt lat="43.487497" lon="11.2623322"><ele>595.5</ele><time>2026-05-01T16:22:04.61Z</time></trkpt><trkpt lat="43.4874149" lon="11.2624933"><ele>595.0</ele><time>2026-05-01T16:22:05.605Z</time></trkpt><trkpt lat="43.4873197" lon="11.2626302"><ele>594.6666666666667</ele><time>2026-05-01T16:22:06.609Z</time></trkpt><trkpt lat="43.4871993" lon="11.2627611"><ele>594.3333333333334</ele><time>2026-05-01T16:22:07.616Z</time></trkpt><trkpt lat="43.4870694" lon="11.2628895"><ele>594.0</ele><time>2026-05-01T16:22:08.608Z</time></trkpt><trkpt lat="43.486942" lon="11.2630147"><ele>592.75</ele><time>2026-05-01T16:22:09.612Z</time></trkpt><trkpt lat="43.4868117" lon="11.263111"><ele>591.5</ele><time>2026-05-01T16:22:10.613Z</time></trkpt><trkpt lat="43.486677" lon="11.2631905"><ele>590.25</ele><time>2026-05-01T16:22:11.603Z</time></trkpt><trkpt lat="43.48654" lon="11.2632661"><ele>589.0</ele><time>2026-05-01T16:22:12.607Z</time></trkpt><trkpt lat="43.4863927" lon="11.2633468"><ele>592.0</ele><time>2026-05-01T16:22:13.598Z</time></trkpt><trkpt lat="43.4862479" lon="11.2634291"><ele>595.0</ele><time>2026-05-01T16:22:14.609Z</time></trkpt><trkpt lat="43.4861057" lon="11.263505"><ele>598.0</ele><time>2026-05-01T16:22:15.601Z</time></trkpt><trkpt lat="43.485967" lon="11.2635669"><ele>598.0</ele><time>2026-05-01T16:22:16.603Z</time></trkpt><trkpt lat="43.4858204" lon="11.2636199"><ele>598.0</ele><time>2026-05-01T16:22:17.601Z</time></trkpt><trkpt lat="43.485669" lon="11.2636669"><ele>598.0</ele><time>2026-05-01T16:22:18.616Z</time></trkpt><trkpt lat="43.4855152" lon="11.2637143"><ele>598.75</ele><time>2026-05-01T16:22:19.601Z</time></trkpt><trkpt lat="43.4853729" lon="11.2637705"><ele>599.5</ele><time>2026-05-01T16:22:20.605Z</time></trkpt><trkpt lat="43.4852335" lon="11.2638411"><ele>600.25</ele><time>2026-05-01T16:22:21.614Z</time></trkpt><trkpt lat="43.4850982" lon="11.2639273"><ele>601.0</ele><time>2026-05-01T16:22:22.619Z</time></trkpt><trkpt lat="43.4849572" lon="11.2640404"><ele>599.0</ele><time>2026-05-01T16:22:23.603Z</time></trkpt><trkpt lat="43.4848251" lon="11.2641704"><ele>597.0</ele><time>2026-05-01T16:22:24.616Z</time></trkpt><trkpt lat="43.4847025" lon="11.2643163"><ele>595.0</ele><time>2026-05-01T16:22:25.619Z</time></trkpt><trkpt lat="43.4845934" lon="11.2644699"><ele>593.6666666666667</ele><time>2026-05-01T16:22:26.605Z</time></trkpt><trkpt lat="43.4844806" lon="11.2646273"><ele>592.3333333333334</ele><time>2026-05-01T16:22:27.601Z</time></trkpt><trkpt lat="43.484367" lon="11.2647838"><ele>591.0</ele><time>2026-05-01T16:22:28.609Z</time></trkpt><trkpt lat="43.4842486" lon="11.2649229"><ele>591.0</ele><time>2026-05-01T16:22:29.61Z</time></trkpt><trkpt lat="43.4841259" lon="11.2650503"><ele>591.0</ele><time>2026-05-01T16:22:30.618Z</time></trkpt><trkpt lat="43.4839952" lon="11.2651697"><ele>591.0</ele><time>2026-05-01T16:22:31.602Z</time></trkpt><trkpt lat="43.483861" lon="11.2652894"><ele>591.5</ele><time>2026-05-01T16:22:32.607Z</time></trkpt><trkpt lat="43.4837314" lon="11.2653975"><ele>592.0</ele><time>2026-05-01T16:22:33.602Z</time></trkpt><trkpt lat="43.4836112" lon="11.2655099"><ele>592.5</ele><time>2026-05-01T16:22:34.613Z</time></trkpt><trkpt lat="43.4834893" lon="11.2656241"><ele>593.0</ele><time>2026-05-01T16:22:35.597Z</time></trkpt><trkpt lat="43.4833871" lon="11.2657452"><ele>593.0</ele><time>2026-05-01T16:22:36.6Z</time></trkpt><trkpt lat="43.4833029" lon="11.2659011"><ele>593.0</ele><time>2026-05-01T16:22:37.616Z</time></trkpt><trkpt lat="43.4832388" lon="11.2660669"><ele>593.0</ele><time>2026-05-01T16:22:38.605Z</time></trkpt><trkpt lat="43.4832004" lon="11.2662435"><ele>593.0</ele><time>2026-05-01T16:22:39.611Z</time></trkpt><trkpt lat="43.4831683" lon="11.2664179"><ele>594.0</ele><time>2026-05-01T16:22:40.606Z</time></trkpt><trkpt lat="43.4831365" lon="11.2665796"><ele>595.0</ele><time>2026-05-01T16:22:41.604Z</time></trkpt><trkpt lat="43.4830977" lon="11.266739"><ele>596.0</ele><time>2026-05-01T16:22:42.599Z</time></trkpt><trkpt lat="43.483048" lon="11.2669014"><ele>597.0</ele><time>2026-05-01T16:22:43.602Z</time></trkpt><trkpt lat="43.4829718" lon="11.267045"><ele>597.75</ele><time>2026-05-01T16:22:44.609Z</time></trkpt><trkpt lat="43.482874" lon="11.2671811"><ele>598.5</ele><time>2026-05-01T16:22:45.592Z</time></trkpt><trkpt lat="43.4827543" lon="11.2672859"><ele>599.25</ele><time>2026-05-01T16:22:46.602Z</time></trkpt><trkpt lat="43.4826473" lon="11.2673721"><ele>600.0</ele><time>2026-05-01T16:22:47.603Z</time></trkpt><trkpt lat="43.482533" lon="11.2674526"><ele>600.0</ele><time>2026-05-01T16:22:48.604Z</time></trkpt><trkpt lat="43.4824139" lon="11.2675568"><ele>600.0</ele><time>2026-05-01T16:22:49.604Z</time></trkpt><trkpt lat="43.4822964" lon="11.2676578"><ele>600.0</ele><time>2026-05-01T16:22:50.607Z</time></trkpt><trkpt lat="43.482174" lon="11.2677586"><ele>600.0</ele><time>2026-05-01T16:22:51.609Z</time></trkpt><trkpt lat="43.4820481" lon="11.2678614"><ele>599.3333333333334</ele><time>2026-05-01T16:22:52.604Z</time></trkpt><trkpt lat="43.4819198" lon="11.2679698"><ele>598.6666666666667</ele><time>2026-05-01T16:22:53.597Z</time></trkpt><trkpt lat="43.4817873" lon="11.2680634"><ele>598.0</ele><time>2026-05-01T16:22:54.616Z</time></trkpt><trkpt lat="43.4816468" lon="11.2681508"><ele>601.5</ele><time>2026-05-01T16:22:55.606Z</time></trkpt><trkpt lat="43.4815072" lon="11.2682157"><ele>605.0</ele><time>2026-05-01T16:22:56.605Z</time></trkpt><trkpt lat="43.481379" lon="11.268262"><ele>608.5</ele><time>2026-05-01T16:22:57.607Z</time></trkpt><trkpt lat="43.4812618" lon="11.268299"><ele>612.0</ele><time>2026-05-01T16:22:58.611Z</time></trkpt><trkpt lat="43.4811532" lon="11.2683404"><ele>612.75</ele><time>2026-05-01T16:22:59.619Z</time></trkpt><trkpt lat="43.4810414" lon="11.2683724"><ele>613.5</ele><time>2026-05-01T16:23:00.596Z</time></trkpt><trkpt lat="43.480925" lon="11.2683773"><ele>614.25</ele><time>2026-05-01T16:23:01.621Z</time></trkpt><trkpt lat="43.4807979" lon="11.2683634"><ele>615.0</ele><time>2026-05-01T16:23:02.618Z</time></trkpt><trkpt lat="43.4806609" lon="11.2683496"><ele>615.0</ele><time>2026-05-01T16:23:03.598Z</time></trkpt><trkpt lat="43.480533" lon="11.2683253"><ele>615.0</ele><time>2026-05-01T16:23:04.598Z</time></trkpt><trkpt lat="43.480408" lon="11.2682995"><ele>615.0</ele><time>2026-05-01T16:23:05.602Z</time></trkpt><trkpt lat="43.4802815" lon="11.2682658"><ele>615.0</ele><time>2026-05-01T16:23:06.606Z</time></trkpt><trkpt lat="43.4801469" lon="11.2682249"><ele>615.0</ele><time>2026-05-01T16:23:07.605Z</time></trkpt><trkpt lat="43.4800084" lon="11.268185"><ele>615.0</ele><time>2026-05-01T16:23:08.615Z</time></trkpt><trkpt lat="43.4798678" lon="11.2681507"><ele>615.0</ele><time>2026-05-01T16:23:09.601Z</time></trkpt><trkpt lat="43.4797407" lon="11.2681263"><ele>615.0</ele><time>2026-05-01T16:23:10.605Z</time></trkpt><trkpt lat="43.4796242" lon="11.2681081"><ele>616.25</ele><time>2026-05-01T16:23:11.612Z</time></trkpt><trkpt lat="43.4795064" lon="11.2680943"><ele>617.5</ele><time>2026-05-01T16:23:12.605Z</time></trkpt><trkpt lat="43.4793821" lon="11.268085"><ele>618.75</ele><time>2026-05-01T16:23:13.611Z</time></trkpt><trkpt lat="43.47926" lon="11.2680822"><ele>620.0</ele><time>2026-05-01T16:23:14.599Z</time></trkpt><trkpt lat="43.4791361" lon="11.2680833"><ele>620.0</ele><time>2026-05-01T16:23:15.601Z</time></trkpt><trkpt lat="43.4790147" lon="11.2680808"><ele>620.0</ele><time>2026-05-01T16:23:16.603Z</time></trkpt><trkpt lat="43.4788915" lon="11.2680844"><ele>620.0</ele><time>2026-05-01T16:23:17.615Z</time></trkpt><trkpt lat="43.4787659" lon="11.268107"><ele>620.0</ele><time>2026-05-01T16:23:18.601Z</time></trkpt><trkpt lat="43.4786404" lon="11.2681695"><ele>621.25</ele><time>2026-05-01T16:23:19.607Z</time></trkpt><trkpt lat="43.4785298" lon="11.2682672"><ele>622.5</ele><time>2026-05-01T16:23:20.613Z</time></trkpt><trkpt lat="43.4784317" lon="11.2683687"><ele>623.75</ele><time>2026-05-01T16:23:21.608Z</time></trkpt><trkpt lat="43.4783431" lon="11.2684803"><ele>625.0</ele><time>2026-05-01T16:23:22.613Z</time></trkpt><trkpt lat="43.4782538" lon="11.2686235"><ele>625.0</ele><time>2026-05-01T16:23:23.605Z</time></trkpt><trkpt lat="43.4781406" lon="11.2688026"><ele>625.0</ele><time>2026-05-01T16:23:24.615Z</time></trkpt><trkpt lat="43.4779974" lon="11.269006"><ele>625.0</ele><time>2026-05-01T16:23:25.601Z</time></trkpt><trkpt lat="43.4778336" lon="11.2692191"><ele>625.0</ele><time>2026-05-01T16:23:26.606Z</time></trkpt><trkpt lat="43.4776782" lon="11.2694255"><ele>625.0</ele><time>2026-05-01T16:23:27.607Z</time></trkpt><trkpt lat="43.4775235" lon="11.2696318"><ele>625.0</ele><time>2026-05-01T16:23:28.608Z</time></trkpt><trkpt lat="43.4773669" lon="11.2698147"><ele>624.6666666666667</ele><time>2026-05-01T16:23:29.601Z</time></trkpt><trkpt lat="43.4772155" lon="11.269988"><ele>624.3333333333334</ele><time>2026-05-01T16:23:30.611Z</time></trkpt><trkpt lat="43.4770888" lon="11.2701803"><ele>624.0</ele><time>2026-05-01T16:23:31.597Z</time></trkpt><trkpt lat="43.4769817" lon="11.2703822"><ele>624.0</ele><time>2026-05-01T16:23:32.597Z</time></trkpt><trkpt lat="43.4768867" lon="11.2705901"><ele>624.0</ele><time>2026-05-01T16:23:33.6Z</time></trkpt><trkpt lat="43.4768085" lon="11.2708261"><ele>624.0</ele><time>2026-05-01T16:23:34.609Z</time></trkpt><trkpt lat="43.4767167" lon="11.2710555"><ele>624.6666666666666</ele><time>2026-05-01T16:23:35.601Z</time></trkpt><trkpt lat="43.4766168" lon="11.2712731"><ele>625.3333333333333</ele><time>2026-05-01T16:23:36.615Z</time></trkpt><trkpt lat="43.4765186" lon="11.2714839"><ele>626.0</ele><time>2026-05-01T16:23:37.61Z</time></trkpt><trkpt lat="43.4764086" lon="11.2716799"><ele>627.0</ele><time>2026-05-01T16:23:38.61Z</time></trkpt><trkpt lat="43.4762805" lon="11.2718594"><ele>628.0</ele><time>2026-05-01T16:23:39.598Z</time></trkpt><trkpt lat="43.4761229" lon="11.2720317"><ele>629.0</ele><time>2026-05-01T16:23:40.609Z</time></trkpt><trkpt lat="43.4759548" lon="11.2722318"><ele>625.0</ele><time>2026-05-01T16:23:41.618Z</time></trkpt><trkpt lat="43.4757883" lon="11.2724448"><ele>621.0</ele><time>2026-05-01T16:23:42.605Z</time></trkpt><trkpt lat="43.4756348" lon="11.2726329"><ele>617.0</ele><time>2026-05-01T16:23:43.601Z</time></trkpt><trkpt lat="43.4755044" lon="11.2728138"><ele>614.6666666666666</ele><time>2026-05-01T16:23:44.605Z</time></trkpt><trkpt lat="43.4753921" lon="11.2730097"><ele>612.3333333333334</ele><time>2026-05-01T16:23:45.606Z</time></trkpt><trkpt lat="43.4752768" lon="11.2732188"><ele>610.0</ele><time>2026-05-01T16:23:46.614Z</time></trkpt><trkpt lat="43.4751628" lon="11.2734496"><ele>610.0</ele><time>2026-05-01T16:23:47.593Z</time></trkpt><trkpt lat="43.4750649" lon="11.2736893"><ele>610.0</ele><time>2026-05-01T16:23:48.604Z</time></trkpt><trkpt lat="43.4749906" lon="11.273944"><ele>610.0</ele><time>2026-05-01T16:23:49.599Z</time></trkpt><trkpt lat="43.4749171" lon="11.2742188"><ele>610.3333333333334</ele><time>2026-05-01T16:23:50.608Z</time></trkpt><trkpt lat="43.4748598" lon="11.2745006"><ele>610.6666666666666</ele><time>2026-05-01T16:23:51.611Z</time></trkpt><trkpt lat="43.4748254" lon="11.2747915"><ele>611.0</ele><time>2026-05-01T16:23:52.602Z</time></trkpt><trkpt lat="43.4748111" lon="11.2750749"><ele>611.6666666666666</ele><time>2026-05-01T16:23:53.605Z</time></trkpt><trkpt lat="43.4748134" lon="11.275337"><ele>612.3333333333334</ele><time>2026-05-01T16:23:54.601Z</time></trkpt><trkpt lat="43.4748276" lon="11.2755907"><ele>613.0</ele><time>2026-05-01T16:23:55.603Z</time></trkpt><trkpt lat="43.4748362" lon="11.2758202"><ele>613.0</ele><time>2026-05-01T16:23:56.612Z</time></trkpt><trkpt lat="43.4748346" lon="11.2760417"><ele>613.0</ele><time>2026-05-01T16:23:57.608Z</time></trkpt><trkpt lat="43.4748273" lon="11.2762484"><ele>613.0</ele><time>2026-05-01T16:23:58.604Z</time></trkpt><trkpt lat="43.4748166" lon="11.2764456"><ele>613.0</ele><time>2026-05-01T16:23:59.609Z</time></trkpt><trkpt lat="43.4747984" lon="11.276609"><ele>613.0</ele><time>2026-05-01T16:24:00.609Z</time></trkpt><trkpt lat="43.4747617" lon="11.276751"><ele>613.0</ele><time>2026-05-01T16:24:01.613Z</time></trkpt><trkpt lat="43.474712" lon="11.2768784"><ele>613.0</ele><time>2026-05-01T16:24:02.609Z</time></trkpt><trkpt lat="43.4746539" lon="11.277001"><ele>613.0</ele><time>2026-05-01T16:24:03.611Z</time></trkpt><trkpt lat="43.4745921" lon="11.2771139"><ele>613.1999999999999</ele><time>2026-05-01T16:24:04.6Z</time></trkpt><trkpt lat="43.4745309" lon="11.2772308"><ele>613.4</ele><time>2026-05-01T16:24:05.603Z</time></trkpt><trkpt lat="43.4744778" lon="11.2773475"><ele>613.5999999999999</ele><time>2026-05-01T16:24:06.605Z</time></trkpt><trkpt lat="43.4744256" lon="11.2774575"><ele>613.8</ele><time>2026-05-01T16:24:07.608Z</time></trkpt><trkpt lat="43.4743741" lon="11.2775728"><ele>614.0</ele><time>2026-05-01T16:24:08.601Z</time></trkpt><trkpt lat="43.4743196" lon="11.2776804"><ele>612.8333333333333</ele><time>2026-05-01T16:24:09.614Z</time></trkpt><trkpt lat="43.4742694" lon="11.2777851"><ele>611.6666666666666</ele><time>2026-05-01T16:24:10.598Z</time></trkpt><trkpt lat="43.4742212" lon="11.2778819"><ele>610.5</ele><time>2026-05-01T16:24:11.61Z</time></trkpt><trkpt lat="43.4741709" lon="11.2779785"><ele>609.3333333333334</ele><time>2026-05-01T16:24:12.605Z</time></trkpt><trkpt lat="43.4741258" lon="11.278079"><ele>608.1666666666667</ele><time>2026-05-01T16:24:13.607Z</time></trkpt><trkpt lat="43.4740768" lon="11.2781795"><ele>607.0</ele><time>2026-05-01T16:24:14.609Z</time></trkpt><trkpt lat="43.4740248" lon="11.2782833"><ele>606.0</ele><time>2026-05-01T16:24:15.605Z</time></trkpt><trkpt lat="43.4739703" lon="11.2783815"><ele>605.0</ele><time>2026-05-01T16:24:16.621Z</time></trkpt><trkpt lat="43.4739181" lon="11.2784792"><ele>604.0</ele><time>2026-05-01T16:24:17.608Z</time></trkpt><trkpt lat="43.4738696" lon="11.278582"><ele>603.0</ele><time>2026-05-01T16:24:18.607Z</time></trkpt><trkpt lat="43.4738175" lon="11.2786833"><ele>602.0</ele><time>2026-05-01T16:24:19.617Z</time></trkpt><trkpt lat="43.4737561" lon="11.2787836"><ele>601.8000000000001</ele><time>2026-05-01T16:24:20.613Z</time></trkpt><trkpt lat="43.4736885" lon="11.2788783"><ele>601.6</ele><time>2026-05-01T16:24:21.608Z</time></trkpt><trkpt lat="43.4736188" lon="11.2789664"><ele>601.4000000000001</ele><time>2026-05-01T16:24:22.605Z</time></trkpt><trkpt lat="43.4735467" lon="11.2790478"><ele>601.2</ele><time>2026-05-01T16:24:23.613Z</time></trkpt><trkpt lat="43.473481" lon="11.2791423"><ele>601.0</ele><time>2026-05-01T16:24:24.602Z</time></trkpt><trkpt lat="43.4734158" lon="11.2792477"><ele>599.25</ele><time>2026-05-01T16:24:25.602Z</time></trkpt><trkpt lat="43.4733495" lon="11.2793652"><ele>597.5</ele><time>2026-05-01T16:24:26.604Z</time></trkpt><trkpt lat="43.4732868" lon="11.279492"><ele>595.75</ele><time>2026-05-01T16:24:27.602Z</time></trkpt><trkpt lat="43.4732283" lon="11.2796313"><ele>594.0</ele><time>2026-05-01T16:24:28.598Z</time></trkpt><trkpt lat="43.4731827" lon="11.2797767"><ele>592.6</ele><time>2026-05-01T16:24:29.606Z</time></trkpt><trkpt lat="43.4731455" lon="11.2799169"><ele>591.2</ele><time>2026-05-01T16:24:30.616Z</time></trkpt><trkpt lat="43.4731171" lon="11.280064"><ele>589.8000000000001</ele><time>2026-05-01T16:24:31.605Z</time></trkpt><trkpt lat="43.4730881" lon="11.2802147"><ele>588.4</ele><time>2026-05-01T16:24:32.608Z</time></trkpt><trkpt lat="43.4730508" lon="11.2803498"><ele>587.0</ele><time>2026-05-01T16:24:33.611Z</time></trkpt><trkpt lat="43.4730046" lon="11.2804726"><ele>587.0</ele><time>2026-05-01T16:24:34.603Z</time></trkpt><trkpt lat="43.4729507" lon="11.2805913"><ele>587.0</ele><time>2026-05-01T16:24:35.614Z</time></trkpt><trkpt lat="43.4729069" lon="11.2806909"><ele>587.0</ele><time>2026-05-01T16:24:36.614Z</time></trkpt><trkpt lat="43.47285" lon="11.2808245"><ele>587.0</ele><time>2026-05-01T16:24:38.601Z</time></trkpt><trkpt lat="43.4727805" lon="11.2809791"><ele>587.0</ele><time>2026-05-01T16:24:40.61Z</time></trkpt><trkpt lat="43.472735" lon="11.2810692"><ele>586.8333333333333</ele><time>2026-05-01T16:24:41.608Z</time></trkpt><trkpt lat="43.4726676" lon="11.2811793"><ele>586.6666666666666</ele><time>2026-05-01T16:24:42.615Z</time></trkpt><trkpt lat="43.4725945" lon="11.2812723"><ele>586.5</ele><time>2026-05-01T16:24:43.611Z</time></trkpt><trkpt lat="43.4725297" lon="11.2813442"><ele>586.3333333333334</ele><time>2026-05-01T16:24:44.624Z</time></trkpt><trkpt lat="43.4724717" lon="11.2814085"><ele>586.1666666666667</ele><time>2026-05-01T16:24:45.618Z</time></trkpt><trkpt lat="43.4724155" lon="11.2814762"><ele>586.0</ele><time>2026-05-01T16:24:46.607Z</time></trkpt><trkpt lat="43.4723564" lon="11.2815498"><ele>586.2857142857142</ele><time>2026-05-01T16:24:47.616Z</time></trkpt><trkpt lat="43.472304" lon="11.2816242"><ele>586.5714285714286</ele><time>2026-05-01T16:24:48.612Z</time></trkpt><trkpt lat="43.4722533" lon="11.2817016"><ele>586.8571428571429</ele><time>2026-05-01T16:24:49.616Z</time></trkpt><trkpt lat="43.4722082" lon="11.2817813"><ele>587.1428571428571</ele><time>2026-05-01T16:24:50.605Z</time></trkpt><trkpt lat="43.4721653" lon="11.2818589"><ele>587.4285714285714</ele><time>2026-05-01T16:24:51.605Z</time></trkpt><trkpt lat="43.4721334" lon="11.2819468"><ele>587.7142857142857</ele><time>2026-05-01T16:24:52.605Z</time></trkpt><trkpt lat="43.4721075" lon="11.2820425"><ele>588.0</ele><time>2026-05-01T16:24:53.612Z</time></trkpt><trkpt lat="43.472082" lon="11.2821587"><ele>587.1999999999999</ele><time>2026-05-01T16:24:54.609Z</time></trkpt><trkpt lat="43.4720543" lon="11.2822953"><ele>586.4</ele><time>2026-05-01T16:24:55.605Z</time></trkpt><trkpt lat="43.4720322" lon="11.2824325"><ele>585.5999999999999</ele><time>2026-05-01T16:24:56.61Z</time></trkpt><trkpt lat="43.4720104" lon="11.2825572"><ele>584.8</ele><time>2026-05-01T16:24:57.609Z</time></trkpt><trkpt lat="43.4719972" lon="11.2826748"><ele>584.0</ele><time>2026-05-01T16:24:58.594Z</time></trkpt><trkpt lat="43.4719794" lon="11.2827793"><ele>584.0</ele><time>2026-05-01T16:24:59.6Z</time></trkpt><trkpt lat="43.4719554" lon="11.282888"><ele>584.0</ele><time>2026-05-01T16:25:00.609Z</time></trkpt><trkpt lat="43.4719322" lon="11.2829988"><ele>584.0</ele><time>2026-05-01T16:25:01.604Z</time></trkpt><trkpt lat="43.4719072" lon="11.2831157"><ele>584.0</ele><time>2026-05-01T16:25:02.611Z</time></trkpt><trkpt lat="43.4718837" lon="11.2832322"><ele>584.0</ele><time>2026-05-01T16:25:03.601Z</time></trkpt><trkpt lat="43.4718558" lon="11.2833593"><ele>584.0</ele><time>2026-05-01T16:25:04.607Z</time></trkpt><trkpt lat="43.4718211" lon="11.2834875"><ele>583.3333333333333</ele><time>2026-05-01T16:25:05.612Z</time></trkpt><trkpt lat="43.4717853" lon="11.2836167"><ele>582.6666666666666</ele><time>2026-05-01T16:25:06.607Z</time></trkpt><trkpt lat="43.471758" lon="11.2837352"><ele>582.0</ele><time>2026-05-01T16:25:07.601Z</time></trkpt><trkpt lat="43.4717389" lon="11.2838392"><ele>581.3333333333334</ele><time>2026-05-01T16:25:08.607Z</time></trkpt><trkpt lat="43.4717162" lon="11.2839294"><ele>580.6666666666667</ele><time>2026-05-01T16:25:09.606Z</time></trkpt><trkpt lat="43.4716983" lon="11.2840135"><ele>580.0</ele><time>2026-05-01T16:25:10.606Z</time></trkpt><trkpt lat="43.4716818" lon="11.2841008"><ele>579.8571428571429</ele><time>2026-05-01T16:25:11.608Z</time></trkpt><trkpt lat="43.4716651" lon="11.2841965"><ele>579.7142857142858</ele><time>2026-05-01T16:25:12.617Z</time></trkpt><trkpt lat="43.4716509" lon="11.2842983"><ele>579.5714285714286</ele><time>2026-05-01T16:25:13.599Z</time></trkpt><trkpt lat="43.4716369" lon="11.2844022"><ele>579.4285714285714</ele><time>2026-05-01T16:25:14.602Z</time></trkpt><trkpt lat="43.4716297" lon="11.2845125"><ele>579.2857142857142</ele><time>2026-05-01T16:25:15.601Z</time></trkpt><trkpt lat="43.4716237" lon="11.2846134"><ele>579.1428571428571</ele><time>2026-05-01T16:25:16.616Z</time></trkpt><trkpt lat="43.4716193" lon="11.2847055"><ele>579.0</ele><time>2026-05-01T16:25:17.605Z</time></trkpt><trkpt lat="43.471604" lon="11.2848713"><ele>578.5</ele><time>2026-05-01T16:25:19.601Z</time></trkpt><trkpt lat="43.4715854" lon="11.2850302"><ele>578.0</ele><time>2026-05-01T16:25:21.608Z</time></trkpt><trkpt lat="43.4715636" lon="11.285148"><ele>577.5</ele><time>2026-05-01T16:25:23.6Z</time></trkpt><trkpt lat="43.4715407" lon="11.2852431"><ele>577.0</ele><time>2026-05-01T16:25:25.617Z</time></trkpt><trkpt lat="43.4715163" lon="11.2853337"><ele>576.5</ele><time>2026-05-01T16:25:33.612Z</time></trkpt><trkpt lat="43.471473" lon="11.2854204"><ele>576.0</ele><time>2026-05-01T16:25:47.623Z</time></trkpt><trkpt lat="43.471411" lon="11.285443"><ele>576.0</ele><time>2026-05-01T16:25:50.595Z</time></trkpt><trkpt lat="43.4712899" lon="11.2854184"><ele>576.0</ele><time>2026-05-01T16:25:52.61Z</time></trkpt><trkpt lat="43.4712207" lon="11.2854039"><ele>576.0</ele><time>2026-05-01T16:25:53.609Z</time></trkpt><trkpt lat="43.471143" lon="11.285399"><ele>576.0</ele><time>2026-05-01T16:25:54.612Z</time></trkpt><trkpt lat="43.4710687" lon="11.2854102"><ele>576.0</ele><time>2026-05-01T16:25:55.604Z</time></trkpt><trkpt lat="43.4709896" lon="11.2854344"><ele>576.0</ele><time>2026-05-01T16:25:56.6Z</time></trkpt><trkpt lat="43.4709268" lon="11.2854599"><ele>574.8333333333334</ele><time>2026-05-01T16:25:57.599Z</time></trkpt><trkpt lat="43.4708602" lon="11.2854907"><ele>573.6666666666666</ele><time>2026-05-01T16:25:58.598Z</time></trkpt><trkpt lat="43.4707848" lon="11.2855258"><ele>572.5</ele><time>2026-05-01T16:25:59.619Z</time></trkpt><trkpt lat="43.4707185" lon="11.2855523"><ele>571.3333333333333</ele><time>2026-05-01T16:26:00.601Z</time></trkpt><trkpt lat="43.4706234" lon="11.2856"><ele>570.1666666666666</ele><time>2026-05-01T16:26:02.602Z</time></trkpt><trkpt lat="43.4705434" lon="11.2856459"><ele>569.0</ele><time>2026-05-01T16:26:04.611Z</time></trkpt><trkpt lat="43.4704675" lon="11.2856846"><ele>568.8333333333333</ele><time>2026-05-01T16:26:06.608Z</time></trkpt><trkpt lat="43.4703734" lon="11.2857696"><ele>568.6666666666666</ele><time>2026-05-01T16:26:08.601Z</time></trkpt><trkpt lat="43.4703137" lon="11.2858126"><ele>568.5</ele><time>2026-05-01T16:26:09.602Z</time></trkpt><trkpt lat="43.470244" lon="11.2858548"><ele>568.3333333333334</ele><time>2026-05-01T16:26:10.618Z</time></trkpt><trkpt lat="43.4701828" lon="11.2858879"><ele>568.1666666666667</ele><time>2026-05-01T16:26:11.611Z</time></trkpt><trkpt lat="43.4700909" lon="11.2859429"><ele>568.0</ele><time>2026-05-01T16:26:13.603Z</time></trkpt><trkpt lat="43.4699957" lon="11.2859998"><ele>568.0</ele><time>2026-05-01T16:26:15.61Z</time></trkpt><trkpt lat="43.4699296" lon="11.286015"><ele>568.0</ele><time>2026-05-01T16:26:16.615Z</time></trkpt><trkpt lat="43.4698504" lon="11.2860367"><ele>568.0</ele><time>2026-05-01T16:26:17.61Z</time></trkpt><trkpt lat="43.4697613" lon="11.2860558"><ele>568.0</ele><time>2026-05-01T16:26:18.625Z</time></trkpt><trkpt lat="43.4696711" lon="11.286063"><ele>568.0</ele><time>2026-05-01T16:26:19.603Z</time></trkpt><trkpt lat="43.4695897" lon="11.286066"><ele>568.0</ele><time>2026-05-01T16:26:20.597Z</time></trkpt><trkpt lat="43.4695222" lon="11.2860657"><ele>567.6666666666667</ele><time>2026-05-01T16:26:21.608Z</time></trkpt><trkpt lat="43.4693973" lon="11.2860832"><ele>567.3333333333334</ele><time>2026-05-01T16:26:23.605Z</time></trkpt><trkpt lat="43.4693307" lon="11.2860962"><ele>567.0</ele><time>2026-05-01T16:26:24.602Z</time></trkpt><trkpt lat="43.4692671" lon="11.2861096"><ele>566.6666666666666</ele><time>2026-05-01T16:26:25.609Z</time></trkpt><trkpt lat="43.4691952" lon="11.2861262"><ele>566.3333333333333</ele><time>2026-05-01T16:26:26.607Z</time></trkpt><trkpt lat="43.4691245" lon="11.2861454"><ele>566.0</ele><time>2026-05-01T16:26:27.613Z</time></trkpt><trkpt lat="43.4690553" lon="11.2861709"><ele>566.0</ele><time>2026-05-01T16:26:28.609Z</time></trkpt><trkpt lat="43.4689852" lon="11.2862018"><ele>566.0</ele><time>2026-05-01T16:26:29.606Z</time></trkpt><trkpt lat="43.468914" lon="11.2862501"><ele>566.0</ele><time>2026-05-01T16:26:30.612Z</time></trkpt><trkpt lat="43.4688504" lon="11.2863111"><ele>566.0</ele><time>2026-05-01T16:26:31.607Z</time></trkpt><trkpt lat="43.4687895" lon="11.2863859"><ele>566.0</ele><time>2026-05-01T16:26:32.601Z</time></trkpt><trkpt lat="43.468727" lon="11.2864719"><ele>566.0</ele><time>2026-05-01T16:26:33.6Z</time></trkpt><trkpt lat="43.4686661" lon="11.2865652"><ele>566.0</ele><time>2026-05-01T16:26:34.605Z</time></trkpt><trkpt lat="43.468602" lon="11.2866589"><ele>566.0</ele><time>2026-05-01T16:26:35.614Z</time></trkpt><trkpt lat="43.4685418" lon="11.2867453"><ele>566.0</ele><time>2026-05-01T16:26:36.603Z</time></trkpt><trkpt lat="43.468483" lon="11.2868267"><ele>566.0</ele><time>2026-05-01T16:26:37.611Z</time></trkpt><trkpt lat="43.4684255" lon="11.2869018"><ele>566.0</ele><time>2026-05-01T16:26:38.611Z</time></trkpt><trkpt lat="43.4683787" lon="11.2869635"><ele>566.0</ele><time>2026-05-01T16:26:39.605Z</time></trkpt><trkpt lat="43.4683258" lon="11.2870227"><ele>566.0</ele><time>2026-05-01T16:26:40.607Z</time></trkpt><trkpt lat="43.4682635" lon="11.2870757"><ele>566.0</ele><time>2026-05-01T16:26:41.608Z</time></trkpt><trkpt lat="43.4681942" lon="11.287126"><ele>566.0</ele><time>2026-05-01T16:26:42.603Z</time></trkpt><trkpt lat="43.4681208" lon="11.2871704"><ele>566.0</ele><time>2026-05-01T16:26:43.604Z</time></trkpt><trkpt lat="43.4680447" lon="11.2872094"><ele>566.0</ele><time>2026-05-01T16:26:44.61Z</time></trkpt><trkpt lat="43.4679771" lon="11.2872452"><ele>566.0</ele><time>2026-05-01T16:26:45.621Z</time></trkpt><trkpt lat="43.4679136" lon="11.2872702"><ele>566.5</ele><time>2026-05-01T16:26:46.606Z</time></trkpt><trkpt lat="43.4677923" lon="11.2873275"><ele>567.0</ele><time>2026-05-01T16:26:48.604Z</time></trkpt><trkpt lat="43.4677308" lon="11.2873653"><ele>567.5</ele><time>2026-05-01T16:26:49.612Z</time></trkpt><trkpt lat="43.4676731" lon="11.2874226"><ele>568.0</ele><time>2026-05-01T16:26:50.607Z</time></trkpt><trkpt lat="43.4676251" lon="11.2874926"><ele>568.5</ele><time>2026-05-01T16:26:51.611Z</time></trkpt><trkpt lat="43.4675822" lon="11.287557"><ele>569.0</ele><time>2026-05-01T16:26:52.607Z</time></trkpt><trkpt lat="43.4675231" lon="11.2876652"><ele>569.0</ele><time>2026-05-01T16:26:54.609Z</time></trkpt><trkpt lat="43.4674586" lon="11.2877973"><ele>569.0</ele><time>2026-05-01T16:26:56.614Z</time></trkpt><trkpt lat="43.467414" lon="11.2878906"><ele>569.0</ele><time>2026-05-01T16:26:57.614Z</time></trkpt><trkpt lat="43.4673585" lon="11.2879913"><ele>569.0</ele><time>2026-05-01T16:26:58.607Z</time></trkpt><trkpt lat="43.4673006" lon="11.2880929"><ele>569.0</ele><time>2026-05-01T16:26:59.599Z</time></trkpt><trkpt lat="43.4672516" lon="11.2881826"><ele>568.6666666666666</ele><time>2026-05-01T16:27:00.601Z</time></trkpt><trkpt lat="43.4672064" lon="11.2882584"><ele>568.3333333333333</ele><time>2026-05-01T16:27:01.601Z</time></trkpt><trkpt lat="43.4671579" lon="11.2883346"><ele>568.0</ele><time>2026-05-01T16:27:02.595Z</time></trkpt><trkpt lat="43.4671012" lon="11.2884107"><ele>567.6666666666666</ele><time>2026-05-01T16:27:03.606Z</time></trkpt><trkpt lat="43.4670384" lon="11.2884827"><ele>567.3333333333334</ele><time>2026-05-01T16:27:04.6Z</time></trkpt><trkpt lat="43.4669673" lon="11.2885473"><ele>567.0</ele><time>2026-05-01T16:27:05.604Z</time></trkpt><trkpt lat="43.4668753" lon="11.2886153"><ele>568.0</ele><time>2026-05-01T16:27:06.608Z</time></trkpt><trkpt lat="43.4667829" lon="11.2886739"><ele>569.0</ele><time>2026-05-01T16:27:07.609Z</time></trkpt><trkpt lat="43.4666949" lon="11.2887252"><ele>570.0</ele><time>2026-05-01T16:27:08.612Z</time></trkpt><trkpt lat="43.4666179" lon="11.2887522"><ele>571.0</ele><time>2026-05-01T16:27:09.601Z</time></trkpt><trkpt lat="43.4665209" lon="11.2887857"><ele>572.0</ele><time>2026-05-01T16:27:11.606Z</time></trkpt><trkpt lat="43.4664243" lon="11.2888419"><ele>571.0</ele><time>2026-05-01T16:27:13.604Z</time></trkpt><trkpt lat="43.4663227" lon="11.2889266"><ele>570.0</ele><time>2026-05-01T16:27:15.603Z</time></trkpt><trkpt lat="43.4661983" lon="11.288988"><ele>569.0</ele><time>2026-05-01T16:27:17.608Z</time></trkpt><trkpt lat="43.466124" lon="11.2890156"><ele>568.0</ele><time>2026-05-01T16:27:18.609Z</time></trkpt><trkpt lat="43.4660453" lon="11.2890416"><ele>567.0</ele><time>2026-05-01T16:27:19.627Z</time></trkpt><trkpt lat="43.4659717" lon="11.289062"><ele>567.0</ele><time>2026-05-01T16:27:20.612Z</time></trkpt><trkpt lat="43.4658925" lon="11.2890963"><ele>567.0</ele><time>2026-05-01T16:27:21.615Z</time></trkpt><trkpt lat="43.4658122" lon="11.2891231"><ele>567.0</ele><time>2026-05-01T16:27:22.61Z</time></trkpt><trkpt lat="43.4657312" lon="11.2891461"><ele>567.0</ele><time>2026-05-01T16:27:23.604Z</time></trkpt><trkpt lat="43.4656497" lon="11.2891722"><ele>567.0</ele><time>2026-05-01T16:27:24.613Z</time></trkpt><trkpt lat="43.4655658" lon="11.289211"><ele>567.0</ele><time>2026-05-01T16:27:25.607Z</time></trkpt><trkpt lat="43.4654844" lon="11.2892456"><ele>566.5</ele><time>2026-05-01T16:27:26.618Z</time></trkpt><trkpt lat="43.4654073" lon="11.2892619"><ele>566.0</ele><time>2026-05-01T16:27:27.614Z</time></trkpt><trkpt lat="43.4653333" lon="11.289289"><ele>565.5</ele><time>2026-05-01T16:27:28.61Z</time></trkpt><trkpt lat="43.4652557" lon="11.2893105"><ele>565.0</ele><time>2026-05-01T16:27:29.606Z</time></trkpt><trkpt lat="43.4651724" lon="11.289331"><ele>564.5</ele><time>2026-05-01T16:27:30.611Z</time></trkpt><trkpt lat="43.4650814" lon="11.2893581"><ele>564.0</ele><time>2026-05-01T16:27:31.611Z</time></trkpt><trkpt lat="43.4649953" lon="11.2893793"><ele>564.0</ele><time>2026-05-01T16:27:32.611Z</time></trkpt><trkpt lat="43.4649143" lon="11.2894007"><ele>564.0</ele><time>2026-05-01T16:27:33.611Z</time></trkpt><trkpt lat="43.4648416" lon="11.2894291"><ele>564.0</ele><time>2026-05-01T16:27:34.611Z</time></trkpt><trkpt lat="43.4647785" lon="11.2894449"><ele>564.0</ele><time>2026-05-01T16:27:35.61Z</time></trkpt><trkpt lat="43.4646634" lon="11.2894736"><ele>564.0</ele><time>2026-05-01T16:27:37.627Z</time></trkpt><trkpt lat="43.4645515" lon="11.2894891"><ele>563.4</ele><time>2026-05-01T16:27:39.606Z</time></trkpt><trkpt lat="43.4644535" lon="11.2894874"><ele>562.8</ele><time>2026-05-01T16:27:41.618Z</time></trkpt><trkpt lat="43.4643814" lon="11.2894434"><ele>562.2</ele><time>2026-05-01T16:27:43.621Z</time></trkpt><trkpt lat="43.4643382" lon="11.2893395"><ele>561.6</ele><time>2026-05-01T16:27:46.615Z</time></trkpt><trkpt lat="43.4643101" lon="11.2892595"><ele>561.0</ele><time>2026-05-01T16:27:48.61Z</time></trkpt><trkpt lat="43.4642578" lon="11.289098"><ele>561.0</ele><time>2026-05-01T16:27:50.606Z</time></trkpt><trkpt lat="43.4642267" lon="11.288985"><ele>561.0</ele><time>2026-05-01T16:27:51.617Z</time></trkpt><trkpt lat="43.4641993" lon="11.288861"><ele>561.0</ele><time>2026-05-01T16:27:52.611Z</time></trkpt><trkpt lat="43.4641605" lon="11.2887345"><ele>561.0</ele><time>2026-05-01T16:27:53.604Z</time></trkpt><trkpt lat="43.4641063" lon="11.2886169"><ele>561.0</ele><time>2026-05-01T16:27:54.612Z</time></trkpt><trkpt lat="43.4640366" lon="11.2885148"><ele>560.8</ele><time>2026-05-01T16:27:55.61Z</time></trkpt><trkpt lat="43.4639435" lon="11.2884403"><ele>560.6</ele><time>2026-05-01T16:27:56.608Z</time></trkpt><trkpt lat="43.4638415" lon="11.2883713"><ele>560.4</ele><time>2026-05-01T16:27:57.614Z</time></trkpt><trkpt lat="43.4637427" lon="11.2883053"><ele>560.2</ele><time>2026-05-01T16:27:58.608Z</time></trkpt><trkpt lat="43.4636457" lon="11.2882492"><ele>560.0</ele><time>2026-05-01T16:27:59.615Z</time></trkpt><trkpt lat="43.4635476" lon="11.2881926"><ele>559.1666666666666</ele><time>2026-05-01T16:28:00.61Z</time></trkpt><trkpt lat="43.4634523" lon="11.2881379"><ele>558.3333333333333</ele><time>2026-05-01T16:28:01.607Z</time></trkpt><trkpt lat="43.4633678" lon="11.2880896"><ele>557.5</ele><time>2026-05-01T16:28:02.606Z</time></trkpt><trkpt lat="43.4632879" lon="11.2880429"><ele>556.6666666666666</ele><time>2026-05-01T16:28:03.61Z</time></trkpt><trkpt lat="43.4632111" lon="11.2880073"><ele>555.8333333333334</ele><time>2026-05-01T16:28:04.602Z</time></trkpt><trkpt lat="43.4631398" lon="11.2879737"><ele>555.0</ele><time>2026-05-01T16:28:05.602Z</time></trkpt><trkpt lat="43.4630682" lon="11.2879486"><ele>553.2857142857143</ele><time>2026-05-01T16:28:06.607Z</time></trkpt><trkpt lat="43.4630017" lon="11.2879216"><ele>551.5714285714286</ele><time>2026-05-01T16:28:07.615Z</time></trkpt><trkpt lat="43.4629319" lon="11.2878896"><ele>549.8571428571429</ele><time>2026-05-01T16:28:08.609Z</time></trkpt><trkpt lat="43.4628738" lon="11.2878444"><ele>548.1428571428571</ele><time>2026-05-01T16:28:09.607Z</time></trkpt><trkpt lat="43.4628253" lon="11.2877736"><ele>546.4285714285714</ele><time>2026-05-01T16:28:10.605Z</time></trkpt><trkpt lat="43.4627748" lon="11.2876896"><ele>544.7142857142858</ele><time>2026-05-01T16:28:11.606Z</time></trkpt><trkpt lat="43.4627292" lon="11.2876088"><ele>543.0</ele><time>2026-05-01T16:28:12.607Z</time></trkpt><trkpt lat="43.4626893" lon="11.2875288"><ele>542.0</ele><time>2026-05-01T16:28:13.606Z</time></trkpt><trkpt lat="43.4626092" lon="11.2874051"><ele>542.0</ele><time>2026-05-01T16:28:15.614Z</time></trkpt><trkpt lat="43.4625504" lon="11.2873175"><ele>542.0</ele><time>2026-05-01T16:28:17.604Z</time></trkpt><trkpt lat="43.462496" lon="11.2872418"><ele>532.0</ele><time>2026-05-01T16:28:20.604Z</time></trkpt></trkseg></trk></gpx>